<?xml version="1.0" encoding="UTF-8" standalone="no" ?>
<gpx xmlns="http://www.topografix.com/GPX/1/1" xmlns:xsi="http://www.w3.org/2001/XMLSchema-instance" xsi:schemaLocation="http://www.topografix.com/GPX/1/1 http://www.topografix.com/GPX/1/1/gpx.xsd" version="1.1" creator="VisuGPX - https://www.visugpx.com">
  <metadata>
    <name>The 3 Bosses</name>
    <desc><![CDATA[3 bosses version vitesse normale]]></desc>
  </metadata>
  <wpt lat="47.50151" lon="6.76424">
    <ele>403</ele>
    <name><![CDATA[Point de cheminement 1]]></name>
    <desc><![CDATA[]]></desc>
  </wpt>
  <wpt lat="47.49128" lon="6.76642">
    <ele>314</ele>
    <name><![CDATA[Point de cheminement 2]]></name>
    <desc><![CDATA[]]></desc>
  </wpt>
  <wpt lat="47.47086" lon="6.744">
    <ele>329</ele>
    <name><![CDATA[Point de cheminement 3]]></name>
    <desc><![CDATA[]]></desc>
  </wpt>
  <wpt lat="47.45936" lon="6.73648">
    <ele>439</ele>
    <name><![CDATA[Point de cheminement 4]]></name>
    <desc><![CDATA[]]></desc>
  </wpt>
  <wpt lat="47.43249" lon="6.72006">
    <ele>471</ele>
    <name><![CDATA[Point de cheminement 5]]></name>
    <desc><![CDATA[]]></desc>
  </wpt>
  <wpt lat="47.41068" lon="6.70907">
    <ele>395</ele>
    <name><![CDATA[Point de cheminement 6]]></name>
    <desc><![CDATA[]]></desc>
  </wpt>
  <wpt lat="47.40094" lon="6.72126">
    <ele>482</ele>
    <name><![CDATA[Point de cheminement 7]]></name>
    <desc><![CDATA[]]></desc>
  </wpt>
  <wpt lat="47.40228" lon="6.70449">
    <ele>481</ele>
    <name><![CDATA[Point de cheminement 8]]></name>
    <desc><![CDATA[]]></desc>
  </wpt>
  <wpt lat="47.42392" lon="6.69633">
    <ele>375</ele>
    <name><![CDATA[Point de cheminement 9]]></name>
    <desc><![CDATA[]]></desc>
  </wpt>
  <wpt lat="47.44066" lon="6.72459">
    <ele>468</ele>
    <name><![CDATA[Point de cheminement 10]]></name>
    <desc><![CDATA[]]></desc>
  </wpt>
  <wpt lat="47.46661" lon="6.74814">
    <ele>364</ele>
    <name><![CDATA[Point de cheminement 11]]></name>
    <desc><![CDATA[]]></desc>
  </wpt>
  <wpt lat="47.48578" lon="6.7706">
    <ele>314</ele>
    <name><![CDATA[Point de cheminement 12]]></name>
    <desc><![CDATA[]]></desc>
  </wpt>
  <wpt lat="47.50972" lon="6.77694">
    <ele>315</ele>
    <name><![CDATA[Point de cheminement 13]]></name>
    <desc><![CDATA[]]></desc>
  </wpt>
  <trk>
    <name><![CDATA[Rue Antoine Coysevox]]></name>
    <desc><![CDATA[]]></desc>
    <trkseg>
      <trkpt lat="47.51822" lon="6.77487">
        <ele>387</ele>
        <time>2016-05-15T07:09:18.646Z</time>
      </trkpt>
      <trkpt lat="47.51811" lon="6.77487">
        <ele>388</ele>
        <time>2016-05-15T07:09:19.645Z</time>
      </trkpt>
      <trkpt lat="47.51808" lon="6.77488">
        <ele>388</ele>
        <time>2016-05-15T07:09:20.645Z</time>
      </trkpt>
      <trkpt lat="47.51798" lon="6.77483">
        <ele>388</ele>
        <time>2016-05-15T07:09:21.634Z</time>
      </trkpt>
      <trkpt lat="47.51803" lon="6.77484">
        <ele>388</ele>
        <time>2016-05-15T07:09:22.000Z</time>
      </trkpt>
      <trkpt lat="47.51799" lon="6.77481">
        <ele>388</ele>
        <time>2016-05-15T07:14:04.000Z</time>
      </trkpt>
      <trkpt lat="47.51798" lon="6.77481">
        <ele>388</ele>
        <time>2016-05-15T07:14:05.000Z</time>
      </trkpt>
      <trkpt lat="47.51802" lon="6.77482">
        <ele>388</ele>
        <time>2016-05-15T07:14:17.000Z</time>
      </trkpt>
      <trkpt lat="47.51802" lon="6.77485">
        <ele>388</ele>
        <time>2016-05-15T07:14:18.000Z</time>
      </trkpt>
      <trkpt lat="47.51801" lon="6.77487">
        <ele>388</ele>
        <time>2016-05-15T07:14:19.000Z</time>
      </trkpt>
      <trkpt lat="47.51799" lon="6.77489">
        <ele>388</ele>
        <time>2016-05-15T07:14:20.000Z</time>
      </trkpt>
      <trkpt lat="47.51796" lon="6.77489">
        <ele>388</ele>
        <time>2016-05-15T07:14:21.000Z</time>
      </trkpt>
      <trkpt lat="47.51792" lon="6.77489">
        <ele>388</ele>
        <time>2016-05-15T07:14:22.000Z</time>
      </trkpt>
      <trkpt lat="47.51789" lon="6.77489">
        <ele>388</ele>
        <time>2016-05-15T07:14:23.000Z</time>
      </trkpt>
      <trkpt lat="47.51786" lon="6.77489">
        <ele>388</ele>
        <time>2016-05-15T07:14:24.000Z</time>
      </trkpt>
      <trkpt lat="47.51783" lon="6.77489">
        <ele>388</ele>
        <time>2016-05-15T07:14:25.000Z</time>
      </trkpt>
      <trkpt lat="47.51781" lon="6.77489">
        <ele>388</ele>
        <time>2016-05-15T07:14:26.000Z</time>
      </trkpt>
      <trkpt lat="47.51778" lon="6.77488">
        <ele>388</ele>
        <time>2016-05-15T07:14:27.000Z</time>
      </trkpt>
      <trkpt lat="47.51775" lon="6.77488">
        <ele>388</ele>
        <time>2016-05-15T07:14:28.000Z</time>
      </trkpt>
      <trkpt lat="47.51773" lon="6.77487">
        <ele>388</ele>
        <time>2016-05-15T07:14:29.000Z</time>
      </trkpt>
      <trkpt lat="47.5177" lon="6.77486">
        <ele>389</ele>
        <time>2016-05-15T07:14:30.000Z</time>
      </trkpt>
      <trkpt lat="47.51766" lon="6.77485">
        <ele>389</ele>
        <time>2016-05-15T07:14:31.000Z</time>
      </trkpt>
      <trkpt lat="47.51763" lon="6.77485">
        <ele>389</ele>
        <time>2016-05-15T07:14:32.000Z</time>
      </trkpt>
      <trkpt lat="47.5176" lon="6.77485">
        <ele>389</ele>
        <time>2016-05-15T07:14:33.000Z</time>
      </trkpt>
      <trkpt lat="47.51757" lon="6.77484">
        <ele>389</ele>
        <time>2016-05-15T07:14:34.000Z</time>
      </trkpt>
      <trkpt lat="47.51754" lon="6.77483">
        <ele>389</ele>
        <time>2016-05-15T07:14:35.000Z</time>
      </trkpt>
      <trkpt lat="47.51751" lon="6.77482">
        <ele>389</ele>
        <time>2016-05-15T07:14:36.000Z</time>
      </trkpt>
      <trkpt lat="47.51748" lon="6.77482">
        <ele>389</ele>
        <time>2016-05-15T07:14:37.000Z</time>
      </trkpt>
      <trkpt lat="47.51745" lon="6.77481">
        <ele>389</ele>
        <time>2016-05-15T07:14:38.000Z</time>
      </trkpt>
      <trkpt lat="47.51741" lon="6.7748">
        <ele>389</ele>
        <time>2016-05-15T07:14:39.000Z</time>
      </trkpt>
      <trkpt lat="47.51738" lon="6.77479">
        <ele>389</ele>
        <time>2016-05-15T07:14:40.000Z</time>
      </trkpt>
      <trkpt lat="47.51734" lon="6.77479">
        <ele>389</ele>
        <time>2016-05-15T07:14:41.000Z</time>
      </trkpt>
      <trkpt lat="47.51731" lon="6.77478">
        <ele>389</ele>
        <time>2016-05-15T07:14:42.000Z</time>
      </trkpt>
      <trkpt lat="47.51727" lon="6.77478">
        <ele>389</ele>
        <time>2016-05-15T07:14:43.000Z</time>
      </trkpt>
      <trkpt lat="47.51724" lon="6.77479">
        <ele>389</ele>
        <time>2016-05-15T07:14:44.000Z</time>
      </trkpt>
      <trkpt lat="47.51721" lon="6.7748">
        <ele>389</ele>
        <time>2016-05-15T07:14:45.000Z</time>
      </trkpt>
      <trkpt lat="47.51718" lon="6.77483">
        <ele>389</ele>
        <time>2016-05-15T07:14:46.000Z</time>
      </trkpt>
      <trkpt lat="47.51716" lon="6.77488">
        <ele>389</ele>
        <time>2016-05-15T07:14:47.000Z</time>
      </trkpt>
      <trkpt lat="47.51715" lon="6.77494">
        <ele>389</ele>
        <time>2016-05-15T07:14:48.000Z</time>
      </trkpt>
      <trkpt lat="47.51716" lon="6.775">
        <ele>390</ele>
        <time>2016-05-15T07:14:49.000Z</time>
      </trkpt>
      <trkpt lat="47.51716" lon="6.77506">
        <ele>390</ele>
        <time>2016-05-15T07:14:50.000Z</time>
      </trkpt>
      <trkpt lat="47.51716" lon="6.77511">
        <ele>390</ele>
        <time>2016-05-15T07:14:51.000Z</time>
      </trkpt>
      <trkpt lat="47.51716" lon="6.77516">
        <ele>390</ele>
        <time>2016-05-15T07:14:52.000Z</time>
      </trkpt>
      <trkpt lat="47.51715" lon="6.77521">
        <ele>390</ele>
        <time>2016-05-15T07:14:53.000Z</time>
      </trkpt>
      <trkpt lat="47.51714" lon="6.77526">
        <ele>390</ele>
        <time>2016-05-15T07:14:54.000Z</time>
      </trkpt>
      <trkpt lat="47.51714" lon="6.7753">
        <ele>390</ele>
        <time>2016-05-15T07:14:55.000Z</time>
      </trkpt>
      <trkpt lat="47.51714" lon="6.77535">
        <ele>390</ele>
        <time>2016-05-15T07:14:56.000Z</time>
      </trkpt>
      <trkpt lat="47.51715" lon="6.7754">
        <ele>390</ele>
        <time>2016-05-15T07:14:57.000Z</time>
      </trkpt>
      <trkpt lat="47.51715" lon="6.77545">
        <ele>390</ele>
        <time>2016-05-15T07:14:58.000Z</time>
      </trkpt>
      <trkpt lat="47.51714" lon="6.77549">
        <ele>390</ele>
        <time>2016-05-15T07:14:59.000Z</time>
      </trkpt>
      <trkpt lat="47.51712" lon="6.77553">
        <ele>390</ele>
        <time>2016-05-15T07:15:00.000Z</time>
      </trkpt>
      <trkpt lat="47.51709" lon="6.77554">
        <ele>390</ele>
        <time>2016-05-15T07:15:01.000Z</time>
      </trkpt>
      <trkpt lat="47.51706" lon="6.77555">
        <ele>390</ele>
        <time>2016-05-15T07:15:02.000Z</time>
      </trkpt>
      <trkpt lat="47.51703" lon="6.77555">
        <ele>390</ele>
        <time>2016-05-15T07:15:03.000Z</time>
      </trkpt>
      <trkpt lat="47.51699" lon="6.77553">
        <ele>390</ele>
        <time>2016-05-15T07:15:04.000Z</time>
      </trkpt>
      <trkpt lat="47.51695" lon="6.77551">
        <ele>390</ele>
        <time>2016-05-15T07:15:05.000Z</time>
      </trkpt>
      <trkpt lat="47.51691" lon="6.77547">
        <ele>390</ele>
        <time>2016-05-15T07:15:06.000Z</time>
      </trkpt>
      <trkpt lat="47.51686" lon="6.77543">
        <ele>390</ele>
        <time>2016-05-15T07:15:07.000Z</time>
      </trkpt>
      <trkpt lat="47.5168" lon="6.77531">
        <ele>390</ele>
        <time>2016-05-15T07:15:08.000Z</time>
      </trkpt>
      <trkpt lat="47.51676" lon="6.77526">
        <ele>390</ele>
        <time>2016-05-15T07:15:09.000Z</time>
      </trkpt>
      <trkpt lat="47.51671" lon="6.77521">
        <ele>389</ele>
        <time>2016-05-15T07:15:10.000Z</time>
      </trkpt>
      <trkpt lat="47.51666" lon="6.77516">
        <ele>388</ele>
        <time>2016-05-15T07:15:11.000Z</time>
      </trkpt>
      <trkpt lat="47.51662" lon="6.7751">
        <ele>388</ele>
        <time>2016-05-15T07:15:12.000Z</time>
      </trkpt>
      <trkpt lat="47.51657" lon="6.77506">
        <ele>388</ele>
        <time>2016-05-15T07:15:13.000Z</time>
      </trkpt>
      <trkpt lat="47.51652" lon="6.77502">
        <ele>388</ele>
        <time>2016-05-15T07:15:14.000Z</time>
      </trkpt>
      <trkpt lat="47.51647" lon="6.77497">
        <ele>387</ele>
        <time>2016-05-15T07:15:15.000Z</time>
      </trkpt>
      <trkpt lat="47.51643" lon="6.77493">
        <ele>387</ele>
        <time>2016-05-15T07:15:16.000Z</time>
      </trkpt>
      <trkpt lat="47.51638" lon="6.77486">
        <ele>387</ele>
        <time>2016-05-15T07:15:17.000Z</time>
      </trkpt>
      <trkpt lat="47.51633" lon="6.77479">
        <ele>386</ele>
        <time>2016-05-15T07:15:18.000Z</time>
      </trkpt>
      <trkpt lat="47.51628" lon="6.77475">
        <ele>386</ele>
        <time>2016-05-15T07:15:19.000Z</time>
      </trkpt>
      <trkpt lat="47.51622" lon="6.77468">
        <ele>386</ele>
        <time>2016-05-15T07:15:20.000Z</time>
      </trkpt>
      <trkpt lat="47.51617" lon="6.77462">
        <ele>386</ele>
        <time>2016-05-15T07:15:21.000Z</time>
      </trkpt>
      <trkpt lat="47.51612" lon="6.77456">
        <ele>385</ele>
        <time>2016-05-15T07:15:22.000Z</time>
      </trkpt>
      <trkpt lat="47.51607" lon="6.7745">
        <ele>385</ele>
        <time>2016-05-15T07:15:23.000Z</time>
      </trkpt>
      <trkpt lat="47.51601" lon="6.77444">
        <ele>385</ele>
        <time>2016-05-15T07:15:24.000Z</time>
      </trkpt>
      <trkpt lat="47.51596" lon="6.77437">
        <ele>385</ele>
        <time>2016-05-15T07:15:25.000Z</time>
      </trkpt>
      <trkpt lat="47.51591" lon="6.7743">
        <ele>384</ele>
        <time>2016-05-15T07:15:26.000Z</time>
      </trkpt>
      <trkpt lat="47.51586" lon="6.77422">
        <ele>384</ele>
        <time>2016-05-15T07:15:27.000Z</time>
      </trkpt>
      <trkpt lat="47.5158" lon="6.77416">
        <ele>383</ele>
        <time>2016-05-15T07:15:28.000Z</time>
      </trkpt>
      <trkpt lat="47.51575" lon="6.77409">
        <ele>382</ele>
        <time>2016-05-15T07:15:29.000Z</time>
      </trkpt>
      <trkpt lat="47.51569" lon="6.77403">
        <ele>382</ele>
        <time>2016-05-15T07:15:30.000Z</time>
      </trkpt>
      <trkpt lat="47.51563" lon="6.77396">
        <ele>381</ele>
        <time>2016-05-15T07:15:31.000Z</time>
      </trkpt>
      <trkpt lat="47.51558" lon="6.77389">
        <ele>381</ele>
        <time>2016-05-15T07:15:32.000Z</time>
      </trkpt>
      <trkpt lat="47.51553" lon="6.77382">
        <ele>381</ele>
        <time>2016-05-15T07:15:33.000Z</time>
      </trkpt>
      <trkpt lat="47.51547" lon="6.77377">
        <ele>381</ele>
        <time>2016-05-15T07:15:34.000Z</time>
      </trkpt>
      <trkpt lat="47.51541" lon="6.7737">
        <ele>380</ele>
        <time>2016-05-15T07:15:35.000Z</time>
      </trkpt>
      <trkpt lat="47.51536" lon="6.77363">
        <ele>380</ele>
        <time>2016-05-15T07:15:36.000Z</time>
      </trkpt>
      <trkpt lat="47.5153" lon="6.77357">
        <ele>380</ele>
        <time>2016-05-15T07:15:37.000Z</time>
      </trkpt>
      <trkpt lat="47.51524" lon="6.77349">
        <ele>380</ele>
        <time>2016-05-15T07:15:38.000Z</time>
      </trkpt>
      <trkpt lat="47.51517" lon="6.77341">
        <ele>379</ele>
        <time>2016-05-15T07:15:39.000Z</time>
      </trkpt>
      <trkpt lat="47.51511" lon="6.77333">
        <ele>379</ele>
        <time>2016-05-15T07:15:40.000Z</time>
      </trkpt>
      <trkpt lat="47.51504" lon="6.77326">
        <ele>378</ele>
        <time>2016-05-15T07:15:41.000Z</time>
      </trkpt>
      <trkpt lat="47.51498" lon="6.77318">
        <ele>377</ele>
        <time>2016-05-15T07:15:42.000Z</time>
      </trkpt>
      <trkpt lat="47.51491" lon="6.7731">
        <ele>377</ele>
        <time>2016-05-15T07:15:43.000Z</time>
      </trkpt>
      <trkpt lat="47.51487" lon="6.77299">
        <ele>377</ele>
        <time>2016-05-15T07:15:44.000Z</time>
      </trkpt>
      <trkpt lat="47.51483" lon="6.77287">
        <ele>377</ele>
        <time>2016-05-15T07:15:45.000Z</time>
      </trkpt>
      <trkpt lat="47.5148" lon="6.77275">
        <ele>377</ele>
        <time>2016-05-15T07:15:46.000Z</time>
      </trkpt>
      <trkpt lat="47.51479" lon="6.77264">
        <ele>376</ele>
        <time>2016-05-15T07:15:47.000Z</time>
      </trkpt>
      <trkpt lat="47.51477" lon="6.77253">
        <ele>376</ele>
        <time>2016-05-15T07:15:48.000Z</time>
      </trkpt>
      <trkpt lat="47.51476" lon="6.77242">
        <ele>375</ele>
        <time>2016-05-15T07:15:49.000Z</time>
      </trkpt>
      <trkpt lat="47.51475" lon="6.77232">
        <ele>375</ele>
        <time>2016-05-15T07:15:50.000Z</time>
      </trkpt>
      <trkpt lat="47.51474" lon="6.77222">
        <ele>375</ele>
        <time>2016-05-15T07:15:51.000Z</time>
      </trkpt>
      <trkpt lat="47.51472" lon="6.77213">
        <ele>375</ele>
        <time>2016-05-15T07:15:52.000Z</time>
      </trkpt>
      <trkpt lat="47.51468" lon="6.77205">
        <ele>375</ele>
        <time>2016-05-15T07:15:53.000Z</time>
      </trkpt>
      <trkpt lat="47.51463" lon="6.77203">
        <ele>375</ele>
        <time>2016-05-15T07:15:54.000Z</time>
      </trkpt>
      <trkpt lat="47.51459" lon="6.77199">
        <ele>375</ele>
        <time>2016-05-15T07:15:55.000Z</time>
      </trkpt>
      <trkpt lat="47.51452" lon="6.772">
        <ele>375</ele>
        <time>2016-05-15T07:15:56.000Z</time>
      </trkpt>
      <trkpt lat="47.51445" lon="6.77204">
        <ele>375</ele>
        <time>2016-05-15T07:15:57.000Z</time>
      </trkpt>
      <trkpt lat="47.51438" lon="6.77206">
        <ele>375</ele>
        <time>2016-05-15T07:15:58.000Z</time>
      </trkpt>
      <trkpt lat="47.51431" lon="6.77209">
        <ele>375</ele>
        <time>2016-05-15T07:15:59.000Z</time>
      </trkpt>
      <trkpt lat="47.51424" lon="6.77212">
        <ele>375</ele>
        <time>2016-05-15T07:16:00.000Z</time>
      </trkpt>
      <trkpt lat="47.51417" lon="6.77214">
        <ele>375</ele>
        <time>2016-05-15T07:16:01.000Z</time>
      </trkpt>
      <trkpt lat="47.51411" lon="6.77218">
        <ele>375</ele>
        <time>2016-05-15T07:16:02.000Z</time>
      </trkpt>
      <trkpt lat="47.51405" lon="6.7722">
        <ele>376</ele>
        <time>2016-05-15T07:16:03.000Z</time>
      </trkpt>
      <trkpt lat="47.51399" lon="6.77224">
        <ele>376</ele>
        <time>2016-05-15T07:16:04.000Z</time>
      </trkpt>
      <trkpt lat="47.51394" lon="6.77227">
        <ele>376</ele>
        <time>2016-05-15T07:16:05.000Z</time>
      </trkpt>
      <trkpt lat="47.51389" lon="6.7723">
        <ele>376</ele>
        <time>2016-05-15T07:16:06.000Z</time>
      </trkpt>
      <trkpt lat="47.51384" lon="6.77233">
        <ele>376</ele>
        <time>2016-05-15T07:16:07.000Z</time>
      </trkpt>
      <trkpt lat="47.5138" lon="6.77236">
        <ele>376</ele>
        <time>2016-05-15T07:16:08.000Z</time>
      </trkpt>
      <trkpt lat="47.51376" lon="6.77239">
        <ele>376</ele>
        <time>2016-05-15T07:16:09.000Z</time>
      </trkpt>
      <trkpt lat="47.51371" lon="6.77242">
        <ele>376</ele>
        <time>2016-05-15T07:16:10.000Z</time>
      </trkpt>
      <trkpt lat="47.51367" lon="6.77244">
        <ele>376</ele>
        <time>2016-05-15T07:16:11.000Z</time>
      </trkpt>
      <trkpt lat="47.51364" lon="6.77246">
        <ele>376</ele>
        <time>2016-05-15T07:16:12.000Z</time>
      </trkpt>
      <trkpt lat="47.51361" lon="6.77249">
        <ele>376</ele>
        <time>2016-05-15T07:16:13.000Z</time>
      </trkpt>
      <trkpt lat="47.51359" lon="6.77252">
        <ele>378</ele>
        <time>2016-05-15T07:16:14.000Z</time>
      </trkpt>
      <trkpt lat="47.51356" lon="6.77254">
        <ele>378</ele>
        <time>2016-05-15T07:16:15.000Z</time>
      </trkpt>
      <trkpt lat="47.51353" lon="6.77256">
        <ele>378</ele>
        <time>2016-05-15T07:16:16.000Z</time>
      </trkpt>
      <trkpt lat="47.51351" lon="6.77259">
        <ele>378</ele>
        <time>2016-05-15T07:16:17.000Z</time>
      </trkpt>
      <trkpt lat="47.51348" lon="6.77262">
        <ele>378</ele>
        <time>2016-05-15T07:16:18.000Z</time>
      </trkpt>
      <trkpt lat="47.51346" lon="6.77263">
        <ele>378</ele>
        <time>2016-05-15T07:16:19.000Z</time>
      </trkpt>
      <trkpt lat="47.51344" lon="6.77266">
        <ele>378</ele>
        <time>2016-05-15T07:16:20.000Z</time>
      </trkpt>
      <trkpt lat="47.51341" lon="6.77268">
        <ele>378</ele>
        <time>2016-05-15T07:16:21.000Z</time>
      </trkpt>
      <trkpt lat="47.51339" lon="6.77271">
        <ele>378</ele>
        <time>2016-05-15T07:16:22.000Z</time>
      </trkpt>
      <trkpt lat="47.51336" lon="6.77273">
        <ele>378</ele>
        <time>2016-05-15T07:16:23.000Z</time>
      </trkpt>
      <trkpt lat="47.51333" lon="6.77275">
        <ele>377</ele>
        <time>2016-05-15T07:16:24.000Z</time>
      </trkpt>
      <trkpt lat="47.5133" lon="6.77277">
        <ele>377</ele>
        <time>2016-05-15T07:16:25.000Z</time>
      </trkpt>
      <trkpt lat="47.51327" lon="6.77279">
        <ele>377</ele>
        <time>2016-05-15T07:16:26.000Z</time>
      </trkpt>
      <trkpt lat="47.51324" lon="6.7728">
        <ele>377</ele>
        <time>2016-05-15T07:16:27.000Z</time>
      </trkpt>
      <trkpt lat="47.51322" lon="6.7728">
        <ele>377</ele>
        <time>2016-05-15T07:16:28.000Z</time>
      </trkpt>
      <trkpt lat="47.51318" lon="6.77281">
        <ele>377</ele>
        <time>2016-05-15T07:16:30.000Z</time>
      </trkpt>
      <trkpt lat="47.51316" lon="6.77282">
        <ele>377</ele>
        <time>2016-05-15T07:16:31.000Z</time>
      </trkpt>
      <trkpt lat="47.51312" lon="6.77281">
        <ele>377</ele>
        <time>2016-05-15T07:16:33.000Z</time>
      </trkpt>
      <trkpt lat="47.51309" lon="6.7728">
        <ele>377</ele>
        <time>2016-05-15T07:16:34.000Z</time>
      </trkpt>
      <trkpt lat="47.51306" lon="6.77278">
        <ele>377</ele>
        <time>2016-05-15T07:16:35.000Z</time>
      </trkpt>
      <trkpt lat="47.51302" lon="6.77277">
        <ele>377</ele>
        <time>2016-05-15T07:16:36.000Z</time>
      </trkpt>
      <trkpt lat="47.51299" lon="6.77276">
        <ele>377</ele>
        <time>2016-05-15T07:16:37.000Z</time>
      </trkpt>
      <trkpt lat="47.51295" lon="6.77275">
        <ele>377</ele>
        <time>2016-05-15T07:16:38.000Z</time>
      </trkpt>
      <trkpt lat="47.51292" lon="6.77273">
        <ele>377</ele>
        <time>2016-05-15T07:16:39.000Z</time>
      </trkpt>
      <trkpt lat="47.51289" lon="6.77272">
        <ele>377</ele>
        <time>2016-05-15T07:16:40.000Z</time>
      </trkpt>
      <trkpt lat="47.51285" lon="6.77271">
        <ele>377</ele>
        <time>2016-05-15T07:16:41.000Z</time>
      </trkpt>
      <trkpt lat="47.51282" lon="6.77269">
        <ele>377</ele>
        <time>2016-05-15T07:16:42.000Z</time>
      </trkpt>
      <trkpt lat="47.51279" lon="6.77267">
        <ele>377</ele>
        <time>2016-05-15T07:16:43.000Z</time>
      </trkpt>
      <trkpt lat="47.51276" lon="6.77266">
        <ele>377</ele>
        <time>2016-05-15T07:16:44.000Z</time>
      </trkpt>
      <trkpt lat="47.51273" lon="6.77264">
        <ele>377</ele>
        <time>2016-05-15T07:16:45.000Z</time>
      </trkpt>
      <trkpt lat="47.5127" lon="6.77261">
        <ele>377</ele>
        <time>2016-05-15T07:16:46.000Z</time>
      </trkpt>
      <trkpt lat="47.51267" lon="6.77259">
        <ele>378</ele>
        <time>2016-05-15T07:16:47.000Z</time>
      </trkpt>
      <trkpt lat="47.51264" lon="6.77257">
        <ele>378</ele>
        <time>2016-05-15T07:16:48.000Z</time>
      </trkpt>
      <trkpt lat="47.5126" lon="6.77254">
        <ele>378</ele>
        <time>2016-05-15T07:16:49.000Z</time>
      </trkpt>
      <trkpt lat="47.51257" lon="6.77252">
        <ele>378</ele>
        <time>2016-05-15T07:16:50.000Z</time>
      </trkpt>
      <trkpt lat="47.51253" lon="6.77249">
        <ele>379</ele>
        <time>2016-05-15T07:16:51.000Z</time>
      </trkpt>
      <trkpt lat="47.5125" lon="6.77246">
        <ele>379</ele>
        <time>2016-05-15T07:16:52.000Z</time>
      </trkpt>
      <trkpt lat="47.51247" lon="6.77243">
        <ele>378</ele>
        <time>2016-05-15T07:16:53.000Z</time>
      </trkpt>
      <trkpt lat="47.51244" lon="6.7724">
        <ele>377</ele>
        <time>2016-05-15T07:16:54.000Z</time>
      </trkpt>
      <trkpt lat="47.51241" lon="6.77237">
        <ele>377</ele>
        <time>2016-05-15T07:16:55.000Z</time>
      </trkpt>
      <trkpt lat="47.51238" lon="6.77234">
        <ele>376</ele>
        <time>2016-05-15T07:16:56.000Z</time>
      </trkpt>
      <trkpt lat="47.51234" lon="6.77231">
        <ele>376</ele>
        <time>2016-05-15T07:16:57.108Z</time>
      </trkpt>
      <trkpt lat="47.51229" lon="6.77224">
        <ele>376</ele>
        <time>2016-05-15T07:16:59.000Z</time>
      </trkpt>
      <trkpt lat="47.51226" lon="6.7722">
        <ele>375</ele>
        <time>2016-05-15T07:17:00.000Z</time>
      </trkpt>
      <trkpt lat="47.51224" lon="6.77215">
        <ele>375</ele>
        <time>2016-05-15T07:17:01.000Z</time>
      </trkpt>
      <trkpt lat="47.51221" lon="6.77211">
        <ele>375</ele>
        <time>2016-05-15T07:17:02.000Z</time>
      </trkpt>
      <trkpt lat="47.51218" lon="6.77207">
        <ele>375</ele>
        <time>2016-05-15T07:17:03.000Z</time>
      </trkpt>
      <trkpt lat="47.51215" lon="6.77202">
        <ele>375</ele>
        <time>2016-05-15T07:17:04.000Z</time>
      </trkpt>
      <trkpt lat="47.51212" lon="6.77193">
        <ele>376</ele>
        <time>2016-05-15T07:17:05.000Z</time>
      </trkpt>
      <trkpt lat="47.51209" lon="6.77186">
        <ele>376</ele>
        <time>2016-05-15T07:17:06.000Z</time>
      </trkpt>
      <trkpt lat="47.51207" lon="6.77179">
        <ele>376</ele>
        <time>2016-05-15T07:17:07.000Z</time>
      </trkpt>
      <trkpt lat="47.51204" lon="6.77171">
        <ele>376</ele>
        <time>2016-05-15T07:17:08.000Z</time>
      </trkpt>
      <trkpt lat="47.51201" lon="6.77164">
        <ele>378</ele>
        <time>2016-05-15T07:17:09.000Z</time>
      </trkpt>
      <trkpt lat="47.51197" lon="6.77158">
        <ele>378</ele>
        <time>2016-05-15T07:17:10.000Z</time>
      </trkpt>
      <trkpt lat="47.51194" lon="6.77152">
        <ele>378</ele>
        <time>2016-05-15T07:17:11.000Z</time>
      </trkpt>
      <trkpt lat="47.5119" lon="6.77145">
        <ele>378</ele>
        <time>2016-05-15T07:17:12.000Z</time>
      </trkpt>
      <trkpt lat="47.51186" lon="6.77141">
        <ele>378</ele>
        <time>2016-05-15T07:17:13.000Z</time>
      </trkpt>
      <trkpt lat="47.51182" lon="6.77135">
        <ele>378</ele>
        <time>2016-05-15T07:17:14.000Z</time>
      </trkpt>
      <trkpt lat="47.51178" lon="6.77126">
        <ele>378</ele>
        <time>2016-05-15T07:17:15.000Z</time>
      </trkpt>
      <trkpt lat="47.51174" lon="6.77116">
        <ele>378</ele>
        <time>2016-05-15T07:17:16.000Z</time>
      </trkpt>
      <trkpt lat="47.51171" lon="6.77108">
        <ele>378</ele>
        <time>2016-05-15T07:17:17.000Z</time>
      </trkpt>
      <trkpt lat="47.51167" lon="6.771">
        <ele>376</ele>
        <time>2016-05-15T07:17:18.000Z</time>
      </trkpt>
      <trkpt lat="47.51162" lon="6.77091">
        <ele>377</ele>
        <time>2016-05-15T07:17:19.000Z</time>
      </trkpt>
      <trkpt lat="47.51158" lon="6.77083">
        <ele>377</ele>
        <time>2016-05-15T07:17:20.000Z</time>
      </trkpt>
      <trkpt lat="47.51153" lon="6.77077">
        <ele>377</ele>
        <time>2016-05-15T07:17:21.000Z</time>
      </trkpt>
      <trkpt lat="47.51148" lon="6.77073">
        <ele>376</ele>
        <time>2016-05-15T07:17:22.000Z</time>
      </trkpt>
      <trkpt lat="47.51143" lon="6.77067">
        <ele>376</ele>
        <time>2016-05-15T07:17:23.000Z</time>
      </trkpt>
      <trkpt lat="47.51138" lon="6.77061">
        <ele>376</ele>
        <time>2016-05-15T07:17:24.000Z</time>
      </trkpt>
      <trkpt lat="47.51133" lon="6.77057">
        <ele>375</ele>
        <time>2016-05-15T07:17:25.000Z</time>
      </trkpt>
      <trkpt lat="47.51127" lon="6.77052">
        <ele>375</ele>
        <time>2016-05-15T07:17:26.000Z</time>
      </trkpt>
      <trkpt lat="47.51122" lon="6.77047">
        <ele>375</ele>
        <time>2016-05-15T07:17:27.000Z</time>
      </trkpt>
      <trkpt lat="47.51116" lon="6.77043">
        <ele>375</ele>
        <time>2016-05-15T07:17:28.000Z</time>
      </trkpt>
      <trkpt lat="47.51111" lon="6.77038">
        <ele>375</ele>
        <time>2016-05-15T07:17:29.000Z</time>
      </trkpt>
      <trkpt lat="47.51107" lon="6.77032">
        <ele>375</ele>
        <time>2016-05-15T07:17:30.000Z</time>
      </trkpt>
      <trkpt lat="47.51101" lon="6.77027">
        <ele>375</ele>
        <time>2016-05-15T07:17:31.000Z</time>
      </trkpt>
      <trkpt lat="47.51095" lon="6.77024">
        <ele>375</ele>
        <time>2016-05-15T07:17:32.000Z</time>
      </trkpt>
      <trkpt lat="47.51091" lon="6.77018">
        <ele>375</ele>
        <time>2016-05-15T07:17:33.000Z</time>
      </trkpt>
      <trkpt lat="47.51086" lon="6.77015">
        <ele>375</ele>
        <time>2016-05-15T07:17:34.000Z</time>
      </trkpt>
      <trkpt lat="47.51082" lon="6.77011">
        <ele>373</ele>
        <time>2016-05-15T07:17:35.000Z</time>
      </trkpt>
      <trkpt lat="47.51077" lon="6.77009">
        <ele>373</ele>
        <time>2016-05-15T07:17:36.000Z</time>
      </trkpt>
      <trkpt lat="47.51072" lon="6.77006">
        <ele>373</ele>
        <time>2016-05-15T07:17:37.000Z</time>
      </trkpt>
      <trkpt lat="47.51066" lon="6.77002">
        <ele>373</ele>
        <time>2016-05-15T07:17:38.000Z</time>
      </trkpt>
      <trkpt lat="47.51062" lon="6.76998">
        <ele>375</ele>
        <time>2016-05-15T07:17:39.000Z</time>
      </trkpt>
      <trkpt lat="47.51057" lon="6.76994">
        <ele>375</ele>
        <time>2016-05-15T07:17:40.000Z</time>
      </trkpt>
      <trkpt lat="47.51052" lon="6.76989">
        <ele>375</ele>
        <time>2016-05-15T07:17:41.000Z</time>
      </trkpt>
      <trkpt lat="47.51047" lon="6.76985">
        <ele>375</ele>
        <time>2016-05-15T07:17:42.000Z</time>
      </trkpt>
      <trkpt lat="47.5104" lon="6.76983">
        <ele>375</ele>
        <time>2016-05-15T07:17:43.000Z</time>
      </trkpt>
      <trkpt lat="47.51035" lon="6.76979">
        <ele>375</ele>
        <time>2016-05-15T07:17:44.000Z</time>
      </trkpt>
      <trkpt lat="47.51031" lon="6.76976">
        <ele>374</ele>
        <time>2016-05-15T07:17:45.000Z</time>
      </trkpt>
      <trkpt lat="47.51026" lon="6.76972">
        <ele>374</ele>
        <time>2016-05-15T07:17:46.000Z</time>
      </trkpt>
      <trkpt lat="47.51022" lon="6.76969">
        <ele>375</ele>
        <time>2016-05-15T07:17:47.000Z</time>
      </trkpt>
      <trkpt lat="47.51019" lon="6.76965">
        <ele>375</ele>
        <time>2016-05-15T07:17:48.000Z</time>
      </trkpt>
      <trkpt lat="47.51015" lon="6.7696">
        <ele>375</ele>
        <time>2016-05-15T07:17:49.000Z</time>
      </trkpt>
      <trkpt lat="47.51011" lon="6.76959">
        <ele>375</ele>
        <time>2016-05-15T07:17:50.000Z</time>
      </trkpt>
      <trkpt lat="47.51007" lon="6.76957">
        <ele>375</ele>
        <time>2016-05-15T07:17:51.000Z</time>
      </trkpt>
      <trkpt lat="47.51002" lon="6.76953">
        <ele>375</ele>
        <time>2016-05-15T07:17:52.000Z</time>
      </trkpt>
      <trkpt lat="47.50998" lon="6.76951">
        <ele>374</ele>
        <time>2016-05-15T07:17:53.000Z</time>
      </trkpt>
      <trkpt lat="47.50994" lon="6.76947">
        <ele>374</ele>
        <time>2016-05-15T07:17:54.000Z</time>
      </trkpt>
      <trkpt lat="47.50991" lon="6.76943">
        <ele>374</ele>
        <time>2016-05-15T07:17:55.000Z</time>
      </trkpt>
      <trkpt lat="47.50989" lon="6.76937">
        <ele>374</ele>
        <time>2016-05-15T07:17:56.000Z</time>
      </trkpt>
      <trkpt lat="47.50986" lon="6.76931">
        <ele>374</ele>
        <time>2016-05-15T07:17:57.000Z</time>
      </trkpt>
      <trkpt lat="47.50982" lon="6.76927">
        <ele>374</ele>
        <time>2016-05-15T07:17:58.000Z</time>
      </trkpt>
      <trkpt lat="47.50977" lon="6.76925">
        <ele>374</ele>
        <time>2016-05-15T07:17:59.000Z</time>
      </trkpt>
      <trkpt lat="47.50974" lon="6.7692">
        <ele>374</ele>
        <time>2016-05-15T07:18:00.000Z</time>
      </trkpt>
      <trkpt lat="47.5097" lon="6.76917">
        <ele>374</ele>
        <time>2016-05-15T07:18:01.000Z</time>
      </trkpt>
      <trkpt lat="47.50966" lon="6.76915">
        <ele>377</ele>
        <time>2016-05-15T07:18:02.000Z</time>
      </trkpt>
      <trkpt lat="47.50962" lon="6.76912">
        <ele>377</ele>
        <time>2016-05-15T07:18:03.000Z</time>
      </trkpt>
      <trkpt lat="47.50959" lon="6.76908">
        <ele>377</ele>
        <time>2016-05-15T07:18:04.000Z</time>
      </trkpt>
      <trkpt lat="47.50957" lon="6.76904">
        <ele>377</ele>
        <time>2016-05-15T07:18:05.000Z</time>
      </trkpt>
      <trkpt lat="47.50954" lon="6.76901">
        <ele>377</ele>
        <time>2016-05-15T07:18:06.000Z</time>
      </trkpt>
      <trkpt lat="47.5095" lon="6.76898">
        <ele>378</ele>
        <time>2016-05-15T07:18:07.000Z</time>
      </trkpt>
      <trkpt lat="47.50946" lon="6.76895">
        <ele>378</ele>
        <time>2016-05-15T07:18:08.000Z</time>
      </trkpt>
      <trkpt lat="47.50943" lon="6.76892">
        <ele>378</ele>
        <time>2016-05-15T07:18:09.000Z</time>
      </trkpt>
      <trkpt lat="47.5094" lon="6.7689">
        <ele>378</ele>
        <time>2016-05-15T07:18:10.000Z</time>
      </trkpt>
      <trkpt lat="47.50937" lon="6.76887">
        <ele>378</ele>
        <time>2016-05-15T07:18:11.000Z</time>
      </trkpt>
      <trkpt lat="47.50933" lon="6.76884">
        <ele>378</ele>
        <time>2016-05-15T07:18:12.000Z</time>
      </trkpt>
      <trkpt lat="47.5093" lon="6.76881">
        <ele>378</ele>
        <time>2016-05-15T07:18:13.000Z</time>
      </trkpt>
      <trkpt lat="47.50927" lon="6.76878">
        <ele>378</ele>
        <time>2016-05-15T07:18:14.000Z</time>
      </trkpt>
      <trkpt lat="47.50924" lon="6.76875">
        <ele>378</ele>
        <time>2016-05-15T07:18:15.000Z</time>
      </trkpt>
      <trkpt lat="47.50921" lon="6.76871">
        <ele>378</ele>
        <time>2016-05-15T07:18:16.000Z</time>
      </trkpt>
      <trkpt lat="47.50919" lon="6.76867">
        <ele>378</ele>
        <time>2016-05-15T07:18:17.000Z</time>
      </trkpt>
      <trkpt lat="47.50916" lon="6.76863">
        <ele>379</ele>
        <time>2016-05-15T07:18:18.000Z</time>
      </trkpt>
      <trkpt lat="47.50914" lon="6.76859">
        <ele>379</ele>
        <time>2016-05-15T07:18:19.000Z</time>
      </trkpt>
      <trkpt lat="47.50912" lon="6.76856">
        <ele>380</ele>
        <time>2016-05-15T07:18:20.000Z</time>
      </trkpt>
      <trkpt lat="47.5091" lon="6.76852">
        <ele>380</ele>
        <time>2016-05-15T07:18:21.000Z</time>
      </trkpt>
      <trkpt lat="47.50908" lon="6.76849">
        <ele>380</ele>
        <time>2016-05-15T07:18:22.000Z</time>
      </trkpt>
      <trkpt lat="47.50906" lon="6.76845">
        <ele>380</ele>
        <time>2016-05-15T07:18:23.000Z</time>
      </trkpt>
      <trkpt lat="47.50904" lon="6.7684">
        <ele>380</ele>
        <time>2016-05-15T07:18:24.000Z</time>
      </trkpt>
      <trkpt lat="47.50902" lon="6.76835">
        <ele>380</ele>
        <time>2016-05-15T07:18:25.000Z</time>
      </trkpt>
      <trkpt lat="47.509" lon="6.76829">
        <ele>381</ele>
        <time>2016-05-15T07:18:26.000Z</time>
      </trkpt>
      <trkpt lat="47.50897" lon="6.76823">
        <ele>381</ele>
        <time>2016-05-15T07:18:27.000Z</time>
      </trkpt>
      <trkpt lat="47.50895" lon="6.76818">
        <ele>381</ele>
        <time>2016-05-15T07:18:28.000Z</time>
      </trkpt>
      <trkpt lat="47.50893" lon="6.76813">
        <ele>381</ele>
        <time>2016-05-15T07:18:29.000Z</time>
      </trkpt>
      <trkpt lat="47.50891" lon="6.76808">
        <ele>381</ele>
        <time>2016-05-15T07:18:30.000Z</time>
      </trkpt>
      <trkpt lat="47.50889" lon="6.76803">
        <ele>381</ele>
        <time>2016-05-15T07:18:31.000Z</time>
      </trkpt>
      <trkpt lat="47.50887" lon="6.76799">
        <ele>381</ele>
        <time>2016-05-15T07:18:32.000Z</time>
      </trkpt>
      <trkpt lat="47.50885" lon="6.76794">
        <ele>381</ele>
        <time>2016-05-15T07:18:33.000Z</time>
      </trkpt>
      <trkpt lat="47.50883" lon="6.7679">
        <ele>381</ele>
        <time>2016-05-15T07:18:34.000Z</time>
      </trkpt>
      <trkpt lat="47.50881" lon="6.76785">
        <ele>382</ele>
        <time>2016-05-15T07:18:35.000Z</time>
      </trkpt>
      <trkpt lat="47.50879" lon="6.76781">
        <ele>382</ele>
        <time>2016-05-15T07:18:36.000Z</time>
      </trkpt>
      <trkpt lat="47.50877" lon="6.76776">
        <ele>382</ele>
        <time>2016-05-15T07:18:37.000Z</time>
      </trkpt>
      <trkpt lat="47.50876" lon="6.76771">
        <ele>382</ele>
        <time>2016-05-15T07:18:38.000Z</time>
      </trkpt>
      <trkpt lat="47.50875" lon="6.76767">
        <ele>382</ele>
        <time>2016-05-15T07:18:39.000Z</time>
      </trkpt>
      <trkpt lat="47.50873" lon="6.76763">
        <ele>382</ele>
        <time>2016-05-15T07:18:40.000Z</time>
      </trkpt>
      <trkpt lat="47.50872" lon="6.7676">
        <ele>382</ele>
        <time>2016-05-15T07:18:41.000Z</time>
      </trkpt>
      <trkpt lat="47.50871" lon="6.76757">
        <ele>382</ele>
        <time>2016-05-15T07:18:42.000Z</time>
      </trkpt>
      <trkpt lat="47.50869" lon="6.76754">
        <ele>382</ele>
        <time>2016-05-15T07:18:43.000Z</time>
      </trkpt>
      <trkpt lat="47.50867" lon="6.76752">
        <ele>382</ele>
        <time>2016-05-15T07:18:44.000Z</time>
      </trkpt>
      <trkpt lat="47.50866" lon="6.76749">
        <ele>383</ele>
        <time>2016-05-15T07:18:45.000Z</time>
      </trkpt>
      <trkpt lat="47.50864" lon="6.76745">
        <ele>384</ele>
        <time>2016-05-15T07:18:46.000Z</time>
      </trkpt>
      <trkpt lat="47.50862" lon="6.76741">
        <ele>384</ele>
        <time>2016-05-15T07:18:47.000Z</time>
      </trkpt>
      <trkpt lat="47.50861" lon="6.76736">
        <ele>384</ele>
        <time>2016-05-15T07:18:48.000Z</time>
      </trkpt>
      <trkpt lat="47.50859" lon="6.76732">
        <ele>384</ele>
        <time>2016-05-15T07:18:49.000Z</time>
      </trkpt>
      <trkpt lat="47.50857" lon="6.76728">
        <ele>384</ele>
        <time>2016-05-15T07:18:50.000Z</time>
      </trkpt>
      <trkpt lat="47.50855" lon="6.76724">
        <ele>384</ele>
        <time>2016-05-15T07:18:51.000Z</time>
      </trkpt>
      <trkpt lat="47.50854" lon="6.76719">
        <ele>384</ele>
        <time>2016-05-15T07:18:52.000Z</time>
      </trkpt>
      <trkpt lat="47.50853" lon="6.76715">
        <ele>384</ele>
        <time>2016-05-15T07:18:53.000Z</time>
      </trkpt>
      <trkpt lat="47.50851" lon="6.76711">
        <ele>384</ele>
        <time>2016-05-15T07:18:54.000Z</time>
      </trkpt>
      <trkpt lat="47.5085" lon="6.76707">
        <ele>384</ele>
        <time>2016-05-15T07:18:55.000Z</time>
      </trkpt>
      <trkpt lat="47.50848" lon="6.76704">
        <ele>385</ele>
        <time>2016-05-15T07:18:56.000Z</time>
      </trkpt>
      <trkpt lat="47.50846" lon="6.767">
        <ele>385</ele>
        <time>2016-05-15T07:18:57.000Z</time>
      </trkpt>
      <trkpt lat="47.50845" lon="6.76696">
        <ele>385</ele>
        <time>2016-05-15T07:18:58.000Z</time>
      </trkpt>
      <trkpt lat="47.50843" lon="6.76692">
        <ele>385</ele>
        <time>2016-05-15T07:18:59.000Z</time>
      </trkpt>
      <trkpt lat="47.50842" lon="6.76687">
        <ele>386</ele>
        <time>2016-05-15T07:19:00.000Z</time>
      </trkpt>
      <trkpt lat="47.5084" lon="6.76683">
        <ele>386</ele>
        <time>2016-05-15T07:19:01.000Z</time>
      </trkpt>
      <trkpt lat="47.50839" lon="6.76678">
        <ele>387</ele>
        <time>2016-05-15T07:19:02.000Z</time>
      </trkpt>
      <trkpt lat="47.50837" lon="6.76674">
        <ele>387</ele>
        <time>2016-05-15T07:19:03.000Z</time>
      </trkpt>
      <trkpt lat="47.50836" lon="6.7667">
        <ele>388</ele>
        <time>2016-05-15T07:19:04.000Z</time>
      </trkpt>
      <trkpt lat="47.50834" lon="6.76667">
        <ele>389</ele>
        <time>2016-05-15T07:19:05.000Z</time>
      </trkpt>
      <trkpt lat="47.50832" lon="6.76663">
        <ele>389</ele>
        <time>2016-05-15T07:19:06.000Z</time>
      </trkpt>
      <trkpt lat="47.50831" lon="6.76659">
        <ele>389</ele>
        <time>2016-05-15T07:19:07.000Z</time>
      </trkpt>
      <trkpt lat="47.5083" lon="6.76654">
        <ele>390</ele>
        <time>2016-05-15T07:19:08.000Z</time>
      </trkpt>
      <trkpt lat="47.50829" lon="6.76651">
        <ele>390</ele>
        <time>2016-05-15T07:19:09.000Z</time>
      </trkpt>
      <trkpt lat="47.50827" lon="6.76647">
        <ele>390</ele>
        <time>2016-05-15T07:19:10.000Z</time>
      </trkpt>
      <trkpt lat="47.50826" lon="6.76643">
        <ele>390</ele>
        <time>2016-05-15T07:19:11.000Z</time>
      </trkpt>
      <trkpt lat="47.50825" lon="6.76639">
        <ele>390</ele>
        <time>2016-05-15T07:19:12.000Z</time>
      </trkpt>
      <trkpt lat="47.50823" lon="6.76635">
        <ele>390</ele>
        <time>2016-05-15T07:19:13.000Z</time>
      </trkpt>
      <trkpt lat="47.50822" lon="6.76631">
        <ele>390</ele>
        <time>2016-05-15T07:19:14.000Z</time>
      </trkpt>
      <trkpt lat="47.5082" lon="6.76628">
        <ele>390</ele>
        <time>2016-05-15T07:19:15.000Z</time>
      </trkpt>
      <trkpt lat="47.50818" lon="6.76626">
        <ele>390</ele>
        <time>2016-05-15T07:19:16.000Z</time>
      </trkpt>
      <trkpt lat="47.50817" lon="6.76622">
        <ele>390</ele>
        <time>2016-05-15T07:19:17.000Z</time>
      </trkpt>
      <trkpt lat="47.50816" lon="6.76619">
        <ele>390</ele>
        <time>2016-05-15T07:19:18.000Z</time>
      </trkpt>
      <trkpt lat="47.50814" lon="6.76615">
        <ele>390</ele>
        <time>2016-05-15T07:19:19.000Z</time>
      </trkpt>
      <trkpt lat="47.5081" lon="6.76613">
        <ele>390</ele>
        <time>2016-05-15T07:19:21.000Z</time>
      </trkpt>
      <trkpt lat="47.50808" lon="6.76612">
        <ele>390</ele>
        <time>2016-05-15T07:19:22.000Z</time>
      </trkpt>
      <trkpt lat="47.50805" lon="6.76611">
        <ele>391</ele>
        <time>2016-05-15T07:19:23.000Z</time>
      </trkpt>
      <trkpt lat="47.50804" lon="6.76609">
        <ele>391</ele>
        <time>2016-05-15T07:19:24.000Z</time>
      </trkpt>
      <trkpt lat="47.50802" lon="6.76603">
        <ele>391</ele>
        <time>2016-05-15T07:19:26.000Z</time>
      </trkpt>
      <trkpt lat="47.50801" lon="6.766">
        <ele>391</ele>
        <time>2016-05-15T07:19:27.000Z</time>
      </trkpt>
      <trkpt lat="47.50798" lon="6.76599">
        <ele>391</ele>
        <time>2016-05-15T07:19:29.000Z</time>
      </trkpt>
      <trkpt lat="47.50796" lon="6.76598">
        <ele>391</ele>
        <time>2016-05-15T07:19:30.000Z</time>
      </trkpt>
      <trkpt lat="47.50792" lon="6.76599">
        <ele>391</ele>
        <time>2016-05-15T07:19:33.000Z</time>
      </trkpt>
      <trkpt lat="47.50791" lon="6.76598">
        <ele>391</ele>
        <time>2016-05-15T07:19:34.000Z</time>
      </trkpt>
      <trkpt lat="47.50787" lon="6.76597">
        <ele>391</ele>
        <time>2016-05-15T07:19:49.000Z</time>
      </trkpt>
      <trkpt lat="47.50786" lon="6.76597">
        <ele>391</ele>
        <time>2016-05-15T07:19:50.000Z</time>
      </trkpt>
      <trkpt lat="47.50783" lon="6.76598">
        <ele>391</ele>
        <time>2016-05-15T07:19:52.000Z</time>
      </trkpt>
      <trkpt lat="47.50782" lon="6.76598">
        <ele>391</ele>
        <time>2016-05-15T07:19:53.000Z</time>
      </trkpt>
      <trkpt lat="47.50777" lon="6.76599">
        <ele>392</ele>
        <time>2016-05-15T07:19:56.000Z</time>
      </trkpt>
      <trkpt lat="47.50776" lon="6.766">
        <ele>392</ele>
        <time>2016-05-15T07:19:57.000Z</time>
      </trkpt>
      <trkpt lat="47.50772" lon="6.76601">
        <ele>392</ele>
        <time>2016-05-15T07:19:59.000Z</time>
      </trkpt>
      <trkpt lat="47.5077" lon="6.76602">
        <ele>392</ele>
        <time>2016-05-15T07:20:00.000Z</time>
      </trkpt>
      <trkpt lat="47.50767" lon="6.76602">
        <ele>392</ele>
        <time>2016-05-15T07:20:01.000Z</time>
      </trkpt>
      <trkpt lat="47.50765" lon="6.76602">
        <ele>392</ele>
        <time>2016-05-15T07:20:02.000Z</time>
      </trkpt>
      <trkpt lat="47.50762" lon="6.76602">
        <ele>392</ele>
        <time>2016-05-15T07:20:03.000Z</time>
      </trkpt>
      <trkpt lat="47.50759" lon="6.76602">
        <ele>392</ele>
        <time>2016-05-15T07:20:04.000Z</time>
      </trkpt>
      <trkpt lat="47.50757" lon="6.76602">
        <ele>392</ele>
        <time>2016-05-15T07:20:05.000Z</time>
      </trkpt>
      <trkpt lat="47.50753" lon="6.76602">
        <ele>392</ele>
        <time>2016-05-15T07:20:06.000Z</time>
      </trkpt>
      <trkpt lat="47.50749" lon="6.76602">
        <ele>394</ele>
        <time>2016-05-15T07:20:07.000Z</time>
      </trkpt>
      <trkpt lat="47.50745" lon="6.76601">
        <ele>394</ele>
        <time>2016-05-15T07:20:08.000Z</time>
      </trkpt>
      <trkpt lat="47.50741" lon="6.76601">
        <ele>394</ele>
        <time>2016-05-15T07:20:09.000Z</time>
      </trkpt>
      <trkpt lat="47.50737" lon="6.766">
        <ele>394</ele>
        <time>2016-05-15T07:20:10.000Z</time>
      </trkpt>
      <trkpt lat="47.50733" lon="6.76599">
        <ele>394</ele>
        <time>2016-05-15T07:20:11.000Z</time>
      </trkpt>
      <trkpt lat="47.50729" lon="6.76598">
        <ele>394</ele>
        <time>2016-05-15T07:20:12.000Z</time>
      </trkpt>
      <trkpt lat="47.50726" lon="6.76597">
        <ele>394</ele>
        <time>2016-05-15T07:20:13.000Z</time>
      </trkpt>
      <trkpt lat="47.50723" lon="6.76596">
        <ele>394</ele>
        <time>2016-05-15T07:20:14.000Z</time>
      </trkpt>
      <trkpt lat="47.50719" lon="6.76595">
        <ele>394</ele>
        <time>2016-05-15T07:20:15.000Z</time>
      </trkpt>
      <trkpt lat="47.50715" lon="6.76594">
        <ele>394</ele>
        <time>2016-05-15T07:20:16.000Z</time>
      </trkpt>
      <trkpt lat="47.50712" lon="6.76593">
        <ele>395</ele>
        <time>2016-05-15T07:20:17.000Z</time>
      </trkpt>
      <trkpt lat="47.50708" lon="6.76593">
        <ele>395</ele>
        <time>2016-05-15T07:20:18.000Z</time>
      </trkpt>
      <trkpt lat="47.50705" lon="6.76593">
        <ele>395</ele>
        <time>2016-05-15T07:20:19.000Z</time>
      </trkpt>
      <trkpt lat="47.50702" lon="6.76592">
        <ele>395</ele>
        <time>2016-05-15T07:20:20.000Z</time>
      </trkpt>
      <trkpt lat="47.50699" lon="6.76593">
        <ele>395</ele>
        <time>2016-05-15T07:20:21.000Z</time>
      </trkpt>
      <trkpt lat="47.50696" lon="6.76593">
        <ele>395</ele>
        <time>2016-05-15T07:20:22.000Z</time>
      </trkpt>
      <trkpt lat="47.50693" lon="6.76593">
        <ele>395</ele>
        <time>2016-05-15T07:20:23.000Z</time>
      </trkpt>
      <trkpt lat="47.5069" lon="6.76593">
        <ele>395</ele>
        <time>2016-05-15T07:20:24.000Z</time>
      </trkpt>
      <trkpt lat="47.50687" lon="6.76593">
        <ele>395</ele>
        <time>2016-05-15T07:20:25.000Z</time>
      </trkpt>
      <trkpt lat="47.50684" lon="6.76593">
        <ele>395</ele>
        <time>2016-05-15T07:20:26.000Z</time>
      </trkpt>
      <trkpt lat="47.50681" lon="6.76594">
        <ele>396</ele>
        <time>2016-05-15T07:20:27.000Z</time>
      </trkpt>
      <trkpt lat="47.50679" lon="6.76594">
        <ele>396</ele>
        <time>2016-05-15T07:20:28.000Z</time>
      </trkpt>
      <trkpt lat="47.50676" lon="6.76595">
        <ele>396</ele>
        <time>2016-05-15T07:20:29.000Z</time>
      </trkpt>
      <trkpt lat="47.50673" lon="6.76596">
        <ele>396</ele>
        <time>2016-05-15T07:20:30.000Z</time>
      </trkpt>
      <trkpt lat="47.5067" lon="6.76597">
        <ele>396</ele>
        <time>2016-05-15T07:20:31.000Z</time>
      </trkpt>
      <trkpt lat="47.50668" lon="6.76597">
        <ele>396</ele>
        <time>2016-05-15T07:20:32.000Z</time>
      </trkpt>
      <trkpt lat="47.50665" lon="6.76598">
        <ele>397</ele>
        <time>2016-05-15T07:20:33.000Z</time>
      </trkpt>
      <trkpt lat="47.50662" lon="6.76599">
        <ele>397</ele>
        <time>2016-05-15T07:20:34.000Z</time>
      </trkpt>
      <trkpt lat="47.50658" lon="6.76599">
        <ele>397</ele>
        <time>2016-05-15T07:20:35.000Z</time>
      </trkpt>
      <trkpt lat="47.50655" lon="6.766">
        <ele>397</ele>
        <time>2016-05-15T07:20:36.000Z</time>
      </trkpt>
      <trkpt lat="47.50648" lon="6.76601">
        <ele>397</ele>
        <time>2016-05-15T07:20:37.000Z</time>
      </trkpt>
      <trkpt lat="47.50645" lon="6.76602">
        <ele>397</ele>
        <time>2016-05-15T07:20:38.000Z</time>
      </trkpt>
      <trkpt lat="47.50642" lon="6.76603">
        <ele>397</ele>
        <time>2016-05-15T07:20:39.000Z</time>
      </trkpt>
      <trkpt lat="47.50639" lon="6.76605">
        <ele>397</ele>
        <time>2016-05-15T07:20:40.000Z</time>
      </trkpt>
      <trkpt lat="47.50636" lon="6.76607">
        <ele>397</ele>
        <time>2016-05-15T07:20:41.000Z</time>
      </trkpt>
      <trkpt lat="47.50634" lon="6.76609">
        <ele>397</ele>
        <time>2016-05-15T07:20:42.000Z</time>
      </trkpt>
      <trkpt lat="47.50632" lon="6.76609">
        <ele>397</ele>
        <time>2016-05-15T07:20:43.000Z</time>
      </trkpt>
      <trkpt lat="47.50629" lon="6.7661">
        <ele>397</ele>
        <time>2016-05-15T07:20:44.000Z</time>
      </trkpt>
      <trkpt lat="47.50626" lon="6.76612">
        <ele>397</ele>
        <time>2016-05-15T07:20:45.000Z</time>
      </trkpt>
      <trkpt lat="47.50624" lon="6.76613">
        <ele>397</ele>
        <time>2016-05-15T07:20:46.000Z</time>
      </trkpt>
      <trkpt lat="47.50621" lon="6.76614">
        <ele>397</ele>
        <time>2016-05-15T07:20:47.000Z</time>
      </trkpt>
      <trkpt lat="47.50618" lon="6.76616">
        <ele>397</ele>
        <time>2016-05-15T07:20:48.000Z</time>
      </trkpt>
      <trkpt lat="47.50615" lon="6.76617">
        <ele>397</ele>
        <time>2016-05-15T07:20:49.000Z</time>
      </trkpt>
      <trkpt lat="47.50612" lon="6.76619">
        <ele>397</ele>
        <time>2016-05-15T07:20:50.000Z</time>
      </trkpt>
      <trkpt lat="47.5061" lon="6.7662">
        <ele>398</ele>
        <time>2016-05-15T07:20:51.000Z</time>
      </trkpt>
      <trkpt lat="47.50607" lon="6.76621">
        <ele>398</ele>
        <time>2016-05-15T07:20:52.000Z</time>
      </trkpt>
      <trkpt lat="47.50604" lon="6.76623">
        <ele>398</ele>
        <time>2016-05-15T07:20:53.000Z</time>
      </trkpt>
      <trkpt lat="47.50601" lon="6.76624">
        <ele>398</ele>
        <time>2016-05-15T07:20:54.000Z</time>
      </trkpt>
      <trkpt lat="47.50598" lon="6.76625">
        <ele>398</ele>
        <time>2016-05-15T07:20:55.000Z</time>
      </trkpt>
      <trkpt lat="47.50595" lon="6.76627">
        <ele>398</ele>
        <time>2016-05-15T07:20:56.000Z</time>
      </trkpt>
      <trkpt lat="47.50592" lon="6.76627">
        <ele>398</ele>
        <time>2016-05-15T07:20:57.000Z</time>
      </trkpt>
      <trkpt lat="47.50589" lon="6.76628">
        <ele>398</ele>
        <time>2016-05-15T07:20:58.000Z</time>
      </trkpt>
      <trkpt lat="47.50586" lon="6.76628">
        <ele>398</ele>
        <time>2016-05-15T07:20:59.000Z</time>
      </trkpt>
      <trkpt lat="47.50583" lon="6.76629">
        <ele>399</ele>
        <time>2016-05-15T07:21:00.000Z</time>
      </trkpt>
      <trkpt lat="47.5058" lon="6.7663">
        <ele>399</ele>
        <time>2016-05-15T07:21:01.000Z</time>
      </trkpt>
      <trkpt lat="47.50577" lon="6.76632">
        <ele>399</ele>
        <time>2016-05-15T07:21:03.000Z</time>
      </trkpt>
      <trkpt lat="47.50575" lon="6.76634">
        <ele>399</ele>
        <time>2016-05-15T07:21:04.000Z</time>
      </trkpt>
      <trkpt lat="47.50573" lon="6.76635">
        <ele>399</ele>
        <time>2016-05-15T07:21:05.000Z</time>
      </trkpt>
      <trkpt lat="47.50571" lon="6.76636">
        <ele>399</ele>
        <time>2016-05-15T07:21:06.000Z</time>
      </trkpt>
      <trkpt lat="47.50568" lon="6.76636">
        <ele>399</ele>
        <time>2016-05-15T07:21:07.000Z</time>
      </trkpt>
      <trkpt lat="47.50565" lon="6.76637">
        <ele>399</ele>
        <time>2016-05-15T07:21:08.000Z</time>
      </trkpt>
      <trkpt lat="47.50562" lon="6.76638">
        <ele>399</ele>
        <time>2016-05-15T07:21:09.000Z</time>
      </trkpt>
      <trkpt lat="47.50559" lon="6.76639">
        <ele>399</ele>
        <time>2016-05-15T07:21:10.000Z</time>
      </trkpt>
      <trkpt lat="47.50556" lon="6.7664">
        <ele>399</ele>
        <time>2016-05-15T07:21:11.000Z</time>
      </trkpt>
      <trkpt lat="47.50553" lon="6.76641">
        <ele>399</ele>
        <time>2016-05-15T07:21:12.000Z</time>
      </trkpt>
      <trkpt lat="47.50549" lon="6.76642">
        <ele>399</ele>
        <time>2016-05-15T07:21:13.000Z</time>
      </trkpt>
      <trkpt lat="47.50546" lon="6.76643">
        <ele>399</ele>
        <time>2016-05-15T07:21:14.000Z</time>
      </trkpt>
      <trkpt lat="47.50543" lon="6.76644">
        <ele>399</ele>
        <time>2016-05-15T07:21:15.000Z</time>
      </trkpt>
      <trkpt lat="47.5054" lon="6.76645">
        <ele>399</ele>
        <time>2016-05-15T07:21:16.000Z</time>
      </trkpt>
      <trkpt lat="47.50537" lon="6.76646">
        <ele>399</ele>
        <time>2016-05-15T07:21:17.000Z</time>
      </trkpt>
      <trkpt lat="47.50534" lon="6.76647">
        <ele>399</ele>
        <time>2016-05-15T07:21:18.000Z</time>
      </trkpt>
      <trkpt lat="47.5053" lon="6.76648">
        <ele>399</ele>
        <time>2016-05-15T07:21:19.000Z</time>
      </trkpt>
      <trkpt lat="47.50526" lon="6.7665">
        <ele>399</ele>
        <time>2016-05-15T07:21:20.000Z</time>
      </trkpt>
      <trkpt lat="47.50521" lon="6.76651">
        <ele>399</ele>
        <time>2016-05-15T07:21:21.000Z</time>
      </trkpt>
      <trkpt lat="47.50516" lon="6.76653">
        <ele>399</ele>
        <time>2016-05-15T07:21:22.000Z</time>
      </trkpt>
      <trkpt lat="47.50505" lon="6.76653">
        <ele>399</ele>
        <time>2016-05-15T07:21:23.000Z</time>
      </trkpt>
      <trkpt lat="47.505" lon="6.76655">
        <ele>399</ele>
        <time>2016-05-15T07:21:24.000Z</time>
      </trkpt>
      <trkpt lat="47.50496" lon="6.76657">
        <ele>399</ele>
        <time>2016-05-15T07:21:25.000Z</time>
      </trkpt>
      <trkpt lat="47.50492" lon="6.76659">
        <ele>399</ele>
        <time>2016-05-15T07:21:26.000Z</time>
      </trkpt>
      <trkpt lat="47.50488" lon="6.76662">
        <ele>399</ele>
        <time>2016-05-15T07:21:27.000Z</time>
      </trkpt>
      <trkpt lat="47.50483" lon="6.76662">
        <ele>399</ele>
        <time>2016-05-15T07:21:28.000Z</time>
      </trkpt>
      <trkpt lat="47.50478" lon="6.76663">
        <ele>399</ele>
        <time>2016-05-15T07:21:29.000Z</time>
      </trkpt>
      <trkpt lat="47.50473" lon="6.76665">
        <ele>398</ele>
        <time>2016-05-15T07:21:30.000Z</time>
      </trkpt>
      <trkpt lat="47.50469" lon="6.76667">
        <ele>397</ele>
        <time>2016-05-15T07:21:31.000Z</time>
      </trkpt>
      <trkpt lat="47.50465" lon="6.76669">
        <ele>397</ele>
        <time>2016-05-15T07:21:32.000Z</time>
      </trkpt>
      <trkpt lat="47.5046" lon="6.76671">
        <ele>397</ele>
        <time>2016-05-15T07:21:33.000Z</time>
      </trkpt>
      <trkpt lat="47.50455" lon="6.76673">
        <ele>397</ele>
        <time>2016-05-15T07:21:34.000Z</time>
      </trkpt>
      <trkpt lat="47.50449" lon="6.76676">
        <ele>397</ele>
        <time>2016-05-15T07:21:35.000Z</time>
      </trkpt>
      <trkpt lat="47.50444" lon="6.76678">
        <ele>397</ele>
        <time>2016-05-15T07:21:36.000Z</time>
      </trkpt>
      <trkpt lat="47.5044" lon="6.76679">
        <ele>397</ele>
        <time>2016-05-15T07:21:37.000Z</time>
      </trkpt>
      <trkpt lat="47.50435" lon="6.76682">
        <ele>397</ele>
        <time>2016-05-15T07:21:38.000Z</time>
      </trkpt>
      <trkpt lat="47.50431" lon="6.76683">
        <ele>397</ele>
        <time>2016-05-15T07:21:39.000Z</time>
      </trkpt>
      <trkpt lat="47.50425" lon="6.76686">
        <ele>397</ele>
        <time>2016-05-15T07:21:40.000Z</time>
      </trkpt>
      <trkpt lat="47.50421" lon="6.76688">
        <ele>397</ele>
        <time>2016-05-15T07:21:41.000Z</time>
      </trkpt>
      <trkpt lat="47.50417" lon="6.7669">
        <ele>397</ele>
        <time>2016-05-15T07:21:42.000Z</time>
      </trkpt>
      <trkpt lat="47.50412" lon="6.76692">
        <ele>397</ele>
        <time>2016-05-15T07:21:43.000Z</time>
      </trkpt>
      <trkpt lat="47.50407" lon="6.76694">
        <ele>397</ele>
        <time>2016-05-15T07:21:44.000Z</time>
      </trkpt>
      <trkpt lat="47.50403" lon="6.76696">
        <ele>397</ele>
        <time>2016-05-15T07:21:45.000Z</time>
      </trkpt>
      <trkpt lat="47.50398" lon="6.76698">
        <ele>397</ele>
        <time>2016-05-15T07:21:46.000Z</time>
      </trkpt>
      <trkpt lat="47.50394" lon="6.76701">
        <ele>397</ele>
        <time>2016-05-15T07:21:47.000Z</time>
      </trkpt>
      <trkpt lat="47.5039" lon="6.76702">
        <ele>397</ele>
        <time>2016-05-15T07:21:48.000Z</time>
      </trkpt>
      <trkpt lat="47.50386" lon="6.76704">
        <ele>397</ele>
        <time>2016-05-15T07:21:49.000Z</time>
      </trkpt>
      <trkpt lat="47.50381" lon="6.76706">
        <ele>397</ele>
        <time>2016-05-15T07:21:50.000Z</time>
      </trkpt>
      <trkpt lat="47.50376" lon="6.76708">
        <ele>397</ele>
        <time>2016-05-15T07:21:51.000Z</time>
      </trkpt>
      <trkpt lat="47.50372" lon="6.76711">
        <ele>398</ele>
        <time>2016-05-15T07:21:52.000Z</time>
      </trkpt>
      <trkpt lat="47.50368" lon="6.76713">
        <ele>398</ele>
        <time>2016-05-15T07:21:53.000Z</time>
      </trkpt>
      <trkpt lat="47.50363" lon="6.76715">
        <ele>398</ele>
        <time>2016-05-15T07:21:54.000Z</time>
      </trkpt>
      <trkpt lat="47.50361" lon="6.76717">
        <ele>398</ele>
        <time>2016-05-15T07:21:55.000Z</time>
      </trkpt>
      <trkpt lat="47.50356" lon="6.76719">
        <ele>398</ele>
        <time>2016-05-15T07:21:56.000Z</time>
      </trkpt>
      <trkpt lat="47.50351" lon="6.7672">
        <ele>398</ele>
        <time>2016-05-15T07:21:57.000Z</time>
      </trkpt>
      <trkpt lat="47.50347" lon="6.76721">
        <ele>398</ele>
        <time>2016-05-15T07:21:58.000Z</time>
      </trkpt>
      <trkpt lat="47.50342" lon="6.76722">
        <ele>398</ele>
        <time>2016-05-15T07:21:59.000Z</time>
      </trkpt>
      <trkpt lat="47.50338" lon="6.76724">
        <ele>398</ele>
        <time>2016-05-15T07:22:00.000Z</time>
      </trkpt>
      <trkpt lat="47.50333" lon="6.76726">
        <ele>398</ele>
        <time>2016-05-15T07:22:01.000Z</time>
      </trkpt>
      <trkpt lat="47.50329" lon="6.76728">
        <ele>398</ele>
        <time>2016-05-15T07:22:02.000Z</time>
      </trkpt>
      <trkpt lat="47.50325" lon="6.76729">
        <ele>398</ele>
        <time>2016-05-15T07:22:03.000Z</time>
      </trkpt>
      <trkpt lat="47.50321" lon="6.76731">
        <ele>398</ele>
        <time>2016-05-15T07:22:04.000Z</time>
      </trkpt>
      <trkpt lat="47.50317" lon="6.76733">
        <ele>398</ele>
        <time>2016-05-15T07:22:05.000Z</time>
      </trkpt>
      <trkpt lat="47.50313" lon="6.76736">
        <ele>398</ele>
        <time>2016-05-15T07:22:06.000Z</time>
      </trkpt>
      <trkpt lat="47.50309" lon="6.76738">
        <ele>398</ele>
        <time>2016-05-15T07:22:07.000Z</time>
      </trkpt>
      <trkpt lat="47.50304" lon="6.76739">
        <ele>398</ele>
        <time>2016-05-15T07:22:08.000Z</time>
      </trkpt>
      <trkpt lat="47.503" lon="6.7674">
        <ele>399</ele>
        <time>2016-05-15T07:22:09.000Z</time>
      </trkpt>
      <trkpt lat="47.50296" lon="6.76742">
        <ele>399</ele>
        <time>2016-05-15T07:22:10.000Z</time>
      </trkpt>
      <trkpt lat="47.50292" lon="6.76743">
        <ele>399</ele>
        <time>2016-05-15T07:22:11.000Z</time>
      </trkpt>
      <trkpt lat="47.50288" lon="6.76745">
        <ele>399</ele>
        <time>2016-05-15T07:22:12.000Z</time>
      </trkpt>
      <trkpt lat="47.50284" lon="6.76746">
        <ele>399</ele>
        <time>2016-05-15T07:22:13.000Z</time>
      </trkpt>
      <trkpt lat="47.5028" lon="6.76747">
        <ele>399</ele>
        <time>2016-05-15T07:22:14.000Z</time>
      </trkpt>
      <trkpt lat="47.50276" lon="6.76747">
        <ele>399</ele>
        <time>2016-05-15T07:22:15.000Z</time>
      </trkpt>
      <trkpt lat="47.50272" lon="6.76748">
        <ele>399</ele>
        <time>2016-05-15T07:22:16.000Z</time>
      </trkpt>
      <trkpt lat="47.50268" lon="6.76749">
        <ele>399</ele>
        <time>2016-05-15T07:22:17.000Z</time>
      </trkpt>
      <trkpt lat="47.50264" lon="6.7675">
        <ele>398</ele>
        <time>2016-05-15T07:22:18.000Z</time>
      </trkpt>
      <trkpt lat="47.50261" lon="6.76751">
        <ele>399</ele>
        <time>2016-05-15T07:22:19.000Z</time>
      </trkpt>
      <trkpt lat="47.50258" lon="6.76752">
        <ele>399</ele>
        <time>2016-05-15T07:22:20.000Z</time>
      </trkpt>
      <trkpt lat="47.50255" lon="6.76753">
        <ele>399</ele>
        <time>2016-05-15T07:22:21.000Z</time>
      </trkpt>
      <trkpt lat="47.50251" lon="6.76753">
        <ele>400</ele>
        <time>2016-05-15T07:22:22.000Z</time>
      </trkpt>
      <trkpt lat="47.50247" lon="6.76752">
        <ele>400</ele>
        <time>2016-05-15T07:22:23.000Z</time>
      </trkpt>
      <trkpt lat="47.50244" lon="6.76751">
        <ele>401</ele>
        <time>2016-05-15T07:22:24.000Z</time>
      </trkpt>
      <trkpt lat="47.50241" lon="6.76747">
        <ele>401</ele>
        <time>2016-05-15T07:22:25.000Z</time>
      </trkpt>
      <trkpt lat="47.50238" lon="6.76744">
        <ele>401</ele>
        <time>2016-05-15T07:22:26.000Z</time>
      </trkpt>
      <trkpt lat="47.50236" lon="6.7674">
        <ele>401</ele>
        <time>2016-05-15T07:22:27.000Z</time>
      </trkpt>
      <trkpt lat="47.50235" lon="6.76736">
        <ele>401</ele>
        <time>2016-05-15T07:22:28.000Z</time>
      </trkpt>
      <trkpt lat="47.50233" lon="6.76733">
        <ele>401</ele>
        <time>2016-05-15T07:22:29.000Z</time>
      </trkpt>
      <trkpt lat="47.50231" lon="6.76729">
        <ele>402</ele>
        <time>2016-05-15T07:22:30.000Z</time>
      </trkpt>
      <trkpt lat="47.50229" lon="6.76725">
        <ele>402</ele>
        <time>2016-05-15T07:22:31.000Z</time>
      </trkpt>
      <trkpt lat="47.50227" lon="6.76721">
        <ele>402</ele>
        <time>2016-05-15T07:22:32.000Z</time>
      </trkpt>
      <trkpt lat="47.50225" lon="6.76716">
        <ele>402</ele>
        <time>2016-05-15T07:22:33.000Z</time>
      </trkpt>
      <trkpt lat="47.50223" lon="6.76711">
        <ele>402</ele>
        <time>2016-05-15T07:22:34.000Z</time>
      </trkpt>
      <trkpt lat="47.50221" lon="6.76706">
        <ele>402</ele>
        <time>2016-05-15T07:22:35.000Z</time>
      </trkpt>
      <trkpt lat="47.5022" lon="6.767">
        <ele>402</ele>
        <time>2016-05-15T07:22:36.000Z</time>
      </trkpt>
      <trkpt lat="47.50218" lon="6.76695">
        <ele>402</ele>
        <time>2016-05-15T07:22:37.000Z</time>
      </trkpt>
      <trkpt lat="47.50216" lon="6.7669">
        <ele>402</ele>
        <time>2016-05-15T07:22:38.000Z</time>
      </trkpt>
      <trkpt lat="47.50215" lon="6.76684">
        <ele>402</ele>
        <time>2016-05-15T07:22:39.000Z</time>
      </trkpt>
      <trkpt lat="47.50213" lon="6.76679">
        <ele>402</ele>
        <time>2016-05-15T07:22:40.000Z</time>
      </trkpt>
      <trkpt lat="47.50211" lon="6.76674">
        <ele>402</ele>
        <time>2016-05-15T07:22:41.000Z</time>
      </trkpt>
      <trkpt lat="47.5021" lon="6.76669">
        <ele>402</ele>
        <time>2016-05-15T07:22:42.000Z</time>
      </trkpt>
      <trkpt lat="47.50208" lon="6.76663">
        <ele>402</ele>
        <time>2016-05-15T07:22:43.000Z</time>
      </trkpt>
      <trkpt lat="47.50206" lon="6.76658">
        <ele>402</ele>
        <time>2016-05-15T07:22:44.000Z</time>
      </trkpt>
      <trkpt lat="47.50204" lon="6.76652">
        <ele>402</ele>
        <time>2016-05-15T07:22:45.000Z</time>
      </trkpt>
      <trkpt lat="47.50202" lon="6.76645">
        <ele>402</ele>
        <time>2016-05-15T07:22:46.000Z</time>
      </trkpt>
      <trkpt lat="47.502" lon="6.76639">
        <ele>402</ele>
        <time>2016-05-15T07:22:47.000Z</time>
      </trkpt>
      <trkpt lat="47.50197" lon="6.76637">
        <ele>402</ele>
        <time>2016-05-15T07:22:48.000Z</time>
      </trkpt>
      <trkpt lat="47.50196" lon="6.76631">
        <ele>402</ele>
        <time>2016-05-15T07:22:49.000Z</time>
      </trkpt>
      <trkpt lat="47.50193" lon="6.76624">
        <ele>403</ele>
        <time>2016-05-15T07:22:50.000Z</time>
      </trkpt>
      <trkpt lat="47.50192" lon="6.7662">
        <ele>403</ele>
        <time>2016-05-15T07:22:51.000Z</time>
      </trkpt>
      <trkpt lat="47.50191" lon="6.76614">
        <ele>403</ele>
        <time>2016-05-15T07:22:52.000Z</time>
      </trkpt>
      <trkpt lat="47.5019" lon="6.76609">
        <ele>403</ele>
        <time>2016-05-15T07:22:53.000Z</time>
      </trkpt>
      <trkpt lat="47.5019" lon="6.76605">
        <ele>403</ele>
        <time>2016-05-15T07:22:54.000Z</time>
      </trkpt>
      <trkpt lat="47.5019" lon="6.76599">
        <ele>403</ele>
        <time>2016-05-15T07:23:00.000Z</time>
      </trkpt>
      <trkpt lat="47.50192" lon="6.76592">
        <ele>403</ele>
        <time>2016-05-15T07:23:01.000Z</time>
      </trkpt>
      <trkpt lat="47.50195" lon="6.76586">
        <ele>403</ele>
        <time>2016-05-15T07:23:02.000Z</time>
      </trkpt>
      <trkpt lat="47.50197" lon="6.76581">
        <ele>402</ele>
        <time>2016-05-15T07:23:03.000Z</time>
      </trkpt>
      <trkpt lat="47.502" lon="6.76575">
        <ele>402</ele>
        <time>2016-05-15T07:23:04.000Z</time>
      </trkpt>
      <trkpt lat="47.50201" lon="6.7657">
        <ele>402</ele>
        <time>2016-05-15T07:23:05.000Z</time>
      </trkpt>
      <trkpt lat="47.50202" lon="6.76566">
        <ele>402</ele>
        <time>2016-05-15T07:23:06.000Z</time>
      </trkpt>
      <trkpt lat="47.50203" lon="6.76563">
        <ele>402</ele>
        <time>2016-05-15T07:23:07.000Z</time>
      </trkpt>
      <trkpt lat="47.50204" lon="6.76557">
        <ele>401</ele>
        <time>2016-05-15T07:23:09.000Z</time>
      </trkpt>
      <trkpt lat="47.50203" lon="6.76554">
        <ele>401</ele>
        <time>2016-05-15T07:23:10.000Z</time>
      </trkpt>
      <trkpt lat="47.50202" lon="6.76551">
        <ele>401</ele>
        <time>2016-05-15T07:23:11.000Z</time>
      </trkpt>
      <trkpt lat="47.502" lon="6.76547">
        <ele>401</ele>
        <time>2016-05-15T07:23:12.000Z</time>
      </trkpt>
      <trkpt lat="47.50197" lon="6.76543">
        <ele>402</ele>
        <time>2016-05-15T07:23:13.000Z</time>
      </trkpt>
      <trkpt lat="47.50194" lon="6.76538">
        <ele>402</ele>
        <time>2016-05-15T07:23:14.000Z</time>
      </trkpt>
      <trkpt lat="47.50191" lon="6.76534">
        <ele>402</ele>
        <time>2016-05-15T07:23:15.000Z</time>
      </trkpt>
      <trkpt lat="47.50188" lon="6.7653">
        <ele>402</ele>
        <time>2016-05-15T07:23:16.000Z</time>
      </trkpt>
      <trkpt lat="47.50185" lon="6.76525">
        <ele>402</ele>
        <time>2016-05-15T07:23:17.000Z</time>
      </trkpt>
      <trkpt lat="47.50182" lon="6.76521">
        <ele>403</ele>
        <time>2016-05-15T07:23:18.000Z</time>
      </trkpt>
      <trkpt lat="47.50179" lon="6.76516">
        <ele>403</ele>
        <time>2016-05-15T07:23:19.000Z</time>
      </trkpt>
      <trkpt lat="47.50176" lon="6.76511">
        <ele>404</ele>
        <time>2016-05-15T07:23:20.000Z</time>
      </trkpt>
      <trkpt lat="47.50172" lon="6.76497">
        <ele>404</ele>
        <time>2016-05-15T07:23:21.000Z</time>
      </trkpt>
      <trkpt lat="47.50169" lon="6.7649">
        <ele>402</ele>
        <time>2016-05-15T07:23:22.000Z</time>
      </trkpt>
      <trkpt lat="47.50169" lon="6.76479">
        <ele>400</ele>
        <time>2016-05-15T07:23:23.000Z</time>
      </trkpt>
      <trkpt lat="47.50166" lon="6.76469">
        <ele>406</ele>
        <time>2016-05-15T07:23:24.000Z</time>
      </trkpt>
      <trkpt lat="47.50164" lon="6.76462">
        <ele>406</ele>
        <time>2016-05-15T07:23:25.000Z</time>
      </trkpt>
      <trkpt lat="47.50161" lon="6.76451">
        <ele>405</ele>
        <time>2016-05-15T07:23:26.000Z</time>
      </trkpt>
      <trkpt lat="47.50156" lon="6.76442">
        <ele>405</ele>
        <time>2016-05-15T07:23:27.000Z</time>
      </trkpt>
      <trkpt lat="47.50153" lon="6.76433">
        <ele>404</ele>
        <time>2016-05-15T07:23:28.000Z</time>
      </trkpt>
      <trkpt lat="47.50153" lon="6.76428">
        <ele>403</ele>
        <time>2016-05-15T07:23:29.000Z</time>
      </trkpt>
      <trkpt lat="47.50151" lon="6.76424">
        <ele>403</ele>
        <time>2016-05-15T07:23:30.000Z</time>
      </trkpt>
      <trkpt lat="47.5015" lon="6.76414">
        <ele>401</ele>
        <time>2016-05-15T07:23:31.000Z</time>
      </trkpt>
      <trkpt lat="47.50148" lon="6.76405">
        <ele>401</ele>
        <time>2016-05-15T07:23:32.000Z</time>
      </trkpt>
      <trkpt lat="47.50144" lon="6.76394">
        <ele>402</ele>
        <time>2016-05-15T07:23:33.000Z</time>
      </trkpt>
      <trkpt lat="47.50138" lon="6.76382">
        <ele>402</ele>
        <time>2016-05-15T07:23:34.000Z</time>
      </trkpt>
      <trkpt lat="47.50136" lon="6.76375">
        <ele>402</ele>
        <time>2016-05-15T07:23:35.000Z</time>
      </trkpt>
      <trkpt lat="47.50135" lon="6.76368">
        <ele>402</ele>
        <time>2016-05-15T07:23:36.000Z</time>
      </trkpt>
      <trkpt lat="47.50135" lon="6.76362">
        <ele>401</ele>
        <time>2016-05-15T07:23:37.000Z</time>
      </trkpt>
      <trkpt lat="47.50133" lon="6.76353">
        <ele>401</ele>
        <time>2016-05-15T07:23:38.000Z</time>
      </trkpt>
      <trkpt lat="47.5013" lon="6.76345">
        <ele>401</ele>
        <time>2016-05-15T07:23:39.000Z</time>
      </trkpt>
      <trkpt lat="47.50128" lon="6.76337">
        <ele>401</ele>
        <time>2016-05-15T07:23:40.000Z</time>
      </trkpt>
      <trkpt lat="47.50123" lon="6.76327">
        <ele>399</ele>
        <time>2016-05-15T07:23:41.000Z</time>
      </trkpt>
      <trkpt lat="47.50118" lon="6.76318">
        <ele>399</ele>
        <time>2016-05-15T07:23:42.000Z</time>
      </trkpt>
      <trkpt lat="47.50117" lon="6.7631">
        <ele>399</ele>
        <time>2016-05-15T07:23:43.000Z</time>
      </trkpt>
      <trkpt lat="47.50114" lon="6.76304">
        <ele>399</ele>
        <time>2016-05-15T07:23:44.000Z</time>
      </trkpt>
      <trkpt lat="47.5011" lon="6.76292">
        <ele>399</ele>
        <time>2016-05-15T07:23:45.000Z</time>
      </trkpt>
      <trkpt lat="47.50107" lon="6.76282">
        <ele>399</ele>
        <time>2016-05-15T07:23:46.000Z</time>
      </trkpt>
      <trkpt lat="47.50107" lon="6.76274">
        <ele>399</ele>
        <time>2016-05-15T07:23:47.000Z</time>
      </trkpt>
      <trkpt lat="47.50107" lon="6.76266">
        <ele>399</ele>
        <time>2016-05-15T07:23:48.000Z</time>
      </trkpt>
      <trkpt lat="47.50105" lon="6.76255">
        <ele>399</ele>
        <time>2016-05-15T07:23:49.000Z</time>
      </trkpt>
      <trkpt lat="47.50104" lon="6.76245">
        <ele>396</ele>
        <time>2016-05-15T07:23:50.000Z</time>
      </trkpt>
      <trkpt lat="47.50101" lon="6.76236">
        <ele>395</ele>
        <time>2016-05-15T07:23:51.000Z</time>
      </trkpt>
      <trkpt lat="47.50097" lon="6.76227">
        <ele>395</ele>
        <time>2016-05-15T07:23:52.000Z</time>
      </trkpt>
      <trkpt lat="47.50092" lon="6.76215">
        <ele>394</ele>
        <time>2016-05-15T07:23:53.000Z</time>
      </trkpt>
      <trkpt lat="47.5009" lon="6.76206">
        <ele>393</ele>
        <time>2016-05-15T07:23:54.000Z</time>
      </trkpt>
      <trkpt lat="47.50085" lon="6.76196">
        <ele>393</ele>
        <time>2016-05-15T07:23:55.000Z</time>
      </trkpt>
      <trkpt lat="47.50083" lon="6.76187">
        <ele>400</ele>
        <time>2016-05-15T07:23:56.000Z</time>
      </trkpt>
      <trkpt lat="47.50082" lon="6.76176">
        <ele>398</ele>
        <time>2016-05-15T07:23:57.000Z</time>
      </trkpt>
      <trkpt lat="47.50082" lon="6.76161">
        <ele>396</ele>
        <time>2016-05-15T07:23:58.000Z</time>
      </trkpt>
      <trkpt lat="47.50079" lon="6.7615">
        <ele>396</ele>
        <time>2016-05-15T07:23:59.000Z</time>
      </trkpt>
      <trkpt lat="47.50076" lon="6.76137">
        <ele>396</ele>
        <time>2016-05-15T07:24:00.000Z</time>
      </trkpt>
      <trkpt lat="47.50074" lon="6.76125">
        <ele>395</ele>
        <time>2016-05-15T07:24:01.000Z</time>
      </trkpt>
      <trkpt lat="47.50071" lon="6.76109">
        <ele>394</ele>
        <time>2016-05-15T07:24:02.000Z</time>
      </trkpt>
      <trkpt lat="47.50064" lon="6.76088">
        <ele>393</ele>
        <time>2016-05-15T07:24:03.000Z</time>
      </trkpt>
      <trkpt lat="47.50064" lon="6.76069">
        <ele>388</ele>
        <time>2016-05-15T07:24:04.000Z</time>
      </trkpt>
      <trkpt lat="47.5006" lon="6.76057">
        <ele>387</ele>
        <time>2016-05-15T07:24:05.000Z</time>
      </trkpt>
      <trkpt lat="47.50057" lon="6.76047">
        <ele>387</ele>
        <time>2016-05-15T07:24:06.000Z</time>
      </trkpt>
      <trkpt lat="47.50054" lon="6.76037">
        <ele>386</ele>
        <time>2016-05-15T07:24:07.000Z</time>
      </trkpt>
      <trkpt lat="47.5005" lon="6.76025">
        <ele>386</ele>
        <time>2016-05-15T07:24:08.000Z</time>
      </trkpt>
      <trkpt lat="47.50047" lon="6.76015">
        <ele>385</ele>
        <time>2016-05-15T07:24:09.000Z</time>
      </trkpt>
      <trkpt lat="47.50043" lon="6.76006">
        <ele>385</ele>
        <time>2016-05-15T07:24:10.000Z</time>
      </trkpt>
      <trkpt lat="47.50039" lon="6.75998">
        <ele>380</ele>
        <time>2016-05-15T07:24:11.000Z</time>
      </trkpt>
      <trkpt lat="47.50036" lon="6.75992">
        <ele>380</ele>
        <time>2016-05-15T07:24:12.000Z</time>
      </trkpt>
      <trkpt lat="47.50032" lon="6.75984">
        <ele>380</ele>
        <time>2016-05-15T07:24:13.000Z</time>
      </trkpt>
      <trkpt lat="47.50031" lon="6.75972">
        <ele>379</ele>
        <time>2016-05-15T07:24:14.000Z</time>
      </trkpt>
      <trkpt lat="47.50031" lon="6.7596">
        <ele>379</ele>
        <time>2016-05-15T07:24:15.000Z</time>
      </trkpt>
      <trkpt lat="47.50028" lon="6.75954">
        <ele>379</ele>
        <time>2016-05-15T07:24:16.000Z</time>
      </trkpt>
      <trkpt lat="47.50024" lon="6.75945">
        <ele>379</ele>
        <time>2016-05-15T07:24:17.000Z</time>
      </trkpt>
      <trkpt lat="47.50019" lon="6.75937">
        <ele>379</ele>
        <time>2016-05-15T07:24:18.000Z</time>
      </trkpt>
      <trkpt lat="47.50013" lon="6.7593">
        <ele>378</ele>
        <time>2016-05-15T07:24:19.000Z</time>
      </trkpt>
      <trkpt lat="47.50007" lon="6.7592">
        <ele>378</ele>
        <time>2016-05-15T07:24:20.000Z</time>
      </trkpt>
      <trkpt lat="47.50002" lon="6.75911">
        <ele>378</ele>
        <time>2016-05-15T07:24:21.000Z</time>
      </trkpt>
      <trkpt lat="47.49998" lon="6.75902">
        <ele>377</ele>
        <time>2016-05-15T07:24:22.000Z</time>
      </trkpt>
      <trkpt lat="47.49995" lon="6.75895">
        <ele>377</ele>
        <time>2016-05-15T07:24:23.000Z</time>
      </trkpt>
      <trkpt lat="47.49991" lon="6.75889">
        <ele>377</ele>
        <time>2016-05-15T07:24:24.000Z</time>
      </trkpt>
      <trkpt lat="47.49985" lon="6.75879">
        <ele>377</ele>
        <time>2016-05-15T07:24:25.000Z</time>
      </trkpt>
      <trkpt lat="47.4998" lon="6.75871">
        <ele>377</ele>
        <time>2016-05-15T07:24:26.000Z</time>
      </trkpt>
      <trkpt lat="47.49978" lon="6.75865">
        <ele>377</ele>
        <time>2016-05-15T07:24:27.000Z</time>
      </trkpt>
      <trkpt lat="47.49972" lon="6.75861">
        <ele>377</ele>
        <time>2016-05-15T07:24:28.000Z</time>
      </trkpt>
      <trkpt lat="47.49969" lon="6.75855">
        <ele>376</ele>
        <time>2016-05-15T07:24:29.000Z</time>
      </trkpt>
      <trkpt lat="47.49965" lon="6.75844">
        <ele>376</ele>
        <time>2016-05-15T07:24:30.000Z</time>
      </trkpt>
      <trkpt lat="47.49963" lon="6.75836">
        <ele>376</ele>
        <time>2016-05-15T07:24:31.000Z</time>
      </trkpt>
      <trkpt lat="47.49963" lon="6.7582">
        <ele>374</ele>
        <time>2016-05-15T07:24:32.000Z</time>
      </trkpt>
      <trkpt lat="47.49961" lon="6.75815">
        <ele>374</ele>
        <time>2016-05-15T07:24:33.000Z</time>
      </trkpt>
      <trkpt lat="47.49949" lon="6.75803">
        <ele>373</ele>
        <time>2016-05-15T07:24:34.000Z</time>
      </trkpt>
      <trkpt lat="47.49941" lon="6.75794">
        <ele>373</ele>
        <time>2016-05-15T07:24:35.000Z</time>
      </trkpt>
      <trkpt lat="47.49936" lon="6.75789">
        <ele>373</ele>
        <time>2016-05-15T07:24:36.000Z</time>
      </trkpt>
      <trkpt lat="47.49925" lon="6.7578">
        <ele>372</ele>
        <time>2016-05-15T07:24:37.000Z</time>
      </trkpt>
      <trkpt lat="47.49919" lon="6.75767">
        <ele>371</ele>
        <time>2016-05-15T07:24:38.000Z</time>
      </trkpt>
      <trkpt lat="47.49916" lon="6.75758">
        <ele>368</ele>
        <time>2016-05-15T07:24:39.000Z</time>
      </trkpt>
      <trkpt lat="47.49909" lon="6.75756">
        <ele>368</ele>
        <time>2016-05-15T07:24:40.000Z</time>
      </trkpt>
      <trkpt lat="47.49903" lon="6.7575">
        <ele>368</ele>
        <time>2016-05-15T07:24:41.000Z</time>
      </trkpt>
      <trkpt lat="47.49897" lon="6.75748">
        <ele>365</ele>
        <time>2016-05-15T07:24:42.000Z</time>
      </trkpt>
      <trkpt lat="47.49892" lon="6.75747">
        <ele>365</ele>
        <time>2016-05-15T07:24:43.000Z</time>
      </trkpt>
      <trkpt lat="47.49887" lon="6.75748">
        <ele>364</ele>
        <time>2016-05-15T07:24:44.000Z</time>
      </trkpt>
      <trkpt lat="47.49881" lon="6.75749">
        <ele>364</ele>
        <time>2016-05-15T07:24:45.000Z</time>
      </trkpt>
      <trkpt lat="47.49875" lon="6.75746">
        <ele>363</ele>
        <time>2016-05-15T07:24:46.000Z</time>
      </trkpt>
      <trkpt lat="47.49871" lon="6.75745">
        <ele>363</ele>
        <time>2016-05-15T07:24:47.000Z</time>
      </trkpt>
      <trkpt lat="47.49868" lon="6.75746">
        <ele>362</ele>
        <time>2016-05-15T07:24:48.000Z</time>
      </trkpt>
      <trkpt lat="47.49862" lon="6.75746">
        <ele>362</ele>
        <time>2016-05-15T07:24:49.000Z</time>
      </trkpt>
      <trkpt lat="47.49855" lon="6.75749">
        <ele>361</ele>
        <time>2016-05-15T07:24:50.000Z</time>
      </trkpt>
      <trkpt lat="47.49848" lon="6.7575">
        <ele>362</ele>
        <time>2016-05-15T07:24:51.000Z</time>
      </trkpt>
      <trkpt lat="47.49836" lon="6.75754">
        <ele>360</ele>
        <time>2016-05-15T07:24:52.000Z</time>
      </trkpt>
      <trkpt lat="47.49827" lon="6.75757">
        <ele>360</ele>
        <time>2016-05-15T07:24:53.000Z</time>
      </trkpt>
      <trkpt lat="47.49815" lon="6.75758">
        <ele>360</ele>
        <time>2016-05-15T07:24:54.000Z</time>
      </trkpt>
      <trkpt lat="47.49802" lon="6.75759">
        <ele>359</ele>
        <time>2016-05-15T07:24:55.000Z</time>
      </trkpt>
      <trkpt lat="47.49791" lon="6.75761">
        <ele>359</ele>
        <time>2016-05-15T07:24:56.000Z</time>
      </trkpt>
      <trkpt lat="47.49775" lon="6.75762">
        <ele>358</ele>
        <time>2016-05-15T07:24:57.000Z</time>
      </trkpt>
      <trkpt lat="47.49763" lon="6.75762">
        <ele>356</ele>
        <time>2016-05-15T07:24:58.000Z</time>
      </trkpt>
      <trkpt lat="47.49751" lon="6.75764">
        <ele>355</ele>
        <time>2016-05-15T07:24:59.000Z</time>
      </trkpt>
      <trkpt lat="47.49741" lon="6.75765">
        <ele>353</ele>
        <time>2016-05-15T07:25:00.000Z</time>
      </trkpt>
      <trkpt lat="47.49732" lon="6.7577">
        <ele>354</ele>
        <time>2016-05-15T07:25:01.000Z</time>
      </trkpt>
      <trkpt lat="47.49722" lon="6.75773">
        <ele>354</ele>
        <time>2016-05-15T07:25:02.000Z</time>
      </trkpt>
      <trkpt lat="47.49717" lon="6.75778">
        <ele>354</ele>
        <time>2016-05-15T07:25:03.000Z</time>
      </trkpt>
      <trkpt lat="47.4971" lon="6.75782">
        <ele>354</ele>
        <time>2016-05-15T07:25:04.000Z</time>
      </trkpt>
      <trkpt lat="47.49702" lon="6.75785">
        <ele>354</ele>
        <time>2016-05-15T07:25:05.000Z</time>
      </trkpt>
      <trkpt lat="47.49696" lon="6.75787">
        <ele>354</ele>
        <time>2016-05-15T07:25:06.000Z</time>
      </trkpt>
      <trkpt lat="47.49689" lon="6.75789">
        <ele>354</ele>
        <time>2016-05-15T07:25:07.000Z</time>
      </trkpt>
      <trkpt lat="47.49681" lon="6.75792">
        <ele>354</ele>
        <time>2016-05-15T07:25:08.000Z</time>
      </trkpt>
      <trkpt lat="47.49674" lon="6.75793">
        <ele>354</ele>
        <time>2016-05-15T07:25:09.000Z</time>
      </trkpt>
      <trkpt lat="47.4967" lon="6.75794">
        <ele>354</ele>
        <time>2016-05-15T07:25:10.000Z</time>
      </trkpt>
      <trkpt lat="47.49668" lon="6.75796">
        <ele>354</ele>
        <time>2016-05-15T07:25:11.000Z</time>
      </trkpt>
      <trkpt lat="47.49661" lon="6.75797">
        <ele>349</ele>
        <time>2016-05-15T07:25:12.000Z</time>
      </trkpt>
      <trkpt lat="47.49654" lon="6.75797">
        <ele>348</ele>
        <time>2016-05-15T07:25:13.000Z</time>
      </trkpt>
      <trkpt lat="47.49649" lon="6.75799">
        <ele>348</ele>
        <time>2016-05-15T07:25:14.000Z</time>
      </trkpt>
      <trkpt lat="47.49643" lon="6.75799">
        <ele>348</ele>
        <time>2016-05-15T07:25:15.000Z</time>
      </trkpt>
      <trkpt lat="47.49636" lon="6.75801">
        <ele>348</ele>
        <time>2016-05-15T07:25:16.000Z</time>
      </trkpt>
      <trkpt lat="47.49631" lon="6.75803">
        <ele>348</ele>
        <time>2016-05-15T07:25:17.000Z</time>
      </trkpt>
      <trkpt lat="47.49624" lon="6.75806">
        <ele>347</ele>
        <time>2016-05-15T07:25:18.000Z</time>
      </trkpt>
      <trkpt lat="47.49619" lon="6.75807">
        <ele>347</ele>
        <time>2016-05-15T07:25:19.000Z</time>
      </trkpt>
      <trkpt lat="47.49611" lon="6.75807">
        <ele>347</ele>
        <time>2016-05-15T07:25:20.000Z</time>
      </trkpt>
      <trkpt lat="47.49604" lon="6.75806">
        <ele>347</ele>
        <time>2016-05-15T07:25:21.000Z</time>
      </trkpt>
      <trkpt lat="47.49597" lon="6.75803">
        <ele>346</ele>
        <time>2016-05-15T07:25:22.000Z</time>
      </trkpt>
      <trkpt lat="47.49591" lon="6.75799">
        <ele>345</ele>
        <time>2016-05-15T07:25:23.000Z</time>
      </trkpt>
      <trkpt lat="47.49585" lon="6.75794">
        <ele>345</ele>
        <time>2016-05-15T07:25:24.000Z</time>
      </trkpt>
      <trkpt lat="47.49581" lon="6.75787">
        <ele>338</ele>
        <time>2016-05-15T07:25:25.000Z</time>
      </trkpt>
      <trkpt lat="47.49574" lon="6.75779">
        <ele>337</ele>
        <time>2016-05-15T07:25:26.000Z</time>
      </trkpt>
      <trkpt lat="47.49572" lon="6.75769">
        <ele>336</ele>
        <time>2016-05-15T07:25:27.000Z</time>
      </trkpt>
      <trkpt lat="47.49574" lon="6.75762">
        <ele>335</ele>
        <time>2016-05-15T07:25:28.000Z</time>
      </trkpt>
      <trkpt lat="47.49576" lon="6.75759">
        <ele>335</ele>
        <time>2016-05-15T07:25:29.000Z</time>
      </trkpt>
      <trkpt lat="47.49578" lon="6.75755">
        <ele>335</ele>
        <time>2016-05-15T07:25:30.000Z</time>
      </trkpt>
      <trkpt lat="47.49581" lon="6.75751">
        <ele>334</ele>
        <time>2016-05-15T07:25:31.000Z</time>
      </trkpt>
      <trkpt lat="47.49585" lon="6.75747">
        <ele>334</ele>
        <time>2016-05-15T07:25:32.000Z</time>
      </trkpt>
      <trkpt lat="47.49589" lon="6.75742">
        <ele>333</ele>
        <time>2016-05-15T07:25:33.000Z</time>
      </trkpt>
      <trkpt lat="47.49592" lon="6.75736">
        <ele>333</ele>
        <time>2016-05-15T07:25:34.000Z</time>
      </trkpt>
      <trkpt lat="47.49595" lon="6.75731">
        <ele>332</ele>
        <time>2016-05-15T07:25:35.000Z</time>
      </trkpt>
      <trkpt lat="47.49598" lon="6.75725">
        <ele>332</ele>
        <time>2016-05-15T07:25:36.000Z</time>
      </trkpt>
      <trkpt lat="47.496" lon="6.75719">
        <ele>331</ele>
        <time>2016-05-15T07:25:37.000Z</time>
      </trkpt>
      <trkpt lat="47.49602" lon="6.75711">
        <ele>331</ele>
        <time>2016-05-15T07:25:38.000Z</time>
      </trkpt>
      <trkpt lat="47.49602" lon="6.75704">
        <ele>330</ele>
        <time>2016-05-15T07:25:39.000Z</time>
      </trkpt>
      <trkpt lat="47.49598" lon="6.75693">
        <ele>329</ele>
        <time>2016-05-15T07:25:40.000Z</time>
      </trkpt>
      <trkpt lat="47.49595" lon="6.75686">
        <ele>327</ele>
        <time>2016-05-15T07:25:41.000Z</time>
      </trkpt>
      <trkpt lat="47.4959" lon="6.75682">
        <ele>326</ele>
        <time>2016-05-15T07:25:42.000Z</time>
      </trkpt>
      <trkpt lat="47.49585" lon="6.75678">
        <ele>325</ele>
        <time>2016-05-15T07:25:43.000Z</time>
      </trkpt>
      <trkpt lat="47.4958" lon="6.75675">
        <ele>322</ele>
        <time>2016-05-15T07:25:44.000Z</time>
      </trkpt>
      <trkpt lat="47.49573" lon="6.75677">
        <ele>323</ele>
        <time>2016-05-15T07:25:45.000Z</time>
      </trkpt>
      <trkpt lat="47.49568" lon="6.75681">
        <ele>323</ele>
        <time>2016-05-15T07:25:46.000Z</time>
      </trkpt>
      <trkpt lat="47.49563" lon="6.75683">
        <ele>324</ele>
        <time>2016-05-15T07:25:47.000Z</time>
      </trkpt>
      <trkpt lat="47.49559" lon="6.75687">
        <ele>324</ele>
        <time>2016-05-15T07:25:48.000Z</time>
      </trkpt>
      <trkpt lat="47.49556" lon="6.75693">
        <ele>324</ele>
        <time>2016-05-15T07:25:49.000Z</time>
      </trkpt>
      <trkpt lat="47.49551" lon="6.75698">
        <ele>325</ele>
        <time>2016-05-15T07:25:50.000Z</time>
      </trkpt>
      <trkpt lat="47.49547" lon="6.75705">
        <ele>325</ele>
        <time>2016-05-15T07:25:51.000Z</time>
      </trkpt>
      <trkpt lat="47.49542" lon="6.7571">
        <ele>325</ele>
        <time>2016-05-15T07:25:52.000Z</time>
      </trkpt>
      <trkpt lat="47.49538" lon="6.75714">
        <ele>325</ele>
        <time>2016-05-15T07:25:53.000Z</time>
      </trkpt>
      <trkpt lat="47.49532" lon="6.75719">
        <ele>325</ele>
        <time>2016-05-15T07:25:54.000Z</time>
      </trkpt>
      <trkpt lat="47.49526" lon="6.75723">
        <ele>325</ele>
        <time>2016-05-15T07:25:55.000Z</time>
      </trkpt>
      <trkpt lat="47.49523" lon="6.75727">
        <ele>325</ele>
        <time>2016-05-15T07:25:56.000Z</time>
      </trkpt>
      <trkpt lat="47.49517" lon="6.75731">
        <ele>325</ele>
        <time>2016-05-15T07:25:57.000Z</time>
      </trkpt>
      <trkpt lat="47.49511" lon="6.75735">
        <ele>325</ele>
        <time>2016-05-15T07:25:58.000Z</time>
      </trkpt>
      <trkpt lat="47.49505" lon="6.75739">
        <ele>324</ele>
        <time>2016-05-15T07:25:59.000Z</time>
      </trkpt>
      <trkpt lat="47.49499" lon="6.75742">
        <ele>323</ele>
        <time>2016-05-15T07:26:00.000Z</time>
      </trkpt>
      <trkpt lat="47.49493" lon="6.75744">
        <ele>323</ele>
        <time>2016-05-15T07:26:01.000Z</time>
      </trkpt>
      <trkpt lat="47.49487" lon="6.75745">
        <ele>323</ele>
        <time>2016-05-15T07:26:02.000Z</time>
      </trkpt>
      <trkpt lat="47.49482" lon="6.75743">
        <ele>322</ele>
        <time>2016-05-15T07:26:03.000Z</time>
      </trkpt>
      <trkpt lat="47.49479" lon="6.75739">
        <ele>322</ele>
        <time>2016-05-15T07:26:04.000Z</time>
      </trkpt>
      <trkpt lat="47.49477" lon="6.75731">
        <ele>322</ele>
        <time>2016-05-15T07:26:05.000Z</time>
      </trkpt>
      <trkpt lat="47.49475" lon="6.75723">
        <ele>322</ele>
        <time>2016-05-15T07:26:06.000Z</time>
      </trkpt>
      <trkpt lat="47.49472" lon="6.75716">
        <ele>321</ele>
        <time>2016-05-15T07:26:07.000Z</time>
      </trkpt>
      <trkpt lat="47.4947" lon="6.7571">
        <ele>321</ele>
        <time>2016-05-15T07:26:08.000Z</time>
      </trkpt>
      <trkpt lat="47.49466" lon="6.75705">
        <ele>321</ele>
        <time>2016-05-15T07:26:09.000Z</time>
      </trkpt>
      <trkpt lat="47.49462" lon="6.75702">
        <ele>321</ele>
        <time>2016-05-15T07:26:10.000Z</time>
      </trkpt>
      <trkpt lat="47.49457" lon="6.75702">
        <ele>321</ele>
        <time>2016-05-15T07:26:11.000Z</time>
      </trkpt>
      <trkpt lat="47.49453" lon="6.75704">
        <ele>321</ele>
        <time>2016-05-15T07:26:12.000Z</time>
      </trkpt>
      <trkpt lat="47.49449" lon="6.75705">
        <ele>321</ele>
        <time>2016-05-15T07:26:13.000Z</time>
      </trkpt>
      <trkpt lat="47.49445" lon="6.75706">
        <ele>321</ele>
        <time>2016-05-15T07:26:14.000Z</time>
      </trkpt>
      <trkpt lat="47.4944" lon="6.75703">
        <ele>321</ele>
        <time>2016-05-15T07:26:15.000Z</time>
      </trkpt>
      <trkpt lat="47.49438" lon="6.75697">
        <ele>321</ele>
        <time>2016-05-15T07:26:16.000Z</time>
      </trkpt>
      <trkpt lat="47.49437" lon="6.75691">
        <ele>320</ele>
        <time>2016-05-15T07:26:17.000Z</time>
      </trkpt>
      <trkpt lat="47.49435" lon="6.75683">
        <ele>320</ele>
        <time>2016-05-15T07:26:18.000Z</time>
      </trkpt>
      <trkpt lat="47.49433" lon="6.75677">
        <ele>320</ele>
        <time>2016-05-15T07:26:19.000Z</time>
      </trkpt>
      <trkpt lat="47.4943" lon="6.75672">
        <ele>320</ele>
        <time>2016-05-15T07:26:20.000Z</time>
      </trkpt>
      <trkpt lat="47.49426" lon="6.75674">
        <ele>320</ele>
        <time>2016-05-15T07:26:21.000Z</time>
      </trkpt>
      <trkpt lat="47.49423" lon="6.75675">
        <ele>320</ele>
        <time>2016-05-15T07:26:22.000Z</time>
      </trkpt>
      <trkpt lat="47.49419" lon="6.75677">
        <ele>320</ele>
        <time>2016-05-15T07:26:23.000Z</time>
      </trkpt>
      <trkpt lat="47.49417" lon="6.7568">
        <ele>320</ele>
        <time>2016-05-15T07:26:24.000Z</time>
      </trkpt>
      <trkpt lat="47.49414" lon="6.75683">
        <ele>319</ele>
        <time>2016-05-15T07:26:25.000Z</time>
      </trkpt>
      <trkpt lat="47.49407" lon="6.75688">
        <ele>319</ele>
        <time>2016-05-15T07:26:26.000Z</time>
      </trkpt>
      <trkpt lat="47.49402" lon="6.7569">
        <ele>319</ele>
        <time>2016-05-15T07:26:27.000Z</time>
      </trkpt>
      <trkpt lat="47.49398" lon="6.75693">
        <ele>319</ele>
        <time>2016-05-15T07:26:28.000Z</time>
      </trkpt>
      <trkpt lat="47.49394" lon="6.75697">
        <ele>319</ele>
        <time>2016-05-15T07:26:29.000Z</time>
      </trkpt>
      <trkpt lat="47.49389" lon="6.75701">
        <ele>319</ele>
        <time>2016-05-15T07:26:30.000Z</time>
      </trkpt>
      <trkpt lat="47.49385" lon="6.75706">
        <ele>319</ele>
        <time>2016-05-15T07:26:31.000Z</time>
      </trkpt>
      <trkpt lat="47.49381" lon="6.75707">
        <ele>319</ele>
        <time>2016-05-15T07:26:32.000Z</time>
      </trkpt>
      <trkpt lat="47.49377" lon="6.75709">
        <ele>319</ele>
        <time>2016-05-15T07:26:33.000Z</time>
      </trkpt>
      <trkpt lat="47.49375" lon="6.75713">
        <ele>319</ele>
        <time>2016-05-15T07:26:34.000Z</time>
      </trkpt>
      <trkpt lat="47.4937" lon="6.75717">
        <ele>319</ele>
        <time>2016-05-15T07:26:35.000Z</time>
      </trkpt>
      <trkpt lat="47.49367" lon="6.75718">
        <ele>319</ele>
        <time>2016-05-15T07:26:36.000Z</time>
      </trkpt>
      <trkpt lat="47.49366" lon="6.75721">
        <ele>319</ele>
        <time>2016-05-15T07:26:37.000Z</time>
      </trkpt>
      <trkpt lat="47.49363" lon="6.75724">
        <ele>319</ele>
        <time>2016-05-15T07:26:39.000Z</time>
      </trkpt>
      <trkpt lat="47.49361" lon="6.75727">
        <ele>319</ele>
        <time>2016-05-15T07:26:40.000Z</time>
      </trkpt>
      <trkpt lat="47.49358" lon="6.75729">
        <ele>319</ele>
        <time>2016-05-15T07:26:41.000Z</time>
      </trkpt>
      <trkpt lat="47.49356" lon="6.7573">
        <ele>319</ele>
        <time>2016-05-15T07:26:42.000Z</time>
      </trkpt>
      <trkpt lat="47.49353" lon="6.75731">
        <ele>319</ele>
        <time>2016-05-15T07:26:43.000Z</time>
      </trkpt>
      <trkpt lat="47.4935" lon="6.75733">
        <ele>318</ele>
        <time>2016-05-15T07:26:44.000Z</time>
      </trkpt>
      <trkpt lat="47.49346" lon="6.75736">
        <ele>318</ele>
        <time>2016-05-15T07:26:45.000Z</time>
      </trkpt>
      <trkpt lat="47.49336" lon="6.75744">
        <ele>318</ele>
        <time>2016-05-15T07:26:46.000Z</time>
      </trkpt>
      <trkpt lat="47.4933" lon="6.75749">
        <ele>318</ele>
        <time>2016-05-15T07:26:47.000Z</time>
      </trkpt>
      <trkpt lat="47.49328" lon="6.75754">
        <ele>318</ele>
        <time>2016-05-15T07:26:48.000Z</time>
      </trkpt>
      <trkpt lat="47.49325" lon="6.75759">
        <ele>318</ele>
        <time>2016-05-15T07:26:49.000Z</time>
      </trkpt>
      <trkpt lat="47.49322" lon="6.75763">
        <ele>318</ele>
        <time>2016-05-15T07:26:50.000Z</time>
      </trkpt>
      <trkpt lat="47.49318" lon="6.7577">
        <ele>318</ele>
        <time>2016-05-15T07:26:51.000Z</time>
      </trkpt>
      <trkpt lat="47.49317" lon="6.75777">
        <ele>318</ele>
        <time>2016-05-15T07:26:52.000Z</time>
      </trkpt>
      <trkpt lat="47.49316" lon="6.75782">
        <ele>318</ele>
        <time>2016-05-15T07:26:53.000Z</time>
      </trkpt>
      <trkpt lat="47.49315" lon="6.75787">
        <ele>318</ele>
        <time>2016-05-15T07:26:54.000Z</time>
      </trkpt>
      <trkpt lat="47.49312" lon="6.75793">
        <ele>318</ele>
        <time>2016-05-15T07:26:55.000Z</time>
      </trkpt>
      <trkpt lat="47.49303" lon="6.758">
        <ele>318</ele>
        <time>2016-05-15T07:26:56.000Z</time>
      </trkpt>
      <trkpt lat="47.49298" lon="6.75806">
        <ele>318</ele>
        <time>2016-05-15T07:26:57.000Z</time>
      </trkpt>
      <trkpt lat="47.49294" lon="6.75812">
        <ele>318</ele>
        <time>2016-05-15T07:26:58.000Z</time>
      </trkpt>
      <trkpt lat="47.49292" lon="6.75818">
        <ele>318</ele>
        <time>2016-05-15T07:26:59.000Z</time>
      </trkpt>
      <trkpt lat="47.49287" lon="6.75826">
        <ele>318</ele>
        <time>2016-05-15T07:27:00.000Z</time>
      </trkpt>
      <trkpt lat="47.49283" lon="6.75833">
        <ele>317</ele>
        <time>2016-05-15T07:27:01.000Z</time>
      </trkpt>
      <trkpt lat="47.49278" lon="6.75841">
        <ele>318</ele>
        <time>2016-05-15T07:27:02.000Z</time>
      </trkpt>
      <trkpt lat="47.49273" lon="6.75848">
        <ele>318</ele>
        <time>2016-05-15T07:27:03.000Z</time>
      </trkpt>
      <trkpt lat="47.49268" lon="6.75854">
        <ele>318</ele>
        <time>2016-05-15T07:27:04.000Z</time>
      </trkpt>
      <trkpt lat="47.49261" lon="6.7586">
        <ele>318</ele>
        <time>2016-05-15T07:27:05.000Z</time>
      </trkpt>
      <trkpt lat="47.49257" lon="6.75867">
        <ele>318</ele>
        <time>2016-05-15T07:27:06.000Z</time>
      </trkpt>
      <trkpt lat="47.49253" lon="6.75875">
        <ele>318</ele>
        <time>2016-05-15T07:27:07.000Z</time>
      </trkpt>
      <trkpt lat="47.4925" lon="6.75881">
        <ele>318</ele>
        <time>2016-05-15T07:27:08.000Z</time>
      </trkpt>
      <trkpt lat="47.49246" lon="6.75888">
        <ele>318</ele>
        <time>2016-05-15T07:27:09.000Z</time>
      </trkpt>
      <trkpt lat="47.49243" lon="6.75895">
        <ele>318</ele>
        <time>2016-05-15T07:27:10.000Z</time>
      </trkpt>
      <trkpt lat="47.49239" lon="6.75901">
        <ele>318</ele>
        <time>2016-05-15T07:27:11.000Z</time>
      </trkpt>
      <trkpt lat="47.49234" lon="6.75907">
        <ele>318</ele>
        <time>2016-05-15T07:27:12.000Z</time>
      </trkpt>
      <trkpt lat="47.49233" lon="6.75915">
        <ele>318</ele>
        <time>2016-05-15T07:27:13.000Z</time>
      </trkpt>
      <trkpt lat="47.49233" lon="6.75923">
        <ele>318</ele>
        <time>2016-05-15T07:27:14.000Z</time>
      </trkpt>
      <trkpt lat="47.49234" lon="6.75928">
        <ele>319</ele>
        <time>2016-05-15T07:27:15.000Z</time>
      </trkpt>
      <trkpt lat="47.49233" lon="6.75934">
        <ele>319</ele>
        <time>2016-05-15T07:27:16.000Z</time>
      </trkpt>
      <trkpt lat="47.49231" lon="6.75946">
        <ele>320</ele>
        <time>2016-05-15T07:27:17.000Z</time>
      </trkpt>
      <trkpt lat="47.49222" lon="6.75958">
        <ele>320</ele>
        <time>2016-05-15T07:27:19.000Z</time>
      </trkpt>
      <trkpt lat="47.49217" lon="6.75963">
        <ele>320</ele>
        <time>2016-05-15T07:27:20.000Z</time>
      </trkpt>
      <trkpt lat="47.49215" lon="6.75971">
        <ele>320</ele>
        <time>2016-05-15T07:27:21.000Z</time>
      </trkpt>
      <trkpt lat="47.4921" lon="6.75976">
        <ele>320</ele>
        <time>2016-05-15T07:27:22.000Z</time>
      </trkpt>
      <trkpt lat="47.49208" lon="6.75983">
        <ele>320</ele>
        <time>2016-05-15T07:27:23.000Z</time>
      </trkpt>
      <trkpt lat="47.49208" lon="6.7599">
        <ele>320</ele>
        <time>2016-05-15T07:27:24.000Z</time>
      </trkpt>
      <trkpt lat="47.49209" lon="6.75998">
        <ele>321</ele>
        <time>2016-05-15T07:27:25.000Z</time>
      </trkpt>
      <trkpt lat="47.49207" lon="6.76007">
        <ele>321</ele>
        <time>2016-05-15T07:27:26.000Z</time>
      </trkpt>
      <trkpt lat="47.49202" lon="6.76015">
        <ele>321</ele>
        <time>2016-05-15T07:27:27.000Z</time>
      </trkpt>
      <trkpt lat="47.49198" lon="6.76023">
        <ele>321</ele>
        <time>2016-05-15T07:27:28.000Z</time>
      </trkpt>
      <trkpt lat="47.49196" lon="6.7603">
        <ele>321</ele>
        <time>2016-05-15T07:27:29.000Z</time>
      </trkpt>
      <trkpt lat="47.49189" lon="6.76038">
        <ele>321</ele>
        <time>2016-05-15T07:27:30.000Z</time>
      </trkpt>
      <trkpt lat="47.49184" lon="6.76045">
        <ele>321</ele>
        <time>2016-05-15T07:27:31.000Z</time>
      </trkpt>
      <trkpt lat="47.4918" lon="6.76053">
        <ele>320</ele>
        <time>2016-05-15T07:27:32.000Z</time>
      </trkpt>
      <trkpt lat="47.49176" lon="6.76062">
        <ele>320</ele>
        <time>2016-05-15T07:27:33.000Z</time>
      </trkpt>
      <trkpt lat="47.49173" lon="6.7607">
        <ele>320</ele>
        <time>2016-05-15T07:27:34.000Z</time>
      </trkpt>
      <trkpt lat="47.49169" lon="6.76077">
        <ele>319</ele>
        <time>2016-05-15T07:27:35.000Z</time>
      </trkpt>
      <trkpt lat="47.49165" lon="6.76085">
        <ele>318</ele>
        <time>2016-05-15T07:27:36.000Z</time>
      </trkpt>
      <trkpt lat="47.49162" lon="6.76092">
        <ele>319</ele>
        <time>2016-05-15T07:27:37.000Z</time>
      </trkpt>
      <trkpt lat="47.49159" lon="6.76098">
        <ele>320</ele>
        <time>2016-05-15T07:27:38.000Z</time>
      </trkpt>
      <trkpt lat="47.49157" lon="6.76104">
        <ele>321</ele>
        <time>2016-05-15T07:27:39.000Z</time>
      </trkpt>
      <trkpt lat="47.49155" lon="6.7611">
        <ele>321</ele>
        <time>2016-05-15T07:27:40.000Z</time>
      </trkpt>
      <trkpt lat="47.49153" lon="6.76115">
        <ele>321</ele>
        <time>2016-05-15T07:27:41.000Z</time>
      </trkpt>
      <trkpt lat="47.4915" lon="6.76121">
        <ele>321</ele>
        <time>2016-05-15T07:27:42.000Z</time>
      </trkpt>
      <trkpt lat="47.49148" lon="6.76127">
        <ele>321</ele>
        <time>2016-05-15T07:27:43.000Z</time>
      </trkpt>
      <trkpt lat="47.49145" lon="6.76132">
        <ele>321</ele>
        <time>2016-05-15T07:27:44.000Z</time>
      </trkpt>
      <trkpt lat="47.49143" lon="6.76138">
        <ele>321</ele>
        <time>2016-05-15T07:27:45.000Z</time>
      </trkpt>
      <trkpt lat="47.49141" lon="6.76145">
        <ele>321</ele>
        <time>2016-05-15T07:27:46.000Z</time>
      </trkpt>
      <trkpt lat="47.49142" lon="6.76149">
        <ele>321</ele>
        <time>2016-05-15T07:27:47.000Z</time>
      </trkpt>
      <trkpt lat="47.49142" lon="6.76155">
        <ele>321</ele>
        <time>2016-05-15T07:27:48.000Z</time>
      </trkpt>
      <trkpt lat="47.4914" lon="6.76164">
        <ele>321</ele>
        <time>2016-05-15T07:27:49.000Z</time>
      </trkpt>
      <trkpt lat="47.49138" lon="6.76172">
        <ele>321</ele>
        <time>2016-05-15T07:27:50.000Z</time>
      </trkpt>
      <trkpt lat="47.49139" lon="6.7618">
        <ele>321</ele>
        <time>2016-05-15T07:27:51.000Z</time>
      </trkpt>
      <trkpt lat="47.49138" lon="6.76187">
        <ele>321</ele>
        <time>2016-05-15T07:27:52.000Z</time>
      </trkpt>
      <trkpt lat="47.49138" lon="6.76194">
        <ele>321</ele>
        <time>2016-05-15T07:27:53.000Z</time>
      </trkpt>
      <trkpt lat="47.49138" lon="6.76201">
        <ele>321</ele>
        <time>2016-05-15T07:27:54.000Z</time>
      </trkpt>
      <trkpt lat="47.49139" lon="6.76209">
        <ele>320</ele>
        <time>2016-05-15T07:27:55.000Z</time>
      </trkpt>
      <trkpt lat="47.49138" lon="6.76218">
        <ele>320</ele>
        <time>2016-05-15T07:27:56.000Z</time>
      </trkpt>
      <trkpt lat="47.49137" lon="6.76226">
        <ele>320</ele>
        <time>2016-05-15T07:27:57.000Z</time>
      </trkpt>
      <trkpt lat="47.49136" lon="6.76233">
        <ele>320</ele>
        <time>2016-05-15T07:27:58.000Z</time>
      </trkpt>
      <trkpt lat="47.49134" lon="6.7624">
        <ele>320</ele>
        <time>2016-05-15T07:27:59.000Z</time>
      </trkpt>
      <trkpt lat="47.49134" lon="6.76248">
        <ele>320</ele>
        <time>2016-05-15T07:28:00.000Z</time>
      </trkpt>
      <trkpt lat="47.49136" lon="6.76256">
        <ele>319</ele>
        <time>2016-05-15T07:28:01.000Z</time>
      </trkpt>
      <trkpt lat="47.49135" lon="6.76265">
        <ele>319</ele>
        <time>2016-05-15T07:28:02.000Z</time>
      </trkpt>
      <trkpt lat="47.49135" lon="6.76273">
        <ele>319</ele>
        <time>2016-05-15T07:28:03.000Z</time>
      </trkpt>
      <trkpt lat="47.49134" lon="6.76279">
        <ele>319</ele>
        <time>2016-05-15T07:28:04.000Z</time>
      </trkpt>
      <trkpt lat="47.49135" lon="6.76284">
        <ele>319</ele>
        <time>2016-05-15T07:28:05.000Z</time>
      </trkpt>
      <trkpt lat="47.49134" lon="6.76298">
        <ele>319</ele>
        <time>2016-05-15T07:28:06.000Z</time>
      </trkpt>
      <trkpt lat="47.49132" lon="6.76307">
        <ele>319</ele>
        <time>2016-05-15T07:28:07.000Z</time>
      </trkpt>
      <trkpt lat="47.49133" lon="6.76312">
        <ele>319</ele>
        <time>2016-05-15T07:28:08.000Z</time>
      </trkpt>
      <trkpt lat="47.49134" lon="6.76317">
        <ele>319</ele>
        <time>2016-05-15T07:28:09.000Z</time>
      </trkpt>
      <trkpt lat="47.49135" lon="6.76324">
        <ele>318</ele>
        <time>2016-05-15T07:28:10.000Z</time>
      </trkpt>
      <trkpt lat="47.49136" lon="6.76331">
        <ele>318</ele>
        <time>2016-05-15T07:28:11.000Z</time>
      </trkpt>
      <trkpt lat="47.49134" lon="6.76341">
        <ele>317</ele>
        <time>2016-05-15T07:28:12.000Z</time>
      </trkpt>
      <trkpt lat="47.49133" lon="6.76349">
        <ele>317</ele>
        <time>2016-05-15T07:28:13.000Z</time>
      </trkpt>
      <trkpt lat="47.49132" lon="6.76357">
        <ele>317</ele>
        <time>2016-05-15T07:28:14.000Z</time>
      </trkpt>
      <trkpt lat="47.49132" lon="6.76368">
        <ele>317</ele>
        <time>2016-05-15T07:28:15.000Z</time>
      </trkpt>
      <trkpt lat="47.49132" lon="6.76376">
        <ele>317</ele>
        <time>2016-05-15T07:28:16.000Z</time>
      </trkpt>
      <trkpt lat="47.4913" lon="6.76384">
        <ele>317</ele>
        <time>2016-05-15T07:28:17.000Z</time>
      </trkpt>
      <trkpt lat="47.4913" lon="6.76395">
        <ele>317</ele>
        <time>2016-05-15T07:28:18.000Z</time>
      </trkpt>
      <trkpt lat="47.49131" lon="6.76406">
        <ele>317</ele>
        <time>2016-05-15T07:28:19.000Z</time>
      </trkpt>
      <trkpt lat="47.4913" lon="6.76416">
        <ele>317</ele>
        <time>2016-05-15T07:28:20.000Z</time>
      </trkpt>
      <trkpt lat="47.49132" lon="6.76424">
        <ele>317</ele>
        <time>2016-05-15T07:28:21.000Z</time>
      </trkpt>
      <trkpt lat="47.49131" lon="6.76433">
        <ele>317</ele>
        <time>2016-05-15T07:28:22.000Z</time>
      </trkpt>
      <trkpt lat="47.49131" lon="6.7644">
        <ele>317</ele>
        <time>2016-05-15T07:28:23.000Z</time>
      </trkpt>
      <trkpt lat="47.49131" lon="6.76447">
        <ele>317</ele>
        <time>2016-05-15T07:28:24.000Z</time>
      </trkpt>
      <trkpt lat="47.49129" lon="6.76456">
        <ele>317</ele>
        <time>2016-05-15T07:28:25.000Z</time>
      </trkpt>
      <trkpt lat="47.49128" lon="6.76465">
        <ele>317</ele>
        <time>2016-05-15T07:28:26.000Z</time>
      </trkpt>
      <trkpt lat="47.4913" lon="6.76475">
        <ele>317</ele>
        <time>2016-05-15T07:28:27.000Z</time>
      </trkpt>
      <trkpt lat="47.49129" lon="6.76485">
        <ele>317</ele>
        <time>2016-05-15T07:28:28.000Z</time>
      </trkpt>
      <trkpt lat="47.49129" lon="6.76495">
        <ele>317</ele>
        <time>2016-05-15T07:28:29.000Z</time>
      </trkpt>
      <trkpt lat="47.49128" lon="6.76504">
        <ele>316</ele>
        <time>2016-05-15T07:28:30.000Z</time>
      </trkpt>
      <trkpt lat="47.49127" lon="6.7651">
        <ele>316</ele>
        <time>2016-05-15T07:28:31.000Z</time>
      </trkpt>
      <trkpt lat="47.49131" lon="6.7651">
        <ele>316</ele>
        <time>2016-05-15T07:28:32.000Z</time>
      </trkpt>
      <trkpt lat="47.4914" lon="6.76508">
        <ele>315</ele>
        <time>2016-05-15T07:28:33.000Z</time>
      </trkpt>
      <trkpt lat="47.49143" lon="6.76508">
        <ele>315</ele>
        <time>2016-05-15T07:28:34.000Z</time>
      </trkpt>
      <trkpt lat="47.49147" lon="6.76509">
        <ele>315</ele>
        <time>2016-05-15T07:28:35.000Z</time>
      </trkpt>
      <trkpt lat="47.49152" lon="6.76505">
        <ele>314</ele>
        <time>2016-05-15T07:28:36.000Z</time>
      </trkpt>
      <trkpt lat="47.49157" lon="6.76502">
        <ele>314</ele>
        <time>2016-05-15T07:28:37.000Z</time>
      </trkpt>
      <trkpt lat="47.49158" lon="6.76499">
        <ele>314</ele>
        <time>2016-05-15T07:28:38.000Z</time>
      </trkpt>
      <trkpt lat="47.49159" lon="6.76494">
        <ele>314</ele>
        <time>2016-05-15T07:28:39.000Z</time>
      </trkpt>
      <trkpt lat="47.49159" lon="6.76496">
        <ele>314</ele>
        <time>2016-05-15T07:28:40.000Z</time>
      </trkpt>
      <trkpt lat="47.49163" lon="6.76497">
        <ele>314</ele>
        <time>2016-05-15T07:28:41.000Z</time>
      </trkpt>
      <trkpt lat="47.49166" lon="6.76496">
        <ele>314</ele>
        <time>2016-05-15T07:28:42.000Z</time>
      </trkpt>
      <trkpt lat="47.49169" lon="6.76495">
        <ele>314</ele>
        <time>2016-05-15T07:28:43.000Z</time>
      </trkpt>
      <trkpt lat="47.49166" lon="6.7649">
        <ele>314</ele>
        <time>2016-05-15T07:28:47.000Z</time>
      </trkpt>
      <trkpt lat="47.49165" lon="6.76488">
        <ele>314</ele>
        <time>2016-05-15T07:28:48.000Z</time>
      </trkpt>
      <trkpt lat="47.49167" lon="6.76482">
        <ele>315</ele>
        <time>2016-05-15T07:29:33.000Z</time>
      </trkpt>
      <trkpt lat="47.49167" lon="6.76482">
        <ele>315</ele>
        <time>2016-05-15T07:29:34.000Z</time>
      </trkpt>
      <trkpt lat="47.49172" lon="6.76482">
        <ele>315</ele>
        <time>2016-05-15T07:37:32.000Z</time>
      </trkpt>
      <trkpt lat="47.49172" lon="6.76481">
        <ele>315</ele>
        <time>2016-05-15T07:37:33.000Z</time>
      </trkpt>
      <trkpt lat="47.49176" lon="6.7648">
        <ele>316</ele>
        <time>2016-05-15T07:37:51.000Z</time>
      </trkpt>
      <trkpt lat="47.49176" lon="6.7648">
        <ele>316</ele>
        <time>2016-05-15T07:37:52.000Z</time>
      </trkpt>
      <trkpt lat="47.49179" lon="6.76481">
        <ele>316</ele>
        <time>2016-05-15T07:37:54.001Z</time>
      </trkpt>
      <trkpt lat="47.49181" lon="6.76484">
        <ele>316</ele>
        <time>2016-05-15T07:37:55.000Z</time>
      </trkpt>
      <trkpt lat="47.49182" lon="6.7649">
        <ele>316</ele>
        <time>2016-05-15T07:37:57.000Z</time>
      </trkpt>
      <trkpt lat="47.49181" lon="6.76494">
        <ele>315</ele>
        <time>2016-05-15T07:37:58.000Z</time>
      </trkpt>
      <trkpt lat="47.4918" lon="6.76498">
        <ele>315</ele>
        <time>2016-05-15T07:37:59.000Z</time>
      </trkpt>
      <trkpt lat="47.49178" lon="6.76502">
        <ele>315</ele>
        <time>2016-05-15T07:38:00.000Z</time>
      </trkpt>
      <trkpt lat="47.49176" lon="6.76504">
        <ele>314</ele>
        <time>2016-05-15T07:38:01.000Z</time>
      </trkpt>
      <trkpt lat="47.49173" lon="6.76506">
        <ele>314</ele>
        <time>2016-05-15T07:38:02.000Z</time>
      </trkpt>
      <trkpt lat="47.4917" lon="6.76508">
        <ele>314</ele>
        <time>2016-05-15T07:38:03.000Z</time>
      </trkpt>
      <trkpt lat="47.49167" lon="6.7651">
        <ele>314</ele>
        <time>2016-05-15T07:38:04.000Z</time>
      </trkpt>
      <trkpt lat="47.49164" lon="6.76512">
        <ele>314</ele>
        <time>2016-05-15T07:38:05.000Z</time>
      </trkpt>
      <trkpt lat="47.4916" lon="6.76515">
        <ele>314</ele>
        <time>2016-05-15T07:38:06.000Z</time>
      </trkpt>
      <trkpt lat="47.4915" lon="6.76522">
        <ele>315</ele>
        <time>2016-05-15T07:38:07.000Z</time>
      </trkpt>
      <trkpt lat="47.49145" lon="6.76525">
        <ele>315</ele>
        <time>2016-05-15T07:38:08.000Z</time>
      </trkpt>
      <trkpt lat="47.4914" lon="6.76526">
        <ele>315</ele>
        <time>2016-05-15T07:38:09.000Z</time>
      </trkpt>
      <trkpt lat="47.49137" lon="6.76526">
        <ele>315</ele>
        <time>2016-05-15T07:38:10.000Z</time>
      </trkpt>
      <trkpt lat="47.49134" lon="6.76527">
        <ele>316</ele>
        <time>2016-05-15T07:38:11.000Z</time>
      </trkpt>
      <trkpt lat="47.4913" lon="6.76529">
        <ele>316</ele>
        <time>2016-05-15T07:38:12.000Z</time>
      </trkpt>
      <trkpt lat="47.49127" lon="6.76532">
        <ele>316</ele>
        <time>2016-05-15T07:38:13.000Z</time>
      </trkpt>
      <trkpt lat="47.49123" lon="6.76536">
        <ele>316</ele>
        <time>2016-05-15T07:38:14.000Z</time>
      </trkpt>
      <trkpt lat="47.49121" lon="6.76539">
        <ele>316</ele>
        <time>2016-05-15T07:38:15.000Z</time>
      </trkpt>
      <trkpt lat="47.4912" lon="6.76543">
        <ele>316</ele>
        <time>2016-05-15T07:38:16.000Z</time>
      </trkpt>
      <trkpt lat="47.49128" lon="6.76552">
        <ele>315</ele>
        <time>2016-05-15T07:38:17.000Z</time>
      </trkpt>
      <trkpt lat="47.49129" lon="6.76559">
        <ele>315</ele>
        <time>2016-05-15T07:38:18.000Z</time>
      </trkpt>
      <trkpt lat="47.4913" lon="6.76565">
        <ele>315</ele>
        <time>2016-05-15T07:38:19.000Z</time>
      </trkpt>
      <trkpt lat="47.49132" lon="6.76573">
        <ele>315</ele>
        <time>2016-05-15T07:38:20.000Z</time>
      </trkpt>
      <trkpt lat="47.49131" lon="6.76579">
        <ele>315</ele>
        <time>2016-05-15T07:38:21.000Z</time>
      </trkpt>
      <trkpt lat="47.4913" lon="6.76587">
        <ele>314</ele>
        <time>2016-05-15T07:38:22.000Z</time>
      </trkpt>
      <trkpt lat="47.4913" lon="6.76594">
        <ele>314</ele>
        <time>2016-05-15T07:38:23.000Z</time>
      </trkpt>
      <trkpt lat="47.4913" lon="6.76601">
        <ele>314</ele>
        <time>2016-05-15T07:38:24.000Z</time>
      </trkpt>
      <trkpt lat="47.49131" lon="6.76607">
        <ele>314</ele>
        <time>2016-05-15T07:38:25.000Z</time>
      </trkpt>
      <trkpt lat="47.49129" lon="6.76614">
        <ele>314</ele>
        <time>2016-05-15T07:38:26.000Z</time>
      </trkpt>
      <trkpt lat="47.49128" lon="6.76621">
        <ele>314</ele>
        <time>2016-05-15T07:38:27.000Z</time>
      </trkpt>
      <trkpt lat="47.49127" lon="6.76627">
        <ele>314</ele>
        <time>2016-05-15T07:38:28.000Z</time>
      </trkpt>
      <trkpt lat="47.49128" lon="6.76635">
        <ele>314</ele>
        <time>2016-05-15T07:38:29.000Z</time>
      </trkpt>
      <trkpt lat="47.49128" lon="6.76642">
        <ele>314</ele>
        <time>2016-05-15T07:38:30.000Z</time>
      </trkpt>
      <trkpt lat="47.4913" lon="6.76649">
        <ele>314</ele>
        <time>2016-05-15T07:38:31.000Z</time>
      </trkpt>
      <trkpt lat="47.49128" lon="6.76655">
        <ele>314</ele>
        <time>2016-05-15T07:38:32.000Z</time>
      </trkpt>
      <trkpt lat="47.49124" lon="6.76662">
        <ele>314</ele>
        <time>2016-05-15T07:38:33.000Z</time>
      </trkpt>
      <trkpt lat="47.49122" lon="6.76668">
        <ele>314</ele>
        <time>2016-05-15T07:38:34.000Z</time>
      </trkpt>
      <trkpt lat="47.4912" lon="6.76674">
        <ele>314</ele>
        <time>2016-05-15T07:38:35.000Z</time>
      </trkpt>
      <trkpt lat="47.49118" lon="6.76682">
        <ele>313</ele>
        <time>2016-05-15T07:38:36.000Z</time>
      </trkpt>
      <trkpt lat="47.49125" lon="6.76687">
        <ele>313</ele>
        <time>2016-05-15T07:38:37.000Z</time>
      </trkpt>
      <trkpt lat="47.49126" lon="6.76694">
        <ele>313</ele>
        <time>2016-05-15T07:38:38.000Z</time>
      </trkpt>
      <trkpt lat="47.49127" lon="6.76701">
        <ele>313</ele>
        <time>2016-05-15T07:38:39.000Z</time>
      </trkpt>
      <trkpt lat="47.49129" lon="6.76707">
        <ele>313</ele>
        <time>2016-05-15T07:38:40.000Z</time>
      </trkpt>
      <trkpt lat="47.49131" lon="6.76714">
        <ele>313</ele>
        <time>2016-05-15T07:38:41.000Z</time>
      </trkpt>
      <trkpt lat="47.49128" lon="6.76722">
        <ele>313</ele>
        <time>2016-05-15T07:38:42.000Z</time>
      </trkpt>
      <trkpt lat="47.49129" lon="6.76728">
        <ele>313</ele>
        <time>2016-05-15T07:38:43.000Z</time>
      </trkpt>
      <trkpt lat="47.49131" lon="6.76735">
        <ele>313</ele>
        <time>2016-05-15T07:38:44.000Z</time>
      </trkpt>
      <trkpt lat="47.49131" lon="6.76743">
        <ele>313</ele>
        <time>2016-05-15T07:38:45.000Z</time>
      </trkpt>
      <trkpt lat="47.49132" lon="6.76751">
        <ele>312</ele>
        <time>2016-05-15T07:38:46.000Z</time>
      </trkpt>
      <trkpt lat="47.49134" lon="6.76757">
        <ele>312</ele>
        <time>2016-05-15T07:38:47.000Z</time>
      </trkpt>
      <trkpt lat="47.49134" lon="6.76765">
        <ele>312</ele>
        <time>2016-05-15T07:38:48.000Z</time>
      </trkpt>
      <trkpt lat="47.49135" lon="6.76771">
        <ele>312</ele>
        <time>2016-05-15T07:38:49.000Z</time>
      </trkpt>
      <trkpt lat="47.49135" lon="6.76778">
        <ele>312</ele>
        <time>2016-05-15T07:38:50.000Z</time>
      </trkpt>
      <trkpt lat="47.49136" lon="6.76784">
        <ele>312</ele>
        <time>2016-05-15T07:38:51.000Z</time>
      </trkpt>
      <trkpt lat="47.49138" lon="6.76791">
        <ele>312</ele>
        <time>2016-05-15T07:38:52.000Z</time>
      </trkpt>
      <trkpt lat="47.49139" lon="6.76798">
        <ele>312</ele>
        <time>2016-05-15T07:38:53.000Z</time>
      </trkpt>
      <trkpt lat="47.49139" lon="6.76804">
        <ele>312</ele>
        <time>2016-05-15T07:38:54.000Z</time>
      </trkpt>
      <trkpt lat="47.49139" lon="6.7681">
        <ele>312</ele>
        <time>2016-05-15T07:38:55.000Z</time>
      </trkpt>
      <trkpt lat="47.49139" lon="6.76816">
        <ele>312</ele>
        <time>2016-05-15T07:38:56.000Z</time>
      </trkpt>
      <trkpt lat="47.49142" lon="6.76823">
        <ele>312</ele>
        <time>2016-05-15T07:38:57.000Z</time>
      </trkpt>
      <trkpt lat="47.49143" lon="6.7683">
        <ele>312</ele>
        <time>2016-05-15T07:38:58.000Z</time>
      </trkpt>
      <trkpt lat="47.49143" lon="6.76838">
        <ele>312</ele>
        <time>2016-05-15T07:38:59.000Z</time>
      </trkpt>
      <trkpt lat="47.49145" lon="6.76844">
        <ele>312</ele>
        <time>2016-05-15T07:39:00.000Z</time>
      </trkpt>
      <trkpt lat="47.49145" lon="6.7685">
        <ele>312</ele>
        <time>2016-05-15T07:39:01.000Z</time>
      </trkpt>
      <trkpt lat="47.49145" lon="6.76857">
        <ele>312</ele>
        <time>2016-05-15T07:39:02.000Z</time>
      </trkpt>
      <trkpt lat="47.49146" lon="6.76865">
        <ele>312</ele>
        <time>2016-05-15T07:39:03.000Z</time>
      </trkpt>
      <trkpt lat="47.49146" lon="6.76872">
        <ele>312</ele>
        <time>2016-05-15T07:39:04.000Z</time>
      </trkpt>
      <trkpt lat="47.49148" lon="6.76878">
        <ele>312</ele>
        <time>2016-05-15T07:39:05.000Z</time>
      </trkpt>
      <trkpt lat="47.49148" lon="6.76884">
        <ele>312</ele>
        <time>2016-05-15T07:39:06.000Z</time>
      </trkpt>
      <trkpt lat="47.49149" lon="6.7689">
        <ele>312</ele>
        <time>2016-05-15T07:39:07.000Z</time>
      </trkpt>
      <trkpt lat="47.49149" lon="6.76897">
        <ele>312</ele>
        <time>2016-05-15T07:39:08.000Z</time>
      </trkpt>
      <trkpt lat="47.49148" lon="6.76904">
        <ele>312</ele>
        <time>2016-05-15T07:39:09.000Z</time>
      </trkpt>
      <trkpt lat="47.49147" lon="6.76911">
        <ele>312</ele>
        <time>2016-05-15T07:39:10.000Z</time>
      </trkpt>
      <trkpt lat="47.49145" lon="6.76918">
        <ele>312</ele>
        <time>2016-05-15T07:39:11.000Z</time>
      </trkpt>
      <trkpt lat="47.49145" lon="6.76925">
        <ele>312</ele>
        <time>2016-05-15T07:39:12.000Z</time>
      </trkpt>
      <trkpt lat="47.49147" lon="6.76932">
        <ele>312</ele>
        <time>2016-05-15T07:39:13.000Z</time>
      </trkpt>
      <trkpt lat="47.49147" lon="6.76938">
        <ele>312</ele>
        <time>2016-05-15T07:39:14.000Z</time>
      </trkpt>
      <trkpt lat="47.49147" lon="6.76943">
        <ele>312</ele>
        <time>2016-05-15T07:39:15.000Z</time>
      </trkpt>
      <trkpt lat="47.49147" lon="6.76949">
        <ele>312</ele>
        <time>2016-05-15T07:39:16.000Z</time>
      </trkpt>
      <trkpt lat="47.49148" lon="6.76953">
        <ele>312</ele>
        <time>2016-05-15T07:39:17.000Z</time>
      </trkpt>
      <trkpt lat="47.49146" lon="6.76953">
        <ele>312</ele>
        <time>2016-05-15T07:39:19.000Z</time>
      </trkpt>
      <trkpt lat="47.49144" lon="6.76955">
        <ele>312</ele>
        <time>2016-05-15T07:39:20.000Z</time>
      </trkpt>
      <trkpt lat="47.49144" lon="6.7696">
        <ele>312</ele>
        <time>2016-05-15T07:39:21.000Z</time>
      </trkpt>
      <trkpt lat="47.49149" lon="6.76967">
        <ele>312</ele>
        <time>2016-05-15T07:39:22.000Z</time>
      </trkpt>
      <trkpt lat="47.49151" lon="6.76972">
        <ele>312</ele>
        <time>2016-05-15T07:39:24.000Z</time>
      </trkpt>
      <trkpt lat="47.49154" lon="6.76974">
        <ele>312</ele>
        <time>2016-05-15T07:39:25.000Z</time>
      </trkpt>
      <trkpt lat="47.49156" lon="6.76976">
        <ele>312</ele>
        <time>2016-05-15T07:39:26.000Z</time>
      </trkpt>
      <trkpt lat="47.49162" lon="6.76987">
        <ele>312</ele>
        <time>2016-05-15T07:39:27.000Z</time>
      </trkpt>
      <trkpt lat="47.49162" lon="6.76994">
        <ele>312</ele>
        <time>2016-05-15T07:39:28.000Z</time>
      </trkpt>
      <trkpt lat="47.49164" lon="6.77002">
        <ele>312</ele>
        <time>2016-05-15T07:39:29.000Z</time>
      </trkpt>
      <trkpt lat="47.49166" lon="6.77009">
        <ele>312</ele>
        <time>2016-05-15T07:39:30.000Z</time>
      </trkpt>
      <trkpt lat="47.49167" lon="6.77015">
        <ele>312</ele>
        <time>2016-05-15T07:39:31.000Z</time>
      </trkpt>
      <trkpt lat="47.49168" lon="6.77025">
        <ele>313</ele>
        <time>2016-05-15T07:39:32.000Z</time>
      </trkpt>
      <trkpt lat="47.49169" lon="6.77032">
        <ele>313</ele>
        <time>2016-05-15T07:39:33.000Z</time>
      </trkpt>
      <trkpt lat="47.4917" lon="6.7704">
        <ele>313</ele>
        <time>2016-05-15T07:39:34.000Z</time>
      </trkpt>
      <trkpt lat="47.49171" lon="6.77047">
        <ele>313</ele>
        <time>2016-05-15T07:39:35.000Z</time>
      </trkpt>
      <trkpt lat="47.49171" lon="6.77054">
        <ele>313</ele>
        <time>2016-05-15T07:39:36.000Z</time>
      </trkpt>
      <trkpt lat="47.49173" lon="6.77066">
        <ele>313</ele>
        <time>2016-05-15T07:39:37.000Z</time>
      </trkpt>
      <trkpt lat="47.49177" lon="6.77074">
        <ele>312</ele>
        <time>2016-05-15T07:39:38.000Z</time>
      </trkpt>
      <trkpt lat="47.4918" lon="6.77086">
        <ele>312</ele>
        <time>2016-05-15T07:39:39.000Z</time>
      </trkpt>
      <trkpt lat="47.4918" lon="6.77093">
        <ele>312</ele>
        <time>2016-05-15T07:39:40.000Z</time>
      </trkpt>
      <trkpt lat="47.49182" lon="6.77101">
        <ele>312</ele>
        <time>2016-05-15T07:39:41.000Z</time>
      </trkpt>
      <trkpt lat="47.49182" lon="6.77109">
        <ele>313</ele>
        <time>2016-05-15T07:39:42.000Z</time>
      </trkpt>
      <trkpt lat="47.49184" lon="6.77114">
        <ele>313</ele>
        <time>2016-05-15T07:39:43.000Z</time>
      </trkpt>
      <trkpt lat="47.49185" lon="6.77119">
        <ele>313</ele>
        <time>2016-05-15T07:39:44.000Z</time>
      </trkpt>
      <trkpt lat="47.49185" lon="6.77122">
        <ele>313</ele>
        <time>2016-05-15T07:39:45.000Z</time>
      </trkpt>
      <trkpt lat="47.49186" lon="6.77126">
        <ele>313</ele>
        <time>2016-05-15T07:39:46.000Z</time>
      </trkpt>
      <trkpt lat="47.49188" lon="6.77132">
        <ele>313</ele>
        <time>2016-05-15T07:39:47.000Z</time>
      </trkpt>
      <trkpt lat="47.4919" lon="6.77137">
        <ele>313</ele>
        <time>2016-05-15T07:39:48.000Z</time>
      </trkpt>
      <trkpt lat="47.49191" lon="6.77142">
        <ele>313</ele>
        <time>2016-05-15T07:39:49.000Z</time>
      </trkpt>
      <trkpt lat="47.49193" lon="6.77148">
        <ele>313</ele>
        <time>2016-05-15T07:39:50.000Z</time>
      </trkpt>
      <trkpt lat="47.49193" lon="6.77154">
        <ele>313</ele>
        <time>2016-05-15T07:39:51.000Z</time>
      </trkpt>
      <trkpt lat="47.49194" lon="6.7716">
        <ele>313</ele>
        <time>2016-05-15T07:39:52.000Z</time>
      </trkpt>
      <trkpt lat="47.49194" lon="6.77166">
        <ele>313</ele>
        <time>2016-05-15T07:39:53.000Z</time>
      </trkpt>
      <trkpt lat="47.49194" lon="6.77173">
        <ele>313</ele>
        <time>2016-05-15T07:39:54.000Z</time>
      </trkpt>
      <trkpt lat="47.49195" lon="6.77179">
        <ele>313</ele>
        <time>2016-05-15T07:39:55.000Z</time>
      </trkpt>
      <trkpt lat="47.49195" lon="6.77185">
        <ele>312</ele>
        <time>2016-05-15T07:39:56.000Z</time>
      </trkpt>
      <trkpt lat="47.49195" lon="6.77192">
        <ele>312</ele>
        <time>2016-05-15T07:39:57.000Z</time>
      </trkpt>
      <trkpt lat="47.49195" lon="6.77198">
        <ele>312</ele>
        <time>2016-05-15T07:39:58.000Z</time>
      </trkpt>
      <trkpt lat="47.4919" lon="6.77207">
        <ele>312</ele>
        <time>2016-05-15T07:39:59.000Z</time>
      </trkpt>
      <trkpt lat="47.49191" lon="6.77214">
        <ele>312</ele>
        <time>2016-05-15T07:40:00.000Z</time>
      </trkpt>
      <trkpt lat="47.4919" lon="6.7722">
        <ele>312</ele>
        <time>2016-05-15T07:40:01.000Z</time>
      </trkpt>
      <trkpt lat="47.4919" lon="6.77226">
        <ele>312</ele>
        <time>2016-05-15T07:40:02.000Z</time>
      </trkpt>
      <trkpt lat="47.49191" lon="6.7723">
        <ele>312</ele>
        <time>2016-05-15T07:40:03.000Z</time>
      </trkpt>
      <trkpt lat="47.49191" lon="6.77235">
        <ele>312</ele>
        <time>2016-05-15T07:40:04.000Z</time>
      </trkpt>
      <trkpt lat="47.49191" lon="6.7724">
        <ele>312</ele>
        <time>2016-05-15T07:40:05.000Z</time>
      </trkpt>
      <trkpt lat="47.49192" lon="6.77245">
        <ele>312</ele>
        <time>2016-05-15T07:40:06.000Z</time>
      </trkpt>
      <trkpt lat="47.4919" lon="6.77253">
        <ele>311</ele>
        <time>2016-05-15T07:40:07.000Z</time>
      </trkpt>
      <trkpt lat="47.4919" lon="6.77261">
        <ele>311</ele>
        <time>2016-05-15T07:40:08.000Z</time>
      </trkpt>
      <trkpt lat="47.4919" lon="6.77268">
        <ele>311</ele>
        <time>2016-05-15T07:40:09.000Z</time>
      </trkpt>
      <trkpt lat="47.4919" lon="6.77276">
        <ele>311</ele>
        <time>2016-05-15T07:40:10.000Z</time>
      </trkpt>
      <trkpt lat="47.49189" lon="6.77283">
        <ele>311</ele>
        <time>2016-05-15T07:40:11.000Z</time>
      </trkpt>
      <trkpt lat="47.49188" lon="6.77293">
        <ele>311</ele>
        <time>2016-05-15T07:40:12.000Z</time>
      </trkpt>
      <trkpt lat="47.49188" lon="6.77302">
        <ele>311</ele>
        <time>2016-05-15T07:40:13.000Z</time>
      </trkpt>
      <trkpt lat="47.49188" lon="6.7731">
        <ele>311</ele>
        <time>2016-05-15T07:40:14.000Z</time>
      </trkpt>
      <trkpt lat="47.49186" lon="6.77319">
        <ele>310</ele>
        <time>2016-05-15T07:40:15.000Z</time>
      </trkpt>
      <trkpt lat="47.49182" lon="6.77326">
        <ele>310</ele>
        <time>2016-05-15T07:40:16.000Z</time>
      </trkpt>
      <trkpt lat="47.49181" lon="6.77332">
        <ele>310</ele>
        <time>2016-05-15T07:40:17.000Z</time>
      </trkpt>
      <trkpt lat="47.49179" lon="6.77335">
        <ele>310</ele>
        <time>2016-05-15T07:40:18.000Z</time>
      </trkpt>
      <trkpt lat="47.49176" lon="6.77336">
        <ele>310</ele>
        <time>2016-05-15T07:40:19.000Z</time>
      </trkpt>
      <trkpt lat="47.4917" lon="6.77336">
        <ele>310</ele>
        <time>2016-05-15T07:40:20.000Z</time>
      </trkpt>
      <trkpt lat="47.49165" lon="6.77336">
        <ele>310</ele>
        <time>2016-05-15T07:40:21.000Z</time>
      </trkpt>
      <trkpt lat="47.49158" lon="6.77336">
        <ele>310</ele>
        <time>2016-05-15T07:40:22.000Z</time>
      </trkpt>
      <trkpt lat="47.49153" lon="6.77336">
        <ele>310</ele>
        <time>2016-05-15T07:40:23.000Z</time>
      </trkpt>
      <trkpt lat="47.49147" lon="6.77336">
        <ele>310</ele>
        <time>2016-05-15T07:40:24.000Z</time>
      </trkpt>
      <trkpt lat="47.49141" lon="6.77336">
        <ele>310</ele>
        <time>2016-05-15T07:40:25.000Z</time>
      </trkpt>
      <trkpt lat="47.49135" lon="6.77336">
        <ele>310</ele>
        <time>2016-05-15T07:40:26.000Z</time>
      </trkpt>
      <trkpt lat="47.49131" lon="6.77336">
        <ele>310</ele>
        <time>2016-05-15T07:40:27.000Z</time>
      </trkpt>
      <trkpt lat="47.49126" lon="6.77336">
        <ele>310</ele>
        <time>2016-05-15T07:40:28.000Z</time>
      </trkpt>
      <trkpt lat="47.49121" lon="6.77336">
        <ele>310</ele>
        <time>2016-05-15T07:40:29.000Z</time>
      </trkpt>
      <trkpt lat="47.49115" lon="6.77335">
        <ele>310</ele>
        <time>2016-05-15T07:40:30.000Z</time>
      </trkpt>
      <trkpt lat="47.49112" lon="6.77337">
        <ele>310</ele>
        <time>2016-05-15T07:40:31.000Z</time>
      </trkpt>
      <trkpt lat="47.49108" lon="6.77338">
        <ele>310</ele>
        <time>2016-05-15T07:40:32.000Z</time>
      </trkpt>
      <trkpt lat="47.49101" lon="6.77336">
        <ele>310</ele>
        <time>2016-05-15T07:40:33.000Z</time>
      </trkpt>
      <trkpt lat="47.49095" lon="6.77334">
        <ele>311</ele>
        <time>2016-05-15T07:40:34.000Z</time>
      </trkpt>
      <trkpt lat="47.49089" lon="6.77334">
        <ele>311</ele>
        <time>2016-05-15T07:40:35.000Z</time>
      </trkpt>
      <trkpt lat="47.49084" lon="6.77334">
        <ele>311</ele>
        <time>2016-05-15T07:40:36.000Z</time>
      </trkpt>
      <trkpt lat="47.49078" lon="6.77334">
        <ele>311</ele>
        <time>2016-05-15T07:40:37.000Z</time>
      </trkpt>
      <trkpt lat="47.49072" lon="6.77334">
        <ele>311</ele>
        <time>2016-05-15T07:40:38.000Z</time>
      </trkpt>
      <trkpt lat="47.49065" lon="6.77332">
        <ele>311</ele>
        <time>2016-05-15T07:40:39.000Z</time>
      </trkpt>
      <trkpt lat="47.49061" lon="6.77333">
        <ele>311</ele>
        <time>2016-05-15T07:40:40.000Z</time>
      </trkpt>
      <trkpt lat="47.49054" lon="6.77331">
        <ele>311</ele>
        <time>2016-05-15T07:40:41.000Z</time>
      </trkpt>
      <trkpt lat="47.4905" lon="6.77331">
        <ele>311</ele>
        <time>2016-05-15T07:40:42.000Z</time>
      </trkpt>
      <trkpt lat="47.49045" lon="6.77331">
        <ele>311</ele>
        <time>2016-05-15T07:40:43.000Z</time>
      </trkpt>
      <trkpt lat="47.49038" lon="6.7733">
        <ele>311</ele>
        <time>2016-05-15T07:40:44.000Z</time>
      </trkpt>
      <trkpt lat="47.49032" lon="6.77331">
        <ele>311</ele>
        <time>2016-05-15T07:40:45.000Z</time>
      </trkpt>
      <trkpt lat="47.49028" lon="6.77333">
        <ele>311</ele>
        <time>2016-05-15T07:40:46.000Z</time>
      </trkpt>
      <trkpt lat="47.49023" lon="6.77333">
        <ele>311</ele>
        <time>2016-05-15T07:40:47.000Z</time>
      </trkpt>
      <trkpt lat="47.49017" lon="6.77334">
        <ele>311</ele>
        <time>2016-05-15T07:40:48.000Z</time>
      </trkpt>
      <trkpt lat="47.49013" lon="6.77337">
        <ele>311</ele>
        <time>2016-05-15T07:40:49.000Z</time>
      </trkpt>
      <trkpt lat="47.49004" lon="6.77338">
        <ele>311</ele>
        <time>2016-05-15T07:40:50.000Z</time>
      </trkpt>
      <trkpt lat="47.48995" lon="6.77337">
        <ele>311</ele>
        <time>2016-05-15T07:40:51.000Z</time>
      </trkpt>
      <trkpt lat="47.48989" lon="6.77336">
        <ele>311</ele>
        <time>2016-05-15T07:40:52.000Z</time>
      </trkpt>
      <trkpt lat="47.48982" lon="6.77337">
        <ele>311</ele>
        <time>2016-05-15T07:40:53.000Z</time>
      </trkpt>
      <trkpt lat="47.48977" lon="6.77335">
        <ele>311</ele>
        <time>2016-05-15T07:40:54.000Z</time>
      </trkpt>
      <trkpt lat="47.48971" lon="6.77333">
        <ele>311</ele>
        <time>2016-05-15T07:40:55.000Z</time>
      </trkpt>
      <trkpt lat="47.48965" lon="6.77332">
        <ele>311</ele>
        <time>2016-05-15T07:40:56.000Z</time>
      </trkpt>
      <trkpt lat="47.4896" lon="6.7733">
        <ele>311</ele>
        <time>2016-05-15T07:40:57.000Z</time>
      </trkpt>
      <trkpt lat="47.48953" lon="6.77329">
        <ele>311</ele>
        <time>2016-05-15T07:40:58.000Z</time>
      </trkpt>
      <trkpt lat="47.48948" lon="6.77327">
        <ele>311</ele>
        <time>2016-05-15T07:40:59.000Z</time>
      </trkpt>
      <trkpt lat="47.48942" lon="6.77325">
        <ele>311</ele>
        <time>2016-05-15T07:41:00.000Z</time>
      </trkpt>
      <trkpt lat="47.48937" lon="6.77323">
        <ele>310</ele>
        <time>2016-05-15T07:41:01.000Z</time>
      </trkpt>
      <trkpt lat="47.48931" lon="6.77321">
        <ele>310</ele>
        <time>2016-05-15T07:41:02.000Z</time>
      </trkpt>
      <trkpt lat="47.48925" lon="6.77318">
        <ele>310</ele>
        <time>2016-05-15T07:41:03.000Z</time>
      </trkpt>
      <trkpt lat="47.48919" lon="6.77316">
        <ele>310</ele>
        <time>2016-05-15T07:41:04.000Z</time>
      </trkpt>
      <trkpt lat="47.48914" lon="6.77313">
        <ele>310</ele>
        <time>2016-05-15T07:41:05.000Z</time>
      </trkpt>
      <trkpt lat="47.48908" lon="6.7731">
        <ele>310</ele>
        <time>2016-05-15T07:41:06.000Z</time>
      </trkpt>
      <trkpt lat="47.48903" lon="6.77308">
        <ele>310</ele>
        <time>2016-05-15T07:41:07.000Z</time>
      </trkpt>
      <trkpt lat="47.48897" lon="6.77305">
        <ele>310</ele>
        <time>2016-05-15T07:41:08.000Z</time>
      </trkpt>
      <trkpt lat="47.48891" lon="6.77302">
        <ele>310</ele>
        <time>2016-05-15T07:41:09.000Z</time>
      </trkpt>
      <trkpt lat="47.48886" lon="6.773">
        <ele>310</ele>
        <time>2016-05-15T07:41:10.000Z</time>
      </trkpt>
      <trkpt lat="47.4888" lon="6.77298">
        <ele>310</ele>
        <time>2016-05-15T07:41:11.000Z</time>
      </trkpt>
      <trkpt lat="47.48874" lon="6.77297">
        <ele>310</ele>
        <time>2016-05-15T07:41:12.000Z</time>
      </trkpt>
      <trkpt lat="47.4887" lon="6.77295">
        <ele>310</ele>
        <time>2016-05-15T07:41:13.000Z</time>
      </trkpt>
      <trkpt lat="47.48865" lon="6.77293">
        <ele>310</ele>
        <time>2016-05-15T07:41:14.000Z</time>
      </trkpt>
      <trkpt lat="47.48859" lon="6.7729">
        <ele>310</ele>
        <time>2016-05-15T07:41:15.000Z</time>
      </trkpt>
      <trkpt lat="47.48854" lon="6.77287">
        <ele>310</ele>
        <time>2016-05-15T07:41:16.000Z</time>
      </trkpt>
      <trkpt lat="47.48849" lon="6.77285">
        <ele>310</ele>
        <time>2016-05-15T07:41:17.000Z</time>
      </trkpt>
      <trkpt lat="47.48844" lon="6.77283">
        <ele>310</ele>
        <time>2016-05-15T07:41:18.000Z</time>
      </trkpt>
      <trkpt lat="47.48839" lon="6.7728">
        <ele>310</ele>
        <time>2016-05-15T07:41:19.000Z</time>
      </trkpt>
      <trkpt lat="47.48834" lon="6.77277">
        <ele>310</ele>
        <time>2016-05-15T07:41:20.000Z</time>
      </trkpt>
      <trkpt lat="47.48829" lon="6.77273">
        <ele>310</ele>
        <time>2016-05-15T07:41:21.000Z</time>
      </trkpt>
      <trkpt lat="47.48824" lon="6.7727">
        <ele>310</ele>
        <time>2016-05-15T07:41:22.000Z</time>
      </trkpt>
      <trkpt lat="47.48819" lon="6.77266">
        <ele>310</ele>
        <time>2016-05-15T07:41:23.000Z</time>
      </trkpt>
      <trkpt lat="47.48814" lon="6.77262">
        <ele>310</ele>
        <time>2016-05-15T07:41:24.000Z</time>
      </trkpt>
      <trkpt lat="47.48808" lon="6.77257">
        <ele>310</ele>
        <time>2016-05-15T07:41:25.000Z</time>
      </trkpt>
      <trkpt lat="47.48803" lon="6.77252">
        <ele>310</ele>
        <time>2016-05-15T07:41:26.000Z</time>
      </trkpt>
      <trkpt lat="47.48798" lon="6.77249">
        <ele>310</ele>
        <time>2016-05-15T07:41:27.000Z</time>
      </trkpt>
      <trkpt lat="47.48792" lon="6.77245">
        <ele>310</ele>
        <time>2016-05-15T07:41:28.000Z</time>
      </trkpt>
      <trkpt lat="47.48787" lon="6.77244">
        <ele>310</ele>
        <time>2016-05-15T07:41:29.000Z</time>
      </trkpt>
      <trkpt lat="47.48782" lon="6.77241">
        <ele>310</ele>
        <time>2016-05-15T07:41:30.000Z</time>
      </trkpt>
      <trkpt lat="47.48777" lon="6.77237">
        <ele>310</ele>
        <time>2016-05-15T07:41:31.000Z</time>
      </trkpt>
      <trkpt lat="47.48771" lon="6.77234">
        <ele>310</ele>
        <time>2016-05-15T07:41:32.000Z</time>
      </trkpt>
      <trkpt lat="47.48767" lon="6.7723">
        <ele>310</ele>
        <time>2016-05-15T07:41:33.000Z</time>
      </trkpt>
      <trkpt lat="47.48762" lon="6.77227">
        <ele>310</ele>
        <time>2016-05-15T07:41:34.000Z</time>
      </trkpt>
      <trkpt lat="47.48757" lon="6.77223">
        <ele>310</ele>
        <time>2016-05-15T07:41:35.000Z</time>
      </trkpt>
      <trkpt lat="47.48753" lon="6.77219">
        <ele>310</ele>
        <time>2016-05-15T07:41:36.000Z</time>
      </trkpt>
      <trkpt lat="47.48749" lon="6.77214">
        <ele>310</ele>
        <time>2016-05-15T07:41:37.000Z</time>
      </trkpt>
      <trkpt lat="47.48743" lon="6.7721">
        <ele>310</ele>
        <time>2016-05-15T07:41:38.000Z</time>
      </trkpt>
      <trkpt lat="47.48738" lon="6.77207">
        <ele>310</ele>
        <time>2016-05-15T07:41:39.000Z</time>
      </trkpt>
      <trkpt lat="47.48733" lon="6.77203">
        <ele>310</ele>
        <time>2016-05-15T07:41:40.000Z</time>
      </trkpt>
      <trkpt lat="47.48728" lon="6.77199">
        <ele>310</ele>
        <time>2016-05-15T07:41:41.000Z</time>
      </trkpt>
      <trkpt lat="47.48723" lon="6.77195">
        <ele>310</ele>
        <time>2016-05-15T07:41:42.000Z</time>
      </trkpt>
      <trkpt lat="47.48718" lon="6.77191">
        <ele>310</ele>
        <time>2016-05-15T07:41:43.000Z</time>
      </trkpt>
      <trkpt lat="47.48713" lon="6.77188">
        <ele>310</ele>
        <time>2016-05-15T07:41:44.000Z</time>
      </trkpt>
      <trkpt lat="47.48708" lon="6.77184">
        <ele>310</ele>
        <time>2016-05-15T07:41:45.000Z</time>
      </trkpt>
      <trkpt lat="47.48704" lon="6.77179">
        <ele>310</ele>
        <time>2016-05-15T07:41:46.000Z</time>
      </trkpt>
      <trkpt lat="47.48697" lon="6.77172">
        <ele>311</ele>
        <time>2016-05-15T07:41:47.000Z</time>
      </trkpt>
      <trkpt lat="47.48692" lon="6.77167">
        <ele>311</ele>
        <time>2016-05-15T07:41:48.000Z</time>
      </trkpt>
      <trkpt lat="47.48688" lon="6.77162">
        <ele>311</ele>
        <time>2016-05-15T07:41:49.000Z</time>
      </trkpt>
      <trkpt lat="47.48683" lon="6.77158">
        <ele>311</ele>
        <time>2016-05-15T07:41:50.000Z</time>
      </trkpt>
      <trkpt lat="47.48678" lon="6.77154">
        <ele>311</ele>
        <time>2016-05-15T07:41:51.000Z</time>
      </trkpt>
      <trkpt lat="47.48674" lon="6.77149">
        <ele>311</ele>
        <time>2016-05-15T07:41:52.000Z</time>
      </trkpt>
      <trkpt lat="47.48669" lon="6.77144">
        <ele>311</ele>
        <time>2016-05-15T07:41:53.000Z</time>
      </trkpt>
      <trkpt lat="47.48665" lon="6.77138">
        <ele>312</ele>
        <time>2016-05-15T07:41:54.000Z</time>
      </trkpt>
      <trkpt lat="47.48659" lon="6.77134">
        <ele>312</ele>
        <time>2016-05-15T07:41:55.000Z</time>
      </trkpt>
      <trkpt lat="47.48654" lon="6.77129">
        <ele>312</ele>
        <time>2016-05-15T07:41:56.000Z</time>
      </trkpt>
      <trkpt lat="47.48649" lon="6.77123">
        <ele>312</ele>
        <time>2016-05-15T07:41:57.000Z</time>
      </trkpt>
      <trkpt lat="47.48646" lon="6.77117">
        <ele>312</ele>
        <time>2016-05-15T07:41:58.000Z</time>
      </trkpt>
      <trkpt lat="47.48642" lon="6.77112">
        <ele>312</ele>
        <time>2016-05-15T07:41:59.000Z</time>
      </trkpt>
      <trkpt lat="47.48637" lon="6.77107">
        <ele>312</ele>
        <time>2016-05-15T07:42:00.000Z</time>
      </trkpt>
      <trkpt lat="47.48633" lon="6.77101">
        <ele>312</ele>
        <time>2016-05-15T07:42:01.000Z</time>
      </trkpt>
      <trkpt lat="47.4863" lon="6.77098">
        <ele>312</ele>
        <time>2016-05-15T07:42:02.000Z</time>
      </trkpt>
      <trkpt lat="47.48626" lon="6.77094">
        <ele>312</ele>
        <time>2016-05-15T07:42:03.000Z</time>
      </trkpt>
      <trkpt lat="47.48621" lon="6.77092">
        <ele>312</ele>
        <time>2016-05-15T07:42:04.000Z</time>
      </trkpt>
      <trkpt lat="47.48616" lon="6.77089">
        <ele>312</ele>
        <time>2016-05-15T07:42:05.000Z</time>
      </trkpt>
      <trkpt lat="47.48612" lon="6.77086">
        <ele>312</ele>
        <time>2016-05-15T07:42:06.000Z</time>
      </trkpt>
      <trkpt lat="47.48607" lon="6.77083">
        <ele>313</ele>
        <time>2016-05-15T07:42:07.000Z</time>
      </trkpt>
      <trkpt lat="47.48602" lon="6.77079">
        <ele>313</ele>
        <time>2016-05-15T07:42:08.000Z</time>
      </trkpt>
      <trkpt lat="47.48597" lon="6.77073">
        <ele>313</ele>
        <time>2016-05-15T07:42:09.000Z</time>
      </trkpt>
      <trkpt lat="47.48592" lon="6.77069">
        <ele>313</ele>
        <time>2016-05-15T07:42:10.000Z</time>
      </trkpt>
      <trkpt lat="47.48586" lon="6.77067">
        <ele>313</ele>
        <time>2016-05-15T07:42:11.000Z</time>
      </trkpt>
      <trkpt lat="47.48581" lon="6.77065">
        <ele>314</ele>
        <time>2016-05-15T07:42:12.000Z</time>
      </trkpt>
      <trkpt lat="47.48576" lon="6.77062">
        <ele>314</ele>
        <time>2016-05-15T07:42:13.000Z</time>
      </trkpt>
      <trkpt lat="47.48572" lon="6.77057">
        <ele>314</ele>
        <time>2016-05-15T07:42:14.000Z</time>
      </trkpt>
      <trkpt lat="47.48567" lon="6.77056">
        <ele>314</ele>
        <time>2016-05-15T07:42:15.000Z</time>
      </trkpt>
      <trkpt lat="47.48562" lon="6.77054">
        <ele>314</ele>
        <time>2016-05-15T07:42:16.000Z</time>
      </trkpt>
      <trkpt lat="47.48557" lon="6.77052">
        <ele>314</ele>
        <time>2016-05-15T07:42:17.000Z</time>
      </trkpt>
      <trkpt lat="47.48552" lon="6.7705">
        <ele>314</ele>
        <time>2016-05-15T07:42:18.000Z</time>
      </trkpt>
      <trkpt lat="47.48548" lon="6.77048">
        <ele>314</ele>
        <time>2016-05-15T07:42:19.000Z</time>
      </trkpt>
      <trkpt lat="47.48543" lon="6.77046">
        <ele>314</ele>
        <time>2016-05-15T07:42:20.000Z</time>
      </trkpt>
      <trkpt lat="47.48538" lon="6.77043">
        <ele>314</ele>
        <time>2016-05-15T07:42:21.000Z</time>
      </trkpt>
      <trkpt lat="47.48532" lon="6.77041">
        <ele>314</ele>
        <time>2016-05-15T07:42:22.000Z</time>
      </trkpt>
      <trkpt lat="47.48526" lon="6.77035">
        <ele>314</ele>
        <time>2016-05-15T07:42:23.000Z</time>
      </trkpt>
      <trkpt lat="47.4852" lon="6.77031">
        <ele>314</ele>
        <time>2016-05-15T07:42:24.000Z</time>
      </trkpt>
      <trkpt lat="47.48516" lon="6.77026">
        <ele>314</ele>
        <time>2016-05-15T07:42:25.000Z</time>
      </trkpt>
      <trkpt lat="47.4851" lon="6.77023">
        <ele>315</ele>
        <time>2016-05-15T07:42:26.000Z</time>
      </trkpt>
      <trkpt lat="47.48506" lon="6.77019">
        <ele>315</ele>
        <time>2016-05-15T07:42:27.000Z</time>
      </trkpt>
      <trkpt lat="47.48499" lon="6.77015">
        <ele>315</ele>
        <time>2016-05-15T07:42:28.000Z</time>
      </trkpt>
      <trkpt lat="47.48492" lon="6.77012">
        <ele>315</ele>
        <time>2016-05-15T07:42:29.000Z</time>
      </trkpt>
      <trkpt lat="47.48486" lon="6.7701">
        <ele>315</ele>
        <time>2016-05-15T07:42:30.000Z</time>
      </trkpt>
      <trkpt lat="47.48481" lon="6.77006">
        <ele>315</ele>
        <time>2016-05-15T07:42:31.000Z</time>
      </trkpt>
      <trkpt lat="47.48476" lon="6.77003">
        <ele>314</ele>
        <time>2016-05-15T07:42:32.000Z</time>
      </trkpt>
      <trkpt lat="47.4847" lon="6.77">
        <ele>314</ele>
        <time>2016-05-15T07:42:33.000Z</time>
      </trkpt>
      <trkpt lat="47.48465" lon="6.76996">
        <ele>315</ele>
        <time>2016-05-15T07:42:34.000Z</time>
      </trkpt>
      <trkpt lat="47.48459" lon="6.76993">
        <ele>315</ele>
        <time>2016-05-15T07:42:35.000Z</time>
      </trkpt>
      <trkpt lat="47.48453" lon="6.7699">
        <ele>315</ele>
        <time>2016-05-15T07:42:36.000Z</time>
      </trkpt>
      <trkpt lat="47.48448" lon="6.76986">
        <ele>315</ele>
        <time>2016-05-15T07:42:37.000Z</time>
      </trkpt>
      <trkpt lat="47.48443" lon="6.76982">
        <ele>314</ele>
        <time>2016-05-15T07:42:38.000Z</time>
      </trkpt>
      <trkpt lat="47.48438" lon="6.76978">
        <ele>314</ele>
        <time>2016-05-15T07:42:39.000Z</time>
      </trkpt>
      <trkpt lat="47.48432" lon="6.76978">
        <ele>314</ele>
        <time>2016-05-15T07:42:40.000Z</time>
      </trkpt>
      <trkpt lat="47.48427" lon="6.76977">
        <ele>314</ele>
        <time>2016-05-15T07:42:41.000Z</time>
      </trkpt>
      <trkpt lat="47.48421" lon="6.76969">
        <ele>314</ele>
        <time>2016-05-15T07:42:42.000Z</time>
      </trkpt>
      <trkpt lat="47.48415" lon="6.76969">
        <ele>312</ele>
        <time>2016-05-15T07:42:43.000Z</time>
      </trkpt>
      <trkpt lat="47.4841" lon="6.76966">
        <ele>312</ele>
        <time>2016-05-15T07:42:44.000Z</time>
      </trkpt>
      <trkpt lat="47.48404" lon="6.76963">
        <ele>312</ele>
        <time>2016-05-15T07:42:45.000Z</time>
      </trkpt>
      <trkpt lat="47.48399" lon="6.7696">
        <ele>312</ele>
        <time>2016-05-15T07:42:46.000Z</time>
      </trkpt>
      <trkpt lat="47.48393" lon="6.76956">
        <ele>312</ele>
        <time>2016-05-15T07:42:47.000Z</time>
      </trkpt>
      <trkpt lat="47.48388" lon="6.76953">
        <ele>312</ele>
        <time>2016-05-15T07:42:48.000Z</time>
      </trkpt>
      <trkpt lat="47.48383" lon="6.76951">
        <ele>312</ele>
        <time>2016-05-15T07:42:49.000Z</time>
      </trkpt>
      <trkpt lat="47.48377" lon="6.76949">
        <ele>312</ele>
        <time>2016-05-15T07:42:50.000Z</time>
      </trkpt>
      <trkpt lat="47.48371" lon="6.76945">
        <ele>312</ele>
        <time>2016-05-15T07:42:51.000Z</time>
      </trkpt>
      <trkpt lat="47.48366" lon="6.7694">
        <ele>312</ele>
        <time>2016-05-15T07:42:52.000Z</time>
      </trkpt>
      <trkpt lat="47.48361" lon="6.76938">
        <ele>311</ele>
        <time>2016-05-15T07:42:53.000Z</time>
      </trkpt>
      <trkpt lat="47.48355" lon="6.76935">
        <ele>311</ele>
        <time>2016-05-15T07:42:54.000Z</time>
      </trkpt>
      <trkpt lat="47.48351" lon="6.76932">
        <ele>311</ele>
        <time>2016-05-15T07:42:55.000Z</time>
      </trkpt>
      <trkpt lat="47.48347" lon="6.76929">
        <ele>311</ele>
        <time>2016-05-15T07:42:56.000Z</time>
      </trkpt>
      <trkpt lat="47.48341" lon="6.76925">
        <ele>310</ele>
        <time>2016-05-15T07:42:57.000Z</time>
      </trkpt>
      <trkpt lat="47.48337" lon="6.76922">
        <ele>310</ele>
        <time>2016-05-15T07:42:58.000Z</time>
      </trkpt>
      <trkpt lat="47.48334" lon="6.7692">
        <ele>309</ele>
        <time>2016-05-15T07:42:59.000Z</time>
      </trkpt>
      <trkpt lat="47.48329" lon="6.76917">
        <ele>309</ele>
        <time>2016-05-15T07:43:00.000Z</time>
      </trkpt>
      <trkpt lat="47.48324" lon="6.76912">
        <ele>309</ele>
        <time>2016-05-15T07:43:01.000Z</time>
      </trkpt>
      <trkpt lat="47.4832" lon="6.76907">
        <ele>310</ele>
        <time>2016-05-15T07:43:02.000Z</time>
      </trkpt>
      <trkpt lat="47.48315" lon="6.76903">
        <ele>310</ele>
        <time>2016-05-15T07:43:03.000Z</time>
      </trkpt>
      <trkpt lat="47.4831" lon="6.76898">
        <ele>310</ele>
        <time>2016-05-15T07:43:04.000Z</time>
      </trkpt>
      <trkpt lat="47.48305" lon="6.76894">
        <ele>310</ele>
        <time>2016-05-15T07:43:05.000Z</time>
      </trkpt>
      <trkpt lat="47.483" lon="6.7689">
        <ele>310</ele>
        <time>2016-05-15T07:43:06.000Z</time>
      </trkpt>
      <trkpt lat="47.48295" lon="6.76887">
        <ele>310</ele>
        <time>2016-05-15T07:43:07.000Z</time>
      </trkpt>
      <trkpt lat="47.48291" lon="6.76881">
        <ele>310</ele>
        <time>2016-05-15T07:43:08.000Z</time>
      </trkpt>
      <trkpt lat="47.48287" lon="6.76876">
        <ele>310</ele>
        <time>2016-05-15T07:43:09.000Z</time>
      </trkpt>
      <trkpt lat="47.48283" lon="6.7687">
        <ele>310</ele>
        <time>2016-05-15T07:43:10.000Z</time>
      </trkpt>
      <trkpt lat="47.4828" lon="6.76866">
        <ele>310</ele>
        <time>2016-05-15T07:43:11.000Z</time>
      </trkpt>
      <trkpt lat="47.48277" lon="6.76861">
        <ele>310</ele>
        <time>2016-05-15T07:43:12.000Z</time>
      </trkpt>
      <trkpt lat="47.48272" lon="6.76856">
        <ele>310</ele>
        <time>2016-05-15T07:43:13.000Z</time>
      </trkpt>
      <trkpt lat="47.48268" lon="6.76849">
        <ele>311</ele>
        <time>2016-05-15T07:43:14.000Z</time>
      </trkpt>
      <trkpt lat="47.48263" lon="6.76839">
        <ele>311</ele>
        <time>2016-05-15T07:43:15.000Z</time>
      </trkpt>
      <trkpt lat="47.48259" lon="6.76834">
        <ele>311</ele>
        <time>2016-05-15T07:43:16.000Z</time>
      </trkpt>
      <trkpt lat="47.48255" lon="6.76829">
        <ele>312</ele>
        <time>2016-05-15T07:43:17.000Z</time>
      </trkpt>
      <trkpt lat="47.4825" lon="6.76823">
        <ele>312</ele>
        <time>2016-05-15T07:43:18.000Z</time>
      </trkpt>
      <trkpt lat="47.48246" lon="6.76817">
        <ele>311</ele>
        <time>2016-05-15T07:43:19.000Z</time>
      </trkpt>
      <trkpt lat="47.48241" lon="6.76813">
        <ele>312</ele>
        <time>2016-05-15T07:43:20.000Z</time>
      </trkpt>
      <trkpt lat="47.48236" lon="6.76809">
        <ele>312</ele>
        <time>2016-05-15T07:43:21.000Z</time>
      </trkpt>
      <trkpt lat="47.4823" lon="6.76806">
        <ele>312</ele>
        <time>2016-05-15T07:43:22.000Z</time>
      </trkpt>
      <trkpt lat="47.48223" lon="6.76802">
        <ele>312</ele>
        <time>2016-05-15T07:43:23.000Z</time>
      </trkpt>
      <trkpt lat="47.48217" lon="6.76799">
        <ele>312</ele>
        <time>2016-05-15T07:43:24.000Z</time>
      </trkpt>
      <trkpt lat="47.48212" lon="6.76794">
        <ele>312</ele>
        <time>2016-05-15T07:43:25.000Z</time>
      </trkpt>
      <trkpt lat="47.48207" lon="6.76791">
        <ele>312</ele>
        <time>2016-05-15T07:43:26.000Z</time>
      </trkpt>
      <trkpt lat="47.48201" lon="6.76788">
        <ele>312</ele>
        <time>2016-05-15T07:43:27.000Z</time>
      </trkpt>
      <trkpt lat="47.48197" lon="6.76787">
        <ele>312</ele>
        <time>2016-05-15T07:43:28.000Z</time>
      </trkpt>
      <trkpt lat="47.48192" lon="6.76783">
        <ele>312</ele>
        <time>2016-05-15T07:43:29.000Z</time>
      </trkpt>
      <trkpt lat="47.48187" lon="6.76779">
        <ele>312</ele>
        <time>2016-05-15T07:43:30.000Z</time>
      </trkpt>
      <trkpt lat="47.48182" lon="6.76775">
        <ele>312</ele>
        <time>2016-05-15T07:43:31.000Z</time>
      </trkpt>
      <trkpt lat="47.48176" lon="6.76771">
        <ele>312</ele>
        <time>2016-05-15T07:43:32.000Z</time>
      </trkpt>
      <trkpt lat="47.48172" lon="6.76767">
        <ele>312</ele>
        <time>2016-05-15T07:43:33.000Z</time>
      </trkpt>
      <trkpt lat="47.48168" lon="6.76762">
        <ele>313</ele>
        <time>2016-05-15T07:43:34.000Z</time>
      </trkpt>
      <trkpt lat="47.48163" lon="6.76756">
        <ele>313</ele>
        <time>2016-05-15T07:43:35.000Z</time>
      </trkpt>
      <trkpt lat="47.48159" lon="6.7675">
        <ele>313</ele>
        <time>2016-05-15T07:43:36.000Z</time>
      </trkpt>
      <trkpt lat="47.48155" lon="6.76745">
        <ele>313</ele>
        <time>2016-05-15T07:43:37.000Z</time>
      </trkpt>
      <trkpt lat="47.48151" lon="6.76739">
        <ele>312</ele>
        <time>2016-05-15T07:43:38.000Z</time>
      </trkpt>
      <trkpt lat="47.48147" lon="6.76732">
        <ele>312</ele>
        <time>2016-05-15T07:43:39.000Z</time>
      </trkpt>
      <trkpt lat="47.48144" lon="6.76726">
        <ele>312</ele>
        <time>2016-05-15T07:43:40.000Z</time>
      </trkpt>
      <trkpt lat="47.48141" lon="6.7672">
        <ele>312</ele>
        <time>2016-05-15T07:43:41.000Z</time>
      </trkpt>
      <trkpt lat="47.48137" lon="6.76711">
        <ele>312</ele>
        <time>2016-05-15T07:43:42.000Z</time>
      </trkpt>
      <trkpt lat="47.48133" lon="6.76703">
        <ele>312</ele>
        <time>2016-05-15T07:43:43.000Z</time>
      </trkpt>
      <trkpt lat="47.48129" lon="6.76698">
        <ele>312</ele>
        <time>2016-05-15T07:43:44.000Z</time>
      </trkpt>
      <trkpt lat="47.48126" lon="6.76693">
        <ele>312</ele>
        <time>2016-05-15T07:43:45.000Z</time>
      </trkpt>
      <trkpt lat="47.48122" lon="6.76687">
        <ele>312</ele>
        <time>2016-05-15T07:43:46.000Z</time>
      </trkpt>
      <trkpt lat="47.48119" lon="6.76682">
        <ele>312</ele>
        <time>2016-05-15T07:43:47.000Z</time>
      </trkpt>
      <trkpt lat="47.48115" lon="6.76678">
        <ele>312</ele>
        <time>2016-05-15T07:43:48.000Z</time>
      </trkpt>
      <trkpt lat="47.4811" lon="6.76672">
        <ele>312</ele>
        <time>2016-05-15T07:43:49.000Z</time>
      </trkpt>
      <trkpt lat="47.48106" lon="6.76667">
        <ele>312</ele>
        <time>2016-05-15T07:43:50.000Z</time>
      </trkpt>
      <trkpt lat="47.48102" lon="6.76664">
        <ele>312</ele>
        <time>2016-05-15T07:43:51.000Z</time>
      </trkpt>
      <trkpt lat="47.481" lon="6.76661">
        <ele>312</ele>
        <time>2016-05-15T07:43:52.000Z</time>
      </trkpt>
      <trkpt lat="47.48096" lon="6.76657">
        <ele>312</ele>
        <time>2016-05-15T07:43:53.000Z</time>
      </trkpt>
      <trkpt lat="47.48093" lon="6.76649">
        <ele>312</ele>
        <time>2016-05-15T07:43:54.000Z</time>
      </trkpt>
      <trkpt lat="47.48092" lon="6.76642">
        <ele>312</ele>
        <time>2016-05-15T07:43:55.000Z</time>
      </trkpt>
      <trkpt lat="47.48089" lon="6.76634">
        <ele>312</ele>
        <time>2016-05-15T07:43:56.000Z</time>
      </trkpt>
      <trkpt lat="47.48088" lon="6.7663">
        <ele>313</ele>
        <time>2016-05-15T07:43:57.000Z</time>
      </trkpt>
      <trkpt lat="47.48086" lon="6.76625">
        <ele>313</ele>
        <time>2016-05-15T07:43:58.000Z</time>
      </trkpt>
      <trkpt lat="47.48087" lon="6.7662">
        <ele>313</ele>
        <time>2016-05-15T07:43:59.000Z</time>
      </trkpt>
      <trkpt lat="47.48087" lon="6.76615">
        <ele>313</ele>
        <time>2016-05-15T07:44:00.000Z</time>
      </trkpt>
      <trkpt lat="47.48091" lon="6.76604">
        <ele>313</ele>
        <time>2016-05-15T07:44:01.000Z</time>
      </trkpt>
      <trkpt lat="47.48099" lon="6.76585">
        <ele>313</ele>
        <time>2016-05-15T07:44:02.000Z</time>
      </trkpt>
      <trkpt lat="47.48104" lon="6.76573">
        <ele>316</ele>
        <time>2016-05-15T07:44:03.000Z</time>
      </trkpt>
      <trkpt lat="47.48106" lon="6.76565">
        <ele>317</ele>
        <time>2016-05-15T07:44:04.000Z</time>
      </trkpt>
      <trkpt lat="47.48108" lon="6.76559">
        <ele>318</ele>
        <time>2016-05-15T07:44:05.000Z</time>
      </trkpt>
      <trkpt lat="47.4811" lon="6.76553">
        <ele>318</ele>
        <time>2016-05-15T07:44:07.000Z</time>
      </trkpt>
      <trkpt lat="47.4811" lon="6.76549">
        <ele>318</ele>
        <time>2016-05-15T07:44:08.000Z</time>
      </trkpt>
      <trkpt lat="47.48107" lon="6.76544">
        <ele>318</ele>
        <time>2016-05-15T07:44:10.000Z</time>
      </trkpt>
      <trkpt lat="47.48105" lon="6.76541">
        <ele>318</ele>
        <time>2016-05-15T07:44:11.000Z</time>
      </trkpt>
      <trkpt lat="47.48104" lon="6.76537">
        <ele>318</ele>
        <time>2016-05-15T07:44:12.000Z</time>
      </trkpt>
      <trkpt lat="47.48102" lon="6.76535">
        <ele>318</ele>
        <time>2016-05-15T07:44:13.000Z</time>
      </trkpt>
      <trkpt lat="47.481" lon="6.76531">
        <ele>318</ele>
        <time>2016-05-15T07:44:14.000Z</time>
      </trkpt>
      <trkpt lat="47.481" lon="6.76528">
        <ele>318</ele>
        <time>2016-05-15T07:44:15.000Z</time>
      </trkpt>
      <trkpt lat="47.48097" lon="6.76529">
        <ele>318</ele>
        <time>2016-05-15T07:44:18.000Z</time>
      </trkpt>
      <trkpt lat="47.48094" lon="6.76532">
        <ele>318</ele>
        <time>2016-05-15T07:44:19.000Z</time>
      </trkpt>
      <trkpt lat="47.48092" lon="6.76536">
        <ele>318</ele>
        <time>2016-05-15T07:44:20.000Z</time>
      </trkpt>
      <trkpt lat="47.48089" lon="6.7654">
        <ele>317</ele>
        <time>2016-05-15T07:44:21.000Z</time>
      </trkpt>
      <trkpt lat="47.48082" lon="6.76545">
        <ele>312</ele>
        <time>2016-05-15T07:44:22.000Z</time>
      </trkpt>
      <trkpt lat="47.48077" lon="6.76548">
        <ele>312</ele>
        <time>2016-05-15T07:44:23.000Z</time>
      </trkpt>
      <trkpt lat="47.48071" lon="6.76551">
        <ele>312</ele>
        <time>2016-05-15T07:44:24.000Z</time>
      </trkpt>
      <trkpt lat="47.48068" lon="6.76554">
        <ele>312</ele>
        <time>2016-05-15T07:44:25.000Z</time>
      </trkpt>
      <trkpt lat="47.48063" lon="6.76557">
        <ele>312</ele>
        <time>2016-05-15T07:44:26.000Z</time>
      </trkpt>
      <trkpt lat="47.48058" lon="6.76561">
        <ele>312</ele>
        <time>2016-05-15T07:44:27.000Z</time>
      </trkpt>
      <trkpt lat="47.48055" lon="6.76565">
        <ele>312</ele>
        <time>2016-05-15T07:44:28.000Z</time>
      </trkpt>
      <trkpt lat="47.48047" lon="6.76572">
        <ele>312</ele>
        <time>2016-05-15T07:44:30.000Z</time>
      </trkpt>
      <trkpt lat="47.48043" lon="6.76576">
        <ele>312</ele>
        <time>2016-05-15T07:44:31.000Z</time>
      </trkpt>
      <trkpt lat="47.48037" lon="6.76579">
        <ele>312</ele>
        <time>2016-05-15T07:44:32.000Z</time>
      </trkpt>
      <trkpt lat="47.48033" lon="6.76582">
        <ele>312</ele>
        <time>2016-05-15T07:44:33.000Z</time>
      </trkpt>
      <trkpt lat="47.48028" lon="6.76586">
        <ele>312</ele>
        <time>2016-05-15T07:44:34.000Z</time>
      </trkpt>
      <trkpt lat="47.48023" lon="6.76588">
        <ele>312</ele>
        <time>2016-05-15T07:44:35.000Z</time>
      </trkpt>
      <trkpt lat="47.48018" lon="6.7659">
        <ele>312</ele>
        <time>2016-05-15T07:44:36.000Z</time>
      </trkpt>
      <trkpt lat="47.48017" lon="6.76594">
        <ele>312</ele>
        <time>2016-05-15T07:44:37.000Z</time>
      </trkpt>
      <trkpt lat="47.48014" lon="6.76596">
        <ele>312</ele>
        <time>2016-05-15T07:44:38.000Z</time>
      </trkpt>
      <trkpt lat="47.4801" lon="6.76599">
        <ele>312</ele>
        <time>2016-05-15T07:44:39.000Z</time>
      </trkpt>
      <trkpt lat="47.48006" lon="6.76601">
        <ele>312</ele>
        <time>2016-05-15T07:44:40.000Z</time>
      </trkpt>
      <trkpt lat="47.48004" lon="6.76604">
        <ele>312</ele>
        <time>2016-05-15T07:44:41.000Z</time>
      </trkpt>
      <trkpt lat="47.48" lon="6.76606">
        <ele>312</ele>
        <time>2016-05-15T07:44:42.000Z</time>
      </trkpt>
      <trkpt lat="47.47997" lon="6.76609">
        <ele>312</ele>
        <time>2016-05-15T07:44:43.000Z</time>
      </trkpt>
      <trkpt lat="47.47993" lon="6.76611">
        <ele>312</ele>
        <time>2016-05-15T07:44:44.000Z</time>
      </trkpt>
      <trkpt lat="47.47989" lon="6.76613">
        <ele>312</ele>
        <time>2016-05-15T07:44:45.000Z</time>
      </trkpt>
      <trkpt lat="47.47985" lon="6.76615">
        <ele>311</ele>
        <time>2016-05-15T07:44:46.000Z</time>
      </trkpt>
      <trkpt lat="47.47982" lon="6.76617">
        <ele>311</ele>
        <time>2016-05-15T07:44:47.000Z</time>
      </trkpt>
      <trkpt lat="47.47979" lon="6.76619">
        <ele>311</ele>
        <time>2016-05-15T07:44:48.000Z</time>
      </trkpt>
      <trkpt lat="47.47976" lon="6.7662">
        <ele>311</ele>
        <time>2016-05-15T07:44:49.000Z</time>
      </trkpt>
      <trkpt lat="47.47974" lon="6.76622">
        <ele>311</ele>
        <time>2016-05-15T07:44:50.000Z</time>
      </trkpt>
      <trkpt lat="47.4797" lon="6.76624">
        <ele>311</ele>
        <time>2016-05-15T07:44:54.000Z</time>
      </trkpt>
      <trkpt lat="47.47969" lon="6.76623">
        <ele>311</ele>
        <time>2016-05-15T07:44:55.000Z</time>
      </trkpt>
      <trkpt lat="47.47967" lon="6.76622">
        <ele>311</ele>
        <time>2016-05-15T07:44:56.000Z</time>
      </trkpt>
      <trkpt lat="47.47965" lon="6.76619">
        <ele>311</ele>
        <time>2016-05-15T07:44:57.000Z</time>
      </trkpt>
      <trkpt lat="47.47962" lon="6.76614">
        <ele>311</ele>
        <time>2016-05-15T07:44:58.000Z</time>
      </trkpt>
      <trkpt lat="47.47957" lon="6.76599">
        <ele>311</ele>
        <time>2016-05-15T07:44:59.000Z</time>
      </trkpt>
      <trkpt lat="47.47955" lon="6.76591">
        <ele>311</ele>
        <time>2016-05-15T07:45:00.000Z</time>
      </trkpt>
      <trkpt lat="47.47954" lon="6.76584">
        <ele>311</ele>
        <time>2016-05-15T07:45:01.000Z</time>
      </trkpt>
      <trkpt lat="47.47953" lon="6.76574">
        <ele>311</ele>
        <time>2016-05-15T07:45:02.000Z</time>
      </trkpt>
      <trkpt lat="47.47951" lon="6.76566">
        <ele>311</ele>
        <time>2016-05-15T07:45:03.000Z</time>
      </trkpt>
      <trkpt lat="47.47951" lon="6.76556">
        <ele>311</ele>
        <time>2016-05-15T07:45:04.000Z</time>
      </trkpt>
      <trkpt lat="47.4795" lon="6.76547">
        <ele>311</ele>
        <time>2016-05-15T07:45:05.000Z</time>
      </trkpt>
      <trkpt lat="47.47948" lon="6.76539">
        <ele>311</ele>
        <time>2016-05-15T07:45:06.000Z</time>
      </trkpt>
      <trkpt lat="47.47945" lon="6.76531">
        <ele>311</ele>
        <time>2016-05-15T07:45:07.000Z</time>
      </trkpt>
      <trkpt lat="47.47943" lon="6.76524">
        <ele>311</ele>
        <time>2016-05-15T07:45:08.000Z</time>
      </trkpt>
      <trkpt lat="47.4794" lon="6.76516">
        <ele>311</ele>
        <time>2016-05-15T07:45:09.000Z</time>
      </trkpt>
      <trkpt lat="47.47939" lon="6.7651">
        <ele>311</ele>
        <time>2016-05-15T07:45:10.000Z</time>
      </trkpt>
      <trkpt lat="47.47936" lon="6.76503">
        <ele>311</ele>
        <time>2016-05-15T07:45:11.000Z</time>
      </trkpt>
      <trkpt lat="47.47934" lon="6.76495">
        <ele>311</ele>
        <time>2016-05-15T07:45:12.000Z</time>
      </trkpt>
      <trkpt lat="47.47931" lon="6.76488">
        <ele>311</ele>
        <time>2016-05-15T07:45:13.000Z</time>
      </trkpt>
      <trkpt lat="47.4793" lon="6.7648">
        <ele>311</ele>
        <time>2016-05-15T07:45:14.000Z</time>
      </trkpt>
      <trkpt lat="47.47927" lon="6.76474">
        <ele>311</ele>
        <time>2016-05-15T07:45:15.000Z</time>
      </trkpt>
      <trkpt lat="47.47925" lon="6.76465">
        <ele>311</ele>
        <time>2016-05-15T07:45:16.000Z</time>
      </trkpt>
      <trkpt lat="47.47924" lon="6.76457">
        <ele>311</ele>
        <time>2016-05-15T07:45:17.000Z</time>
      </trkpt>
      <trkpt lat="47.47921" lon="6.76449">
        <ele>311</ele>
        <time>2016-05-15T07:45:18.000Z</time>
      </trkpt>
      <trkpt lat="47.47918" lon="6.76442">
        <ele>311</ele>
        <time>2016-05-15T07:45:19.000Z</time>
      </trkpt>
      <trkpt lat="47.47915" lon="6.76435">
        <ele>311</ele>
        <time>2016-05-15T07:45:20.000Z</time>
      </trkpt>
      <trkpt lat="47.47913" lon="6.76427">
        <ele>311</ele>
        <time>2016-05-15T07:45:21.000Z</time>
      </trkpt>
      <trkpt lat="47.47911" lon="6.7642">
        <ele>312</ele>
        <time>2016-05-15T07:45:22.000Z</time>
      </trkpt>
      <trkpt lat="47.47907" lon="6.76414">
        <ele>312</ele>
        <time>2016-05-15T07:45:23.000Z</time>
      </trkpt>
      <trkpt lat="47.47905" lon="6.76407">
        <ele>311</ele>
        <time>2016-05-15T07:45:24.000Z</time>
      </trkpt>
      <trkpt lat="47.47902" lon="6.764">
        <ele>311</ele>
        <time>2016-05-15T07:45:25.000Z</time>
      </trkpt>
      <trkpt lat="47.479" lon="6.76395">
        <ele>311</ele>
        <time>2016-05-15T07:45:26.000Z</time>
      </trkpt>
      <trkpt lat="47.47896" lon="6.76389">
        <ele>311</ele>
        <time>2016-05-15T07:45:27.000Z</time>
      </trkpt>
      <trkpt lat="47.47893" lon="6.76382">
        <ele>311</ele>
        <time>2016-05-15T07:45:28.000Z</time>
      </trkpt>
      <trkpt lat="47.4789" lon="6.76376">
        <ele>311</ele>
        <time>2016-05-15T07:45:29.000Z</time>
      </trkpt>
      <trkpt lat="47.47887" lon="6.76369">
        <ele>311</ele>
        <time>2016-05-15T07:45:30.000Z</time>
      </trkpt>
      <trkpt lat="47.47884" lon="6.76363">
        <ele>311</ele>
        <time>2016-05-15T07:45:31.000Z</time>
      </trkpt>
      <trkpt lat="47.47882" lon="6.76357">
        <ele>311</ele>
        <time>2016-05-15T07:45:32.000Z</time>
      </trkpt>
      <trkpt lat="47.47878" lon="6.76351">
        <ele>311</ele>
        <time>2016-05-15T07:45:33.000Z</time>
      </trkpt>
      <trkpt lat="47.47874" lon="6.76346">
        <ele>311</ele>
        <time>2016-05-15T07:45:34.000Z</time>
      </trkpt>
      <trkpt lat="47.47871" lon="6.7634">
        <ele>311</ele>
        <time>2016-05-15T07:45:35.000Z</time>
      </trkpt>
      <trkpt lat="47.47867" lon="6.76335">
        <ele>311</ele>
        <time>2016-05-15T07:45:36.000Z</time>
      </trkpt>
      <trkpt lat="47.47863" lon="6.76329">
        <ele>310</ele>
        <time>2016-05-15T07:45:37.000Z</time>
      </trkpt>
      <trkpt lat="47.4786" lon="6.76323">
        <ele>310</ele>
        <time>2016-05-15T07:45:38.000Z</time>
      </trkpt>
      <trkpt lat="47.47855" lon="6.76316">
        <ele>311</ele>
        <time>2016-05-15T07:45:39.000Z</time>
      </trkpt>
      <trkpt lat="47.47852" lon="6.7631">
        <ele>311</ele>
        <time>2016-05-15T07:45:40.000Z</time>
      </trkpt>
      <trkpt lat="47.47848" lon="6.76304">
        <ele>311</ele>
        <time>2016-05-15T07:45:41.000Z</time>
      </trkpt>
      <trkpt lat="47.47844" lon="6.76298">
        <ele>311</ele>
        <time>2016-05-15T07:45:42.000Z</time>
      </trkpt>
      <trkpt lat="47.47842" lon="6.76293">
        <ele>311</ele>
        <time>2016-05-15T07:45:43.000Z</time>
      </trkpt>
      <trkpt lat="47.47838" lon="6.76287">
        <ele>311</ele>
        <time>2016-05-15T07:45:44.000Z</time>
      </trkpt>
      <trkpt lat="47.47835" lon="6.76284">
        <ele>311</ele>
        <time>2016-05-15T07:45:45.000Z</time>
      </trkpt>
      <trkpt lat="47.47832" lon="6.7628">
        <ele>310</ele>
        <time>2016-05-15T07:45:46.000Z</time>
      </trkpt>
      <trkpt lat="47.47826" lon="6.76279">
        <ele>310</ele>
        <time>2016-05-15T07:45:47.000Z</time>
      </trkpt>
      <trkpt lat="47.47822" lon="6.76276">
        <ele>310</ele>
        <time>2016-05-15T07:45:48.000Z</time>
      </trkpt>
      <trkpt lat="47.47817" lon="6.76274">
        <ele>310</ele>
        <time>2016-05-15T07:45:49.000Z</time>
      </trkpt>
      <trkpt lat="47.47812" lon="6.76272">
        <ele>310</ele>
        <time>2016-05-15T07:45:50.000Z</time>
      </trkpt>
      <trkpt lat="47.47807" lon="6.76271">
        <ele>310</ele>
        <time>2016-05-15T07:45:51.000Z</time>
      </trkpt>
      <trkpt lat="47.47802" lon="6.7627">
        <ele>310</ele>
        <time>2016-05-15T07:45:52.000Z</time>
      </trkpt>
      <trkpt lat="47.47797" lon="6.76269">
        <ele>310</ele>
        <time>2016-05-15T07:45:53.000Z</time>
      </trkpt>
      <trkpt lat="47.47793" lon="6.76266">
        <ele>310</ele>
        <time>2016-05-15T07:45:54.000Z</time>
      </trkpt>
      <trkpt lat="47.47789" lon="6.76264">
        <ele>310</ele>
        <time>2016-05-15T07:45:55.000Z</time>
      </trkpt>
      <trkpt lat="47.47785" lon="6.76258">
        <ele>310</ele>
        <time>2016-05-15T07:45:56.000Z</time>
      </trkpt>
      <trkpt lat="47.47779" lon="6.76254">
        <ele>310</ele>
        <time>2016-05-15T07:45:57.000Z</time>
      </trkpt>
      <trkpt lat="47.47776" lon="6.76244">
        <ele>309</ele>
        <time>2016-05-15T07:45:58.000Z</time>
      </trkpt>
      <trkpt lat="47.47772" lon="6.76239">
        <ele>309</ele>
        <time>2016-05-15T07:45:59.000Z</time>
      </trkpt>
      <trkpt lat="47.47768" lon="6.76234">
        <ele>309</ele>
        <time>2016-05-15T07:46:00.000Z</time>
      </trkpt>
      <trkpt lat="47.47764" lon="6.76228">
        <ele>309</ele>
        <time>2016-05-15T07:46:01.000Z</time>
      </trkpt>
      <trkpt lat="47.47761" lon="6.76222">
        <ele>309</ele>
        <time>2016-05-15T07:46:02.000Z</time>
      </trkpt>
      <trkpt lat="47.47759" lon="6.76215">
        <ele>309</ele>
        <time>2016-05-15T07:46:03.000Z</time>
      </trkpt>
      <trkpt lat="47.47755" lon="6.76209">
        <ele>309</ele>
        <time>2016-05-15T07:46:04.000Z</time>
      </trkpt>
      <trkpt lat="47.47752" lon="6.76204">
        <ele>309</ele>
        <time>2016-05-15T07:46:05.000Z</time>
      </trkpt>
      <trkpt lat="47.47752" lon="6.762">
        <ele>309</ele>
        <time>2016-05-15T07:46:06.000Z</time>
      </trkpt>
      <trkpt lat="47.47749" lon="6.76195">
        <ele>309</ele>
        <time>2016-05-15T07:46:07.000Z</time>
      </trkpt>
      <trkpt lat="47.47746" lon="6.76188">
        <ele>308</ele>
        <time>2016-05-15T07:46:08.000Z</time>
      </trkpt>
      <trkpt lat="47.47741" lon="6.7618">
        <ele>308</ele>
        <time>2016-05-15T07:46:09.000Z</time>
      </trkpt>
      <trkpt lat="47.47736" lon="6.76173">
        <ele>308</ele>
        <time>2016-05-15T07:46:10.000Z</time>
      </trkpt>
      <trkpt lat="47.47732" lon="6.76166">
        <ele>308</ele>
        <time>2016-05-15T07:46:11.000Z</time>
      </trkpt>
      <trkpt lat="47.47728" lon="6.76161">
        <ele>309</ele>
        <time>2016-05-15T07:46:12.000Z</time>
      </trkpt>
      <trkpt lat="47.47725" lon="6.76155">
        <ele>309</ele>
        <time>2016-05-15T07:46:13.000Z</time>
      </trkpt>
      <trkpt lat="47.47722" lon="6.76151">
        <ele>309</ele>
        <time>2016-05-15T07:46:14.000Z</time>
      </trkpt>
      <trkpt lat="47.47719" lon="6.76146">
        <ele>309</ele>
        <time>2016-05-15T07:46:15.000Z</time>
      </trkpt>
      <trkpt lat="47.47716" lon="6.76142">
        <ele>309</ele>
        <time>2016-05-15T07:46:16.000Z</time>
      </trkpt>
      <trkpt lat="47.47712" lon="6.76136">
        <ele>309</ele>
        <time>2016-05-15T07:46:17.000Z</time>
      </trkpt>
      <trkpt lat="47.47709" lon="6.76132">
        <ele>309</ele>
        <time>2016-05-15T07:46:18.000Z</time>
      </trkpt>
      <trkpt lat="47.47705" lon="6.76126">
        <ele>310</ele>
        <time>2016-05-15T07:46:19.000Z</time>
      </trkpt>
      <trkpt lat="47.47702" lon="6.76117">
        <ele>310</ele>
        <time>2016-05-15T07:46:20.000Z</time>
      </trkpt>
      <trkpt lat="47.47699" lon="6.76111">
        <ele>310</ele>
        <time>2016-05-15T07:46:21.000Z</time>
      </trkpt>
      <trkpt lat="47.47695" lon="6.76106">
        <ele>310</ele>
        <time>2016-05-15T07:46:22.000Z</time>
      </trkpt>
      <trkpt lat="47.47691" lon="6.76101">
        <ele>310</ele>
        <time>2016-05-15T07:46:23.000Z</time>
      </trkpt>
      <trkpt lat="47.47687" lon="6.76096">
        <ele>310</ele>
        <time>2016-05-15T07:46:24.000Z</time>
      </trkpt>
      <trkpt lat="47.47683" lon="6.7609">
        <ele>310</ele>
        <time>2016-05-15T07:46:25.000Z</time>
      </trkpt>
      <trkpt lat="47.47679" lon="6.76085">
        <ele>310</ele>
        <time>2016-05-15T07:46:26.000Z</time>
      </trkpt>
      <trkpt lat="47.47674" lon="6.76081">
        <ele>311</ele>
        <time>2016-05-15T07:46:27.000Z</time>
      </trkpt>
      <trkpt lat="47.47673" lon="6.76073">
        <ele>311</ele>
        <time>2016-05-15T07:46:28.000Z</time>
      </trkpt>
      <trkpt lat="47.4767" lon="6.76067">
        <ele>311</ele>
        <time>2016-05-15T07:46:29.000Z</time>
      </trkpt>
      <trkpt lat="47.4767" lon="6.76058">
        <ele>311</ele>
        <time>2016-05-15T07:46:30.000Z</time>
      </trkpt>
      <trkpt lat="47.47669" lon="6.76051">
        <ele>311</ele>
        <time>2016-05-15T07:46:30.999Z</time>
      </trkpt>
      <trkpt lat="47.47667" lon="6.76041">
        <ele>311</ele>
        <time>2016-05-15T07:46:32.000Z</time>
      </trkpt>
      <trkpt lat="47.47666" lon="6.76034">
        <ele>311</ele>
        <time>2016-05-15T07:46:33.000Z</time>
      </trkpt>
      <trkpt lat="47.47665" lon="6.76028">
        <ele>311</ele>
        <time>2016-05-15T07:46:34.000Z</time>
      </trkpt>
      <trkpt lat="47.47665" lon="6.7602">
        <ele>311</ele>
        <time>2016-05-15T07:46:35.000Z</time>
      </trkpt>
      <trkpt lat="47.47664" lon="6.76012">
        <ele>312</ele>
        <time>2016-05-15T07:46:36.000Z</time>
      </trkpt>
      <trkpt lat="47.47666" lon="6.76002">
        <ele>312</ele>
        <time>2016-05-15T07:46:37.000Z</time>
      </trkpt>
      <trkpt lat="47.47668" lon="6.75994">
        <ele>312</ele>
        <time>2016-05-15T07:46:38.000Z</time>
      </trkpt>
      <trkpt lat="47.4767" lon="6.75985">
        <ele>312</ele>
        <time>2016-05-15T07:46:39.000Z</time>
      </trkpt>
      <trkpt lat="47.47674" lon="6.75978">
        <ele>312</ele>
        <time>2016-05-15T07:46:40.000Z</time>
      </trkpt>
      <trkpt lat="47.47678" lon="6.7597">
        <ele>311</ele>
        <time>2016-05-15T07:46:41.000Z</time>
      </trkpt>
      <trkpt lat="47.47681" lon="6.75962">
        <ele>311</ele>
        <time>2016-05-15T07:46:42.000Z</time>
      </trkpt>
      <trkpt lat="47.47684" lon="6.75955">
        <ele>311</ele>
        <time>2016-05-15T07:46:43.000Z</time>
      </trkpt>
      <trkpt lat="47.47686" lon="6.75948">
        <ele>311</ele>
        <time>2016-05-15T07:46:44.000Z</time>
      </trkpt>
      <trkpt lat="47.47688" lon="6.7594">
        <ele>311</ele>
        <time>2016-05-15T07:46:45.000Z</time>
      </trkpt>
      <trkpt lat="47.4769" lon="6.75933">
        <ele>311</ele>
        <time>2016-05-15T07:46:46.000Z</time>
      </trkpt>
      <trkpt lat="47.47691" lon="6.75925">
        <ele>311</ele>
        <time>2016-05-15T07:46:47.000Z</time>
      </trkpt>
      <trkpt lat="47.47692" lon="6.75917">
        <ele>311</ele>
        <time>2016-05-15T07:46:48.000Z</time>
      </trkpt>
      <trkpt lat="47.47691" lon="6.75909">
        <ele>311</ele>
        <time>2016-05-15T07:46:49.000Z</time>
      </trkpt>
      <trkpt lat="47.47692" lon="6.75901">
        <ele>311</ele>
        <time>2016-05-15T07:46:50.000Z</time>
      </trkpt>
      <trkpt lat="47.47692" lon="6.75893">
        <ele>311</ele>
        <time>2016-05-15T07:46:51.000Z</time>
      </trkpt>
      <trkpt lat="47.47692" lon="6.75886">
        <ele>311</ele>
        <time>2016-05-15T07:46:52.000Z</time>
      </trkpt>
      <trkpt lat="47.47692" lon="6.75879">
        <ele>311</ele>
        <time>2016-05-15T07:46:53.000Z</time>
      </trkpt>
      <trkpt lat="47.47691" lon="6.75872">
        <ele>311</ele>
        <time>2016-05-15T07:46:54.000Z</time>
      </trkpt>
      <trkpt lat="47.47691" lon="6.75862">
        <ele>311</ele>
        <time>2016-05-15T07:46:55.000Z</time>
      </trkpt>
      <trkpt lat="47.47692" lon="6.75853">
        <ele>311</ele>
        <time>2016-05-15T07:46:56.000Z</time>
      </trkpt>
      <trkpt lat="47.47693" lon="6.75845">
        <ele>311</ele>
        <time>2016-05-15T07:46:57.000Z</time>
      </trkpt>
      <trkpt lat="47.47694" lon="6.75838">
        <ele>311</ele>
        <time>2016-05-15T07:46:58.000Z</time>
      </trkpt>
      <trkpt lat="47.47695" lon="6.7583">
        <ele>310</ele>
        <time>2016-05-15T07:46:59.000Z</time>
      </trkpt>
      <trkpt lat="47.47696" lon="6.75825">
        <ele>310</ele>
        <time>2016-05-15T07:47:00.000Z</time>
      </trkpt>
      <trkpt lat="47.47698" lon="6.75817">
        <ele>310</ele>
        <time>2016-05-15T07:47:01.000Z</time>
      </trkpt>
      <trkpt lat="47.47698" lon="6.7581">
        <ele>310</ele>
        <time>2016-05-15T07:47:02.000Z</time>
      </trkpt>
      <trkpt lat="47.47699" lon="6.758">
        <ele>310</ele>
        <time>2016-05-15T07:47:03.000Z</time>
      </trkpt>
      <trkpt lat="47.477" lon="6.7579">
        <ele>310</ele>
        <time>2016-05-15T07:47:04.000Z</time>
      </trkpt>
      <trkpt lat="47.477" lon="6.75782">
        <ele>310</ele>
        <time>2016-05-15T07:47:05.000Z</time>
      </trkpt>
      <trkpt lat="47.477" lon="6.75774">
        <ele>310</ele>
        <time>2016-05-15T07:47:06.000Z</time>
      </trkpt>
      <trkpt lat="47.477" lon="6.75767">
        <ele>310</ele>
        <time>2016-05-15T07:47:07.000Z</time>
      </trkpt>
      <trkpt lat="47.477" lon="6.7576">
        <ele>310</ele>
        <time>2016-05-15T07:47:08.000Z</time>
      </trkpt>
      <trkpt lat="47.477" lon="6.75751">
        <ele>310</ele>
        <time>2016-05-15T07:47:09.000Z</time>
      </trkpt>
      <trkpt lat="47.47699" lon="6.75743">
        <ele>310</ele>
        <time>2016-05-15T07:47:10.000Z</time>
      </trkpt>
      <trkpt lat="47.47697" lon="6.75734">
        <ele>310</ele>
        <time>2016-05-15T07:47:11.000Z</time>
      </trkpt>
      <trkpt lat="47.47696" lon="6.75728">
        <ele>310</ele>
        <time>2016-05-15T07:47:12.000Z</time>
      </trkpt>
      <trkpt lat="47.47696" lon="6.75719">
        <ele>310</ele>
        <time>2016-05-15T07:47:13.000Z</time>
      </trkpt>
      <trkpt lat="47.47696" lon="6.75713">
        <ele>310</ele>
        <time>2016-05-15T07:47:14.000Z</time>
      </trkpt>
      <trkpt lat="47.47695" lon="6.75705">
        <ele>310</ele>
        <time>2016-05-15T07:47:15.000Z</time>
      </trkpt>
      <trkpt lat="47.47695" lon="6.75697">
        <ele>310</ele>
        <time>2016-05-15T07:47:16.000Z</time>
      </trkpt>
      <trkpt lat="47.47695" lon="6.75688">
        <ele>310</ele>
        <time>2016-05-15T07:47:17.000Z</time>
      </trkpt>
      <trkpt lat="47.47695" lon="6.75678">
        <ele>310</ele>
        <time>2016-05-15T07:47:18.000Z</time>
      </trkpt>
      <trkpt lat="47.47695" lon="6.7567">
        <ele>310</ele>
        <time>2016-05-15T07:47:19.000Z</time>
      </trkpt>
      <trkpt lat="47.47698" lon="6.75663">
        <ele>309</ele>
        <time>2016-05-15T07:47:20.000Z</time>
      </trkpt>
      <trkpt lat="47.47699" lon="6.75652">
        <ele>309</ele>
        <time>2016-05-15T07:47:21.000Z</time>
      </trkpt>
      <trkpt lat="47.477" lon="6.75642">
        <ele>309</ele>
        <time>2016-05-15T07:47:22.000Z</time>
      </trkpt>
      <trkpt lat="47.47701" lon="6.75635">
        <ele>309</ele>
        <time>2016-05-15T07:47:23.000Z</time>
      </trkpt>
      <trkpt lat="47.47701" lon="6.75626">
        <ele>309</ele>
        <time>2016-05-15T07:47:24.000Z</time>
      </trkpt>
      <trkpt lat="47.47704" lon="6.75617">
        <ele>309</ele>
        <time>2016-05-15T07:47:25.000Z</time>
      </trkpt>
      <trkpt lat="47.47703" lon="6.7561">
        <ele>309</ele>
        <time>2016-05-15T07:47:26.000Z</time>
      </trkpt>
      <trkpt lat="47.47701" lon="6.75602">
        <ele>309</ele>
        <time>2016-05-15T07:47:27.000Z</time>
      </trkpt>
      <trkpt lat="47.47701" lon="6.75594">
        <ele>309</ele>
        <time>2016-05-15T07:47:28.000Z</time>
      </trkpt>
      <trkpt lat="47.477" lon="6.75585">
        <ele>309</ele>
        <time>2016-05-15T07:47:29.000Z</time>
      </trkpt>
      <trkpt lat="47.47701" lon="6.75578">
        <ele>309</ele>
        <time>2016-05-15T07:47:30.000Z</time>
      </trkpt>
      <trkpt lat="47.47698" lon="6.7557">
        <ele>309</ele>
        <time>2016-05-15T07:47:31.000Z</time>
      </trkpt>
      <trkpt lat="47.47697" lon="6.75561">
        <ele>309</ele>
        <time>2016-05-15T07:47:32.000Z</time>
      </trkpt>
      <trkpt lat="47.47697" lon="6.7555">
        <ele>309</ele>
        <time>2016-05-15T07:47:33.000Z</time>
      </trkpt>
      <trkpt lat="47.47697" lon="6.7554">
        <ele>309</ele>
        <time>2016-05-15T07:47:34.000Z</time>
      </trkpt>
      <trkpt lat="47.47697" lon="6.75529">
        <ele>309</ele>
        <time>2016-05-15T07:47:35.000Z</time>
      </trkpt>
      <trkpt lat="47.47699" lon="6.7552">
        <ele>309</ele>
        <time>2016-05-15T07:47:36.000Z</time>
      </trkpt>
      <trkpt lat="47.47701" lon="6.7551">
        <ele>309</ele>
        <time>2016-05-15T07:47:37.000Z</time>
      </trkpt>
      <trkpt lat="47.47703" lon="6.755">
        <ele>309</ele>
        <time>2016-05-15T07:47:38.000Z</time>
      </trkpt>
      <trkpt lat="47.47703" lon="6.75493">
        <ele>309</ele>
        <time>2016-05-15T07:47:39.000Z</time>
      </trkpt>
      <trkpt lat="47.47705" lon="6.75484">
        <ele>309</ele>
        <time>2016-05-15T07:47:40.000Z</time>
      </trkpt>
      <trkpt lat="47.47706" lon="6.75478">
        <ele>309</ele>
        <time>2016-05-15T07:47:41.000Z</time>
      </trkpt>
      <trkpt lat="47.47708" lon="6.75468">
        <ele>309</ele>
        <time>2016-05-15T07:47:42.000Z</time>
      </trkpt>
      <trkpt lat="47.47709" lon="6.75458">
        <ele>308</ele>
        <time>2016-05-15T07:47:43.000Z</time>
      </trkpt>
      <trkpt lat="47.4771" lon="6.75448">
        <ele>308</ele>
        <time>2016-05-15T07:47:44.000Z</time>
      </trkpt>
      <trkpt lat="47.47709" lon="6.75438">
        <ele>308</ele>
        <time>2016-05-15T07:47:45.000Z</time>
      </trkpt>
      <trkpt lat="47.4771" lon="6.75428">
        <ele>308</ele>
        <time>2016-05-15T07:47:46.000Z</time>
      </trkpt>
      <trkpt lat="47.47708" lon="6.75419">
        <ele>308</ele>
        <time>2016-05-15T07:47:47.000Z</time>
      </trkpt>
      <trkpt lat="47.47709" lon="6.7541">
        <ele>309</ele>
        <time>2016-05-15T07:47:48.000Z</time>
      </trkpt>
      <trkpt lat="47.4771" lon="6.75401">
        <ele>309</ele>
        <time>2016-05-15T07:47:49.000Z</time>
      </trkpt>
      <trkpt lat="47.4771" lon="6.75393">
        <ele>309</ele>
        <time>2016-05-15T07:47:50.000Z</time>
      </trkpt>
      <trkpt lat="47.47709" lon="6.75386">
        <ele>309</ele>
        <time>2016-05-15T07:47:51.000Z</time>
      </trkpt>
      <trkpt lat="47.4771" lon="6.75377">
        <ele>309</ele>
        <time>2016-05-15T07:47:52.000Z</time>
      </trkpt>
      <trkpt lat="47.4771" lon="6.75367">
        <ele>309</ele>
        <time>2016-05-15T07:47:53.000Z</time>
      </trkpt>
      <trkpt lat="47.4771" lon="6.75358">
        <ele>309</ele>
        <time>2016-05-15T07:47:54.000Z</time>
      </trkpt>
      <trkpt lat="47.47709" lon="6.7535">
        <ele>309</ele>
        <time>2016-05-15T07:47:55.000Z</time>
      </trkpt>
      <trkpt lat="47.47709" lon="6.75343">
        <ele>309</ele>
        <time>2016-05-15T07:47:56.000Z</time>
      </trkpt>
      <trkpt lat="47.47708" lon="6.75337">
        <ele>309</ele>
        <time>2016-05-15T07:47:57.000Z</time>
      </trkpt>
      <trkpt lat="47.47708" lon="6.7533">
        <ele>310</ele>
        <time>2016-05-15T07:47:58.000Z</time>
      </trkpt>
      <trkpt lat="47.47708" lon="6.75324">
        <ele>310</ele>
        <time>2016-05-15T07:47:59.000Z</time>
      </trkpt>
      <trkpt lat="47.47708" lon="6.75317">
        <ele>310</ele>
        <time>2016-05-15T07:48:00.000Z</time>
      </trkpt>
      <trkpt lat="47.47708" lon="6.7531">
        <ele>310</ele>
        <time>2016-05-15T07:48:01.000Z</time>
      </trkpt>
      <trkpt lat="47.47707" lon="6.75302">
        <ele>310</ele>
        <time>2016-05-15T07:48:02.000Z</time>
      </trkpt>
      <trkpt lat="47.47707" lon="6.75299">
        <ele>310</ele>
        <time>2016-05-15T07:48:03.000Z</time>
      </trkpt>
      <trkpt lat="47.47707" lon="6.75294">
        <ele>310</ele>
        <time>2016-05-15T07:48:04.000Z</time>
      </trkpt>
      <trkpt lat="47.47707" lon="6.75287">
        <ele>310</ele>
        <time>2016-05-15T07:48:05.000Z</time>
      </trkpt>
      <trkpt lat="47.47707" lon="6.7528">
        <ele>310</ele>
        <time>2016-05-15T07:48:06.000Z</time>
      </trkpt>
      <trkpt lat="47.47707" lon="6.75273">
        <ele>310</ele>
        <time>2016-05-15T07:48:07.000Z</time>
      </trkpt>
      <trkpt lat="47.47707" lon="6.75266">
        <ele>310</ele>
        <time>2016-05-15T07:48:08.000Z</time>
      </trkpt>
      <trkpt lat="47.47707" lon="6.75258">
        <ele>310</ele>
        <time>2016-05-15T07:48:09.000Z</time>
      </trkpt>
      <trkpt lat="47.47707" lon="6.7525">
        <ele>310</ele>
        <time>2016-05-15T07:48:10.000Z</time>
      </trkpt>
      <trkpt lat="47.47707" lon="6.75243">
        <ele>311</ele>
        <time>2016-05-15T07:48:11.000Z</time>
      </trkpt>
      <trkpt lat="47.47707" lon="6.75235">
        <ele>311</ele>
        <time>2016-05-15T07:48:12.000Z</time>
      </trkpt>
      <trkpt lat="47.47708" lon="6.75227">
        <ele>311</ele>
        <time>2016-05-15T07:48:13.000Z</time>
      </trkpt>
      <trkpt lat="47.47709" lon="6.75219">
        <ele>311</ele>
        <time>2016-05-15T07:48:14.000Z</time>
      </trkpt>
      <trkpt lat="47.4771" lon="6.75211">
        <ele>311</ele>
        <time>2016-05-15T07:48:15.000Z</time>
      </trkpt>
      <trkpt lat="47.47711" lon="6.75203">
        <ele>311</ele>
        <time>2016-05-15T07:48:16.000Z</time>
      </trkpt>
      <trkpt lat="47.47713" lon="6.75194">
        <ele>311</ele>
        <time>2016-05-15T07:48:17.000Z</time>
      </trkpt>
      <trkpt lat="47.47714" lon="6.75186">
        <ele>311</ele>
        <time>2016-05-15T07:48:18.000Z</time>
      </trkpt>
      <trkpt lat="47.47715" lon="6.75177">
        <ele>311</ele>
        <time>2016-05-15T07:48:19.000Z</time>
      </trkpt>
      <trkpt lat="47.47715" lon="6.75168">
        <ele>310</ele>
        <time>2016-05-15T07:48:20.000Z</time>
      </trkpt>
      <trkpt lat="47.47715" lon="6.7516">
        <ele>310</ele>
        <time>2016-05-15T07:48:21.000Z</time>
      </trkpt>
      <trkpt lat="47.47715" lon="6.75151">
        <ele>310</ele>
        <time>2016-05-15T07:48:22.000Z</time>
      </trkpt>
      <trkpt lat="47.47715" lon="6.75142">
        <ele>310</ele>
        <time>2016-05-15T07:48:23.000Z</time>
      </trkpt>
      <trkpt lat="47.47713" lon="6.75123">
        <ele>310</ele>
        <time>2016-05-15T07:48:24.000Z</time>
      </trkpt>
      <trkpt lat="47.47712" lon="6.75114">
        <ele>310</ele>
        <time>2016-05-15T07:48:25.000Z</time>
      </trkpt>
      <trkpt lat="47.47713" lon="6.75104">
        <ele>310</ele>
        <time>2016-05-15T07:48:26.000Z</time>
      </trkpt>
      <trkpt lat="47.47714" lon="6.75095">
        <ele>310</ele>
        <time>2016-05-15T07:48:27.000Z</time>
      </trkpt>
      <trkpt lat="47.47715" lon="6.75087">
        <ele>310</ele>
        <time>2016-05-15T07:48:28.000Z</time>
      </trkpt>
      <trkpt lat="47.47714" lon="6.7508">
        <ele>310</ele>
        <time>2016-05-15T07:48:29.000Z</time>
      </trkpt>
      <trkpt lat="47.47714" lon="6.75073">
        <ele>310</ele>
        <time>2016-05-15T07:48:30.000Z</time>
      </trkpt>
      <trkpt lat="47.47712" lon="6.75065">
        <ele>310</ele>
        <time>2016-05-15T07:48:31.000Z</time>
      </trkpt>
      <trkpt lat="47.47713" lon="6.75056">
        <ele>310</ele>
        <time>2016-05-15T07:48:32.000Z</time>
      </trkpt>
      <trkpt lat="47.47714" lon="6.75048">
        <ele>310</ele>
        <time>2016-05-15T07:48:33.000Z</time>
      </trkpt>
      <trkpt lat="47.47714" lon="6.7504">
        <ele>310</ele>
        <time>2016-05-15T07:48:34.000Z</time>
      </trkpt>
      <trkpt lat="47.47714" lon="6.75033">
        <ele>310</ele>
        <time>2016-05-15T07:48:35.000Z</time>
      </trkpt>
      <trkpt lat="47.47714" lon="6.75023">
        <ele>310</ele>
        <time>2016-05-15T07:48:36.000Z</time>
      </trkpt>
      <trkpt lat="47.47712" lon="6.75014">
        <ele>310</ele>
        <time>2016-05-15T07:48:37.000Z</time>
      </trkpt>
      <trkpt lat="47.47712" lon="6.75006">
        <ele>310</ele>
        <time>2016-05-15T07:48:38.000Z</time>
      </trkpt>
      <trkpt lat="47.47712" lon="6.74997">
        <ele>310</ele>
        <time>2016-05-15T07:48:39.000Z</time>
      </trkpt>
      <trkpt lat="47.47712" lon="6.74988">
        <ele>310</ele>
        <time>2016-05-15T07:48:40.000Z</time>
      </trkpt>
      <trkpt lat="47.47713" lon="6.74979">
        <ele>310</ele>
        <time>2016-05-15T07:48:41.000Z</time>
      </trkpt>
      <trkpt lat="47.47714" lon="6.74971">
        <ele>310</ele>
        <time>2016-05-15T07:48:42.000Z</time>
      </trkpt>
      <trkpt lat="47.47715" lon="6.74963">
        <ele>310</ele>
        <time>2016-05-15T07:48:43.000Z</time>
      </trkpt>
      <trkpt lat="47.47715" lon="6.74955">
        <ele>310</ele>
        <time>2016-05-15T07:48:44.000Z</time>
      </trkpt>
      <trkpt lat="47.47716" lon="6.74948">
        <ele>310</ele>
        <time>2016-05-15T07:48:45.000Z</time>
      </trkpt>
      <trkpt lat="47.47714" lon="6.7494">
        <ele>310</ele>
        <time>2016-05-15T07:48:46.000Z</time>
      </trkpt>
      <trkpt lat="47.47714" lon="6.74931">
        <ele>310</ele>
        <time>2016-05-15T07:48:47.000Z</time>
      </trkpt>
      <trkpt lat="47.47714" lon="6.74921">
        <ele>310</ele>
        <time>2016-05-15T07:48:48.000Z</time>
      </trkpt>
      <trkpt lat="47.47714" lon="6.74913">
        <ele>309</ele>
        <time>2016-05-15T07:48:49.000Z</time>
      </trkpt>
      <trkpt lat="47.47713" lon="6.74905">
        <ele>309</ele>
        <time>2016-05-15T07:48:50.000Z</time>
      </trkpt>
      <trkpt lat="47.47712" lon="6.74897">
        <ele>309</ele>
        <time>2016-05-15T07:48:51.000Z</time>
      </trkpt>
      <trkpt lat="47.47713" lon="6.74889">
        <ele>309</ele>
        <time>2016-05-15T07:48:52.000Z</time>
      </trkpt>
      <trkpt lat="47.47713" lon="6.7488">
        <ele>309</ele>
        <time>2016-05-15T07:48:53.000Z</time>
      </trkpt>
      <trkpt lat="47.47714" lon="6.74869">
        <ele>309</ele>
        <time>2016-05-15T07:48:54.000Z</time>
      </trkpt>
      <trkpt lat="47.47714" lon="6.74862">
        <ele>309</ele>
        <time>2016-05-15T07:48:55.000Z</time>
      </trkpt>
      <trkpt lat="47.47714" lon="6.74853">
        <ele>309</ele>
        <time>2016-05-15T07:48:56.000Z</time>
      </trkpt>
      <trkpt lat="47.47714" lon="6.74846">
        <ele>309</ele>
        <time>2016-05-15T07:48:57.000Z</time>
      </trkpt>
      <trkpt lat="47.47716" lon="6.74835">
        <ele>309</ele>
        <time>2016-05-15T07:48:58.000Z</time>
      </trkpt>
      <trkpt lat="47.47716" lon="6.74825">
        <ele>308</ele>
        <time>2016-05-15T07:48:59.000Z</time>
      </trkpt>
      <trkpt lat="47.47715" lon="6.74816">
        <ele>308</ele>
        <time>2016-05-15T07:49:00.000Z</time>
      </trkpt>
      <trkpt lat="47.47717" lon="6.74807">
        <ele>309</ele>
        <time>2016-05-15T07:49:01.000Z</time>
      </trkpt>
      <trkpt lat="47.47718" lon="6.74798">
        <ele>309</ele>
        <time>2016-05-15T07:49:02.000Z</time>
      </trkpt>
      <trkpt lat="47.47718" lon="6.74789">
        <ele>309</ele>
        <time>2016-05-15T07:49:03.000Z</time>
      </trkpt>
      <trkpt lat="47.47719" lon="6.74782">
        <ele>309</ele>
        <time>2016-05-15T07:49:04.000Z</time>
      </trkpt>
      <trkpt lat="47.47719" lon="6.74773">
        <ele>309</ele>
        <time>2016-05-15T07:49:05.000Z</time>
      </trkpt>
      <trkpt lat="47.4772" lon="6.74766">
        <ele>309</ele>
        <time>2016-05-15T07:49:06.000Z</time>
      </trkpt>
      <trkpt lat="47.4772" lon="6.74759">
        <ele>309</ele>
        <time>2016-05-15T07:49:07.000Z</time>
      </trkpt>
      <trkpt lat="47.4772" lon="6.74752">
        <ele>309</ele>
        <time>2016-05-15T07:49:08.000Z</time>
      </trkpt>
      <trkpt lat="47.4772" lon="6.74743">
        <ele>309</ele>
        <time>2016-05-15T07:49:09.000Z</time>
      </trkpt>
      <trkpt lat="47.47719" lon="6.74734">
        <ele>309</ele>
        <time>2016-05-15T07:49:10.000Z</time>
      </trkpt>
      <trkpt lat="47.47717" lon="6.74727">
        <ele>309</ele>
        <time>2016-05-15T07:49:11.000Z</time>
      </trkpt>
      <trkpt lat="47.47719" lon="6.74718">
        <ele>309</ele>
        <time>2016-05-15T07:49:12.000Z</time>
      </trkpt>
      <trkpt lat="47.4772" lon="6.74708">
        <ele>309</ele>
        <time>2016-05-15T07:49:13.000Z</time>
      </trkpt>
      <trkpt lat="47.4772" lon="6.74699">
        <ele>308</ele>
        <time>2016-05-15T07:49:14.000Z</time>
      </trkpt>
      <trkpt lat="47.4772" lon="6.74691">
        <ele>308</ele>
        <time>2016-05-15T07:49:15.000Z</time>
      </trkpt>
      <trkpt lat="47.4772" lon="6.74684">
        <ele>308</ele>
        <time>2016-05-15T07:49:16.000Z</time>
      </trkpt>
      <trkpt lat="47.4772" lon="6.74676">
        <ele>308</ele>
        <time>2016-05-15T07:49:17.000Z</time>
      </trkpt>
      <trkpt lat="47.47719" lon="6.74669">
        <ele>308</ele>
        <time>2016-05-15T07:49:18.000Z</time>
      </trkpt>
      <trkpt lat="47.4772" lon="6.74661">
        <ele>308</ele>
        <time>2016-05-15T07:49:19.000Z</time>
      </trkpt>
      <trkpt lat="47.4772" lon="6.74651">
        <ele>308</ele>
        <time>2016-05-15T07:49:20.000Z</time>
      </trkpt>
      <trkpt lat="47.47721" lon="6.74642">
        <ele>308</ele>
        <time>2016-05-15T07:49:21.000Z</time>
      </trkpt>
      <trkpt lat="47.47721" lon="6.74633">
        <ele>308</ele>
        <time>2016-05-15T07:49:22.000Z</time>
      </trkpt>
      <trkpt lat="47.47721" lon="6.74625">
        <ele>308</ele>
        <time>2016-05-15T07:49:23.000Z</time>
      </trkpt>
      <trkpt lat="47.47721" lon="6.74617">
        <ele>308</ele>
        <time>2016-05-15T07:49:24.000Z</time>
      </trkpt>
      <trkpt lat="47.4772" lon="6.74608">
        <ele>308</ele>
        <time>2016-05-15T07:49:25.000Z</time>
      </trkpt>
      <trkpt lat="47.4772" lon="6.74601">
        <ele>308</ele>
        <time>2016-05-15T07:49:26.000Z</time>
      </trkpt>
      <trkpt lat="47.4772" lon="6.74594">
        <ele>308</ele>
        <time>2016-05-15T07:49:27.000Z</time>
      </trkpt>
      <trkpt lat="47.47721" lon="6.74584">
        <ele>308</ele>
        <time>2016-05-15T07:49:28.000Z</time>
      </trkpt>
      <trkpt lat="47.47721" lon="6.74577">
        <ele>308</ele>
        <time>2016-05-15T07:49:29.000Z</time>
      </trkpt>
      <trkpt lat="47.47721" lon="6.74568">
        <ele>308</ele>
        <time>2016-05-15T07:49:30.000Z</time>
      </trkpt>
      <trkpt lat="47.47721" lon="6.7456">
        <ele>308</ele>
        <time>2016-05-15T07:49:31.000Z</time>
      </trkpt>
      <trkpt lat="47.4772" lon="6.74552">
        <ele>308</ele>
        <time>2016-05-15T07:49:32.000Z</time>
      </trkpt>
      <trkpt lat="47.47718" lon="6.74546">
        <ele>308</ele>
        <time>2016-05-15T07:49:33.000Z</time>
      </trkpt>
      <trkpt lat="47.47716" lon="6.74539">
        <ele>308</ele>
        <time>2016-05-15T07:49:34.000Z</time>
      </trkpt>
      <trkpt lat="47.47714" lon="6.74531">
        <ele>308</ele>
        <time>2016-05-15T07:49:35.000Z</time>
      </trkpt>
      <trkpt lat="47.47712" lon="6.74525">
        <ele>308</ele>
        <time>2016-05-15T07:49:36.000Z</time>
      </trkpt>
      <trkpt lat="47.47711" lon="6.74517">
        <ele>308</ele>
        <time>2016-05-15T07:49:37.000Z</time>
      </trkpt>
      <trkpt lat="47.4771" lon="6.7451">
        <ele>308</ele>
        <time>2016-05-15T07:49:38.000Z</time>
      </trkpt>
      <trkpt lat="47.47709" lon="6.74502">
        <ele>308</ele>
        <time>2016-05-15T07:49:39.000Z</time>
      </trkpt>
      <trkpt lat="47.47709" lon="6.74493">
        <ele>308</ele>
        <time>2016-05-15T07:49:40.000Z</time>
      </trkpt>
      <trkpt lat="47.47708" lon="6.74485">
        <ele>307</ele>
        <time>2016-05-15T07:49:41.000Z</time>
      </trkpt>
      <trkpt lat="47.47708" lon="6.74477">
        <ele>307</ele>
        <time>2016-05-15T07:49:42.000Z</time>
      </trkpt>
      <trkpt lat="47.47707" lon="6.74469">
        <ele>307</ele>
        <time>2016-05-15T07:49:43.000Z</time>
      </trkpt>
      <trkpt lat="47.47706" lon="6.74461">
        <ele>307</ele>
        <time>2016-05-15T07:49:44.000Z</time>
      </trkpt>
      <trkpt lat="47.47707" lon="6.74453">
        <ele>307</ele>
        <time>2016-05-15T07:49:45.000Z</time>
      </trkpt>
      <trkpt lat="47.47708" lon="6.74445">
        <ele>307</ele>
        <time>2016-05-15T07:49:46.000Z</time>
      </trkpt>
      <trkpt lat="47.47711" lon="6.74439">
        <ele>308</ele>
        <time>2016-05-15T07:49:47.000Z</time>
      </trkpt>
      <trkpt lat="47.47718" lon="6.74432">
        <ele>308</ele>
        <time>2016-05-15T07:49:48.000Z</time>
      </trkpt>
      <trkpt lat="47.47717" lon="6.74425">
        <ele>308</ele>
        <time>2016-05-15T07:49:49.000Z</time>
      </trkpt>
      <trkpt lat="47.47716" lon="6.74417">
        <ele>308</ele>
        <time>2016-05-15T07:49:50.000Z</time>
      </trkpt>
      <trkpt lat="47.47715" lon="6.74409">
        <ele>308</ele>
        <time>2016-05-15T07:49:51.000Z</time>
      </trkpt>
      <trkpt lat="47.47714" lon="6.74401">
        <ele>309</ele>
        <time>2016-05-15T07:49:52.000Z</time>
      </trkpt>
      <trkpt lat="47.47713" lon="6.74393">
        <ele>309</ele>
        <time>2016-05-15T07:49:53.000Z</time>
      </trkpt>
      <trkpt lat="47.47712" lon="6.74385">
        <ele>309</ele>
        <time>2016-05-15T07:49:54.000Z</time>
      </trkpt>
      <trkpt lat="47.47711" lon="6.74377">
        <ele>309</ele>
        <time>2016-05-15T07:49:55.000Z</time>
      </trkpt>
      <trkpt lat="47.4771" lon="6.7437">
        <ele>309</ele>
        <time>2016-05-15T07:49:56.000Z</time>
      </trkpt>
      <trkpt lat="47.47709" lon="6.74362">
        <ele>309</ele>
        <time>2016-05-15T07:49:57.000Z</time>
      </trkpt>
      <trkpt lat="47.47709" lon="6.74355">
        <ele>309</ele>
        <time>2016-05-15T07:49:58.000Z</time>
      </trkpt>
      <trkpt lat="47.47708" lon="6.74347">
        <ele>309</ele>
        <time>2016-05-15T07:49:59.000Z</time>
      </trkpt>
      <trkpt lat="47.47707" lon="6.74339">
        <ele>309</ele>
        <time>2016-05-15T07:50:00.000Z</time>
      </trkpt>
      <trkpt lat="47.47705" lon="6.74333">
        <ele>310</ele>
        <time>2016-05-15T07:50:01.000Z</time>
      </trkpt>
      <trkpt lat="47.47703" lon="6.74328">
        <ele>310</ele>
        <time>2016-05-15T07:50:02.000Z</time>
      </trkpt>
      <trkpt lat="47.47703" lon="6.7432">
        <ele>310</ele>
        <time>2016-05-15T07:50:03.000Z</time>
      </trkpt>
      <trkpt lat="47.47702" lon="6.74312">
        <ele>310</ele>
        <time>2016-05-15T07:50:04.000Z</time>
      </trkpt>
      <trkpt lat="47.477" lon="6.74304">
        <ele>310</ele>
        <time>2016-05-15T07:50:05.000Z</time>
      </trkpt>
      <trkpt lat="47.47699" lon="6.74296">
        <ele>310</ele>
        <time>2016-05-15T07:50:06.000Z</time>
      </trkpt>
      <trkpt lat="47.47698" lon="6.74288">
        <ele>310</ele>
        <time>2016-05-15T07:50:07.000Z</time>
      </trkpt>
      <trkpt lat="47.47697" lon="6.7428">
        <ele>310</ele>
        <time>2016-05-15T07:50:08.000Z</time>
      </trkpt>
      <trkpt lat="47.47695" lon="6.74272">
        <ele>310</ele>
        <time>2016-05-15T07:50:09.000Z</time>
      </trkpt>
      <trkpt lat="47.47694" lon="6.74264">
        <ele>310</ele>
        <time>2016-05-15T07:50:10.000Z</time>
      </trkpt>
      <trkpt lat="47.47693" lon="6.74257">
        <ele>310</ele>
        <time>2016-05-15T07:50:11.000Z</time>
      </trkpt>
      <trkpt lat="47.47692" lon="6.74248">
        <ele>310</ele>
        <time>2016-05-15T07:50:12.000Z</time>
      </trkpt>
      <trkpt lat="47.4769" lon="6.74241">
        <ele>310</ele>
        <time>2016-05-15T07:50:13.000Z</time>
      </trkpt>
      <trkpt lat="47.47689" lon="6.74233">
        <ele>310</ele>
        <time>2016-05-15T07:50:14.000Z</time>
      </trkpt>
      <trkpt lat="47.47687" lon="6.74225">
        <ele>310</ele>
        <time>2016-05-15T07:50:15.000Z</time>
      </trkpt>
      <trkpt lat="47.47685" lon="6.74218">
        <ele>310</ele>
        <time>2016-05-15T07:50:16.000Z</time>
      </trkpt>
      <trkpt lat="47.47684" lon="6.7421">
        <ele>310</ele>
        <time>2016-05-15T07:50:17.000Z</time>
      </trkpt>
      <trkpt lat="47.47682" lon="6.74203">
        <ele>310</ele>
        <time>2016-05-15T07:50:18.000Z</time>
      </trkpt>
      <trkpt lat="47.47681" lon="6.74196">
        <ele>310</ele>
        <time>2016-05-15T07:50:19.000Z</time>
      </trkpt>
      <trkpt lat="47.47679" lon="6.74187">
        <ele>310</ele>
        <time>2016-05-15T07:50:20.000Z</time>
      </trkpt>
      <trkpt lat="47.47677" lon="6.7418">
        <ele>310</ele>
        <time>2016-05-15T07:50:21.000Z</time>
      </trkpt>
      <trkpt lat="47.47676" lon="6.74173">
        <ele>310</ele>
        <time>2016-05-15T07:50:22.000Z</time>
      </trkpt>
      <trkpt lat="47.47675" lon="6.74165">
        <ele>309</ele>
        <time>2016-05-15T07:50:23.000Z</time>
      </trkpt>
      <trkpt lat="47.47674" lon="6.74158">
        <ele>309</ele>
        <time>2016-05-15T07:50:24.000Z</time>
      </trkpt>
      <trkpt lat="47.47671" lon="6.74151">
        <ele>310</ele>
        <time>2016-05-15T07:50:25.000Z</time>
      </trkpt>
      <trkpt lat="47.47669" lon="6.74143">
        <ele>310</ele>
        <time>2016-05-15T07:50:26.000Z</time>
      </trkpt>
      <trkpt lat="47.47668" lon="6.74137">
        <ele>310</ele>
        <time>2016-05-15T07:50:27.000Z</time>
      </trkpt>
      <trkpt lat="47.47667" lon="6.74129">
        <ele>310</ele>
        <time>2016-05-15T07:50:28.000Z</time>
      </trkpt>
      <trkpt lat="47.47665" lon="6.74122">
        <ele>309</ele>
        <time>2016-05-15T07:50:29.000Z</time>
      </trkpt>
      <trkpt lat="47.47665" lon="6.74119">
        <ele>309</ele>
        <time>2016-05-15T07:50:30.000Z</time>
      </trkpt>
      <trkpt lat="47.47663" lon="6.74117">
        <ele>309</ele>
        <time>2016-05-15T07:50:31.000Z</time>
      </trkpt>
      <trkpt lat="47.47658" lon="6.74118">
        <ele>309</ele>
        <time>2016-05-15T07:50:33.000Z</time>
      </trkpt>
      <trkpt lat="47.47656" lon="6.74118">
        <ele>309</ele>
        <time>2016-05-15T07:50:34.000Z</time>
      </trkpt>
      <trkpt lat="47.47653" lon="6.74118">
        <ele>309</ele>
        <time>2016-05-15T07:50:35.000Z</time>
      </trkpt>
      <trkpt lat="47.4765" lon="6.74117">
        <ele>309</ele>
        <time>2016-05-15T07:50:36.000Z</time>
      </trkpt>
      <trkpt lat="47.47646" lon="6.74114">
        <ele>309</ele>
        <time>2016-05-15T07:50:37.000Z</time>
      </trkpt>
      <trkpt lat="47.47645" lon="6.74108">
        <ele>309</ele>
        <time>2016-05-15T07:50:38.000Z</time>
      </trkpt>
      <trkpt lat="47.47642" lon="6.74105">
        <ele>309</ele>
        <time>2016-05-15T07:50:39.000Z</time>
      </trkpt>
      <trkpt lat="47.47639" lon="6.741">
        <ele>309</ele>
        <time>2016-05-15T07:50:40.000Z</time>
      </trkpt>
      <trkpt lat="47.47637" lon="6.74094">
        <ele>309</ele>
        <time>2016-05-15T07:50:41.000Z</time>
      </trkpt>
      <trkpt lat="47.47635" lon="6.74088">
        <ele>309</ele>
        <time>2016-05-15T07:50:42.000Z</time>
      </trkpt>
      <trkpt lat="47.47634" lon="6.7408">
        <ele>310</ele>
        <time>2016-05-15T07:50:43.000Z</time>
      </trkpt>
      <trkpt lat="47.47632" lon="6.74076">
        <ele>310</ele>
        <time>2016-05-15T07:50:44.000Z</time>
      </trkpt>
      <trkpt lat="47.4763" lon="6.74071">
        <ele>310</ele>
        <time>2016-05-15T07:50:45.000Z</time>
      </trkpt>
      <trkpt lat="47.47627" lon="6.74067">
        <ele>310</ele>
        <time>2016-05-15T07:50:46.000Z</time>
      </trkpt>
      <trkpt lat="47.47624" lon="6.74064">
        <ele>309</ele>
        <time>2016-05-15T07:50:47.000Z</time>
      </trkpt>
      <trkpt lat="47.47621" lon="6.7406">
        <ele>309</ele>
        <time>2016-05-15T07:50:48.000Z</time>
      </trkpt>
      <trkpt lat="47.47618" lon="6.74062">
        <ele>309</ele>
        <time>2016-05-15T07:50:49.000Z</time>
      </trkpt>
      <trkpt lat="47.47614" lon="6.74068">
        <ele>309</ele>
        <time>2016-05-15T07:50:50.000Z</time>
      </trkpt>
      <trkpt lat="47.47609" lon="6.74069">
        <ele>309</ele>
        <time>2016-05-15T07:50:51.000Z</time>
      </trkpt>
      <trkpt lat="47.47606" lon="6.74071">
        <ele>309</ele>
        <time>2016-05-15T07:50:52.000Z</time>
      </trkpt>
      <trkpt lat="47.47601" lon="6.74074">
        <ele>309</ele>
        <time>2016-05-15T07:50:53.000Z</time>
      </trkpt>
      <trkpt lat="47.47598" lon="6.74077">
        <ele>309</ele>
        <time>2016-05-15T07:50:54.000Z</time>
      </trkpt>
      <trkpt lat="47.47594" lon="6.7408">
        <ele>309</ele>
        <time>2016-05-15T07:50:55.000Z</time>
      </trkpt>
      <trkpt lat="47.47589" lon="6.74082">
        <ele>309</ele>
        <time>2016-05-15T07:50:56.000Z</time>
      </trkpt>
      <trkpt lat="47.47584" lon="6.74086">
        <ele>309</ele>
        <time>2016-05-15T07:50:57.000Z</time>
      </trkpt>
      <trkpt lat="47.47579" lon="6.74089">
        <ele>309</ele>
        <time>2016-05-15T07:50:58.000Z</time>
      </trkpt>
      <trkpt lat="47.47575" lon="6.74092">
        <ele>309</ele>
        <time>2016-05-15T07:50:59.000Z</time>
      </trkpt>
      <trkpt lat="47.47572" lon="6.74096">
        <ele>309</ele>
        <time>2016-05-15T07:51:00.000Z</time>
      </trkpt>
      <trkpt lat="47.47567" lon="6.741">
        <ele>309</ele>
        <time>2016-05-15T07:51:01.000Z</time>
      </trkpt>
      <trkpt lat="47.47563" lon="6.74102">
        <ele>309</ele>
        <time>2016-05-15T07:51:02.000Z</time>
      </trkpt>
      <trkpt lat="47.47557" lon="6.74105">
        <ele>309</ele>
        <time>2016-05-15T07:51:03.000Z</time>
      </trkpt>
      <trkpt lat="47.47553" lon="6.74109">
        <ele>309</ele>
        <time>2016-05-15T07:51:04.000Z</time>
      </trkpt>
      <trkpt lat="47.4755" lon="6.74112">
        <ele>309</ele>
        <time>2016-05-15T07:51:05.000Z</time>
      </trkpt>
      <trkpt lat="47.47547" lon="6.74115">
        <ele>309</ele>
        <time>2016-05-15T07:51:06.000Z</time>
      </trkpt>
      <trkpt lat="47.47544" lon="6.74118">
        <ele>309</ele>
        <time>2016-05-15T07:51:07.000Z</time>
      </trkpt>
      <trkpt lat="47.4754" lon="6.74122">
        <ele>308</ele>
        <time>2016-05-15T07:51:08.000Z</time>
      </trkpt>
      <trkpt lat="47.47536" lon="6.74124">
        <ele>308</ele>
        <time>2016-05-15T07:51:09.000Z</time>
      </trkpt>
      <trkpt lat="47.47532" lon="6.74128">
        <ele>309</ele>
        <time>2016-05-15T07:51:10.000Z</time>
      </trkpt>
      <trkpt lat="47.4753" lon="6.74131">
        <ele>309</ele>
        <time>2016-05-15T07:51:11.000Z</time>
      </trkpt>
      <trkpt lat="47.47527" lon="6.74137">
        <ele>309</ele>
        <time>2016-05-15T07:51:12.000Z</time>
      </trkpt>
      <trkpt lat="47.47523" lon="6.74141">
        <ele>309</ele>
        <time>2016-05-15T07:51:13.000Z</time>
      </trkpt>
      <trkpt lat="47.47519" lon="6.74145">
        <ele>309</ele>
        <time>2016-05-15T07:51:14.000Z</time>
      </trkpt>
      <trkpt lat="47.47516" lon="6.74148">
        <ele>309</ele>
        <time>2016-05-15T07:51:15.000Z</time>
      </trkpt>
      <trkpt lat="47.47512" lon="6.74152">
        <ele>309</ele>
        <time>2016-05-15T07:51:16.000Z</time>
      </trkpt>
      <trkpt lat="47.47506" lon="6.74155">
        <ele>309</ele>
        <time>2016-05-15T07:51:17.000Z</time>
      </trkpt>
      <trkpt lat="47.47502" lon="6.7416">
        <ele>309</ele>
        <time>2016-05-15T07:51:18.000Z</time>
      </trkpt>
      <trkpt lat="47.47498" lon="6.74164">
        <ele>309</ele>
        <time>2016-05-15T07:51:19.000Z</time>
      </trkpt>
      <trkpt lat="47.47494" lon="6.74168">
        <ele>309</ele>
        <time>2016-05-15T07:51:20.000Z</time>
      </trkpt>
      <trkpt lat="47.47491" lon="6.74171">
        <ele>309</ele>
        <time>2016-05-15T07:51:21.000Z</time>
      </trkpt>
      <trkpt lat="47.47487" lon="6.74174">
        <ele>309</ele>
        <time>2016-05-15T07:51:22.000Z</time>
      </trkpt>
      <trkpt lat="47.47481" lon="6.74175">
        <ele>309</ele>
        <time>2016-05-15T07:51:23.000Z</time>
      </trkpt>
      <trkpt lat="47.47477" lon="6.74178">
        <ele>309</ele>
        <time>2016-05-15T07:51:24.000Z</time>
      </trkpt>
      <trkpt lat="47.47472" lon="6.7418">
        <ele>309</ele>
        <time>2016-05-15T07:51:25.000Z</time>
      </trkpt>
      <trkpt lat="47.47467" lon="6.74182">
        <ele>309</ele>
        <time>2016-05-15T07:51:26.000Z</time>
      </trkpt>
      <trkpt lat="47.47462" lon="6.74185">
        <ele>309</ele>
        <time>2016-05-15T07:51:27.000Z</time>
      </trkpt>
      <trkpt lat="47.47456" lon="6.74187">
        <ele>309</ele>
        <time>2016-05-15T07:51:28.000Z</time>
      </trkpt>
      <trkpt lat="47.47451" lon="6.7419">
        <ele>309</ele>
        <time>2016-05-15T07:51:29.000Z</time>
      </trkpt>
      <trkpt lat="47.47447" lon="6.74192">
        <ele>309</ele>
        <time>2016-05-15T07:51:30.000Z</time>
      </trkpt>
      <trkpt lat="47.47443" lon="6.74195">
        <ele>309</ele>
        <time>2016-05-15T07:51:31.000Z</time>
      </trkpt>
      <trkpt lat="47.4744" lon="6.74198">
        <ele>309</ele>
        <time>2016-05-15T07:51:32.000Z</time>
      </trkpt>
      <trkpt lat="47.47435" lon="6.742">
        <ele>309</ele>
        <time>2016-05-15T07:51:33.000Z</time>
      </trkpt>
      <trkpt lat="47.47431" lon="6.74203">
        <ele>309</ele>
        <time>2016-05-15T07:51:34.000Z</time>
      </trkpt>
      <trkpt lat="47.47427" lon="6.74205">
        <ele>309</ele>
        <time>2016-05-15T07:51:35.000Z</time>
      </trkpt>
      <trkpt lat="47.47423" lon="6.74207">
        <ele>309</ele>
        <time>2016-05-15T07:51:36.000Z</time>
      </trkpt>
      <trkpt lat="47.47418" lon="6.74208">
        <ele>310</ele>
        <time>2016-05-15T07:51:37.000Z</time>
      </trkpt>
      <trkpt lat="47.47414" lon="6.74209">
        <ele>310</ele>
        <time>2016-05-15T07:51:38.000Z</time>
      </trkpt>
      <trkpt lat="47.4741" lon="6.7421">
        <ele>310</ele>
        <time>2016-05-15T07:51:39.000Z</time>
      </trkpt>
      <trkpt lat="47.47406" lon="6.74212">
        <ele>310</ele>
        <time>2016-05-15T07:51:40.000Z</time>
      </trkpt>
      <trkpt lat="47.47402" lon="6.74214">
        <ele>310</ele>
        <time>2016-05-15T07:51:41.000Z</time>
      </trkpt>
      <trkpt lat="47.47397" lon="6.74217">
        <ele>310</ele>
        <time>2016-05-15T07:51:42.000Z</time>
      </trkpt>
      <trkpt lat="47.47392" lon="6.7422">
        <ele>310</ele>
        <time>2016-05-15T07:51:43.000Z</time>
      </trkpt>
      <trkpt lat="47.47388" lon="6.74222">
        <ele>310</ele>
        <time>2016-05-15T07:51:44.000Z</time>
      </trkpt>
      <trkpt lat="47.47383" lon="6.74224">
        <ele>310</ele>
        <time>2016-05-15T07:51:45.000Z</time>
      </trkpt>
      <trkpt lat="47.47378" lon="6.74228">
        <ele>310</ele>
        <time>2016-05-15T07:51:46.000Z</time>
      </trkpt>
      <trkpt lat="47.47374" lon="6.7423">
        <ele>310</ele>
        <time>2016-05-15T07:51:47.000Z</time>
      </trkpt>
      <trkpt lat="47.4737" lon="6.74233">
        <ele>310</ele>
        <time>2016-05-15T07:51:48.000Z</time>
      </trkpt>
      <trkpt lat="47.47365" lon="6.74237">
        <ele>310</ele>
        <time>2016-05-15T07:51:49.000Z</time>
      </trkpt>
      <trkpt lat="47.4736" lon="6.7424">
        <ele>310</ele>
        <time>2016-05-15T07:51:50.000Z</time>
      </trkpt>
      <trkpt lat="47.47355" lon="6.74242">
        <ele>310</ele>
        <time>2016-05-15T07:51:51.000Z</time>
      </trkpt>
      <trkpt lat="47.47351" lon="6.74245">
        <ele>311</ele>
        <time>2016-05-15T07:51:52.000Z</time>
      </trkpt>
      <trkpt lat="47.47347" lon="6.74248">
        <ele>311</ele>
        <time>2016-05-15T07:51:53.000Z</time>
      </trkpt>
      <trkpt lat="47.47342" lon="6.74251">
        <ele>311</ele>
        <time>2016-05-15T07:51:54.000Z</time>
      </trkpt>
      <trkpt lat="47.47338" lon="6.74254">
        <ele>311</ele>
        <time>2016-05-15T07:51:55.000Z</time>
      </trkpt>
      <trkpt lat="47.47333" lon="6.74257">
        <ele>311</ele>
        <time>2016-05-15T07:51:56.000Z</time>
      </trkpt>
      <trkpt lat="47.47328" lon="6.7426">
        <ele>312</ele>
        <time>2016-05-15T07:51:57.000Z</time>
      </trkpt>
      <trkpt lat="47.47324" lon="6.74264">
        <ele>312</ele>
        <time>2016-05-15T07:51:58.000Z</time>
      </trkpt>
      <trkpt lat="47.47318" lon="6.74267">
        <ele>312</ele>
        <time>2016-05-15T07:51:59.000Z</time>
      </trkpt>
      <trkpt lat="47.47313" lon="6.74269">
        <ele>312</ele>
        <time>2016-05-15T07:52:00.000Z</time>
      </trkpt>
      <trkpt lat="47.4731" lon="6.74271">
        <ele>312</ele>
        <time>2016-05-15T07:52:01.000Z</time>
      </trkpt>
      <trkpt lat="47.47304" lon="6.74271">
        <ele>312</ele>
        <time>2016-05-15T07:52:02.000Z</time>
      </trkpt>
      <trkpt lat="47.473" lon="6.74271">
        <ele>312</ele>
        <time>2016-05-15T07:52:03.000Z</time>
      </trkpt>
      <trkpt lat="47.47295" lon="6.74272">
        <ele>312</ele>
        <time>2016-05-15T07:52:04.000Z</time>
      </trkpt>
      <trkpt lat="47.4729" lon="6.74273">
        <ele>312</ele>
        <time>2016-05-15T07:52:05.000Z</time>
      </trkpt>
      <trkpt lat="47.47285" lon="6.74274">
        <ele>312</ele>
        <time>2016-05-15T07:52:06.000Z</time>
      </trkpt>
      <trkpt lat="47.47279" lon="6.74274">
        <ele>313</ele>
        <time>2016-05-15T07:52:07.000Z</time>
      </trkpt>
      <trkpt lat="47.47274" lon="6.74275">
        <ele>313</ele>
        <time>2016-05-15T07:52:08.000Z</time>
      </trkpt>
      <trkpt lat="47.47269" lon="6.74278">
        <ele>313</ele>
        <time>2016-05-15T07:52:09.000Z</time>
      </trkpt>
      <trkpt lat="47.47266" lon="6.7428">
        <ele>313</ele>
        <time>2016-05-15T07:52:10.000Z</time>
      </trkpt>
      <trkpt lat="47.47262" lon="6.74283">
        <ele>313</ele>
        <time>2016-05-15T07:52:11.000Z</time>
      </trkpt>
      <trkpt lat="47.47261" lon="6.74287">
        <ele>313</ele>
        <time>2016-05-15T07:52:12.000Z</time>
      </trkpt>
      <trkpt lat="47.47266" lon="6.74297">
        <ele>313</ele>
        <time>2016-05-15T07:52:13.000Z</time>
      </trkpt>
      <trkpt lat="47.47264" lon="6.74303">
        <ele>313</ele>
        <time>2016-05-15T07:52:14.000Z</time>
      </trkpt>
      <trkpt lat="47.47263" lon="6.74308">
        <ele>313</ele>
        <time>2016-05-15T07:52:15.000Z</time>
      </trkpt>
      <trkpt lat="47.47262" lon="6.74313">
        <ele>313</ele>
        <time>2016-05-15T07:52:16.000Z</time>
      </trkpt>
      <trkpt lat="47.47264" lon="6.7432">
        <ele>313</ele>
        <time>2016-05-15T07:52:17.000Z</time>
      </trkpt>
      <trkpt lat="47.47264" lon="6.74325">
        <ele>313</ele>
        <time>2016-05-15T07:52:18.000Z</time>
      </trkpt>
      <trkpt lat="47.47264" lon="6.7433">
        <ele>313</ele>
        <time>2016-05-15T07:52:19.000Z</time>
      </trkpt>
      <trkpt lat="47.47262" lon="6.74335">
        <ele>314</ele>
        <time>2016-05-15T07:52:20.000Z</time>
      </trkpt>
      <trkpt lat="47.47261" lon="6.74339">
        <ele>314</ele>
        <time>2016-05-15T07:52:21.000Z</time>
      </trkpt>
      <trkpt lat="47.4726" lon="6.74344">
        <ele>314</ele>
        <time>2016-05-15T07:52:22.000Z</time>
      </trkpt>
      <trkpt lat="47.47258" lon="6.74349">
        <ele>314</ele>
        <time>2016-05-15T07:52:23.000Z</time>
      </trkpt>
      <trkpt lat="47.47254" lon="6.74353">
        <ele>314</ele>
        <time>2016-05-15T07:52:24.000Z</time>
      </trkpt>
      <trkpt lat="47.47251" lon="6.74356">
        <ele>314</ele>
        <time>2016-05-15T07:52:25.000Z</time>
      </trkpt>
      <trkpt lat="47.47247" lon="6.74359">
        <ele>317</ele>
        <time>2016-05-15T07:52:26.000Z</time>
      </trkpt>
      <trkpt lat="47.47243" lon="6.74362">
        <ele>317</ele>
        <time>2016-05-15T07:52:27.000Z</time>
      </trkpt>
      <trkpt lat="47.47239" lon="6.74364">
        <ele>317</ele>
        <time>2016-05-15T07:52:28.000Z</time>
      </trkpt>
      <trkpt lat="47.47235" lon="6.74366">
        <ele>317</ele>
        <time>2016-05-15T07:52:29.000Z</time>
      </trkpt>
      <trkpt lat="47.47233" lon="6.74368">
        <ele>318</ele>
        <time>2016-05-15T07:52:30.000Z</time>
      </trkpt>
      <trkpt lat="47.4723" lon="6.7437">
        <ele>318</ele>
        <time>2016-05-15T07:52:31.000Z</time>
      </trkpt>
      <trkpt lat="47.47228" lon="6.74371">
        <ele>318</ele>
        <time>2016-05-15T07:52:32.000Z</time>
      </trkpt>
      <trkpt lat="47.47225" lon="6.74372">
        <ele>318</ele>
        <time>2016-05-15T07:52:33.000Z</time>
      </trkpt>
      <trkpt lat="47.47221" lon="6.74372">
        <ele>318</ele>
        <time>2016-05-15T07:52:34.000Z</time>
      </trkpt>
      <trkpt lat="47.47217" lon="6.74372">
        <ele>318</ele>
        <time>2016-05-15T07:52:35.000Z</time>
      </trkpt>
      <trkpt lat="47.47214" lon="6.74371">
        <ele>318</ele>
        <time>2016-05-15T07:52:36.000Z</time>
      </trkpt>
      <trkpt lat="47.4721" lon="6.74372">
        <ele>319</ele>
        <time>2016-05-15T07:52:37.000Z</time>
      </trkpt>
      <trkpt lat="47.47207" lon="6.74372">
        <ele>319</ele>
        <time>2016-05-15T07:52:38.000Z</time>
      </trkpt>
      <trkpt lat="47.47204" lon="6.74373">
        <ele>319</ele>
        <time>2016-05-15T07:52:39.000Z</time>
      </trkpt>
      <trkpt lat="47.472" lon="6.74375">
        <ele>319</ele>
        <time>2016-05-15T07:52:40.000Z</time>
      </trkpt>
      <trkpt lat="47.47197" lon="6.74375">
        <ele>319</ele>
        <time>2016-05-15T07:52:41.000Z</time>
      </trkpt>
      <trkpt lat="47.47194" lon="6.74376">
        <ele>319</ele>
        <time>2016-05-15T07:52:42.000Z</time>
      </trkpt>
      <trkpt lat="47.47191" lon="6.74377">
        <ele>319</ele>
        <time>2016-05-15T07:52:43.000Z</time>
      </trkpt>
      <trkpt lat="47.47188" lon="6.74377">
        <ele>320</ele>
        <time>2016-05-15T07:52:44.000Z</time>
      </trkpt>
      <trkpt lat="47.47185" lon="6.74378">
        <ele>320</ele>
        <time>2016-05-15T07:52:45.000Z</time>
      </trkpt>
      <trkpt lat="47.47182" lon="6.74378">
        <ele>320</ele>
        <time>2016-05-15T07:52:46.000Z</time>
      </trkpt>
      <trkpt lat="47.47179" lon="6.74378">
        <ele>320</ele>
        <time>2016-05-15T07:52:47.000Z</time>
      </trkpt>
      <trkpt lat="47.47176" lon="6.74378">
        <ele>320</ele>
        <time>2016-05-15T07:52:48.000Z</time>
      </trkpt>
      <trkpt lat="47.47173" lon="6.74377">
        <ele>320</ele>
        <time>2016-05-15T07:52:49.000Z</time>
      </trkpt>
      <trkpt lat="47.4717" lon="6.74377">
        <ele>320</ele>
        <time>2016-05-15T07:52:50.000Z</time>
      </trkpt>
      <trkpt lat="47.47167" lon="6.74377">
        <ele>320</ele>
        <time>2016-05-15T07:52:51.000Z</time>
      </trkpt>
      <trkpt lat="47.47164" lon="6.74377">
        <ele>324</ele>
        <time>2016-05-15T07:52:52.000Z</time>
      </trkpt>
      <trkpt lat="47.47161" lon="6.74377">
        <ele>325</ele>
        <time>2016-05-15T07:52:53.000Z</time>
      </trkpt>
      <trkpt lat="47.47159" lon="6.74377">
        <ele>325</ele>
        <time>2016-05-15T07:52:54.000Z</time>
      </trkpt>
      <trkpt lat="47.47156" lon="6.74378">
        <ele>325</ele>
        <time>2016-05-15T07:52:55.000Z</time>
      </trkpt>
      <trkpt lat="47.47153" lon="6.74379">
        <ele>325</ele>
        <time>2016-05-15T07:52:56.000Z</time>
      </trkpt>
      <trkpt lat="47.47151" lon="6.7438">
        <ele>325</ele>
        <time>2016-05-15T07:52:57.000Z</time>
      </trkpt>
      <trkpt lat="47.47148" lon="6.74382">
        <ele>325</ele>
        <time>2016-05-15T07:52:58.000Z</time>
      </trkpt>
      <trkpt lat="47.47146" lon="6.74383">
        <ele>325</ele>
        <time>2016-05-15T07:52:59.000Z</time>
      </trkpt>
      <trkpt lat="47.47143" lon="6.74383">
        <ele>325</ele>
        <time>2016-05-15T07:53:00.000Z</time>
      </trkpt>
      <trkpt lat="47.47141" lon="6.74383">
        <ele>325</ele>
        <time>2016-05-15T07:53:01.000Z</time>
      </trkpt>
      <trkpt lat="47.47138" lon="6.74384">
        <ele>325</ele>
        <time>2016-05-15T07:53:02.000Z</time>
      </trkpt>
      <trkpt lat="47.47135" lon="6.74384">
        <ele>326</ele>
        <time>2016-05-15T07:53:03.000Z</time>
      </trkpt>
      <trkpt lat="47.47132" lon="6.74384">
        <ele>326</ele>
        <time>2016-05-15T07:53:04.000Z</time>
      </trkpt>
      <trkpt lat="47.47129" lon="6.74384">
        <ele>326</ele>
        <time>2016-05-15T07:53:05.000Z</time>
      </trkpt>
      <trkpt lat="47.47125" lon="6.74385">
        <ele>326</ele>
        <time>2016-05-15T07:53:07.000Z</time>
      </trkpt>
      <trkpt lat="47.47123" lon="6.74385">
        <ele>326</ele>
        <time>2016-05-15T07:53:08.000Z</time>
      </trkpt>
      <trkpt lat="47.47119" lon="6.74387">
        <ele>326</ele>
        <time>2016-05-15T07:53:10.000Z</time>
      </trkpt>
      <trkpt lat="47.47118" lon="6.74388">
        <ele>327</ele>
        <time>2016-05-15T07:53:11.000Z</time>
      </trkpt>
      <trkpt lat="47.47115" lon="6.74389">
        <ele>327</ele>
        <time>2016-05-15T07:53:13.000Z</time>
      </trkpt>
      <trkpt lat="47.47113" lon="6.7439">
        <ele>327</ele>
        <time>2016-05-15T07:53:14.000Z</time>
      </trkpt>
      <trkpt lat="47.4711" lon="6.74391">
        <ele>327</ele>
        <time>2016-05-15T07:53:16.000Z</time>
      </trkpt>
      <trkpt lat="47.47108" lon="6.74391">
        <ele>327</ele>
        <time>2016-05-15T07:53:17.000Z</time>
      </trkpt>
      <trkpt lat="47.47105" lon="6.74393">
        <ele>327</ele>
        <time>2016-05-15T07:53:20.000Z</time>
      </trkpt>
      <trkpt lat="47.47104" lon="6.74394">
        <ele>328</ele>
        <time>2016-05-15T07:53:21.000Z</time>
      </trkpt>
      <trkpt lat="47.471" lon="6.74396">
        <ele>328</ele>
        <time>2016-05-15T07:53:23.000Z</time>
      </trkpt>
      <trkpt lat="47.47098" lon="6.74396">
        <ele>328</ele>
        <time>2016-05-15T07:53:24.000Z</time>
      </trkpt>
      <trkpt lat="47.47094" lon="6.74398">
        <ele>328</ele>
        <time>2016-05-15T07:53:26.000Z</time>
      </trkpt>
      <trkpt lat="47.47091" lon="6.74398">
        <ele>329</ele>
        <time>2016-05-15T07:53:27.000Z</time>
      </trkpt>
      <trkpt lat="47.47089" lon="6.74399">
        <ele>329</ele>
        <time>2016-05-15T07:53:28.000Z</time>
      </trkpt>
      <trkpt lat="47.47086" lon="6.744">
        <ele>329</ele>
        <time>2016-05-15T07:53:29.000Z</time>
      </trkpt>
      <trkpt lat="47.47083" lon="6.744">
        <ele>334</ele>
        <time>2016-05-15T07:53:30.000Z</time>
      </trkpt>
      <trkpt lat="47.47081" lon="6.74401">
        <ele>334</ele>
        <time>2016-05-15T07:53:31.000Z</time>
      </trkpt>
      <trkpt lat="47.47079" lon="6.74403">
        <ele>334</ele>
        <time>2016-05-15T07:53:32.000Z</time>
      </trkpt>
      <trkpt lat="47.47077" lon="6.74404">
        <ele>334</ele>
        <time>2016-05-15T07:53:33.000Z</time>
      </trkpt>
      <trkpt lat="47.47074" lon="6.74406">
        <ele>334</ele>
        <time>2016-05-15T07:53:34.000Z</time>
      </trkpt>
      <trkpt lat="47.47072" lon="6.74407">
        <ele>334</ele>
        <time>2016-05-15T07:53:35.000Z</time>
      </trkpt>
      <trkpt lat="47.47069" lon="6.74408">
        <ele>334</ele>
        <time>2016-05-15T07:53:36.000Z</time>
      </trkpt>
      <trkpt lat="47.47066" lon="6.74409">
        <ele>335</ele>
        <time>2016-05-15T07:53:37.000Z</time>
      </trkpt>
      <trkpt lat="47.47063" lon="6.7441">
        <ele>335</ele>
        <time>2016-05-15T07:53:38.000Z</time>
      </trkpt>
      <trkpt lat="47.47061" lon="6.74411">
        <ele>335</ele>
        <time>2016-05-15T07:53:39.000Z</time>
      </trkpt>
      <trkpt lat="47.47057" lon="6.74412">
        <ele>336</ele>
        <time>2016-05-15T07:53:41.000Z</time>
      </trkpt>
      <trkpt lat="47.47055" lon="6.74414">
        <ele>336</ele>
        <time>2016-05-15T07:53:42.000Z</time>
      </trkpt>
      <trkpt lat="47.47051" lon="6.74417">
        <ele>339</ele>
        <time>2016-05-15T07:53:44.000Z</time>
      </trkpt>
      <trkpt lat="47.4705" lon="6.74419">
        <ele>340</ele>
        <time>2016-05-15T07:53:45.000Z</time>
      </trkpt>
      <trkpt lat="47.47047" lon="6.74422">
        <ele>340</ele>
        <time>2016-05-15T07:53:47.000Z</time>
      </trkpt>
      <trkpt lat="47.47046" lon="6.74424">
        <ele>340</ele>
        <time>2016-05-15T07:53:48.000Z</time>
      </trkpt>
      <trkpt lat="47.47043" lon="6.74428">
        <ele>341</ele>
        <time>2016-05-15T07:53:50.000Z</time>
      </trkpt>
      <trkpt lat="47.47041" lon="6.74431">
        <ele>341</ele>
        <time>2016-05-15T07:53:51.000Z</time>
      </trkpt>
      <trkpt lat="47.47039" lon="6.74436">
        <ele>341</ele>
        <time>2016-05-15T07:53:54.000Z</time>
      </trkpt>
      <trkpt lat="47.47039" lon="6.74438">
        <ele>341</ele>
        <time>2016-05-15T07:53:55.000Z</time>
      </trkpt>
      <trkpt lat="47.47037" lon="6.74443">
        <ele>341</ele>
        <time>2016-05-15T07:53:58.000Z</time>
      </trkpt>
      <trkpt lat="47.47036" lon="6.74445">
        <ele>341</ele>
        <time>2016-05-15T07:53:59.000Z</time>
      </trkpt>
      <trkpt lat="47.47033" lon="6.74448">
        <ele>342</ele>
        <time>2016-05-15T07:54:01.000Z</time>
      </trkpt>
      <trkpt lat="47.47032" lon="6.74449">
        <ele>342</ele>
        <time>2016-05-15T07:54:02.000Z</time>
      </trkpt>
      <trkpt lat="47.47029" lon="6.74451">
        <ele>342</ele>
        <time>2016-05-15T07:54:04.000Z</time>
      </trkpt>
      <trkpt lat="47.47027" lon="6.74452">
        <ele>342</ele>
        <time>2016-05-15T07:54:05.000Z</time>
      </trkpt>
      <trkpt lat="47.47024" lon="6.74455">
        <ele>342</ele>
        <time>2016-05-15T07:54:07.000Z</time>
      </trkpt>
      <trkpt lat="47.47023" lon="6.74457">
        <ele>342</ele>
        <time>2016-05-15T07:54:08.000Z</time>
      </trkpt>
      <trkpt lat="47.47021" lon="6.74461">
        <ele>343</ele>
        <time>2016-05-15T07:54:10.000Z</time>
      </trkpt>
      <trkpt lat="47.4702" lon="6.74463">
        <ele>343</ele>
        <time>2016-05-15T07:54:11.000Z</time>
      </trkpt>
      <trkpt lat="47.47019" lon="6.74467">
        <ele>343</ele>
        <time>2016-05-15T07:54:13.000Z</time>
      </trkpt>
      <trkpt lat="47.47018" lon="6.7447">
        <ele>343</ele>
        <time>2016-05-15T07:54:14.000Z</time>
      </trkpt>
      <trkpt lat="47.47017" lon="6.74473">
        <ele>343</ele>
        <time>2016-05-15T07:54:16.000Z</time>
      </trkpt>
      <trkpt lat="47.47016" lon="6.74475">
        <ele>343</ele>
        <time>2016-05-15T07:54:17.000Z</time>
      </trkpt>
      <trkpt lat="47.47014" lon="6.74479">
        <ele>344</ele>
        <time>2016-05-15T07:54:19.000Z</time>
      </trkpt>
      <trkpt lat="47.47013" lon="6.74481">
        <ele>344</ele>
        <time>2016-05-15T07:54:20.000Z</time>
      </trkpt>
      <trkpt lat="47.47011" lon="6.74485">
        <ele>344</ele>
        <time>2016-05-15T07:54:22.000Z</time>
      </trkpt>
      <trkpt lat="47.47009" lon="6.74487">
        <ele>344</ele>
        <time>2016-05-15T07:54:23.000Z</time>
      </trkpt>
      <trkpt lat="47.47008" lon="6.74491">
        <ele>345</ele>
        <time>2016-05-15T07:54:25.000Z</time>
      </trkpt>
      <trkpt lat="47.47008" lon="6.74493">
        <ele>345</ele>
        <time>2016-05-15T07:54:26.000Z</time>
      </trkpt>
      <trkpt lat="47.47005" lon="6.74497">
        <ele>346</ele>
        <time>2016-05-15T07:54:29.000Z</time>
      </trkpt>
      <trkpt lat="47.47004" lon="6.74498">
        <ele>346</ele>
        <time>2016-05-15T07:54:30.000Z</time>
      </trkpt>
      <trkpt lat="47.47001" lon="6.745">
        <ele>347</ele>
        <time>2016-05-15T07:54:33.000Z</time>
      </trkpt>
      <trkpt lat="47.47" lon="6.74502">
        <ele>347</ele>
        <time>2016-05-15T07:54:34.000Z</time>
      </trkpt>
      <trkpt lat="47.46997" lon="6.74506">
        <ele>347</ele>
        <time>2016-05-15T07:54:38.000Z</time>
      </trkpt>
      <trkpt lat="47.46995" lon="6.74507">
        <ele>347</ele>
        <time>2016-05-15T07:54:39.000Z</time>
      </trkpt>
      <trkpt lat="47.46991" lon="6.74509">
        <ele>347</ele>
        <time>2016-05-15T07:54:42.000Z</time>
      </trkpt>
      <trkpt lat="47.4699" lon="6.74511">
        <ele>347</ele>
        <time>2016-05-15T07:54:43.000Z</time>
      </trkpt>
      <trkpt lat="47.46988" lon="6.74514">
        <ele>347</ele>
        <time>2016-05-15T07:54:45.000Z</time>
      </trkpt>
      <trkpt lat="47.46986" lon="6.74514">
        <ele>347</ele>
        <time>2016-05-15T07:54:46.000Z</time>
      </trkpt>
      <trkpt lat="47.46983" lon="6.74514">
        <ele>347</ele>
        <time>2016-05-15T07:54:47.000Z</time>
      </trkpt>
      <trkpt lat="47.46981" lon="6.74514">
        <ele>347</ele>
        <time>2016-05-15T07:54:48.000Z</time>
      </trkpt>
      <trkpt lat="47.46977" lon="6.74515">
        <ele>347</ele>
        <time>2016-05-15T07:54:50.000Z</time>
      </trkpt>
      <trkpt lat="47.46976" lon="6.74517">
        <ele>348</ele>
        <time>2016-05-15T07:54:51.000Z</time>
      </trkpt>
      <trkpt lat="47.46972" lon="6.7452">
        <ele>348</ele>
        <time>2016-05-15T07:54:53.000Z</time>
      </trkpt>
      <trkpt lat="47.46971" lon="6.74521">
        <ele>348</ele>
        <time>2016-05-15T07:54:54.000Z</time>
      </trkpt>
      <trkpt lat="47.46967" lon="6.74522">
        <ele>348</ele>
        <time>2016-05-15T07:54:56.000Z</time>
      </trkpt>
      <trkpt lat="47.46965" lon="6.74522">
        <ele>348</ele>
        <time>2016-05-15T07:54:57.000Z</time>
      </trkpt>
      <trkpt lat="47.46962" lon="6.74525">
        <ele>348</ele>
        <time>2016-05-15T07:54:59.000Z</time>
      </trkpt>
      <trkpt lat="47.4696" lon="6.74527">
        <ele>348</ele>
        <time>2016-05-15T07:55:00.000Z</time>
      </trkpt>
      <trkpt lat="47.46957" lon="6.74529">
        <ele>348</ele>
        <time>2016-05-15T07:55:02.000Z</time>
      </trkpt>
      <trkpt lat="47.46955" lon="6.7453">
        <ele>348</ele>
        <time>2016-05-15T07:55:03.000Z</time>
      </trkpt>
      <trkpt lat="47.46951" lon="6.74534">
        <ele>348</ele>
        <time>2016-05-15T07:55:05.000Z</time>
      </trkpt>
      <trkpt lat="47.46949" lon="6.74536">
        <ele>348</ele>
        <time>2016-05-15T07:55:06.000Z</time>
      </trkpt>
      <trkpt lat="47.46946" lon="6.74537">
        <ele>348</ele>
        <time>2016-05-15T07:55:07.000Z</time>
      </trkpt>
      <trkpt lat="47.46944" lon="6.74539">
        <ele>348</ele>
        <time>2016-05-15T07:55:08.000Z</time>
      </trkpt>
      <trkpt lat="47.46941" lon="6.7454">
        <ele>348</ele>
        <time>2016-05-15T07:55:09.000Z</time>
      </trkpt>
      <trkpt lat="47.46938" lon="6.7454">
        <ele>348</ele>
        <time>2016-05-15T07:55:10.000Z</time>
      </trkpt>
      <trkpt lat="47.46936" lon="6.7454">
        <ele>348</ele>
        <time>2016-05-15T07:55:11.000Z</time>
      </trkpt>
      <trkpt lat="47.46934" lon="6.7454">
        <ele>348</ele>
        <time>2016-05-15T07:55:12.000Z</time>
      </trkpt>
      <trkpt lat="47.46932" lon="6.74539">
        <ele>348</ele>
        <time>2016-05-15T07:55:13.000Z</time>
      </trkpt>
      <trkpt lat="47.4693" lon="6.74536">
        <ele>348</ele>
        <time>2016-05-15T07:55:14.000Z</time>
      </trkpt>
      <trkpt lat="47.46928" lon="6.74532">
        <ele>349</ele>
        <time>2016-05-15T07:55:15.000Z</time>
      </trkpt>
      <trkpt lat="47.46927" lon="6.74529">
        <ele>349</ele>
        <time>2016-05-15T07:55:16.000Z</time>
      </trkpt>
      <trkpt lat="47.46927" lon="6.74525">
        <ele>349</ele>
        <time>2016-05-15T07:55:17.000Z</time>
      </trkpt>
      <trkpt lat="47.46926" lon="6.74521">
        <ele>349</ele>
        <time>2016-05-15T07:55:18.000Z</time>
      </trkpt>
      <trkpt lat="47.46925" lon="6.74518">
        <ele>350</ele>
        <time>2016-05-15T07:55:19.000Z</time>
      </trkpt>
      <trkpt lat="47.46924" lon="6.74514">
        <ele>350</ele>
        <time>2016-05-15T07:55:20.000Z</time>
      </trkpt>
      <trkpt lat="47.46922" lon="6.7451">
        <ele>350</ele>
        <time>2016-05-15T07:55:21.000Z</time>
      </trkpt>
      <trkpt lat="47.46921" lon="6.74506">
        <ele>351</ele>
        <time>2016-05-15T07:55:22.000Z</time>
      </trkpt>
      <trkpt lat="47.46921" lon="6.74502">
        <ele>351</ele>
        <time>2016-05-15T07:55:23.000Z</time>
      </trkpt>
      <trkpt lat="47.46919" lon="6.74499">
        <ele>352</ele>
        <time>2016-05-15T07:55:24.000Z</time>
      </trkpt>
      <trkpt lat="47.46918" lon="6.74496">
        <ele>352</ele>
        <time>2016-05-15T07:55:25.000Z</time>
      </trkpt>
      <trkpt lat="47.46916" lon="6.74493">
        <ele>355</ele>
        <time>2016-05-15T07:55:26.000Z</time>
      </trkpt>
      <trkpt lat="47.46915" lon="6.7449">
        <ele>356</ele>
        <time>2016-05-15T07:55:27.000Z</time>
      </trkpt>
      <trkpt lat="47.46914" lon="6.74487">
        <ele>357</ele>
        <time>2016-05-15T07:55:28.000Z</time>
      </trkpt>
      <trkpt lat="47.46912" lon="6.74482">
        <ele>359</ele>
        <time>2016-05-15T07:55:30.000Z</time>
      </trkpt>
      <trkpt lat="47.46911" lon="6.74479">
        <ele>359</ele>
        <time>2016-05-15T07:55:31.000Z</time>
      </trkpt>
      <trkpt lat="47.46909" lon="6.74474">
        <ele>360</ele>
        <time>2016-05-15T07:55:33.000Z</time>
      </trkpt>
      <trkpt lat="47.46908" lon="6.74472">
        <ele>361</ele>
        <time>2016-05-15T07:55:34.000Z</time>
      </trkpt>
      <trkpt lat="47.46906" lon="6.74467">
        <ele>361</ele>
        <time>2016-05-15T07:55:36.000Z</time>
      </trkpt>
      <trkpt lat="47.46905" lon="6.74464">
        <ele>362</ele>
        <time>2016-05-15T07:55:37.000Z</time>
      </trkpt>
      <trkpt lat="47.46903" lon="6.74459">
        <ele>362</ele>
        <time>2016-05-15T07:55:39.000Z</time>
      </trkpt>
      <trkpt lat="47.46902" lon="6.74456">
        <ele>362</ele>
        <time>2016-05-15T07:55:40.000Z</time>
      </trkpt>
      <trkpt lat="47.46901" lon="6.74452">
        <ele>363</ele>
        <time>2016-05-15T07:55:42.000Z</time>
      </trkpt>
      <trkpt lat="47.469" lon="6.7445">
        <ele>363</ele>
        <time>2016-05-15T07:55:43.000Z</time>
      </trkpt>
      <trkpt lat="47.46898" lon="6.74444">
        <ele>363</ele>
        <time>2016-05-15T07:55:46.000Z</time>
      </trkpt>
      <trkpt lat="47.46898" lon="6.74443">
        <ele>363</ele>
        <time>2016-05-15T07:55:47.000Z</time>
      </trkpt>
      <trkpt lat="47.46896" lon="6.74439">
        <ele>363</ele>
        <time>2016-05-15T07:55:49.000Z</time>
      </trkpt>
      <trkpt lat="47.46896" lon="6.74436">
        <ele>363</ele>
        <time>2016-05-15T07:55:50.000Z</time>
      </trkpt>
      <trkpt lat="47.46894" lon="6.74431">
        <ele>363</ele>
        <time>2016-05-15T07:55:52.000Z</time>
      </trkpt>
      <trkpt lat="47.46893" lon="6.74428">
        <ele>363</ele>
        <time>2016-05-15T07:55:53.000Z</time>
      </trkpt>
      <trkpt lat="47.4689" lon="6.74423">
        <ele>364</ele>
        <time>2016-05-15T07:55:56.000Z</time>
      </trkpt>
      <trkpt lat="47.46889" lon="6.74422">
        <ele>364</ele>
        <time>2016-05-15T07:55:57.000Z</time>
      </trkpt>
      <trkpt lat="47.46887" lon="6.74418">
        <ele>364</ele>
        <time>2016-05-15T07:55:59.000Z</time>
      </trkpt>
      <trkpt lat="47.46886" lon="6.74416">
        <ele>370</ele>
        <time>2016-05-15T07:56:00.000Z</time>
      </trkpt>
      <trkpt lat="47.46886" lon="6.74413">
        <ele>371</ele>
        <time>2016-05-15T07:56:01.000Z</time>
      </trkpt>
      <trkpt lat="47.46886" lon="6.74409">
        <ele>371</ele>
        <time>2016-05-15T07:56:02.000Z</time>
      </trkpt>
      <trkpt lat="47.46886" lon="6.74402">
        <ele>371</ele>
        <time>2016-05-15T07:56:04.000Z</time>
      </trkpt>
      <trkpt lat="47.46886" lon="6.744">
        <ele>371</ele>
        <time>2016-05-15T07:56:05.000Z</time>
      </trkpt>
      <trkpt lat="47.46885" lon="6.74396">
        <ele>372</ele>
        <time>2016-05-15T07:56:07.000Z</time>
      </trkpt>
      <trkpt lat="47.46885" lon="6.74393">
        <ele>372</ele>
        <time>2016-05-15T07:56:08.000Z</time>
      </trkpt>
      <trkpt lat="47.46886" lon="6.74388">
        <ele>372</ele>
        <time>2016-05-15T07:56:10.000Z</time>
      </trkpt>
      <trkpt lat="47.46886" lon="6.74386">
        <ele>373</ele>
        <time>2016-05-15T07:56:11.000Z</time>
      </trkpt>
      <trkpt lat="47.46887" lon="6.7438">
        <ele>373</ele>
        <time>2016-05-15T07:56:15.000Z</time>
      </trkpt>
      <trkpt lat="47.46887" lon="6.74379">
        <ele>373</ele>
        <time>2016-05-15T07:56:16.000Z</time>
      </trkpt>
      <trkpt lat="47.46884" lon="6.74374">
        <ele>374</ele>
        <time>2016-05-15T07:56:20.000Z</time>
      </trkpt>
      <trkpt lat="47.46884" lon="6.74373">
        <ele>374</ele>
        <time>2016-05-15T07:56:21.000Z</time>
      </trkpt>
      <trkpt lat="47.46882" lon="6.74368">
        <ele>375</ele>
        <time>2016-05-15T07:56:25.000Z</time>
      </trkpt>
      <trkpt lat="47.46882" lon="6.74366">
        <ele>375</ele>
        <time>2016-05-15T07:56:26.000Z</time>
      </trkpt>
      <trkpt lat="47.46881" lon="6.7436">
        <ele>375</ele>
        <time>2016-05-15T07:56:29.000Z</time>
      </trkpt>
      <trkpt lat="47.46881" lon="6.74359">
        <ele>375</ele>
        <time>2016-05-15T07:56:30.000Z</time>
      </trkpt>
      <trkpt lat="47.46882" lon="6.74354">
        <ele>375</ele>
        <time>2016-05-15T07:56:33.000Z</time>
      </trkpt>
      <trkpt lat="47.46883" lon="6.74352">
        <ele>375</ele>
        <time>2016-05-15T07:56:34.000Z</time>
      </trkpt>
      <trkpt lat="47.46884" lon="6.74349">
        <ele>375</ele>
        <time>2016-05-15T07:56:36.000Z</time>
      </trkpt>
      <trkpt lat="47.46885" lon="6.74346">
        <ele>375</ele>
        <time>2016-05-15T07:56:37.000Z</time>
      </trkpt>
      <trkpt lat="47.46886" lon="6.7434">
        <ele>375</ele>
        <time>2016-05-15T07:56:40.000Z</time>
      </trkpt>
      <trkpt lat="47.46886" lon="6.74339">
        <ele>375</ele>
        <time>2016-05-15T07:56:41.000Z</time>
      </trkpt>
      <trkpt lat="47.46887" lon="6.74334">
        <ele>374</ele>
        <time>2016-05-15T07:56:44.000Z</time>
      </trkpt>
      <trkpt lat="47.46888" lon="6.74332">
        <ele>380</ele>
        <time>2016-05-15T07:56:45.000Z</time>
      </trkpt>
      <trkpt lat="47.46887" lon="6.74325">
        <ele>380</ele>
        <time>2016-05-15T07:56:48.000Z</time>
      </trkpt>
      <trkpt lat="47.46886" lon="6.74323">
        <ele>381</ele>
        <time>2016-05-15T07:56:49.000Z</time>
      </trkpt>
      <trkpt lat="47.46885" lon="6.74318">
        <ele>381</ele>
        <time>2016-05-15T07:56:53.000Z</time>
      </trkpt>
      <trkpt lat="47.46885" lon="6.74316">
        <ele>382</ele>
        <time>2016-05-15T07:56:54.000Z</time>
      </trkpt>
      <trkpt lat="47.46886" lon="6.7431">
        <ele>382</ele>
        <time>2016-05-15T07:56:58.000Z</time>
      </trkpt>
      <trkpt lat="47.46886" lon="6.74309">
        <ele>382</ele>
        <time>2016-05-15T07:56:59.000Z</time>
      </trkpt>
      <trkpt lat="47.46888" lon="6.74303">
        <ele>382</ele>
        <time>2016-05-15T07:57:02.000Z</time>
      </trkpt>
      <trkpt lat="47.46888" lon="6.74301">
        <ele>382</ele>
        <time>2016-05-15T07:57:03.000Z</time>
      </trkpt>
      <trkpt lat="47.46887" lon="6.74294">
        <ele>383</ele>
        <time>2016-05-15T07:57:06.000Z</time>
      </trkpt>
      <trkpt lat="47.46887" lon="6.74293">
        <ele>383</ele>
        <time>2016-05-15T07:57:07.000Z</time>
      </trkpt>
      <trkpt lat="47.46886" lon="6.74288">
        <ele>383</ele>
        <time>2016-05-15T07:57:10.000Z</time>
      </trkpt>
      <trkpt lat="47.46886" lon="6.74286">
        <ele>383</ele>
        <time>2016-05-15T07:57:11.000Z</time>
      </trkpt>
      <trkpt lat="47.46886" lon="6.74281">
        <ele>384</ele>
        <time>2016-05-15T07:57:14.000Z</time>
      </trkpt>
      <trkpt lat="47.46886" lon="6.74279">
        <ele>384</ele>
        <time>2016-05-15T07:57:15.000Z</time>
      </trkpt>
      <trkpt lat="47.46886" lon="6.74275">
        <ele>384</ele>
        <time>2016-05-15T07:57:18.000Z</time>
      </trkpt>
      <trkpt lat="47.46885" lon="6.74271">
        <ele>384</ele>
        <time>2016-05-15T07:57:20.000Z</time>
      </trkpt>
      <trkpt lat="47.46884" lon="6.74266">
        <ele>384</ele>
        <time>2016-05-15T07:57:23.000Z</time>
      </trkpt>
      <trkpt lat="47.46883" lon="6.74264">
        <ele>384</ele>
        <time>2016-05-15T07:57:24.000Z</time>
      </trkpt>
      <trkpt lat="47.46883" lon="6.74259">
        <ele>384</ele>
        <time>2016-05-15T07:57:28.000Z</time>
      </trkpt>
      <trkpt lat="47.46884" lon="6.74258">
        <ele>384</ele>
        <time>2016-05-15T07:57:29.000Z</time>
      </trkpt>
      <trkpt lat="47.46884" lon="6.74251">
        <ele>384</ele>
        <time>2016-05-15T07:57:33.000Z</time>
      </trkpt>
      <trkpt lat="47.46884" lon="6.7425">
        <ele>388</ele>
        <time>2016-05-15T07:57:34.000Z</time>
      </trkpt>
      <trkpt lat="47.46885" lon="6.74245">
        <ele>388</ele>
        <time>2016-05-15T07:57:37.000Z</time>
      </trkpt>
      <trkpt lat="47.46885" lon="6.74243">
        <ele>388</ele>
        <time>2016-05-15T07:57:38.000Z</time>
      </trkpt>
      <trkpt lat="47.46885" lon="6.74237">
        <ele>388</ele>
        <time>2016-05-15T07:57:42.000Z</time>
      </trkpt>
      <trkpt lat="47.46884" lon="6.74235">
        <ele>388</ele>
        <time>2016-05-15T07:57:43.000Z</time>
      </trkpt>
      <trkpt lat="47.46883" lon="6.7423">
        <ele>389</ele>
        <time>2016-05-15T07:57:47.000Z</time>
      </trkpt>
      <trkpt lat="47.46884" lon="6.74228">
        <ele>389</ele>
        <time>2016-05-15T07:57:48.000Z</time>
      </trkpt>
      <trkpt lat="47.46884" lon="6.74222">
        <ele>389</ele>
        <time>2016-05-15T07:57:51.000Z</time>
      </trkpt>
      <trkpt lat="47.46883" lon="6.7422">
        <ele>389</ele>
        <time>2016-05-15T07:57:52.000Z</time>
      </trkpt>
      <trkpt lat="47.46883" lon="6.74215">
        <ele>390</ele>
        <time>2016-05-15T07:57:55.000Z</time>
      </trkpt>
      <trkpt lat="47.46883" lon="6.74213">
        <ele>390</ele>
        <time>2016-05-15T07:57:56.000Z</time>
      </trkpt>
      <trkpt lat="47.46884" lon="6.74207">
        <ele>390</ele>
        <time>2016-05-15T07:57:59.000Z</time>
      </trkpt>
      <trkpt lat="47.46884" lon="6.74205">
        <ele>390</ele>
        <time>2016-05-15T07:58:00.000Z</time>
      </trkpt>
      <trkpt lat="47.46884" lon="6.74201">
        <ele>390</ele>
        <time>2016-05-15T07:58:02.000Z</time>
      </trkpt>
      <trkpt lat="47.46885" lon="6.74199">
        <ele>390</ele>
        <time>2016-05-15T07:58:03.000Z</time>
      </trkpt>
      <trkpt lat="47.46885" lon="6.74193">
        <ele>390</ele>
        <time>2016-05-15T07:58:05.000Z</time>
      </trkpt>
      <trkpt lat="47.46885" lon="6.7419">
        <ele>390</ele>
        <time>2016-05-15T07:58:06.000Z</time>
      </trkpt>
      <trkpt lat="47.46886" lon="6.74185">
        <ele>390</ele>
        <time>2016-05-15T07:58:08.000Z</time>
      </trkpt>
      <trkpt lat="47.46886" lon="6.74182">
        <ele>390</ele>
        <time>2016-05-15T07:58:09.000Z</time>
      </trkpt>
      <trkpt lat="47.46886" lon="6.74177">
        <ele>390</ele>
        <time>2016-05-15T07:58:11.000Z</time>
      </trkpt>
      <trkpt lat="47.46886" lon="6.74175">
        <ele>390</ele>
        <time>2016-05-15T07:58:12.000Z</time>
      </trkpt>
      <trkpt lat="47.46886" lon="6.74169">
        <ele>390</ele>
        <time>2016-05-15T07:58:15.000Z</time>
      </trkpt>
      <trkpt lat="47.46886" lon="6.74167">
        <ele>390</ele>
        <time>2016-05-15T07:58:16.000Z</time>
      </trkpt>
      <trkpt lat="47.46886" lon="6.74161">
        <ele>392</ele>
        <time>2016-05-15T07:58:19.000Z</time>
      </trkpt>
      <trkpt lat="47.46886" lon="6.74159">
        <ele>392</ele>
        <time>2016-05-15T07:58:20.000Z</time>
      </trkpt>
      <trkpt lat="47.46886" lon="6.74153">
        <ele>392</ele>
        <time>2016-05-15T07:58:23.000Z</time>
      </trkpt>
      <trkpt lat="47.46886" lon="6.74151">
        <ele>392</ele>
        <time>2016-05-15T07:58:24.000Z</time>
      </trkpt>
      <trkpt lat="47.46886" lon="6.74146">
        <ele>392</ele>
        <time>2016-05-15T07:58:26.000Z</time>
      </trkpt>
      <trkpt lat="47.46885" lon="6.74144">
        <ele>392</ele>
        <time>2016-05-15T07:58:27.000Z</time>
      </trkpt>
      <trkpt lat="47.46885" lon="6.74139">
        <ele>393</ele>
        <time>2016-05-15T07:58:29.000Z</time>
      </trkpt>
      <trkpt lat="47.46885" lon="6.74137">
        <ele>393</ele>
        <time>2016-05-15T07:58:30.000Z</time>
      </trkpt>
      <trkpt lat="47.46883" lon="6.74132">
        <ele>393</ele>
        <time>2016-05-15T07:58:33.000Z</time>
      </trkpt>
      <trkpt lat="47.46883" lon="6.7413">
        <ele>393</ele>
        <time>2016-05-15T07:58:34.000Z</time>
      </trkpt>
      <trkpt lat="47.46884" lon="6.74124">
        <ele>393</ele>
        <time>2016-05-15T07:58:38.000Z</time>
      </trkpt>
      <trkpt lat="47.46884" lon="6.74122">
        <ele>393</ele>
        <time>2016-05-15T07:58:39.000Z</time>
      </trkpt>
      <trkpt lat="47.46883" lon="6.74118">
        <ele>393</ele>
        <time>2016-05-15T07:58:41.000Z</time>
      </trkpt>
      <trkpt lat="47.46883" lon="6.74116">
        <ele>393</ele>
        <time>2016-05-15T07:58:42.000Z</time>
      </trkpt>
      <trkpt lat="47.46881" lon="6.7411">
        <ele>394</ele>
        <time>2016-05-15T07:58:45.000Z</time>
      </trkpt>
      <trkpt lat="47.4688" lon="6.74108">
        <ele>394</ele>
        <time>2016-05-15T07:58:46.000Z</time>
      </trkpt>
      <trkpt lat="47.46878" lon="6.74103">
        <ele>394</ele>
        <time>2016-05-15T07:58:49.000Z</time>
      </trkpt>
      <trkpt lat="47.46878" lon="6.74101">
        <ele>394</ele>
        <time>2016-05-15T07:58:50.000Z</time>
      </trkpt>
      <trkpt lat="47.46878" lon="6.74096">
        <ele>394</ele>
        <time>2016-05-15T07:58:53.000Z</time>
      </trkpt>
      <trkpt lat="47.46877" lon="6.74094">
        <ele>394</ele>
        <time>2016-05-15T07:58:54.000Z</time>
      </trkpt>
      <trkpt lat="47.46876" lon="6.74089">
        <ele>395</ele>
        <time>2016-05-15T07:58:57.000Z</time>
      </trkpt>
      <trkpt lat="47.46876" lon="6.74087">
        <ele>395</ele>
        <time>2016-05-15T07:58:58.000Z</time>
      </trkpt>
      <trkpt lat="47.46876" lon="6.74082">
        <ele>395</ele>
        <time>2016-05-15T07:59:00.000Z</time>
      </trkpt>
      <trkpt lat="47.46876" lon="6.7408">
        <ele>395</ele>
        <time>2016-05-15T07:59:01.000Z</time>
      </trkpt>
      <trkpt lat="47.46875" lon="6.74075">
        <ele>395</ele>
        <time>2016-05-15T07:59:05.000Z</time>
      </trkpt>
      <trkpt lat="47.46875" lon="6.74073">
        <ele>395</ele>
        <time>2016-05-15T07:59:06.000Z</time>
      </trkpt>
      <trkpt lat="47.46873" lon="6.74068">
        <ele>395</ele>
        <time>2016-05-15T07:59:10.000Z</time>
      </trkpt>
      <trkpt lat="47.46872" lon="6.74067">
        <ele>395</ele>
        <time>2016-05-15T07:59:11.000Z</time>
      </trkpt>
      <trkpt lat="47.4687" lon="6.74062">
        <ele>396</ele>
        <time>2016-05-15T07:59:14.000Z</time>
      </trkpt>
      <trkpt lat="47.4687" lon="6.7406">
        <ele>396</ele>
        <time>2016-05-15T07:59:15.000Z</time>
      </trkpt>
      <trkpt lat="47.46867" lon="6.74056">
        <ele>396</ele>
        <time>2016-05-15T07:59:18.000Z</time>
      </trkpt>
      <trkpt lat="47.46866" lon="6.74055">
        <ele>396</ele>
        <time>2016-05-15T07:59:19.000Z</time>
      </trkpt>
      <trkpt lat="47.46865" lon="6.74049">
        <ele>396</ele>
        <time>2016-05-15T07:59:22.000Z</time>
      </trkpt>
      <trkpt lat="47.46865" lon="6.74047">
        <ele>396</ele>
        <time>2016-05-15T07:59:23.000Z</time>
      </trkpt>
      <trkpt lat="47.46863" lon="6.74041">
        <ele>396</ele>
        <time>2016-05-15T07:59:26.000Z</time>
      </trkpt>
      <trkpt lat="47.46862" lon="6.7404">
        <ele>396</ele>
        <time>2016-05-15T07:59:27.000Z</time>
      </trkpt>
      <trkpt lat="47.46862" lon="6.74035">
        <ele>396</ele>
        <time>2016-05-15T07:59:29.000Z</time>
      </trkpt>
      <trkpt lat="47.46861" lon="6.74033">
        <ele>396</ele>
        <time>2016-05-15T07:59:30.000Z</time>
      </trkpt>
      <trkpt lat="47.46861" lon="6.74027">
        <ele>396</ele>
        <time>2016-05-15T07:59:32.000Z</time>
      </trkpt>
      <trkpt lat="47.46861" lon="6.74025">
        <ele>396</ele>
        <time>2016-05-15T07:59:33.000Z</time>
      </trkpt>
      <trkpt lat="47.4686" lon="6.74019">
        <ele>396</ele>
        <time>2016-05-15T07:59:36.000Z</time>
      </trkpt>
      <trkpt lat="47.46859" lon="6.74017">
        <ele>396</ele>
        <time>2016-05-15T07:59:37.000Z</time>
      </trkpt>
      <trkpt lat="47.46858" lon="6.74013">
        <ele>396</ele>
        <time>2016-05-15T07:59:39.000Z</time>
      </trkpt>
      <trkpt lat="47.46858" lon="6.74011">
        <ele>396</ele>
        <time>2016-05-15T07:59:40.000Z</time>
      </trkpt>
      <trkpt lat="47.46856" lon="6.74005">
        <ele>397</ele>
        <time>2016-05-15T07:59:42.000Z</time>
      </trkpt>
      <trkpt lat="47.46856" lon="6.74002">
        <ele>397</ele>
        <time>2016-05-15T07:59:43.000Z</time>
      </trkpt>
      <trkpt lat="47.46854" lon="6.73997">
        <ele>397</ele>
        <time>2016-05-15T07:59:45.000Z</time>
      </trkpt>
      <trkpt lat="47.46853" lon="6.73995">
        <ele>397</ele>
        <time>2016-05-15T07:59:46.000Z</time>
      </trkpt>
      <trkpt lat="47.4685" lon="6.7399">
        <ele>397</ele>
        <time>2016-05-15T07:59:49.000Z</time>
      </trkpt>
      <trkpt lat="47.4685" lon="6.73988">
        <ele>397</ele>
        <time>2016-05-15T07:59:50.000Z</time>
      </trkpt>
      <trkpt lat="47.46847" lon="6.73983">
        <ele>397</ele>
        <time>2016-05-15T07:59:53.000Z</time>
      </trkpt>
      <trkpt lat="47.46846" lon="6.73981">
        <ele>397</ele>
        <time>2016-05-15T07:59:54.000Z</time>
      </trkpt>
      <trkpt lat="47.46844" lon="6.73977">
        <ele>397</ele>
        <time>2016-05-15T07:59:56.000Z</time>
      </trkpt>
      <trkpt lat="47.46843" lon="6.73975">
        <ele>397</ele>
        <time>2016-05-15T07:59:57.000Z</time>
      </trkpt>
      <trkpt lat="47.46842" lon="6.7397">
        <ele>397</ele>
        <time>2016-05-15T07:59:59.000Z</time>
      </trkpt>
      <trkpt lat="47.46841" lon="6.73968">
        <ele>397</ele>
        <time>2016-05-15T08:00:00.000Z</time>
      </trkpt>
      <trkpt lat="47.46841" lon="6.73962">
        <ele>397</ele>
        <time>2016-05-15T08:00:02.000Z</time>
      </trkpt>
      <trkpt lat="47.4684" lon="6.7396">
        <ele>397</ele>
        <time>2016-05-15T08:00:03.000Z</time>
      </trkpt>
      <trkpt lat="47.46839" lon="6.73954">
        <ele>397</ele>
        <time>2016-05-15T08:00:06.000Z</time>
      </trkpt>
      <trkpt lat="47.46839" lon="6.73951">
        <ele>397</ele>
        <time>2016-05-15T08:00:07.000Z</time>
      </trkpt>
      <trkpt lat="47.46837" lon="6.73946">
        <ele>398</ele>
        <time>2016-05-15T08:00:09.000Z</time>
      </trkpt>
      <trkpt lat="47.46837" lon="6.73943">
        <ele>398</ele>
        <time>2016-05-15T08:00:10.000Z</time>
      </trkpt>
      <trkpt lat="47.46837" lon="6.73938">
        <ele>398</ele>
        <time>2016-05-15T08:00:12.000Z</time>
      </trkpt>
      <trkpt lat="47.46838" lon="6.73935">
        <ele>398</ele>
        <time>2016-05-15T08:00:13.000Z</time>
      </trkpt>
      <trkpt lat="47.46836" lon="6.7393">
        <ele>399</ele>
        <time>2016-05-15T08:00:16.000Z</time>
      </trkpt>
      <trkpt lat="47.46835" lon="6.73929">
        <ele>399</ele>
        <time>2016-05-15T08:00:17.000Z</time>
      </trkpt>
      <trkpt lat="47.46834" lon="6.73925">
        <ele>400</ele>
        <time>2016-05-15T08:00:19.000Z</time>
      </trkpt>
      <trkpt lat="47.46833" lon="6.73922">
        <ele>401</ele>
        <time>2016-05-15T08:00:20.000Z</time>
      </trkpt>
      <trkpt lat="47.46832" lon="6.73917">
        <ele>401</ele>
        <time>2016-05-15T08:00:22.000Z</time>
      </trkpt>
      <trkpt lat="47.46831" lon="6.73914">
        <ele>401</ele>
        <time>2016-05-15T08:00:23.000Z</time>
      </trkpt>
      <trkpt lat="47.4683" lon="6.7391">
        <ele>401</ele>
        <time>2016-05-15T08:00:24.000Z</time>
      </trkpt>
      <trkpt lat="47.46829" lon="6.73906">
        <ele>402</ele>
        <time>2016-05-15T08:00:25.000Z</time>
      </trkpt>
      <trkpt lat="47.46828" lon="6.73903">
        <ele>402</ele>
        <time>2016-05-15T08:00:26.000Z</time>
      </trkpt>
      <trkpt lat="47.46827" lon="6.73899">
        <ele>402</ele>
        <time>2016-05-15T08:00:27.000Z</time>
      </trkpt>
      <trkpt lat="47.46826" lon="6.73894">
        <ele>402</ele>
        <time>2016-05-15T08:00:29.000Z</time>
      </trkpt>
      <trkpt lat="47.46825" lon="6.7389">
        <ele>402</ele>
        <time>2016-05-15T08:00:30.000Z</time>
      </trkpt>
      <trkpt lat="47.46825" lon="6.73885">
        <ele>402</ele>
        <time>2016-05-15T08:00:31.000Z</time>
      </trkpt>
      <trkpt lat="47.46826" lon="6.73882">
        <ele>402</ele>
        <time>2016-05-15T08:00:32.000Z</time>
      </trkpt>
      <trkpt lat="47.46824" lon="6.73876">
        <ele>402</ele>
        <time>2016-05-15T08:02:09.000Z</time>
      </trkpt>
      <trkpt lat="47.46825" lon="6.73876">
        <ele>402</ele>
        <time>2016-05-15T08:02:10.000Z</time>
      </trkpt>
      <trkpt lat="47.46824" lon="6.7387">
        <ele>403</ele>
        <time>2016-05-15T08:02:13.000Z</time>
      </trkpt>
      <trkpt lat="47.46824" lon="6.73868">
        <ele>403</ele>
        <time>2016-05-15T08:02:14.000Z</time>
      </trkpt>
      <trkpt lat="47.46823" lon="6.73864">
        <ele>403</ele>
        <time>2016-05-15T08:02:16.000Z</time>
      </trkpt>
      <trkpt lat="47.46822" lon="6.73862">
        <ele>403</ele>
        <time>2016-05-15T08:02:17.000Z</time>
      </trkpt>
      <trkpt lat="47.4682" lon="6.73857">
        <ele>403</ele>
        <time>2016-05-15T08:02:19.000Z</time>
      </trkpt>
      <trkpt lat="47.46819" lon="6.73853">
        <ele>403</ele>
        <time>2016-05-15T08:02:20.000Z</time>
      </trkpt>
      <trkpt lat="47.46817" lon="6.73849">
        <ele>403</ele>
        <time>2016-05-15T08:02:21.000Z</time>
      </trkpt>
      <trkpt lat="47.46816" lon="6.73845">
        <ele>403</ele>
        <time>2016-05-15T08:02:22.000Z</time>
      </trkpt>
      <trkpt lat="47.46814" lon="6.7384">
        <ele>403</ele>
        <time>2016-05-15T08:02:23.000Z</time>
      </trkpt>
      <trkpt lat="47.46812" lon="6.73836">
        <ele>403</ele>
        <time>2016-05-15T08:02:24.000Z</time>
      </trkpt>
      <trkpt lat="47.46811" lon="6.73832">
        <ele>403</ele>
        <time>2016-05-15T08:02:25.000Z</time>
      </trkpt>
      <trkpt lat="47.4681" lon="6.73829">
        <ele>403</ele>
        <time>2016-05-15T08:02:26.000Z</time>
      </trkpt>
      <trkpt lat="47.46809" lon="6.73826">
        <ele>402</ele>
        <time>2016-05-15T08:02:27.000Z</time>
      </trkpt>
      <trkpt lat="47.46808" lon="6.73823">
        <ele>402</ele>
        <time>2016-05-15T08:02:28.000Z</time>
      </trkpt>
      <trkpt lat="47.46806" lon="6.7382">
        <ele>402</ele>
        <time>2016-05-15T08:02:29.000Z</time>
      </trkpt>
      <trkpt lat="47.46805" lon="6.73817">
        <ele>402</ele>
        <time>2016-05-15T08:02:30.000Z</time>
      </trkpt>
      <trkpt lat="47.46804" lon="6.73811">
        <ele>402</ele>
        <time>2016-05-15T08:02:32.000Z</time>
      </trkpt>
      <trkpt lat="47.46803" lon="6.73809">
        <ele>402</ele>
        <time>2016-05-15T08:02:33.000Z</time>
      </trkpt>
      <trkpt lat="47.46801" lon="6.73805">
        <ele>401</ele>
        <time>2016-05-15T08:02:35.000Z</time>
      </trkpt>
      <trkpt lat="47.46799" lon="6.73804">
        <ele>401</ele>
        <time>2016-05-15T08:02:36.000Z</time>
      </trkpt>
      <trkpt lat="47.46797" lon="6.73804">
        <ele>401</ele>
        <time>2016-05-15T08:02:37.000Z</time>
      </trkpt>
      <trkpt lat="47.46795" lon="6.73803">
        <ele>401</ele>
        <time>2016-05-15T08:02:38.000Z</time>
      </trkpt>
      <trkpt lat="47.46792" lon="6.73803">
        <ele>401</ele>
        <time>2016-05-15T08:02:39.000Z</time>
      </trkpt>
      <trkpt lat="47.46788" lon="6.73803">
        <ele>401</ele>
        <time>2016-05-15T08:02:40.000Z</time>
      </trkpt>
      <trkpt lat="47.46785" lon="6.73803">
        <ele>401</ele>
        <time>2016-05-15T08:02:41.000Z</time>
      </trkpt>
      <trkpt lat="47.46781" lon="6.73803">
        <ele>401</ele>
        <time>2016-05-15T08:02:42.000Z</time>
      </trkpt>
      <trkpt lat="47.46778" lon="6.73803">
        <ele>401</ele>
        <time>2016-05-15T08:02:43.000Z</time>
      </trkpt>
      <trkpt lat="47.46775" lon="6.73804">
        <ele>401</ele>
        <time>2016-05-15T08:02:44.000Z</time>
      </trkpt>
      <trkpt lat="47.46772" lon="6.73805">
        <ele>401</ele>
        <time>2016-05-15T08:02:45.000Z</time>
      </trkpt>
      <trkpt lat="47.46769" lon="6.73807">
        <ele>401</ele>
        <time>2016-05-15T08:02:46.000Z</time>
      </trkpt>
      <trkpt lat="47.46766" lon="6.73808">
        <ele>401</ele>
        <time>2016-05-15T08:02:47.000Z</time>
      </trkpt>
      <trkpt lat="47.46763" lon="6.7381">
        <ele>401</ele>
        <time>2016-05-15T08:02:48.000Z</time>
      </trkpt>
      <trkpt lat="47.4676" lon="6.73811">
        <ele>401</ele>
        <time>2016-05-15T08:02:49.000Z</time>
      </trkpt>
      <trkpt lat="47.46756" lon="6.73813">
        <ele>401</ele>
        <time>2016-05-15T08:02:50.000Z</time>
      </trkpt>
      <trkpt lat="47.46754" lon="6.73815">
        <ele>401</ele>
        <time>2016-05-15T08:02:51.000Z</time>
      </trkpt>
      <trkpt lat="47.4675" lon="6.73818">
        <ele>400</ele>
        <time>2016-05-15T08:02:52.000Z</time>
      </trkpt>
      <trkpt lat="47.46746" lon="6.73822">
        <ele>401</ele>
        <time>2016-05-15T08:02:53.000Z</time>
      </trkpt>
      <trkpt lat="47.46742" lon="6.73827">
        <ele>401</ele>
        <time>2016-05-15T08:02:54.000Z</time>
      </trkpt>
      <trkpt lat="47.46738" lon="6.73832">
        <ele>401</ele>
        <time>2016-05-15T08:02:55.000Z</time>
      </trkpt>
      <trkpt lat="47.46734" lon="6.73837">
        <ele>402</ele>
        <time>2016-05-15T08:02:56.000Z</time>
      </trkpt>
      <trkpt lat="47.4673" lon="6.73842">
        <ele>402</ele>
        <time>2016-05-15T08:02:57.000Z</time>
      </trkpt>
      <trkpt lat="47.46727" lon="6.73848">
        <ele>402</ele>
        <time>2016-05-15T08:02:58.000Z</time>
      </trkpt>
      <trkpt lat="47.46724" lon="6.73853">
        <ele>402</ele>
        <time>2016-05-15T08:02:59.000Z</time>
      </trkpt>
      <trkpt lat="47.46721" lon="6.73858">
        <ele>402</ele>
        <time>2016-05-15T08:03:00.000Z</time>
      </trkpt>
      <trkpt lat="47.46719" lon="6.73862">
        <ele>402</ele>
        <time>2016-05-15T08:03:01.000Z</time>
      </trkpt>
      <trkpt lat="47.46716" lon="6.73866">
        <ele>402</ele>
        <time>2016-05-15T08:03:02.000Z</time>
      </trkpt>
      <trkpt lat="47.46712" lon="6.73869">
        <ele>402</ele>
        <time>2016-05-15T08:03:03.000Z</time>
      </trkpt>
      <trkpt lat="47.46708" lon="6.7387">
        <ele>401</ele>
        <time>2016-05-15T08:03:04.000Z</time>
      </trkpt>
      <trkpt lat="47.46702" lon="6.7387">
        <ele>401</ele>
        <time>2016-05-15T08:03:05.000Z</time>
      </trkpt>
      <trkpt lat="47.46696" lon="6.7387">
        <ele>401</ele>
        <time>2016-05-15T08:03:06.000Z</time>
      </trkpt>
      <trkpt lat="47.46689" lon="6.73867">
        <ele>401</ele>
        <time>2016-05-15T08:03:07.000Z</time>
      </trkpt>
      <trkpt lat="47.46682" lon="6.73863">
        <ele>401</ele>
        <time>2016-05-15T08:03:08.000Z</time>
      </trkpt>
      <trkpt lat="47.46676" lon="6.73858">
        <ele>401</ele>
        <time>2016-05-15T08:03:09.000Z</time>
      </trkpt>
      <trkpt lat="47.4667" lon="6.73853">
        <ele>401</ele>
        <time>2016-05-15T08:03:10.000Z</time>
      </trkpt>
      <trkpt lat="47.46667" lon="6.73848">
        <ele>401</ele>
        <time>2016-05-15T08:03:11.000Z</time>
      </trkpt>
      <trkpt lat="47.46664" lon="6.73842">
        <ele>402</ele>
        <time>2016-05-15T08:03:12.000Z</time>
      </trkpt>
      <trkpt lat="47.46662" lon="6.73836">
        <ele>402</ele>
        <time>2016-05-15T08:03:13.000Z</time>
      </trkpt>
      <trkpt lat="47.4666" lon="6.73831">
        <ele>401</ele>
        <time>2016-05-15T08:03:14.000Z</time>
      </trkpt>
      <trkpt lat="47.46659" lon="6.73828">
        <ele>401</ele>
        <time>2016-05-15T08:03:15.000Z</time>
      </trkpt>
      <trkpt lat="47.46657" lon="6.73825">
        <ele>401</ele>
        <time>2016-05-15T08:03:16.000Z</time>
      </trkpt>
      <trkpt lat="47.46655" lon="6.73824">
        <ele>401</ele>
        <time>2016-05-15T08:03:17.000Z</time>
      </trkpt>
      <trkpt lat="47.46653" lon="6.73822">
        <ele>402</ele>
        <time>2016-05-15T08:03:18.000Z</time>
      </trkpt>
      <trkpt lat="47.4665" lon="6.7382">
        <ele>402</ele>
        <time>2016-05-15T08:03:19.000Z</time>
      </trkpt>
      <trkpt lat="47.46648" lon="6.73818">
        <ele>402</ele>
        <time>2016-05-15T08:03:20.000Z</time>
      </trkpt>
      <trkpt lat="47.46647" lon="6.73815">
        <ele>402</ele>
        <time>2016-05-15T08:03:21.000Z</time>
      </trkpt>
      <trkpt lat="47.46645" lon="6.73812">
        <ele>402</ele>
        <time>2016-05-15T08:03:22.000Z</time>
      </trkpt>
      <trkpt lat="47.46644" lon="6.73809">
        <ele>402</ele>
        <time>2016-05-15T08:03:23.000Z</time>
      </trkpt>
      <trkpt lat="47.46642" lon="6.73806">
        <ele>402</ele>
        <time>2016-05-15T08:03:24.000Z</time>
      </trkpt>
      <trkpt lat="47.4664" lon="6.73802">
        <ele>402</ele>
        <time>2016-05-15T08:03:25.000Z</time>
      </trkpt>
      <trkpt lat="47.46638" lon="6.73798">
        <ele>402</ele>
        <time>2016-05-15T08:03:26.000Z</time>
      </trkpt>
      <trkpt lat="47.46636" lon="6.73794">
        <ele>402</ele>
        <time>2016-05-15T08:03:27.000Z</time>
      </trkpt>
      <trkpt lat="47.46633" lon="6.73791">
        <ele>402</ele>
        <time>2016-05-15T08:03:28.000Z</time>
      </trkpt>
      <trkpt lat="47.4663" lon="6.73788">
        <ele>402</ele>
        <time>2016-05-15T08:03:29.000Z</time>
      </trkpt>
      <trkpt lat="47.46627" lon="6.73785">
        <ele>402</ele>
        <time>2016-05-15T08:03:30.000Z</time>
      </trkpt>
      <trkpt lat="47.46624" lon="6.73783">
        <ele>402</ele>
        <time>2016-05-15T08:03:31.000Z</time>
      </trkpt>
      <trkpt lat="47.46621" lon="6.7378">
        <ele>402</ele>
        <time>2016-05-15T08:03:32.000Z</time>
      </trkpt>
      <trkpt lat="47.46619" lon="6.73778">
        <ele>402</ele>
        <time>2016-05-15T08:03:33.000Z</time>
      </trkpt>
      <trkpt lat="47.46617" lon="6.73775">
        <ele>402</ele>
        <time>2016-05-15T08:03:34.000Z</time>
      </trkpt>
      <trkpt lat="47.46615" lon="6.7377">
        <ele>402</ele>
        <time>2016-05-15T08:03:36.000Z</time>
      </trkpt>
      <trkpt lat="47.46615" lon="6.73767">
        <ele>402</ele>
        <time>2016-05-15T08:03:37.000Z</time>
      </trkpt>
      <trkpt lat="47.46612" lon="6.73764">
        <ele>402</ele>
        <time>2016-05-15T08:03:40.000Z</time>
      </trkpt>
      <trkpt lat="47.4661" lon="6.73763">
        <ele>402</ele>
        <time>2016-05-15T08:03:41.000Z</time>
      </trkpt>
      <trkpt lat="47.46607" lon="6.73762">
        <ele>402</ele>
        <time>2016-05-15T08:03:42.000Z</time>
      </trkpt>
      <trkpt lat="47.46605" lon="6.73761">
        <ele>402</ele>
        <time>2016-05-15T08:03:43.000Z</time>
      </trkpt>
      <trkpt lat="47.46602" lon="6.7376">
        <ele>402</ele>
        <time>2016-05-15T08:03:44.000Z</time>
      </trkpt>
      <trkpt lat="47.466" lon="6.73759">
        <ele>402</ele>
        <time>2016-05-15T08:03:45.000Z</time>
      </trkpt>
      <trkpt lat="47.46597" lon="6.73758">
        <ele>402</ele>
        <time>2016-05-15T08:03:46.000Z</time>
      </trkpt>
      <trkpt lat="47.46595" lon="6.73756">
        <ele>403</ele>
        <time>2016-05-15T08:03:47.000Z</time>
      </trkpt>
      <trkpt lat="47.46591" lon="6.73753">
        <ele>403</ele>
        <time>2016-05-15T08:03:49.000Z</time>
      </trkpt>
      <trkpt lat="47.46589" lon="6.73752">
        <ele>403</ele>
        <time>2016-05-15T08:03:50.000Z</time>
      </trkpt>
      <trkpt lat="47.46586" lon="6.73749">
        <ele>402</ele>
        <time>2016-05-15T08:03:52.000Z</time>
      </trkpt>
      <trkpt lat="47.46585" lon="6.73747">
        <ele>402</ele>
        <time>2016-05-15T08:03:53.000Z</time>
      </trkpt>
      <trkpt lat="47.46581" lon="6.73744">
        <ele>403</ele>
        <time>2016-05-15T08:03:55.000Z</time>
      </trkpt>
      <trkpt lat="47.46578" lon="6.73743">
        <ele>402</ele>
        <time>2016-05-15T08:03:56.000Z</time>
      </trkpt>
      <trkpt lat="47.46574" lon="6.73741">
        <ele>402</ele>
        <time>2016-05-15T08:03:57.000Z</time>
      </trkpt>
      <trkpt lat="47.46571" lon="6.73739">
        <ele>402</ele>
        <time>2016-05-15T08:03:58.000Z</time>
      </trkpt>
      <trkpt lat="47.46567" lon="6.73737">
        <ele>402</ele>
        <time>2016-05-15T08:03:59.000Z</time>
      </trkpt>
      <trkpt lat="47.46564" lon="6.73736">
        <ele>402</ele>
        <time>2016-05-15T08:04:00.000Z</time>
      </trkpt>
      <trkpt lat="47.46562" lon="6.73735">
        <ele>402</ele>
        <time>2016-05-15T08:04:01.000Z</time>
      </trkpt>
      <trkpt lat="47.4656" lon="6.73733">
        <ele>402</ele>
        <time>2016-05-15T08:04:02.000Z</time>
      </trkpt>
      <trkpt lat="47.46558" lon="6.73732">
        <ele>402</ele>
        <time>2016-05-15T08:04:03.000Z</time>
      </trkpt>
      <trkpt lat="47.46555" lon="6.73731">
        <ele>402</ele>
        <time>2016-05-15T08:04:04.000Z</time>
      </trkpt>
      <trkpt lat="47.46552" lon="6.73729">
        <ele>402</ele>
        <time>2016-05-15T08:04:06.000Z</time>
      </trkpt>
      <trkpt lat="47.4655" lon="6.73728">
        <ele>402</ele>
        <time>2016-05-15T08:04:07.000Z</time>
      </trkpt>
      <trkpt lat="47.46546" lon="6.73726">
        <ele>402</ele>
        <time>2016-05-15T08:04:09.000Z</time>
      </trkpt>
      <trkpt lat="47.46543" lon="6.73726">
        <ele>402</ele>
        <time>2016-05-15T08:04:10.000Z</time>
      </trkpt>
      <trkpt lat="47.4654" lon="6.73725">
        <ele>402</ele>
        <time>2016-05-15T08:04:11.000Z</time>
      </trkpt>
      <trkpt lat="47.46537" lon="6.73724">
        <ele>402</ele>
        <time>2016-05-15T08:04:12.000Z</time>
      </trkpt>
      <trkpt lat="47.46533" lon="6.73722">
        <ele>402</ele>
        <time>2016-05-15T08:04:13.000Z</time>
      </trkpt>
      <trkpt lat="47.46528" lon="6.73721">
        <ele>403</ele>
        <time>2016-05-15T08:04:14.000Z</time>
      </trkpt>
      <trkpt lat="47.46523" lon="6.7372">
        <ele>403</ele>
        <time>2016-05-15T08:04:15.000Z</time>
      </trkpt>
      <trkpt lat="47.46518" lon="6.7372">
        <ele>403</ele>
        <time>2016-05-15T08:04:16.000Z</time>
      </trkpt>
      <trkpt lat="47.46514" lon="6.7372">
        <ele>403</ele>
        <time>2016-05-15T08:04:17.000Z</time>
      </trkpt>
      <trkpt lat="47.4651" lon="6.73721">
        <ele>403</ele>
        <time>2016-05-15T08:04:18.000Z</time>
      </trkpt>
      <trkpt lat="47.46506" lon="6.73721">
        <ele>404</ele>
        <time>2016-05-15T08:04:19.000Z</time>
      </trkpt>
      <trkpt lat="47.46503" lon="6.73721">
        <ele>404</ele>
        <time>2016-05-15T08:04:20.000Z</time>
      </trkpt>
      <trkpt lat="47.46501" lon="6.73722">
        <ele>404</ele>
        <time>2016-05-15T08:04:21.000Z</time>
      </trkpt>
      <trkpt lat="47.46499" lon="6.73723">
        <ele>409</ele>
        <time>2016-05-15T08:04:22.000Z</time>
      </trkpt>
      <trkpt lat="47.46497" lon="6.73724">
        <ele>409</ele>
        <time>2016-05-15T08:04:23.000Z</time>
      </trkpt>
      <trkpt lat="47.46494" lon="6.73725">
        <ele>409</ele>
        <time>2016-05-15T08:04:24.000Z</time>
      </trkpt>
      <trkpt lat="47.46491" lon="6.73728">
        <ele>409</ele>
        <time>2016-05-15T08:04:29.000Z</time>
      </trkpt>
      <trkpt lat="47.46489" lon="6.7373">
        <ele>409</ele>
        <time>2016-05-15T08:04:30.000Z</time>
      </trkpt>
      <trkpt lat="47.46487" lon="6.73732">
        <ele>409</ele>
        <time>2016-05-15T08:04:32.000Z</time>
      </trkpt>
      <trkpt lat="47.46485" lon="6.73734">
        <ele>409</ele>
        <time>2016-05-15T08:04:33.000Z</time>
      </trkpt>
      <trkpt lat="47.46482" lon="6.73738">
        <ele>409</ele>
        <time>2016-05-15T08:04:36.000Z</time>
      </trkpt>
      <trkpt lat="47.46481" lon="6.73739">
        <ele>410</ele>
        <time>2016-05-15T08:04:37.000Z</time>
      </trkpt>
      <trkpt lat="47.46477" lon="6.73741">
        <ele>410</ele>
        <time>2016-05-15T08:04:40.000Z</time>
      </trkpt>
      <trkpt lat="47.46476" lon="6.73742">
        <ele>410</ele>
        <time>2016-05-15T08:04:41.000Z</time>
      </trkpt>
      <trkpt lat="47.46472" lon="6.73742">
        <ele>410</ele>
        <time>2016-05-15T08:04:44.000Z</time>
      </trkpt>
      <trkpt lat="47.4647" lon="6.73742">
        <ele>410</ele>
        <time>2016-05-15T08:04:45.000Z</time>
      </trkpt>
      <trkpt lat="47.46466" lon="6.73742">
        <ele>410</ele>
        <time>2016-05-15T08:04:47.000Z</time>
      </trkpt>
      <trkpt lat="47.46465" lon="6.73742">
        <ele>411</ele>
        <time>2016-05-15T08:04:48.000Z</time>
      </trkpt>
      <trkpt lat="47.46461" lon="6.73743">
        <ele>411</ele>
        <time>2016-05-15T08:04:50.000Z</time>
      </trkpt>
      <trkpt lat="47.4646" lon="6.73743">
        <ele>411</ele>
        <time>2016-05-15T08:04:51.000Z</time>
      </trkpt>
      <trkpt lat="47.46456" lon="6.73743">
        <ele>411</ele>
        <time>2016-05-15T08:04:54.000Z</time>
      </trkpt>
      <trkpt lat="47.46454" lon="6.73743">
        <ele>411</ele>
        <time>2016-05-15T08:04:55.000Z</time>
      </trkpt>
      <trkpt lat="47.46452" lon="6.73742">
        <ele>412</ele>
        <time>2016-05-15T08:04:56.000Z</time>
      </trkpt>
      <trkpt lat="47.46448" lon="6.73743">
        <ele>412</ele>
        <time>2016-05-15T08:04:57.000Z</time>
      </trkpt>
      <trkpt lat="47.46444" lon="6.73743">
        <ele>412</ele>
        <time>2016-05-15T08:05:00.000Z</time>
      </trkpt>
      <trkpt lat="47.46444" lon="6.73743">
        <ele>412</ele>
        <time>2016-05-15T08:05:01.000Z</time>
      </trkpt>
      <trkpt lat="47.46441" lon="6.73743">
        <ele>412</ele>
        <time>2016-05-15T08:05:05.000Z</time>
      </trkpt>
      <trkpt lat="47.46439" lon="6.73743">
        <ele>413</ele>
        <time>2016-05-15T08:05:06.000Z</time>
      </trkpt>
      <trkpt lat="47.46437" lon="6.73743">
        <ele>413</ele>
        <time>2016-05-15T08:05:07.000Z</time>
      </trkpt>
      <trkpt lat="47.46434" lon="6.73744">
        <ele>413</ele>
        <time>2016-05-15T08:05:08.000Z</time>
      </trkpt>
      <trkpt lat="47.46431" lon="6.73744">
        <ele>414</ele>
        <time>2016-05-15T08:05:09.000Z</time>
      </trkpt>
      <trkpt lat="47.46428" lon="6.73744">
        <ele>414</ele>
        <time>2016-05-15T08:05:10.000Z</time>
      </trkpt>
      <trkpt lat="47.46424" lon="6.73744">
        <ele>414</ele>
        <time>2016-05-15T08:05:11.000Z</time>
      </trkpt>
      <trkpt lat="47.46421" lon="6.73744">
        <ele>415</ele>
        <time>2016-05-15T08:05:12.000Z</time>
      </trkpt>
      <trkpt lat="47.46418" lon="6.73744">
        <ele>415</ele>
        <time>2016-05-15T08:05:13.000Z</time>
      </trkpt>
      <trkpt lat="47.46415" lon="6.73745">
        <ele>416</ele>
        <time>2016-05-15T08:05:14.000Z</time>
      </trkpt>
      <trkpt lat="47.46411" lon="6.73745">
        <ele>416</ele>
        <time>2016-05-15T08:05:15.000Z</time>
      </trkpt>
      <trkpt lat="47.46407" lon="6.73746">
        <ele>417</ele>
        <time>2016-05-15T08:05:16.000Z</time>
      </trkpt>
      <trkpt lat="47.46403" lon="6.73746">
        <ele>417</ele>
        <time>2016-05-15T08:05:17.000Z</time>
      </trkpt>
      <trkpt lat="47.46399" lon="6.73746">
        <ele>417</ele>
        <time>2016-05-15T08:05:18.000Z</time>
      </trkpt>
      <trkpt lat="47.46395" lon="6.73743">
        <ele>417</ele>
        <time>2016-05-15T08:05:20.000Z</time>
      </trkpt>
      <trkpt lat="47.46394" lon="6.73742">
        <ele>417</ele>
        <time>2016-05-15T08:05:21.000Z</time>
      </trkpt>
      <trkpt lat="47.4639" lon="6.7374">
        <ele>417</ele>
        <time>2016-05-15T08:05:23.000Z</time>
      </trkpt>
      <trkpt lat="47.46387" lon="6.7374">
        <ele>417</ele>
        <time>2016-05-15T08:05:24.000Z</time>
      </trkpt>
      <trkpt lat="47.46385" lon="6.73739">
        <ele>417</ele>
        <time>2016-05-15T08:05:25.000Z</time>
      </trkpt>
      <trkpt lat="47.46382" lon="6.73739">
        <ele>417</ele>
        <time>2016-05-15T08:05:26.000Z</time>
      </trkpt>
      <trkpt lat="47.46379" lon="6.73738">
        <ele>417</ele>
        <time>2016-05-15T08:05:27.000Z</time>
      </trkpt>
      <trkpt lat="47.46376" lon="6.73738">
        <ele>417</ele>
        <time>2016-05-15T08:05:28.000Z</time>
      </trkpt>
      <trkpt lat="47.46373" lon="6.73737">
        <ele>418</ele>
        <time>2016-05-15T08:05:29.000Z</time>
      </trkpt>
      <trkpt lat="47.46371" lon="6.73737">
        <ele>418</ele>
        <time>2016-05-15T08:05:30.000Z</time>
      </trkpt>
      <trkpt lat="47.46367" lon="6.73735">
        <ele>418</ele>
        <time>2016-05-15T08:05:33.000Z</time>
      </trkpt>
      <trkpt lat="47.46365" lon="6.73735">
        <ele>418</ele>
        <time>2016-05-15T08:05:34.000Z</time>
      </trkpt>
      <trkpt lat="47.46363" lon="6.73733">
        <ele>418</ele>
        <time>2016-05-15T08:05:36.000Z</time>
      </trkpt>
      <trkpt lat="47.46361" lon="6.73732">
        <ele>418</ele>
        <time>2016-05-15T08:05:37.000Z</time>
      </trkpt>
      <trkpt lat="47.46358" lon="6.73731">
        <ele>418</ele>
        <time>2016-05-15T08:05:38.000Z</time>
      </trkpt>
      <trkpt lat="47.46356" lon="6.7373">
        <ele>418</ele>
        <time>2016-05-15T08:05:39.000Z</time>
      </trkpt>
      <trkpt lat="47.46353" lon="6.73729">
        <ele>418</ele>
        <time>2016-05-15T08:05:40.000Z</time>
      </trkpt>
      <trkpt lat="47.46351" lon="6.73728">
        <ele>418</ele>
        <time>2016-05-15T08:05:41.000Z</time>
      </trkpt>
      <trkpt lat="47.46348" lon="6.73728">
        <ele>418</ele>
        <time>2016-05-15T08:05:42.000Z</time>
      </trkpt>
      <trkpt lat="47.46346" lon="6.73728">
        <ele>418</ele>
        <time>2016-05-15T08:05:43.000Z</time>
      </trkpt>
      <trkpt lat="47.46343" lon="6.73728">
        <ele>418</ele>
        <time>2016-05-15T08:05:44.000Z</time>
      </trkpt>
      <trkpt lat="47.46341" lon="6.73727">
        <ele>418</ele>
        <time>2016-05-15T08:05:45.000Z</time>
      </trkpt>
      <trkpt lat="47.46339" lon="6.73726">
        <ele>418</ele>
        <time>2016-05-15T08:05:46.000Z</time>
      </trkpt>
      <trkpt lat="47.46336" lon="6.73725">
        <ele>418</ele>
        <time>2016-05-15T08:05:47.000Z</time>
      </trkpt>
      <trkpt lat="47.46333" lon="6.73725">
        <ele>419</ele>
        <time>2016-05-15T08:05:48.000Z</time>
      </trkpt>
      <trkpt lat="47.46331" lon="6.73724">
        <ele>419</ele>
        <time>2016-05-15T08:05:49.000Z</time>
      </trkpt>
      <trkpt lat="47.46328" lon="6.73724">
        <ele>419</ele>
        <time>2016-05-15T08:05:50.000Z</time>
      </trkpt>
      <trkpt lat="47.46325" lon="6.73725">
        <ele>419</ele>
        <time>2016-05-15T08:05:51.000Z</time>
      </trkpt>
      <trkpt lat="47.46323" lon="6.73725">
        <ele>419</ele>
        <time>2016-05-15T08:05:52.000Z</time>
      </trkpt>
      <trkpt lat="47.4632" lon="6.73725">
        <ele>419</ele>
        <time>2016-05-15T08:05:53.000Z</time>
      </trkpt>
      <trkpt lat="47.46317" lon="6.73726">
        <ele>419</ele>
        <time>2016-05-15T08:05:54.000Z</time>
      </trkpt>
      <trkpt lat="47.46314" lon="6.73726">
        <ele>420</ele>
        <time>2016-05-15T08:05:55.000Z</time>
      </trkpt>
      <trkpt lat="47.4631" lon="6.73726">
        <ele>420</ele>
        <time>2016-05-15T08:05:56.000Z</time>
      </trkpt>
      <trkpt lat="47.46308" lon="6.73726">
        <ele>420</ele>
        <time>2016-05-15T08:05:56.998Z</time>
      </trkpt>
      <trkpt lat="47.46303" lon="6.73726">
        <ele>420</ele>
        <time>2016-05-15T08:05:58.000Z</time>
      </trkpt>
      <trkpt lat="47.46299" lon="6.73725">
        <ele>420</ele>
        <time>2016-05-15T08:05:59.000Z</time>
      </trkpt>
      <trkpt lat="47.46295" lon="6.73725">
        <ele>420</ele>
        <time>2016-05-15T08:06:00.000Z</time>
      </trkpt>
      <trkpt lat="47.46292" lon="6.73725">
        <ele>420</ele>
        <time>2016-05-15T08:06:01.000Z</time>
      </trkpt>
      <trkpt lat="47.46288" lon="6.73726">
        <ele>420</ele>
        <time>2016-05-15T08:06:02.000Z</time>
      </trkpt>
      <trkpt lat="47.46285" lon="6.73725">
        <ele>420</ele>
        <time>2016-05-15T08:06:03.000Z</time>
      </trkpt>
      <trkpt lat="47.46281" lon="6.73725">
        <ele>420</ele>
        <time>2016-05-15T08:06:04.000Z</time>
      </trkpt>
      <trkpt lat="47.46278" lon="6.73726">
        <ele>420</ele>
        <time>2016-05-15T08:06:05.000Z</time>
      </trkpt>
      <trkpt lat="47.46275" lon="6.73725">
        <ele>420</ele>
        <time>2016-05-15T08:06:06.000Z</time>
      </trkpt>
      <trkpt lat="47.46271" lon="6.73725">
        <ele>420</ele>
        <time>2016-05-15T08:06:07.000Z</time>
      </trkpt>
      <trkpt lat="47.46268" lon="6.73725">
        <ele>420</ele>
        <time>2016-05-15T08:06:08.000Z</time>
      </trkpt>
      <trkpt lat="47.46265" lon="6.73724">
        <ele>420</ele>
        <time>2016-05-15T08:06:09.000Z</time>
      </trkpt>
      <trkpt lat="47.46262" lon="6.73724">
        <ele>420</ele>
        <time>2016-05-15T08:06:10.000Z</time>
      </trkpt>
      <trkpt lat="47.46259" lon="6.73723">
        <ele>420</ele>
        <time>2016-05-15T08:06:11.000Z</time>
      </trkpt>
      <trkpt lat="47.46255" lon="6.73723">
        <ele>420</ele>
        <time>2016-05-15T08:06:12.000Z</time>
      </trkpt>
      <trkpt lat="47.46252" lon="6.73723">
        <ele>420</ele>
        <time>2016-05-15T08:06:13.000Z</time>
      </trkpt>
      <trkpt lat="47.46249" lon="6.73723">
        <ele>421</ele>
        <time>2016-05-15T08:06:14.000Z</time>
      </trkpt>
      <trkpt lat="47.46246" lon="6.73723">
        <ele>421</ele>
        <time>2016-05-15T08:06:15.000Z</time>
      </trkpt>
      <trkpt lat="47.46243" lon="6.73722">
        <ele>421</ele>
        <time>2016-05-15T08:06:16.000Z</time>
      </trkpt>
      <trkpt lat="47.4624" lon="6.73722">
        <ele>421</ele>
        <time>2016-05-15T08:06:17.000Z</time>
      </trkpt>
      <trkpt lat="47.46238" lon="6.73721">
        <ele>421</ele>
        <time>2016-05-15T08:06:18.000Z</time>
      </trkpt>
      <trkpt lat="47.46235" lon="6.73721">
        <ele>421</ele>
        <time>2016-05-15T08:06:19.000Z</time>
      </trkpt>
      <trkpt lat="47.46232" lon="6.7372">
        <ele>421</ele>
        <time>2016-05-15T08:06:20.000Z</time>
      </trkpt>
      <trkpt lat="47.46229" lon="6.7372">
        <ele>421</ele>
        <time>2016-05-15T08:06:21.000Z</time>
      </trkpt>
      <trkpt lat="47.46226" lon="6.7372">
        <ele>421</ele>
        <time>2016-05-15T08:06:22.000Z</time>
      </trkpt>
      <trkpt lat="47.46223" lon="6.7372">
        <ele>421</ele>
        <time>2016-05-15T08:06:23.000Z</time>
      </trkpt>
      <trkpt lat="47.4622" lon="6.7372">
        <ele>421</ele>
        <time>2016-05-15T08:06:24.000Z</time>
      </trkpt>
      <trkpt lat="47.46218" lon="6.7372">
        <ele>421</ele>
        <time>2016-05-15T08:06:25.000Z</time>
      </trkpt>
      <trkpt lat="47.46215" lon="6.7372">
        <ele>421</ele>
        <time>2016-05-15T08:06:26.000Z</time>
      </trkpt>
      <trkpt lat="47.46212" lon="6.7372">
        <ele>421</ele>
        <time>2016-05-15T08:06:27.000Z</time>
      </trkpt>
      <trkpt lat="47.46209" lon="6.73719">
        <ele>421</ele>
        <time>2016-05-15T08:06:28.000Z</time>
      </trkpt>
      <trkpt lat="47.46206" lon="6.73719">
        <ele>421</ele>
        <time>2016-05-15T08:06:29.000Z</time>
      </trkpt>
      <trkpt lat="47.46204" lon="6.73718">
        <ele>422</ele>
        <time>2016-05-15T08:06:30.000Z</time>
      </trkpt>
      <trkpt lat="47.46201" lon="6.73718">
        <ele>422</ele>
        <time>2016-05-15T08:06:31.000Z</time>
      </trkpt>
      <trkpt lat="47.46198" lon="6.73718">
        <ele>422</ele>
        <time>2016-05-15T08:06:32.000Z</time>
      </trkpt>
      <trkpt lat="47.46195" lon="6.73718">
        <ele>422</ele>
        <time>2016-05-15T08:06:33.000Z</time>
      </trkpt>
      <trkpt lat="47.46192" lon="6.73718">
        <ele>422</ele>
        <time>2016-05-15T08:06:34.000Z</time>
      </trkpt>
      <trkpt lat="47.46189" lon="6.73717">
        <ele>422</ele>
        <time>2016-05-15T08:06:35.000Z</time>
      </trkpt>
      <trkpt lat="47.46187" lon="6.73717">
        <ele>422</ele>
        <time>2016-05-15T08:06:36.000Z</time>
      </trkpt>
      <trkpt lat="47.46184" lon="6.73717">
        <ele>422</ele>
        <time>2016-05-15T08:06:37.000Z</time>
      </trkpt>
      <trkpt lat="47.46182" lon="6.73716">
        <ele>422</ele>
        <time>2016-05-15T08:06:38.000Z</time>
      </trkpt>
      <trkpt lat="47.46179" lon="6.73716">
        <ele>422</ele>
        <time>2016-05-15T08:06:39.000Z</time>
      </trkpt>
      <trkpt lat="47.46177" lon="6.73715">
        <ele>422</ele>
        <time>2016-05-15T08:06:40.000Z</time>
      </trkpt>
      <trkpt lat="47.46174" lon="6.73715">
        <ele>422</ele>
        <time>2016-05-15T08:06:41.000Z</time>
      </trkpt>
      <trkpt lat="47.46172" lon="6.73714">
        <ele>422</ele>
        <time>2016-05-15T08:06:42.000Z</time>
      </trkpt>
      <trkpt lat="47.46169" lon="6.73712">
        <ele>422</ele>
        <time>2016-05-15T08:06:44.000Z</time>
      </trkpt>
      <trkpt lat="47.46167" lon="6.73711">
        <ele>422</ele>
        <time>2016-05-15T08:06:45.000Z</time>
      </trkpt>
      <trkpt lat="47.46164" lon="6.73707">
        <ele>426</ele>
        <time>2016-05-15T08:06:47.000Z</time>
      </trkpt>
      <trkpt lat="47.46162" lon="6.73705">
        <ele>426</ele>
        <time>2016-05-15T08:06:48.000Z</time>
      </trkpt>
      <trkpt lat="47.4616" lon="6.73702">
        <ele>426</ele>
        <time>2016-05-15T08:06:49.000Z</time>
      </trkpt>
      <trkpt lat="47.46157" lon="6.737">
        <ele>426</ele>
        <time>2016-05-15T08:06:50.000Z</time>
      </trkpt>
      <trkpt lat="47.46155" lon="6.73698">
        <ele>426</ele>
        <time>2016-05-15T08:06:51.000Z</time>
      </trkpt>
      <trkpt lat="47.46152" lon="6.73696">
        <ele>426</ele>
        <time>2016-05-15T08:06:52.000Z</time>
      </trkpt>
      <trkpt lat="47.46149" lon="6.73694">
        <ele>426</ele>
        <time>2016-05-15T08:06:53.000Z</time>
      </trkpt>
      <trkpt lat="47.46146" lon="6.73693">
        <ele>426</ele>
        <time>2016-05-15T08:06:54.000Z</time>
      </trkpt>
      <trkpt lat="47.46144" lon="6.73692">
        <ele>426</ele>
        <time>2016-05-15T08:06:55.000Z</time>
      </trkpt>
      <trkpt lat="47.46142" lon="6.73691">
        <ele>426</ele>
        <time>2016-05-15T08:06:56.000Z</time>
      </trkpt>
      <trkpt lat="47.4614" lon="6.73689">
        <ele>426</ele>
        <time>2016-05-15T08:06:57.000Z</time>
      </trkpt>
      <trkpt lat="47.46137" lon="6.73688">
        <ele>427</ele>
        <time>2016-05-15T08:06:58.000Z</time>
      </trkpt>
      <trkpt lat="47.46135" lon="6.73687">
        <ele>427</ele>
        <time>2016-05-15T08:06:59.000Z</time>
      </trkpt>
      <trkpt lat="47.46132" lon="6.73687">
        <ele>427</ele>
        <time>2016-05-15T08:07:00.000Z</time>
      </trkpt>
      <trkpt lat="47.4613" lon="6.73688">
        <ele>427</ele>
        <time>2016-05-15T08:07:01.000Z</time>
      </trkpt>
      <trkpt lat="47.46128" lon="6.73687">
        <ele>427</ele>
        <time>2016-05-15T08:07:02.000Z</time>
      </trkpt>
      <trkpt lat="47.46123" lon="6.73685">
        <ele>428</ele>
        <time>2016-05-15T08:07:04.000Z</time>
      </trkpt>
      <trkpt lat="47.46121" lon="6.73684">
        <ele>428</ele>
        <time>2016-05-15T08:07:05.000Z</time>
      </trkpt>
      <trkpt lat="47.46118" lon="6.73683">
        <ele>428</ele>
        <time>2016-05-15T08:07:06.000Z</time>
      </trkpt>
      <trkpt lat="47.46116" lon="6.73682">
        <ele>428</ele>
        <time>2016-05-15T08:07:07.000Z</time>
      </trkpt>
      <trkpt lat="47.46114" lon="6.73681">
        <ele>428</ele>
        <time>2016-05-15T08:07:08.000Z</time>
      </trkpt>
      <trkpt lat="47.46111" lon="6.73679">
        <ele>429</ele>
        <time>2016-05-15T08:07:09.000Z</time>
      </trkpt>
      <trkpt lat="47.46108" lon="6.73677">
        <ele>429</ele>
        <time>2016-05-15T08:07:10.000Z</time>
      </trkpt>
      <trkpt lat="47.46105" lon="6.73675">
        <ele>429</ele>
        <time>2016-05-15T08:07:11.000Z</time>
      </trkpt>
      <trkpt lat="47.46102" lon="6.73673">
        <ele>430</ele>
        <time>2016-05-15T08:07:12.000Z</time>
      </trkpt>
      <trkpt lat="47.461" lon="6.73671">
        <ele>430</ele>
        <time>2016-05-15T08:07:13.000Z</time>
      </trkpt>
      <trkpt lat="47.46098" lon="6.7367">
        <ele>430</ele>
        <time>2016-05-15T08:07:14.000Z</time>
      </trkpt>
      <trkpt lat="47.46095" lon="6.73668">
        <ele>431</ele>
        <time>2016-05-15T08:07:15.000Z</time>
      </trkpt>
      <trkpt lat="47.46093" lon="6.73666">
        <ele>431</ele>
        <time>2016-05-15T08:07:16.000Z</time>
      </trkpt>
      <trkpt lat="47.46091" lon="6.73664">
        <ele>432</ele>
        <time>2016-05-15T08:07:17.000Z</time>
      </trkpt>
      <trkpt lat="47.46088" lon="6.73661">
        <ele>432</ele>
        <time>2016-05-15T08:07:18.000Z</time>
      </trkpt>
      <trkpt lat="47.46086" lon="6.73659">
        <ele>432</ele>
        <time>2016-05-15T08:07:19.000Z</time>
      </trkpt>
      <trkpt lat="47.46084" lon="6.73656">
        <ele>431</ele>
        <time>2016-05-15T08:07:20.000Z</time>
      </trkpt>
      <trkpt lat="47.46083" lon="6.73653">
        <ele>433</ele>
        <time>2016-05-15T08:07:21.000Z</time>
      </trkpt>
      <trkpt lat="47.46082" lon="6.7365">
        <ele>434</ele>
        <time>2016-05-15T08:07:22.000Z</time>
      </trkpt>
      <trkpt lat="47.4608" lon="6.73647">
        <ele>434</ele>
        <time>2016-05-15T08:07:23.000Z</time>
      </trkpt>
      <trkpt lat="47.46078" lon="6.73644">
        <ele>434</ele>
        <time>2016-05-15T08:07:24.000Z</time>
      </trkpt>
      <trkpt lat="47.46076" lon="6.73642">
        <ele>434</ele>
        <time>2016-05-15T08:07:25.000Z</time>
      </trkpt>
      <trkpt lat="47.46074" lon="6.7364">
        <ele>434</ele>
        <time>2016-05-15T08:07:26.000Z</time>
      </trkpt>
      <trkpt lat="47.46071" lon="6.73638">
        <ele>434</ele>
        <time>2016-05-15T08:07:27.000Z</time>
      </trkpt>
      <trkpt lat="47.46069" lon="6.73636">
        <ele>434</ele>
        <time>2016-05-15T08:07:28.000Z</time>
      </trkpt>
      <trkpt lat="47.46066" lon="6.73634">
        <ele>434</ele>
        <time>2016-05-15T08:07:29.000Z</time>
      </trkpt>
      <trkpt lat="47.46064" lon="6.73632">
        <ele>434</ele>
        <time>2016-05-15T08:07:30.000Z</time>
      </trkpt>
      <trkpt lat="47.46062" lon="6.7363">
        <ele>434</ele>
        <time>2016-05-15T08:07:31.000Z</time>
      </trkpt>
      <trkpt lat="47.4606" lon="6.73629">
        <ele>434</ele>
        <time>2016-05-15T08:07:32.000Z</time>
      </trkpt>
      <trkpt lat="47.46057" lon="6.73627">
        <ele>434</ele>
        <time>2016-05-15T08:07:33.000Z</time>
      </trkpt>
      <trkpt lat="47.46055" lon="6.73626">
        <ele>434</ele>
        <time>2016-05-15T08:07:34.000Z</time>
      </trkpt>
      <trkpt lat="47.46053" lon="6.73624">
        <ele>434</ele>
        <time>2016-05-15T08:07:35.000Z</time>
      </trkpt>
      <trkpt lat="47.4605" lon="6.73623">
        <ele>434</ele>
        <time>2016-05-15T08:07:36.000Z</time>
      </trkpt>
      <trkpt lat="47.46048" lon="6.73622">
        <ele>434</ele>
        <time>2016-05-15T08:07:37.000Z</time>
      </trkpt>
      <trkpt lat="47.46045" lon="6.73621">
        <ele>434</ele>
        <time>2016-05-15T08:07:38.000Z</time>
      </trkpt>
      <trkpt lat="47.46043" lon="6.7362">
        <ele>434</ele>
        <time>2016-05-15T08:07:39.000Z</time>
      </trkpt>
      <trkpt lat="47.46039" lon="6.73618">
        <ele>434</ele>
        <time>2016-05-15T08:07:41.000Z</time>
      </trkpt>
      <trkpt lat="47.46037" lon="6.73617">
        <ele>434</ele>
        <time>2016-05-15T08:07:42.000Z</time>
      </trkpt>
      <trkpt lat="47.46033" lon="6.73616">
        <ele>434</ele>
        <time>2016-05-15T08:07:44.000Z</time>
      </trkpt>
      <trkpt lat="47.4603" lon="6.73616">
        <ele>434</ele>
        <time>2016-05-15T08:07:45.000Z</time>
      </trkpt>
      <trkpt lat="47.46028" lon="6.73616">
        <ele>435</ele>
        <time>2016-05-15T08:07:46.000Z</time>
      </trkpt>
      <trkpt lat="47.46026" lon="6.73616">
        <ele>435</ele>
        <time>2016-05-15T08:07:47.000Z</time>
      </trkpt>
      <trkpt lat="47.46023" lon="6.73615">
        <ele>435</ele>
        <time>2016-05-15T08:07:48.000Z</time>
      </trkpt>
      <trkpt lat="47.46021" lon="6.73615">
        <ele>435</ele>
        <time>2016-05-15T08:07:49.000Z</time>
      </trkpt>
      <trkpt lat="47.46017" lon="6.73614">
        <ele>435</ele>
        <time>2016-05-15T08:07:51.000Z</time>
      </trkpt>
      <trkpt lat="47.46015" lon="6.73614">
        <ele>435</ele>
        <time>2016-05-15T08:07:52.000Z</time>
      </trkpt>
      <trkpt lat="47.46012" lon="6.73614">
        <ele>435</ele>
        <time>2016-05-15T08:07:54.000Z</time>
      </trkpt>
      <trkpt lat="47.4601" lon="6.73614">
        <ele>435</ele>
        <time>2016-05-15T08:07:55.000Z</time>
      </trkpt>
      <trkpt lat="47.46007" lon="6.73614">
        <ele>435</ele>
        <time>2016-05-15T08:07:56.000Z</time>
      </trkpt>
      <trkpt lat="47.46005" lon="6.73614">
        <ele>435</ele>
        <time>2016-05-15T08:07:57.000Z</time>
      </trkpt>
      <trkpt lat="47.46002" lon="6.73615">
        <ele>435</ele>
        <time>2016-05-15T08:07:58.000Z</time>
      </trkpt>
      <trkpt lat="47.46" lon="6.73616">
        <ele>438</ele>
        <time>2016-05-15T08:07:59.000Z</time>
      </trkpt>
      <trkpt lat="47.45995" lon="6.73616">
        <ele>438</ele>
        <time>2016-05-15T08:08:01.000Z</time>
      </trkpt>
      <trkpt lat="47.45993" lon="6.73616">
        <ele>438</ele>
        <time>2016-05-15T08:08:02.000Z</time>
      </trkpt>
      <trkpt lat="47.45991" lon="6.73617">
        <ele>438</ele>
        <time>2016-05-15T08:08:03.000Z</time>
      </trkpt>
      <trkpt lat="47.45988" lon="6.73617">
        <ele>438</ele>
        <time>2016-05-15T08:08:04.000Z</time>
      </trkpt>
      <trkpt lat="47.45985" lon="6.73617">
        <ele>438</ele>
        <time>2016-05-15T08:08:05.000Z</time>
      </trkpt>
      <trkpt lat="47.45983" lon="6.73617">
        <ele>438</ele>
        <time>2016-05-15T08:08:06.000Z</time>
      </trkpt>
      <trkpt lat="47.4598" lon="6.73617">
        <ele>438</ele>
        <time>2016-05-15T08:08:07.000Z</time>
      </trkpt>
      <trkpt lat="47.45978" lon="6.73617">
        <ele>438</ele>
        <time>2016-05-15T08:08:08.000Z</time>
      </trkpt>
      <trkpt lat="47.45975" lon="6.73618">
        <ele>438</ele>
        <time>2016-05-15T08:08:09.000Z</time>
      </trkpt>
      <trkpt lat="47.45973" lon="6.73618">
        <ele>438</ele>
        <time>2016-05-15T08:08:10.000Z</time>
      </trkpt>
      <trkpt lat="47.4597" lon="6.73618">
        <ele>438</ele>
        <time>2016-05-15T08:08:11.000Z</time>
      </trkpt>
      <trkpt lat="47.45967" lon="6.73619">
        <ele>438</ele>
        <time>2016-05-15T08:08:12.000Z</time>
      </trkpt>
      <trkpt lat="47.45964" lon="6.73619">
        <ele>438</ele>
        <time>2016-05-15T08:08:13.000Z</time>
      </trkpt>
      <trkpt lat="47.45962" lon="6.7362">
        <ele>438</ele>
        <time>2016-05-15T08:08:14.000Z</time>
      </trkpt>
      <trkpt lat="47.45958" lon="6.73621">
        <ele>439</ele>
        <time>2016-05-15T08:08:16.000Z</time>
      </trkpt>
      <trkpt lat="47.45956" lon="6.73622">
        <ele>439</ele>
        <time>2016-05-15T08:08:17.000Z</time>
      </trkpt>
      <trkpt lat="47.45952" lon="6.73624">
        <ele>439</ele>
        <time>2016-05-15T08:08:19.000Z</time>
      </trkpt>
      <trkpt lat="47.4595" lon="6.73626">
        <ele>439</ele>
        <time>2016-05-15T08:08:20.000Z</time>
      </trkpt>
      <trkpt lat="47.45947" lon="6.73629">
        <ele>439</ele>
        <time>2016-05-15T08:08:22.000Z</time>
      </trkpt>
      <trkpt lat="47.45946" lon="6.73631">
        <ele>439</ele>
        <time>2016-05-15T08:08:23.000Z</time>
      </trkpt>
      <trkpt lat="47.45944" lon="6.73636">
        <ele>439</ele>
        <time>2016-05-15T08:08:25.000Z</time>
      </trkpt>
      <trkpt lat="47.45943" lon="6.73638">
        <ele>439</ele>
        <time>2016-05-15T08:08:26.000Z</time>
      </trkpt>
      <trkpt lat="47.45941" lon="6.73641">
        <ele>439</ele>
        <time>2016-05-15T08:08:27.000Z</time>
      </trkpt>
      <trkpt lat="47.4594" lon="6.73643">
        <ele>439</ele>
        <time>2016-05-15T08:08:28.000Z</time>
      </trkpt>
      <trkpt lat="47.45938" lon="6.73645">
        <ele>439</ele>
        <time>2016-05-15T08:08:29.000Z</time>
      </trkpt>
      <trkpt lat="47.45936" lon="6.73648">
        <ele>439</ele>
        <time>2016-05-15T08:08:30.000Z</time>
      </trkpt>
      <trkpt lat="47.45933" lon="6.7365">
        <ele>439</ele>
        <time>2016-05-15T08:08:31.000Z</time>
      </trkpt>
      <trkpt lat="47.45931" lon="6.73651">
        <ele>439</ele>
        <time>2016-05-15T08:08:32.000Z</time>
      </trkpt>
      <trkpt lat="47.45928" lon="6.73653">
        <ele>439</ele>
        <time>2016-05-15T08:08:33.000Z</time>
      </trkpt>
      <trkpt lat="47.45926" lon="6.73654">
        <ele>439</ele>
        <time>2016-05-15T08:08:34.000Z</time>
      </trkpt>
      <trkpt lat="47.45923" lon="6.73654">
        <ele>439</ele>
        <time>2016-05-15T08:08:35.000Z</time>
      </trkpt>
      <trkpt lat="47.45921" lon="6.73654">
        <ele>439</ele>
        <time>2016-05-15T08:08:36.000Z</time>
      </trkpt>
      <trkpt lat="47.45918" lon="6.73654">
        <ele>439</ele>
        <time>2016-05-15T08:08:37.000Z</time>
      </trkpt>
      <trkpt lat="47.45915" lon="6.73653">
        <ele>441</ele>
        <time>2016-05-15T08:08:38.000Z</time>
      </trkpt>
      <trkpt lat="47.45912" lon="6.73653">
        <ele>441</ele>
        <time>2016-05-15T08:08:39.000Z</time>
      </trkpt>
      <trkpt lat="47.4591" lon="6.73654">
        <ele>441</ele>
        <time>2016-05-15T08:08:40.000Z</time>
      </trkpt>
      <trkpt lat="47.45907" lon="6.73654">
        <ele>441</ele>
        <time>2016-05-15T08:08:41.000Z</time>
      </trkpt>
      <trkpt lat="47.45904" lon="6.73654">
        <ele>442</ele>
        <time>2016-05-15T08:08:42.000Z</time>
      </trkpt>
      <trkpt lat="47.45901" lon="6.73654">
        <ele>442</ele>
        <time>2016-05-15T08:08:43.000Z</time>
      </trkpt>
      <trkpt lat="47.45899" lon="6.73654">
        <ele>442</ele>
        <time>2016-05-15T08:08:44.000Z</time>
      </trkpt>
      <trkpt lat="47.45894" lon="6.73653">
        <ele>442</ele>
        <time>2016-05-15T08:08:46.000Z</time>
      </trkpt>
      <trkpt lat="47.45892" lon="6.73653">
        <ele>442</ele>
        <time>2016-05-15T08:08:47.000Z</time>
      </trkpt>
      <trkpt lat="47.45889" lon="6.73653">
        <ele>442</ele>
        <time>2016-05-15T08:08:48.000Z</time>
      </trkpt>
      <trkpt lat="47.45886" lon="6.73653">
        <ele>442</ele>
        <time>2016-05-15T08:08:49.000Z</time>
      </trkpt>
      <trkpt lat="47.45884" lon="6.73653">
        <ele>443</ele>
        <time>2016-05-15T08:08:50.000Z</time>
      </trkpt>
      <trkpt lat="47.45881" lon="6.73653">
        <ele>443</ele>
        <time>2016-05-15T08:08:51.000Z</time>
      </trkpt>
      <trkpt lat="47.45877" lon="6.73653">
        <ele>443</ele>
        <time>2016-05-15T08:08:53.000Z</time>
      </trkpt>
      <trkpt lat="47.45875" lon="6.73654">
        <ele>443</ele>
        <time>2016-05-15T08:08:54.000Z</time>
      </trkpt>
      <trkpt lat="47.45871" lon="6.73654">
        <ele>443</ele>
        <time>2016-05-15T08:08:56.000Z</time>
      </trkpt>
      <trkpt lat="47.45869" lon="6.73653">
        <ele>443</ele>
        <time>2016-05-15T08:08:57.000Z</time>
      </trkpt>
      <trkpt lat="47.45865" lon="6.73653">
        <ele>443</ele>
        <time>2016-05-15T08:08:58.998Z</time>
      </trkpt>
      <trkpt lat="47.45861" lon="6.73653">
        <ele>443</ele>
        <time>2016-05-15T08:09:00.000Z</time>
      </trkpt>
      <trkpt lat="47.45858" lon="6.73654">
        <ele>443</ele>
        <time>2016-05-15T08:09:01.000Z</time>
      </trkpt>
      <trkpt lat="47.45855" lon="6.73654">
        <ele>444</ele>
        <time>2016-05-15T08:09:02.000Z</time>
      </trkpt>
      <trkpt lat="47.45852" lon="6.73655">
        <ele>444</ele>
        <time>2016-05-15T08:09:03.000Z</time>
      </trkpt>
      <trkpt lat="47.45849" lon="6.73655">
        <ele>444</ele>
        <time>2016-05-15T08:09:04.000Z</time>
      </trkpt>
      <trkpt lat="47.45847" lon="6.73655">
        <ele>444</ele>
        <time>2016-05-15T08:09:05.000Z</time>
      </trkpt>
      <trkpt lat="47.45845" lon="6.73654">
        <ele>444</ele>
        <time>2016-05-15T08:09:06.000Z</time>
      </trkpt>
      <trkpt lat="47.45842" lon="6.73654">
        <ele>444</ele>
        <time>2016-05-15T08:09:07.000Z</time>
      </trkpt>
      <trkpt lat="47.4584" lon="6.73654">
        <ele>444</ele>
        <time>2016-05-15T08:09:08.000Z</time>
      </trkpt>
      <trkpt lat="47.45837" lon="6.73654">
        <ele>444</ele>
        <time>2016-05-15T08:09:09.000Z</time>
      </trkpt>
      <trkpt lat="47.45835" lon="6.73654">
        <ele>444</ele>
        <time>2016-05-15T08:09:10.000Z</time>
      </trkpt>
      <trkpt lat="47.45832" lon="6.73654">
        <ele>446</ele>
        <time>2016-05-15T08:09:11.000Z</time>
      </trkpt>
      <trkpt lat="47.4583" lon="6.73655">
        <ele>446</ele>
        <time>2016-05-15T08:09:12.000Z</time>
      </trkpt>
      <trkpt lat="47.45827" lon="6.73655">
        <ele>446</ele>
        <time>2016-05-15T08:09:13.000Z</time>
      </trkpt>
      <trkpt lat="47.45824" lon="6.73655">
        <ele>446</ele>
        <time>2016-05-15T08:09:14.000Z</time>
      </trkpt>
      <trkpt lat="47.45821" lon="6.73655">
        <ele>446</ele>
        <time>2016-05-15T08:09:15.000Z</time>
      </trkpt>
      <trkpt lat="47.45819" lon="6.73656">
        <ele>446</ele>
        <time>2016-05-15T08:09:16.000Z</time>
      </trkpt>
      <trkpt lat="47.45816" lon="6.73656">
        <ele>446</ele>
        <time>2016-05-15T08:09:17.000Z</time>
      </trkpt>
      <trkpt lat="47.45813" lon="6.73656">
        <ele>446</ele>
        <time>2016-05-15T08:09:18.000Z</time>
      </trkpt>
      <trkpt lat="47.4581" lon="6.73656">
        <ele>446</ele>
        <time>2016-05-15T08:09:19.000Z</time>
      </trkpt>
      <trkpt lat="47.45808" lon="6.73656">
        <ele>446</ele>
        <time>2016-05-15T08:09:20.000Z</time>
      </trkpt>
      <trkpt lat="47.45804" lon="6.73657">
        <ele>447</ele>
        <time>2016-05-15T08:09:22.000Z</time>
      </trkpt>
      <trkpt lat="47.45801" lon="6.73657">
        <ele>447</ele>
        <time>2016-05-15T08:09:23.000Z</time>
      </trkpt>
      <trkpt lat="47.45799" lon="6.73658">
        <ele>447</ele>
        <time>2016-05-15T08:09:24.000Z</time>
      </trkpt>
      <trkpt lat="47.45796" lon="6.73658">
        <ele>447</ele>
        <time>2016-05-15T08:09:25.000Z</time>
      </trkpt>
      <trkpt lat="47.45793" lon="6.73658">
        <ele>447</ele>
        <time>2016-05-15T08:09:26.000Z</time>
      </trkpt>
      <trkpt lat="47.4579" lon="6.73659">
        <ele>447</ele>
        <time>2016-05-15T08:09:27.000Z</time>
      </trkpt>
      <trkpt lat="47.45788" lon="6.73659">
        <ele>447</ele>
        <time>2016-05-15T08:09:28.000Z</time>
      </trkpt>
      <trkpt lat="47.45785" lon="6.73659">
        <ele>447</ele>
        <time>2016-05-15T08:09:29.000Z</time>
      </trkpt>
      <trkpt lat="47.45781" lon="6.73661">
        <ele>447</ele>
        <time>2016-05-15T08:09:31.000Z</time>
      </trkpt>
      <trkpt lat="47.45779" lon="6.73661">
        <ele>447</ele>
        <time>2016-05-15T08:09:32.000Z</time>
      </trkpt>
      <trkpt lat="47.45775" lon="6.73662">
        <ele>448</ele>
        <time>2016-05-15T08:09:34.000Z</time>
      </trkpt>
      <trkpt lat="47.45773" lon="6.73663">
        <ele>448</ele>
        <time>2016-05-15T08:09:35.000Z</time>
      </trkpt>
      <trkpt lat="47.4577" lon="6.73663">
        <ele>448</ele>
        <time>2016-05-15T08:09:36.000Z</time>
      </trkpt>
      <trkpt lat="47.45768" lon="6.73663">
        <ele>448</ele>
        <time>2016-05-15T08:09:37.000Z</time>
      </trkpt>
      <trkpt lat="47.45765" lon="6.73664">
        <ele>448</ele>
        <time>2016-05-15T08:09:38.000Z</time>
      </trkpt>
      <trkpt lat="47.45762" lon="6.73664">
        <ele>448</ele>
        <time>2016-05-15T08:09:39.000Z</time>
      </trkpt>
      <trkpt lat="47.45759" lon="6.73664">
        <ele>448</ele>
        <time>2016-05-15T08:09:40.000Z</time>
      </trkpt>
      <trkpt lat="47.45757" lon="6.73665">
        <ele>448</ele>
        <time>2016-05-15T08:09:41.000Z</time>
      </trkpt>
      <trkpt lat="47.45754" lon="6.73665">
        <ele>449</ele>
        <time>2016-05-15T08:09:42.000Z</time>
      </trkpt>
      <trkpt lat="47.45751" lon="6.73666">
        <ele>449</ele>
        <time>2016-05-15T08:09:43.000Z</time>
      </trkpt>
      <trkpt lat="47.45749" lon="6.73666">
        <ele>449</ele>
        <time>2016-05-15T08:09:44.000Z</time>
      </trkpt>
      <trkpt lat="47.45746" lon="6.73666">
        <ele>449</ele>
        <time>2016-05-15T08:09:45.000Z</time>
      </trkpt>
      <trkpt lat="47.45743" lon="6.73666">
        <ele>449</ele>
        <time>2016-05-15T08:09:46.000Z</time>
      </trkpt>
      <trkpt lat="47.4574" lon="6.73667">
        <ele>450</ele>
        <time>2016-05-15T08:09:47.000Z</time>
      </trkpt>
      <trkpt lat="47.45738" lon="6.73667">
        <ele>450</ele>
        <time>2016-05-15T08:09:48.000Z</time>
      </trkpt>
      <trkpt lat="47.45736" lon="6.73667">
        <ele>450</ele>
        <time>2016-05-15T08:09:49.000Z</time>
      </trkpt>
      <trkpt lat="47.45733" lon="6.73666">
        <ele>450</ele>
        <time>2016-05-15T08:09:50.000Z</time>
      </trkpt>
      <trkpt lat="47.45731" lon="6.73666">
        <ele>450</ele>
        <time>2016-05-15T08:09:51.000Z</time>
      </trkpt>
      <trkpt lat="47.45728" lon="6.73666">
        <ele>450</ele>
        <time>2016-05-15T08:09:52.000Z</time>
      </trkpt>
      <trkpt lat="47.45726" lon="6.73667">
        <ele>450</ele>
        <time>2016-05-15T08:09:53.000Z</time>
      </trkpt>
      <trkpt lat="47.45723" lon="6.73667">
        <ele>450</ele>
        <time>2016-05-15T08:09:54.000Z</time>
      </trkpt>
      <trkpt lat="47.45719" lon="6.73667">
        <ele>450</ele>
        <time>2016-05-15T08:09:55.000Z</time>
      </trkpt>
      <trkpt lat="47.45716" lon="6.73667">
        <ele>451</ele>
        <time>2016-05-15T08:09:56.000Z</time>
      </trkpt>
      <trkpt lat="47.45713" lon="6.73666">
        <ele>451</ele>
        <time>2016-05-15T08:09:57.000Z</time>
      </trkpt>
      <trkpt lat="47.45711" lon="6.73666">
        <ele>451</ele>
        <time>2016-05-15T08:09:58.000Z</time>
      </trkpt>
      <trkpt lat="47.45708" lon="6.73666">
        <ele>451</ele>
        <time>2016-05-15T08:09:59.000Z</time>
      </trkpt>
      <trkpt lat="47.45705" lon="6.73666">
        <ele>451</ele>
        <time>2016-05-15T08:10:00.000Z</time>
      </trkpt>
      <trkpt lat="47.45702" lon="6.73666">
        <ele>451</ele>
        <time>2016-05-15T08:10:01.000Z</time>
      </trkpt>
      <trkpt lat="47.45699" lon="6.73667">
        <ele>451</ele>
        <time>2016-05-15T08:10:02.000Z</time>
      </trkpt>
      <trkpt lat="47.45697" lon="6.73667">
        <ele>451</ele>
        <time>2016-05-15T08:10:03.000Z</time>
      </trkpt>
      <trkpt lat="47.45694" lon="6.73667">
        <ele>451</ele>
        <time>2016-05-15T08:10:04.000Z</time>
      </trkpt>
      <trkpt lat="47.45691" lon="6.73667">
        <ele>451</ele>
        <time>2016-05-15T08:10:05.000Z</time>
      </trkpt>
      <trkpt lat="47.45689" lon="6.73668">
        <ele>451</ele>
        <time>2016-05-15T08:10:06.000Z</time>
      </trkpt>
      <trkpt lat="47.45686" lon="6.73668">
        <ele>452</ele>
        <time>2016-05-15T08:10:07.000Z</time>
      </trkpt>
      <trkpt lat="47.45684" lon="6.73668">
        <ele>452</ele>
        <time>2016-05-15T08:10:08.000Z</time>
      </trkpt>
      <trkpt lat="47.45682" lon="6.73668">
        <ele>452</ele>
        <time>2016-05-15T08:10:09.000Z</time>
      </trkpt>
      <trkpt lat="47.45679" lon="6.73669">
        <ele>452</ele>
        <time>2016-05-15T08:10:10.000Z</time>
      </trkpt>
      <trkpt lat="47.45676" lon="6.73669">
        <ele>452</ele>
        <time>2016-05-15T08:10:11.000Z</time>
      </trkpt>
      <trkpt lat="47.45673" lon="6.73669">
        <ele>452</ele>
        <time>2016-05-15T08:10:12.000Z</time>
      </trkpt>
      <trkpt lat="47.4567" lon="6.7367">
        <ele>453</ele>
        <time>2016-05-15T08:10:13.000Z</time>
      </trkpt>
      <trkpt lat="47.45666" lon="6.7367">
        <ele>454</ele>
        <time>2016-05-15T08:10:14.000Z</time>
      </trkpt>
      <trkpt lat="47.45663" lon="6.73671">
        <ele>454</ele>
        <time>2016-05-15T08:10:15.000Z</time>
      </trkpt>
      <trkpt lat="47.4566" lon="6.73672">
        <ele>454</ele>
        <time>2016-05-15T08:10:16.000Z</time>
      </trkpt>
      <trkpt lat="47.45657" lon="6.73673">
        <ele>454</ele>
        <time>2016-05-15T08:10:17.000Z</time>
      </trkpt>
      <trkpt lat="47.45654" lon="6.73674">
        <ele>455</ele>
        <time>2016-05-15T08:10:18.000Z</time>
      </trkpt>
      <trkpt lat="47.45651" lon="6.73675">
        <ele>455</ele>
        <time>2016-05-15T08:10:19.000Z</time>
      </trkpt>
      <trkpt lat="47.45647" lon="6.73676">
        <ele>455</ele>
        <time>2016-05-15T08:10:20.000Z</time>
      </trkpt>
      <trkpt lat="47.45644" lon="6.73676">
        <ele>456</ele>
        <time>2016-05-15T08:10:21.000Z</time>
      </trkpt>
      <trkpt lat="47.45641" lon="6.73676">
        <ele>456</ele>
        <time>2016-05-15T08:10:22.000Z</time>
      </trkpt>
      <trkpt lat="47.45638" lon="6.73676">
        <ele>456</ele>
        <time>2016-05-15T08:10:23.000Z</time>
      </trkpt>
      <trkpt lat="47.45635" lon="6.73676">
        <ele>456</ele>
        <time>2016-05-15T08:10:24.000Z</time>
      </trkpt>
      <trkpt lat="47.45632" lon="6.73676">
        <ele>456</ele>
        <time>2016-05-15T08:10:25.000Z</time>
      </trkpt>
      <trkpt lat="47.45629" lon="6.73677">
        <ele>457</ele>
        <time>2016-05-15T08:10:26.000Z</time>
      </trkpt>
      <trkpt lat="47.45626" lon="6.73678">
        <ele>457</ele>
        <time>2016-05-15T08:10:27.000Z</time>
      </trkpt>
      <trkpt lat="47.45624" lon="6.73679">
        <ele>457</ele>
        <time>2016-05-15T08:10:28.000Z</time>
      </trkpt>
      <trkpt lat="47.45621" lon="6.73681">
        <ele>457</ele>
        <time>2016-05-15T08:10:29.000Z</time>
      </trkpt>
      <trkpt lat="47.45618" lon="6.73682">
        <ele>457</ele>
        <time>2016-05-15T08:10:30.000Z</time>
      </trkpt>
      <trkpt lat="47.45615" lon="6.73683">
        <ele>457</ele>
        <time>2016-05-15T08:10:31.000Z</time>
      </trkpt>
      <trkpt lat="47.45612" lon="6.73684">
        <ele>458</ele>
        <time>2016-05-15T08:10:32.000Z</time>
      </trkpt>
      <trkpt lat="47.45608" lon="6.73684">
        <ele>458</ele>
        <time>2016-05-15T08:10:33.000Z</time>
      </trkpt>
      <trkpt lat="47.45605" lon="6.73685">
        <ele>458</ele>
        <time>2016-05-15T08:10:34.000Z</time>
      </trkpt>
      <trkpt lat="47.45603" lon="6.73685">
        <ele>458</ele>
        <time>2016-05-15T08:10:35.000Z</time>
      </trkpt>
      <trkpt lat="47.45598" lon="6.73683">
        <ele>458</ele>
        <time>2016-05-15T08:10:37.000Z</time>
      </trkpt>
      <trkpt lat="47.45596" lon="6.73682">
        <ele>458</ele>
        <time>2016-05-15T08:10:38.000Z</time>
      </trkpt>
      <trkpt lat="47.45594" lon="6.73681">
        <ele>459</ele>
        <time>2016-05-15T08:10:39.000Z</time>
      </trkpt>
      <trkpt lat="47.45591" lon="6.73681">
        <ele>459</ele>
        <time>2016-05-15T08:10:40.000Z</time>
      </trkpt>
      <trkpt lat="47.45587" lon="6.73682">
        <ele>459</ele>
        <time>2016-05-15T08:10:41.000Z</time>
      </trkpt>
      <trkpt lat="47.45584" lon="6.73684">
        <ele>459</ele>
        <time>2016-05-15T08:10:42.000Z</time>
      </trkpt>
      <trkpt lat="47.4558" lon="6.73685">
        <ele>461</ele>
        <time>2016-05-15T08:10:43.000Z</time>
      </trkpt>
      <trkpt lat="47.45575" lon="6.73686">
        <ele>461</ele>
        <time>2016-05-15T08:10:44.000Z</time>
      </trkpt>
      <trkpt lat="47.45571" lon="6.73686">
        <ele>461</ele>
        <time>2016-05-15T08:10:45.000Z</time>
      </trkpt>
      <trkpt lat="47.45567" lon="6.73686">
        <ele>461</ele>
        <time>2016-05-15T08:10:46.000Z</time>
      </trkpt>
      <trkpt lat="47.45563" lon="6.73685">
        <ele>461</ele>
        <time>2016-05-15T08:10:47.000Z</time>
      </trkpt>
      <trkpt lat="47.45559" lon="6.73684">
        <ele>461</ele>
        <time>2016-05-15T08:10:48.000Z</time>
      </trkpt>
      <trkpt lat="47.45556" lon="6.73683">
        <ele>461</ele>
        <time>2016-05-15T08:10:49.000Z</time>
      </trkpt>
      <trkpt lat="47.45553" lon="6.73682">
        <ele>461</ele>
        <time>2016-05-15T08:10:50.000Z</time>
      </trkpt>
      <trkpt lat="47.4555" lon="6.73679">
        <ele>461</ele>
        <time>2016-05-15T08:10:51.000Z</time>
      </trkpt>
      <trkpt lat="47.45547" lon="6.73676">
        <ele>461</ele>
        <time>2016-05-15T08:10:52.000Z</time>
      </trkpt>
      <trkpt lat="47.45544" lon="6.73672">
        <ele>461</ele>
        <time>2016-05-15T08:10:53.000Z</time>
      </trkpt>
      <trkpt lat="47.45541" lon="6.73669">
        <ele>461</ele>
        <time>2016-05-15T08:10:54.000Z</time>
      </trkpt>
      <trkpt lat="47.45539" lon="6.73667">
        <ele>461</ele>
        <time>2016-05-15T08:10:55.000Z</time>
      </trkpt>
      <trkpt lat="47.45536" lon="6.73665">
        <ele>461</ele>
        <time>2016-05-15T08:10:56.000Z</time>
      </trkpt>
      <trkpt lat="47.45533" lon="6.73663">
        <ele>461</ele>
        <time>2016-05-15T08:10:57.000Z</time>
      </trkpt>
      <trkpt lat="47.4553" lon="6.73661">
        <ele>461</ele>
        <time>2016-05-15T08:10:58.000Z</time>
      </trkpt>
      <trkpt lat="47.45528" lon="6.73659">
        <ele>461</ele>
        <time>2016-05-15T08:10:59.000Z</time>
      </trkpt>
      <trkpt lat="47.45524" lon="6.73657">
        <ele>462</ele>
        <time>2016-05-15T08:11:00.000Z</time>
      </trkpt>
      <trkpt lat="47.4552" lon="6.73655">
        <ele>462</ele>
        <time>2016-05-15T08:11:01.000Z</time>
      </trkpt>
      <trkpt lat="47.45515" lon="6.73652">
        <ele>462</ele>
        <time>2016-05-15T08:11:02.000Z</time>
      </trkpt>
      <trkpt lat="47.4551" lon="6.73649">
        <ele>462</ele>
        <time>2016-05-15T08:11:03.000Z</time>
      </trkpt>
      <trkpt lat="47.45507" lon="6.73645">
        <ele>462</ele>
        <time>2016-05-15T08:11:04.000Z</time>
      </trkpt>
      <trkpt lat="47.45503" lon="6.73642">
        <ele>462</ele>
        <time>2016-05-15T08:11:05.000Z</time>
      </trkpt>
      <trkpt lat="47.45499" lon="6.73638">
        <ele>462</ele>
        <time>2016-05-15T08:11:06.000Z</time>
      </trkpt>
      <trkpt lat="47.45495" lon="6.73633">
        <ele>462</ele>
        <time>2016-05-15T08:11:07.000Z</time>
      </trkpt>
      <trkpt lat="47.4549" lon="6.73628">
        <ele>462</ele>
        <time>2016-05-15T08:11:08.000Z</time>
      </trkpt>
      <trkpt lat="47.45486" lon="6.73622">
        <ele>463</ele>
        <time>2016-05-15T08:11:09.000Z</time>
      </trkpt>
      <trkpt lat="47.45482" lon="6.73616">
        <ele>463</ele>
        <time>2016-05-15T08:11:10.000Z</time>
      </trkpt>
      <trkpt lat="47.45478" lon="6.7361">
        <ele>463</ele>
        <time>2016-05-15T08:11:11.000Z</time>
      </trkpt>
      <trkpt lat="47.45474" lon="6.73605">
        <ele>463</ele>
        <time>2016-05-15T08:11:12.000Z</time>
      </trkpt>
      <trkpt lat="47.45471" lon="6.73599">
        <ele>463</ele>
        <time>2016-05-15T08:11:13.000Z</time>
      </trkpt>
      <trkpt lat="47.45467" lon="6.73594">
        <ele>463</ele>
        <time>2016-05-15T08:11:14.000Z</time>
      </trkpt>
      <trkpt lat="47.45463" lon="6.73588">
        <ele>463</ele>
        <time>2016-05-15T08:11:15.000Z</time>
      </trkpt>
      <trkpt lat="47.45462" lon="6.73586">
        <ele>463</ele>
        <time>2016-05-15T08:11:15.998Z</time>
      </trkpt>
      <trkpt lat="47.45456" lon="6.73575">
        <ele>464</ele>
        <time>2016-05-15T08:11:17.000Z</time>
      </trkpt>
      <trkpt lat="47.45453" lon="6.73569">
        <ele>464</ele>
        <time>2016-05-15T08:11:18.000Z</time>
      </trkpt>
      <trkpt lat="47.4545" lon="6.73561">
        <ele>464</ele>
        <time>2016-05-15T08:11:19.000Z</time>
      </trkpt>
      <trkpt lat="47.45449" lon="6.73554">
        <ele>464</ele>
        <time>2016-05-15T08:11:20.000Z</time>
      </trkpt>
      <trkpt lat="47.45447" lon="6.73548">
        <ele>464</ele>
        <time>2016-05-15T08:11:21.000Z</time>
      </trkpt>
      <trkpt lat="47.45446" lon="6.73541">
        <ele>464</ele>
        <time>2016-05-15T08:11:22.000Z</time>
      </trkpt>
      <trkpt lat="47.45445" lon="6.73536">
        <ele>464</ele>
        <time>2016-05-15T08:11:23.000Z</time>
      </trkpt>
      <trkpt lat="47.45443" lon="6.73531">
        <ele>464</ele>
        <time>2016-05-15T08:11:24.000Z</time>
      </trkpt>
      <trkpt lat="47.45442" lon="6.73526">
        <ele>464</ele>
        <time>2016-05-15T08:11:25.000Z</time>
      </trkpt>
      <trkpt lat="47.45441" lon="6.7352">
        <ele>464</ele>
        <time>2016-05-15T08:11:26.000Z</time>
      </trkpt>
      <trkpt lat="47.45441" lon="6.73515">
        <ele>463</ele>
        <time>2016-05-15T08:11:27.000Z</time>
      </trkpt>
      <trkpt lat="47.45439" lon="6.73509">
        <ele>463</ele>
        <time>2016-05-15T08:11:28.000Z</time>
      </trkpt>
      <trkpt lat="47.45438" lon="6.73503">
        <ele>463</ele>
        <time>2016-05-15T08:11:29.000Z</time>
      </trkpt>
      <trkpt lat="47.45437" lon="6.73498">
        <ele>464</ele>
        <time>2016-05-15T08:11:30.000Z</time>
      </trkpt>
      <trkpt lat="47.45436" lon="6.73492">
        <ele>464</ele>
        <time>2016-05-15T08:11:31.000Z</time>
      </trkpt>
      <trkpt lat="47.45435" lon="6.73485">
        <ele>464</ele>
        <time>2016-05-15T08:11:32.000Z</time>
      </trkpt>
      <trkpt lat="47.45435" lon="6.73477">
        <ele>464</ele>
        <time>2016-05-15T08:11:33.000Z</time>
      </trkpt>
      <trkpt lat="47.45436" lon="6.7347">
        <ele>464</ele>
        <time>2016-05-15T08:11:34.000Z</time>
      </trkpt>
      <trkpt lat="47.45437" lon="6.73462">
        <ele>464</ele>
        <time>2016-05-15T08:11:35.000Z</time>
      </trkpt>
      <trkpt lat="47.45438" lon="6.73455">
        <ele>464</ele>
        <time>2016-05-15T08:11:36.000Z</time>
      </trkpt>
      <trkpt lat="47.45439" lon="6.73448">
        <ele>464</ele>
        <time>2016-05-15T08:11:37.000Z</time>
      </trkpt>
      <trkpt lat="47.45441" lon="6.73442">
        <ele>464</ele>
        <time>2016-05-15T08:11:38.000Z</time>
      </trkpt>
      <trkpt lat="47.45442" lon="6.73436">
        <ele>465</ele>
        <time>2016-05-15T08:11:39.000Z</time>
      </trkpt>
      <trkpt lat="47.45442" lon="6.73428">
        <ele>465</ele>
        <time>2016-05-15T08:11:40.000Z</time>
      </trkpt>
      <trkpt lat="47.45443" lon="6.7342">
        <ele>465</ele>
        <time>2016-05-15T08:11:41.000Z</time>
      </trkpt>
      <trkpt lat="47.45443" lon="6.73411">
        <ele>464</ele>
        <time>2016-05-15T08:11:42.000Z</time>
      </trkpt>
      <trkpt lat="47.45443" lon="6.73402">
        <ele>464</ele>
        <time>2016-05-15T08:11:43.000Z</time>
      </trkpt>
      <trkpt lat="47.45445" lon="6.73394">
        <ele>464</ele>
        <time>2016-05-15T08:11:44.000Z</time>
      </trkpt>
      <trkpt lat="47.45447" lon="6.73386">
        <ele>464</ele>
        <time>2016-05-15T08:11:45.000Z</time>
      </trkpt>
      <trkpt lat="47.4545" lon="6.73379">
        <ele>464</ele>
        <time>2016-05-15T08:11:46.000Z</time>
      </trkpt>
      <trkpt lat="47.45454" lon="6.73373">
        <ele>464</ele>
        <time>2016-05-15T08:11:47.000Z</time>
      </trkpt>
      <trkpt lat="47.45457" lon="6.73367">
        <ele>464</ele>
        <time>2016-05-15T08:11:48.000Z</time>
      </trkpt>
      <trkpt lat="47.45461" lon="6.73362">
        <ele>464</ele>
        <time>2016-05-15T08:11:49.000Z</time>
      </trkpt>
      <trkpt lat="47.45464" lon="6.73358">
        <ele>464</ele>
        <time>2016-05-15T08:11:50.000Z</time>
      </trkpt>
      <trkpt lat="47.45467" lon="6.73353">
        <ele>464</ele>
        <time>2016-05-15T08:11:51.000Z</time>
      </trkpt>
      <trkpt lat="47.45469" lon="6.73349">
        <ele>464</ele>
        <time>2016-05-15T08:11:52.000Z</time>
      </trkpt>
      <trkpt lat="47.45471" lon="6.73345">
        <ele>464</ele>
        <time>2016-05-15T08:11:53.000Z</time>
      </trkpt>
      <trkpt lat="47.45472" lon="6.73342">
        <ele>464</ele>
        <time>2016-05-15T08:11:54.000Z</time>
      </trkpt>
      <trkpt lat="47.45474" lon="6.73339">
        <ele>464</ele>
        <time>2016-05-15T08:11:55.000Z</time>
      </trkpt>
      <trkpt lat="47.45476" lon="6.73335">
        <ele>464</ele>
        <time>2016-05-15T08:11:56.000Z</time>
      </trkpt>
      <trkpt lat="47.45477" lon="6.73334">
        <ele>464</ele>
        <time>2016-05-15T08:11:56.998Z</time>
      </trkpt>
      <trkpt lat="47.45483" lon="6.73327">
        <ele>463</ele>
        <time>2016-05-15T08:11:58.000Z</time>
      </trkpt>
      <trkpt lat="47.45486" lon="6.73323">
        <ele>463</ele>
        <time>2016-05-15T08:11:59.000Z</time>
      </trkpt>
      <trkpt lat="47.4549" lon="6.7332">
        <ele>463</ele>
        <time>2016-05-15T08:12:00.000Z</time>
      </trkpt>
      <trkpt lat="47.45494" lon="6.73317">
        <ele>463</ele>
        <time>2016-05-15T08:12:01.000Z</time>
      </trkpt>
      <trkpt lat="47.45497" lon="6.73314">
        <ele>463</ele>
        <time>2016-05-15T08:12:02.000Z</time>
      </trkpt>
      <trkpt lat="47.455" lon="6.73312">
        <ele>463</ele>
        <time>2016-05-15T08:12:03.000Z</time>
      </trkpt>
      <trkpt lat="47.45503" lon="6.73309">
        <ele>463</ele>
        <time>2016-05-15T08:12:04.000Z</time>
      </trkpt>
      <trkpt lat="47.45506" lon="6.73306">
        <ele>463</ele>
        <time>2016-05-15T08:12:05.000Z</time>
      </trkpt>
      <trkpt lat="47.45509" lon="6.73304">
        <ele>463</ele>
        <time>2016-05-15T08:12:06.000Z</time>
      </trkpt>
      <trkpt lat="47.45511" lon="6.73301">
        <ele>463</ele>
        <time>2016-05-15T08:12:07.000Z</time>
      </trkpt>
      <trkpt lat="47.45513" lon="6.73298">
        <ele>463</ele>
        <time>2016-05-15T08:12:08.000Z</time>
      </trkpt>
      <trkpt lat="47.45516" lon="6.73295">
        <ele>463</ele>
        <time>2016-05-15T08:12:09.000Z</time>
      </trkpt>
      <trkpt lat="47.45518" lon="6.73292">
        <ele>463</ele>
        <time>2016-05-15T08:12:10.000Z</time>
      </trkpt>
      <trkpt lat="47.4552" lon="6.73289">
        <ele>463</ele>
        <time>2016-05-15T08:12:11.000Z</time>
      </trkpt>
      <trkpt lat="47.45522" lon="6.73287">
        <ele>463</ele>
        <time>2016-05-15T08:12:12.000Z</time>
      </trkpt>
      <trkpt lat="47.45525" lon="6.73284">
        <ele>463</ele>
        <time>2016-05-15T08:12:13.000Z</time>
      </trkpt>
      <trkpt lat="47.45527" lon="6.73282">
        <ele>463</ele>
        <time>2016-05-15T08:12:14.000Z</time>
      </trkpt>
      <trkpt lat="47.4553" lon="6.73279">
        <ele>463</ele>
        <time>2016-05-15T08:12:15.000Z</time>
      </trkpt>
      <trkpt lat="47.45532" lon="6.73277">
        <ele>463</ele>
        <time>2016-05-15T08:12:16.000Z</time>
      </trkpt>
      <trkpt lat="47.45534" lon="6.73274">
        <ele>463</ele>
        <time>2016-05-15T08:12:17.000Z</time>
      </trkpt>
      <trkpt lat="47.45536" lon="6.73271">
        <ele>463</ele>
        <time>2016-05-15T08:12:18.000Z</time>
      </trkpt>
      <trkpt lat="47.45538" lon="6.73268">
        <ele>463</ele>
        <time>2016-05-15T08:12:19.000Z</time>
      </trkpt>
      <trkpt lat="47.4554" lon="6.73265">
        <ele>463</ele>
        <time>2016-05-15T08:12:20.000Z</time>
      </trkpt>
      <trkpt lat="47.45543" lon="6.73262">
        <ele>463</ele>
        <time>2016-05-15T08:12:21.000Z</time>
      </trkpt>
      <trkpt lat="47.45546" lon="6.7326">
        <ele>463</ele>
        <time>2016-05-15T08:12:22.000Z</time>
      </trkpt>
      <trkpt lat="47.45548" lon="6.73257">
        <ele>464</ele>
        <time>2016-05-15T08:12:23.000Z</time>
      </trkpt>
      <trkpt lat="47.45551" lon="6.73254">
        <ele>464</ele>
        <time>2016-05-15T08:12:24.000Z</time>
      </trkpt>
      <trkpt lat="47.45553" lon="6.73251">
        <ele>464</ele>
        <time>2016-05-15T08:12:25.000Z</time>
      </trkpt>
      <trkpt lat="47.45555" lon="6.73248">
        <ele>466</ele>
        <time>2016-05-15T08:12:26.000Z</time>
      </trkpt>
      <trkpt lat="47.45557" lon="6.73246">
        <ele>466</ele>
        <time>2016-05-15T08:12:27.000Z</time>
      </trkpt>
      <trkpt lat="47.4556" lon="6.73242">
        <ele>466</ele>
        <time>2016-05-15T08:12:29.000Z</time>
      </trkpt>
      <trkpt lat="47.4556" lon="6.7324">
        <ele>466</ele>
        <time>2016-05-15T08:12:30.000Z</time>
      </trkpt>
      <trkpt lat="47.4556" lon="6.73234">
        <ele>466</ele>
        <time>2016-05-15T08:12:34.000Z</time>
      </trkpt>
      <trkpt lat="47.4556" lon="6.73232">
        <ele>466</ele>
        <time>2016-05-15T08:12:35.000Z</time>
      </trkpt>
      <trkpt lat="47.45559" lon="6.73226">
        <ele>466</ele>
        <time>2016-05-15T08:12:37.000Z</time>
      </trkpt>
      <trkpt lat="47.45559" lon="6.73222">
        <ele>466</ele>
        <time>2016-05-15T08:12:38.000Z</time>
      </trkpt>
      <trkpt lat="47.4556" lon="6.73216">
        <ele>466</ele>
        <time>2016-05-15T08:12:39.000Z</time>
      </trkpt>
      <trkpt lat="47.45561" lon="6.73211">
        <ele>466</ele>
        <time>2016-05-15T08:12:40.000Z</time>
      </trkpt>
      <trkpt lat="47.45561" lon="6.73206">
        <ele>466</ele>
        <time>2016-05-15T08:12:41.000Z</time>
      </trkpt>
      <trkpt lat="47.45561" lon="6.732">
        <ele>466</ele>
        <time>2016-05-15T08:12:42.000Z</time>
      </trkpt>
      <trkpt lat="47.45562" lon="6.73195">
        <ele>467</ele>
        <time>2016-05-15T08:12:43.000Z</time>
      </trkpt>
      <trkpt lat="47.45563" lon="6.73189">
        <ele>467</ele>
        <time>2016-05-15T08:12:44.000Z</time>
      </trkpt>
      <trkpt lat="47.45564" lon="6.73183">
        <ele>467</ele>
        <time>2016-05-15T08:12:45.000Z</time>
      </trkpt>
      <trkpt lat="47.45565" lon="6.73177">
        <ele>468</ele>
        <time>2016-05-15T08:12:46.000Z</time>
      </trkpt>
      <trkpt lat="47.45565" lon="6.73171">
        <ele>468</ele>
        <time>2016-05-15T08:12:47.000Z</time>
      </trkpt>
      <trkpt lat="47.45565" lon="6.73165">
        <ele>469</ele>
        <time>2016-05-15T08:12:48.000Z</time>
      </trkpt>
      <trkpt lat="47.45564" lon="6.73159">
        <ele>469</ele>
        <time>2016-05-15T08:12:49.000Z</time>
      </trkpt>
      <trkpt lat="47.45564" lon="6.73155">
        <ele>469</ele>
        <time>2016-05-15T08:12:50.000Z</time>
      </trkpt>
      <trkpt lat="47.45564" lon="6.7315">
        <ele>468</ele>
        <time>2016-05-15T08:12:51.000Z</time>
      </trkpt>
      <trkpt lat="47.45564" lon="6.73146">
        <ele>468</ele>
        <time>2016-05-15T08:12:52.000Z</time>
      </trkpt>
      <trkpt lat="47.45565" lon="6.73142">
        <ele>468</ele>
        <time>2016-05-15T08:12:53.000Z</time>
      </trkpt>
      <trkpt lat="47.45567" lon="6.73138">
        <ele>468</ele>
        <time>2016-05-15T08:12:54.000Z</time>
      </trkpt>
      <trkpt lat="47.45568" lon="6.73135">
        <ele>468</ele>
        <time>2016-05-15T08:12:55.000Z</time>
      </trkpt>
      <trkpt lat="47.4557" lon="6.73131">
        <ele>468</ele>
        <time>2016-05-15T08:12:56.000Z</time>
      </trkpt>
      <trkpt lat="47.4557" lon="6.73126">
        <ele>468</ele>
        <time>2016-05-15T08:12:57.000Z</time>
      </trkpt>
      <trkpt lat="47.45571" lon="6.73121">
        <ele>468</ele>
        <time>2016-05-15T08:12:58.000Z</time>
      </trkpt>
      <trkpt lat="47.4557" lon="6.73117">
        <ele>468</ele>
        <time>2016-05-15T08:12:59.000Z</time>
      </trkpt>
      <trkpt lat="47.4557" lon="6.73113">
        <ele>468</ele>
        <time>2016-05-15T08:13:00.000Z</time>
      </trkpt>
      <trkpt lat="47.45569" lon="6.73109">
        <ele>468</ele>
        <time>2016-05-15T08:13:01.000Z</time>
      </trkpt>
      <trkpt lat="47.45569" lon="6.73105">
        <ele>468</ele>
        <time>2016-05-15T08:13:02.000Z</time>
      </trkpt>
      <trkpt lat="47.45569" lon="6.73101">
        <ele>468</ele>
        <time>2016-05-15T08:13:03.000Z</time>
      </trkpt>
      <trkpt lat="47.45568" lon="6.73097">
        <ele>469</ele>
        <time>2016-05-15T08:13:04.000Z</time>
      </trkpt>
      <trkpt lat="47.45567" lon="6.73093">
        <ele>469</ele>
        <time>2016-05-15T08:13:05.000Z</time>
      </trkpt>
      <trkpt lat="47.45566" lon="6.73088">
        <ele>469</ele>
        <time>2016-05-15T08:13:06.000Z</time>
      </trkpt>
      <trkpt lat="47.45565" lon="6.73084">
        <ele>469</ele>
        <time>2016-05-15T08:13:07.000Z</time>
      </trkpt>
      <trkpt lat="47.45564" lon="6.73079">
        <ele>469</ele>
        <time>2016-05-15T08:13:08.000Z</time>
      </trkpt>
      <trkpt lat="47.45563" lon="6.73074">
        <ele>469</ele>
        <time>2016-05-15T08:13:09.000Z</time>
      </trkpt>
      <trkpt lat="47.45562" lon="6.73069">
        <ele>469</ele>
        <time>2016-05-15T08:13:10.000Z</time>
      </trkpt>
      <trkpt lat="47.4556" lon="6.73065">
        <ele>469</ele>
        <time>2016-05-15T08:13:11.000Z</time>
      </trkpt>
      <trkpt lat="47.45558" lon="6.73064">
        <ele>469</ele>
        <time>2016-05-15T08:13:12.000Z</time>
      </trkpt>
      <trkpt lat="47.45555" lon="6.73062">
        <ele>469</ele>
        <time>2016-05-15T08:13:14.000Z</time>
      </trkpt>
      <trkpt lat="47.45553" lon="6.73061">
        <ele>469</ele>
        <time>2016-05-15T08:13:15.000Z</time>
      </trkpt>
      <trkpt lat="47.45552" lon="6.73059">
        <ele>469</ele>
        <time>2016-05-15T08:13:16.000Z</time>
      </trkpt>
      <trkpt lat="47.4555" lon="6.73056">
        <ele>469</ele>
        <time>2016-05-15T08:13:17.000Z</time>
      </trkpt>
      <trkpt lat="47.45549" lon="6.73051">
        <ele>469</ele>
        <time>2016-05-15T08:13:18.000Z</time>
      </trkpt>
      <trkpt lat="47.45548" lon="6.73047">
        <ele>469</ele>
        <time>2016-05-15T08:13:19.000Z</time>
      </trkpt>
      <trkpt lat="47.45546" lon="6.73042">
        <ele>469</ele>
        <time>2016-05-15T08:13:20.000Z</time>
      </trkpt>
      <trkpt lat="47.45544" lon="6.73038">
        <ele>469</ele>
        <time>2016-05-15T08:13:21.000Z</time>
      </trkpt>
      <trkpt lat="47.45542" lon="6.73035">
        <ele>469</ele>
        <time>2016-05-15T08:13:22.000Z</time>
      </trkpt>
      <trkpt lat="47.4554" lon="6.73032">
        <ele>469</ele>
        <time>2016-05-15T08:13:23.000Z</time>
      </trkpt>
      <trkpt lat="47.45538" lon="6.73029">
        <ele>469</ele>
        <time>2016-05-15T08:13:24.000Z</time>
      </trkpt>
      <trkpt lat="47.45536" lon="6.73026">
        <ele>469</ele>
        <time>2016-05-15T08:13:25.000Z</time>
      </trkpt>
      <trkpt lat="47.45533" lon="6.73024">
        <ele>469</ele>
        <time>2016-05-15T08:13:26.000Z</time>
      </trkpt>
      <trkpt lat="47.45531" lon="6.73021">
        <ele>469</ele>
        <time>2016-05-15T08:13:27.000Z</time>
      </trkpt>
      <trkpt lat="47.45528" lon="6.73018">
        <ele>469</ele>
        <time>2016-05-15T08:13:28.000Z</time>
      </trkpt>
      <trkpt lat="47.45525" lon="6.73015">
        <ele>469</ele>
        <time>2016-05-15T08:13:29.000Z</time>
      </trkpt>
      <trkpt lat="47.45523" lon="6.73012">
        <ele>469</ele>
        <time>2016-05-15T08:13:30.000Z</time>
      </trkpt>
      <trkpt lat="47.45521" lon="6.73009">
        <ele>469</ele>
        <time>2016-05-15T08:13:31.000Z</time>
      </trkpt>
      <trkpt lat="47.45519" lon="6.73003">
        <ele>469</ele>
        <time>2016-05-15T08:13:32.000Z</time>
      </trkpt>
      <trkpt lat="47.45517" lon="6.72997">
        <ele>469</ele>
        <time>2016-05-15T08:13:33.000Z</time>
      </trkpt>
      <trkpt lat="47.45516" lon="6.72991">
        <ele>469</ele>
        <time>2016-05-15T08:13:34.000Z</time>
      </trkpt>
      <trkpt lat="47.45514" lon="6.72986">
        <ele>469</ele>
        <time>2016-05-15T08:13:35.000Z</time>
      </trkpt>
      <trkpt lat="47.45513" lon="6.72983">
        <ele>469</ele>
        <time>2016-05-15T08:13:36.000Z</time>
      </trkpt>
      <trkpt lat="47.45512" lon="6.7298">
        <ele>469</ele>
        <time>2016-05-15T08:13:37.000Z</time>
      </trkpt>
      <trkpt lat="47.4551" lon="6.72977">
        <ele>469</ele>
        <time>2016-05-15T08:13:38.000Z</time>
      </trkpt>
      <trkpt lat="47.45508" lon="6.72974">
        <ele>469</ele>
        <time>2016-05-15T08:13:39.000Z</time>
      </trkpt>
      <trkpt lat="47.45506" lon="6.72971">
        <ele>469</ele>
        <time>2016-05-15T08:13:40.000Z</time>
      </trkpt>
      <trkpt lat="47.45505" lon="6.72967">
        <ele>469</ele>
        <time>2016-05-15T08:13:41.000Z</time>
      </trkpt>
      <trkpt lat="47.45503" lon="6.72963">
        <ele>469</ele>
        <time>2016-05-15T08:13:42.000Z</time>
      </trkpt>
      <trkpt lat="47.455" lon="6.72959">
        <ele>469</ele>
        <time>2016-05-15T08:13:43.000Z</time>
      </trkpt>
      <trkpt lat="47.45498" lon="6.72956">
        <ele>469</ele>
        <time>2016-05-15T08:13:44.000Z</time>
      </trkpt>
      <trkpt lat="47.45496" lon="6.72952">
        <ele>469</ele>
        <time>2016-05-15T08:13:45.000Z</time>
      </trkpt>
      <trkpt lat="47.45494" lon="6.72948">
        <ele>469</ele>
        <time>2016-05-15T08:13:46.000Z</time>
      </trkpt>
      <trkpt lat="47.45491" lon="6.72945">
        <ele>469</ele>
        <time>2016-05-15T08:13:47.000Z</time>
      </trkpt>
      <trkpt lat="47.45489" lon="6.72941">
        <ele>469</ele>
        <time>2016-05-15T08:13:48.000Z</time>
      </trkpt>
      <trkpt lat="47.45487" lon="6.72936">
        <ele>470</ele>
        <time>2016-05-15T08:13:49.000Z</time>
      </trkpt>
      <trkpt lat="47.45485" lon="6.72932">
        <ele>470</ele>
        <time>2016-05-15T08:13:50.000Z</time>
      </trkpt>
      <trkpt lat="47.45484" lon="6.72927">
        <ele>470</ele>
        <time>2016-05-15T08:13:51.000Z</time>
      </trkpt>
      <trkpt lat="47.45482" lon="6.72923">
        <ele>470</ele>
        <time>2016-05-15T08:13:52.000Z</time>
      </trkpt>
      <trkpt lat="47.4548" lon="6.72919">
        <ele>470</ele>
        <time>2016-05-15T08:13:53.000Z</time>
      </trkpt>
      <trkpt lat="47.45479" lon="6.72914">
        <ele>470</ele>
        <time>2016-05-15T08:13:54.000Z</time>
      </trkpt>
      <trkpt lat="47.45477" lon="6.72909">
        <ele>470</ele>
        <time>2016-05-15T08:13:55.000Z</time>
      </trkpt>
      <trkpt lat="47.45475" lon="6.72904">
        <ele>470</ele>
        <time>2016-05-15T08:13:56.000Z</time>
      </trkpt>
      <trkpt lat="47.45472" lon="6.72899">
        <ele>469</ele>
        <time>2016-05-15T08:13:57.000Z</time>
      </trkpt>
      <trkpt lat="47.4547" lon="6.72894">
        <ele>469</ele>
        <time>2016-05-15T08:13:58.000Z</time>
      </trkpt>
      <trkpt lat="47.45468" lon="6.72889">
        <ele>469</ele>
        <time>2016-05-15T08:13:59.000Z</time>
      </trkpt>
      <trkpt lat="47.45466" lon="6.72885">
        <ele>469</ele>
        <time>2016-05-15T08:14:00.000Z</time>
      </trkpt>
      <trkpt lat="47.45465" lon="6.7288">
        <ele>469</ele>
        <time>2016-05-15T08:14:01.000Z</time>
      </trkpt>
      <trkpt lat="47.45463" lon="6.72875">
        <ele>469</ele>
        <time>2016-05-15T08:14:02.000Z</time>
      </trkpt>
      <trkpt lat="47.45461" lon="6.72869">
        <ele>469</ele>
        <time>2016-05-15T08:14:03.000Z</time>
      </trkpt>
      <trkpt lat="47.45459" lon="6.72864">
        <ele>469</ele>
        <time>2016-05-15T08:14:04.000Z</time>
      </trkpt>
      <trkpt lat="47.45458" lon="6.72859">
        <ele>469</ele>
        <time>2016-05-15T08:14:05.000Z</time>
      </trkpt>
      <trkpt lat="47.45456" lon="6.72853">
        <ele>469</ele>
        <time>2016-05-15T08:14:06.000Z</time>
      </trkpt>
      <trkpt lat="47.45455" lon="6.72848">
        <ele>469</ele>
        <time>2016-05-15T08:14:07.000Z</time>
      </trkpt>
      <trkpt lat="47.45454" lon="6.72842">
        <ele>469</ele>
        <time>2016-05-15T08:14:08.000Z</time>
      </trkpt>
      <trkpt lat="47.45453" lon="6.72838">
        <ele>469</ele>
        <time>2016-05-15T08:14:09.000Z</time>
      </trkpt>
      <trkpt lat="47.45452" lon="6.72834">
        <ele>469</ele>
        <time>2016-05-15T08:14:10.000Z</time>
      </trkpt>
      <trkpt lat="47.45449" lon="6.7283">
        <ele>465</ele>
        <time>2016-05-15T08:14:11.000Z</time>
      </trkpt>
      <trkpt lat="47.45447" lon="6.72827">
        <ele>465</ele>
        <time>2016-05-15T08:14:12.000Z</time>
      </trkpt>
      <trkpt lat="47.45444" lon="6.72823">
        <ele>465</ele>
        <time>2016-05-15T08:14:13.000Z</time>
      </trkpt>
      <trkpt lat="47.45442" lon="6.72819">
        <ele>465</ele>
        <time>2016-05-15T08:14:14.000Z</time>
      </trkpt>
      <trkpt lat="47.4544" lon="6.72813">
        <ele>465</ele>
        <time>2016-05-15T08:14:15.000Z</time>
      </trkpt>
      <trkpt lat="47.4544" lon="6.72807">
        <ele>464</ele>
        <time>2016-05-15T08:14:16.000Z</time>
      </trkpt>
      <trkpt lat="47.4544" lon="6.728">
        <ele>464</ele>
        <time>2016-05-15T08:14:17.000Z</time>
      </trkpt>
      <trkpt lat="47.45441" lon="6.72793">
        <ele>463</ele>
        <time>2016-05-15T08:14:18.000Z</time>
      </trkpt>
      <trkpt lat="47.45442" lon="6.72786">
        <ele>463</ele>
        <time>2016-05-15T08:14:19.000Z</time>
      </trkpt>
      <trkpt lat="47.45442" lon="6.72779">
        <ele>462</ele>
        <time>2016-05-15T08:14:20.000Z</time>
      </trkpt>
      <trkpt lat="47.4544" lon="6.72773">
        <ele>462</ele>
        <time>2016-05-15T08:14:21.000Z</time>
      </trkpt>
      <trkpt lat="47.45437" lon="6.72768">
        <ele>462</ele>
        <time>2016-05-15T08:14:22.000Z</time>
      </trkpt>
      <trkpt lat="47.45434" lon="6.72764">
        <ele>461</ele>
        <time>2016-05-15T08:14:23.000Z</time>
      </trkpt>
      <trkpt lat="47.4543" lon="6.72761">
        <ele>461</ele>
        <time>2016-05-15T08:14:24.000Z</time>
      </trkpt>
      <trkpt lat="47.45427" lon="6.72758">
        <ele>461</ele>
        <time>2016-05-15T08:14:25.000Z</time>
      </trkpt>
      <trkpt lat="47.45423" lon="6.72756">
        <ele>460</ele>
        <time>2016-05-15T08:14:26.000Z</time>
      </trkpt>
      <trkpt lat="47.4542" lon="6.72754">
        <ele>460</ele>
        <time>2016-05-15T08:14:27.000Z</time>
      </trkpt>
      <trkpt lat="47.45416" lon="6.72751">
        <ele>459</ele>
        <time>2016-05-15T08:14:28.000Z</time>
      </trkpt>
      <trkpt lat="47.45413" lon="6.72749">
        <ele>459</ele>
        <time>2016-05-15T08:14:29.000Z</time>
      </trkpt>
      <trkpt lat="47.4541" lon="6.72747">
        <ele>458</ele>
        <time>2016-05-15T08:14:30.000Z</time>
      </trkpt>
      <trkpt lat="47.45407" lon="6.72745">
        <ele>458</ele>
        <time>2016-05-15T08:14:31.000Z</time>
      </trkpt>
      <trkpt lat="47.45404" lon="6.72742">
        <ele>458</ele>
        <time>2016-05-15T08:14:32.000Z</time>
      </trkpt>
      <trkpt lat="47.45401" lon="6.72739">
        <ele>458</ele>
        <time>2016-05-15T08:14:33.000Z</time>
      </trkpt>
      <trkpt lat="47.45398" lon="6.72735">
        <ele>457</ele>
        <time>2016-05-15T08:14:34.000Z</time>
      </trkpt>
      <trkpt lat="47.45395" lon="6.72732">
        <ele>457</ele>
        <time>2016-05-15T08:14:35.000Z</time>
      </trkpt>
      <trkpt lat="47.45391" lon="6.72728">
        <ele>457</ele>
        <time>2016-05-15T08:14:36.000Z</time>
      </trkpt>
      <trkpt lat="47.45388" lon="6.72724">
        <ele>457</ele>
        <time>2016-05-15T08:14:37.000Z</time>
      </trkpt>
      <trkpt lat="47.45384" lon="6.7272">
        <ele>457</ele>
        <time>2016-05-15T08:14:38.000Z</time>
      </trkpt>
      <trkpt lat="47.45381" lon="6.72716">
        <ele>457</ele>
        <time>2016-05-15T08:14:39.000Z</time>
      </trkpt>
      <trkpt lat="47.45378" lon="6.72711">
        <ele>457</ele>
        <time>2016-05-15T08:14:40.000Z</time>
      </trkpt>
      <trkpt lat="47.45374" lon="6.72706">
        <ele>456</ele>
        <time>2016-05-15T08:14:41.000Z</time>
      </trkpt>
      <trkpt lat="47.45371" lon="6.72701">
        <ele>456</ele>
        <time>2016-05-15T08:14:42.000Z</time>
      </trkpt>
      <trkpt lat="47.45368" lon="6.72696">
        <ele>456</ele>
        <time>2016-05-15T08:14:43.000Z</time>
      </trkpt>
      <trkpt lat="47.45364" lon="6.72691">
        <ele>456</ele>
        <time>2016-05-15T08:14:44.000Z</time>
      </trkpt>
      <trkpt lat="47.45361" lon="6.72687">
        <ele>456</ele>
        <time>2016-05-15T08:14:45.000Z</time>
      </trkpt>
      <trkpt lat="47.45357" lon="6.72682">
        <ele>456</ele>
        <time>2016-05-15T08:14:46.000Z</time>
      </trkpt>
      <trkpt lat="47.45354" lon="6.72678">
        <ele>456</ele>
        <time>2016-05-15T08:14:47.000Z</time>
      </trkpt>
      <trkpt lat="47.4535" lon="6.7267">
        <ele>456</ele>
        <time>2016-05-15T08:14:48.000Z</time>
      </trkpt>
      <trkpt lat="47.45346" lon="6.72666">
        <ele>454</ele>
        <time>2016-05-15T08:14:49.000Z</time>
      </trkpt>
      <trkpt lat="47.45343" lon="6.72661">
        <ele>454</ele>
        <time>2016-05-15T08:14:50.000Z</time>
      </trkpt>
      <trkpt lat="47.45339" lon="6.72656">
        <ele>454</ele>
        <time>2016-05-15T08:14:51.000Z</time>
      </trkpt>
      <trkpt lat="47.45335" lon="6.72652">
        <ele>454</ele>
        <time>2016-05-15T08:14:52.000Z</time>
      </trkpt>
      <trkpt lat="47.45332" lon="6.72647">
        <ele>454</ele>
        <time>2016-05-15T08:14:53.000Z</time>
      </trkpt>
      <trkpt lat="47.45328" lon="6.72643">
        <ele>454</ele>
        <time>2016-05-15T08:14:54.000Z</time>
      </trkpt>
      <trkpt lat="47.45324" lon="6.72639">
        <ele>454</ele>
        <time>2016-05-15T08:14:55.000Z</time>
      </trkpt>
      <trkpt lat="47.45321" lon="6.72635">
        <ele>454</ele>
        <time>2016-05-15T08:14:56.000Z</time>
      </trkpt>
      <trkpt lat="47.45316" lon="6.72631">
        <ele>454</ele>
        <time>2016-05-15T08:14:57.000Z</time>
      </trkpt>
      <trkpt lat="47.45313" lon="6.72627">
        <ele>454</ele>
        <time>2016-05-15T08:14:58.000Z</time>
      </trkpt>
      <trkpt lat="47.45309" lon="6.72623">
        <ele>453</ele>
        <time>2016-05-15T08:14:59.000Z</time>
      </trkpt>
      <trkpt lat="47.45304" lon="6.72619">
        <ele>453</ele>
        <time>2016-05-15T08:15:00.000Z</time>
      </trkpt>
      <trkpt lat="47.453" lon="6.72616">
        <ele>453</ele>
        <time>2016-05-15T08:15:01.000Z</time>
      </trkpt>
      <trkpt lat="47.45296" lon="6.72612">
        <ele>453</ele>
        <time>2016-05-15T08:15:02.000Z</time>
      </trkpt>
      <trkpt lat="47.45291" lon="6.72608">
        <ele>453</ele>
        <time>2016-05-15T08:15:03.000Z</time>
      </trkpt>
      <trkpt lat="47.45287" lon="6.72605">
        <ele>453</ele>
        <time>2016-05-15T08:15:04.000Z</time>
      </trkpt>
      <trkpt lat="47.45282" lon="6.72601">
        <ele>453</ele>
        <time>2016-05-15T08:15:05.000Z</time>
      </trkpt>
      <trkpt lat="47.45278" lon="6.72597">
        <ele>453</ele>
        <time>2016-05-15T08:15:06.000Z</time>
      </trkpt>
      <trkpt lat="47.45274" lon="6.72594">
        <ele>453</ele>
        <time>2016-05-15T08:15:07.000Z</time>
      </trkpt>
      <trkpt lat="47.4527" lon="6.72591">
        <ele>453</ele>
        <time>2016-05-15T08:15:08.000Z</time>
      </trkpt>
      <trkpt lat="47.45265" lon="6.72587">
        <ele>453</ele>
        <time>2016-05-15T08:15:09.000Z</time>
      </trkpt>
      <trkpt lat="47.4526" lon="6.72584">
        <ele>453</ele>
        <time>2016-05-15T08:15:10.000Z</time>
      </trkpt>
      <trkpt lat="47.45256" lon="6.7258">
        <ele>453</ele>
        <time>2016-05-15T08:15:11.000Z</time>
      </trkpt>
      <trkpt lat="47.45251" lon="6.72577">
        <ele>453</ele>
        <time>2016-05-15T08:15:12.000Z</time>
      </trkpt>
      <trkpt lat="47.45246" lon="6.72573">
        <ele>452</ele>
        <time>2016-05-15T08:15:13.000Z</time>
      </trkpt>
      <trkpt lat="47.45241" lon="6.72569">
        <ele>452</ele>
        <time>2016-05-15T08:15:14.000Z</time>
      </trkpt>
      <trkpt lat="47.45236" lon="6.72565">
        <ele>452</ele>
        <time>2016-05-15T08:15:15.000Z</time>
      </trkpt>
      <trkpt lat="47.45231" lon="6.72561">
        <ele>452</ele>
        <time>2016-05-15T08:15:16.000Z</time>
      </trkpt>
      <trkpt lat="47.45226" lon="6.72557">
        <ele>451</ele>
        <time>2016-05-15T08:15:17.000Z</time>
      </trkpt>
      <trkpt lat="47.4522" lon="6.72553">
        <ele>451</ele>
        <time>2016-05-15T08:15:18.000Z</time>
      </trkpt>
      <trkpt lat="47.45215" lon="6.72549">
        <ele>451</ele>
        <time>2016-05-15T08:15:19.000Z</time>
      </trkpt>
      <trkpt lat="47.45209" lon="6.72545">
        <ele>451</ele>
        <time>2016-05-15T08:15:20.000Z</time>
      </trkpt>
      <trkpt lat="47.45204" lon="6.72541">
        <ele>451</ele>
        <time>2016-05-15T08:15:21.000Z</time>
      </trkpt>
      <trkpt lat="47.45198" lon="6.72536">
        <ele>451</ele>
        <time>2016-05-15T08:15:22.000Z</time>
      </trkpt>
      <trkpt lat="47.45192" lon="6.72533">
        <ele>451</ele>
        <time>2016-05-15T08:15:23.000Z</time>
      </trkpt>
      <trkpt lat="47.45186" lon="6.72528">
        <ele>451</ele>
        <time>2016-05-15T08:15:24.000Z</time>
      </trkpt>
      <trkpt lat="47.45181" lon="6.72522">
        <ele>450</ele>
        <time>2016-05-15T08:15:25.000Z</time>
      </trkpt>
      <trkpt lat="47.45176" lon="6.72519">
        <ele>450</ele>
        <time>2016-05-15T08:15:26.000Z</time>
      </trkpt>
      <trkpt lat="47.45171" lon="6.72515">
        <ele>450</ele>
        <time>2016-05-15T08:15:27.000Z</time>
      </trkpt>
      <trkpt lat="47.45166" lon="6.72511">
        <ele>450</ele>
        <time>2016-05-15T08:15:28.000Z</time>
      </trkpt>
      <trkpt lat="47.4516" lon="6.72507">
        <ele>450</ele>
        <time>2016-05-15T08:15:29.000Z</time>
      </trkpt>
      <trkpt lat="47.45155" lon="6.72504">
        <ele>450</ele>
        <time>2016-05-15T08:15:30.000Z</time>
      </trkpt>
      <trkpt lat="47.4515" lon="6.725">
        <ele>450</ele>
        <time>2016-05-15T08:15:31.000Z</time>
      </trkpt>
      <trkpt lat="47.45145" lon="6.72497">
        <ele>450</ele>
        <time>2016-05-15T08:15:32.000Z</time>
      </trkpt>
      <trkpt lat="47.4514" lon="6.72493">
        <ele>450</ele>
        <time>2016-05-15T08:15:33.000Z</time>
      </trkpt>
      <trkpt lat="47.45136" lon="6.7249">
        <ele>450</ele>
        <time>2016-05-15T08:15:34.000Z</time>
      </trkpt>
      <trkpt lat="47.45131" lon="6.72487">
        <ele>450</ele>
        <time>2016-05-15T08:15:35.000Z</time>
      </trkpt>
      <trkpt lat="47.45126" lon="6.72482">
        <ele>450</ele>
        <time>2016-05-15T08:15:36.000Z</time>
      </trkpt>
      <trkpt lat="47.45121" lon="6.72479">
        <ele>450</ele>
        <time>2016-05-15T08:15:37.000Z</time>
      </trkpt>
      <trkpt lat="47.45117" lon="6.72476">
        <ele>450</ele>
        <time>2016-05-15T08:15:38.000Z</time>
      </trkpt>
      <trkpt lat="47.45113" lon="6.72473">
        <ele>450</ele>
        <time>2016-05-15T08:15:39.000Z</time>
      </trkpt>
      <trkpt lat="47.45109" lon="6.7247">
        <ele>450</ele>
        <time>2016-05-15T08:15:40.000Z</time>
      </trkpt>
      <trkpt lat="47.45104" lon="6.72467">
        <ele>450</ele>
        <time>2016-05-15T08:15:41.000Z</time>
      </trkpt>
      <trkpt lat="47.451" lon="6.72464">
        <ele>450</ele>
        <time>2016-05-15T08:15:42.000Z</time>
      </trkpt>
      <trkpt lat="47.45096" lon="6.72461">
        <ele>450</ele>
        <time>2016-05-15T08:15:43.000Z</time>
      </trkpt>
      <trkpt lat="47.45092" lon="6.72459">
        <ele>450</ele>
        <time>2016-05-15T08:15:44.000Z</time>
      </trkpt>
      <trkpt lat="47.45088" lon="6.72457">
        <ele>450</ele>
        <time>2016-05-15T08:15:45.000Z</time>
      </trkpt>
      <trkpt lat="47.45085" lon="6.72455">
        <ele>450</ele>
        <time>2016-05-15T08:15:46.000Z</time>
      </trkpt>
      <trkpt lat="47.45081" lon="6.72455">
        <ele>454</ele>
        <time>2016-05-15T08:15:47.000Z</time>
      </trkpt>
      <trkpt lat="47.45077" lon="6.72451">
        <ele>454</ele>
        <time>2016-05-15T08:15:48.000Z</time>
      </trkpt>
      <trkpt lat="47.45073" lon="6.72448">
        <ele>454</ele>
        <time>2016-05-15T08:15:49.000Z</time>
      </trkpt>
      <trkpt lat="47.45069" lon="6.72446">
        <ele>454</ele>
        <time>2016-05-15T08:15:50.000Z</time>
      </trkpt>
      <trkpt lat="47.45065" lon="6.72443">
        <ele>454</ele>
        <time>2016-05-15T08:15:51.000Z</time>
      </trkpt>
      <trkpt lat="47.45061" lon="6.72441">
        <ele>455</ele>
        <time>2016-05-15T08:15:52.000Z</time>
      </trkpt>
      <trkpt lat="47.45057" lon="6.72439">
        <ele>455</ele>
        <time>2016-05-15T08:15:53.000Z</time>
      </trkpt>
      <trkpt lat="47.45053" lon="6.72436">
        <ele>455</ele>
        <time>2016-05-15T08:15:54.000Z</time>
      </trkpt>
      <trkpt lat="47.4505" lon="6.72433">
        <ele>455</ele>
        <time>2016-05-15T08:15:55.000Z</time>
      </trkpt>
      <trkpt lat="47.45045" lon="6.7243">
        <ele>455</ele>
        <time>2016-05-15T08:15:56.000Z</time>
      </trkpt>
      <trkpt lat="47.45042" lon="6.72427">
        <ele>456</ele>
        <time>2016-05-15T08:15:57.000Z</time>
      </trkpt>
      <trkpt lat="47.45039" lon="6.72425">
        <ele>456</ele>
        <time>2016-05-15T08:15:58.000Z</time>
      </trkpt>
      <trkpt lat="47.45036" lon="6.72425">
        <ele>456</ele>
        <time>2016-05-15T08:15:59.000Z</time>
      </trkpt>
      <trkpt lat="47.45033" lon="6.72422">
        <ele>456</ele>
        <time>2016-05-15T08:16:00.000Z</time>
      </trkpt>
      <trkpt lat="47.4503" lon="6.72419">
        <ele>457</ele>
        <time>2016-05-15T08:16:01.000Z</time>
      </trkpt>
      <trkpt lat="47.45026" lon="6.72418">
        <ele>457</ele>
        <time>2016-05-15T08:16:02.000Z</time>
      </trkpt>
      <trkpt lat="47.45022" lon="6.72416">
        <ele>455</ele>
        <time>2016-05-15T08:16:03.000Z</time>
      </trkpt>
      <trkpt lat="47.45019" lon="6.72414">
        <ele>455</ele>
        <time>2016-05-15T08:16:04.000Z</time>
      </trkpt>
      <trkpt lat="47.45015" lon="6.72412">
        <ele>456</ele>
        <time>2016-05-15T08:16:05.000Z</time>
      </trkpt>
      <trkpt lat="47.45012" lon="6.7241">
        <ele>456</ele>
        <time>2016-05-15T08:16:06.000Z</time>
      </trkpt>
      <trkpt lat="47.45009" lon="6.72408">
        <ele>456</ele>
        <time>2016-05-15T08:16:07.000Z</time>
      </trkpt>
      <trkpt lat="47.45006" lon="6.72405">
        <ele>456</ele>
        <time>2016-05-15T08:16:08.000Z</time>
      </trkpt>
      <trkpt lat="47.45003" lon="6.72403">
        <ele>456</ele>
        <time>2016-05-15T08:16:09.000Z</time>
      </trkpt>
      <trkpt lat="47.45" lon="6.72401">
        <ele>456</ele>
        <time>2016-05-15T08:16:10.000Z</time>
      </trkpt>
      <trkpt lat="47.44997" lon="6.72398">
        <ele>461</ele>
        <time>2016-05-15T08:16:11.000Z</time>
      </trkpt>
      <trkpt lat="47.44994" lon="6.72395">
        <ele>461</ele>
        <time>2016-05-15T08:16:12.000Z</time>
      </trkpt>
      <trkpt lat="47.44991" lon="6.72392">
        <ele>461</ele>
        <time>2016-05-15T08:16:13.000Z</time>
      </trkpt>
      <trkpt lat="47.44989" lon="6.72389">
        <ele>461</ele>
        <time>2016-05-15T08:16:14.000Z</time>
      </trkpt>
      <trkpt lat="47.44986" lon="6.72386">
        <ele>461</ele>
        <time>2016-05-15T08:16:15.000Z</time>
      </trkpt>
      <trkpt lat="47.44983" lon="6.72383">
        <ele>461</ele>
        <time>2016-05-15T08:16:16.000Z</time>
      </trkpt>
      <trkpt lat="47.44979" lon="6.72379">
        <ele>461</ele>
        <time>2016-05-15T08:16:17.000Z</time>
      </trkpt>
      <trkpt lat="47.44975" lon="6.72376">
        <ele>461</ele>
        <time>2016-05-15T08:16:18.000Z</time>
      </trkpt>
      <trkpt lat="47.44971" lon="6.72373">
        <ele>461</ele>
        <time>2016-05-15T08:16:19.000Z</time>
      </trkpt>
      <trkpt lat="47.44968" lon="6.72371">
        <ele>462</ele>
        <time>2016-05-15T08:16:20.000Z</time>
      </trkpt>
      <trkpt lat="47.44964" lon="6.72368">
        <ele>462</ele>
        <time>2016-05-15T08:16:21.000Z</time>
      </trkpt>
      <trkpt lat="47.44961" lon="6.72365">
        <ele>462</ele>
        <time>2016-05-15T08:16:22.000Z</time>
      </trkpt>
      <trkpt lat="47.44957" lon="6.72361">
        <ele>462</ele>
        <time>2016-05-15T08:16:23.000Z</time>
      </trkpt>
      <trkpt lat="47.44954" lon="6.72358">
        <ele>462</ele>
        <time>2016-05-15T08:16:24.000Z</time>
      </trkpt>
      <trkpt lat="47.44951" lon="6.72355">
        <ele>462</ele>
        <time>2016-05-15T08:16:25.000Z</time>
      </trkpt>
      <trkpt lat="47.44948" lon="6.72351">
        <ele>463</ele>
        <time>2016-05-15T08:16:26.000Z</time>
      </trkpt>
      <trkpt lat="47.44944" lon="6.72348">
        <ele>463</ele>
        <time>2016-05-15T08:16:27.000Z</time>
      </trkpt>
      <trkpt lat="47.44941" lon="6.72345">
        <ele>463</ele>
        <time>2016-05-15T08:16:28.000Z</time>
      </trkpt>
      <trkpt lat="47.44938" lon="6.72343">
        <ele>463</ele>
        <time>2016-05-15T08:16:29.000Z</time>
      </trkpt>
      <trkpt lat="47.44935" lon="6.7234">
        <ele>463</ele>
        <time>2016-05-15T08:16:30.000Z</time>
      </trkpt>
      <trkpt lat="47.44933" lon="6.72337">
        <ele>464</ele>
        <time>2016-05-15T08:16:31.000Z</time>
      </trkpt>
      <trkpt lat="47.4493" lon="6.72335">
        <ele>464</ele>
        <time>2016-05-15T08:16:32.000Z</time>
      </trkpt>
      <trkpt lat="47.44927" lon="6.72332">
        <ele>462</ele>
        <time>2016-05-15T08:16:33.000Z</time>
      </trkpt>
      <trkpt lat="47.44924" lon="6.72331">
        <ele>462</ele>
        <time>2016-05-15T08:16:34.000Z</time>
      </trkpt>
      <trkpt lat="47.44921" lon="6.72329">
        <ele>463</ele>
        <time>2016-05-15T08:16:35.000Z</time>
      </trkpt>
      <trkpt lat="47.44918" lon="6.72327">
        <ele>463</ele>
        <time>2016-05-15T08:16:36.000Z</time>
      </trkpt>
      <trkpt lat="47.44914" lon="6.72325">
        <ele>465</ele>
        <time>2016-05-15T08:16:37.000Z</time>
      </trkpt>
      <trkpt lat="47.44911" lon="6.72323">
        <ele>466</ele>
        <time>2016-05-15T08:16:38.000Z</time>
      </trkpt>
      <trkpt lat="47.44908" lon="6.72321">
        <ele>466</ele>
        <time>2016-05-15T08:16:39.000Z</time>
      </trkpt>
      <trkpt lat="47.44906" lon="6.7232">
        <ele>466</ele>
        <time>2016-05-15T08:16:40.000Z</time>
      </trkpt>
      <trkpt lat="47.44904" lon="6.72318">
        <ele>466</ele>
        <time>2016-05-15T08:16:41.000Z</time>
      </trkpt>
      <trkpt lat="47.44901" lon="6.72316">
        <ele>466</ele>
        <time>2016-05-15T08:16:42.000Z</time>
      </trkpt>
      <trkpt lat="47.44899" lon="6.72314">
        <ele>466</ele>
        <time>2016-05-15T08:16:43.000Z</time>
      </trkpt>
      <trkpt lat="47.44897" lon="6.72313">
        <ele>466</ele>
        <time>2016-05-15T08:16:44.000Z</time>
      </trkpt>
      <trkpt lat="47.44895" lon="6.72311">
        <ele>466</ele>
        <time>2016-05-15T08:16:45.000Z</time>
      </trkpt>
      <trkpt lat="47.44892" lon="6.72309">
        <ele>466</ele>
        <time>2016-05-15T08:16:46.000Z</time>
      </trkpt>
      <trkpt lat="47.4489" lon="6.72308">
        <ele>467</ele>
        <time>2016-05-15T08:16:47.000Z</time>
      </trkpt>
      <trkpt lat="47.44888" lon="6.72306">
        <ele>467</ele>
        <time>2016-05-15T08:16:48.000Z</time>
      </trkpt>
      <trkpt lat="47.44886" lon="6.72305">
        <ele>467</ele>
        <time>2016-05-15T08:16:49.000Z</time>
      </trkpt>
      <trkpt lat="47.44884" lon="6.72302">
        <ele>467</ele>
        <time>2016-05-15T08:16:50.000Z</time>
      </trkpt>
      <trkpt lat="47.44882" lon="6.723">
        <ele>467</ele>
        <time>2016-05-15T08:16:51.000Z</time>
      </trkpt>
      <trkpt lat="47.4488" lon="6.72298">
        <ele>467</ele>
        <time>2016-05-15T08:16:52.000Z</time>
      </trkpt>
      <trkpt lat="47.44878" lon="6.72296">
        <ele>467</ele>
        <time>2016-05-15T08:16:53.000Z</time>
      </trkpt>
      <trkpt lat="47.44876" lon="6.72294">
        <ele>467</ele>
        <time>2016-05-15T08:16:54.000Z</time>
      </trkpt>
      <trkpt lat="47.44872" lon="6.72291">
        <ele>467</ele>
        <time>2016-05-15T08:16:56.000Z</time>
      </trkpt>
      <trkpt lat="47.44871" lon="6.72289">
        <ele>467</ele>
        <time>2016-05-15T08:16:57.000Z</time>
      </trkpt>
      <trkpt lat="47.44869" lon="6.72288">
        <ele>467</ele>
        <time>2016-05-15T08:16:58.000Z</time>
      </trkpt>
      <trkpt lat="47.44866" lon="6.72286">
        <ele>467</ele>
        <time>2016-05-15T08:16:59.000Z</time>
      </trkpt>
      <trkpt lat="47.44864" lon="6.72284">
        <ele>467</ele>
        <time>2016-05-15T08:17:00.000Z</time>
      </trkpt>
      <trkpt lat="47.44861" lon="6.72283">
        <ele>467</ele>
        <time>2016-05-15T08:17:01.000Z</time>
      </trkpt>
      <trkpt lat="47.44859" lon="6.72281">
        <ele>467</ele>
        <time>2016-05-15T08:17:02.000Z</time>
      </trkpt>
      <trkpt lat="47.44857" lon="6.7228">
        <ele>467</ele>
        <time>2016-05-15T08:17:03.000Z</time>
      </trkpt>
      <trkpt lat="47.44854" lon="6.72279">
        <ele>467</ele>
        <time>2016-05-15T08:17:04.000Z</time>
      </trkpt>
      <trkpt lat="47.44852" lon="6.72277">
        <ele>467</ele>
        <time>2016-05-15T08:17:05.000Z</time>
      </trkpt>
      <trkpt lat="47.44848" lon="6.72274">
        <ele>467</ele>
        <time>2016-05-15T08:17:07.000Z</time>
      </trkpt>
      <trkpt lat="47.44846" lon="6.72273">
        <ele>467</ele>
        <time>2016-05-15T08:17:08.000Z</time>
      </trkpt>
      <trkpt lat="47.44842" lon="6.72271">
        <ele>467</ele>
        <time>2016-05-15T08:17:10.000Z</time>
      </trkpt>
      <trkpt lat="47.4484" lon="6.7227">
        <ele>467</ele>
        <time>2016-05-15T08:17:11.000Z</time>
      </trkpt>
      <trkpt lat="47.44836" lon="6.72269">
        <ele>467</ele>
        <time>2016-05-15T08:17:13.000Z</time>
      </trkpt>
      <trkpt lat="47.44833" lon="6.72268">
        <ele>467</ele>
        <time>2016-05-15T08:17:14.000Z</time>
      </trkpt>
      <trkpt lat="47.44831" lon="6.72268">
        <ele>471</ele>
        <time>2016-05-15T08:17:15.000Z</time>
      </trkpt>
      <trkpt lat="47.44828" lon="6.72268">
        <ele>471</ele>
        <time>2016-05-15T08:17:16.000Z</time>
      </trkpt>
      <trkpt lat="47.44826" lon="6.72268">
        <ele>472</ele>
        <time>2016-05-15T08:17:17.000Z</time>
      </trkpt>
      <trkpt lat="47.44823" lon="6.72268">
        <ele>472</ele>
        <time>2016-05-15T08:17:18.000Z</time>
      </trkpt>
      <trkpt lat="47.44821" lon="6.72268">
        <ele>472</ele>
        <time>2016-05-15T08:17:19.000Z</time>
      </trkpt>
      <trkpt lat="47.44818" lon="6.72269">
        <ele>473</ele>
        <time>2016-05-15T08:17:20.000Z</time>
      </trkpt>
      <trkpt lat="47.44814" lon="6.72271">
        <ele>473</ele>
        <time>2016-05-15T08:17:22.000Z</time>
      </trkpt>
      <trkpt lat="47.44812" lon="6.72271">
        <ele>473</ele>
        <time>2016-05-15T08:17:23.000Z</time>
      </trkpt>
      <trkpt lat="47.44808" lon="6.72272">
        <ele>474</ele>
        <time>2016-05-15T08:17:25.000Z</time>
      </trkpt>
      <trkpt lat="47.44807" lon="6.72272">
        <ele>474</ele>
        <time>2016-05-15T08:17:26.000Z</time>
      </trkpt>
      <trkpt lat="47.44804" lon="6.72273">
        <ele>474</ele>
        <time>2016-05-15T08:17:27.000Z</time>
      </trkpt>
      <trkpt lat="47.44802" lon="6.72274">
        <ele>474</ele>
        <time>2016-05-15T08:17:28.000Z</time>
      </trkpt>
      <trkpt lat="47.448" lon="6.72276">
        <ele>475</ele>
        <time>2016-05-15T08:17:29.000Z</time>
      </trkpt>
      <trkpt lat="47.44798" lon="6.72277">
        <ele>475</ele>
        <time>2016-05-15T08:17:30.000Z</time>
      </trkpt>
      <trkpt lat="47.44795" lon="6.72277">
        <ele>475</ele>
        <time>2016-05-15T08:17:31.000Z</time>
      </trkpt>
      <trkpt lat="47.44793" lon="6.72278">
        <ele>475</ele>
        <time>2016-05-15T08:17:32.000Z</time>
      </trkpt>
      <trkpt lat="47.4479" lon="6.72278">
        <ele>475</ele>
        <time>2016-05-15T08:17:33.000Z</time>
      </trkpt>
      <trkpt lat="47.44787" lon="6.72278">
        <ele>475</ele>
        <time>2016-05-15T08:17:34.000Z</time>
      </trkpt>
      <trkpt lat="47.44784" lon="6.72279">
        <ele>476</ele>
        <time>2016-05-15T08:17:35.000Z</time>
      </trkpt>
      <trkpt lat="47.44781" lon="6.72279">
        <ele>476</ele>
        <time>2016-05-15T08:17:36.000Z</time>
      </trkpt>
      <trkpt lat="47.44778" lon="6.72278">
        <ele>476</ele>
        <time>2016-05-15T08:17:37.000Z</time>
      </trkpt>
      <trkpt lat="47.44775" lon="6.72278">
        <ele>476</ele>
        <time>2016-05-15T08:17:38.000Z</time>
      </trkpt>
      <trkpt lat="47.44773" lon="6.72278">
        <ele>476</ele>
        <time>2016-05-15T08:17:39.000Z</time>
      </trkpt>
      <trkpt lat="47.4477" lon="6.72278">
        <ele>476</ele>
        <time>2016-05-15T08:17:40.000Z</time>
      </trkpt>
      <trkpt lat="47.44767" lon="6.72279">
        <ele>476</ele>
        <time>2016-05-15T08:17:41.000Z</time>
      </trkpt>
      <trkpt lat="47.44765" lon="6.72279">
        <ele>476</ele>
        <time>2016-05-15T08:17:42.000Z</time>
      </trkpt>
      <trkpt lat="47.44762" lon="6.7228">
        <ele>476</ele>
        <time>2016-05-15T08:17:43.000Z</time>
      </trkpt>
      <trkpt lat="47.4476" lon="6.7228">
        <ele>476</ele>
        <time>2016-05-15T08:17:44.000Z</time>
      </trkpt>
      <trkpt lat="47.44757" lon="6.72281">
        <ele>476</ele>
        <time>2016-05-15T08:17:45.000Z</time>
      </trkpt>
      <trkpt lat="47.44754" lon="6.72282">
        <ele>476</ele>
        <time>2016-05-15T08:17:46.000Z</time>
      </trkpt>
      <trkpt lat="47.44751" lon="6.72283">
        <ele>477</ele>
        <time>2016-05-15T08:17:47.000Z</time>
      </trkpt>
      <trkpt lat="47.44748" lon="6.72284">
        <ele>477</ele>
        <time>2016-05-15T08:17:48.000Z</time>
      </trkpt>
      <trkpt lat="47.44745" lon="6.72286">
        <ele>478</ele>
        <time>2016-05-15T08:17:49.000Z</time>
      </trkpt>
      <trkpt lat="47.44742" lon="6.72287">
        <ele>478</ele>
        <time>2016-05-15T08:17:50.000Z</time>
      </trkpt>
      <trkpt lat="47.44739" lon="6.72288">
        <ele>478</ele>
        <time>2016-05-15T08:17:51.000Z</time>
      </trkpt>
      <trkpt lat="47.44736" lon="6.72289">
        <ele>478</ele>
        <time>2016-05-15T08:17:52.000Z</time>
      </trkpt>
      <trkpt lat="47.44733" lon="6.72291">
        <ele>478</ele>
        <time>2016-05-15T08:17:53.000Z</time>
      </trkpt>
      <trkpt lat="47.44729" lon="6.72293">
        <ele>478</ele>
        <time>2016-05-15T08:17:54.000Z</time>
      </trkpt>
      <trkpt lat="47.44726" lon="6.72295">
        <ele>478</ele>
        <time>2016-05-15T08:17:55.000Z</time>
      </trkpt>
      <trkpt lat="47.44723" lon="6.72297">
        <ele>478</ele>
        <time>2016-05-15T08:17:56.000Z</time>
      </trkpt>
      <trkpt lat="47.44719" lon="6.72298">
        <ele>478</ele>
        <time>2016-05-15T08:17:57.000Z</time>
      </trkpt>
      <trkpt lat="47.44716" lon="6.723">
        <ele>478</ele>
        <time>2016-05-15T08:17:58.000Z</time>
      </trkpt>
      <trkpt lat="47.44712" lon="6.72301">
        <ele>478</ele>
        <time>2016-05-15T08:17:59.000Z</time>
      </trkpt>
      <trkpt lat="47.44709" lon="6.72303">
        <ele>478</ele>
        <time>2016-05-15T08:17:59.998Z</time>
      </trkpt>
      <trkpt lat="47.44706" lon="6.72303">
        <ele>478</ele>
        <time>2016-05-15T08:18:01.000Z</time>
      </trkpt>
      <trkpt lat="47.44704" lon="6.72303">
        <ele>478</ele>
        <time>2016-05-15T08:18:02.000Z</time>
      </trkpt>
      <trkpt lat="47.44701" lon="6.72304">
        <ele>478</ele>
        <time>2016-05-15T08:18:03.000Z</time>
      </trkpt>
      <trkpt lat="47.44697" lon="6.72305">
        <ele>478</ele>
        <time>2016-05-15T08:18:04.000Z</time>
      </trkpt>
      <trkpt lat="47.44694" lon="6.72306">
        <ele>478</ele>
        <time>2016-05-15T08:18:05.000Z</time>
      </trkpt>
      <trkpt lat="47.44691" lon="6.72307">
        <ele>478</ele>
        <time>2016-05-15T08:18:06.000Z</time>
      </trkpt>
      <trkpt lat="47.44687" lon="6.72309">
        <ele>478</ele>
        <time>2016-05-15T08:18:07.000Z</time>
      </trkpt>
      <trkpt lat="47.44684" lon="6.7231">
        <ele>478</ele>
        <time>2016-05-15T08:18:08.000Z</time>
      </trkpt>
      <trkpt lat="47.4468" lon="6.72311">
        <ele>478</ele>
        <time>2016-05-15T08:18:09.000Z</time>
      </trkpt>
      <trkpt lat="47.44675" lon="6.72312">
        <ele>478</ele>
        <time>2016-05-15T08:18:10.000Z</time>
      </trkpt>
      <trkpt lat="47.44671" lon="6.72313">
        <ele>478</ele>
        <time>2016-05-15T08:18:11.000Z</time>
      </trkpt>
      <trkpt lat="47.44666" lon="6.72314">
        <ele>477</ele>
        <time>2016-05-15T08:18:12.000Z</time>
      </trkpt>
      <trkpt lat="47.44662" lon="6.72315">
        <ele>477</ele>
        <time>2016-05-15T08:18:13.000Z</time>
      </trkpt>
      <trkpt lat="47.44657" lon="6.72316">
        <ele>477</ele>
        <time>2016-05-15T08:18:14.000Z</time>
      </trkpt>
      <trkpt lat="47.44653" lon="6.72317">
        <ele>477</ele>
        <time>2016-05-15T08:18:15.000Z</time>
      </trkpt>
      <trkpt lat="47.44649" lon="6.72318">
        <ele>476</ele>
        <time>2016-05-15T08:18:16.000Z</time>
      </trkpt>
      <trkpt lat="47.44645" lon="6.72319">
        <ele>476</ele>
        <time>2016-05-15T08:18:17.000Z</time>
      </trkpt>
      <trkpt lat="47.44641" lon="6.72319">
        <ele>476</ele>
        <time>2016-05-15T08:18:18.000Z</time>
      </trkpt>
      <trkpt lat="47.44637" lon="6.7232">
        <ele>476</ele>
        <time>2016-05-15T08:18:19.000Z</time>
      </trkpt>
      <trkpt lat="47.44631" lon="6.7232">
        <ele>476</ele>
        <time>2016-05-15T08:18:20.000Z</time>
      </trkpt>
      <trkpt lat="47.44625" lon="6.7232">
        <ele>476</ele>
        <time>2016-05-15T08:18:21.000Z</time>
      </trkpt>
      <trkpt lat="47.4462" lon="6.72321">
        <ele>476</ele>
        <time>2016-05-15T08:18:22.000Z</time>
      </trkpt>
      <trkpt lat="47.44616" lon="6.72322">
        <ele>476</ele>
        <time>2016-05-15T08:18:23.000Z</time>
      </trkpt>
      <trkpt lat="47.44612" lon="6.72322">
        <ele>476</ele>
        <time>2016-05-15T08:18:24.000Z</time>
      </trkpt>
      <trkpt lat="47.44609" lon="6.72323">
        <ele>476</ele>
        <time>2016-05-15T08:18:25.000Z</time>
      </trkpt>
      <trkpt lat="47.44607" lon="6.72325">
        <ele>476</ele>
        <time>2016-05-15T08:18:26.000Z</time>
      </trkpt>
      <trkpt lat="47.44605" lon="6.72326">
        <ele>476</ele>
        <time>2016-05-15T08:18:27.000Z</time>
      </trkpt>
      <trkpt lat="47.44603" lon="6.72327">
        <ele>476</ele>
        <time>2016-05-15T08:18:28.000Z</time>
      </trkpt>
      <trkpt lat="47.44601" lon="6.72329">
        <ele>476</ele>
        <time>2016-05-15T08:18:29.000Z</time>
      </trkpt>
      <trkpt lat="47.44597" lon="6.72331">
        <ele>477</ele>
        <time>2016-05-15T08:18:30.000Z</time>
      </trkpt>
      <trkpt lat="47.44595" lon="6.72333">
        <ele>477</ele>
        <time>2016-05-15T08:18:31.000Z</time>
      </trkpt>
      <trkpt lat="47.44593" lon="6.72334">
        <ele>479</ele>
        <time>2016-05-15T08:18:32.000Z</time>
      </trkpt>
      <trkpt lat="47.44591" lon="6.72336">
        <ele>479</ele>
        <time>2016-05-15T08:18:33.000Z</time>
      </trkpt>
      <trkpt lat="47.44588" lon="6.72337">
        <ele>479</ele>
        <time>2016-05-15T08:18:34.000Z</time>
      </trkpt>
      <trkpt lat="47.44585" lon="6.72338">
        <ele>479</ele>
        <time>2016-05-15T08:18:35.000Z</time>
      </trkpt>
      <trkpt lat="47.44582" lon="6.72339">
        <ele>479</ele>
        <time>2016-05-15T08:18:36.000Z</time>
      </trkpt>
      <trkpt lat="47.44579" lon="6.7234">
        <ele>479</ele>
        <time>2016-05-15T08:18:37.000Z</time>
      </trkpt>
      <trkpt lat="47.44576" lon="6.72341">
        <ele>479</ele>
        <time>2016-05-15T08:18:38.000Z</time>
      </trkpt>
      <trkpt lat="47.44573" lon="6.72342">
        <ele>479</ele>
        <time>2016-05-15T08:18:39.000Z</time>
      </trkpt>
      <trkpt lat="47.44569" lon="6.72344">
        <ele>479</ele>
        <time>2016-05-15T08:18:40.000Z</time>
      </trkpt>
      <trkpt lat="47.44563" lon="6.72346">
        <ele>480</ele>
        <time>2016-05-15T08:18:41.000Z</time>
      </trkpt>
      <trkpt lat="47.44558" lon="6.72348">
        <ele>480</ele>
        <time>2016-05-15T08:18:42.000Z</time>
      </trkpt>
      <trkpt lat="47.44552" lon="6.7235">
        <ele>480</ele>
        <time>2016-05-15T08:18:43.000Z</time>
      </trkpt>
      <trkpt lat="47.44546" lon="6.72353">
        <ele>480</ele>
        <time>2016-05-15T08:18:44.000Z</time>
      </trkpt>
      <trkpt lat="47.4454" lon="6.72355">
        <ele>480</ele>
        <time>2016-05-15T08:18:45.000Z</time>
      </trkpt>
      <trkpt lat="47.44534" lon="6.72358">
        <ele>480</ele>
        <time>2016-05-15T08:18:46.000Z</time>
      </trkpt>
      <trkpt lat="47.44529" lon="6.72361">
        <ele>480</ele>
        <time>2016-05-15T08:18:47.000Z</time>
      </trkpt>
      <trkpt lat="47.44508" lon="6.72363">
        <ele>480</ele>
        <time>2016-05-15T08:18:48.000Z</time>
      </trkpt>
      <trkpt lat="47.44503" lon="6.72363">
        <ele>480</ele>
        <time>2016-05-15T08:18:49.000Z</time>
      </trkpt>
      <trkpt lat="47.44499" lon="6.72364">
        <ele>478</ele>
        <time>2016-05-15T08:18:50.000Z</time>
      </trkpt>
      <trkpt lat="47.44495" lon="6.72361">
        <ele>478</ele>
        <time>2016-05-15T08:18:51.000Z</time>
      </trkpt>
      <trkpt lat="47.4449" lon="6.72363">
        <ele>478</ele>
        <time>2016-05-15T08:18:52.000Z</time>
      </trkpt>
      <trkpt lat="47.44485" lon="6.72364">
        <ele>478</ele>
        <time>2016-05-15T08:18:53.000Z</time>
      </trkpt>
      <trkpt lat="47.44481" lon="6.72365">
        <ele>478</ele>
        <time>2016-05-15T08:18:54.000Z</time>
      </trkpt>
      <trkpt lat="47.44472" lon="6.72366">
        <ele>478</ele>
        <time>2016-05-15T08:18:55.000Z</time>
      </trkpt>
      <trkpt lat="47.44466" lon="6.72368">
        <ele>478</ele>
        <time>2016-05-15T08:18:56.000Z</time>
      </trkpt>
      <trkpt lat="47.44461" lon="6.72369">
        <ele>478</ele>
        <time>2016-05-15T08:18:57.000Z</time>
      </trkpt>
      <trkpt lat="47.44456" lon="6.7237">
        <ele>478</ele>
        <time>2016-05-15T08:18:58.000Z</time>
      </trkpt>
      <trkpt lat="47.44452" lon="6.72371">
        <ele>478</ele>
        <time>2016-05-15T08:18:59.000Z</time>
      </trkpt>
      <trkpt lat="47.44442" lon="6.72371">
        <ele>478</ele>
        <time>2016-05-15T08:19:00.000Z</time>
      </trkpt>
      <trkpt lat="47.44438" lon="6.72371">
        <ele>478</ele>
        <time>2016-05-15T08:19:01.000Z</time>
      </trkpt>
      <trkpt lat="47.44433" lon="6.72371">
        <ele>478</ele>
        <time>2016-05-15T08:19:02.000Z</time>
      </trkpt>
      <trkpt lat="47.44428" lon="6.72371">
        <ele>478</ele>
        <time>2016-05-15T08:19:03.000Z</time>
      </trkpt>
      <trkpt lat="47.44422" lon="6.72373">
        <ele>478</ele>
        <time>2016-05-15T08:19:04.000Z</time>
      </trkpt>
      <trkpt lat="47.44418" lon="6.72373">
        <ele>477</ele>
        <time>2016-05-15T08:19:05.000Z</time>
      </trkpt>
      <trkpt lat="47.44412" lon="6.72374">
        <ele>477</ele>
        <time>2016-05-15T08:19:06.000Z</time>
      </trkpt>
      <trkpt lat="47.44402" lon="6.72372">
        <ele>477</ele>
        <time>2016-05-15T08:19:07.000Z</time>
      </trkpt>
      <trkpt lat="47.44397" lon="6.72373">
        <ele>477</ele>
        <time>2016-05-15T08:19:08.000Z</time>
      </trkpt>
      <trkpt lat="47.44392" lon="6.72375">
        <ele>477</ele>
        <time>2016-05-15T08:19:09.000Z</time>
      </trkpt>
      <trkpt lat="47.44387" lon="6.72376">
        <ele>477</ele>
        <time>2016-05-15T08:19:10.000Z</time>
      </trkpt>
      <trkpt lat="47.4438" lon="6.72379">
        <ele>478</ele>
        <time>2016-05-15T08:19:11.000Z</time>
      </trkpt>
      <trkpt lat="47.44375" lon="6.7238">
        <ele>478</ele>
        <time>2016-05-15T08:19:12.000Z</time>
      </trkpt>
      <trkpt lat="47.44367" lon="6.7238">
        <ele>478</ele>
        <time>2016-05-15T08:19:13.000Z</time>
      </trkpt>
      <trkpt lat="47.44362" lon="6.7238">
        <ele>478</ele>
        <time>2016-05-15T08:19:14.000Z</time>
      </trkpt>
      <trkpt lat="47.44357" lon="6.7238">
        <ele>478</ele>
        <time>2016-05-15T08:19:15.000Z</time>
      </trkpt>
      <trkpt lat="47.44352" lon="6.7238">
        <ele>478</ele>
        <time>2016-05-15T08:19:16.000Z</time>
      </trkpt>
      <trkpt lat="47.44348" lon="6.72381">
        <ele>478</ele>
        <time>2016-05-15T08:19:17.000Z</time>
      </trkpt>
      <trkpt lat="47.44344" lon="6.72384">
        <ele>478</ele>
        <time>2016-05-15T08:19:18.000Z</time>
      </trkpt>
      <trkpt lat="47.4434" lon="6.72385">
        <ele>478</ele>
        <time>2016-05-15T08:19:19.000Z</time>
      </trkpt>
      <trkpt lat="47.44335" lon="6.72386">
        <ele>478</ele>
        <time>2016-05-15T08:19:20.000Z</time>
      </trkpt>
      <trkpt lat="47.44331" lon="6.72387">
        <ele>480</ele>
        <time>2016-05-15T08:19:21.000Z</time>
      </trkpt>
      <trkpt lat="47.44326" lon="6.72389">
        <ele>480</ele>
        <time>2016-05-15T08:19:22.000Z</time>
      </trkpt>
      <trkpt lat="47.4432" lon="6.7239">
        <ele>480</ele>
        <time>2016-05-15T08:19:23.000Z</time>
      </trkpt>
      <trkpt lat="47.44315" lon="6.72392">
        <ele>480</ele>
        <time>2016-05-15T08:19:24.000Z</time>
      </trkpt>
      <trkpt lat="47.44309" lon="6.72398">
        <ele>481</ele>
        <time>2016-05-15T08:19:25.000Z</time>
      </trkpt>
      <trkpt lat="47.44303" lon="6.72398">
        <ele>481</ele>
        <time>2016-05-15T08:19:26.000Z</time>
      </trkpt>
      <trkpt lat="47.44299" lon="6.724">
        <ele>481</ele>
        <time>2016-05-15T08:19:27.000Z</time>
      </trkpt>
      <trkpt lat="47.44298" lon="6.72403">
        <ele>481</ele>
        <time>2016-05-15T08:19:28.000Z</time>
      </trkpt>
      <trkpt lat="47.44295" lon="6.72407">
        <ele>481</ele>
        <time>2016-05-15T08:19:29.000Z</time>
      </trkpt>
      <trkpt lat="47.44291" lon="6.7241">
        <ele>481</ele>
        <time>2016-05-15T08:19:30.000Z</time>
      </trkpt>
      <trkpt lat="47.44288" lon="6.72414">
        <ele>481</ele>
        <time>2016-05-15T08:19:31.000Z</time>
      </trkpt>
      <trkpt lat="47.44285" lon="6.72418">
        <ele>482</ele>
        <time>2016-05-15T08:19:32.000Z</time>
      </trkpt>
      <trkpt lat="47.44282" lon="6.7242">
        <ele>482</ele>
        <time>2016-05-15T08:19:33.000Z</time>
      </trkpt>
      <trkpt lat="47.44279" lon="6.72422">
        <ele>482</ele>
        <time>2016-05-15T08:19:34.000Z</time>
      </trkpt>
      <trkpt lat="47.44276" lon="6.72425">
        <ele>482</ele>
        <time>2016-05-15T08:19:36.000Z</time>
      </trkpt>
      <trkpt lat="47.44274" lon="6.72426">
        <ele>482</ele>
        <time>2016-05-15T08:19:37.000Z</time>
      </trkpt>
      <trkpt lat="47.4427" lon="6.72428">
        <ele>482</ele>
        <time>2016-05-15T08:19:39.000Z</time>
      </trkpt>
      <trkpt lat="47.44268" lon="6.7243">
        <ele>482</ele>
        <time>2016-05-15T08:19:40.000Z</time>
      </trkpt>
      <trkpt lat="47.44265" lon="6.72431">
        <ele>482</ele>
        <time>2016-05-15T08:19:41.000Z</time>
      </trkpt>
      <trkpt lat="47.44262" lon="6.72433">
        <ele>482</ele>
        <time>2016-05-15T08:19:42.000Z</time>
      </trkpt>
      <trkpt lat="47.44259" lon="6.72435">
        <ele>482</ele>
        <time>2016-05-15T08:19:43.000Z</time>
      </trkpt>
      <trkpt lat="47.44254" lon="6.72437">
        <ele>482</ele>
        <time>2016-05-15T08:19:44.000Z</time>
      </trkpt>
      <trkpt lat="47.44249" lon="6.72438">
        <ele>482</ele>
        <time>2016-05-15T08:19:45.000Z</time>
      </trkpt>
      <trkpt lat="47.44243" lon="6.7244">
        <ele>482</ele>
        <time>2016-05-15T08:19:46.000Z</time>
      </trkpt>
      <trkpt lat="47.44237" lon="6.7244">
        <ele>482</ele>
        <time>2016-05-15T08:19:47.000Z</time>
      </trkpt>
      <trkpt lat="47.44231" lon="6.72441">
        <ele>482</ele>
        <time>2016-05-15T08:19:48.000Z</time>
      </trkpt>
      <trkpt lat="47.44211" lon="6.72437">
        <ele>481</ele>
        <time>2016-05-15T08:19:49.000Z</time>
      </trkpt>
      <trkpt lat="47.44204" lon="6.72437">
        <ele>481</ele>
        <time>2016-05-15T08:19:50.000Z</time>
      </trkpt>
      <trkpt lat="47.44197" lon="6.7244">
        <ele>481</ele>
        <time>2016-05-15T08:19:51.000Z</time>
      </trkpt>
      <trkpt lat="47.4419" lon="6.72443">
        <ele>481</ele>
        <time>2016-05-15T08:19:52.000Z</time>
      </trkpt>
      <trkpt lat="47.44185" lon="6.72443">
        <ele>481</ele>
        <time>2016-05-15T08:19:53.000Z</time>
      </trkpt>
      <trkpt lat="47.44181" lon="6.72445">
        <ele>481</ele>
        <time>2016-05-15T08:19:54.000Z</time>
      </trkpt>
      <trkpt lat="47.44176" lon="6.72448">
        <ele>481</ele>
        <time>2016-05-15T08:19:55.000Z</time>
      </trkpt>
      <trkpt lat="47.44169" lon="6.72449">
        <ele>481</ele>
        <time>2016-05-15T08:19:56.000Z</time>
      </trkpt>
      <trkpt lat="47.44163" lon="6.7245">
        <ele>477</ele>
        <time>2016-05-15T08:19:57.000Z</time>
      </trkpt>
      <trkpt lat="47.44159" lon="6.72452">
        <ele>477</ele>
        <time>2016-05-15T08:19:58.000Z</time>
      </trkpt>
      <trkpt lat="47.44153" lon="6.72452">
        <ele>477</ele>
        <time>2016-05-15T08:19:59.000Z</time>
      </trkpt>
      <trkpt lat="47.44148" lon="6.72453">
        <ele>476</ele>
        <time>2016-05-15T08:20:00.000Z</time>
      </trkpt>
      <trkpt lat="47.44144" lon="6.72454">
        <ele>476</ele>
        <time>2016-05-15T08:20:01.000Z</time>
      </trkpt>
      <trkpt lat="47.4414" lon="6.72456">
        <ele>476</ele>
        <time>2016-05-15T08:20:02.000Z</time>
      </trkpt>
      <trkpt lat="47.44135" lon="6.72457">
        <ele>475</ele>
        <time>2016-05-15T08:20:03.000Z</time>
      </trkpt>
      <trkpt lat="47.4413" lon="6.72458">
        <ele>475</ele>
        <time>2016-05-15T08:20:04.000Z</time>
      </trkpt>
      <trkpt lat="47.44115" lon="6.72457">
        <ele>474</ele>
        <time>2016-05-15T08:20:05.000Z</time>
      </trkpt>
      <trkpt lat="47.44107" lon="6.72459">
        <ele>474</ele>
        <time>2016-05-15T08:20:06.000Z</time>
      </trkpt>
      <trkpt lat="47.44098" lon="6.72459">
        <ele>473</ele>
        <time>2016-05-15T08:20:07.000Z</time>
      </trkpt>
      <trkpt lat="47.44088" lon="6.72463">
        <ele>473</ele>
        <time>2016-05-15T08:20:08.000Z</time>
      </trkpt>
      <trkpt lat="47.4408" lon="6.72465">
        <ele>468</ele>
        <time>2016-05-15T08:20:09.000Z</time>
      </trkpt>
      <trkpt lat="47.44072" lon="6.72468">
        <ele>468</ele>
        <time>2016-05-15T08:20:10.000Z</time>
      </trkpt>
      <trkpt lat="47.44065" lon="6.72471">
        <ele>467</ele>
        <time>2016-05-15T08:20:11.000Z</time>
      </trkpt>
      <trkpt lat="47.44054" lon="6.72473">
        <ele>467</ele>
        <time>2016-05-15T08:20:12.000Z</time>
      </trkpt>
      <trkpt lat="47.44048" lon="6.72476">
        <ele>467</ele>
        <time>2016-05-15T08:20:13.000Z</time>
      </trkpt>
      <trkpt lat="47.44041" lon="6.72478">
        <ele>467</ele>
        <time>2016-05-15T08:20:14.000Z</time>
      </trkpt>
      <trkpt lat="47.44035" lon="6.7248">
        <ele>467</ele>
        <time>2016-05-15T08:20:15.000Z</time>
      </trkpt>
      <trkpt lat="47.44026" lon="6.72483">
        <ele>466</ele>
        <time>2016-05-15T08:20:16.000Z</time>
      </trkpt>
      <trkpt lat="47.44018" lon="6.72487">
        <ele>466</ele>
        <time>2016-05-15T08:20:17.000Z</time>
      </trkpt>
      <trkpt lat="47.44011" lon="6.72491">
        <ele>465</ele>
        <time>2016-05-15T08:20:18.000Z</time>
      </trkpt>
      <trkpt lat="47.44003" lon="6.7249">
        <ele>465</ele>
        <time>2016-05-15T08:20:19.000Z</time>
      </trkpt>
      <trkpt lat="47.43996" lon="6.72492">
        <ele>464</ele>
        <time>2016-05-15T08:20:20.000Z</time>
      </trkpt>
      <trkpt lat="47.43989" lon="6.72494">
        <ele>464</ele>
        <time>2016-05-15T08:20:21.000Z</time>
      </trkpt>
      <trkpt lat="47.43983" lon="6.72493">
        <ele>464</ele>
        <time>2016-05-15T08:20:22.000Z</time>
      </trkpt>
      <trkpt lat="47.43977" lon="6.72493">
        <ele>464</ele>
        <time>2016-05-15T08:20:23.000Z</time>
      </trkpt>
      <trkpt lat="47.43972" lon="6.72493">
        <ele>464</ele>
        <time>2016-05-15T08:20:24.000Z</time>
      </trkpt>
      <trkpt lat="47.43968" lon="6.72495">
        <ele>464</ele>
        <time>2016-05-15T08:20:25.000Z</time>
      </trkpt>
      <trkpt lat="47.43962" lon="6.72497">
        <ele>464</ele>
        <time>2016-05-15T08:20:26.000Z</time>
      </trkpt>
      <trkpt lat="47.43957" lon="6.72499">
        <ele>464</ele>
        <time>2016-05-15T08:20:27.000Z</time>
      </trkpt>
      <trkpt lat="47.43952" lon="6.725">
        <ele>463</ele>
        <time>2016-05-15T08:20:28.000Z</time>
      </trkpt>
      <trkpt lat="47.43946" lon="6.72502">
        <ele>463</ele>
        <time>2016-05-15T08:20:29.000Z</time>
      </trkpt>
      <trkpt lat="47.43942" lon="6.72503">
        <ele>463</ele>
        <time>2016-05-15T08:20:30.000Z</time>
      </trkpt>
      <trkpt lat="47.43937" lon="6.72503">
        <ele>463</ele>
        <time>2016-05-15T08:20:31.000Z</time>
      </trkpt>
      <trkpt lat="47.43932" lon="6.72502">
        <ele>463</ele>
        <time>2016-05-15T08:20:32.000Z</time>
      </trkpt>
      <trkpt lat="47.43927" lon="6.72499">
        <ele>463</ele>
        <time>2016-05-15T08:20:33.000Z</time>
      </trkpt>
      <trkpt lat="47.43922" lon="6.72497">
        <ele>463</ele>
        <time>2016-05-15T08:20:34.000Z</time>
      </trkpt>
      <trkpt lat="47.43917" lon="6.72493">
        <ele>463</ele>
        <time>2016-05-15T08:20:35.000Z</time>
      </trkpt>
      <trkpt lat="47.43912" lon="6.72489">
        <ele>463</ele>
        <time>2016-05-15T08:20:36.000Z</time>
      </trkpt>
      <trkpt lat="47.43907" lon="6.72484">
        <ele>463</ele>
        <time>2016-05-15T08:20:37.000Z</time>
      </trkpt>
      <trkpt lat="47.43902" lon="6.72481">
        <ele>463</ele>
        <time>2016-05-15T08:20:38.000Z</time>
      </trkpt>
      <trkpt lat="47.43897" lon="6.72476">
        <ele>463</ele>
        <time>2016-05-15T08:20:39.000Z</time>
      </trkpt>
      <trkpt lat="47.43892" lon="6.72472">
        <ele>463</ele>
        <time>2016-05-15T08:20:40.000Z</time>
      </trkpt>
      <trkpt lat="47.43886" lon="6.72468">
        <ele>463</ele>
        <time>2016-05-15T08:20:41.000Z</time>
      </trkpt>
      <trkpt lat="47.43881" lon="6.72463">
        <ele>463</ele>
        <time>2016-05-15T08:20:42.000Z</time>
      </trkpt>
      <trkpt lat="47.43876" lon="6.72459">
        <ele>463</ele>
        <time>2016-05-15T08:20:43.000Z</time>
      </trkpt>
      <trkpt lat="47.4387" lon="6.72454">
        <ele>463</ele>
        <time>2016-05-15T08:20:44.000Z</time>
      </trkpt>
      <trkpt lat="47.43865" lon="6.72451">
        <ele>463</ele>
        <time>2016-05-15T08:20:45.000Z</time>
      </trkpt>
      <trkpt lat="47.43859" lon="6.72448">
        <ele>463</ele>
        <time>2016-05-15T08:20:46.000Z</time>
      </trkpt>
      <trkpt lat="47.43854" lon="6.72444">
        <ele>463</ele>
        <time>2016-05-15T08:20:47.000Z</time>
      </trkpt>
      <trkpt lat="47.4385" lon="6.72437">
        <ele>463</ele>
        <time>2016-05-15T08:20:48.000Z</time>
      </trkpt>
      <trkpt lat="47.43846" lon="6.72432">
        <ele>462</ele>
        <time>2016-05-15T08:20:49.000Z</time>
      </trkpt>
      <trkpt lat="47.43841" lon="6.72429">
        <ele>462</ele>
        <time>2016-05-15T08:20:50.000Z</time>
      </trkpt>
      <trkpt lat="47.43836" lon="6.72424">
        <ele>462</ele>
        <time>2016-05-15T08:20:51.000Z</time>
      </trkpt>
      <trkpt lat="47.43832" lon="6.72419">
        <ele>462</ele>
        <time>2016-05-15T08:20:52.000Z</time>
      </trkpt>
      <trkpt lat="47.43828" lon="6.72414">
        <ele>462</ele>
        <time>2016-05-15T08:20:53.000Z</time>
      </trkpt>
      <trkpt lat="47.43823" lon="6.72409">
        <ele>462</ele>
        <time>2016-05-15T08:20:54.000Z</time>
      </trkpt>
      <trkpt lat="47.43819" lon="6.72404">
        <ele>462</ele>
        <time>2016-05-15T08:20:55.000Z</time>
      </trkpt>
      <trkpt lat="47.43816" lon="6.724">
        <ele>462</ele>
        <time>2016-05-15T08:20:56.000Z</time>
      </trkpt>
      <trkpt lat="47.43812" lon="6.72396">
        <ele>462</ele>
        <time>2016-05-15T08:20:57.000Z</time>
      </trkpt>
      <trkpt lat="47.43807" lon="6.72391">
        <ele>462</ele>
        <time>2016-05-15T08:20:58.000Z</time>
      </trkpt>
      <trkpt lat="47.43803" lon="6.72386">
        <ele>462</ele>
        <time>2016-05-15T08:20:59.000Z</time>
      </trkpt>
      <trkpt lat="47.43799" lon="6.72381">
        <ele>462</ele>
        <time>2016-05-15T08:21:00.000Z</time>
      </trkpt>
      <trkpt lat="47.43794" lon="6.72376">
        <ele>462</ele>
        <time>2016-05-15T08:21:01.000Z</time>
      </trkpt>
      <trkpt lat="47.4379" lon="6.72371">
        <ele>461</ele>
        <time>2016-05-15T08:21:02.000Z</time>
      </trkpt>
      <trkpt lat="47.43785" lon="6.72365">
        <ele>461</ele>
        <time>2016-05-15T08:21:03.000Z</time>
      </trkpt>
      <trkpt lat="47.43781" lon="6.72359">
        <ele>461</ele>
        <time>2016-05-15T08:21:04.000Z</time>
      </trkpt>
      <trkpt lat="47.43777" lon="6.72354">
        <ele>461</ele>
        <time>2016-05-15T08:21:05.000Z</time>
      </trkpt>
      <trkpt lat="47.43773" lon="6.72348">
        <ele>461</ele>
        <time>2016-05-15T08:21:06.000Z</time>
      </trkpt>
      <trkpt lat="47.43768" lon="6.72342">
        <ele>461</ele>
        <time>2016-05-15T08:21:07.000Z</time>
      </trkpt>
      <trkpt lat="47.43764" lon="6.72337">
        <ele>461</ele>
        <time>2016-05-15T08:21:08.000Z</time>
      </trkpt>
      <trkpt lat="47.43759" lon="6.72331">
        <ele>460</ele>
        <time>2016-05-15T08:21:09.000Z</time>
      </trkpt>
      <trkpt lat="47.43755" lon="6.72325">
        <ele>460</ele>
        <time>2016-05-15T08:21:10.000Z</time>
      </trkpt>
      <trkpt lat="47.43751" lon="6.72319">
        <ele>460</ele>
        <time>2016-05-15T08:21:11.000Z</time>
      </trkpt>
      <trkpt lat="47.43746" lon="6.72313">
        <ele>460</ele>
        <time>2016-05-15T08:21:12.000Z</time>
      </trkpt>
      <trkpt lat="47.43741" lon="6.72308">
        <ele>460</ele>
        <time>2016-05-15T08:21:13.000Z</time>
      </trkpt>
      <trkpt lat="47.43736" lon="6.72305">
        <ele>460</ele>
        <time>2016-05-15T08:21:14.000Z</time>
      </trkpt>
      <trkpt lat="47.4373" lon="6.72302">
        <ele>460</ele>
        <time>2016-05-15T08:21:15.000Z</time>
      </trkpt>
      <trkpt lat="47.43724" lon="6.72304">
        <ele>460</ele>
        <time>2016-05-15T08:21:16.000Z</time>
      </trkpt>
      <trkpt lat="47.43719" lon="6.72307">
        <ele>460</ele>
        <time>2016-05-15T08:21:17.000Z</time>
      </trkpt>
      <trkpt lat="47.43714" lon="6.7231">
        <ele>460</ele>
        <time>2016-05-15T08:21:18.000Z</time>
      </trkpt>
      <trkpt lat="47.4371" lon="6.72313">
        <ele>460</ele>
        <time>2016-05-15T08:21:19.000Z</time>
      </trkpt>
      <trkpt lat="47.43705" lon="6.72316">
        <ele>460</ele>
        <time>2016-05-15T08:21:20.000Z</time>
      </trkpt>
      <trkpt lat="47.43701" lon="6.72319">
        <ele>460</ele>
        <time>2016-05-15T08:21:21.000Z</time>
      </trkpt>
      <trkpt lat="47.43697" lon="6.72323">
        <ele>460</ele>
        <time>2016-05-15T08:21:22.000Z</time>
      </trkpt>
      <trkpt lat="47.43692" lon="6.72327">
        <ele>460</ele>
        <time>2016-05-15T08:21:23.000Z</time>
      </trkpt>
      <trkpt lat="47.43687" lon="6.72331">
        <ele>460</ele>
        <time>2016-05-15T08:21:24.000Z</time>
      </trkpt>
      <trkpt lat="47.43683" lon="6.72335">
        <ele>461</ele>
        <time>2016-05-15T08:21:25.000Z</time>
      </trkpt>
      <trkpt lat="47.43679" lon="6.72339">
        <ele>461</ele>
        <time>2016-05-15T08:21:26.000Z</time>
      </trkpt>
      <trkpt lat="47.43675" lon="6.72343">
        <ele>461</ele>
        <time>2016-05-15T08:21:27.000Z</time>
      </trkpt>
      <trkpt lat="47.4367" lon="6.72347">
        <ele>461</ele>
        <time>2016-05-15T08:21:28.000Z</time>
      </trkpt>
      <trkpt lat="47.43665" lon="6.72351">
        <ele>462</ele>
        <time>2016-05-15T08:21:29.000Z</time>
      </trkpt>
      <trkpt lat="47.43661" lon="6.72354">
        <ele>463</ele>
        <time>2016-05-15T08:21:30.000Z</time>
      </trkpt>
      <trkpt lat="47.43656" lon="6.72357">
        <ele>463</ele>
        <time>2016-05-15T08:21:31.000Z</time>
      </trkpt>
      <trkpt lat="47.43651" lon="6.7236">
        <ele>463</ele>
        <time>2016-05-15T08:21:32.000Z</time>
      </trkpt>
      <trkpt lat="47.43647" lon="6.72362">
        <ele>463</ele>
        <time>2016-05-15T08:21:33.000Z</time>
      </trkpt>
      <trkpt lat="47.43642" lon="6.72365">
        <ele>463</ele>
        <time>2016-05-15T08:21:34.000Z</time>
      </trkpt>
      <trkpt lat="47.43638" lon="6.72368">
        <ele>463</ele>
        <time>2016-05-15T08:21:35.000Z</time>
      </trkpt>
      <trkpt lat="47.43633" lon="6.7237">
        <ele>464</ele>
        <time>2016-05-15T08:21:36.000Z</time>
      </trkpt>
      <trkpt lat="47.43628" lon="6.72372">
        <ele>464</ele>
        <time>2016-05-15T08:21:37.000Z</time>
      </trkpt>
      <trkpt lat="47.43624" lon="6.72374">
        <ele>464</ele>
        <time>2016-05-15T08:21:38.000Z</time>
      </trkpt>
      <trkpt lat="47.43619" lon="6.72376">
        <ele>464</ele>
        <time>2016-05-15T08:21:39.000Z</time>
      </trkpt>
      <trkpt lat="47.43614" lon="6.72378">
        <ele>464</ele>
        <time>2016-05-15T08:21:40.000Z</time>
      </trkpt>
      <trkpt lat="47.43611" lon="6.72381">
        <ele>464</ele>
        <time>2016-05-15T08:21:41.000Z</time>
      </trkpt>
      <trkpt lat="47.43606" lon="6.72384">
        <ele>464</ele>
        <time>2016-05-15T08:21:42.000Z</time>
      </trkpt>
      <trkpt lat="47.43601" lon="6.72386">
        <ele>464</ele>
        <time>2016-05-15T08:21:43.000Z</time>
      </trkpt>
      <trkpt lat="47.43597" lon="6.72388">
        <ele>464</ele>
        <time>2016-05-15T08:21:44.000Z</time>
      </trkpt>
      <trkpt lat="47.43592" lon="6.72392">
        <ele>465</ele>
        <time>2016-05-15T08:21:45.000Z</time>
      </trkpt>
      <trkpt lat="47.43586" lon="6.72393">
        <ele>465</ele>
        <time>2016-05-15T08:21:46.000Z</time>
      </trkpt>
      <trkpt lat="47.43581" lon="6.72397">
        <ele>467</ele>
        <time>2016-05-15T08:21:47.000Z</time>
      </trkpt>
      <trkpt lat="47.43576" lon="6.72399">
        <ele>467</ele>
        <time>2016-05-15T08:21:48.000Z</time>
      </trkpt>
      <trkpt lat="47.43571" lon="6.72401">
        <ele>467</ele>
        <time>2016-05-15T08:21:49.000Z</time>
      </trkpt>
      <trkpt lat="47.43566" lon="6.72403">
        <ele>467</ele>
        <time>2016-05-15T08:21:50.000Z</time>
      </trkpt>
      <trkpt lat="47.4356" lon="6.72406">
        <ele>467</ele>
        <time>2016-05-15T08:21:51.000Z</time>
      </trkpt>
      <trkpt lat="47.43555" lon="6.7241">
        <ele>467</ele>
        <time>2016-05-15T08:21:52.000Z</time>
      </trkpt>
      <trkpt lat="47.4355" lon="6.72412">
        <ele>467</ele>
        <time>2016-05-15T08:21:53.000Z</time>
      </trkpt>
      <trkpt lat="47.43544" lon="6.72415">
        <ele>468</ele>
        <time>2016-05-15T08:21:54.000Z</time>
      </trkpt>
      <trkpt lat="47.43539" lon="6.72416">
        <ele>468</ele>
        <time>2016-05-15T08:21:55.000Z</time>
      </trkpt>
      <trkpt lat="47.43534" lon="6.72418">
        <ele>469</ele>
        <time>2016-05-15T08:21:56.000Z</time>
      </trkpt>
      <trkpt lat="47.43529" lon="6.72421">
        <ele>470</ele>
        <time>2016-05-15T08:21:57.000Z</time>
      </trkpt>
      <trkpt lat="47.43525" lon="6.72423">
        <ele>470</ele>
        <time>2016-05-15T08:21:58.000Z</time>
      </trkpt>
      <trkpt lat="47.43521" lon="6.72425">
        <ele>470</ele>
        <time>2016-05-15T08:21:59.000Z</time>
      </trkpt>
      <trkpt lat="47.43516" lon="6.72426">
        <ele>470</ele>
        <time>2016-05-15T08:22:00.000Z</time>
      </trkpt>
      <trkpt lat="47.43513" lon="6.72425">
        <ele>470</ele>
        <time>2016-05-15T08:22:01.000Z</time>
      </trkpt>
      <trkpt lat="47.4351" lon="6.72422">
        <ele>470</ele>
        <time>2016-05-15T08:22:02.000Z</time>
      </trkpt>
      <trkpt lat="47.43507" lon="6.72418">
        <ele>471</ele>
        <time>2016-05-15T08:22:03.000Z</time>
      </trkpt>
      <trkpt lat="47.43504" lon="6.72413">
        <ele>470</ele>
        <time>2016-05-15T08:22:04.000Z</time>
      </trkpt>
      <trkpt lat="47.43502" lon="6.72406">
        <ele>470</ele>
        <time>2016-05-15T08:22:05.000Z</time>
      </trkpt>
      <trkpt lat="47.435" lon="6.72401">
        <ele>471</ele>
        <time>2016-05-15T08:22:06.000Z</time>
      </trkpt>
      <trkpt lat="47.43496" lon="6.72397">
        <ele>471</ele>
        <time>2016-05-15T08:22:07.000Z</time>
      </trkpt>
      <trkpt lat="47.43494" lon="6.72392">
        <ele>471</ele>
        <time>2016-05-15T08:22:08.000Z</time>
      </trkpt>
      <trkpt lat="47.4349" lon="6.72387">
        <ele>471</ele>
        <time>2016-05-15T08:22:09.000Z</time>
      </trkpt>
      <trkpt lat="47.43487" lon="6.72382">
        <ele>471</ele>
        <time>2016-05-15T08:22:10.000Z</time>
      </trkpt>
      <trkpt lat="47.43484" lon="6.72377">
        <ele>471</ele>
        <time>2016-05-15T08:22:11.000Z</time>
      </trkpt>
      <trkpt lat="47.43482" lon="6.72371">
        <ele>471</ele>
        <time>2016-05-15T08:22:12.000Z</time>
      </trkpt>
      <trkpt lat="47.43478" lon="6.72366">
        <ele>471</ele>
        <time>2016-05-15T08:22:13.000Z</time>
      </trkpt>
      <trkpt lat="47.43475" lon="6.72362">
        <ele>471</ele>
        <time>2016-05-15T08:22:14.000Z</time>
      </trkpt>
      <trkpt lat="47.43472" lon="6.72358">
        <ele>471</ele>
        <time>2016-05-15T08:22:15.000Z</time>
      </trkpt>
      <trkpt lat="47.43469" lon="6.72354">
        <ele>471</ele>
        <time>2016-05-15T08:22:16.000Z</time>
      </trkpt>
      <trkpt lat="47.43466" lon="6.7235">
        <ele>471</ele>
        <time>2016-05-15T08:22:17.000Z</time>
      </trkpt>
      <trkpt lat="47.43463" lon="6.72346">
        <ele>471</ele>
        <time>2016-05-15T08:22:18.000Z</time>
      </trkpt>
      <trkpt lat="47.4346" lon="6.72341">
        <ele>471</ele>
        <time>2016-05-15T08:22:19.000Z</time>
      </trkpt>
      <trkpt lat="47.43457" lon="6.72337">
        <ele>471</ele>
        <time>2016-05-15T08:22:20.000Z</time>
      </trkpt>
      <trkpt lat="47.43454" lon="6.72332">
        <ele>469</ele>
        <time>2016-05-15T08:22:21.000Z</time>
      </trkpt>
      <trkpt lat="47.43451" lon="6.72329">
        <ele>469</ele>
        <time>2016-05-15T08:22:22.000Z</time>
      </trkpt>
      <trkpt lat="47.43448" lon="6.72324">
        <ele>469</ele>
        <time>2016-05-15T08:22:23.000Z</time>
      </trkpt>
      <trkpt lat="47.43444" lon="6.7232">
        <ele>469</ele>
        <time>2016-05-15T08:22:24.000Z</time>
      </trkpt>
      <trkpt lat="47.43441" lon="6.72316">
        <ele>469</ele>
        <time>2016-05-15T08:22:25.000Z</time>
      </trkpt>
      <trkpt lat="47.43438" lon="6.7231">
        <ele>469</ele>
        <time>2016-05-15T08:22:26.000Z</time>
      </trkpt>
      <trkpt lat="47.43434" lon="6.72306">
        <ele>469</ele>
        <time>2016-05-15T08:22:27.000Z</time>
      </trkpt>
      <trkpt lat="47.4343" lon="6.72301">
        <ele>469</ele>
        <time>2016-05-15T08:22:28.000Z</time>
      </trkpt>
      <trkpt lat="47.43427" lon="6.72296">
        <ele>468</ele>
        <time>2016-05-15T08:22:29.000Z</time>
      </trkpt>
      <trkpt lat="47.43425" lon="6.72292">
        <ele>468</ele>
        <time>2016-05-15T08:22:30.000Z</time>
      </trkpt>
      <trkpt lat="47.43423" lon="6.72288">
        <ele>468</ele>
        <time>2016-05-15T08:22:31.000Z</time>
      </trkpt>
      <trkpt lat="47.43421" lon="6.72284">
        <ele>468</ele>
        <time>2016-05-15T08:22:32.000Z</time>
      </trkpt>
      <trkpt lat="47.43418" lon="6.72279">
        <ele>468</ele>
        <time>2016-05-15T08:22:33.000Z</time>
      </trkpt>
      <trkpt lat="47.43415" lon="6.72274">
        <ele>471</ele>
        <time>2016-05-15T08:22:34.000Z</time>
      </trkpt>
      <trkpt lat="47.43411" lon="6.72269">
        <ele>471</ele>
        <time>2016-05-15T08:22:35.000Z</time>
      </trkpt>
      <trkpt lat="47.43408" lon="6.72264">
        <ele>470</ele>
        <time>2016-05-15T08:22:36.000Z</time>
      </trkpt>
      <trkpt lat="47.43405" lon="6.72259">
        <ele>470</ele>
        <time>2016-05-15T08:22:37.000Z</time>
      </trkpt>
      <trkpt lat="47.43402" lon="6.72255">
        <ele>470</ele>
        <time>2016-05-15T08:22:38.000Z</time>
      </trkpt>
      <trkpt lat="47.43399" lon="6.72251">
        <ele>470</ele>
        <time>2016-05-15T08:22:39.000Z</time>
      </trkpt>
      <trkpt lat="47.43396" lon="6.72245">
        <ele>468</ele>
        <time>2016-05-15T08:22:40.000Z</time>
      </trkpt>
      <trkpt lat="47.43393" lon="6.7224">
        <ele>468</ele>
        <time>2016-05-15T08:22:41.000Z</time>
      </trkpt>
      <trkpt lat="47.4339" lon="6.72236">
        <ele>468</ele>
        <time>2016-05-15T08:22:42.000Z</time>
      </trkpt>
      <trkpt lat="47.43387" lon="6.72231">
        <ele>469</ele>
        <time>2016-05-15T08:22:43.000Z</time>
      </trkpt>
      <trkpt lat="47.43384" lon="6.72226">
        <ele>469</ele>
        <time>2016-05-15T08:22:44.000Z</time>
      </trkpt>
      <trkpt lat="47.4338" lon="6.72221">
        <ele>469</ele>
        <time>2016-05-15T08:22:45.000Z</time>
      </trkpt>
      <trkpt lat="47.43377" lon="6.72216">
        <ele>469</ele>
        <time>2016-05-15T08:22:46.000Z</time>
      </trkpt>
      <trkpt lat="47.43374" lon="6.72211">
        <ele>469</ele>
        <time>2016-05-15T08:22:47.000Z</time>
      </trkpt>
      <trkpt lat="47.43371" lon="6.72206">
        <ele>469</ele>
        <time>2016-05-15T08:22:48.000Z</time>
      </trkpt>
      <trkpt lat="47.43367" lon="6.72201">
        <ele>469</ele>
        <time>2016-05-15T08:22:49.000Z</time>
      </trkpt>
      <trkpt lat="47.43365" lon="6.72195">
        <ele>469</ele>
        <time>2016-05-15T08:22:50.000Z</time>
      </trkpt>
      <trkpt lat="47.43361" lon="6.72191">
        <ele>469</ele>
        <time>2016-05-15T08:22:51.000Z</time>
      </trkpt>
      <trkpt lat="47.43358" lon="6.72186">
        <ele>469</ele>
        <time>2016-05-15T08:22:52.000Z</time>
      </trkpt>
      <trkpt lat="47.43355" lon="6.72181">
        <ele>469</ele>
        <time>2016-05-15T08:22:53.000Z</time>
      </trkpt>
      <trkpt lat="47.43353" lon="6.72176">
        <ele>469</ele>
        <time>2016-05-15T08:22:54.000Z</time>
      </trkpt>
      <trkpt lat="47.43349" lon="6.72171">
        <ele>469</ele>
        <time>2016-05-15T08:22:55.000Z</time>
      </trkpt>
      <trkpt lat="47.43346" lon="6.72167">
        <ele>469</ele>
        <time>2016-05-15T08:22:56.000Z</time>
      </trkpt>
      <trkpt lat="47.43343" lon="6.72162">
        <ele>467</ele>
        <time>2016-05-15T08:22:57.000Z</time>
      </trkpt>
      <trkpt lat="47.43339" lon="6.72157">
        <ele>467</ele>
        <time>2016-05-15T08:22:58.000Z</time>
      </trkpt>
      <trkpt lat="47.43337" lon="6.72152">
        <ele>467</ele>
        <time>2016-05-15T08:22:59.000Z</time>
      </trkpt>
      <trkpt lat="47.43333" lon="6.72148">
        <ele>470</ele>
        <time>2016-05-15T08:23:00.000Z</time>
      </trkpt>
      <trkpt lat="47.4333" lon="6.72143">
        <ele>470</ele>
        <time>2016-05-15T08:23:01.000Z</time>
      </trkpt>
      <trkpt lat="47.43327" lon="6.72139">
        <ele>470</ele>
        <time>2016-05-15T08:23:02.000Z</time>
      </trkpt>
      <trkpt lat="47.43323" lon="6.72133">
        <ele>470</ele>
        <time>2016-05-15T08:23:03.000Z</time>
      </trkpt>
      <trkpt lat="47.4332" lon="6.7213">
        <ele>470</ele>
        <time>2016-05-15T08:23:04.000Z</time>
      </trkpt>
      <trkpt lat="47.43316" lon="6.72125">
        <ele>470</ele>
        <time>2016-05-15T08:23:05.000Z</time>
      </trkpt>
      <trkpt lat="47.43312" lon="6.7212">
        <ele>470</ele>
        <time>2016-05-15T08:23:06.000Z</time>
      </trkpt>
      <trkpt lat="47.4331" lon="6.72115">
        <ele>470</ele>
        <time>2016-05-15T08:23:07.000Z</time>
      </trkpt>
      <trkpt lat="47.43307" lon="6.7211">
        <ele>470</ele>
        <time>2016-05-15T08:23:08.000Z</time>
      </trkpt>
      <trkpt lat="47.43304" lon="6.72105">
        <ele>470</ele>
        <time>2016-05-15T08:23:09.000Z</time>
      </trkpt>
      <trkpt lat="47.43301" lon="6.721">
        <ele>470</ele>
        <time>2016-05-15T08:23:10.000Z</time>
      </trkpt>
      <trkpt lat="47.43298" lon="6.72095">
        <ele>470</ele>
        <time>2016-05-15T08:23:11.000Z</time>
      </trkpt>
      <trkpt lat="47.43295" lon="6.72091">
        <ele>471</ele>
        <time>2016-05-15T08:23:12.000Z</time>
      </trkpt>
      <trkpt lat="47.43292" lon="6.72087">
        <ele>471</ele>
        <time>2016-05-15T08:23:13.000Z</time>
      </trkpt>
      <trkpt lat="47.4329" lon="6.72082">
        <ele>469</ele>
        <time>2016-05-15T08:23:14.000Z</time>
      </trkpt>
      <trkpt lat="47.43287" lon="6.72077">
        <ele>469</ele>
        <time>2016-05-15T08:23:15.000Z</time>
      </trkpt>
      <trkpt lat="47.43284" lon="6.72071">
        <ele>469</ele>
        <time>2016-05-15T08:23:16.000Z</time>
      </trkpt>
      <trkpt lat="47.43282" lon="6.72067">
        <ele>469</ele>
        <time>2016-05-15T08:23:17.000Z</time>
      </trkpt>
      <trkpt lat="47.43279" lon="6.72062">
        <ele>469</ele>
        <time>2016-05-15T08:23:18.000Z</time>
      </trkpt>
      <trkpt lat="47.43277" lon="6.72058">
        <ele>469</ele>
        <time>2016-05-15T08:23:19.000Z</time>
      </trkpt>
      <trkpt lat="47.43274" lon="6.72055">
        <ele>469</ele>
        <time>2016-05-15T08:23:20.000Z</time>
      </trkpt>
      <trkpt lat="47.43272" lon="6.72049">
        <ele>469</ele>
        <time>2016-05-15T08:23:21.000Z</time>
      </trkpt>
      <trkpt lat="47.43269" lon="6.72043">
        <ele>469</ele>
        <time>2016-05-15T08:23:22.000Z</time>
      </trkpt>
      <trkpt lat="47.43266" lon="6.72039">
        <ele>469</ele>
        <time>2016-05-15T08:23:23.000Z</time>
      </trkpt>
      <trkpt lat="47.43263" lon="6.72034">
        <ele>469</ele>
        <time>2016-05-15T08:23:24.000Z</time>
      </trkpt>
      <trkpt lat="47.43261" lon="6.72029">
        <ele>469</ele>
        <time>2016-05-15T08:23:25.000Z</time>
      </trkpt>
      <trkpt lat="47.43259" lon="6.72025">
        <ele>469</ele>
        <time>2016-05-15T08:23:26.000Z</time>
      </trkpt>
      <trkpt lat="47.43256" lon="6.72021">
        <ele>469</ele>
        <time>2016-05-15T08:23:27.000Z</time>
      </trkpt>
      <trkpt lat="47.43254" lon="6.72016">
        <ele>469</ele>
        <time>2016-05-15T08:23:28.000Z</time>
      </trkpt>
      <trkpt lat="47.43252" lon="6.72011">
        <ele>469</ele>
        <time>2016-05-15T08:23:29.000Z</time>
      </trkpt>
      <trkpt lat="47.43249" lon="6.72006">
        <ele>471</ele>
        <time>2016-05-15T08:23:30.000Z</time>
      </trkpt>
      <trkpt lat="47.43246" lon="6.72003">
        <ele>471</ele>
        <time>2016-05-15T08:23:31.000Z</time>
      </trkpt>
      <trkpt lat="47.43244" lon="6.71998">
        <ele>471</ele>
        <time>2016-05-15T08:23:32.000Z</time>
      </trkpt>
      <trkpt lat="47.43242" lon="6.71995">
        <ele>471</ele>
        <time>2016-05-15T08:23:33.000Z</time>
      </trkpt>
      <trkpt lat="47.43239" lon="6.71991">
        <ele>471</ele>
        <time>2016-05-15T08:23:34.000Z</time>
      </trkpt>
      <trkpt lat="47.43237" lon="6.71987">
        <ele>471</ele>
        <time>2016-05-15T08:23:35.000Z</time>
      </trkpt>
      <trkpt lat="47.43235" lon="6.71984">
        <ele>471</ele>
        <time>2016-05-15T08:23:36.000Z</time>
      </trkpt>
      <trkpt lat="47.43232" lon="6.71981">
        <ele>471</ele>
        <time>2016-05-15T08:23:37.000Z</time>
      </trkpt>
      <trkpt lat="47.43231" lon="6.71977">
        <ele>471</ele>
        <time>2016-05-15T08:23:38.000Z</time>
      </trkpt>
      <trkpt lat="47.43229" lon="6.71973">
        <ele>472</ele>
        <time>2016-05-15T08:23:39.000Z</time>
      </trkpt>
      <trkpt lat="47.43227" lon="6.71969">
        <ele>472</ele>
        <time>2016-05-15T08:23:40.000Z</time>
      </trkpt>
      <trkpt lat="47.43225" lon="6.71966">
        <ele>472</ele>
        <time>2016-05-15T08:23:41.000Z</time>
      </trkpt>
      <trkpt lat="47.43223" lon="6.71962">
        <ele>472</ele>
        <time>2016-05-15T08:23:42.000Z</time>
      </trkpt>
      <trkpt lat="47.43221" lon="6.71959">
        <ele>472</ele>
        <time>2016-05-15T08:23:43.000Z</time>
      </trkpt>
      <trkpt lat="47.43219" lon="6.71956">
        <ele>472</ele>
        <time>2016-05-15T08:23:44.000Z</time>
      </trkpt>
      <trkpt lat="47.43217" lon="6.71952">
        <ele>472</ele>
        <time>2016-05-15T08:23:45.000Z</time>
      </trkpt>
      <trkpt lat="47.43215" lon="6.71949">
        <ele>472</ele>
        <time>2016-05-15T08:23:46.000Z</time>
      </trkpt>
      <trkpt lat="47.43213" lon="6.71946">
        <ele>472</ele>
        <time>2016-05-15T08:23:47.000Z</time>
      </trkpt>
      <trkpt lat="47.43211" lon="6.71942">
        <ele>472</ele>
        <time>2016-05-15T08:23:48.000Z</time>
      </trkpt>
      <trkpt lat="47.4321" lon="6.71938">
        <ele>472</ele>
        <time>2016-05-15T08:23:49.000Z</time>
      </trkpt>
      <trkpt lat="47.43208" lon="6.71934">
        <ele>472</ele>
        <time>2016-05-15T08:23:50.000Z</time>
      </trkpt>
      <trkpt lat="47.43206" lon="6.7193">
        <ele>472</ele>
        <time>2016-05-15T08:23:51.000Z</time>
      </trkpt>
      <trkpt lat="47.43204" lon="6.71926">
        <ele>472</ele>
        <time>2016-05-15T08:23:52.000Z</time>
      </trkpt>
      <trkpt lat="47.43202" lon="6.71923">
        <ele>472</ele>
        <time>2016-05-15T08:23:53.000Z</time>
      </trkpt>
      <trkpt lat="47.432" lon="6.71919">
        <ele>472</ele>
        <time>2016-05-15T08:23:54.000Z</time>
      </trkpt>
      <trkpt lat="47.43198" lon="6.71915">
        <ele>470</ele>
        <time>2016-05-15T08:23:55.000Z</time>
      </trkpt>
      <trkpt lat="47.43196" lon="6.71912">
        <ele>471</ele>
        <time>2016-05-15T08:23:56.000Z</time>
      </trkpt>
      <trkpt lat="47.43194" lon="6.71909">
        <ele>471</ele>
        <time>2016-05-15T08:23:57.000Z</time>
      </trkpt>
      <trkpt lat="47.43192" lon="6.71907">
        <ele>471</ele>
        <time>2016-05-15T08:23:58.000Z</time>
      </trkpt>
      <trkpt lat="47.4319" lon="6.71905">
        <ele>471</ele>
        <time>2016-05-15T08:23:59.000Z</time>
      </trkpt>
      <trkpt lat="47.43188" lon="6.71902">
        <ele>471</ele>
        <time>2016-05-15T08:24:00.000Z</time>
      </trkpt>
      <trkpt lat="47.43186" lon="6.719">
        <ele>471</ele>
        <time>2016-05-15T08:24:01.000Z</time>
      </trkpt>
      <trkpt lat="47.43183" lon="6.71899">
        <ele>471</ele>
        <time>2016-05-15T08:24:02.000Z</time>
      </trkpt>
      <trkpt lat="47.4318" lon="6.71898">
        <ele>471</ele>
        <time>2016-05-15T08:24:03.000Z</time>
      </trkpt>
      <trkpt lat="47.43177" lon="6.71899">
        <ele>472</ele>
        <time>2016-05-15T08:24:04.000Z</time>
      </trkpt>
      <trkpt lat="47.43174" lon="6.71901">
        <ele>472</ele>
        <time>2016-05-15T08:24:05.000Z</time>
      </trkpt>
      <trkpt lat="47.43171" lon="6.71903">
        <ele>472</ele>
        <time>2016-05-15T08:24:06.000Z</time>
      </trkpt>
      <trkpt lat="47.43169" lon="6.71906">
        <ele>473</ele>
        <time>2016-05-15T08:24:07.000Z</time>
      </trkpt>
      <trkpt lat="47.43167" lon="6.71908">
        <ele>473</ele>
        <time>2016-05-15T08:24:08.000Z</time>
      </trkpt>
      <trkpt lat="47.43164" lon="6.71913">
        <ele>475</ele>
        <time>2016-05-15T08:24:10.000Z</time>
      </trkpt>
      <trkpt lat="47.43163" lon="6.71916">
        <ele>475</ele>
        <time>2016-05-15T08:24:11.000Z</time>
      </trkpt>
      <trkpt lat="47.4316" lon="6.71921">
        <ele>477</ele>
        <time>2016-05-15T08:24:13.000Z</time>
      </trkpt>
      <trkpt lat="47.43159" lon="6.71924">
        <ele>477</ele>
        <time>2016-05-15T08:24:14.000Z</time>
      </trkpt>
      <trkpt lat="47.43155" lon="6.71927">
        <ele>478</ele>
        <time>2016-05-15T08:24:16.000Z</time>
      </trkpt>
      <trkpt lat="47.43154" lon="6.71929">
        <ele>478</ele>
        <time>2016-05-15T08:24:17.000Z</time>
      </trkpt>
      <trkpt lat="47.4315" lon="6.71931">
        <ele>479</ele>
        <time>2016-05-15T08:24:19.000Z</time>
      </trkpt>
      <trkpt lat="47.43149" lon="6.71933">
        <ele>479</ele>
        <time>2016-05-15T08:24:20.000Z</time>
      </trkpt>
      <trkpt lat="47.43146" lon="6.71936">
        <ele>479</ele>
        <time>2016-05-15T08:24:22.000Z</time>
      </trkpt>
      <trkpt lat="47.43145" lon="6.71938">
        <ele>479</ele>
        <time>2016-05-15T08:24:23.000Z</time>
      </trkpt>
      <trkpt lat="47.43142" lon="6.71941">
        <ele>480</ele>
        <time>2016-05-15T08:24:25.000Z</time>
      </trkpt>
      <trkpt lat="47.4314" lon="6.71943">
        <ele>480</ele>
        <time>2016-05-15T08:24:26.000Z</time>
      </trkpt>
      <trkpt lat="47.43137" lon="6.71944">
        <ele>480</ele>
        <time>2016-05-15T08:24:28.000Z</time>
      </trkpt>
      <trkpt lat="47.43136" lon="6.71946">
        <ele>480</ele>
        <time>2016-05-15T08:24:28.998Z</time>
      </trkpt>
      <trkpt lat="47.43132" lon="6.71947">
        <ele>480</ele>
        <time>2016-05-15T08:24:31.000Z</time>
      </trkpt>
      <trkpt lat="47.43131" lon="6.71948">
        <ele>481</ele>
        <time>2016-05-15T08:24:32.000Z</time>
      </trkpt>
      <trkpt lat="47.43127" lon="6.71951">
        <ele>481</ele>
        <time>2016-05-15T08:24:35.000Z</time>
      </trkpt>
      <trkpt lat="47.43125" lon="6.71953">
        <ele>481</ele>
        <time>2016-05-15T08:24:36.000Z</time>
      </trkpt>
      <trkpt lat="47.43122" lon="6.71955">
        <ele>481</ele>
        <time>2016-05-15T08:24:38.000Z</time>
      </trkpt>
      <trkpt lat="47.43121" lon="6.71956">
        <ele>481</ele>
        <time>2016-05-15T08:24:39.000Z</time>
      </trkpt>
      <trkpt lat="47.43117" lon="6.71959">
        <ele>481</ele>
        <time>2016-05-15T08:24:42.000Z</time>
      </trkpt>
      <trkpt lat="47.43116" lon="6.7196">
        <ele>482</ele>
        <time>2016-05-15T08:24:43.000Z</time>
      </trkpt>
      <trkpt lat="47.43113" lon="6.71963">
        <ele>482</ele>
        <time>2016-05-15T08:24:45.000Z</time>
      </trkpt>
      <trkpt lat="47.43112" lon="6.71964">
        <ele>482</ele>
        <time>2016-05-15T08:24:46.000Z</time>
      </trkpt>
      <trkpt lat="47.43109" lon="6.71968">
        <ele>482</ele>
        <time>2016-05-15T08:24:49.000Z</time>
      </trkpt>
      <trkpt lat="47.43107" lon="6.71969">
        <ele>482</ele>
        <time>2016-05-15T08:24:50.000Z</time>
      </trkpt>
      <trkpt lat="47.43104" lon="6.71973">
        <ele>482</ele>
        <time>2016-05-15T08:24:53.000Z</time>
      </trkpt>
      <trkpt lat="47.43102" lon="6.71974">
        <ele>482</ele>
        <time>2016-05-15T08:24:54.000Z</time>
      </trkpt>
      <trkpt lat="47.431" lon="6.71976">
        <ele>483</ele>
        <time>2016-05-15T08:24:56.000Z</time>
      </trkpt>
      <trkpt lat="47.43098" lon="6.71977">
        <ele>483</ele>
        <time>2016-05-15T08:24:57.000Z</time>
      </trkpt>
      <trkpt lat="47.43095" lon="6.71979">
        <ele>483</ele>
        <time>2016-05-15T08:24:59.000Z</time>
      </trkpt>
      <trkpt lat="47.43094" lon="6.71981">
        <ele>483</ele>
        <time>2016-05-15T08:25:00.000Z</time>
      </trkpt>
      <trkpt lat="47.43091" lon="6.71983">
        <ele>483</ele>
        <time>2016-05-15T08:25:02.000Z</time>
      </trkpt>
      <trkpt lat="47.4309" lon="6.71984">
        <ele>484</ele>
        <time>2016-05-15T08:25:03.000Z</time>
      </trkpt>
      <trkpt lat="47.43087" lon="6.71986">
        <ele>484</ele>
        <time>2016-05-15T08:25:05.000Z</time>
      </trkpt>
      <trkpt lat="47.43085" lon="6.71988">
        <ele>484</ele>
        <time>2016-05-15T08:25:06.000Z</time>
      </trkpt>
      <trkpt lat="47.43082" lon="6.7199">
        <ele>487</ele>
        <time>2016-05-15T08:25:08.000Z</time>
      </trkpt>
      <trkpt lat="47.4308" lon="6.71991">
        <ele>487</ele>
        <time>2016-05-15T08:25:09.000Z</time>
      </trkpt>
      <trkpt lat="47.43077" lon="6.71994">
        <ele>487</ele>
        <time>2016-05-15T08:25:11.000Z</time>
      </trkpt>
      <trkpt lat="47.43076" lon="6.71995">
        <ele>487</ele>
        <time>2016-05-15T08:25:12.000Z</time>
      </trkpt>
      <trkpt lat="47.43073" lon="6.71998">
        <ele>487</ele>
        <time>2016-05-15T08:25:14.000Z</time>
      </trkpt>
      <trkpt lat="47.43071" lon="6.71999">
        <ele>487</ele>
        <time>2016-05-15T08:25:15.000Z</time>
      </trkpt>
      <trkpt lat="47.43068" lon="6.72002">
        <ele>489</ele>
        <time>2016-05-15T08:25:17.000Z</time>
      </trkpt>
      <trkpt lat="47.43067" lon="6.72003">
        <ele>489</ele>
        <time>2016-05-15T08:25:18.000Z</time>
      </trkpt>
      <trkpt lat="47.43064" lon="6.72006">
        <ele>490</ele>
        <time>2016-05-15T08:25:20.000Z</time>
      </trkpt>
      <trkpt lat="47.43062" lon="6.72007">
        <ele>490</ele>
        <time>2016-05-15T08:25:21.000Z</time>
      </trkpt>
      <trkpt lat="47.43058" lon="6.72009">
        <ele>490</ele>
        <time>2016-05-15T08:25:23.000Z</time>
      </trkpt>
      <trkpt lat="47.43056" lon="6.72011">
        <ele>490</ele>
        <time>2016-05-15T08:25:24.000Z</time>
      </trkpt>
      <trkpt lat="47.43053" lon="6.72014">
        <ele>491</ele>
        <time>2016-05-15T08:25:26.000Z</time>
      </trkpt>
      <trkpt lat="47.43051" lon="6.72015">
        <ele>491</ele>
        <time>2016-05-15T08:25:27.000Z</time>
      </trkpt>
      <trkpt lat="47.43048" lon="6.72018">
        <ele>491</ele>
        <time>2016-05-15T08:25:29.000Z</time>
      </trkpt>
      <trkpt lat="47.43047" lon="6.7202">
        <ele>491</ele>
        <time>2016-05-15T08:25:30.000Z</time>
      </trkpt>
      <trkpt lat="47.43044" lon="6.72023">
        <ele>492</ele>
        <time>2016-05-15T08:25:32.000Z</time>
      </trkpt>
      <trkpt lat="47.43043" lon="6.72024">
        <ele>492</ele>
        <time>2016-05-15T08:25:33.000Z</time>
      </trkpt>
      <trkpt lat="47.43039" lon="6.72027">
        <ele>492</ele>
        <time>2016-05-15T08:25:35.000Z</time>
      </trkpt>
      <trkpt lat="47.43037" lon="6.72028">
        <ele>492</ele>
        <time>2016-05-15T08:25:36.000Z</time>
      </trkpt>
      <trkpt lat="47.43033" lon="6.72031">
        <ele>492</ele>
        <time>2016-05-15T08:25:38.000Z</time>
      </trkpt>
      <trkpt lat="47.43032" lon="6.72033">
        <ele>493</ele>
        <time>2016-05-15T08:25:39.000Z</time>
      </trkpt>
      <trkpt lat="47.43028" lon="6.72036">
        <ele>493</ele>
        <time>2016-05-15T08:25:41.000Z</time>
      </trkpt>
      <trkpt lat="47.43027" lon="6.72037">
        <ele>493</ele>
        <time>2016-05-15T08:25:42.000Z</time>
      </trkpt>
      <trkpt lat="47.43024" lon="6.72039">
        <ele>493</ele>
        <time>2016-05-15T08:25:44.000Z</time>
      </trkpt>
      <trkpt lat="47.43022" lon="6.72041">
        <ele>493</ele>
        <time>2016-05-15T08:25:45.000Z</time>
      </trkpt>
      <trkpt lat="47.43019" lon="6.72043">
        <ele>493</ele>
        <time>2016-05-15T08:25:47.000Z</time>
      </trkpt>
      <trkpt lat="47.43017" lon="6.72044">
        <ele>493</ele>
        <time>2016-05-15T08:25:48.000Z</time>
      </trkpt>
      <trkpt lat="47.43014" lon="6.72047">
        <ele>494</ele>
        <time>2016-05-15T08:25:50.000Z</time>
      </trkpt>
      <trkpt lat="47.43012" lon="6.72048">
        <ele>494</ele>
        <time>2016-05-15T08:25:51.000Z</time>
      </trkpt>
      <trkpt lat="47.43008" lon="6.7205">
        <ele>494</ele>
        <time>2016-05-15T08:25:53.000Z</time>
      </trkpt>
      <trkpt lat="47.43007" lon="6.72052">
        <ele>494</ele>
        <time>2016-05-15T08:25:54.000Z</time>
      </trkpt>
      <trkpt lat="47.43004" lon="6.72055">
        <ele>494</ele>
        <time>2016-05-15T08:25:56.000Z</time>
      </trkpt>
      <trkpt lat="47.43002" lon="6.72056">
        <ele>494</ele>
        <time>2016-05-15T08:25:57.000Z</time>
      </trkpt>
      <trkpt lat="47.42999" lon="6.72058">
        <ele>498</ele>
        <time>2016-05-15T08:25:59.000Z</time>
      </trkpt>
      <trkpt lat="47.42997" lon="6.72057">
        <ele>498</ele>
        <time>2016-05-15T08:26:00.000Z</time>
      </trkpt>
      <trkpt lat="47.42995" lon="6.72054">
        <ele>498</ele>
        <time>2016-05-15T08:26:01.000Z</time>
      </trkpt>
      <trkpt lat="47.42994" lon="6.72051">
        <ele>498</ele>
        <time>2016-05-15T08:26:02.000Z</time>
      </trkpt>
      <trkpt lat="47.42992" lon="6.72046">
        <ele>498</ele>
        <time>2016-05-15T08:26:03.000Z</time>
      </trkpt>
      <trkpt lat="47.4299" lon="6.72042">
        <ele>498</ele>
        <time>2016-05-15T08:26:04.000Z</time>
      </trkpt>
      <trkpt lat="47.42989" lon="6.72037">
        <ele>498</ele>
        <time>2016-05-15T08:26:05.000Z</time>
      </trkpt>
      <trkpt lat="47.42987" lon="6.72032">
        <ele>498</ele>
        <time>2016-05-15T08:26:06.000Z</time>
      </trkpt>
      <trkpt lat="47.42985" lon="6.72028">
        <ele>498</ele>
        <time>2016-05-15T08:26:07.000Z</time>
      </trkpt>
      <trkpt lat="47.42982" lon="6.72023">
        <ele>498</ele>
        <time>2016-05-15T08:26:08.000Z</time>
      </trkpt>
      <trkpt lat="47.4298" lon="6.72019">
        <ele>498</ele>
        <time>2016-05-15T08:26:09.000Z</time>
      </trkpt>
      <trkpt lat="47.42978" lon="6.72015">
        <ele>498</ele>
        <time>2016-05-15T08:26:10.000Z</time>
      </trkpt>
      <trkpt lat="47.42976" lon="6.72011">
        <ele>498</ele>
        <time>2016-05-15T08:26:11.000Z</time>
      </trkpt>
      <trkpt lat="47.42974" lon="6.72007">
        <ele>498</ele>
        <time>2016-05-15T08:26:12.000Z</time>
      </trkpt>
      <trkpt lat="47.42972" lon="6.72002">
        <ele>498</ele>
        <time>2016-05-15T08:26:13.000Z</time>
      </trkpt>
      <trkpt lat="47.4297" lon="6.71998">
        <ele>496</ele>
        <time>2016-05-15T08:26:14.000Z</time>
      </trkpt>
      <trkpt lat="47.42968" lon="6.71993">
        <ele>496</ele>
        <time>2016-05-15T08:26:15.000Z</time>
      </trkpt>
      <trkpt lat="47.42965" lon="6.71988">
        <ele>497</ele>
        <time>2016-05-15T08:26:16.000Z</time>
      </trkpt>
      <trkpt lat="47.42963" lon="6.71983">
        <ele>497</ele>
        <time>2016-05-15T08:26:17.000Z</time>
      </trkpt>
      <trkpt lat="47.42961" lon="6.71978">
        <ele>497</ele>
        <time>2016-05-15T08:26:18.000Z</time>
      </trkpt>
      <trkpt lat="47.42958" lon="6.71973">
        <ele>497</ele>
        <time>2016-05-15T08:26:19.000Z</time>
      </trkpt>
      <trkpt lat="47.42956" lon="6.71968">
        <ele>497</ele>
        <time>2016-05-15T08:26:20.000Z</time>
      </trkpt>
      <trkpt lat="47.42954" lon="6.71963">
        <ele>497</ele>
        <time>2016-05-15T08:26:21.000Z</time>
      </trkpt>
      <trkpt lat="47.42952" lon="6.71958">
        <ele>497</ele>
        <time>2016-05-15T08:26:22.000Z</time>
      </trkpt>
      <trkpt lat="47.42949" lon="6.71953">
        <ele>497</ele>
        <time>2016-05-15T08:26:23.000Z</time>
      </trkpt>
      <trkpt lat="47.42947" lon="6.71948">
        <ele>497</ele>
        <time>2016-05-15T08:26:24.000Z</time>
      </trkpt>
      <trkpt lat="47.42945" lon="6.71944">
        <ele>497</ele>
        <time>2016-05-15T08:26:25.000Z</time>
      </trkpt>
      <trkpt lat="47.42943" lon="6.71939">
        <ele>497</ele>
        <time>2016-05-15T08:26:26.000Z</time>
      </trkpt>
      <trkpt lat="47.4294" lon="6.71933">
        <ele>497</ele>
        <time>2016-05-15T08:26:27.000Z</time>
      </trkpt>
      <trkpt lat="47.42938" lon="6.71928">
        <ele>497</ele>
        <time>2016-05-15T08:26:28.000Z</time>
      </trkpt>
      <trkpt lat="47.42935" lon="6.71923">
        <ele>497</ele>
        <time>2016-05-15T08:26:29.000Z</time>
      </trkpt>
      <trkpt lat="47.42933" lon="6.71918">
        <ele>498</ele>
        <time>2016-05-15T08:26:30.000Z</time>
      </trkpt>
      <trkpt lat="47.4293" lon="6.71913">
        <ele>497</ele>
        <time>2016-05-15T08:26:31.000Z</time>
      </trkpt>
      <trkpt lat="47.42928" lon="6.71907">
        <ele>497</ele>
        <time>2016-05-15T08:26:32.000Z</time>
      </trkpt>
      <trkpt lat="47.42926" lon="6.71902">
        <ele>496</ele>
        <time>2016-05-15T08:26:33.000Z</time>
      </trkpt>
      <trkpt lat="47.42922" lon="6.71895">
        <ele>496</ele>
        <time>2016-05-15T08:26:34.000Z</time>
      </trkpt>
      <trkpt lat="47.4292" lon="6.7189">
        <ele>495</ele>
        <time>2016-05-15T08:26:35.000Z</time>
      </trkpt>
      <trkpt lat="47.42918" lon="6.71885">
        <ele>495</ele>
        <time>2016-05-15T08:26:36.000Z</time>
      </trkpt>
      <trkpt lat="47.42916" lon="6.71879">
        <ele>498</ele>
        <time>2016-05-15T08:26:37.000Z</time>
      </trkpt>
      <trkpt lat="47.42914" lon="6.71874">
        <ele>498</ele>
        <time>2016-05-15T08:26:38.000Z</time>
      </trkpt>
      <trkpt lat="47.42912" lon="6.71868">
        <ele>498</ele>
        <time>2016-05-15T08:26:39.000Z</time>
      </trkpt>
      <trkpt lat="47.4291" lon="6.71861">
        <ele>497</ele>
        <time>2016-05-15T08:26:40.000Z</time>
      </trkpt>
      <trkpt lat="47.42908" lon="6.71854">
        <ele>497</ele>
        <time>2016-05-15T08:26:41.000Z</time>
      </trkpt>
      <trkpt lat="47.42907" lon="6.71846">
        <ele>496</ele>
        <time>2016-05-15T08:26:42.000Z</time>
      </trkpt>
      <trkpt lat="47.42906" lon="6.71839">
        <ele>496</ele>
        <time>2016-05-15T08:26:43.000Z</time>
      </trkpt>
      <trkpt lat="47.42905" lon="6.71832">
        <ele>494</ele>
        <time>2016-05-15T08:26:44.000Z</time>
      </trkpt>
      <trkpt lat="47.42904" lon="6.71828">
        <ele>494</ele>
        <time>2016-05-15T08:26:45.000Z</time>
      </trkpt>
      <trkpt lat="47.42902" lon="6.7182">
        <ele>494</ele>
        <time>2016-05-15T08:26:46.000Z</time>
      </trkpt>
      <trkpt lat="47.429" lon="6.71814">
        <ele>494</ele>
        <time>2016-05-15T08:26:47.000Z</time>
      </trkpt>
      <trkpt lat="47.42898" lon="6.71807">
        <ele>494</ele>
        <time>2016-05-15T08:26:48.000Z</time>
      </trkpt>
      <trkpt lat="47.42896" lon="6.718">
        <ele>494</ele>
        <time>2016-05-15T08:26:49.000Z</time>
      </trkpt>
      <trkpt lat="47.42893" lon="6.71795">
        <ele>494</ele>
        <time>2016-05-15T08:26:50.000Z</time>
      </trkpt>
      <trkpt lat="47.42891" lon="6.71787">
        <ele>493</ele>
        <time>2016-05-15T08:26:51.000Z</time>
      </trkpt>
      <trkpt lat="47.42888" lon="6.7178">
        <ele>493</ele>
        <time>2016-05-15T08:26:52.000Z</time>
      </trkpt>
      <trkpt lat="47.42887" lon="6.71773">
        <ele>493</ele>
        <time>2016-05-15T08:26:53.000Z</time>
      </trkpt>
      <trkpt lat="47.42884" lon="6.71767">
        <ele>493</ele>
        <time>2016-05-15T08:26:54.000Z</time>
      </trkpt>
      <trkpt lat="47.42881" lon="6.71759">
        <ele>493</ele>
        <time>2016-05-15T08:26:55.000Z</time>
      </trkpt>
      <trkpt lat="47.42878" lon="6.71753">
        <ele>493</ele>
        <time>2016-05-15T08:26:56.000Z</time>
      </trkpt>
      <trkpt lat="47.42876" lon="6.71746">
        <ele>489</ele>
        <time>2016-05-15T08:26:57.000Z</time>
      </trkpt>
      <trkpt lat="47.42872" lon="6.71739">
        <ele>489</ele>
        <time>2016-05-15T08:26:58.000Z</time>
      </trkpt>
      <trkpt lat="47.4287" lon="6.71732">
        <ele>489</ele>
        <time>2016-05-15T08:26:59.000Z</time>
      </trkpt>
      <trkpt lat="47.42867" lon="6.71726">
        <ele>489</ele>
        <time>2016-05-15T08:27:00.000Z</time>
      </trkpt>
      <trkpt lat="47.42864" lon="6.71719">
        <ele>489</ele>
        <time>2016-05-15T08:27:01.000Z</time>
      </trkpt>
      <trkpt lat="47.42861" lon="6.71712">
        <ele>489</ele>
        <time>2016-05-15T08:27:02.000Z</time>
      </trkpt>
      <trkpt lat="47.42859" lon="6.71706">
        <ele>489</ele>
        <time>2016-05-15T08:27:03.000Z</time>
      </trkpt>
      <trkpt lat="47.42856" lon="6.71698">
        <ele>489</ele>
        <time>2016-05-15T08:27:04.000Z</time>
      </trkpt>
      <trkpt lat="47.42852" lon="6.71691">
        <ele>489</ele>
        <time>2016-05-15T08:27:05.000Z</time>
      </trkpt>
      <trkpt lat="47.42849" lon="6.71684">
        <ele>489</ele>
        <time>2016-05-15T08:27:06.000Z</time>
      </trkpt>
      <trkpt lat="47.42846" lon="6.71677">
        <ele>489</ele>
        <time>2016-05-15T08:27:07.000Z</time>
      </trkpt>
      <trkpt lat="47.42843" lon="6.71671">
        <ele>489</ele>
        <time>2016-05-15T08:27:08.000Z</time>
      </trkpt>
      <trkpt lat="47.42839" lon="6.71664">
        <ele>488</ele>
        <time>2016-05-15T08:27:09.000Z</time>
      </trkpt>
      <trkpt lat="47.42835" lon="6.71659">
        <ele>487</ele>
        <time>2016-05-15T08:27:10.000Z</time>
      </trkpt>
      <trkpt lat="47.42832" lon="6.71653">
        <ele>489</ele>
        <time>2016-05-15T08:27:11.000Z</time>
      </trkpt>
      <trkpt lat="47.42828" lon="6.71648">
        <ele>489</ele>
        <time>2016-05-15T08:27:12.000Z</time>
      </trkpt>
      <trkpt lat="47.42825" lon="6.71642">
        <ele>488</ele>
        <time>2016-05-15T08:27:13.000Z</time>
      </trkpt>
      <trkpt lat="47.42821" lon="6.71638">
        <ele>488</ele>
        <time>2016-05-15T08:27:14.000Z</time>
      </trkpt>
      <trkpt lat="47.42817" lon="6.71632">
        <ele>488</ele>
        <time>2016-05-15T08:27:15.000Z</time>
      </trkpt>
      <trkpt lat="47.42813" lon="6.71627">
        <ele>488</ele>
        <time>2016-05-15T08:27:16.000Z</time>
      </trkpt>
      <trkpt lat="47.4281" lon="6.71622">
        <ele>488</ele>
        <time>2016-05-15T08:27:17.000Z</time>
      </trkpt>
      <trkpt lat="47.42806" lon="6.71618">
        <ele>488</ele>
        <time>2016-05-15T08:27:18.000Z</time>
      </trkpt>
      <trkpt lat="47.42802" lon="6.71613">
        <ele>488</ele>
        <time>2016-05-15T08:27:19.000Z</time>
      </trkpt>
      <trkpt lat="47.42798" lon="6.71608">
        <ele>488</ele>
        <time>2016-05-15T08:27:20.000Z</time>
      </trkpt>
      <trkpt lat="47.42795" lon="6.71603">
        <ele>488</ele>
        <time>2016-05-15T08:27:21.000Z</time>
      </trkpt>
      <trkpt lat="47.42791" lon="6.71598">
        <ele>488</ele>
        <time>2016-05-15T08:27:22.000Z</time>
      </trkpt>
      <trkpt lat="47.42786" lon="6.71593">
        <ele>488</ele>
        <time>2016-05-15T08:27:23.000Z</time>
      </trkpt>
      <trkpt lat="47.42782" lon="6.71588">
        <ele>488</ele>
        <time>2016-05-15T08:27:24.000Z</time>
      </trkpt>
      <trkpt lat="47.42777" lon="6.71584">
        <ele>488</ele>
        <time>2016-05-15T08:27:25.000Z</time>
      </trkpt>
      <trkpt lat="47.42773" lon="6.71578">
        <ele>486</ele>
        <time>2016-05-15T08:27:26.000Z</time>
      </trkpt>
      <trkpt lat="47.42769" lon="6.71573">
        <ele>486</ele>
        <time>2016-05-15T08:27:27.000Z</time>
      </trkpt>
      <trkpt lat="47.42765" lon="6.71568">
        <ele>486</ele>
        <time>2016-05-15T08:27:28.000Z</time>
      </trkpt>
      <trkpt lat="47.42761" lon="6.71563">
        <ele>486</ele>
        <time>2016-05-15T08:27:29.000Z</time>
      </trkpt>
      <trkpt lat="47.42757" lon="6.71558">
        <ele>486</ele>
        <time>2016-05-15T08:27:30.000Z</time>
      </trkpt>
      <trkpt lat="47.42754" lon="6.71551">
        <ele>485</ele>
        <time>2016-05-15T08:27:31.000Z</time>
      </trkpt>
      <trkpt lat="47.42751" lon="6.71544">
        <ele>485</ele>
        <time>2016-05-15T08:27:32.000Z</time>
      </trkpt>
      <trkpt lat="47.42749" lon="6.71535">
        <ele>487</ele>
        <time>2016-05-15T08:27:33.000Z</time>
      </trkpt>
      <trkpt lat="47.42746" lon="6.71526">
        <ele>486</ele>
        <time>2016-05-15T08:27:34.000Z</time>
      </trkpt>
      <trkpt lat="47.42743" lon="6.71518">
        <ele>486</ele>
        <time>2016-05-15T08:27:35.000Z</time>
      </trkpt>
      <trkpt lat="47.42739" lon="6.71511">
        <ele>485</ele>
        <time>2016-05-15T08:27:36.000Z</time>
      </trkpt>
      <trkpt lat="47.42736" lon="6.71503">
        <ele>485</ele>
        <time>2016-05-15T08:27:37.000Z</time>
      </trkpt>
      <trkpt lat="47.42733" lon="6.71496">
        <ele>483</ele>
        <time>2016-05-15T08:27:38.000Z</time>
      </trkpt>
      <trkpt lat="47.4273" lon="6.71487">
        <ele>483</ele>
        <time>2016-05-15T08:27:39.000Z</time>
      </trkpt>
      <trkpt lat="47.42727" lon="6.7148">
        <ele>483</ele>
        <time>2016-05-15T08:27:40.000Z</time>
      </trkpt>
      <trkpt lat="47.42723" lon="6.71473">
        <ele>483</ele>
        <time>2016-05-15T08:27:41.000Z</time>
      </trkpt>
      <trkpt lat="47.42721" lon="6.71465">
        <ele>483</ele>
        <time>2016-05-15T08:27:42.000Z</time>
      </trkpt>
      <trkpt lat="47.42718" lon="6.71458">
        <ele>483</ele>
        <time>2016-05-15T08:27:43.000Z</time>
      </trkpt>
      <trkpt lat="47.42715" lon="6.71451">
        <ele>483</ele>
        <time>2016-05-15T08:27:44.000Z</time>
      </trkpt>
      <trkpt lat="47.42712" lon="6.71443">
        <ele>482</ele>
        <time>2016-05-15T08:27:45.000Z</time>
      </trkpt>
      <trkpt lat="47.4271" lon="6.71436">
        <ele>482</ele>
        <time>2016-05-15T08:27:46.000Z</time>
      </trkpt>
      <trkpt lat="47.42707" lon="6.71428">
        <ele>482</ele>
        <time>2016-05-15T08:27:47.000Z</time>
      </trkpt>
      <trkpt lat="47.42704" lon="6.71421">
        <ele>482</ele>
        <time>2016-05-15T08:27:48.000Z</time>
      </trkpt>
      <trkpt lat="47.42702" lon="6.71413">
        <ele>479</ele>
        <time>2016-05-15T08:27:49.000Z</time>
      </trkpt>
      <trkpt lat="47.42699" lon="6.71407">
        <ele>479</ele>
        <time>2016-05-15T08:27:50.000Z</time>
      </trkpt>
      <trkpt lat="47.42697" lon="6.714">
        <ele>479</ele>
        <time>2016-05-15T08:27:50.998Z</time>
      </trkpt>
      <trkpt lat="47.42694" lon="6.71389">
        <ele>479</ele>
        <time>2016-05-15T08:27:52.000Z</time>
      </trkpt>
      <trkpt lat="47.42691" lon="6.7138">
        <ele>479</ele>
        <time>2016-05-15T08:27:53.000Z</time>
      </trkpt>
      <trkpt lat="47.42688" lon="6.71372">
        <ele>479</ele>
        <time>2016-05-15T08:27:54.000Z</time>
      </trkpt>
      <trkpt lat="47.42685" lon="6.71364">
        <ele>479</ele>
        <time>2016-05-15T08:27:55.000Z</time>
      </trkpt>
      <trkpt lat="47.42682" lon="6.71356">
        <ele>479</ele>
        <time>2016-05-15T08:27:56.000Z</time>
      </trkpt>
      <trkpt lat="47.42678" lon="6.71348">
        <ele>479</ele>
        <time>2016-05-15T08:27:57.000Z</time>
      </trkpt>
      <trkpt lat="47.42674" lon="6.7134">
        <ele>479</ele>
        <time>2016-05-15T08:27:58.000Z</time>
      </trkpt>
      <trkpt lat="47.42671" lon="6.71332">
        <ele>478</ele>
        <time>2016-05-15T08:27:59.000Z</time>
      </trkpt>
      <trkpt lat="47.42669" lon="6.71326">
        <ele>478</ele>
        <time>2016-05-15T08:28:00.000Z</time>
      </trkpt>
      <trkpt lat="47.42666" lon="6.71318">
        <ele>478</ele>
        <time>2016-05-15T08:28:01.000Z</time>
      </trkpt>
      <trkpt lat="47.42664" lon="6.71309">
        <ele>478</ele>
        <time>2016-05-15T08:28:02.000Z</time>
      </trkpt>
      <trkpt lat="47.42662" lon="6.71301">
        <ele>478</ele>
        <time>2016-05-15T08:28:03.000Z</time>
      </trkpt>
      <trkpt lat="47.42659" lon="6.71292">
        <ele>477</ele>
        <time>2016-05-15T08:28:04.000Z</time>
      </trkpt>
      <trkpt lat="47.42658" lon="6.71284">
        <ele>477</ele>
        <time>2016-05-15T08:28:05.000Z</time>
      </trkpt>
      <trkpt lat="47.42654" lon="6.71277">
        <ele>477</ele>
        <time>2016-05-15T08:28:06.000Z</time>
      </trkpt>
      <trkpt lat="47.4265" lon="6.71275">
        <ele>477</ele>
        <time>2016-05-15T08:28:07.000Z</time>
      </trkpt>
      <trkpt lat="47.42647" lon="6.71273">
        <ele>477</ele>
        <time>2016-05-15T08:28:07.998Z</time>
      </trkpt>
      <trkpt lat="47.42641" lon="6.71273">
        <ele>477</ele>
        <time>2016-05-15T08:28:09.000Z</time>
      </trkpt>
      <trkpt lat="47.42639" lon="6.71278">
        <ele>477</ele>
        <time>2016-05-15T08:28:10.000Z</time>
      </trkpt>
      <trkpt lat="47.42637" lon="6.71281">
        <ele>477</ele>
        <time>2016-05-15T08:28:11.000Z</time>
      </trkpt>
      <trkpt lat="47.42636" lon="6.71286">
        <ele>478</ele>
        <time>2016-05-15T08:28:12.000Z</time>
      </trkpt>
      <trkpt lat="47.42634" lon="6.7129">
        <ele>478</ele>
        <time>2016-05-15T08:28:13.000Z</time>
      </trkpt>
      <trkpt lat="47.42633" lon="6.71294">
        <ele>478</ele>
        <time>2016-05-15T08:28:14.000Z</time>
      </trkpt>
      <trkpt lat="47.42632" lon="6.71297">
        <ele>478</ele>
        <time>2016-05-15T08:28:15.000Z</time>
      </trkpt>
      <trkpt lat="47.42629" lon="6.71301">
        <ele>478</ele>
        <time>2016-05-15T08:28:16.000Z</time>
      </trkpt>
      <trkpt lat="47.42626" lon="6.71303">
        <ele>478</ele>
        <time>2016-05-15T08:28:17.000Z</time>
      </trkpt>
      <trkpt lat="47.42624" lon="6.71307">
        <ele>478</ele>
        <time>2016-05-15T08:28:18.000Z</time>
      </trkpt>
      <trkpt lat="47.42621" lon="6.7131">
        <ele>478</ele>
        <time>2016-05-15T08:28:19.000Z</time>
      </trkpt>
      <trkpt lat="47.42618" lon="6.71312">
        <ele>479</ele>
        <time>2016-05-15T08:28:20.000Z</time>
      </trkpt>
      <trkpt lat="47.42615" lon="6.71315">
        <ele>479</ele>
        <time>2016-05-15T08:28:21.000Z</time>
      </trkpt>
      <trkpt lat="47.42611" lon="6.71317">
        <ele>479</ele>
        <time>2016-05-15T08:28:22.000Z</time>
      </trkpt>
      <trkpt lat="47.42607" lon="6.71319">
        <ele>479</ele>
        <time>2016-05-15T08:28:23.000Z</time>
      </trkpt>
      <trkpt lat="47.42603" lon="6.7132">
        <ele>479</ele>
        <time>2016-05-15T08:28:24.000Z</time>
      </trkpt>
      <trkpt lat="47.42599" lon="6.71322">
        <ele>479</ele>
        <time>2016-05-15T08:28:25.000Z</time>
      </trkpt>
      <trkpt lat="47.42594" lon="6.71324">
        <ele>480</ele>
        <time>2016-05-15T08:28:26.000Z</time>
      </trkpt>
      <trkpt lat="47.42589" lon="6.71326">
        <ele>480</ele>
        <time>2016-05-15T08:28:27.000Z</time>
      </trkpt>
      <trkpt lat="47.42584" lon="6.71327">
        <ele>480</ele>
        <time>2016-05-15T08:28:28.000Z</time>
      </trkpt>
      <trkpt lat="47.42579" lon="6.71329">
        <ele>481</ele>
        <time>2016-05-15T08:28:29.000Z</time>
      </trkpt>
      <trkpt lat="47.42575" lon="6.71331">
        <ele>481</ele>
        <time>2016-05-15T08:28:30.000Z</time>
      </trkpt>
      <trkpt lat="47.42571" lon="6.71333">
        <ele>480</ele>
        <time>2016-05-15T08:28:31.000Z</time>
      </trkpt>
      <trkpt lat="47.42564" lon="6.71336">
        <ele>483</ele>
        <time>2016-05-15T08:28:32.000Z</time>
      </trkpt>
      <trkpt lat="47.4256" lon="6.71337">
        <ele>483</ele>
        <time>2016-05-15T08:28:33.000Z</time>
      </trkpt>
      <trkpt lat="47.42556" lon="6.71339">
        <ele>483</ele>
        <time>2016-05-15T08:28:34.000Z</time>
      </trkpt>
      <trkpt lat="47.42552" lon="6.71341">
        <ele>483</ele>
        <time>2016-05-15T08:28:35.000Z</time>
      </trkpt>
      <trkpt lat="47.42548" lon="6.71343">
        <ele>483</ele>
        <time>2016-05-15T08:28:36.000Z</time>
      </trkpt>
      <trkpt lat="47.42545" lon="6.71345">
        <ele>483</ele>
        <time>2016-05-15T08:28:37.000Z</time>
      </trkpt>
      <trkpt lat="47.42541" lon="6.71346">
        <ele>483</ele>
        <time>2016-05-15T08:28:38.000Z</time>
      </trkpt>
      <trkpt lat="47.42538" lon="6.71347">
        <ele>483</ele>
        <time>2016-05-15T08:28:39.000Z</time>
      </trkpt>
      <trkpt lat="47.42534" lon="6.71348">
        <ele>483</ele>
        <time>2016-05-15T08:28:40.000Z</time>
      </trkpt>
      <trkpt lat="47.42531" lon="6.71349">
        <ele>483</ele>
        <time>2016-05-15T08:28:41.000Z</time>
      </trkpt>
      <trkpt lat="47.42527" lon="6.71351">
        <ele>483</ele>
        <time>2016-05-15T08:28:42.000Z</time>
      </trkpt>
      <trkpt lat="47.42523" lon="6.71353">
        <ele>483</ele>
        <time>2016-05-15T08:28:43.000Z</time>
      </trkpt>
      <trkpt lat="47.4252" lon="6.71355">
        <ele>483</ele>
        <time>2016-05-15T08:28:44.000Z</time>
      </trkpt>
      <trkpt lat="47.42516" lon="6.71357">
        <ele>483</ele>
        <time>2016-05-15T08:28:45.000Z</time>
      </trkpt>
      <trkpt lat="47.42513" lon="6.71359">
        <ele>483</ele>
        <time>2016-05-15T08:28:46.000Z</time>
      </trkpt>
      <trkpt lat="47.4251" lon="6.7136">
        <ele>484</ele>
        <time>2016-05-15T08:28:47.000Z</time>
      </trkpt>
      <trkpt lat="47.42507" lon="6.71361">
        <ele>484</ele>
        <time>2016-05-15T08:28:48.000Z</time>
      </trkpt>
      <trkpt lat="47.42505" lon="6.71362">
        <ele>484</ele>
        <time>2016-05-15T08:28:49.000Z</time>
      </trkpt>
      <trkpt lat="47.42502" lon="6.71363">
        <ele>484</ele>
        <time>2016-05-15T08:28:50.000Z</time>
      </trkpt>
      <trkpt lat="47.42499" lon="6.71365">
        <ele>483</ele>
        <time>2016-05-15T08:28:52.000Z</time>
      </trkpt>
      <trkpt lat="47.42497" lon="6.71366">
        <ele>483</ele>
        <time>2016-05-15T08:28:53.000Z</time>
      </trkpt>
      <trkpt lat="47.42493" lon="6.71363">
        <ele>482</ele>
        <time>2016-05-15T08:30:15.000Z</time>
      </trkpt>
      <trkpt lat="47.42493" lon="6.71363">
        <ele>482</ele>
        <time>2016-05-15T08:30:16.000Z</time>
      </trkpt>
      <trkpt lat="47.42491" lon="6.7136">
        <ele>482</ele>
        <time>2016-05-15T08:30:23.000Z</time>
      </trkpt>
      <trkpt lat="47.4249" lon="6.71358">
        <ele>482</ele>
        <time>2016-05-15T08:30:24.000Z</time>
      </trkpt>
      <trkpt lat="47.42488" lon="6.71354">
        <ele>482</ele>
        <time>2016-05-15T08:30:25.000Z</time>
      </trkpt>
      <trkpt lat="47.42489" lon="6.7134">
        <ele>482</ele>
        <time>2016-05-15T08:30:26.000Z</time>
      </trkpt>
      <trkpt lat="47.42489" lon="6.71332">
        <ele>480</ele>
        <time>2016-05-15T08:30:27.000Z</time>
      </trkpt>
      <trkpt lat="47.4249" lon="6.71325">
        <ele>480</ele>
        <time>2016-05-15T08:30:28.000Z</time>
      </trkpt>
      <trkpt lat="47.4249" lon="6.71314">
        <ele>479</ele>
        <time>2016-05-15T08:30:29.000Z</time>
      </trkpt>
      <trkpt lat="47.42491" lon="6.71305">
        <ele>478</ele>
        <time>2016-05-15T08:30:30.000Z</time>
      </trkpt>
      <trkpt lat="47.42492" lon="6.71295">
        <ele>478</ele>
        <time>2016-05-15T08:30:31.000Z</time>
      </trkpt>
      <trkpt lat="47.42491" lon="6.71284">
        <ele>477</ele>
        <time>2016-05-15T08:30:32.000Z</time>
      </trkpt>
      <trkpt lat="47.42491" lon="6.71273">
        <ele>477</ele>
        <time>2016-05-15T08:30:33.000Z</time>
      </trkpt>
      <trkpt lat="47.42492" lon="6.71262">
        <ele>477</ele>
        <time>2016-05-15T08:30:34.000Z</time>
      </trkpt>
      <trkpt lat="47.42493" lon="6.71251">
        <ele>477</ele>
        <time>2016-05-15T08:30:35.000Z</time>
      </trkpt>
      <trkpt lat="47.42491" lon="6.7124">
        <ele>474</ele>
        <time>2016-05-15T08:30:36.000Z</time>
      </trkpt>
      <trkpt lat="47.42491" lon="6.7123">
        <ele>472</ele>
        <time>2016-05-15T08:30:37.000Z</time>
      </trkpt>
      <trkpt lat="47.42492" lon="6.71219">
        <ele>471</ele>
        <time>2016-05-15T08:30:38.000Z</time>
      </trkpt>
      <trkpt lat="47.42492" lon="6.71206">
        <ele>470</ele>
        <time>2016-05-15T08:30:39.000Z</time>
      </trkpt>
      <trkpt lat="47.42492" lon="6.71195">
        <ele>470</ele>
        <time>2016-05-15T08:30:40.000Z</time>
      </trkpt>
      <trkpt lat="47.42493" lon="6.71182">
        <ele>469</ele>
        <time>2016-05-15T08:30:41.000Z</time>
      </trkpt>
      <trkpt lat="47.42491" lon="6.7117">
        <ele>469</ele>
        <time>2016-05-15T08:30:42.000Z</time>
      </trkpt>
      <trkpt lat="47.42488" lon="6.71159">
        <ele>465</ele>
        <time>2016-05-15T08:30:43.000Z</time>
      </trkpt>
      <trkpt lat="47.42486" lon="6.71146">
        <ele>464</ele>
        <time>2016-05-15T08:30:44.000Z</time>
      </trkpt>
      <trkpt lat="47.42484" lon="6.71137">
        <ele>462</ele>
        <time>2016-05-15T08:30:45.000Z</time>
      </trkpt>
      <trkpt lat="47.42482" lon="6.71127">
        <ele>462</ele>
        <time>2016-05-15T08:30:46.000Z</time>
      </trkpt>
      <trkpt lat="47.42479" lon="6.71116">
        <ele>461</ele>
        <time>2016-05-15T08:30:47.000Z</time>
      </trkpt>
      <trkpt lat="47.42478" lon="6.71106">
        <ele>461</ele>
        <time>2016-05-15T08:30:48.000Z</time>
      </trkpt>
      <trkpt lat="47.42476" lon="6.71096">
        <ele>460</ele>
        <time>2016-05-15T08:30:49.000Z</time>
      </trkpt>
      <trkpt lat="47.42474" lon="6.71085">
        <ele>460</ele>
        <time>2016-05-15T08:30:50.000Z</time>
      </trkpt>
      <trkpt lat="47.4247" lon="6.71074">
        <ele>456</ele>
        <time>2016-05-15T08:30:51.000Z</time>
      </trkpt>
      <trkpt lat="47.42465" lon="6.71064">
        <ele>455</ele>
        <time>2016-05-15T08:30:52.000Z</time>
      </trkpt>
      <trkpt lat="47.42464" lon="6.71048">
        <ele>455</ele>
        <time>2016-05-15T08:30:53.000Z</time>
      </trkpt>
      <trkpt lat="47.42459" lon="6.71035">
        <ele>454</ele>
        <time>2016-05-15T08:30:54.000Z</time>
      </trkpt>
      <trkpt lat="47.42454" lon="6.71021">
        <ele>453</ele>
        <time>2016-05-15T08:30:55.000Z</time>
      </trkpt>
      <trkpt lat="47.42445" lon="6.7101">
        <ele>452</ele>
        <time>2016-05-15T08:30:56.000Z</time>
      </trkpt>
      <trkpt lat="47.42439" lon="6.71002">
        <ele>451</ele>
        <time>2016-05-15T08:30:57.000Z</time>
      </trkpt>
      <trkpt lat="47.42434" lon="6.70992">
        <ele>450</ele>
        <time>2016-05-15T08:30:58.000Z</time>
      </trkpt>
      <trkpt lat="47.42427" lon="6.70981">
        <ele>450</ele>
        <time>2016-05-15T08:30:59.000Z</time>
      </trkpt>
      <trkpt lat="47.42423" lon="6.70972">
        <ele>450</ele>
        <time>2016-05-15T08:31:00.000Z</time>
      </trkpt>
      <trkpt lat="47.42419" lon="6.70962">
        <ele>451</ele>
        <time>2016-05-15T08:31:01.000Z</time>
      </trkpt>
      <trkpt lat="47.42415" lon="6.7095">
        <ele>439</ele>
        <time>2016-05-15T08:31:02.000Z</time>
      </trkpt>
      <trkpt lat="47.42412" lon="6.70941">
        <ele>440</ele>
        <time>2016-05-15T08:31:03.000Z</time>
      </trkpt>
      <trkpt lat="47.42405" lon="6.70931">
        <ele>441</ele>
        <time>2016-05-15T08:31:04.000Z</time>
      </trkpt>
      <trkpt lat="47.424" lon="6.70918">
        <ele>441</ele>
        <time>2016-05-15T08:31:05.000Z</time>
      </trkpt>
      <trkpt lat="47.42397" lon="6.70909">
        <ele>440</ele>
        <time>2016-05-15T08:31:06.000Z</time>
      </trkpt>
      <trkpt lat="47.42393" lon="6.70895">
        <ele>438</ele>
        <time>2016-05-15T08:31:07.000Z</time>
      </trkpt>
      <trkpt lat="47.42388" lon="6.70884">
        <ele>437</ele>
        <time>2016-05-15T08:31:08.000Z</time>
      </trkpt>
      <trkpt lat="47.4238" lon="6.70872">
        <ele>436</ele>
        <time>2016-05-15T08:31:09.000Z</time>
      </trkpt>
      <trkpt lat="47.42376" lon="6.70859">
        <ele>436</ele>
        <time>2016-05-15T08:31:10.000Z</time>
      </trkpt>
      <trkpt lat="47.42372" lon="6.70848">
        <ele>435</ele>
        <time>2016-05-15T08:31:11.000Z</time>
      </trkpt>
      <trkpt lat="47.42366" lon="6.70836">
        <ele>434</ele>
        <time>2016-05-15T08:31:12.000Z</time>
      </trkpt>
      <trkpt lat="47.42361" lon="6.70825">
        <ele>434</ele>
        <time>2016-05-15T08:31:13.000Z</time>
      </trkpt>
      <trkpt lat="47.42357" lon="6.70814">
        <ele>434</ele>
        <time>2016-05-15T08:31:14.000Z</time>
      </trkpt>
      <trkpt lat="47.42352" lon="6.70801">
        <ele>435</ele>
        <time>2016-05-15T08:31:15.000Z</time>
      </trkpt>
      <trkpt lat="47.42347" lon="6.7079">
        <ele>435</ele>
        <time>2016-05-15T08:31:16.000Z</time>
      </trkpt>
      <trkpt lat="47.42341" lon="6.70779">
        <ele>435</ele>
        <time>2016-05-15T08:31:17.000Z</time>
      </trkpt>
      <trkpt lat="47.42332" lon="6.70766">
        <ele>424</ele>
        <time>2016-05-15T08:31:18.000Z</time>
      </trkpt>
      <trkpt lat="47.42324" lon="6.70753">
        <ele>426</ele>
        <time>2016-05-15T08:31:19.000Z</time>
      </trkpt>
      <trkpt lat="47.42318" lon="6.70743">
        <ele>426</ele>
        <time>2016-05-15T08:31:20.000Z</time>
      </trkpt>
      <trkpt lat="47.42312" lon="6.70732">
        <ele>425</ele>
        <time>2016-05-15T08:31:21.000Z</time>
      </trkpt>
      <trkpt lat="47.42306" lon="6.70721">
        <ele>424</ele>
        <time>2016-05-15T08:31:22.000Z</time>
      </trkpt>
      <trkpt lat="47.423" lon="6.7071">
        <ele>423</ele>
        <time>2016-05-15T08:31:23.000Z</time>
      </trkpt>
      <trkpt lat="47.42294" lon="6.70699">
        <ele>422</ele>
        <time>2016-05-15T08:31:24.000Z</time>
      </trkpt>
      <trkpt lat="47.42288" lon="6.70687">
        <ele>422</ele>
        <time>2016-05-15T08:31:25.000Z</time>
      </trkpt>
      <trkpt lat="47.42282" lon="6.70675">
        <ele>420</ele>
        <time>2016-05-15T08:31:26.000Z</time>
      </trkpt>
      <trkpt lat="47.42275" lon="6.70663">
        <ele>421</ele>
        <time>2016-05-15T08:31:27.000Z</time>
      </trkpt>
      <trkpt lat="47.42269" lon="6.7065">
        <ele>421</ele>
        <time>2016-05-15T08:31:28.000Z</time>
      </trkpt>
      <trkpt lat="47.42263" lon="6.70638">
        <ele>421</ele>
        <time>2016-05-15T08:31:29.000Z</time>
      </trkpt>
      <trkpt lat="47.42256" lon="6.70627">
        <ele>422</ele>
        <time>2016-05-15T08:31:30.000Z</time>
      </trkpt>
      <trkpt lat="47.42254" lon="6.70615">
        <ele>422</ele>
        <time>2016-05-15T08:31:31.000Z</time>
      </trkpt>
      <trkpt lat="47.42253" lon="6.70602">
        <ele>421</ele>
        <time>2016-05-15T08:31:32.000Z</time>
      </trkpt>
      <trkpt lat="47.42251" lon="6.70589">
        <ele>418</ele>
        <time>2016-05-15T08:31:33.000Z</time>
      </trkpt>
      <trkpt lat="47.42248" lon="6.70575">
        <ele>413</ele>
        <time>2016-05-15T08:31:34.000Z</time>
      </trkpt>
      <trkpt lat="47.42246" lon="6.70562">
        <ele>410</ele>
        <time>2016-05-15T08:31:35.000Z</time>
      </trkpt>
      <trkpt lat="47.42244" lon="6.70548">
        <ele>408</ele>
        <time>2016-05-15T08:31:36.000Z</time>
      </trkpt>
      <trkpt lat="47.42243" lon="6.70537">
        <ele>408</ele>
        <time>2016-05-15T08:31:37.000Z</time>
      </trkpt>
      <trkpt lat="47.42242" lon="6.70524">
        <ele>409</ele>
        <time>2016-05-15T08:31:38.000Z</time>
      </trkpt>
      <trkpt lat="47.42242" lon="6.70514">
        <ele>411</ele>
        <time>2016-05-15T08:31:39.000Z</time>
      </trkpt>
      <trkpt lat="47.42242" lon="6.70502">
        <ele>413</ele>
        <time>2016-05-15T08:31:40.000Z</time>
      </trkpt>
      <trkpt lat="47.42241" lon="6.7049">
        <ele>411</ele>
        <time>2016-05-15T08:31:41.000Z</time>
      </trkpt>
      <trkpt lat="47.42237" lon="6.70479">
        <ele>409</ele>
        <time>2016-05-15T08:31:42.000Z</time>
      </trkpt>
      <trkpt lat="47.42233" lon="6.70468">
        <ele>407</ele>
        <time>2016-05-15T08:31:43.000Z</time>
      </trkpt>
      <trkpt lat="47.42232" lon="6.70458">
        <ele>407</ele>
        <time>2016-05-15T08:31:44.000Z</time>
      </trkpt>
      <trkpt lat="47.42232" lon="6.70449">
        <ele>407</ele>
        <time>2016-05-15T08:31:45.000Z</time>
      </trkpt>
      <trkpt lat="47.4223" lon="6.70438">
        <ele>407</ele>
        <time>2016-05-15T08:31:46.000Z</time>
      </trkpt>
      <trkpt lat="47.42229" lon="6.70427">
        <ele>407</ele>
        <time>2016-05-15T08:31:47.000Z</time>
      </trkpt>
      <trkpt lat="47.42228" lon="6.70418">
        <ele>408</ele>
        <time>2016-05-15T08:31:48.000Z</time>
      </trkpt>
      <trkpt lat="47.42228" lon="6.70406">
        <ele>405</ele>
        <time>2016-05-15T08:31:49.000Z</time>
      </trkpt>
      <trkpt lat="47.42222" lon="6.70394">
        <ele>403</ele>
        <time>2016-05-15T08:31:50.000Z</time>
      </trkpt>
      <trkpt lat="47.42223" lon="6.70384">
        <ele>402</ele>
        <time>2016-05-15T08:31:51.000Z</time>
      </trkpt>
      <trkpt lat="47.42222" lon="6.70372">
        <ele>402</ele>
        <time>2016-05-15T08:31:52.000Z</time>
      </trkpt>
      <trkpt lat="47.42223" lon="6.7036">
        <ele>402</ele>
        <time>2016-05-15T08:31:53.000Z</time>
      </trkpt>
      <trkpt lat="47.42223" lon="6.70348">
        <ele>402</ele>
        <time>2016-05-15T08:31:54.000Z</time>
      </trkpt>
      <trkpt lat="47.42223" lon="6.70336">
        <ele>402</ele>
        <time>2016-05-15T08:31:55.000Z</time>
      </trkpt>
      <trkpt lat="47.42223" lon="6.70324">
        <ele>400</ele>
        <time>2016-05-15T08:31:56.000Z</time>
      </trkpt>
      <trkpt lat="47.42224" lon="6.70313">
        <ele>399</ele>
        <time>2016-05-15T08:31:57.000Z</time>
      </trkpt>
      <trkpt lat="47.42225" lon="6.70301">
        <ele>399</ele>
        <time>2016-05-15T08:31:58.000Z</time>
      </trkpt>
      <trkpt lat="47.42227" lon="6.70292">
        <ele>399</ele>
        <time>2016-05-15T08:31:59.000Z</time>
      </trkpt>
      <trkpt lat="47.42228" lon="6.7028">
        <ele>399</ele>
        <time>2016-05-15T08:32:00.000Z</time>
      </trkpt>
      <trkpt lat="47.42229" lon="6.70267">
        <ele>399</ele>
        <time>2016-05-15T08:32:01.000Z</time>
      </trkpt>
      <trkpt lat="47.42229" lon="6.70253">
        <ele>400</ele>
        <time>2016-05-15T08:32:02.000Z</time>
      </trkpt>
      <trkpt lat="47.4223" lon="6.7024">
        <ele>397</ele>
        <time>2016-05-15T08:32:03.000Z</time>
      </trkpt>
      <trkpt lat="47.4223" lon="6.70226">
        <ele>395</ele>
        <time>2016-05-15T08:32:04.000Z</time>
      </trkpt>
      <trkpt lat="47.42231" lon="6.70212">
        <ele>394</ele>
        <time>2016-05-15T08:32:05.000Z</time>
      </trkpt>
      <trkpt lat="47.42232" lon="6.70199">
        <ele>393</ele>
        <time>2016-05-15T08:32:06.000Z</time>
      </trkpt>
      <trkpt lat="47.42234" lon="6.70187">
        <ele>393</ele>
        <time>2016-05-15T08:32:07.000Z</time>
      </trkpt>
      <trkpt lat="47.42236" lon="6.70173">
        <ele>394</ele>
        <time>2016-05-15T08:32:08.000Z</time>
      </trkpt>
      <trkpt lat="47.42236" lon="6.70159">
        <ele>390</ele>
        <time>2016-05-15T08:32:09.000Z</time>
      </trkpt>
      <trkpt lat="47.42238" lon="6.70145">
        <ele>388</ele>
        <time>2016-05-15T08:32:10.000Z</time>
      </trkpt>
      <trkpt lat="47.4224" lon="6.70132">
        <ele>386</ele>
        <time>2016-05-15T08:32:11.000Z</time>
      </trkpt>
      <trkpt lat="47.42241" lon="6.70118">
        <ele>384</ele>
        <time>2016-05-15T08:32:12.000Z</time>
      </trkpt>
      <trkpt lat="47.42242" lon="6.70106">
        <ele>383</ele>
        <time>2016-05-15T08:32:13.000Z</time>
      </trkpt>
      <trkpt lat="47.42246" lon="6.70093">
        <ele>382</ele>
        <time>2016-05-15T08:32:14.000Z</time>
      </trkpt>
      <trkpt lat="47.42249" lon="6.70079">
        <ele>380</ele>
        <time>2016-05-15T08:32:15.000Z</time>
      </trkpt>
      <trkpt lat="47.42252" lon="6.70066">
        <ele>381</ele>
        <time>2016-05-15T08:32:16.000Z</time>
      </trkpt>
      <trkpt lat="47.42256" lon="6.70057">
        <ele>380</ele>
        <time>2016-05-15T08:32:17.000Z</time>
      </trkpt>
      <trkpt lat="47.42258" lon="6.70049">
        <ele>379</ele>
        <time>2016-05-15T08:32:18.000Z</time>
      </trkpt>
      <trkpt lat="47.42261" lon="6.70044">
        <ele>379</ele>
        <time>2016-05-15T08:32:19.000Z</time>
      </trkpt>
      <trkpt lat="47.42263" lon="6.70037">
        <ele>378</ele>
        <time>2016-05-15T08:32:20.000Z</time>
      </trkpt>
      <trkpt lat="47.42263" lon="6.70029">
        <ele>378</ele>
        <time>2016-05-15T08:32:21.000Z</time>
      </trkpt>
      <trkpt lat="47.42261" lon="6.70019">
        <ele>376</ele>
        <time>2016-05-15T08:32:22.000Z</time>
      </trkpt>
      <trkpt lat="47.42261" lon="6.70008">
        <ele>375</ele>
        <time>2016-05-15T08:32:23.000Z</time>
      </trkpt>
      <trkpt lat="47.4226" lon="6.69997">
        <ele>372</ele>
        <time>2016-05-15T08:32:24.000Z</time>
      </trkpt>
      <trkpt lat="47.42258" lon="6.69986">
        <ele>372</ele>
        <time>2016-05-15T08:32:25.000Z</time>
      </trkpt>
      <trkpt lat="47.42257" lon="6.69976">
        <ele>372</ele>
        <time>2016-05-15T08:32:26.000Z</time>
      </trkpt>
      <trkpt lat="47.42257" lon="6.69963">
        <ele>371</ele>
        <time>2016-05-15T08:32:27.000Z</time>
      </trkpt>
      <trkpt lat="47.42257" lon="6.6995">
        <ele>371</ele>
        <time>2016-05-15T08:32:28.000Z</time>
      </trkpt>
      <trkpt lat="47.42256" lon="6.69937">
        <ele>370</ele>
        <time>2016-05-15T08:32:29.000Z</time>
      </trkpt>
      <trkpt lat="47.42256" lon="6.69925">
        <ele>369</ele>
        <time>2016-05-15T08:32:30.000Z</time>
      </trkpt>
      <trkpt lat="47.42256" lon="6.6991">
        <ele>369</ele>
        <time>2016-05-15T08:32:31.000Z</time>
      </trkpt>
      <trkpt lat="47.42255" lon="6.69896">
        <ele>369</ele>
        <time>2016-05-15T08:32:32.000Z</time>
      </trkpt>
      <trkpt lat="47.42253" lon="6.69882">
        <ele>369</ele>
        <time>2016-05-15T08:32:33.000Z</time>
      </trkpt>
      <trkpt lat="47.42251" lon="6.69871">
        <ele>369</ele>
        <time>2016-05-15T08:32:34.000Z</time>
      </trkpt>
      <trkpt lat="47.42249" lon="6.69858">
        <ele>365</ele>
        <time>2016-05-15T08:32:35.000Z</time>
      </trkpt>
      <trkpt lat="47.42246" lon="6.69849">
        <ele>365</ele>
        <time>2016-05-15T08:32:36.000Z</time>
      </trkpt>
      <trkpt lat="47.42244" lon="6.69842">
        <ele>366</ele>
        <time>2016-05-15T08:32:37.000Z</time>
      </trkpt>
      <trkpt lat="47.42242" lon="6.69835">
        <ele>366</ele>
        <time>2016-05-15T08:32:38.000Z</time>
      </trkpt>
      <trkpt lat="47.4224" lon="6.69832">
        <ele>364</ele>
        <time>2016-05-15T08:32:39.000Z</time>
      </trkpt>
      <trkpt lat="47.42237" lon="6.69829">
        <ele>364</ele>
        <time>2016-05-15T08:32:40.000Z</time>
      </trkpt>
      <trkpt lat="47.42233" lon="6.69827">
        <ele>364</ele>
        <time>2016-05-15T08:32:41.000Z</time>
      </trkpt>
      <trkpt lat="47.42229" lon="6.69828">
        <ele>363</ele>
        <time>2016-05-15T08:32:42.000Z</time>
      </trkpt>
      <trkpt lat="47.42222" lon="6.6983">
        <ele>363</ele>
        <time>2016-05-15T08:32:43.000Z</time>
      </trkpt>
      <trkpt lat="47.42217" lon="6.69831">
        <ele>363</ele>
        <time>2016-05-15T08:32:44.000Z</time>
      </trkpt>
      <trkpt lat="47.42212" lon="6.69833">
        <ele>364</ele>
        <time>2016-05-15T08:32:45.000Z</time>
      </trkpt>
      <trkpt lat="47.42207" lon="6.69837">
        <ele>364</ele>
        <time>2016-05-15T08:32:46.000Z</time>
      </trkpt>
      <trkpt lat="47.422" lon="6.69839">
        <ele>364</ele>
        <time>2016-05-15T08:32:47.000Z</time>
      </trkpt>
      <trkpt lat="47.42194" lon="6.69841">
        <ele>364</ele>
        <time>2016-05-15T08:32:48.000Z</time>
      </trkpt>
      <trkpt lat="47.42187" lon="6.69846">
        <ele>363</ele>
        <time>2016-05-15T08:32:49.000Z</time>
      </trkpt>
      <trkpt lat="47.42179" lon="6.69851">
        <ele>363</ele>
        <time>2016-05-15T08:32:50.000Z</time>
      </trkpt>
      <trkpt lat="47.42172" lon="6.69857">
        <ele>363</ele>
        <time>2016-05-15T08:32:51.000Z</time>
      </trkpt>
      <trkpt lat="47.42166" lon="6.69863">
        <ele>363</ele>
        <time>2016-05-15T08:32:52.000Z</time>
      </trkpt>
      <trkpt lat="47.42159" lon="6.69866">
        <ele>363</ele>
        <time>2016-05-15T08:32:53.000Z</time>
      </trkpt>
      <trkpt lat="47.42153" lon="6.69871">
        <ele>363</ele>
        <time>2016-05-15T08:32:54.000Z</time>
      </trkpt>
      <trkpt lat="47.42148" lon="6.69876">
        <ele>364</ele>
        <time>2016-05-15T08:32:55.000Z</time>
      </trkpt>
      <trkpt lat="47.42141" lon="6.69879">
        <ele>364</ele>
        <time>2016-05-15T08:32:56.000Z</time>
      </trkpt>
      <trkpt lat="47.42135" lon="6.69883">
        <ele>364</ele>
        <time>2016-05-15T08:32:57.000Z</time>
      </trkpt>
      <trkpt lat="47.4213" lon="6.69885">
        <ele>364</ele>
        <time>2016-05-15T08:32:58.000Z</time>
      </trkpt>
      <trkpt lat="47.42126" lon="6.69887">
        <ele>364</ele>
        <time>2016-05-15T08:32:59.000Z</time>
      </trkpt>
      <trkpt lat="47.42122" lon="6.6989">
        <ele>365</ele>
        <time>2016-05-15T08:33:00.000Z</time>
      </trkpt>
      <trkpt lat="47.42117" lon="6.69893">
        <ele>365</ele>
        <time>2016-05-15T08:33:01.000Z</time>
      </trkpt>
      <trkpt lat="47.42113" lon="6.69897">
        <ele>365</ele>
        <time>2016-05-15T08:33:02.000Z</time>
      </trkpt>
      <trkpt lat="47.42109" lon="6.69899">
        <ele>366</ele>
        <time>2016-05-15T08:33:03.000Z</time>
      </trkpt>
      <trkpt lat="47.42105" lon="6.69901">
        <ele>366</ele>
        <time>2016-05-15T08:33:04.000Z</time>
      </trkpt>
      <trkpt lat="47.42101" lon="6.69903">
        <ele>366</ele>
        <time>2016-05-15T08:33:05.000Z</time>
      </trkpt>
      <trkpt lat="47.42097" lon="6.69905">
        <ele>367</ele>
        <time>2016-05-15T08:33:06.000Z</time>
      </trkpt>
      <trkpt lat="47.42094" lon="6.69907">
        <ele>367</ele>
        <time>2016-05-15T08:33:07.000Z</time>
      </trkpt>
      <trkpt lat="47.4209" lon="6.69909">
        <ele>368</ele>
        <time>2016-05-15T08:33:08.000Z</time>
      </trkpt>
      <trkpt lat="47.42086" lon="6.69909">
        <ele>368</ele>
        <time>2016-05-15T08:33:09.000Z</time>
      </trkpt>
      <trkpt lat="47.42083" lon="6.6991">
        <ele>369</ele>
        <time>2016-05-15T08:33:10.000Z</time>
      </trkpt>
      <trkpt lat="47.4208" lon="6.69912">
        <ele>369</ele>
        <time>2016-05-15T08:33:11.000Z</time>
      </trkpt>
      <trkpt lat="47.42076" lon="6.69913">
        <ele>369</ele>
        <time>2016-05-15T08:33:12.000Z</time>
      </trkpt>
      <trkpt lat="47.42073" lon="6.69914">
        <ele>368</ele>
        <time>2016-05-15T08:33:13.000Z</time>
      </trkpt>
      <trkpt lat="47.42069" lon="6.69915">
        <ele>368</ele>
        <time>2016-05-15T08:33:14.000Z</time>
      </trkpt>
      <trkpt lat="47.42066" lon="6.69915">
        <ele>368</ele>
        <time>2016-05-15T08:33:15.000Z</time>
      </trkpt>
      <trkpt lat="47.42064" lon="6.69915">
        <ele>368</ele>
        <time>2016-05-15T08:33:16.000Z</time>
      </trkpt>
      <trkpt lat="47.42061" lon="6.69915">
        <ele>367</ele>
        <time>2016-05-15T08:33:17.000Z</time>
      </trkpt>
      <trkpt lat="47.42058" lon="6.69916">
        <ele>367</ele>
        <time>2016-05-15T08:33:18.000Z</time>
      </trkpt>
      <trkpt lat="47.42054" lon="6.69916">
        <ele>367</ele>
        <time>2016-05-15T08:33:19.000Z</time>
      </trkpt>
      <trkpt lat="47.4205" lon="6.69916">
        <ele>367</ele>
        <time>2016-05-15T08:33:20.000Z</time>
      </trkpt>
      <trkpt lat="47.42047" lon="6.69916">
        <ele>367</ele>
        <time>2016-05-15T08:33:21.000Z</time>
      </trkpt>
      <trkpt lat="47.42043" lon="6.69917">
        <ele>376</ele>
        <time>2016-05-15T08:33:22.000Z</time>
      </trkpt>
      <trkpt lat="47.42039" lon="6.69918">
        <ele>376</ele>
        <time>2016-05-15T08:33:23.000Z</time>
      </trkpt>
      <trkpt lat="47.42035" lon="6.69919">
        <ele>376</ele>
        <time>2016-05-15T08:33:24.000Z</time>
      </trkpt>
      <trkpt lat="47.4203" lon="6.6992">
        <ele>376</ele>
        <time>2016-05-15T08:33:25.000Z</time>
      </trkpt>
      <trkpt lat="47.42024" lon="6.69921">
        <ele>375</ele>
        <time>2016-05-15T08:33:26.000Z</time>
      </trkpt>
      <trkpt lat="47.42019" lon="6.69922">
        <ele>375</ele>
        <time>2016-05-15T08:33:27.000Z</time>
      </trkpt>
      <trkpt lat="47.42015" lon="6.69923">
        <ele>375</ele>
        <time>2016-05-15T08:33:28.000Z</time>
      </trkpt>
      <trkpt lat="47.42009" lon="6.69927">
        <ele>374</ele>
        <time>2016-05-15T08:33:29.000Z</time>
      </trkpt>
      <trkpt lat="47.42004" lon="6.69926">
        <ele>374</ele>
        <time>2016-05-15T08:33:30.000Z</time>
      </trkpt>
      <trkpt lat="47.41999" lon="6.69928">
        <ele>373</ele>
        <time>2016-05-15T08:33:31.000Z</time>
      </trkpt>
      <trkpt lat="47.41994" lon="6.69928">
        <ele>374</ele>
        <time>2016-05-15T08:33:32.000Z</time>
      </trkpt>
      <trkpt lat="47.41988" lon="6.69929">
        <ele>374</ele>
        <time>2016-05-15T08:33:33.000Z</time>
      </trkpt>
      <trkpt lat="47.41983" lon="6.6993">
        <ele>374</ele>
        <time>2016-05-15T08:33:34.000Z</time>
      </trkpt>
      <trkpt lat="47.41977" lon="6.69931">
        <ele>375</ele>
        <time>2016-05-15T08:33:35.000Z</time>
      </trkpt>
      <trkpt lat="47.41972" lon="6.69932">
        <ele>375</ele>
        <time>2016-05-15T08:33:36.000Z</time>
      </trkpt>
      <trkpt lat="47.41967" lon="6.69933">
        <ele>375</ele>
        <time>2016-05-15T08:33:37.000Z</time>
      </trkpt>
      <trkpt lat="47.41962" lon="6.69934">
        <ele>375</ele>
        <time>2016-05-15T08:33:38.000Z</time>
      </trkpt>
      <trkpt lat="47.41957" lon="6.69935">
        <ele>375</ele>
        <time>2016-05-15T08:33:39.000Z</time>
      </trkpt>
      <trkpt lat="47.41951" lon="6.69936">
        <ele>374</ele>
        <time>2016-05-15T08:33:40.000Z</time>
      </trkpt>
      <trkpt lat="47.41946" lon="6.69937">
        <ele>374</ele>
        <time>2016-05-15T08:33:41.000Z</time>
      </trkpt>
      <trkpt lat="47.4194" lon="6.69939">
        <ele>374</ele>
        <time>2016-05-15T08:33:42.000Z</time>
      </trkpt>
      <trkpt lat="47.41935" lon="6.6994">
        <ele>373</ele>
        <time>2016-05-15T08:33:43.000Z</time>
      </trkpt>
      <trkpt lat="47.4193" lon="6.69941">
        <ele>373</ele>
        <time>2016-05-15T08:33:44.000Z</time>
      </trkpt>
      <trkpt lat="47.41924" lon="6.69943">
        <ele>373</ele>
        <time>2016-05-15T08:33:45.000Z</time>
      </trkpt>
      <trkpt lat="47.41919" lon="6.69945">
        <ele>373</ele>
        <time>2016-05-15T08:33:46.000Z</time>
      </trkpt>
      <trkpt lat="47.41912" lon="6.69946">
        <ele>369</ele>
        <time>2016-05-15T08:33:47.000Z</time>
      </trkpt>
      <trkpt lat="47.41906" lon="6.69948">
        <ele>369</ele>
        <time>2016-05-15T08:33:48.000Z</time>
      </trkpt>
      <trkpt lat="47.41902" lon="6.69951">
        <ele>370</ele>
        <time>2016-05-15T08:33:49.000Z</time>
      </trkpt>
      <trkpt lat="47.41895" lon="6.69954">
        <ele>370</ele>
        <time>2016-05-15T08:33:50.000Z</time>
      </trkpt>
      <trkpt lat="47.41888" lon="6.69955">
        <ele>370</ele>
        <time>2016-05-15T08:33:51.000Z</time>
      </trkpt>
      <trkpt lat="47.41882" lon="6.69957">
        <ele>370</ele>
        <time>2016-05-15T08:33:52.000Z</time>
      </trkpt>
      <trkpt lat="47.41877" lon="6.69962">
        <ele>370</ele>
        <time>2016-05-15T08:33:53.000Z</time>
      </trkpt>
      <trkpt lat="47.41871" lon="6.69966">
        <ele>370</ele>
        <time>2016-05-15T08:33:54.000Z</time>
      </trkpt>
      <trkpt lat="47.41866" lon="6.69969">
        <ele>370</ele>
        <time>2016-05-15T08:33:55.000Z</time>
      </trkpt>
      <trkpt lat="47.4186" lon="6.69973">
        <ele>370</ele>
        <time>2016-05-15T08:33:56.000Z</time>
      </trkpt>
      <trkpt lat="47.41854" lon="6.69977">
        <ele>370</ele>
        <time>2016-05-15T08:33:57.000Z</time>
      </trkpt>
      <trkpt lat="47.41848" lon="6.6998">
        <ele>370</ele>
        <time>2016-05-15T08:33:58.000Z</time>
      </trkpt>
      <trkpt lat="47.41842" lon="6.69981">
        <ele>370</ele>
        <time>2016-05-15T08:33:59.000Z</time>
      </trkpt>
      <trkpt lat="47.41837" lon="6.69983">
        <ele>370</ele>
        <time>2016-05-15T08:34:00.000Z</time>
      </trkpt>
      <trkpt lat="47.41831" lon="6.69984">
        <ele>369</ele>
        <time>2016-05-15T08:34:01.000Z</time>
      </trkpt>
      <trkpt lat="47.41826" lon="6.69983">
        <ele>368</ele>
        <time>2016-05-15T08:34:02.000Z</time>
      </trkpt>
      <trkpt lat="47.41821" lon="6.69985">
        <ele>368</ele>
        <time>2016-05-15T08:34:03.000Z</time>
      </trkpt>
      <trkpt lat="47.41816" lon="6.69984">
        <ele>368</ele>
        <time>2016-05-15T08:34:04.000Z</time>
      </trkpt>
      <trkpt lat="47.41811" lon="6.69985">
        <ele>368</ele>
        <time>2016-05-15T08:34:05.000Z</time>
      </trkpt>
      <trkpt lat="47.41806" lon="6.69984">
        <ele>368</ele>
        <time>2016-05-15T08:34:06.000Z</time>
      </trkpt>
      <trkpt lat="47.41801" lon="6.69985">
        <ele>368</ele>
        <time>2016-05-15T08:34:07.000Z</time>
      </trkpt>
      <trkpt lat="47.41796" lon="6.69986">
        <ele>368</ele>
        <time>2016-05-15T08:34:08.000Z</time>
      </trkpt>
      <trkpt lat="47.41791" lon="6.69987">
        <ele>368</ele>
        <time>2016-05-15T08:34:09.000Z</time>
      </trkpt>
      <trkpt lat="47.41786" lon="6.69988">
        <ele>369</ele>
        <time>2016-05-15T08:34:10.000Z</time>
      </trkpt>
      <trkpt lat="47.41782" lon="6.69987">
        <ele>369</ele>
        <time>2016-05-15T08:34:11.000Z</time>
      </trkpt>
      <trkpt lat="47.41778" lon="6.69986">
        <ele>369</ele>
        <time>2016-05-15T08:34:12.000Z</time>
      </trkpt>
      <trkpt lat="47.41774" lon="6.69986">
        <ele>369</ele>
        <time>2016-05-15T08:34:13.000Z</time>
      </trkpt>
      <trkpt lat="47.4177" lon="6.69984">
        <ele>369</ele>
        <time>2016-05-15T08:34:14.000Z</time>
      </trkpt>
      <trkpt lat="47.41765" lon="6.69985">
        <ele>369</ele>
        <time>2016-05-15T08:34:15.000Z</time>
      </trkpt>
      <trkpt lat="47.41761" lon="6.69986">
        <ele>370</ele>
        <time>2016-05-15T08:34:16.000Z</time>
      </trkpt>
      <trkpt lat="47.41756" lon="6.69988">
        <ele>370</ele>
        <time>2016-05-15T08:34:17.000Z</time>
      </trkpt>
      <trkpt lat="47.41751" lon="6.69987">
        <ele>370</ele>
        <time>2016-05-15T08:34:18.000Z</time>
      </trkpt>
      <trkpt lat="47.41747" lon="6.69987">
        <ele>370</ele>
        <time>2016-05-15T08:34:19.000Z</time>
      </trkpt>
      <trkpt lat="47.41742" lon="6.69988">
        <ele>370</ele>
        <time>2016-05-15T08:34:20.000Z</time>
      </trkpt>
      <trkpt lat="47.41737" lon="6.69989">
        <ele>370</ele>
        <time>2016-05-15T08:34:21.000Z</time>
      </trkpt>
      <trkpt lat="47.41733" lon="6.69988">
        <ele>370</ele>
        <time>2016-05-15T08:34:22.000Z</time>
      </trkpt>
      <trkpt lat="47.41729" lon="6.69988">
        <ele>369</ele>
        <time>2016-05-15T08:34:23.000Z</time>
      </trkpt>
      <trkpt lat="47.41725" lon="6.69989">
        <ele>369</ele>
        <time>2016-05-15T08:34:24.000Z</time>
      </trkpt>
      <trkpt lat="47.4172" lon="6.69991">
        <ele>369</ele>
        <time>2016-05-15T08:34:25.000Z</time>
      </trkpt>
      <trkpt lat="47.41716" lon="6.69992">
        <ele>369</ele>
        <time>2016-05-15T08:34:26.000Z</time>
      </trkpt>
      <trkpt lat="47.41712" lon="6.69995">
        <ele>369</ele>
        <time>2016-05-15T08:34:27.000Z</time>
      </trkpt>
      <trkpt lat="47.41708" lon="6.69999">
        <ele>369</ele>
        <time>2016-05-15T08:34:28.000Z</time>
      </trkpt>
      <trkpt lat="47.41704" lon="6.70003">
        <ele>378</ele>
        <time>2016-05-15T08:34:29.000Z</time>
      </trkpt>
      <trkpt lat="47.41699" lon="6.70006">
        <ele>378</ele>
        <time>2016-05-15T08:34:30.000Z</time>
      </trkpt>
      <trkpt lat="47.41695" lon="6.70009">
        <ele>378</ele>
        <time>2016-05-15T08:34:31.000Z</time>
      </trkpt>
      <trkpt lat="47.41691" lon="6.70012">
        <ele>378</ele>
        <time>2016-05-15T08:34:32.000Z</time>
      </trkpt>
      <trkpt lat="47.41688" lon="6.70015">
        <ele>378</ele>
        <time>2016-05-15T08:34:33.000Z</time>
      </trkpt>
      <trkpt lat="47.41684" lon="6.70018">
        <ele>379</ele>
        <time>2016-05-15T08:34:34.000Z</time>
      </trkpt>
      <trkpt lat="47.41681" lon="6.70021">
        <ele>379</ele>
        <time>2016-05-15T08:34:35.000Z</time>
      </trkpt>
      <trkpt lat="47.41678" lon="6.70024">
        <ele>379</ele>
        <time>2016-05-15T08:34:36.000Z</time>
      </trkpt>
      <trkpt lat="47.41674" lon="6.70027">
        <ele>380</ele>
        <time>2016-05-15T08:34:37.000Z</time>
      </trkpt>
      <trkpt lat="47.41671" lon="6.7003">
        <ele>380</ele>
        <time>2016-05-15T08:34:38.000Z</time>
      </trkpt>
      <trkpt lat="47.41668" lon="6.70033">
        <ele>381</ele>
        <time>2016-05-15T08:34:39.000Z</time>
      </trkpt>
      <trkpt lat="47.41665" lon="6.70037">
        <ele>379</ele>
        <time>2016-05-15T08:34:40.000Z</time>
      </trkpt>
      <trkpt lat="47.41662" lon="6.7004">
        <ele>379</ele>
        <time>2016-05-15T08:34:41.000Z</time>
      </trkpt>
      <trkpt lat="47.41658" lon="6.70042">
        <ele>380</ele>
        <time>2016-05-15T08:34:42.000Z</time>
      </trkpt>
      <trkpt lat="47.41655" lon="6.70044">
        <ele>380</ele>
        <time>2016-05-15T08:34:43.000Z</time>
      </trkpt>
      <trkpt lat="47.41652" lon="6.70046">
        <ele>380</ele>
        <time>2016-05-15T08:34:44.000Z</time>
      </trkpt>
      <trkpt lat="47.41649" lon="6.70047">
        <ele>380</ele>
        <time>2016-05-15T08:34:45.000Z</time>
      </trkpt>
      <trkpt lat="47.41646" lon="6.70047">
        <ele>380</ele>
        <time>2016-05-15T08:34:46.000Z</time>
      </trkpt>
      <trkpt lat="47.41643" lon="6.70048">
        <ele>380</ele>
        <time>2016-05-15T08:34:47.000Z</time>
      </trkpt>
      <trkpt lat="47.4164" lon="6.70049">
        <ele>380</ele>
        <time>2016-05-15T08:34:48.000Z</time>
      </trkpt>
      <trkpt lat="47.41637" lon="6.70049">
        <ele>380</ele>
        <time>2016-05-15T08:34:49.000Z</time>
      </trkpt>
      <trkpt lat="47.41634" lon="6.7005">
        <ele>380</ele>
        <time>2016-05-15T08:34:50.000Z</time>
      </trkpt>
      <trkpt lat="47.41631" lon="6.70051">
        <ele>380</ele>
        <time>2016-05-15T08:34:51.000Z</time>
      </trkpt>
      <trkpt lat="47.41628" lon="6.70052">
        <ele>379</ele>
        <time>2016-05-15T08:34:52.000Z</time>
      </trkpt>
      <trkpt lat="47.41625" lon="6.70054">
        <ele>379</ele>
        <time>2016-05-15T08:34:53.000Z</time>
      </trkpt>
      <trkpt lat="47.41622" lon="6.70055">
        <ele>379</ele>
        <time>2016-05-15T08:34:54.000Z</time>
      </trkpt>
      <trkpt lat="47.41619" lon="6.70056">
        <ele>379</ele>
        <time>2016-05-15T08:34:55.000Z</time>
      </trkpt>
      <trkpt lat="47.41617" lon="6.70057">
        <ele>379</ele>
        <time>2016-05-15T08:34:56.000Z</time>
      </trkpt>
      <trkpt lat="47.41614" lon="6.70059">
        <ele>379</ele>
        <time>2016-05-15T08:34:57.000Z</time>
      </trkpt>
      <trkpt lat="47.41611" lon="6.70061">
        <ele>379</ele>
        <time>2016-05-15T08:34:58.000Z</time>
      </trkpt>
      <trkpt lat="47.41608" lon="6.70063">
        <ele>379</ele>
        <time>2016-05-15T08:34:59.000Z</time>
      </trkpt>
      <trkpt lat="47.41606" lon="6.70065">
        <ele>380</ele>
        <time>2016-05-15T08:35:00.000Z</time>
      </trkpt>
      <trkpt lat="47.41604" lon="6.70068">
        <ele>380</ele>
        <time>2016-05-15T08:35:01.000Z</time>
      </trkpt>
      <trkpt lat="47.41601" lon="6.7007">
        <ele>380</ele>
        <time>2016-05-15T08:35:02.000Z</time>
      </trkpt>
      <trkpt lat="47.41599" lon="6.70072">
        <ele>380</ele>
        <time>2016-05-15T08:35:03.000Z</time>
      </trkpt>
      <trkpt lat="47.41596" lon="6.70074">
        <ele>380</ele>
        <time>2016-05-15T08:35:04.000Z</time>
      </trkpt>
      <trkpt lat="47.41593" lon="6.70077">
        <ele>381</ele>
        <time>2016-05-15T08:35:05.000Z</time>
      </trkpt>
      <trkpt lat="47.41591" lon="6.70079">
        <ele>381</ele>
        <time>2016-05-15T08:35:06.000Z</time>
      </trkpt>
      <trkpt lat="47.41588" lon="6.70081">
        <ele>381</ele>
        <time>2016-05-15T08:35:07.000Z</time>
      </trkpt>
      <trkpt lat="47.41586" lon="6.70084">
        <ele>383</ele>
        <time>2016-05-15T08:35:08.000Z</time>
      </trkpt>
      <trkpt lat="47.41583" lon="6.70086">
        <ele>384</ele>
        <time>2016-05-15T08:35:09.000Z</time>
      </trkpt>
      <trkpt lat="47.41581" lon="6.70089">
        <ele>382</ele>
        <time>2016-05-15T08:35:10.000Z</time>
      </trkpt>
      <trkpt lat="47.41579" lon="6.70092">
        <ele>382</ele>
        <time>2016-05-15T08:35:11.000Z</time>
      </trkpt>
      <trkpt lat="47.41576" lon="6.70095">
        <ele>382</ele>
        <time>2016-05-15T08:35:12.000Z</time>
      </trkpt>
      <trkpt lat="47.41574" lon="6.70098">
        <ele>382</ele>
        <time>2016-05-15T08:35:13.000Z</time>
      </trkpt>
      <trkpt lat="47.41571" lon="6.70101">
        <ele>382</ele>
        <time>2016-05-15T08:35:14.000Z</time>
      </trkpt>
      <trkpt lat="47.41569" lon="6.70104">
        <ele>382</ele>
        <time>2016-05-15T08:35:15.000Z</time>
      </trkpt>
      <trkpt lat="47.41567" lon="6.70108">
        <ele>383</ele>
        <time>2016-05-15T08:35:16.000Z</time>
      </trkpt>
      <trkpt lat="47.41564" lon="6.70111">
        <ele>383</ele>
        <time>2016-05-15T08:35:17.000Z</time>
      </trkpt>
      <trkpt lat="47.41562" lon="6.70115">
        <ele>383</ele>
        <time>2016-05-15T08:35:18.000Z</time>
      </trkpt>
      <trkpt lat="47.4156" lon="6.70119">
        <ele>383</ele>
        <time>2016-05-15T08:35:19.000Z</time>
      </trkpt>
      <trkpt lat="47.41559" lon="6.70123">
        <ele>383</ele>
        <time>2016-05-15T08:35:20.000Z</time>
      </trkpt>
      <trkpt lat="47.41557" lon="6.70127">
        <ele>384</ele>
        <time>2016-05-15T08:35:21.000Z</time>
      </trkpt>
      <trkpt lat="47.41554" lon="6.7013">
        <ele>384</ele>
        <time>2016-05-15T08:35:22.000Z</time>
      </trkpt>
      <trkpt lat="47.41552" lon="6.70133">
        <ele>384</ele>
        <time>2016-05-15T08:35:23.000Z</time>
      </trkpt>
      <trkpt lat="47.4155" lon="6.70137">
        <ele>384</ele>
        <time>2016-05-15T08:35:24.000Z</time>
      </trkpt>
      <trkpt lat="47.41547" lon="6.7014">
        <ele>384</ele>
        <time>2016-05-15T08:35:25.000Z</time>
      </trkpt>
      <trkpt lat="47.41541" lon="6.70145">
        <ele>384</ele>
        <time>2016-05-15T08:35:26.000Z</time>
      </trkpt>
      <trkpt lat="47.41538" lon="6.70147">
        <ele>383</ele>
        <time>2016-05-15T08:35:27.000Z</time>
      </trkpt>
      <trkpt lat="47.41534" lon="6.70149">
        <ele>383</ele>
        <time>2016-05-15T08:35:28.000Z</time>
      </trkpt>
      <trkpt lat="47.4153" lon="6.7015">
        <ele>383</ele>
        <time>2016-05-15T08:35:29.000Z</time>
      </trkpt>
      <trkpt lat="47.41526" lon="6.70152">
        <ele>382</ele>
        <time>2016-05-15T08:35:30.000Z</time>
      </trkpt>
      <trkpt lat="47.41523" lon="6.70154">
        <ele>382</ele>
        <time>2016-05-15T08:35:31.000Z</time>
      </trkpt>
      <trkpt lat="47.41519" lon="6.70155">
        <ele>382</ele>
        <time>2016-05-15T08:35:32.000Z</time>
      </trkpt>
      <trkpt lat="47.41515" lon="6.70157">
        <ele>381</ele>
        <time>2016-05-15T08:35:33.000Z</time>
      </trkpt>
      <trkpt lat="47.41511" lon="6.7016">
        <ele>381</ele>
        <time>2016-05-15T08:35:34.000Z</time>
      </trkpt>
      <trkpt lat="47.41509" lon="6.70157">
        <ele>381</ele>
        <time>2016-05-15T08:35:35.000Z</time>
      </trkpt>
      <trkpt lat="47.41505" lon="6.70162">
        <ele>381</ele>
        <time>2016-05-15T08:35:36.000Z</time>
      </trkpt>
      <trkpt lat="47.41502" lon="6.70164">
        <ele>380</ele>
        <time>2016-05-15T08:35:37.000Z</time>
      </trkpt>
      <trkpt lat="47.41499" lon="6.70164">
        <ele>379</ele>
        <time>2016-05-15T08:35:38.000Z</time>
      </trkpt>
      <trkpt lat="47.41496" lon="6.70165">
        <ele>378</ele>
        <time>2016-05-15T08:35:39.000Z</time>
      </trkpt>
      <trkpt lat="47.41493" lon="6.70166">
        <ele>378</ele>
        <time>2016-05-15T08:35:40.000Z</time>
      </trkpt>
      <trkpt lat="47.41489" lon="6.70167">
        <ele>380</ele>
        <time>2016-05-15T08:35:41.000Z</time>
      </trkpt>
      <trkpt lat="47.41485" lon="6.70168">
        <ele>380</ele>
        <time>2016-05-15T08:35:42.000Z</time>
      </trkpt>
      <trkpt lat="47.41481" lon="6.7017">
        <ele>380</ele>
        <time>2016-05-15T08:35:43.000Z</time>
      </trkpt>
      <trkpt lat="47.41477" lon="6.70172">
        <ele>380</ele>
        <time>2016-05-15T08:35:44.000Z</time>
      </trkpt>
      <trkpt lat="47.41472" lon="6.70175">
        <ele>379</ele>
        <time>2016-05-15T08:35:45.000Z</time>
      </trkpt>
      <trkpt lat="47.41468" lon="6.70177">
        <ele>379</ele>
        <time>2016-05-15T08:35:46.000Z</time>
      </trkpt>
      <trkpt lat="47.41463" lon="6.70179">
        <ele>379</ele>
        <time>2016-05-15T08:35:47.000Z</time>
      </trkpt>
      <trkpt lat="47.41459" lon="6.70181">
        <ele>378</ele>
        <time>2016-05-15T08:35:48.000Z</time>
      </trkpt>
      <trkpt lat="47.41454" lon="6.70184">
        <ele>378</ele>
        <time>2016-05-15T08:35:49.000Z</time>
      </trkpt>
      <trkpt lat="47.41449" lon="6.70187">
        <ele>378</ele>
        <time>2016-05-15T08:35:50.000Z</time>
      </trkpt>
      <trkpt lat="47.41444" lon="6.7019">
        <ele>377</ele>
        <time>2016-05-15T08:35:51.000Z</time>
      </trkpt>
      <trkpt lat="47.41439" lon="6.70195">
        <ele>377</ele>
        <time>2016-05-15T08:35:52.000Z</time>
      </trkpt>
      <trkpt lat="47.41434" lon="6.70202">
        <ele>378</ele>
        <time>2016-05-15T08:35:53.000Z</time>
      </trkpt>
      <trkpt lat="47.41429" lon="6.70209">
        <ele>378</ele>
        <time>2016-05-15T08:35:54.000Z</time>
      </trkpt>
      <trkpt lat="47.41424" lon="6.70215">
        <ele>378</ele>
        <time>2016-05-15T08:35:55.000Z</time>
      </trkpt>
      <trkpt lat="47.4142" lon="6.70223">
        <ele>378</ele>
        <time>2016-05-15T08:35:56.000Z</time>
      </trkpt>
      <trkpt lat="47.41416" lon="6.70234">
        <ele>373</ele>
        <time>2016-05-15T08:35:57.000Z</time>
      </trkpt>
      <trkpt lat="47.41411" lon="6.70243">
        <ele>374</ele>
        <time>2016-05-15T08:35:58.000Z</time>
      </trkpt>
      <trkpt lat="47.41407" lon="6.70251">
        <ele>376</ele>
        <time>2016-05-15T08:35:59.000Z</time>
      </trkpt>
      <trkpt lat="47.41402" lon="6.70259">
        <ele>377</ele>
        <time>2016-05-15T08:36:00.000Z</time>
      </trkpt>
      <trkpt lat="47.41399" lon="6.70266">
        <ele>377</ele>
        <time>2016-05-15T08:36:01.000Z</time>
      </trkpt>
      <trkpt lat="47.41397" lon="6.70276">
        <ele>377</ele>
        <time>2016-05-15T08:36:02.000Z</time>
      </trkpt>
      <trkpt lat="47.41394" lon="6.70281">
        <ele>377</ele>
        <time>2016-05-15T08:36:03.000Z</time>
      </trkpt>
      <trkpt lat="47.41392" lon="6.70288">
        <ele>378</ele>
        <time>2016-05-15T08:36:04.000Z</time>
      </trkpt>
      <trkpt lat="47.4139" lon="6.70294">
        <ele>378</ele>
        <time>2016-05-15T08:36:05.000Z</time>
      </trkpt>
      <trkpt lat="47.41387" lon="6.703">
        <ele>378</ele>
        <time>2016-05-15T08:36:06.000Z</time>
      </trkpt>
      <trkpt lat="47.41384" lon="6.70307">
        <ele>379</ele>
        <time>2016-05-15T08:36:07.000Z</time>
      </trkpt>
      <trkpt lat="47.41381" lon="6.70312">
        <ele>379</ele>
        <time>2016-05-15T08:36:08.000Z</time>
      </trkpt>
      <trkpt lat="47.41377" lon="6.70316">
        <ele>379</ele>
        <time>2016-05-15T08:36:09.000Z</time>
      </trkpt>
      <trkpt lat="47.41373" lon="6.70319">
        <ele>379</ele>
        <time>2016-05-15T08:36:10.000Z</time>
      </trkpt>
      <trkpt lat="47.41369" lon="6.70323">
        <ele>378</ele>
        <time>2016-05-15T08:36:11.000Z</time>
      </trkpt>
      <trkpt lat="47.41366" lon="6.70327">
        <ele>378</ele>
        <time>2016-05-15T08:36:12.000Z</time>
      </trkpt>
      <trkpt lat="47.41363" lon="6.70331">
        <ele>378</ele>
        <time>2016-05-15T08:36:13.000Z</time>
      </trkpt>
      <trkpt lat="47.4136" lon="6.70334">
        <ele>386</ele>
        <time>2016-05-15T08:36:14.000Z</time>
      </trkpt>
      <trkpt lat="47.41357" lon="6.70339">
        <ele>386</ele>
        <time>2016-05-15T08:36:15.000Z</time>
      </trkpt>
      <trkpt lat="47.41354" lon="6.70343">
        <ele>386</ele>
        <time>2016-05-15T08:36:16.000Z</time>
      </trkpt>
      <trkpt lat="47.41351" lon="6.70346">
        <ele>386</ele>
        <time>2016-05-15T08:36:17.000Z</time>
      </trkpt>
      <trkpt lat="47.41349" lon="6.70352">
        <ele>386</ele>
        <time>2016-05-15T08:36:18.000Z</time>
      </trkpt>
      <trkpt lat="47.41348" lon="6.70354">
        <ele>387</ele>
        <time>2016-05-15T08:36:19.000Z</time>
      </trkpt>
      <trkpt lat="47.41346" lon="6.70358">
        <ele>387</ele>
        <time>2016-05-15T08:36:20.000Z</time>
      </trkpt>
      <trkpt lat="47.41344" lon="6.7036">
        <ele>387</ele>
        <time>2016-05-15T08:36:21.000Z</time>
      </trkpt>
      <trkpt lat="47.4134" lon="6.70363">
        <ele>388</ele>
        <time>2016-05-15T08:36:23.000Z</time>
      </trkpt>
      <trkpt lat="47.41338" lon="6.70364">
        <ele>388</ele>
        <time>2016-05-15T08:36:24.000Z</time>
      </trkpt>
      <trkpt lat="47.41336" lon="6.70366">
        <ele>388</ele>
        <time>2016-05-15T08:36:25.000Z</time>
      </trkpt>
      <trkpt lat="47.41334" lon="6.70369">
        <ele>389</ele>
        <time>2016-05-15T08:36:26.000Z</time>
      </trkpt>
      <trkpt lat="47.41332" lon="6.70371">
        <ele>383</ele>
        <time>2016-05-15T08:36:27.000Z</time>
      </trkpt>
      <trkpt lat="47.4133" lon="6.70372">
        <ele>383</ele>
        <time>2016-05-15T08:36:28.000Z</time>
      </trkpt>
      <trkpt lat="47.41325" lon="6.70373">
        <ele>383</ele>
        <time>2016-05-15T08:36:30.000Z</time>
      </trkpt>
      <trkpt lat="47.41323" lon="6.70374">
        <ele>383</ele>
        <time>2016-05-15T08:36:31.000Z</time>
      </trkpt>
      <trkpt lat="47.41321" lon="6.70375">
        <ele>383</ele>
        <time>2016-05-15T08:36:32.000Z</time>
      </trkpt>
      <trkpt lat="47.41318" lon="6.70377">
        <ele>383</ele>
        <time>2016-05-15T08:36:33.000Z</time>
      </trkpt>
      <trkpt lat="47.41315" lon="6.70379">
        <ele>383</ele>
        <time>2016-05-15T08:36:34.000Z</time>
      </trkpt>
      <trkpt lat="47.41312" lon="6.70383">
        <ele>383</ele>
        <time>2016-05-15T08:36:35.000Z</time>
      </trkpt>
      <trkpt lat="47.41309" lon="6.70386">
        <ele>384</ele>
        <time>2016-05-15T08:36:36.000Z</time>
      </trkpt>
      <trkpt lat="47.41305" lon="6.7039">
        <ele>384</ele>
        <time>2016-05-15T08:36:37.000Z</time>
      </trkpt>
      <trkpt lat="47.41302" lon="6.70394">
        <ele>384</ele>
        <time>2016-05-15T08:36:38.000Z</time>
      </trkpt>
      <trkpt lat="47.41299" lon="6.70397">
        <ele>384</ele>
        <time>2016-05-15T08:36:39.000Z</time>
      </trkpt>
      <trkpt lat="47.41297" lon="6.70402">
        <ele>384</ele>
        <time>2016-05-15T08:36:40.000Z</time>
      </trkpt>
      <trkpt lat="47.41294" lon="6.70406">
        <ele>383</ele>
        <time>2016-05-15T08:36:41.000Z</time>
      </trkpt>
      <trkpt lat="47.41292" lon="6.7041">
        <ele>383</ele>
        <time>2016-05-15T08:36:42.000Z</time>
      </trkpt>
      <trkpt lat="47.41289" lon="6.70415">
        <ele>383</ele>
        <time>2016-05-15T08:36:43.000Z</time>
      </trkpt>
      <trkpt lat="47.41287" lon="6.70418">
        <ele>390</ele>
        <time>2016-05-15T08:36:44.000Z</time>
      </trkpt>
      <trkpt lat="47.41284" lon="6.70422">
        <ele>389</ele>
        <time>2016-05-15T08:36:45.000Z</time>
      </trkpt>
      <trkpt lat="47.41281" lon="6.70426">
        <ele>389</ele>
        <time>2016-05-15T08:36:46.000Z</time>
      </trkpt>
      <trkpt lat="47.41278" lon="6.70429">
        <ele>389</ele>
        <time>2016-05-15T08:36:47.000Z</time>
      </trkpt>
      <trkpt lat="47.41275" lon="6.70433">
        <ele>389</ele>
        <time>2016-05-15T08:36:48.000Z</time>
      </trkpt>
      <trkpt lat="47.41272" lon="6.70437">
        <ele>389</ele>
        <time>2016-05-15T08:36:49.000Z</time>
      </trkpt>
      <trkpt lat="47.41269" lon="6.7044">
        <ele>389</ele>
        <time>2016-05-15T08:36:50.000Z</time>
      </trkpt>
      <trkpt lat="47.41266" lon="6.70443">
        <ele>389</ele>
        <time>2016-05-15T08:36:51.000Z</time>
      </trkpt>
      <trkpt lat="47.41264" lon="6.70446">
        <ele>389</ele>
        <time>2016-05-15T08:36:52.000Z</time>
      </trkpt>
      <trkpt lat="47.41261" lon="6.7045">
        <ele>389</ele>
        <time>2016-05-15T08:36:53.000Z</time>
      </trkpt>
      <trkpt lat="47.41259" lon="6.70454">
        <ele>390</ele>
        <time>2016-05-15T08:36:54.000Z</time>
      </trkpt>
      <trkpt lat="47.41257" lon="6.70458">
        <ele>390</ele>
        <time>2016-05-15T08:36:55.000Z</time>
      </trkpt>
      <trkpt lat="47.41255" lon="6.70461">
        <ele>390</ele>
        <time>2016-05-15T08:36:56.000Z</time>
      </trkpt>
      <trkpt lat="47.41252" lon="6.70464">
        <ele>390</ele>
        <time>2016-05-15T08:36:57.000Z</time>
      </trkpt>
      <trkpt lat="47.4125" lon="6.70467">
        <ele>391</ele>
        <time>2016-05-15T08:36:58.000Z</time>
      </trkpt>
      <trkpt lat="47.41248" lon="6.70471">
        <ele>388</ele>
        <time>2016-05-15T08:36:59.000Z</time>
      </trkpt>
      <trkpt lat="47.41246" lon="6.70475">
        <ele>388</ele>
        <time>2016-05-15T08:37:00.000Z</time>
      </trkpt>
      <trkpt lat="47.41245" lon="6.70479">
        <ele>389</ele>
        <time>2016-05-15T08:37:01.000Z</time>
      </trkpt>
      <trkpt lat="47.41243" lon="6.70483">
        <ele>389</ele>
        <time>2016-05-15T08:37:02.000Z</time>
      </trkpt>
      <trkpt lat="47.41242" lon="6.70487">
        <ele>389</ele>
        <time>2016-05-15T08:37:03.000Z</time>
      </trkpt>
      <trkpt lat="47.41239" lon="6.70489">
        <ele>389</ele>
        <time>2016-05-15T08:37:04.000Z</time>
      </trkpt>
      <trkpt lat="47.41237" lon="6.70491">
        <ele>389</ele>
        <time>2016-05-15T08:37:05.000Z</time>
      </trkpt>
      <trkpt lat="47.41233" lon="6.70494">
        <ele>389</ele>
        <time>2016-05-15T08:37:06.000Z</time>
      </trkpt>
      <trkpt lat="47.41231" lon="6.70496">
        <ele>389</ele>
        <time>2016-05-15T08:37:07.000Z</time>
      </trkpt>
      <trkpt lat="47.41229" lon="6.70498">
        <ele>389</ele>
        <time>2016-05-15T08:37:08.000Z</time>
      </trkpt>
      <trkpt lat="47.41227" lon="6.70501">
        <ele>393</ele>
        <time>2016-05-15T08:37:09.000Z</time>
      </trkpt>
      <trkpt lat="47.41226" lon="6.70504">
        <ele>393</ele>
        <time>2016-05-15T08:37:10.000Z</time>
      </trkpt>
      <trkpt lat="47.41224" lon="6.70507">
        <ele>394</ele>
        <time>2016-05-15T08:37:11.000Z</time>
      </trkpt>
      <trkpt lat="47.41223" lon="6.70511">
        <ele>394</ele>
        <time>2016-05-15T08:37:12.000Z</time>
      </trkpt>
      <trkpt lat="47.41221" lon="6.70515">
        <ele>394</ele>
        <time>2016-05-15T08:37:13.000Z</time>
      </trkpt>
      <trkpt lat="47.41218" lon="6.70519">
        <ele>394</ele>
        <time>2016-05-15T08:37:14.000Z</time>
      </trkpt>
      <trkpt lat="47.41216" lon="6.70522">
        <ele>394</ele>
        <time>2016-05-15T08:37:15.000Z</time>
      </trkpt>
      <trkpt lat="47.41213" lon="6.70525">
        <ele>395</ele>
        <time>2016-05-15T08:37:16.000Z</time>
      </trkpt>
      <trkpt lat="47.41211" lon="6.70527">
        <ele>395</ele>
        <time>2016-05-15T08:37:17.000Z</time>
      </trkpt>
      <trkpt lat="47.41208" lon="6.70529">
        <ele>395</ele>
        <time>2016-05-15T08:37:18.000Z</time>
      </trkpt>
      <trkpt lat="47.41205" lon="6.70532">
        <ele>395</ele>
        <time>2016-05-15T08:37:19.000Z</time>
      </trkpt>
      <trkpt lat="47.41202" lon="6.70536">
        <ele>395</ele>
        <time>2016-05-15T08:37:20.000Z</time>
      </trkpt>
      <trkpt lat="47.412" lon="6.7054">
        <ele>395</ele>
        <time>2016-05-15T08:37:21.000Z</time>
      </trkpt>
      <trkpt lat="47.41197" lon="6.70545">
        <ele>395</ele>
        <time>2016-05-15T08:37:22.000Z</time>
      </trkpt>
      <trkpt lat="47.41195" lon="6.7055">
        <ele>395</ele>
        <time>2016-05-15T08:37:23.000Z</time>
      </trkpt>
      <trkpt lat="47.41192" lon="6.70554">
        <ele>395</ele>
        <time>2016-05-15T08:37:24.000Z</time>
      </trkpt>
      <trkpt lat="47.41189" lon="6.70558">
        <ele>395</ele>
        <time>2016-05-15T08:37:25.000Z</time>
      </trkpt>
      <trkpt lat="47.41187" lon="6.70562">
        <ele>395</ele>
        <time>2016-05-15T08:37:26.000Z</time>
      </trkpt>
      <trkpt lat="47.41185" lon="6.70565">
        <ele>395</ele>
        <time>2016-05-15T08:37:27.000Z</time>
      </trkpt>
      <trkpt lat="47.41183" lon="6.70568">
        <ele>395</ele>
        <time>2016-05-15T08:37:28.000Z</time>
      </trkpt>
      <trkpt lat="47.41181" lon="6.70572">
        <ele>395</ele>
        <time>2016-05-15T08:37:29.000Z</time>
      </trkpt>
      <trkpt lat="47.4118" lon="6.70576">
        <ele>395</ele>
        <time>2016-05-15T08:37:30.000Z</time>
      </trkpt>
      <trkpt lat="47.41179" lon="6.70581">
        <ele>395</ele>
        <time>2016-05-15T08:37:31.000Z</time>
      </trkpt>
      <trkpt lat="47.41177" lon="6.70587">
        <ele>397</ele>
        <time>2016-05-15T08:37:32.000Z</time>
      </trkpt>
      <trkpt lat="47.41175" lon="6.70593">
        <ele>397</ele>
        <time>2016-05-15T08:37:33.000Z</time>
      </trkpt>
      <trkpt lat="47.41173" lon="6.706">
        <ele>398</ele>
        <time>2016-05-15T08:37:34.000Z</time>
      </trkpt>
      <trkpt lat="47.41171" lon="6.70607">
        <ele>399</ele>
        <time>2016-05-15T08:37:35.000Z</time>
      </trkpt>
      <trkpt lat="47.41168" lon="6.70614">
        <ele>400</ele>
        <time>2016-05-15T08:37:36.000Z</time>
      </trkpt>
      <trkpt lat="47.41167" lon="6.7062">
        <ele>400</ele>
        <time>2016-05-15T08:37:37.000Z</time>
      </trkpt>
      <trkpt lat="47.41165" lon="6.70625">
        <ele>401</ele>
        <time>2016-05-15T08:37:38.000Z</time>
      </trkpt>
      <trkpt lat="47.41164" lon="6.7063">
        <ele>401</ele>
        <time>2016-05-15T08:37:39.000Z</time>
      </trkpt>
      <trkpt lat="47.41162" lon="6.70634">
        <ele>401</ele>
        <time>2016-05-15T08:37:40.000Z</time>
      </trkpt>
      <trkpt lat="47.41161" lon="6.70638">
        <ele>401</ele>
        <time>2016-05-15T08:37:41.000Z</time>
      </trkpt>
      <trkpt lat="47.4116" lon="6.70643">
        <ele>401</ele>
        <time>2016-05-15T08:37:42.000Z</time>
      </trkpt>
      <trkpt lat="47.41158" lon="6.70647">
        <ele>400</ele>
        <time>2016-05-15T08:37:43.000Z</time>
      </trkpt>
      <trkpt lat="47.41157" lon="6.70651">
        <ele>400</ele>
        <time>2016-05-15T08:37:44.000Z</time>
      </trkpt>
      <trkpt lat="47.41155" lon="6.70655">
        <ele>400</ele>
        <time>2016-05-15T08:37:45.000Z</time>
      </trkpt>
      <trkpt lat="47.41154" lon="6.70658">
        <ele>400</ele>
        <time>2016-05-15T08:37:46.000Z</time>
      </trkpt>
      <trkpt lat="47.41152" lon="6.70664">
        <ele>400</ele>
        <time>2016-05-15T08:37:47.000Z</time>
      </trkpt>
      <trkpt lat="47.4115" lon="6.70669">
        <ele>400</ele>
        <time>2016-05-15T08:37:48.000Z</time>
      </trkpt>
      <trkpt lat="47.41147" lon="6.70674">
        <ele>401</ele>
        <time>2016-05-15T08:37:49.000Z</time>
      </trkpt>
      <trkpt lat="47.41144" lon="6.70678">
        <ele>401</ele>
        <time>2016-05-15T08:37:50.000Z</time>
      </trkpt>
      <trkpt lat="47.41142" lon="6.70682">
        <ele>401</ele>
        <time>2016-05-15T08:37:51.000Z</time>
      </trkpt>
      <trkpt lat="47.4114" lon="6.70686">
        <ele>402</ele>
        <time>2016-05-15T08:37:52.000Z</time>
      </trkpt>
      <trkpt lat="47.41138" lon="6.70689">
        <ele>402</ele>
        <time>2016-05-15T08:37:53.000Z</time>
      </trkpt>
      <trkpt lat="47.41137" lon="6.70693">
        <ele>402</ele>
        <time>2016-05-15T08:37:54.000Z</time>
      </trkpt>
      <trkpt lat="47.41136" lon="6.70698">
        <ele>402</ele>
        <time>2016-05-15T08:37:55.000Z</time>
      </trkpt>
      <trkpt lat="47.41135" lon="6.70702">
        <ele>402</ele>
        <time>2016-05-15T08:37:56.000Z</time>
      </trkpt>
      <trkpt lat="47.41134" lon="6.70706">
        <ele>402</ele>
        <time>2016-05-15T08:37:57.000Z</time>
      </trkpt>
      <trkpt lat="47.41133" lon="6.70711">
        <ele>402</ele>
        <time>2016-05-15T08:37:58.000Z</time>
      </trkpt>
      <trkpt lat="47.41132" lon="6.70715">
        <ele>402</ele>
        <time>2016-05-15T08:37:59.000Z</time>
      </trkpt>
      <trkpt lat="47.41131" lon="6.70721">
        <ele>402</ele>
        <time>2016-05-15T08:38:00.000Z</time>
      </trkpt>
      <trkpt lat="47.41129" lon="6.70728">
        <ele>402</ele>
        <time>2016-05-15T08:38:01.000Z</time>
      </trkpt>
      <trkpt lat="47.41127" lon="6.70734">
        <ele>402</ele>
        <time>2016-05-15T08:38:02.000Z</time>
      </trkpt>
      <trkpt lat="47.41124" lon="6.70741">
        <ele>401</ele>
        <time>2016-05-15T08:38:03.000Z</time>
      </trkpt>
      <trkpt lat="47.41121" lon="6.70748">
        <ele>401</ele>
        <time>2016-05-15T08:38:04.000Z</time>
      </trkpt>
      <trkpt lat="47.41117" lon="6.70755">
        <ele>399</ele>
        <time>2016-05-15T08:38:05.000Z</time>
      </trkpt>
      <trkpt lat="47.41107" lon="6.70778">
        <ele>399</ele>
        <time>2016-05-15T08:38:06.000Z</time>
      </trkpt>
      <trkpt lat="47.41105" lon="6.70787">
        <ele>398</ele>
        <time>2016-05-15T08:38:07.000Z</time>
      </trkpt>
      <trkpt lat="47.41103" lon="6.70792">
        <ele>398</ele>
        <time>2016-05-15T08:38:08.000Z</time>
      </trkpt>
      <trkpt lat="47.41101" lon="6.70795">
        <ele>398</ele>
        <time>2016-05-15T08:38:09.000Z</time>
      </trkpt>
      <trkpt lat="47.41099" lon="6.70799">
        <ele>397</ele>
        <time>2016-05-15T08:38:10.000Z</time>
      </trkpt>
      <trkpt lat="47.41097" lon="6.70804">
        <ele>397</ele>
        <time>2016-05-15T08:38:11.000Z</time>
      </trkpt>
      <trkpt lat="47.41095" lon="6.70809">
        <ele>396</ele>
        <time>2016-05-15T08:38:12.000Z</time>
      </trkpt>
      <trkpt lat="47.41093" lon="6.70814">
        <ele>395</ele>
        <time>2016-05-15T08:38:13.000Z</time>
      </trkpt>
      <trkpt lat="47.41091" lon="6.7082">
        <ele>394</ele>
        <time>2016-05-15T08:38:14.000Z</time>
      </trkpt>
      <trkpt lat="47.41089" lon="6.70827">
        <ele>392</ele>
        <time>2016-05-15T08:38:15.000Z</time>
      </trkpt>
      <trkpt lat="47.41087" lon="6.70832">
        <ele>390</ele>
        <time>2016-05-15T08:38:16.000Z</time>
      </trkpt>
      <trkpt lat="47.41085" lon="6.70838">
        <ele>391</ele>
        <time>2016-05-15T08:38:17.000Z</time>
      </trkpt>
      <trkpt lat="47.41083" lon="6.70844">
        <ele>391</ele>
        <time>2016-05-15T08:38:18.000Z</time>
      </trkpt>
      <trkpt lat="47.41082" lon="6.70848">
        <ele>392</ele>
        <time>2016-05-15T08:38:19.000Z</time>
      </trkpt>
      <trkpt lat="47.4108" lon="6.70853">
        <ele>393</ele>
        <time>2016-05-15T08:38:20.000Z</time>
      </trkpt>
      <trkpt lat="47.41078" lon="6.70859">
        <ele>394</ele>
        <time>2016-05-15T08:38:21.000Z</time>
      </trkpt>
      <trkpt lat="47.41076" lon="6.70865">
        <ele>395</ele>
        <time>2016-05-15T08:38:22.000Z</time>
      </trkpt>
      <trkpt lat="47.41075" lon="6.70871">
        <ele>395</ele>
        <time>2016-05-15T08:38:23.000Z</time>
      </trkpt>
      <trkpt lat="47.41074" lon="6.70876">
        <ele>395</ele>
        <time>2016-05-15T08:38:24.000Z</time>
      </trkpt>
      <trkpt lat="47.41073" lon="6.70882">
        <ele>395</ele>
        <time>2016-05-15T08:38:25.000Z</time>
      </trkpt>
      <trkpt lat="47.41071" lon="6.70888">
        <ele>395</ele>
        <time>2016-05-15T08:38:26.000Z</time>
      </trkpt>
      <trkpt lat="47.4107" lon="6.70895">
        <ele>395</ele>
        <time>2016-05-15T08:38:27.000Z</time>
      </trkpt>
      <trkpt lat="47.41069" lon="6.70901">
        <ele>395</ele>
        <time>2016-05-15T08:38:28.000Z</time>
      </trkpt>
      <trkpt lat="47.41068" lon="6.70907">
        <ele>395</ele>
        <time>2016-05-15T08:38:29.000Z</time>
      </trkpt>
      <trkpt lat="47.41066" lon="6.70913">
        <ele>395</ele>
        <time>2016-05-15T08:38:30.000Z</time>
      </trkpt>
      <trkpt lat="47.41065" lon="6.70918">
        <ele>395</ele>
        <time>2016-05-15T08:38:31.000Z</time>
      </trkpt>
      <trkpt lat="47.41064" lon="6.70924">
        <ele>395</ele>
        <time>2016-05-15T08:38:32.000Z</time>
      </trkpt>
      <trkpt lat="47.41064" lon="6.70929">
        <ele>395</ele>
        <time>2016-05-15T08:38:33.000Z</time>
      </trkpt>
      <trkpt lat="47.41063" lon="6.70935">
        <ele>396</ele>
        <time>2016-05-15T08:38:34.000Z</time>
      </trkpt>
      <trkpt lat="47.41063" lon="6.70941">
        <ele>396</ele>
        <time>2016-05-15T08:38:35.000Z</time>
      </trkpt>
      <trkpt lat="47.41062" lon="6.70946">
        <ele>396</ele>
        <time>2016-05-15T08:38:36.000Z</time>
      </trkpt>
      <trkpt lat="47.41061" lon="6.70951">
        <ele>396</ele>
        <time>2016-05-15T08:38:37.000Z</time>
      </trkpt>
      <trkpt lat="47.41061" lon="6.70957">
        <ele>397</ele>
        <time>2016-05-15T08:38:38.000Z</time>
      </trkpt>
      <trkpt lat="47.4106" lon="6.70963">
        <ele>397</ele>
        <time>2016-05-15T08:38:39.000Z</time>
      </trkpt>
      <trkpt lat="47.41059" lon="6.70969">
        <ele>397</ele>
        <time>2016-05-15T08:38:40.000Z</time>
      </trkpt>
      <trkpt lat="47.41058" lon="6.70976">
        <ele>397</ele>
        <time>2016-05-15T08:38:41.000Z</time>
      </trkpt>
      <trkpt lat="47.41057" lon="6.70982">
        <ele>397</ele>
        <time>2016-05-15T08:38:42.000Z</time>
      </trkpt>
      <trkpt lat="47.41056" lon="6.70987">
        <ele>397</ele>
        <time>2016-05-15T08:38:43.000Z</time>
      </trkpt>
      <trkpt lat="47.41055" lon="6.70992">
        <ele>397</ele>
        <time>2016-05-15T08:38:44.000Z</time>
      </trkpt>
      <trkpt lat="47.41054" lon="6.70997">
        <ele>397</ele>
        <time>2016-05-15T08:38:45.000Z</time>
      </trkpt>
      <trkpt lat="47.41053" lon="6.71001">
        <ele>400</ele>
        <time>2016-05-15T08:38:46.000Z</time>
      </trkpt>
      <trkpt lat="47.41053" lon="6.71006">
        <ele>400</ele>
        <time>2016-05-15T08:38:47.000Z</time>
      </trkpt>
      <trkpt lat="47.41052" lon="6.7101">
        <ele>400</ele>
        <time>2016-05-15T08:38:48.000Z</time>
      </trkpt>
      <trkpt lat="47.4105" lon="6.71015">
        <ele>400</ele>
        <time>2016-05-15T08:38:49.000Z</time>
      </trkpt>
      <trkpt lat="47.41045" lon="6.71018">
        <ele>400</ele>
        <time>2016-05-15T08:38:50.000Z</time>
      </trkpt>
      <trkpt lat="47.41042" lon="6.7102">
        <ele>400</ele>
        <time>2016-05-15T08:38:51.000Z</time>
      </trkpt>
      <trkpt lat="47.41039" lon="6.71024">
        <ele>400</ele>
        <time>2016-05-15T08:38:52.000Z</time>
      </trkpt>
      <trkpt lat="47.41039" lon="6.71032">
        <ele>400</ele>
        <time>2016-05-15T08:38:53.000Z</time>
      </trkpt>
      <trkpt lat="47.41038" lon="6.71037">
        <ele>400</ele>
        <time>2016-05-15T08:38:54.000Z</time>
      </trkpt>
      <trkpt lat="47.41037" lon="6.71042">
        <ele>400</ele>
        <time>2016-05-15T08:38:55.000Z</time>
      </trkpt>
      <trkpt lat="47.41037" lon="6.7105">
        <ele>400</ele>
        <time>2016-05-15T08:38:56.000Z</time>
      </trkpt>
      <trkpt lat="47.41036" lon="6.71056">
        <ele>401</ele>
        <time>2016-05-15T08:38:57.000Z</time>
      </trkpt>
      <trkpt lat="47.41034" lon="6.7106">
        <ele>400</ele>
        <time>2016-05-15T08:38:58.000Z</time>
      </trkpt>
      <trkpt lat="47.41032" lon="6.71064">
        <ele>400</ele>
        <time>2016-05-15T08:38:59.000Z</time>
      </trkpt>
      <trkpt lat="47.4103" lon="6.71069">
        <ele>400</ele>
        <time>2016-05-15T08:39:00.000Z</time>
      </trkpt>
      <trkpt lat="47.41028" lon="6.71074">
        <ele>400</ele>
        <time>2016-05-15T08:39:01.000Z</time>
      </trkpt>
      <trkpt lat="47.41026" lon="6.71078">
        <ele>400</ele>
        <time>2016-05-15T08:39:02.000Z</time>
      </trkpt>
      <trkpt lat="47.41025" lon="6.71083">
        <ele>399</ele>
        <time>2016-05-15T08:39:03.000Z</time>
      </trkpt>
      <trkpt lat="47.41025" lon="6.71091">
        <ele>403</ele>
        <time>2016-05-15T08:39:04.000Z</time>
      </trkpt>
      <trkpt lat="47.41022" lon="6.71096">
        <ele>402</ele>
        <time>2016-05-15T08:39:05.000Z</time>
      </trkpt>
      <trkpt lat="47.4102" lon="6.71101">
        <ele>402</ele>
        <time>2016-05-15T08:39:06.000Z</time>
      </trkpt>
      <trkpt lat="47.41017" lon="6.71106">
        <ele>402</ele>
        <time>2016-05-15T08:39:07.000Z</time>
      </trkpt>
      <trkpt lat="47.41015" lon="6.71112">
        <ele>403</ele>
        <time>2016-05-15T08:39:08.000Z</time>
      </trkpt>
      <trkpt lat="47.41015" lon="6.71122">
        <ele>403</ele>
        <time>2016-05-15T08:39:09.000Z</time>
      </trkpt>
      <trkpt lat="47.41014" lon="6.7113">
        <ele>403</ele>
        <time>2016-05-15T08:39:10.000Z</time>
      </trkpt>
      <trkpt lat="47.41015" lon="6.71141">
        <ele>403</ele>
        <time>2016-05-15T08:39:11.000Z</time>
      </trkpt>
      <trkpt lat="47.41014" lon="6.71149">
        <ele>402</ele>
        <time>2016-05-15T08:39:12.000Z</time>
      </trkpt>
      <trkpt lat="47.41014" lon="6.71155">
        <ele>402</ele>
        <time>2016-05-15T08:39:13.000Z</time>
      </trkpt>
      <trkpt lat="47.41012" lon="6.71161">
        <ele>401</ele>
        <time>2016-05-15T08:39:14.000Z</time>
      </trkpt>
      <trkpt lat="47.41011" lon="6.71167">
        <ele>402</ele>
        <time>2016-05-15T08:39:15.000Z</time>
      </trkpt>
      <trkpt lat="47.4101" lon="6.71174">
        <ele>402</ele>
        <time>2016-05-15T08:39:16.000Z</time>
      </trkpt>
      <trkpt lat="47.41009" lon="6.71181">
        <ele>404</ele>
        <time>2016-05-15T08:39:17.000Z</time>
      </trkpt>
      <trkpt lat="47.41005" lon="6.71185">
        <ele>404</ele>
        <time>2016-05-15T08:39:18.000Z</time>
      </trkpt>
      <trkpt lat="47.41001" lon="6.71186">
        <ele>404</ele>
        <time>2016-05-15T08:39:19.000Z</time>
      </trkpt>
      <trkpt lat="47.40999" lon="6.7119">
        <ele>400</ele>
        <time>2016-05-15T08:39:20.000Z</time>
      </trkpt>
      <trkpt lat="47.40998" lon="6.71195">
        <ele>400</ele>
        <time>2016-05-15T08:39:21.000Z</time>
      </trkpt>
      <trkpt lat="47.40997" lon="6.71199">
        <ele>400</ele>
        <time>2016-05-15T08:39:22.000Z</time>
      </trkpt>
      <trkpt lat="47.40996" lon="6.71205">
        <ele>401</ele>
        <time>2016-05-15T08:39:23.000Z</time>
      </trkpt>
      <trkpt lat="47.40995" lon="6.71209">
        <ele>401</ele>
        <time>2016-05-15T08:39:24.000Z</time>
      </trkpt>
      <trkpt lat="47.40994" lon="6.71212">
        <ele>401</ele>
        <time>2016-05-15T08:39:25.000Z</time>
      </trkpt>
      <trkpt lat="47.40993" lon="6.71216">
        <ele>401</ele>
        <time>2016-05-15T08:39:26.000Z</time>
      </trkpt>
      <trkpt lat="47.40993" lon="6.71221">
        <ele>401</ele>
        <time>2016-05-15T08:39:27.000Z</time>
      </trkpt>
      <trkpt lat="47.40992" lon="6.71226">
        <ele>401</ele>
        <time>2016-05-15T08:39:28.000Z</time>
      </trkpt>
      <trkpt lat="47.40992" lon="6.71233">
        <ele>401</ele>
        <time>2016-05-15T08:39:29.000Z</time>
      </trkpt>
      <trkpt lat="47.4099" lon="6.71239">
        <ele>401</ele>
        <time>2016-05-15T08:39:30.000Z</time>
      </trkpt>
      <trkpt lat="47.40988" lon="6.7125">
        <ele>402</ele>
        <time>2016-05-15T08:39:31.000Z</time>
      </trkpt>
      <trkpt lat="47.40987" lon="6.71257">
        <ele>403</ele>
        <time>2016-05-15T08:39:32.000Z</time>
      </trkpt>
      <trkpt lat="47.40986" lon="6.71264">
        <ele>404</ele>
        <time>2016-05-15T08:39:33.000Z</time>
      </trkpt>
      <trkpt lat="47.40984" lon="6.71268">
        <ele>404</ele>
        <time>2016-05-15T08:39:34.000Z</time>
      </trkpt>
      <trkpt lat="47.40984" lon="6.71273">
        <ele>404</ele>
        <time>2016-05-15T08:39:35.000Z</time>
      </trkpt>
      <trkpt lat="47.40982" lon="6.71276">
        <ele>405</ele>
        <time>2016-05-15T08:39:37.000Z</time>
      </trkpt>
      <trkpt lat="47.40981" lon="6.71279">
        <ele>405</ele>
        <time>2016-05-15T08:39:38.000Z</time>
      </trkpt>
      <trkpt lat="47.40979" lon="6.71284">
        <ele>405</ele>
        <time>2016-05-15T08:39:41.000Z</time>
      </trkpt>
      <trkpt lat="47.40978" lon="6.71287">
        <ele>406</ele>
        <time>2016-05-15T08:39:42.000Z</time>
      </trkpt>
      <trkpt lat="47.40976" lon="6.7129">
        <ele>406</ele>
        <time>2016-05-15T08:39:43.000Z</time>
      </trkpt>
      <trkpt lat="47.40975" lon="6.71293">
        <ele>406</ele>
        <time>2016-05-15T08:39:44.000Z</time>
      </trkpt>
      <trkpt lat="47.40973" lon="6.71296">
        <ele>406</ele>
        <time>2016-05-15T08:39:45.000Z</time>
      </trkpt>
      <trkpt lat="47.40972" lon="6.713">
        <ele>406</ele>
        <time>2016-05-15T08:39:46.000Z</time>
      </trkpt>
      <trkpt lat="47.4097" lon="6.71303">
        <ele>406</ele>
        <time>2016-05-15T08:39:47.000Z</time>
      </trkpt>
      <trkpt lat="47.40969" lon="6.71307">
        <ele>406</ele>
        <time>2016-05-15T08:39:48.000Z</time>
      </trkpt>
      <trkpt lat="47.40968" lon="6.7131">
        <ele>407</ele>
        <time>2016-05-15T08:39:49.000Z</time>
      </trkpt>
      <trkpt lat="47.40968" lon="6.71314">
        <ele>407</ele>
        <time>2016-05-15T08:39:50.000Z</time>
      </trkpt>
      <trkpt lat="47.40967" lon="6.71317">
        <ele>407</ele>
        <time>2016-05-15T08:39:51.000Z</time>
      </trkpt>
      <trkpt lat="47.40966" lon="6.7132">
        <ele>407</ele>
        <time>2016-05-15T08:39:52.000Z</time>
      </trkpt>
      <trkpt lat="47.40966" lon="6.71324">
        <ele>407</ele>
        <time>2016-05-15T08:39:53.000Z</time>
      </trkpt>
      <trkpt lat="47.40966" lon="6.71328">
        <ele>407</ele>
        <time>2016-05-15T08:39:54.000Z</time>
      </trkpt>
      <trkpt lat="47.40966" lon="6.71331">
        <ele>407</ele>
        <time>2016-05-15T08:39:55.000Z</time>
      </trkpt>
      <trkpt lat="47.40967" lon="6.71335">
        <ele>408</ele>
        <time>2016-05-15T08:39:56.000Z</time>
      </trkpt>
      <trkpt lat="47.40969" lon="6.71341">
        <ele>408</ele>
        <time>2016-05-15T08:39:58.000Z</time>
      </trkpt>
      <trkpt lat="47.40969" lon="6.71344">
        <ele>408</ele>
        <time>2016-05-15T08:39:59.000Z</time>
      </trkpt>
      <trkpt lat="47.40967" lon="6.7135">
        <ele>408</ele>
        <time>2016-05-15T08:40:01.000Z</time>
      </trkpt>
      <trkpt lat="47.40966" lon="6.71352">
        <ele>409</ele>
        <time>2016-05-15T08:40:02.000Z</time>
      </trkpt>
      <trkpt lat="47.40964" lon="6.71358">
        <ele>409</ele>
        <time>2016-05-15T08:40:04.000Z</time>
      </trkpt>
      <trkpt lat="47.40963" lon="6.71362">
        <ele>409</ele>
        <time>2016-05-15T08:40:05.000Z</time>
      </trkpt>
      <trkpt lat="47.40962" lon="6.71365">
        <ele>409</ele>
        <time>2016-05-15T08:40:06.000Z</time>
      </trkpt>
      <trkpt lat="47.40962" lon="6.71369">
        <ele>409</ele>
        <time>2016-05-15T08:40:07.000Z</time>
      </trkpt>
      <trkpt lat="47.40961" lon="6.71372">
        <ele>409</ele>
        <time>2016-05-15T08:40:08.000Z</time>
      </trkpt>
      <trkpt lat="47.40961" lon="6.71375">
        <ele>409</ele>
        <time>2016-05-15T08:40:09.000Z</time>
      </trkpt>
      <trkpt lat="47.4096" lon="6.71379">
        <ele>409</ele>
        <time>2016-05-15T08:40:10.000Z</time>
      </trkpt>
      <trkpt lat="47.4096" lon="6.71384">
        <ele>409</ele>
        <time>2016-05-15T08:40:11.000Z</time>
      </trkpt>
      <trkpt lat="47.40959" lon="6.71389">
        <ele>409</ele>
        <time>2016-05-15T08:40:12.000Z</time>
      </trkpt>
      <trkpt lat="47.40958" lon="6.71394">
        <ele>408</ele>
        <time>2016-05-15T08:40:13.000Z</time>
      </trkpt>
      <trkpt lat="47.40957" lon="6.71399">
        <ele>408</ele>
        <time>2016-05-15T08:40:14.000Z</time>
      </trkpt>
      <trkpt lat="47.40956" lon="6.71404">
        <ele>408</ele>
        <time>2016-05-15T08:40:15.000Z</time>
      </trkpt>
      <trkpt lat="47.40955" lon="6.7141">
        <ele>408</ele>
        <time>2016-05-15T08:40:16.000Z</time>
      </trkpt>
      <trkpt lat="47.40955" lon="6.71415">
        <ele>408</ele>
        <time>2016-05-15T08:40:17.000Z</time>
      </trkpt>
      <trkpt lat="47.40955" lon="6.7142">
        <ele>409</ele>
        <time>2016-05-15T08:40:18.000Z</time>
      </trkpt>
      <trkpt lat="47.40956" lon="6.71424">
        <ele>409</ele>
        <time>2016-05-15T08:40:19.000Z</time>
      </trkpt>
      <trkpt lat="47.40955" lon="6.71429">
        <ele>409</ele>
        <time>2016-05-15T08:40:20.000Z</time>
      </trkpt>
      <trkpt lat="47.40955" lon="6.71434">
        <ele>409</ele>
        <time>2016-05-15T08:40:21.000Z</time>
      </trkpt>
      <trkpt lat="47.40955" lon="6.71439">
        <ele>409</ele>
        <time>2016-05-15T08:40:22.000Z</time>
      </trkpt>
      <trkpt lat="47.40954" lon="6.71444">
        <ele>409</ele>
        <time>2016-05-15T08:40:23.000Z</time>
      </trkpt>
      <trkpt lat="47.40954" lon="6.71449">
        <ele>410</ele>
        <time>2016-05-15T08:40:24.000Z</time>
      </trkpt>
      <trkpt lat="47.40955" lon="6.71454">
        <ele>410</ele>
        <time>2016-05-15T08:40:25.000Z</time>
      </trkpt>
      <trkpt lat="47.40956" lon="6.71459">
        <ele>410</ele>
        <time>2016-05-15T08:40:26.000Z</time>
      </trkpt>
      <trkpt lat="47.40957" lon="6.71465">
        <ele>410</ele>
        <time>2016-05-15T08:40:27.000Z</time>
      </trkpt>
      <trkpt lat="47.40958" lon="6.7147">
        <ele>410</ele>
        <time>2016-05-15T08:40:28.000Z</time>
      </trkpt>
      <trkpt lat="47.4096" lon="6.71475">
        <ele>410</ele>
        <time>2016-05-15T08:40:29.000Z</time>
      </trkpt>
      <trkpt lat="47.40961" lon="6.71481">
        <ele>410</ele>
        <time>2016-05-15T08:40:30.000Z</time>
      </trkpt>
      <trkpt lat="47.40961" lon="6.71487">
        <ele>410</ele>
        <time>2016-05-15T08:40:31.000Z</time>
      </trkpt>
      <trkpt lat="47.40961" lon="6.71493">
        <ele>410</ele>
        <time>2016-05-15T08:40:32.000Z</time>
      </trkpt>
      <trkpt lat="47.4096" lon="6.715">
        <ele>410</ele>
        <time>2016-05-15T08:40:33.000Z</time>
      </trkpt>
      <trkpt lat="47.40958" lon="6.71505">
        <ele>411</ele>
        <time>2016-05-15T08:40:34.000Z</time>
      </trkpt>
      <trkpt lat="47.40957" lon="6.71509">
        <ele>411</ele>
        <time>2016-05-15T08:40:35.000Z</time>
      </trkpt>
      <trkpt lat="47.40956" lon="6.71514">
        <ele>411</ele>
        <time>2016-05-15T08:40:36.000Z</time>
      </trkpt>
      <trkpt lat="47.40956" lon="6.71519">
        <ele>411</ele>
        <time>2016-05-15T08:40:37.000Z</time>
      </trkpt>
      <trkpt lat="47.40955" lon="6.71523">
        <ele>411</ele>
        <time>2016-05-15T08:40:38.000Z</time>
      </trkpt>
      <trkpt lat="47.40954" lon="6.71528">
        <ele>411</ele>
        <time>2016-05-15T08:40:39.000Z</time>
      </trkpt>
      <trkpt lat="47.40953" lon="6.71532">
        <ele>411</ele>
        <time>2016-05-15T08:40:40.000Z</time>
      </trkpt>
      <trkpt lat="47.40952" lon="6.71537">
        <ele>411</ele>
        <time>2016-05-15T08:40:41.000Z</time>
      </trkpt>
      <trkpt lat="47.40952" lon="6.71541">
        <ele>411</ele>
        <time>2016-05-15T08:40:42.000Z</time>
      </trkpt>
      <trkpt lat="47.40951" lon="6.71545">
        <ele>411</ele>
        <time>2016-05-15T08:40:43.000Z</time>
      </trkpt>
      <trkpt lat="47.4095" lon="6.71549">
        <ele>411</ele>
        <time>2016-05-15T08:40:44.000Z</time>
      </trkpt>
      <trkpt lat="47.40949" lon="6.71552">
        <ele>411</ele>
        <time>2016-05-15T08:40:45.000Z</time>
      </trkpt>
      <trkpt lat="47.40948" lon="6.71555">
        <ele>411</ele>
        <time>2016-05-15T08:40:46.000Z</time>
      </trkpt>
      <trkpt lat="47.40947" lon="6.71558">
        <ele>411</ele>
        <time>2016-05-15T08:40:47.000Z</time>
      </trkpt>
      <trkpt lat="47.40946" lon="6.71562">
        <ele>410</ele>
        <time>2016-05-15T08:40:49.000Z</time>
      </trkpt>
      <trkpt lat="47.40945" lon="6.71565">
        <ele>410</ele>
        <time>2016-05-15T08:40:50.000Z</time>
      </trkpt>
      <trkpt lat="47.40942" lon="6.71569">
        <ele>410</ele>
        <time>2016-05-15T08:40:52.000Z</time>
      </trkpt>
      <trkpt lat="47.4094" lon="6.71571">
        <ele>410</ele>
        <time>2016-05-15T08:40:53.000Z</time>
      </trkpt>
      <trkpt lat="47.40937" lon="6.71573">
        <ele>410</ele>
        <time>2016-05-15T08:40:54.000Z</time>
      </trkpt>
      <trkpt lat="47.40935" lon="6.71575">
        <ele>410</ele>
        <time>2016-05-15T08:40:55.000Z</time>
      </trkpt>
      <trkpt lat="47.40933" lon="6.71578">
        <ele>410</ele>
        <time>2016-05-15T08:40:56.000Z</time>
      </trkpt>
      <trkpt lat="47.40931" lon="6.71583">
        <ele>410</ele>
        <time>2016-05-15T08:40:57.000Z</time>
      </trkpt>
      <trkpt lat="47.40929" lon="6.71587">
        <ele>411</ele>
        <time>2016-05-15T08:40:58.000Z</time>
      </trkpt>
      <trkpt lat="47.40927" lon="6.7159">
        <ele>411</ele>
        <time>2016-05-15T08:40:59.000Z</time>
      </trkpt>
      <trkpt lat="47.40924" lon="6.71594">
        <ele>411</ele>
        <time>2016-05-15T08:41:00.000Z</time>
      </trkpt>
      <trkpt lat="47.40922" lon="6.71597">
        <ele>411</ele>
        <time>2016-05-15T08:41:01.000Z</time>
      </trkpt>
      <trkpt lat="47.4092" lon="6.716">
        <ele>411</ele>
        <time>2016-05-15T08:41:02.000Z</time>
      </trkpt>
      <trkpt lat="47.40918" lon="6.71604">
        <ele>411</ele>
        <time>2016-05-15T08:41:03.000Z</time>
      </trkpt>
      <trkpt lat="47.40917" lon="6.71607">
        <ele>412</ele>
        <time>2016-05-15T08:41:04.000Z</time>
      </trkpt>
      <trkpt lat="47.40916" lon="6.7161">
        <ele>416</ele>
        <time>2016-05-15T08:41:05.000Z</time>
      </trkpt>
      <trkpt lat="47.40914" lon="6.71615">
        <ele>417</ele>
        <time>2016-05-15T08:41:07.000Z</time>
      </trkpt>
      <trkpt lat="47.40913" lon="6.71618">
        <ele>417</ele>
        <time>2016-05-15T08:41:08.000Z</time>
      </trkpt>
      <trkpt lat="47.40911" lon="6.7162">
        <ele>417</ele>
        <time>2016-05-15T08:41:09.000Z</time>
      </trkpt>
      <trkpt lat="47.4091" lon="6.71623">
        <ele>418</ele>
        <time>2016-05-15T08:41:10.000Z</time>
      </trkpt>
      <trkpt lat="47.40908" lon="6.71627">
        <ele>418</ele>
        <time>2016-05-15T08:41:11.000Z</time>
      </trkpt>
      <trkpt lat="47.40906" lon="6.71631">
        <ele>418</ele>
        <time>2016-05-15T08:41:12.000Z</time>
      </trkpt>
      <trkpt lat="47.40904" lon="6.71635">
        <ele>418</ele>
        <time>2016-05-15T08:41:13.000Z</time>
      </trkpt>
      <trkpt lat="47.40902" lon="6.7164">
        <ele>418</ele>
        <time>2016-05-15T08:41:14.000Z</time>
      </trkpt>
      <trkpt lat="47.409" lon="6.71645">
        <ele>418</ele>
        <time>2016-05-15T08:41:15.000Z</time>
      </trkpt>
      <trkpt lat="47.40898" lon="6.71651">
        <ele>417</ele>
        <time>2016-05-15T08:41:16.000Z</time>
      </trkpt>
      <trkpt lat="47.40895" lon="6.71659">
        <ele>417</ele>
        <time>2016-05-15T08:41:17.000Z</time>
      </trkpt>
      <trkpt lat="47.40893" lon="6.71666">
        <ele>418</ele>
        <time>2016-05-15T08:41:18.000Z</time>
      </trkpt>
      <trkpt lat="47.40891" lon="6.71674">
        <ele>417</ele>
        <time>2016-05-15T08:41:19.000Z</time>
      </trkpt>
      <trkpt lat="47.40889" lon="6.71681">
        <ele>417</ele>
        <time>2016-05-15T08:41:20.000Z</time>
      </trkpt>
      <trkpt lat="47.40887" lon="6.71687">
        <ele>417</ele>
        <time>2016-05-15T08:41:21.000Z</time>
      </trkpt>
      <trkpt lat="47.40885" lon="6.71692">
        <ele>418</ele>
        <time>2016-05-15T08:41:22.000Z</time>
      </trkpt>
      <trkpt lat="47.40884" lon="6.71698">
        <ele>418</ele>
        <time>2016-05-15T08:41:23.000Z</time>
      </trkpt>
      <trkpt lat="47.40882" lon="6.71702">
        <ele>418</ele>
        <time>2016-05-15T08:41:24.000Z</time>
      </trkpt>
      <trkpt lat="47.4088" lon="6.71707">
        <ele>418</ele>
        <time>2016-05-15T08:41:25.000Z</time>
      </trkpt>
      <trkpt lat="47.40878" lon="6.71713">
        <ele>418</ele>
        <time>2016-05-15T08:41:26.000Z</time>
      </trkpt>
      <trkpt lat="47.40875" lon="6.71718">
        <ele>418</ele>
        <time>2016-05-15T08:41:27.000Z</time>
      </trkpt>
      <trkpt lat="47.40873" lon="6.71723">
        <ele>418</ele>
        <time>2016-05-15T08:41:28.000Z</time>
      </trkpt>
      <trkpt lat="47.40871" lon="6.71727">
        <ele>418</ele>
        <time>2016-05-15T08:41:29.000Z</time>
      </trkpt>
      <trkpt lat="47.40869" lon="6.7173">
        <ele>417</ele>
        <time>2016-05-15T08:41:30.000Z</time>
      </trkpt>
      <trkpt lat="47.40867" lon="6.71734">
        <ele>417</ele>
        <time>2016-05-15T08:41:31.000Z</time>
      </trkpt>
      <trkpt lat="47.40864" lon="6.71738">
        <ele>417</ele>
        <time>2016-05-15T08:41:32.000Z</time>
      </trkpt>
      <trkpt lat="47.40861" lon="6.71743">
        <ele>417</ele>
        <time>2016-05-15T08:41:33.000Z</time>
      </trkpt>
      <trkpt lat="47.40858" lon="6.71748">
        <ele>416</ele>
        <time>2016-05-15T08:41:34.000Z</time>
      </trkpt>
      <trkpt lat="47.40856" lon="6.71753">
        <ele>415</ele>
        <time>2016-05-15T08:41:35.000Z</time>
      </trkpt>
      <trkpt lat="47.40854" lon="6.71758">
        <ele>415</ele>
        <time>2016-05-15T08:41:36.000Z</time>
      </trkpt>
      <trkpt lat="47.40852" lon="6.71761">
        <ele>415</ele>
        <time>2016-05-15T08:41:37.000Z</time>
      </trkpt>
      <trkpt lat="47.4085" lon="6.71766">
        <ele>415</ele>
        <time>2016-05-15T08:41:38.000Z</time>
      </trkpt>
      <trkpt lat="47.40847" lon="6.71769">
        <ele>415</ele>
        <time>2016-05-15T08:41:39.000Z</time>
      </trkpt>
      <trkpt lat="47.40845" lon="6.71773">
        <ele>415</ele>
        <time>2016-05-15T08:41:40.000Z</time>
      </trkpt>
      <trkpt lat="47.40843" lon="6.71778">
        <ele>415</ele>
        <time>2016-05-15T08:41:41.000Z</time>
      </trkpt>
      <trkpt lat="47.4084" lon="6.71782">
        <ele>415</ele>
        <time>2016-05-15T08:41:42.000Z</time>
      </trkpt>
      <trkpt lat="47.40837" lon="6.71788">
        <ele>415</ele>
        <time>2016-05-15T08:41:43.000Z</time>
      </trkpt>
      <trkpt lat="47.40834" lon="6.71794">
        <ele>415</ele>
        <time>2016-05-15T08:41:44.000Z</time>
      </trkpt>
      <trkpt lat="47.40831" lon="6.71799">
        <ele>420</ele>
        <time>2016-05-15T08:41:45.000Z</time>
      </trkpt>
      <trkpt lat="47.4083" lon="6.71803">
        <ele>420</ele>
        <time>2016-05-15T08:41:46.000Z</time>
      </trkpt>
      <trkpt lat="47.40828" lon="6.71807">
        <ele>419</ele>
        <time>2016-05-15T08:41:47.000Z</time>
      </trkpt>
      <trkpt lat="47.40827" lon="6.71811">
        <ele>419</ele>
        <time>2016-05-15T08:41:48.000Z</time>
      </trkpt>
      <trkpt lat="47.40825" lon="6.71814">
        <ele>419</ele>
        <time>2016-05-15T08:41:49.000Z</time>
      </trkpt>
      <trkpt lat="47.40823" lon="6.71817">
        <ele>418</ele>
        <time>2016-05-15T08:41:50.000Z</time>
      </trkpt>
      <trkpt lat="47.4082" lon="6.71819">
        <ele>419</ele>
        <time>2016-05-15T08:41:51.000Z</time>
      </trkpt>
      <trkpt lat="47.40818" lon="6.71821">
        <ele>419</ele>
        <time>2016-05-15T08:41:52.000Z</time>
      </trkpt>
      <trkpt lat="47.40815" lon="6.71823">
        <ele>419</ele>
        <time>2016-05-15T08:41:53.000Z</time>
      </trkpt>
      <trkpt lat="47.40813" lon="6.71825">
        <ele>419</ele>
        <time>2016-05-15T08:41:54.000Z</time>
      </trkpt>
      <trkpt lat="47.40812" lon="6.71829">
        <ele>420</ele>
        <time>2016-05-15T08:41:55.000Z</time>
      </trkpt>
      <trkpt lat="47.4081" lon="6.71832">
        <ele>420</ele>
        <time>2016-05-15T08:41:56.000Z</time>
      </trkpt>
      <trkpt lat="47.40807" lon="6.71835">
        <ele>418</ele>
        <time>2016-05-15T08:41:57.000Z</time>
      </trkpt>
      <trkpt lat="47.40805" lon="6.71838">
        <ele>419</ele>
        <time>2016-05-15T08:41:58.000Z</time>
      </trkpt>
      <trkpt lat="47.40802" lon="6.7184">
        <ele>419</ele>
        <time>2016-05-15T08:41:59.000Z</time>
      </trkpt>
      <trkpt lat="47.408" lon="6.71842">
        <ele>420</ele>
        <time>2016-05-15T08:42:00.000Z</time>
      </trkpt>
      <trkpt lat="47.40797" lon="6.71844">
        <ele>420</ele>
        <time>2016-05-15T08:42:01.000Z</time>
      </trkpt>
      <trkpt lat="47.40795" lon="6.71846">
        <ele>420</ele>
        <time>2016-05-15T08:42:02.000Z</time>
      </trkpt>
      <trkpt lat="47.40792" lon="6.71848">
        <ele>421</ele>
        <time>2016-05-15T08:42:03.000Z</time>
      </trkpt>
      <trkpt lat="47.4079" lon="6.71851">
        <ele>421</ele>
        <time>2016-05-15T08:42:04.000Z</time>
      </trkpt>
      <trkpt lat="47.40788" lon="6.71854">
        <ele>421</ele>
        <time>2016-05-15T08:42:05.000Z</time>
      </trkpt>
      <trkpt lat="47.40786" lon="6.71857">
        <ele>421</ele>
        <time>2016-05-15T08:42:06.000Z</time>
      </trkpt>
      <trkpt lat="47.40783" lon="6.71859">
        <ele>422</ele>
        <time>2016-05-15T08:42:07.000Z</time>
      </trkpt>
      <trkpt lat="47.40781" lon="6.71863">
        <ele>422</ele>
        <time>2016-05-15T08:42:08.000Z</time>
      </trkpt>
      <trkpt lat="47.40778" lon="6.71865">
        <ele>422</ele>
        <time>2016-05-15T08:42:09.000Z</time>
      </trkpt>
      <trkpt lat="47.40775" lon="6.71868">
        <ele>422</ele>
        <time>2016-05-15T08:42:10.000Z</time>
      </trkpt>
      <trkpt lat="47.40772" lon="6.71872">
        <ele>422</ele>
        <time>2016-05-15T08:42:11.000Z</time>
      </trkpt>
      <trkpt lat="47.40769" lon="6.71875">
        <ele>422</ele>
        <time>2016-05-15T08:42:12.000Z</time>
      </trkpt>
      <trkpt lat="47.40767" lon="6.71879">
        <ele>422</ele>
        <time>2016-05-15T08:42:13.000Z</time>
      </trkpt>
      <trkpt lat="47.40765" lon="6.71882">
        <ele>421</ele>
        <time>2016-05-15T08:42:14.000Z</time>
      </trkpt>
      <trkpt lat="47.40762" lon="6.71886">
        <ele>421</ele>
        <time>2016-05-15T08:42:15.000Z</time>
      </trkpt>
      <trkpt lat="47.4076" lon="6.7189">
        <ele>421</ele>
        <time>2016-05-15T08:42:16.000Z</time>
      </trkpt>
      <trkpt lat="47.40757" lon="6.71894">
        <ele>421</ele>
        <time>2016-05-15T08:42:17.000Z</time>
      </trkpt>
      <trkpt lat="47.40754" lon="6.71898">
        <ele>420</ele>
        <time>2016-05-15T08:42:18.000Z</time>
      </trkpt>
      <trkpt lat="47.40752" lon="6.71902">
        <ele>420</ele>
        <time>2016-05-15T08:42:19.000Z</time>
      </trkpt>
      <trkpt lat="47.40749" lon="6.71906">
        <ele>423</ele>
        <time>2016-05-15T08:42:20.000Z</time>
      </trkpt>
      <trkpt lat="47.40748" lon="6.71909">
        <ele>422</ele>
        <time>2016-05-15T08:42:21.000Z</time>
      </trkpt>
      <trkpt lat="47.40746" lon="6.71913">
        <ele>421</ele>
        <time>2016-05-15T08:42:22.000Z</time>
      </trkpt>
      <trkpt lat="47.40744" lon="6.71917">
        <ele>421</ele>
        <time>2016-05-15T08:42:23.000Z</time>
      </trkpt>
      <trkpt lat="47.40742" lon="6.71921">
        <ele>420</ele>
        <time>2016-05-15T08:42:24.000Z</time>
      </trkpt>
      <trkpt lat="47.40741" lon="6.71925">
        <ele>421</ele>
        <time>2016-05-15T08:42:25.000Z</time>
      </trkpt>
      <trkpt lat="47.40739" lon="6.71928">
        <ele>421</ele>
        <time>2016-05-15T08:42:26.000Z</time>
      </trkpt>
      <trkpt lat="47.40738" lon="6.71932">
        <ele>421</ele>
        <time>2016-05-15T08:42:27.000Z</time>
      </trkpt>
      <trkpt lat="47.40737" lon="6.71934">
        <ele>422</ele>
        <time>2016-05-15T08:42:28.000Z</time>
      </trkpt>
      <trkpt lat="47.40734" lon="6.71939">
        <ele>422</ele>
        <time>2016-05-15T08:42:30.000Z</time>
      </trkpt>
      <trkpt lat="47.40733" lon="6.71942">
        <ele>422</ele>
        <time>2016-05-15T08:42:31.000Z</time>
      </trkpt>
      <trkpt lat="47.4073" lon="6.71946">
        <ele>422</ele>
        <time>2016-05-15T08:42:34.000Z</time>
      </trkpt>
      <trkpt lat="47.40729" lon="6.71948">
        <ele>422</ele>
        <time>2016-05-15T08:42:35.000Z</time>
      </trkpt>
      <trkpt lat="47.40727" lon="6.71953">
        <ele>423</ele>
        <time>2016-05-15T08:42:37.000Z</time>
      </trkpt>
      <trkpt lat="47.40726" lon="6.71955">
        <ele>423</ele>
        <time>2016-05-15T08:42:38.000Z</time>
      </trkpt>
      <trkpt lat="47.40724" lon="6.71958">
        <ele>423</ele>
        <time>2016-05-15T08:42:39.000Z</time>
      </trkpt>
      <trkpt lat="47.40723" lon="6.71963">
        <ele>423</ele>
        <time>2016-05-15T08:42:40.000Z</time>
      </trkpt>
      <trkpt lat="47.40723" lon="6.71968">
        <ele>423</ele>
        <time>2016-05-15T08:42:41.000Z</time>
      </trkpt>
      <trkpt lat="47.40722" lon="6.71972">
        <ele>423</ele>
        <time>2016-05-15T08:42:42.000Z</time>
      </trkpt>
      <trkpt lat="47.4072" lon="6.71976">
        <ele>423</ele>
        <time>2016-05-15T08:42:44.000Z</time>
      </trkpt>
      <trkpt lat="47.40718" lon="6.71976">
        <ele>423</ele>
        <time>2016-05-15T08:42:45.000Z</time>
      </trkpt>
      <trkpt lat="47.40715" lon="6.71977">
        <ele>423</ele>
        <time>2016-05-15T08:42:47.000Z</time>
      </trkpt>
      <trkpt lat="47.40713" lon="6.71977">
        <ele>423</ele>
        <time>2016-05-15T08:42:48.000Z</time>
      </trkpt>
      <trkpt lat="47.40709" lon="6.71977">
        <ele>423</ele>
        <time>2016-05-15T08:42:50.000Z</time>
      </trkpt>
      <trkpt lat="47.40708" lon="6.71977">
        <ele>423</ele>
        <time>2016-05-15T08:42:51.000Z</time>
      </trkpt>
      <trkpt lat="47.40704" lon="6.71979">
        <ele>423</ele>
        <time>2016-05-15T08:42:53.000Z</time>
      </trkpt>
      <trkpt lat="47.40702" lon="6.71981">
        <ele>423</ele>
        <time>2016-05-15T08:42:54.000Z</time>
      </trkpt>
      <trkpt lat="47.407" lon="6.71984">
        <ele>423</ele>
        <time>2016-05-15T08:42:55.000Z</time>
      </trkpt>
      <trkpt lat="47.40698" lon="6.71986">
        <ele>422</ele>
        <time>2016-05-15T08:42:56.000Z</time>
      </trkpt>
      <trkpt lat="47.40695" lon="6.7199">
        <ele>422</ele>
        <time>2016-05-15T08:43:00.000Z</time>
      </trkpt>
      <trkpt lat="47.40694" lon="6.71991">
        <ele>422</ele>
        <time>2016-05-15T08:43:01.000Z</time>
      </trkpt>
      <trkpt lat="47.4069" lon="6.71994">
        <ele>422</ele>
        <time>2016-05-15T08:43:04.000Z</time>
      </trkpt>
      <trkpt lat="47.40688" lon="6.71996">
        <ele>422</ele>
        <time>2016-05-15T08:43:05.000Z</time>
      </trkpt>
      <trkpt lat="47.40686" lon="6.71998">
        <ele>422</ele>
        <time>2016-05-15T08:43:06.000Z</time>
      </trkpt>
      <trkpt lat="47.40684" lon="6.72">
        <ele>423</ele>
        <time>2016-05-15T08:43:07.000Z</time>
      </trkpt>
      <trkpt lat="47.40681" lon="6.72004">
        <ele>423</ele>
        <time>2016-05-15T08:43:09.000Z</time>
      </trkpt>
      <trkpt lat="47.4068" lon="6.72005">
        <ele>423</ele>
        <time>2016-05-15T08:43:10.000Z</time>
      </trkpt>
      <trkpt lat="47.40677" lon="6.72007">
        <ele>423</ele>
        <time>2016-05-15T08:43:11.000Z</time>
      </trkpt>
      <trkpt lat="47.40676" lon="6.72009">
        <ele>423</ele>
        <time>2016-05-15T08:43:12.000Z</time>
      </trkpt>
      <trkpt lat="47.40675" lon="6.72015">
        <ele>423</ele>
        <time>2016-05-15T08:43:15.000Z</time>
      </trkpt>
      <trkpt lat="47.40675" lon="6.72015">
        <ele>424</ele>
        <time>2016-05-15T08:43:16.000Z</time>
      </trkpt>
      <trkpt lat="47.40673" lon="6.72019">
        <ele>424</ele>
        <time>2016-05-15T08:43:19.000Z</time>
      </trkpt>
      <trkpt lat="47.40672" lon="6.7202">
        <ele>424</ele>
        <time>2016-05-15T08:43:20.000Z</time>
      </trkpt>
      <trkpt lat="47.4067" lon="6.72022">
        <ele>424</ele>
        <time>2016-05-15T08:43:21.000Z</time>
      </trkpt>
      <trkpt lat="47.40668" lon="6.72025">
        <ele>424</ele>
        <time>2016-05-15T08:43:22.000Z</time>
      </trkpt>
      <trkpt lat="47.40665" lon="6.7203">
        <ele>428</ele>
        <time>2016-05-15T08:43:25.000Z</time>
      </trkpt>
      <trkpt lat="47.40665" lon="6.72031">
        <ele>428</ele>
        <time>2016-05-15T08:43:26.000Z</time>
      </trkpt>
      <trkpt lat="47.40664" lon="6.72037">
        <ele>429</ele>
        <time>2016-05-15T08:43:30.000Z</time>
      </trkpt>
      <trkpt lat="47.40665" lon="6.72039">
        <ele>429</ele>
        <time>2016-05-15T08:43:31.000Z</time>
      </trkpt>
      <trkpt lat="47.40665" lon="6.72042">
        <ele>429</ele>
        <time>2016-05-15T08:43:33.000Z</time>
      </trkpt>
      <trkpt lat="47.40665" lon="6.72047">
        <ele>429</ele>
        <time>2016-05-15T08:43:34.000Z</time>
      </trkpt>
      <trkpt lat="47.40664" lon="6.72053">
        <ele>429</ele>
        <time>2016-05-15T08:43:37.000Z</time>
      </trkpt>
      <trkpt lat="47.40663" lon="6.72054">
        <ele>429</ele>
        <time>2016-05-15T08:43:38.000Z</time>
      </trkpt>
      <trkpt lat="47.40661" lon="6.72058">
        <ele>429</ele>
        <time>2016-05-15T08:43:41.000Z</time>
      </trkpt>
      <trkpt lat="47.4066" lon="6.7206">
        <ele>429</ele>
        <time>2016-05-15T08:43:42.000Z</time>
      </trkpt>
      <trkpt lat="47.40658" lon="6.72066">
        <ele>428</ele>
        <time>2016-05-15T08:43:45.000Z</time>
      </trkpt>
      <trkpt lat="47.40659" lon="6.72068">
        <ele>428</ele>
        <time>2016-05-15T08:43:46.000Z</time>
      </trkpt>
      <trkpt lat="47.40658" lon="6.72074">
        <ele>427</ele>
        <time>2016-05-15T08:43:57.000Z</time>
      </trkpt>
      <trkpt lat="47.40658" lon="6.72075">
        <ele>427</ele>
        <time>2016-05-15T08:43:58.000Z</time>
      </trkpt>
      <trkpt lat="47.40658" lon="6.7208">
        <ele>427</ele>
        <time>2016-05-15T08:44:03.000Z</time>
      </trkpt>
      <trkpt lat="47.40658" lon="6.72083">
        <ele>427</ele>
        <time>2016-05-15T08:44:04.000Z</time>
      </trkpt>
      <trkpt lat="47.40658" lon="6.72088">
        <ele>428</ele>
        <time>2016-05-15T08:44:06.000Z</time>
      </trkpt>
      <trkpt lat="47.40658" lon="6.7209">
        <ele>429</ele>
        <time>2016-05-15T08:44:07.000Z</time>
      </trkpt>
      <trkpt lat="47.40658" lon="6.72096">
        <ele>430</ele>
        <time>2016-05-15T08:44:09.000Z</time>
      </trkpt>
      <trkpt lat="47.40657" lon="6.72098">
        <ele>431</ele>
        <time>2016-05-15T08:44:10.000Z</time>
      </trkpt>
      <trkpt lat="47.40656" lon="6.72104">
        <ele>432</ele>
        <time>2016-05-15T08:44:12.000Z</time>
      </trkpt>
      <trkpt lat="47.40655" lon="6.72107">
        <ele>433</ele>
        <time>2016-05-15T08:44:13.000Z</time>
      </trkpt>
      <trkpt lat="47.40653" lon="6.72113">
        <ele>434</ele>
        <time>2016-05-15T08:44:15.000Z</time>
      </trkpt>
      <trkpt lat="47.40652" lon="6.72115">
        <ele>434</ele>
        <time>2016-05-15T08:44:16.000Z</time>
      </trkpt>
      <trkpt lat="47.40651" lon="6.7212">
        <ele>434</ele>
        <time>2016-05-15T08:44:18.000Z</time>
      </trkpt>
      <trkpt lat="47.4065" lon="6.72123">
        <ele>435</ele>
        <time>2016-05-15T08:44:19.000Z</time>
      </trkpt>
      <trkpt lat="47.40651" lon="6.72128">
        <ele>435</ele>
        <time>2016-05-15T08:44:21.000Z</time>
      </trkpt>
      <trkpt lat="47.4065" lon="6.72131">
        <ele>435</ele>
        <time>2016-05-15T08:44:22.000Z</time>
      </trkpt>
      <trkpt lat="47.40649" lon="6.72137">
        <ele>435</ele>
        <time>2016-05-15T08:44:24.000Z</time>
      </trkpt>
      <trkpt lat="47.40648" lon="6.7214">
        <ele>436</ele>
        <time>2016-05-15T08:44:25.000Z</time>
      </trkpt>
      <trkpt lat="47.40647" lon="6.72145">
        <ele>436</ele>
        <time>2016-05-15T08:44:27.000Z</time>
      </trkpt>
      <trkpt lat="47.40646" lon="6.72147">
        <ele>436</ele>
        <time>2016-05-15T08:44:28.000Z</time>
      </trkpt>
      <trkpt lat="47.40646" lon="6.72153">
        <ele>436</ele>
        <time>2016-05-15T08:44:30.000Z</time>
      </trkpt>
      <trkpt lat="47.40646" lon="6.72155">
        <ele>436</ele>
        <time>2016-05-15T08:44:31.000Z</time>
      </trkpt>
      <trkpt lat="47.40646" lon="6.72159">
        <ele>436</ele>
        <time>2016-05-15T08:44:32.000Z</time>
      </trkpt>
      <trkpt lat="47.40645" lon="6.72162">
        <ele>436</ele>
        <time>2016-05-15T08:44:33.000Z</time>
      </trkpt>
      <trkpt lat="47.40645" lon="6.72165">
        <ele>436</ele>
        <time>2016-05-15T08:44:34.000Z</time>
      </trkpt>
      <trkpt lat="47.40645" lon="6.72169">
        <ele>438</ele>
        <time>2016-05-15T08:44:35.000Z</time>
      </trkpt>
      <trkpt lat="47.40645" lon="6.72173">
        <ele>438</ele>
        <time>2016-05-15T08:44:36.000Z</time>
      </trkpt>
      <trkpt lat="47.40644" lon="6.72176">
        <ele>438</ele>
        <time>2016-05-15T08:44:37.000Z</time>
      </trkpt>
      <trkpt lat="47.40641" lon="6.7218">
        <ele>438</ele>
        <time>2016-05-15T08:44:39.000Z</time>
      </trkpt>
      <trkpt lat="47.4064" lon="6.72182">
        <ele>439</ele>
        <time>2016-05-15T08:44:40.000Z</time>
      </trkpt>
      <trkpt lat="47.40638" lon="6.72188">
        <ele>439</ele>
        <time>2016-05-15T08:44:43.000Z</time>
      </trkpt>
      <trkpt lat="47.40637" lon="6.7219">
        <ele>439</ele>
        <time>2016-05-15T08:44:44.000Z</time>
      </trkpt>
      <trkpt lat="47.40636" lon="6.72194">
        <ele>439</ele>
        <time>2016-05-15T08:44:46.000Z</time>
      </trkpt>
      <trkpt lat="47.40635" lon="6.72197">
        <ele>439</ele>
        <time>2016-05-15T08:44:47.000Z</time>
      </trkpt>
      <trkpt lat="47.40634" lon="6.72204">
        <ele>439</ele>
        <time>2016-05-15T08:44:49.000Z</time>
      </trkpt>
      <trkpt lat="47.40634" lon="6.72208">
        <ele>439</ele>
        <time>2016-05-15T08:44:50.000Z</time>
      </trkpt>
      <trkpt lat="47.40634" lon="6.72211">
        <ele>439</ele>
        <time>2016-05-15T08:44:51.000Z</time>
      </trkpt>
      <trkpt lat="47.40633" lon="6.72215">
        <ele>440</ele>
        <time>2016-05-15T08:44:52.000Z</time>
      </trkpt>
      <trkpt lat="47.40632" lon="6.72219">
        <ele>440</ele>
        <time>2016-05-15T08:44:53.000Z</time>
      </trkpt>
      <trkpt lat="47.40631" lon="6.72222">
        <ele>440</ele>
        <time>2016-05-15T08:44:54.000Z</time>
      </trkpt>
      <trkpt lat="47.4063" lon="6.72225">
        <ele>440</ele>
        <time>2016-05-15T08:44:55.000Z</time>
      </trkpt>
      <trkpt lat="47.40628" lon="6.72229">
        <ele>440</ele>
        <time>2016-05-15T08:44:56.000Z</time>
      </trkpt>
      <trkpt lat="47.40627" lon="6.72232">
        <ele>440</ele>
        <time>2016-05-15T08:44:57.000Z</time>
      </trkpt>
      <trkpt lat="47.40625" lon="6.72235">
        <ele>440</ele>
        <time>2016-05-15T08:44:58.000Z</time>
      </trkpt>
      <trkpt lat="47.40624" lon="6.72237">
        <ele>440</ele>
        <time>2016-05-15T08:44:59.000Z</time>
      </trkpt>
      <trkpt lat="47.40622" lon="6.7224">
        <ele>440</ele>
        <time>2016-05-15T08:45:00.000Z</time>
      </trkpt>
      <trkpt lat="47.4062" lon="6.72246">
        <ele>440</ele>
        <time>2016-05-15T08:45:02.000Z</time>
      </trkpt>
      <trkpt lat="47.40619" lon="6.72248">
        <ele>440</ele>
        <time>2016-05-15T08:45:03.000Z</time>
      </trkpt>
      <trkpt lat="47.40618" lon="6.72254">
        <ele>441</ele>
        <time>2016-05-15T08:45:05.000Z</time>
      </trkpt>
      <trkpt lat="47.40617" lon="6.72257">
        <ele>441</ele>
        <time>2016-05-15T08:45:06.000Z</time>
      </trkpt>
      <trkpt lat="47.40617" lon="6.7226">
        <ele>441</ele>
        <time>2016-05-15T08:45:07.000Z</time>
      </trkpt>
      <trkpt lat="47.40616" lon="6.72263">
        <ele>441</ele>
        <time>2016-05-15T08:45:08.000Z</time>
      </trkpt>
      <trkpt lat="47.40615" lon="6.72266">
        <ele>441</ele>
        <time>2016-05-15T08:45:09.000Z</time>
      </trkpt>
      <trkpt lat="47.40614" lon="6.7227">
        <ele>441</ele>
        <time>2016-05-15T08:45:10.000Z</time>
      </trkpt>
      <trkpt lat="47.40613" lon="6.72274">
        <ele>441</ele>
        <time>2016-05-15T08:45:11.000Z</time>
      </trkpt>
      <trkpt lat="47.40611" lon="6.72279">
        <ele>441</ele>
        <time>2016-05-15T08:45:12.000Z</time>
      </trkpt>
      <trkpt lat="47.40609" lon="6.72284">
        <ele>441</ele>
        <time>2016-05-15T08:45:13.000Z</time>
      </trkpt>
      <trkpt lat="47.40606" lon="6.72289">
        <ele>440</ele>
        <time>2016-05-15T08:45:14.000Z</time>
      </trkpt>
      <trkpt lat="47.40603" lon="6.72294">
        <ele>440</ele>
        <time>2016-05-15T08:45:15.000Z</time>
      </trkpt>
      <trkpt lat="47.40599" lon="6.72298">
        <ele>440</ele>
        <time>2016-05-15T08:45:16.000Z</time>
      </trkpt>
      <trkpt lat="47.40596" lon="6.72302">
        <ele>440</ele>
        <time>2016-05-15T08:45:17.000Z</time>
      </trkpt>
      <trkpt lat="47.40592" lon="6.72306">
        <ele>439</ele>
        <time>2016-05-15T08:45:18.000Z</time>
      </trkpt>
      <trkpt lat="47.4059" lon="6.7231">
        <ele>439</ele>
        <time>2016-05-15T08:45:19.000Z</time>
      </trkpt>
      <trkpt lat="47.40587" lon="6.72315">
        <ele>438</ele>
        <time>2016-05-15T08:45:20.000Z</time>
      </trkpt>
      <trkpt lat="47.40586" lon="6.72319">
        <ele>438</ele>
        <time>2016-05-15T08:45:21.000Z</time>
      </trkpt>
      <trkpt lat="47.40585" lon="6.72324">
        <ele>437</ele>
        <time>2016-05-15T08:45:22.000Z</time>
      </trkpt>
      <trkpt lat="47.40584" lon="6.72328">
        <ele>436</ele>
        <time>2016-05-15T08:45:23.000Z</time>
      </trkpt>
      <trkpt lat="47.40582" lon="6.72332">
        <ele>436</ele>
        <time>2016-05-15T08:45:24.000Z</time>
      </trkpt>
      <trkpt lat="47.4058" lon="6.72336">
        <ele>435</ele>
        <time>2016-05-15T08:45:25.000Z</time>
      </trkpt>
      <trkpt lat="47.4058" lon="6.72339">
        <ele>436</ele>
        <time>2016-05-15T08:45:26.000Z</time>
      </trkpt>
      <trkpt lat="47.4058" lon="6.72343">
        <ele>436</ele>
        <time>2016-05-15T08:45:27.000Z</time>
      </trkpt>
      <trkpt lat="47.4058" lon="6.72347">
        <ele>436</ele>
        <time>2016-05-15T08:45:28.000Z</time>
      </trkpt>
      <trkpt lat="47.4058" lon="6.72351">
        <ele>436</ele>
        <time>2016-05-15T08:45:29.000Z</time>
      </trkpt>
      <trkpt lat="47.40579" lon="6.72354">
        <ele>436</ele>
        <time>2016-05-15T08:45:30.000Z</time>
      </trkpt>
      <trkpt lat="47.40578" lon="6.72357">
        <ele>436</ele>
        <time>2016-05-15T08:45:31.000Z</time>
      </trkpt>
      <trkpt lat="47.40576" lon="6.7236">
        <ele>436</ele>
        <time>2016-05-15T08:45:32.000Z</time>
      </trkpt>
      <trkpt lat="47.40575" lon="6.72363">
        <ele>436</ele>
        <time>2016-05-15T08:45:33.000Z</time>
      </trkpt>
      <trkpt lat="47.40574" lon="6.72367">
        <ele>436</ele>
        <time>2016-05-15T08:45:34.000Z</time>
      </trkpt>
      <trkpt lat="47.40574" lon="6.7237">
        <ele>436</ele>
        <time>2016-05-15T08:45:35.000Z</time>
      </trkpt>
      <trkpt lat="47.40574" lon="6.72373">
        <ele>436</ele>
        <time>2016-05-15T08:45:36.000Z</time>
      </trkpt>
      <trkpt lat="47.40574" lon="6.72377">
        <ele>436</ele>
        <time>2016-05-15T08:45:37.000Z</time>
      </trkpt>
      <trkpt lat="47.40574" lon="6.7238">
        <ele>436</ele>
        <time>2016-05-15T08:45:38.000Z</time>
      </trkpt>
      <trkpt lat="47.40573" lon="6.72384">
        <ele>436</ele>
        <time>2016-05-15T08:45:39.000Z</time>
      </trkpt>
      <trkpt lat="47.40572" lon="6.72388">
        <ele>436</ele>
        <time>2016-05-15T08:45:40.000Z</time>
      </trkpt>
      <trkpt lat="47.40571" lon="6.72394">
        <ele>436</ele>
        <time>2016-05-15T08:45:42.000Z</time>
      </trkpt>
      <trkpt lat="47.40571" lon="6.72398">
        <ele>436</ele>
        <time>2016-05-15T08:45:43.000Z</time>
      </trkpt>
      <trkpt lat="47.40571" lon="6.72402">
        <ele>436</ele>
        <time>2016-05-15T08:45:44.000Z</time>
      </trkpt>
      <trkpt lat="47.40571" lon="6.72406">
        <ele>435</ele>
        <time>2016-05-15T08:45:45.000Z</time>
      </trkpt>
      <trkpt lat="47.4057" lon="6.7241">
        <ele>435</ele>
        <time>2016-05-15T08:45:46.000Z</time>
      </trkpt>
      <trkpt lat="47.40569" lon="6.72414">
        <ele>435</ele>
        <time>2016-05-15T08:45:47.000Z</time>
      </trkpt>
      <trkpt lat="47.40567" lon="6.72418">
        <ele>436</ele>
        <time>2016-05-15T08:45:48.000Z</time>
      </trkpt>
      <trkpt lat="47.40566" lon="6.72422">
        <ele>436</ele>
        <time>2016-05-15T08:45:49.000Z</time>
      </trkpt>
      <trkpt lat="47.40565" lon="6.72428">
        <ele>436</ele>
        <time>2016-05-15T08:45:50.000Z</time>
      </trkpt>
      <trkpt lat="47.40565" lon="6.72433">
        <ele>436</ele>
        <time>2016-05-15T08:45:51.000Z</time>
      </trkpt>
      <trkpt lat="47.40565" lon="6.72438">
        <ele>436</ele>
        <time>2016-05-15T08:45:52.000Z</time>
      </trkpt>
      <trkpt lat="47.40565" lon="6.72442">
        <ele>437</ele>
        <time>2016-05-15T08:45:53.000Z</time>
      </trkpt>
      <trkpt lat="47.40565" lon="6.72446">
        <ele>437</ele>
        <time>2016-05-15T08:45:54.000Z</time>
      </trkpt>
      <trkpt lat="47.40564" lon="6.72451">
        <ele>437</ele>
        <time>2016-05-15T08:45:55.000Z</time>
      </trkpt>
      <trkpt lat="47.40563" lon="6.72456">
        <ele>437</ele>
        <time>2016-05-15T08:45:56.000Z</time>
      </trkpt>
      <trkpt lat="47.40563" lon="6.72461">
        <ele>437</ele>
        <time>2016-05-15T08:45:57.000Z</time>
      </trkpt>
      <trkpt lat="47.40562" lon="6.72466">
        <ele>437</ele>
        <time>2016-05-15T08:45:58.000Z</time>
      </trkpt>
      <trkpt lat="47.40562" lon="6.72471">
        <ele>438</ele>
        <time>2016-05-15T08:45:59.000Z</time>
      </trkpt>
      <trkpt lat="47.40561" lon="6.72475">
        <ele>438</ele>
        <time>2016-05-15T08:46:00.000Z</time>
      </trkpt>
      <trkpt lat="47.40561" lon="6.72479">
        <ele>438</ele>
        <time>2016-05-15T08:46:01.000Z</time>
      </trkpt>
      <trkpt lat="47.40561" lon="6.72484">
        <ele>438</ele>
        <time>2016-05-15T08:46:02.000Z</time>
      </trkpt>
      <trkpt lat="47.40562" lon="6.72488">
        <ele>438</ele>
        <time>2016-05-15T08:46:03.000Z</time>
      </trkpt>
      <trkpt lat="47.40562" lon="6.72493">
        <ele>438</ele>
        <time>2016-05-15T08:46:04.000Z</time>
      </trkpt>
      <trkpt lat="47.40563" lon="6.72497">
        <ele>438</ele>
        <time>2016-05-15T08:46:05.000Z</time>
      </trkpt>
      <trkpt lat="47.40564" lon="6.72501">
        <ele>440</ele>
        <time>2016-05-15T08:46:06.000Z</time>
      </trkpt>
      <trkpt lat="47.40564" lon="6.72505">
        <ele>440</ele>
        <time>2016-05-15T08:46:07.000Z</time>
      </trkpt>
      <trkpt lat="47.40565" lon="6.72509">
        <ele>440</ele>
        <time>2016-05-15T08:46:08.000Z</time>
      </trkpt>
      <trkpt lat="47.40565" lon="6.72512">
        <ele>441</ele>
        <time>2016-05-15T08:46:09.000Z</time>
      </trkpt>
      <trkpt lat="47.40565" lon="6.72519">
        <ele>441</ele>
        <time>2016-05-15T08:46:11.000Z</time>
      </trkpt>
      <trkpt lat="47.40565" lon="6.72521">
        <ele>441</ele>
        <time>2016-05-15T08:46:12.000Z</time>
      </trkpt>
      <trkpt lat="47.40565" lon="6.72527">
        <ele>442</ele>
        <time>2016-05-15T08:46:14.000Z</time>
      </trkpt>
      <trkpt lat="47.40564" lon="6.7253">
        <ele>442</ele>
        <time>2016-05-15T08:46:15.000Z</time>
      </trkpt>
      <trkpt lat="47.40564" lon="6.72533">
        <ele>442</ele>
        <time>2016-05-15T08:46:16.000Z</time>
      </trkpt>
      <trkpt lat="47.40564" lon="6.72537">
        <ele>442</ele>
        <time>2016-05-15T08:46:17.000Z</time>
      </trkpt>
      <trkpt lat="47.40564" lon="6.72541">
        <ele>442</ele>
        <time>2016-05-15T08:46:18.000Z</time>
      </trkpt>
      <trkpt lat="47.40564" lon="6.72546">
        <ele>442</ele>
        <time>2016-05-15T08:46:19.000Z</time>
      </trkpt>
      <trkpt lat="47.40565" lon="6.7255">
        <ele>442</ele>
        <time>2016-05-15T08:46:20.000Z</time>
      </trkpt>
      <trkpt lat="47.40565" lon="6.72555">
        <ele>442</ele>
        <time>2016-05-15T08:46:21.000Z</time>
      </trkpt>
      <trkpt lat="47.40565" lon="6.72559">
        <ele>442</ele>
        <time>2016-05-15T08:46:22.000Z</time>
      </trkpt>
      <trkpt lat="47.40566" lon="6.72563">
        <ele>442</ele>
        <time>2016-05-15T08:46:23.000Z</time>
      </trkpt>
      <trkpt lat="47.40567" lon="6.72567">
        <ele>442</ele>
        <time>2016-05-15T08:46:24.000Z</time>
      </trkpt>
      <trkpt lat="47.40568" lon="6.72571">
        <ele>442</ele>
        <time>2016-05-15T08:46:25.000Z</time>
      </trkpt>
      <trkpt lat="47.40568" lon="6.72575">
        <ele>442</ele>
        <time>2016-05-15T08:46:26.000Z</time>
      </trkpt>
      <trkpt lat="47.40569" lon="6.72579">
        <ele>442</ele>
        <time>2016-05-15T08:46:27.000Z</time>
      </trkpt>
      <trkpt lat="47.40569" lon="6.72583">
        <ele>442</ele>
        <time>2016-05-15T08:46:28.000Z</time>
      </trkpt>
      <trkpt lat="47.40568" lon="6.72588">
        <ele>444</ele>
        <time>2016-05-15T08:46:29.000Z</time>
      </trkpt>
      <trkpt lat="47.40567" lon="6.72592">
        <ele>444</ele>
        <time>2016-05-15T08:46:30.000Z</time>
      </trkpt>
      <trkpt lat="47.40566" lon="6.72597">
        <ele>445</ele>
        <time>2016-05-15T08:46:31.000Z</time>
      </trkpt>
      <trkpt lat="47.40566" lon="6.72601">
        <ele>445</ele>
        <time>2016-05-15T08:46:32.000Z</time>
      </trkpt>
      <trkpt lat="47.40564" lon="6.72605">
        <ele>445</ele>
        <time>2016-05-15T08:46:33.000Z</time>
      </trkpt>
      <trkpt lat="47.40563" lon="6.7261">
        <ele>445</ele>
        <time>2016-05-15T08:46:34.000Z</time>
      </trkpt>
      <trkpt lat="47.40562" lon="6.72614">
        <ele>446</ele>
        <time>2016-05-15T08:46:35.000Z</time>
      </trkpt>
      <trkpt lat="47.4056" lon="6.72618">
        <ele>446</ele>
        <time>2016-05-15T08:46:36.000Z</time>
      </trkpt>
      <trkpt lat="47.40559" lon="6.72623">
        <ele>446</ele>
        <time>2016-05-15T08:46:37.000Z</time>
      </trkpt>
      <trkpt lat="47.40559" lon="6.72627">
        <ele>446</ele>
        <time>2016-05-15T08:46:38.000Z</time>
      </trkpt>
      <trkpt lat="47.40558" lon="6.72631">
        <ele>446</ele>
        <time>2016-05-15T08:46:39.000Z</time>
      </trkpt>
      <trkpt lat="47.40558" lon="6.72634">
        <ele>446</ele>
        <time>2016-05-15T08:46:40.000Z</time>
      </trkpt>
      <trkpt lat="47.40558" lon="6.72638">
        <ele>446</ele>
        <time>2016-05-15T08:46:41.000Z</time>
      </trkpt>
      <trkpt lat="47.40558" lon="6.72641">
        <ele>447</ele>
        <time>2016-05-15T08:46:42.000Z</time>
      </trkpt>
      <trkpt lat="47.40558" lon="6.72644">
        <ele>447</ele>
        <time>2016-05-15T08:46:43.000Z</time>
      </trkpt>
      <trkpt lat="47.40558" lon="6.72649">
        <ele>447</ele>
        <time>2016-05-15T08:46:44.000Z</time>
      </trkpt>
      <trkpt lat="47.40557" lon="6.72652">
        <ele>447</ele>
        <time>2016-05-15T08:46:45.000Z</time>
      </trkpt>
      <trkpt lat="47.40557" lon="6.72656">
        <ele>447</ele>
        <time>2016-05-15T08:46:46.000Z</time>
      </trkpt>
      <trkpt lat="47.40557" lon="6.7266">
        <ele>447</ele>
        <time>2016-05-15T08:46:47.000Z</time>
      </trkpt>
      <trkpt lat="47.40557" lon="6.72663">
        <ele>447</ele>
        <time>2016-05-15T08:46:48.000Z</time>
      </trkpt>
      <trkpt lat="47.40557" lon="6.72667">
        <ele>448</ele>
        <time>2016-05-15T08:46:49.000Z</time>
      </trkpt>
      <trkpt lat="47.40556" lon="6.72671">
        <ele>448</ele>
        <time>2016-05-15T08:46:50.000Z</time>
      </trkpt>
      <trkpt lat="47.40556" lon="6.72674">
        <ele>448</ele>
        <time>2016-05-15T08:46:51.000Z</time>
      </trkpt>
      <trkpt lat="47.40557" lon="6.72679">
        <ele>448</ele>
        <time>2016-05-15T08:46:53.000Z</time>
      </trkpt>
      <trkpt lat="47.40557" lon="6.72682">
        <ele>448</ele>
        <time>2016-05-15T08:46:54.000Z</time>
      </trkpt>
      <trkpt lat="47.40554" lon="6.72686">
        <ele>448</ele>
        <time>2016-05-15T08:46:57.000Z</time>
      </trkpt>
      <trkpt lat="47.40553" lon="6.72687">
        <ele>448</ele>
        <time>2016-05-15T08:46:58.000Z</time>
      </trkpt>
      <trkpt lat="47.40549" lon="6.72686">
        <ele>449</ele>
        <time>2016-05-15T08:47:03.000Z</time>
      </trkpt>
      <trkpt lat="47.40547" lon="6.72685">
        <ele>449</ele>
        <time>2016-05-15T08:47:04.000Z</time>
      </trkpt>
      <trkpt lat="47.40543" lon="6.72681">
        <ele>449</ele>
        <time>2016-05-15T08:47:06.000Z</time>
      </trkpt>
      <trkpt lat="47.40543" lon="6.72678">
        <ele>449</ele>
        <time>2016-05-15T08:47:07.000Z</time>
      </trkpt>
      <trkpt lat="47.40544" lon="6.72674">
        <ele>449</ele>
        <time>2016-05-15T08:47:09.000Z</time>
      </trkpt>
      <trkpt lat="47.40544" lon="6.72672">
        <ele>449</ele>
        <time>2016-05-15T08:47:10.000Z</time>
      </trkpt>
      <trkpt lat="47.40545" lon="6.72667">
        <ele>449</ele>
        <time>2016-05-15T08:47:12.000Z</time>
      </trkpt>
      <trkpt lat="47.40545" lon="6.72665">
        <ele>447</ele>
        <time>2016-05-15T08:47:13.000Z</time>
      </trkpt>
      <trkpt lat="47.40546" lon="6.7266">
        <ele>447</ele>
        <time>2016-05-15T08:47:15.000Z</time>
      </trkpt>
      <trkpt lat="47.40546" lon="6.72657">
        <ele>447</ele>
        <time>2016-05-15T08:47:16.000Z</time>
      </trkpt>
      <trkpt lat="47.40548" lon="6.72651">
        <ele>447</ele>
        <time>2016-05-15T08:47:18.000Z</time>
      </trkpt>
      <trkpt lat="47.4055" lon="6.72648">
        <ele>447</ele>
        <time>2016-05-15T08:47:19.000Z</time>
      </trkpt>
      <trkpt lat="47.40552" lon="6.72645">
        <ele>447</ele>
        <time>2016-05-15T08:47:20.000Z</time>
      </trkpt>
      <trkpt lat="47.40554" lon="6.72643">
        <ele>447</ele>
        <time>2016-05-15T08:47:21.000Z</time>
      </trkpt>
      <trkpt lat="47.40555" lon="6.7264">
        <ele>447</ele>
        <time>2016-05-15T08:47:22.000Z</time>
      </trkpt>
      <trkpt lat="47.40556" lon="6.72637">
        <ele>447</ele>
        <time>2016-05-15T08:47:23.000Z</time>
      </trkpt>
      <trkpt lat="47.40558" lon="6.72631">
        <ele>446</ele>
        <time>2016-05-15T08:47:25.000Z</time>
      </trkpt>
      <trkpt lat="47.40558" lon="6.72628">
        <ele>446</ele>
        <time>2016-05-15T08:47:26.000Z</time>
      </trkpt>
      <trkpt lat="47.40568" lon="6.72615">
        <ele>446</ele>
        <time>2016-05-15T08:47:27.000Z</time>
      </trkpt>
      <trkpt lat="47.4057" lon="6.7261">
        <ele>445</ele>
        <time>2016-05-15T08:47:28.000Z</time>
      </trkpt>
      <trkpt lat="47.4057" lon="6.72607">
        <ele>445</ele>
        <time>2016-05-15T08:47:29.000Z</time>
      </trkpt>
      <trkpt lat="47.40571" lon="6.72602">
        <ele>445</ele>
        <time>2016-05-15T08:47:30.000Z</time>
      </trkpt>
      <trkpt lat="47.40572" lon="6.72598">
        <ele>444</ele>
        <time>2016-05-15T08:47:31.000Z</time>
      </trkpt>
      <trkpt lat="47.40572" lon="6.72595">
        <ele>444</ele>
        <time>2016-05-15T08:47:32.000Z</time>
      </trkpt>
      <trkpt lat="47.40574" lon="6.7259">
        <ele>443</ele>
        <time>2016-05-15T08:47:33.000Z</time>
      </trkpt>
      <trkpt lat="47.40573" lon="6.72585">
        <ele>443</ele>
        <time>2016-05-15T08:47:34.000Z</time>
      </trkpt>
      <trkpt lat="47.40573" lon="6.7258">
        <ele>442</ele>
        <time>2016-05-15T08:47:35.000Z</time>
      </trkpt>
      <trkpt lat="47.40576" lon="6.72571">
        <ele>442</ele>
        <time>2016-05-15T08:47:36.000Z</time>
      </trkpt>
      <trkpt lat="47.40577" lon="6.72566">
        <ele>442</ele>
        <time>2016-05-15T08:47:37.000Z</time>
      </trkpt>
      <trkpt lat="47.40578" lon="6.7256">
        <ele>442</ele>
        <time>2016-05-15T08:47:38.000Z</time>
      </trkpt>
      <trkpt lat="47.40579" lon="6.72555">
        <ele>442</ele>
        <time>2016-05-15T08:47:39.000Z</time>
      </trkpt>
      <trkpt lat="47.4058" lon="6.72549">
        <ele>442</ele>
        <time>2016-05-15T08:47:40.000Z</time>
      </trkpt>
      <trkpt lat="47.4058" lon="6.72543">
        <ele>442</ele>
        <time>2016-05-15T08:47:41.000Z</time>
      </trkpt>
      <trkpt lat="47.40581" lon="6.72537">
        <ele>441</ele>
        <time>2016-05-15T08:47:42.000Z</time>
      </trkpt>
      <trkpt lat="47.40581" lon="6.72531">
        <ele>441</ele>
        <time>2016-05-15T08:47:43.000Z</time>
      </trkpt>
      <trkpt lat="47.40581" lon="6.72525">
        <ele>441</ele>
        <time>2016-05-15T08:47:44.000Z</time>
      </trkpt>
      <trkpt lat="47.40581" lon="6.72518">
        <ele>440</ele>
        <time>2016-05-15T08:47:45.000Z</time>
      </trkpt>
      <trkpt lat="47.40581" lon="6.72512">
        <ele>439</ele>
        <time>2016-05-15T08:47:46.000Z</time>
      </trkpt>
      <trkpt lat="47.40581" lon="6.72506">
        <ele>438</ele>
        <time>2016-05-15T08:47:47.000Z</time>
      </trkpt>
      <trkpt lat="47.4058" lon="6.72499">
        <ele>437</ele>
        <time>2016-05-15T08:47:48.000Z</time>
      </trkpt>
      <trkpt lat="47.4058" lon="6.72492">
        <ele>437</ele>
        <time>2016-05-15T08:47:49.000Z</time>
      </trkpt>
      <trkpt lat="47.40578" lon="6.72484">
        <ele>437</ele>
        <time>2016-05-15T08:47:50.000Z</time>
      </trkpt>
      <trkpt lat="47.40577" lon="6.72477">
        <ele>437</ele>
        <time>2016-05-15T08:47:51.000Z</time>
      </trkpt>
      <trkpt lat="47.40575" lon="6.72469">
        <ele>437</ele>
        <time>2016-05-15T08:47:52.000Z</time>
      </trkpt>
      <trkpt lat="47.40571" lon="6.72463">
        <ele>437</ele>
        <time>2016-05-15T08:47:53.000Z</time>
      </trkpt>
      <trkpt lat="47.40568" lon="6.72457">
        <ele>437</ele>
        <time>2016-05-15T08:47:54.000Z</time>
      </trkpt>
      <trkpt lat="47.40564" lon="6.72453">
        <ele>437</ele>
        <time>2016-05-15T08:47:55.000Z</time>
      </trkpt>
      <trkpt lat="47.40561" lon="6.72449">
        <ele>437</ele>
        <time>2016-05-15T08:47:56.000Z</time>
      </trkpt>
      <trkpt lat="47.40557" lon="6.72446">
        <ele>437</ele>
        <time>2016-05-15T08:47:57.000Z</time>
      </trkpt>
      <trkpt lat="47.40553" lon="6.72443">
        <ele>437</ele>
        <time>2016-05-15T08:47:58.000Z</time>
      </trkpt>
      <trkpt lat="47.40548" lon="6.72441">
        <ele>437</ele>
        <time>2016-05-15T08:47:59.000Z</time>
      </trkpt>
      <trkpt lat="47.40543" lon="6.72438">
        <ele>437</ele>
        <time>2016-05-15T08:48:00.000Z</time>
      </trkpt>
      <trkpt lat="47.40538" lon="6.72435">
        <ele>437</ele>
        <time>2016-05-15T08:48:01.000Z</time>
      </trkpt>
      <trkpt lat="47.40517" lon="6.72425">
        <ele>436</ele>
        <time>2016-05-15T08:48:02.000Z</time>
      </trkpt>
      <trkpt lat="47.40513" lon="6.72422">
        <ele>436</ele>
        <time>2016-05-15T08:48:03.000Z</time>
      </trkpt>
      <trkpt lat="47.40508" lon="6.72419">
        <ele>436</ele>
        <time>2016-05-15T08:48:04.000Z</time>
      </trkpt>
      <trkpt lat="47.40504" lon="6.72416">
        <ele>435</ele>
        <time>2016-05-15T08:48:05.000Z</time>
      </trkpt>
      <trkpt lat="47.405" lon="6.72413">
        <ele>436</ele>
        <time>2016-05-15T08:48:06.000Z</time>
      </trkpt>
      <trkpt lat="47.40496" lon="6.72411">
        <ele>438</ele>
        <time>2016-05-15T08:48:07.000Z</time>
      </trkpt>
      <trkpt lat="47.40492" lon="6.72409">
        <ele>439</ele>
        <time>2016-05-15T08:48:08.000Z</time>
      </trkpt>
      <trkpt lat="47.40488" lon="6.72407">
        <ele>440</ele>
        <time>2016-05-15T08:48:09.000Z</time>
      </trkpt>
      <trkpt lat="47.40484" lon="6.72405">
        <ele>441</ele>
        <time>2016-05-15T08:48:10.000Z</time>
      </trkpt>
      <trkpt lat="47.40479" lon="6.72402">
        <ele>442</ele>
        <time>2016-05-15T08:48:11.000Z</time>
      </trkpt>
      <trkpt lat="47.40474" lon="6.724">
        <ele>442</ele>
        <time>2016-05-15T08:48:12.000Z</time>
      </trkpt>
      <trkpt lat="47.4047" lon="6.72397">
        <ele>443</ele>
        <time>2016-05-15T08:48:13.000Z</time>
      </trkpt>
      <trkpt lat="47.40465" lon="6.72396">
        <ele>444</ele>
        <time>2016-05-15T08:48:14.000Z</time>
      </trkpt>
      <trkpt lat="47.4046" lon="6.72394">
        <ele>444</ele>
        <time>2016-05-15T08:48:15.000Z</time>
      </trkpt>
      <trkpt lat="47.40455" lon="6.72393">
        <ele>444</ele>
        <time>2016-05-15T08:48:16.000Z</time>
      </trkpt>
      <trkpt lat="47.4045" lon="6.72392">
        <ele>445</ele>
        <time>2016-05-15T08:48:17.000Z</time>
      </trkpt>
      <trkpt lat="47.40445" lon="6.7239">
        <ele>445</ele>
        <time>2016-05-15T08:48:18.000Z</time>
      </trkpt>
      <trkpt lat="47.4044" lon="6.72389">
        <ele>446</ele>
        <time>2016-05-15T08:48:19.000Z</time>
      </trkpt>
      <trkpt lat="47.40436" lon="6.72387">
        <ele>446</ele>
        <time>2016-05-15T08:48:20.000Z</time>
      </trkpt>
      <trkpt lat="47.40432" lon="6.72385">
        <ele>446</ele>
        <time>2016-05-15T08:48:21.000Z</time>
      </trkpt>
      <trkpt lat="47.40428" lon="6.72384">
        <ele>446</ele>
        <time>2016-05-15T08:48:22.000Z</time>
      </trkpt>
      <trkpt lat="47.40424" lon="6.72383">
        <ele>446</ele>
        <time>2016-05-15T08:48:23.000Z</time>
      </trkpt>
      <trkpt lat="47.4042" lon="6.72382">
        <ele>446</ele>
        <time>2016-05-15T08:48:24.000Z</time>
      </trkpt>
      <trkpt lat="47.40417" lon="6.72381">
        <ele>452</ele>
        <time>2016-05-15T08:48:25.000Z</time>
      </trkpt>
      <trkpt lat="47.40414" lon="6.7238">
        <ele>452</ele>
        <time>2016-05-15T08:48:26.000Z</time>
      </trkpt>
      <trkpt lat="47.4041" lon="6.72378">
        <ele>452</ele>
        <time>2016-05-15T08:48:27.000Z</time>
      </trkpt>
      <trkpt lat="47.40407" lon="6.72375">
        <ele>453</ele>
        <time>2016-05-15T08:48:28.000Z</time>
      </trkpt>
      <trkpt lat="47.40403" lon="6.72372">
        <ele>453</ele>
        <time>2016-05-15T08:48:29.000Z</time>
      </trkpt>
      <trkpt lat="47.40399" lon="6.72369">
        <ele>453</ele>
        <time>2016-05-15T08:48:30.000Z</time>
      </trkpt>
      <trkpt lat="47.40395" lon="6.72365">
        <ele>453</ele>
        <time>2016-05-15T08:48:31.000Z</time>
      </trkpt>
      <trkpt lat="47.40391" lon="6.72362">
        <ele>453</ele>
        <time>2016-05-15T08:48:32.000Z</time>
      </trkpt>
      <trkpt lat="47.40387" lon="6.72359">
        <ele>453</ele>
        <time>2016-05-15T08:48:33.000Z</time>
      </trkpt>
      <trkpt lat="47.40383" lon="6.72357">
        <ele>453</ele>
        <time>2016-05-15T08:48:34.000Z</time>
      </trkpt>
      <trkpt lat="47.40378" lon="6.72354">
        <ele>453</ele>
        <time>2016-05-15T08:48:35.000Z</time>
      </trkpt>
      <trkpt lat="47.40373" lon="6.72352">
        <ele>454</ele>
        <time>2016-05-15T08:48:36.000Z</time>
      </trkpt>
      <trkpt lat="47.40368" lon="6.7235">
        <ele>454</ele>
        <time>2016-05-15T08:48:37.000Z</time>
      </trkpt>
      <trkpt lat="47.40364" lon="6.72348">
        <ele>454</ele>
        <time>2016-05-15T08:48:38.000Z</time>
      </trkpt>
      <trkpt lat="47.4036" lon="6.72346">
        <ele>454</ele>
        <time>2016-05-15T08:48:39.000Z</time>
      </trkpt>
      <trkpt lat="47.40357" lon="6.72343">
        <ele>454</ele>
        <time>2016-05-15T08:48:40.000Z</time>
      </trkpt>
      <trkpt lat="47.40355" lon="6.72339">
        <ele>454</ele>
        <time>2016-05-15T08:48:41.000Z</time>
      </trkpt>
      <trkpt lat="47.40353" lon="6.72336">
        <ele>454</ele>
        <time>2016-05-15T08:48:42.000Z</time>
      </trkpt>
      <trkpt lat="47.4035" lon="6.72331">
        <ele>458</ele>
        <time>2016-05-15T08:48:44.000Z</time>
      </trkpt>
      <trkpt lat="47.40349" lon="6.7233">
        <ele>457</ele>
        <time>2016-05-15T08:48:45.000Z</time>
      </trkpt>
      <trkpt lat="47.40346" lon="6.72327">
        <ele>457</ele>
        <time>2016-05-15T08:48:48.000Z</time>
      </trkpt>
      <trkpt lat="47.40345" lon="6.72326">
        <ele>457</ele>
        <time>2016-05-15T08:48:49.000Z</time>
      </trkpt>
      <trkpt lat="47.40341" lon="6.72325">
        <ele>457</ele>
        <time>2016-05-15T08:48:53.000Z</time>
      </trkpt>
      <trkpt lat="47.40339" lon="6.72324">
        <ele>457</ele>
        <time>2016-05-15T08:48:54.000Z</time>
      </trkpt>
      <trkpt lat="47.40336" lon="6.72322">
        <ele>457</ele>
        <time>2016-05-15T08:48:56.000Z</time>
      </trkpt>
      <trkpt lat="47.40333" lon="6.72321">
        <ele>458</ele>
        <time>2016-05-15T08:48:57.000Z</time>
      </trkpt>
      <trkpt lat="47.4033" lon="6.7232">
        <ele>458</ele>
        <time>2016-05-15T08:48:58.000Z</time>
      </trkpt>
      <trkpt lat="47.40328" lon="6.72318">
        <ele>459</ele>
        <time>2016-05-15T08:48:59.000Z</time>
      </trkpt>
      <trkpt lat="47.40325" lon="6.72316">
        <ele>459</ele>
        <time>2016-05-15T08:49:00.000Z</time>
      </trkpt>
      <trkpt lat="47.40323" lon="6.72314">
        <ele>460</ele>
        <time>2016-05-15T08:49:01.000Z</time>
      </trkpt>
      <trkpt lat="47.40321" lon="6.72312">
        <ele>460</ele>
        <time>2016-05-15T08:49:02.000Z</time>
      </trkpt>
      <trkpt lat="47.40318" lon="6.7231">
        <ele>461</ele>
        <time>2016-05-15T08:49:03.000Z</time>
      </trkpt>
      <trkpt lat="47.40314" lon="6.72308">
        <ele>461</ele>
        <time>2016-05-15T08:49:04.000Z</time>
      </trkpt>
      <trkpt lat="47.40309" lon="6.72306">
        <ele>462</ele>
        <time>2016-05-15T08:49:05.000Z</time>
      </trkpt>
      <trkpt lat="47.40306" lon="6.72303">
        <ele>462</ele>
        <time>2016-05-15T08:49:06.000Z</time>
      </trkpt>
      <trkpt lat="47.40302" lon="6.72301">
        <ele>462</ele>
        <time>2016-05-15T08:49:07.000Z</time>
      </trkpt>
      <trkpt lat="47.40299" lon="6.72299">
        <ele>463</ele>
        <time>2016-05-15T08:49:08.000Z</time>
      </trkpt>
      <trkpt lat="47.40296" lon="6.72297">
        <ele>463</ele>
        <time>2016-05-15T08:49:09.000Z</time>
      </trkpt>
      <trkpt lat="47.40293" lon="6.72295">
        <ele>463</ele>
        <time>2016-05-15T08:49:10.000Z</time>
      </trkpt>
      <trkpt lat="47.4029" lon="6.72293">
        <ele>463</ele>
        <time>2016-05-15T08:49:11.000Z</time>
      </trkpt>
      <trkpt lat="47.40288" lon="6.7229">
        <ele>463</ele>
        <time>2016-05-15T08:49:12.000Z</time>
      </trkpt>
      <trkpt lat="47.40286" lon="6.72287">
        <ele>463</ele>
        <time>2016-05-15T08:49:13.000Z</time>
      </trkpt>
      <trkpt lat="47.40284" lon="6.72285">
        <ele>463</ele>
        <time>2016-05-15T08:49:14.000Z</time>
      </trkpt>
      <trkpt lat="47.40281" lon="6.72283">
        <ele>463</ele>
        <time>2016-05-15T08:49:15.000Z</time>
      </trkpt>
      <trkpt lat="47.40277" lon="6.72281">
        <ele>463</ele>
        <time>2016-05-15T08:49:16.000Z</time>
      </trkpt>
      <trkpt lat="47.40273" lon="6.72279">
        <ele>463</ele>
        <time>2016-05-15T08:49:17.000Z</time>
      </trkpt>
      <trkpt lat="47.40269" lon="6.72278">
        <ele>463</ele>
        <time>2016-05-15T08:49:18.000Z</time>
      </trkpt>
      <trkpt lat="47.40265" lon="6.72278">
        <ele>463</ele>
        <time>2016-05-15T08:49:19.000Z</time>
      </trkpt>
      <trkpt lat="47.40261" lon="6.72279">
        <ele>463</ele>
        <time>2016-05-15T08:49:20.000Z</time>
      </trkpt>
      <trkpt lat="47.40257" lon="6.72279">
        <ele>463</ele>
        <time>2016-05-15T08:49:21.000Z</time>
      </trkpt>
      <trkpt lat="47.40253" lon="6.72279">
        <ele>463</ele>
        <time>2016-05-15T08:49:22.000Z</time>
      </trkpt>
      <trkpt lat="47.40249" lon="6.72278">
        <ele>464</ele>
        <time>2016-05-15T08:49:23.000Z</time>
      </trkpt>
      <trkpt lat="47.40246" lon="6.72277">
        <ele>464</ele>
        <time>2016-05-15T08:49:24.000Z</time>
      </trkpt>
      <trkpt lat="47.40242" lon="6.72276">
        <ele>464</ele>
        <time>2016-05-15T08:49:25.000Z</time>
      </trkpt>
      <trkpt lat="47.40239" lon="6.72274">
        <ele>464</ele>
        <time>2016-05-15T08:49:26.000Z</time>
      </trkpt>
      <trkpt lat="47.40236" lon="6.72273">
        <ele>464</ele>
        <time>2016-05-15T08:49:27.000Z</time>
      </trkpt>
      <trkpt lat="47.40234" lon="6.72271">
        <ele>464</ele>
        <time>2016-05-15T08:49:28.000Z</time>
      </trkpt>
      <trkpt lat="47.40232" lon="6.7227">
        <ele>464</ele>
        <time>2016-05-15T08:49:29.000Z</time>
      </trkpt>
      <trkpt lat="47.40229" lon="6.72269">
        <ele>464</ele>
        <time>2016-05-15T08:49:30.000Z</time>
      </trkpt>
      <trkpt lat="47.40227" lon="6.72269">
        <ele>464</ele>
        <time>2016-05-15T08:49:31.000Z</time>
      </trkpt>
      <trkpt lat="47.40224" lon="6.72268">
        <ele>464</ele>
        <time>2016-05-15T08:49:32.000Z</time>
      </trkpt>
      <trkpt lat="47.40222" lon="6.72266">
        <ele>464</ele>
        <time>2016-05-15T08:49:33.000Z</time>
      </trkpt>
      <trkpt lat="47.40219" lon="6.72264">
        <ele>464</ele>
        <time>2016-05-15T08:49:34.000Z</time>
      </trkpt>
      <trkpt lat="47.40217" lon="6.72262">
        <ele>464</ele>
        <time>2016-05-15T08:49:35.000Z</time>
      </trkpt>
      <trkpt lat="47.40215" lon="6.72259">
        <ele>464</ele>
        <time>2016-05-15T08:49:36.000Z</time>
      </trkpt>
      <trkpt lat="47.40213" lon="6.72254">
        <ele>464</ele>
        <time>2016-05-15T08:49:37.000Z</time>
      </trkpt>
      <trkpt lat="47.40211" lon="6.7225">
        <ele>467</ele>
        <time>2016-05-15T08:49:38.000Z</time>
      </trkpt>
      <trkpt lat="47.4021" lon="6.72246">
        <ele>467</ele>
        <time>2016-05-15T08:49:39.000Z</time>
      </trkpt>
      <trkpt lat="47.40207" lon="6.72246">
        <ele>467</ele>
        <time>2016-05-15T08:49:41.000Z</time>
      </trkpt>
      <trkpt lat="47.40204" lon="6.72247">
        <ele>467</ele>
        <time>2016-05-15T08:49:42.000Z</time>
      </trkpt>
      <trkpt lat="47.40202" lon="6.72248">
        <ele>467</ele>
        <time>2016-05-15T08:49:43.000Z</time>
      </trkpt>
      <trkpt lat="47.402" lon="6.72249">
        <ele>467</ele>
        <time>2016-05-15T08:49:44.000Z</time>
      </trkpt>
      <trkpt lat="47.40195" lon="6.72251">
        <ele>464</ele>
        <time>2016-05-15T08:49:46.000Z</time>
      </trkpt>
      <trkpt lat="47.40193" lon="6.72252">
        <ele>464</ele>
        <time>2016-05-15T08:49:47.000Z</time>
      </trkpt>
      <trkpt lat="47.40189" lon="6.72253">
        <ele>463</ele>
        <time>2016-05-15T08:49:49.000Z</time>
      </trkpt>
      <trkpt lat="47.40187" lon="6.72254">
        <ele>463</ele>
        <time>2016-05-15T08:49:50.000Z</time>
      </trkpt>
      <trkpt lat="47.40183" lon="6.72254">
        <ele>463</ele>
        <time>2016-05-15T08:49:52.000Z</time>
      </trkpt>
      <trkpt lat="47.40181" lon="6.72254">
        <ele>463</ele>
        <time>2016-05-15T08:49:53.000Z</time>
      </trkpt>
      <trkpt lat="47.40177" lon="6.72254">
        <ele>463</ele>
        <time>2016-05-15T08:49:55.000Z</time>
      </trkpt>
      <trkpt lat="47.40175" lon="6.72253">
        <ele>462</ele>
        <time>2016-05-15T08:49:56.000Z</time>
      </trkpt>
      <trkpt lat="47.40172" lon="6.7225">
        <ele>463</ele>
        <time>2016-05-15T08:49:58.000Z</time>
      </trkpt>
      <trkpt lat="47.40169" lon="6.72249">
        <ele>462</ele>
        <time>2016-05-15T08:49:59.000Z</time>
      </trkpt>
      <trkpt lat="47.40165" lon="6.7225">
        <ele>462</ele>
        <time>2016-05-15T08:50:01.000Z</time>
      </trkpt>
      <trkpt lat="47.40163" lon="6.7225">
        <ele>462</ele>
        <time>2016-05-15T08:50:02.000Z</time>
      </trkpt>
      <trkpt lat="47.40159" lon="6.7225">
        <ele>464</ele>
        <time>2016-05-15T08:50:04.000Z</time>
      </trkpt>
      <trkpt lat="47.40157" lon="6.72249">
        <ele>464</ele>
        <time>2016-05-15T08:50:05.000Z</time>
      </trkpt>
      <trkpt lat="47.40153" lon="6.72248">
        <ele>465</ele>
        <time>2016-05-15T08:50:07.000Z</time>
      </trkpt>
      <trkpt lat="47.40151" lon="6.72248">
        <ele>465</ele>
        <time>2016-05-15T08:50:08.000Z</time>
      </trkpt>
      <trkpt lat="47.40148" lon="6.72245">
        <ele>466</ele>
        <time>2016-05-15T08:50:11.000Z</time>
      </trkpt>
      <trkpt lat="47.40148" lon="6.72244">
        <ele>466</ele>
        <time>2016-05-15T08:50:12.000Z</time>
      </trkpt>
      <trkpt lat="47.40145" lon="6.7224">
        <ele>467</ele>
        <time>2016-05-15T08:50:17.000Z</time>
      </trkpt>
      <trkpt lat="47.40143" lon="6.72239">
        <ele>467</ele>
        <time>2016-05-15T08:50:18.000Z</time>
      </trkpt>
      <trkpt lat="47.4014" lon="6.72241">
        <ele>468</ele>
        <time>2016-05-15T08:50:20.000Z</time>
      </trkpt>
      <trkpt lat="47.40138" lon="6.7224">
        <ele>468</ele>
        <time>2016-05-15T08:50:21.000Z</time>
      </trkpt>
      <trkpt lat="47.40135" lon="6.72238">
        <ele>468</ele>
        <time>2016-05-15T08:50:24.000Z</time>
      </trkpt>
      <trkpt lat="47.40134" lon="6.72238">
        <ele>468</ele>
        <time>2016-05-15T08:50:25.000Z</time>
      </trkpt>
      <trkpt lat="47.4013" lon="6.72238">
        <ele>469</ele>
        <time>2016-05-15T08:50:30.000Z</time>
      </trkpt>
      <trkpt lat="47.40129" lon="6.72238">
        <ele>469</ele>
        <time>2016-05-15T08:50:31.000Z</time>
      </trkpt>
      <trkpt lat="47.40125" lon="6.72238">
        <ele>469</ele>
        <time>2016-05-15T08:50:35.000Z</time>
      </trkpt>
      <trkpt lat="47.40123" lon="6.72237">
        <ele>469</ele>
        <time>2016-05-15T08:50:36.000Z</time>
      </trkpt>
      <trkpt lat="47.4012" lon="6.72236">
        <ele>469</ele>
        <time>2016-05-15T08:50:38.000Z</time>
      </trkpt>
      <trkpt lat="47.40119" lon="6.72236">
        <ele>469</ele>
        <time>2016-05-15T08:50:39.000Z</time>
      </trkpt>
      <trkpt lat="47.40115" lon="6.72234">
        <ele>470</ele>
        <time>2016-05-15T08:50:43.000Z</time>
      </trkpt>
      <trkpt lat="47.40114" lon="6.72233">
        <ele>470</ele>
        <time>2016-05-15T08:50:44.000Z</time>
      </trkpt>
      <trkpt lat="47.40112" lon="6.72229">
        <ele>470</ele>
        <time>2016-05-15T08:50:47.000Z</time>
      </trkpt>
      <trkpt lat="47.40111" lon="6.72228">
        <ele>470</ele>
        <time>2016-05-15T08:50:48.000Z</time>
      </trkpt>
      <trkpt lat="47.40107" lon="6.72224">
        <ele>470</ele>
        <time>2016-05-15T08:50:50.000Z</time>
      </trkpt>
      <trkpt lat="47.40106" lon="6.72222">
        <ele>470</ele>
        <time>2016-05-15T08:50:51.000Z</time>
      </trkpt>
      <trkpt lat="47.40103" lon="6.72219">
        <ele>471</ele>
        <time>2016-05-15T08:50:53.000Z</time>
      </trkpt>
      <trkpt lat="47.40102" lon="6.72217">
        <ele>471</ele>
        <time>2016-05-15T08:50:54.000Z</time>
      </trkpt>
      <trkpt lat="47.40099" lon="6.72213">
        <ele>471</ele>
        <time>2016-05-15T08:50:56.000Z</time>
      </trkpt>
      <trkpt lat="47.40098" lon="6.72211">
        <ele>471</ele>
        <time>2016-05-15T08:50:57.000Z</time>
      </trkpt>
      <trkpt lat="47.40096" lon="6.72206">
        <ele>472</ele>
        <time>2016-05-15T08:51:01.000Z</time>
      </trkpt>
      <trkpt lat="47.40096" lon="6.72204">
        <ele>472</ele>
        <time>2016-05-15T08:51:02.000Z</time>
      </trkpt>
      <trkpt lat="47.40095" lon="6.72201">
        <ele>472</ele>
        <time>2016-05-15T08:51:04.000Z</time>
      </trkpt>
      <trkpt lat="47.40094" lon="6.72198">
        <ele>473</ele>
        <time>2016-05-15T08:51:05.000Z</time>
      </trkpt>
      <trkpt lat="47.40091" lon="6.72194">
        <ele>473</ele>
        <time>2016-05-15T08:51:07.000Z</time>
      </trkpt>
      <trkpt lat="47.4009" lon="6.72192">
        <ele>473</ele>
        <time>2016-05-15T08:51:08.000Z</time>
      </trkpt>
      <trkpt lat="47.40088" lon="6.72189">
        <ele>474</ele>
        <time>2016-05-15T08:51:09.000Z</time>
      </trkpt>
      <trkpt lat="47.40086" lon="6.72186">
        <ele>474</ele>
        <time>2016-05-15T08:51:10.000Z</time>
      </trkpt>
      <trkpt lat="47.40084" lon="6.72184">
        <ele>475</ele>
        <time>2016-05-15T08:51:11.000Z</time>
      </trkpt>
      <trkpt lat="47.40082" lon="6.72181">
        <ele>477</ele>
        <time>2016-05-15T08:51:12.000Z</time>
      </trkpt>
      <trkpt lat="47.40081" lon="6.72178">
        <ele>477</ele>
        <time>2016-05-15T08:51:13.000Z</time>
      </trkpt>
      <trkpt lat="47.40079" lon="6.72176">
        <ele>477</ele>
        <time>2016-05-15T08:51:14.000Z</time>
      </trkpt>
      <trkpt lat="47.40078" lon="6.72173">
        <ele>478</ele>
        <time>2016-05-15T08:51:15.000Z</time>
      </trkpt>
      <trkpt lat="47.40075" lon="6.72171">
        <ele>478</ele>
        <time>2016-05-15T08:51:16.000Z</time>
      </trkpt>
      <trkpt lat="47.40073" lon="6.72168">
        <ele>478</ele>
        <time>2016-05-15T08:51:17.000Z</time>
      </trkpt>
      <trkpt lat="47.40071" lon="6.72165">
        <ele>479</ele>
        <time>2016-05-15T08:51:18.000Z</time>
      </trkpt>
      <trkpt lat="47.40069" lon="6.72163">
        <ele>480</ele>
        <time>2016-05-15T08:51:19.000Z</time>
      </trkpt>
      <trkpt lat="47.40068" lon="6.7216">
        <ele>480</ele>
        <time>2016-05-15T08:51:20.000Z</time>
      </trkpt>
      <trkpt lat="47.40066" lon="6.72157">
        <ele>480</ele>
        <time>2016-05-15T08:51:21.000Z</time>
      </trkpt>
      <trkpt lat="47.40064" lon="6.72154">
        <ele>480</ele>
        <time>2016-05-15T08:51:22.000Z</time>
      </trkpt>
      <trkpt lat="47.40061" lon="6.7215">
        <ele>481</ele>
        <time>2016-05-15T08:51:24.000Z</time>
      </trkpt>
      <trkpt lat="47.4006" lon="6.72149">
        <ele>481</ele>
        <time>2016-05-15T08:51:25.000Z</time>
      </trkpt>
      <trkpt lat="47.40057" lon="6.72145">
        <ele>481</ele>
        <time>2016-05-15T08:51:27.000Z</time>
      </trkpt>
      <trkpt lat="47.40056" lon="6.72144">
        <ele>481</ele>
        <time>2016-05-15T08:51:28.000Z</time>
      </trkpt>
      <trkpt lat="47.40054" lon="6.72139">
        <ele>481</ele>
        <time>2016-05-15T08:51:31.000Z</time>
      </trkpt>
      <trkpt lat="47.40053" lon="6.72138">
        <ele>481</ele>
        <time>2016-05-15T08:51:32.000Z</time>
      </trkpt>
      <trkpt lat="47.40049" lon="6.72134">
        <ele>481</ele>
        <time>2016-05-15T08:51:35.000Z</time>
      </trkpt>
      <trkpt lat="47.40048" lon="6.72134">
        <ele>481</ele>
        <time>2016-05-15T08:51:36.000Z</time>
      </trkpt>
      <trkpt lat="47.40044" lon="6.72132">
        <ele>481</ele>
        <time>2016-05-15T08:51:38.000Z</time>
      </trkpt>
      <trkpt lat="47.40042" lon="6.72131">
        <ele>481</ele>
        <time>2016-05-15T08:51:39.000Z</time>
      </trkpt>
      <trkpt lat="47.40038" lon="6.72127">
        <ele>482</ele>
        <time>2016-05-15T08:51:41.000Z</time>
      </trkpt>
      <trkpt lat="47.40036" lon="6.72125">
        <ele>482</ele>
        <time>2016-05-15T08:51:42.000Z</time>
      </trkpt>
      <trkpt lat="47.40034" lon="6.72123">
        <ele>482</ele>
        <time>2016-05-15T08:51:43.000Z</time>
      </trkpt>
      <trkpt lat="47.40032" lon="6.72121">
        <ele>482</ele>
        <time>2016-05-15T08:51:44.000Z</time>
      </trkpt>
      <trkpt lat="47.4003" lon="6.72118">
        <ele>482</ele>
        <time>2016-05-15T08:51:45.000Z</time>
      </trkpt>
      <trkpt lat="47.40027" lon="6.72116">
        <ele>482</ele>
        <time>2016-05-15T08:51:46.000Z</time>
      </trkpt>
      <trkpt lat="47.40025" lon="6.72115">
        <ele>482</ele>
        <time>2016-05-15T08:51:47.000Z</time>
      </trkpt>
      <trkpt lat="47.40022" lon="6.72113">
        <ele>482</ele>
        <time>2016-05-15T08:51:48.000Z</time>
      </trkpt>
      <trkpt lat="47.40019" lon="6.72111">
        <ele>482</ele>
        <time>2016-05-15T08:51:49.000Z</time>
      </trkpt>
      <trkpt lat="47.40017" lon="6.72109">
        <ele>482</ele>
        <time>2016-05-15T08:51:50.000Z</time>
      </trkpt>
      <trkpt lat="47.40015" lon="6.72106">
        <ele>482</ele>
        <time>2016-05-15T08:51:51.000Z</time>
      </trkpt>
      <trkpt lat="47.40012" lon="6.72103">
        <ele>482</ele>
        <time>2016-05-15T08:51:52.000Z</time>
      </trkpt>
      <trkpt lat="47.40009" lon="6.721">
        <ele>482</ele>
        <time>2016-05-15T08:51:53.000Z</time>
      </trkpt>
      <trkpt lat="47.40005" lon="6.72097">
        <ele>482</ele>
        <time>2016-05-15T08:51:54.000Z</time>
      </trkpt>
      <trkpt lat="47.40002" lon="6.72095">
        <ele>483</ele>
        <time>2016-05-15T08:51:55.000Z</time>
      </trkpt>
      <trkpt lat="47.39999" lon="6.72092">
        <ele>483</ele>
        <time>2016-05-15T08:51:56.000Z</time>
      </trkpt>
      <trkpt lat="47.39997" lon="6.7209">
        <ele>483</ele>
        <time>2016-05-15T08:51:57.000Z</time>
      </trkpt>
      <trkpt lat="47.39995" lon="6.72088">
        <ele>483</ele>
        <time>2016-05-15T08:51:58.000Z</time>
      </trkpt>
      <trkpt lat="47.39992" lon="6.72085">
        <ele>483</ele>
        <time>2016-05-15T08:52:00.000Z</time>
      </trkpt>
      <trkpt lat="47.39991" lon="6.72083">
        <ele>483</ele>
        <time>2016-05-15T08:52:01.000Z</time>
      </trkpt>
      <trkpt lat="47.39988" lon="6.72084">
        <ele>483</ele>
        <time>2016-05-15T08:52:03.000Z</time>
      </trkpt>
      <trkpt lat="47.39986" lon="6.72086">
        <ele>483</ele>
        <time>2016-05-15T08:52:04.000Z</time>
      </trkpt>
      <trkpt lat="47.39983" lon="6.72089">
        <ele>483</ele>
        <time>2016-05-15T08:52:06.000Z</time>
      </trkpt>
      <trkpt lat="47.39982" lon="6.72091">
        <ele>483</ele>
        <time>2016-05-15T08:52:07.000Z</time>
      </trkpt>
      <trkpt lat="47.39981" lon="6.72097">
        <ele>483</ele>
        <time>2016-05-15T08:52:14.000Z</time>
      </trkpt>
      <trkpt lat="47.39982" lon="6.72098">
        <ele>483</ele>
        <time>2016-05-15T08:52:15.000Z</time>
      </trkpt>
      <trkpt lat="47.39986" lon="6.72096">
        <ele>483</ele>
        <time>2016-05-15T08:52:19.000Z</time>
      </trkpt>
      <trkpt lat="47.39987" lon="6.72096">
        <ele>483</ele>
        <time>2016-05-15T08:52:20.000Z</time>
      </trkpt>
      <trkpt lat="47.3999" lon="6.72097">
        <ele>483</ele>
        <time>2016-05-15T08:52:24.000Z</time>
      </trkpt>
      <trkpt lat="47.39991" lon="6.72099">
        <ele>483</ele>
        <time>2016-05-15T08:52:25.000Z</time>
      </trkpt>
      <trkpt lat="47.39995" lon="6.72102">
        <ele>483</ele>
        <time>2016-05-15T08:52:28.000Z</time>
      </trkpt>
      <trkpt lat="47.39996" lon="6.72104">
        <ele>483</ele>
        <time>2016-05-15T08:52:29.000Z</time>
      </trkpt>
      <trkpt lat="47.39997" lon="6.72109">
        <ele>483</ele>
        <time>2016-05-15T08:52:32.000Z</time>
      </trkpt>
      <trkpt lat="47.39998" lon="6.72111">
        <ele>483</ele>
        <time>2016-05-15T08:52:33.000Z</time>
      </trkpt>
      <trkpt lat="47.40001" lon="6.72114">
        <ele>482</ele>
        <time>2016-05-15T08:52:37.000Z</time>
      </trkpt>
      <trkpt lat="47.40002" lon="6.72115">
        <ele>482</ele>
        <time>2016-05-15T08:52:38.000Z</time>
      </trkpt>
      <trkpt lat="47.40004" lon="6.72118">
        <ele>482</ele>
        <time>2016-05-15T08:52:41.000Z</time>
      </trkpt>
      <trkpt lat="47.40005" lon="6.7212">
        <ele>481</ele>
        <time>2016-05-15T08:52:42.000Z</time>
      </trkpt>
      <trkpt lat="47.40008" lon="6.72123">
        <ele>481</ele>
        <time>2016-05-15T08:52:45.000Z</time>
      </trkpt>
      <trkpt lat="47.40009" lon="6.72123">
        <ele>481</ele>
        <time>2016-05-15T08:52:46.000Z</time>
      </trkpt>
      <trkpt lat="47.40012" lon="6.72125">
        <ele>481</ele>
        <time>2016-05-15T08:52:49.000Z</time>
      </trkpt>
      <trkpt lat="47.40014" lon="6.72125">
        <ele>481</ele>
        <time>2016-05-15T08:52:50.000Z</time>
      </trkpt>
      <trkpt lat="47.40017" lon="6.72126">
        <ele>481</ele>
        <time>2016-05-15T08:52:51.000Z</time>
      </trkpt>
      <trkpt lat="47.4002" lon="6.72127">
        <ele>481</ele>
        <time>2016-05-15T08:52:52.000Z</time>
      </trkpt>
      <trkpt lat="47.40022" lon="6.72128">
        <ele>481</ele>
        <time>2016-05-15T08:52:53.000Z</time>
      </trkpt>
      <trkpt lat="47.40024" lon="6.72129">
        <ele>481</ele>
        <time>2016-05-15T08:52:54.000Z</time>
      </trkpt>
      <trkpt lat="47.40027" lon="6.72132">
        <ele>481</ele>
        <time>2016-05-15T08:52:56.000Z</time>
      </trkpt>
      <trkpt lat="47.40029" lon="6.72132">
        <ele>481</ele>
        <time>2016-05-15T08:52:57.000Z</time>
      </trkpt>
      <trkpt lat="47.40032" lon="6.72133">
        <ele>481</ele>
        <time>2016-05-15T08:52:59.000Z</time>
      </trkpt>
      <trkpt lat="47.40035" lon="6.72133">
        <ele>481</ele>
        <time>2016-05-15T08:53:00.000Z</time>
      </trkpt>
      <trkpt lat="47.40037" lon="6.72133">
        <ele>481</ele>
        <time>2016-05-15T08:53:01.000Z</time>
      </trkpt>
      <trkpt lat="47.40039" lon="6.72134">
        <ele>481</ele>
        <time>2016-05-15T08:53:02.000Z</time>
      </trkpt>
      <trkpt lat="47.40043" lon="6.72137">
        <ele>481</ele>
        <time>2016-05-15T08:53:04.000Z</time>
      </trkpt>
      <trkpt lat="47.40045" lon="6.72138">
        <ele>481</ele>
        <time>2016-05-15T08:53:05.000Z</time>
      </trkpt>
      <trkpt lat="47.40049" lon="6.72141">
        <ele>481</ele>
        <time>2016-05-15T08:53:07.000Z</time>
      </trkpt>
      <trkpt lat="47.40051" lon="6.72144">
        <ele>481</ele>
        <time>2016-05-15T08:53:08.000Z</time>
      </trkpt>
      <trkpt lat="47.40052" lon="6.72146">
        <ele>481</ele>
        <time>2016-05-15T08:53:09.000Z</time>
      </trkpt>
      <trkpt lat="47.40054" lon="6.72148">
        <ele>481</ele>
        <time>2016-05-15T08:53:10.000Z</time>
      </trkpt>
      <trkpt lat="47.40057" lon="6.72151">
        <ele>481</ele>
        <time>2016-05-15T08:53:12.000Z</time>
      </trkpt>
      <trkpt lat="47.40059" lon="6.72152">
        <ele>480</ele>
        <time>2016-05-15T08:53:13.000Z</time>
      </trkpt>
      <trkpt lat="47.40062" lon="6.72155">
        <ele>480</ele>
        <time>2016-05-15T08:53:15.000Z</time>
      </trkpt>
      <trkpt lat="47.40063" lon="6.72157">
        <ele>480</ele>
        <time>2016-05-15T08:53:16.000Z</time>
      </trkpt>
      <trkpt lat="47.40067" lon="6.72158">
        <ele>480</ele>
        <time>2016-05-15T08:53:18.000Z</time>
      </trkpt>
      <trkpt lat="47.4007" lon="6.72158">
        <ele>480</ele>
        <time>2016-05-15T08:53:19.000Z</time>
      </trkpt>
      <trkpt lat="47.40074" lon="6.72158">
        <ele>480</ele>
        <time>2016-05-15T08:53:21.000Z</time>
      </trkpt>
      <trkpt lat="47.40076" lon="6.72158">
        <ele>479</ele>
        <time>2016-05-15T08:53:22.000Z</time>
      </trkpt>
      <trkpt lat="47.40083" lon="6.72146">
        <ele>480</ele>
        <time>2016-05-15T08:53:23.000Z</time>
      </trkpt>
      <trkpt lat="47.40085" lon="6.72143">
        <ele>481</ele>
        <time>2016-05-15T08:53:25.000Z</time>
      </trkpt>
      <trkpt lat="47.40086" lon="6.72139">
        <ele>481</ele>
        <time>2016-05-15T08:53:26.000Z</time>
      </trkpt>
      <trkpt lat="47.40088" lon="6.72136">
        <ele>481</ele>
        <time>2016-05-15T08:53:27.000Z</time>
      </trkpt>
      <trkpt lat="47.4009" lon="6.72132">
        <ele>482</ele>
        <time>2016-05-15T08:53:28.000Z</time>
      </trkpt>
      <trkpt lat="47.40093" lon="6.72129">
        <ele>482</ele>
        <time>2016-05-15T08:53:29.000Z</time>
      </trkpt>
      <trkpt lat="47.40094" lon="6.72126">
        <ele>482</ele>
        <time>2016-05-15T08:53:30.000Z</time>
      </trkpt>
      <trkpt lat="47.40097" lon="6.72121">
        <ele>483</ele>
        <time>2016-05-15T08:53:32.000Z</time>
      </trkpt>
      <trkpt lat="47.40099" lon="6.72117">
        <ele>483</ele>
        <time>2016-05-15T08:53:33.000Z</time>
      </trkpt>
      <trkpt lat="47.40101" lon="6.72113">
        <ele>483</ele>
        <time>2016-05-15T08:53:34.000Z</time>
      </trkpt>
      <trkpt lat="47.40103" lon="6.7211">
        <ele>483</ele>
        <time>2016-05-15T08:53:35.000Z</time>
      </trkpt>
      <trkpt lat="47.40106" lon="6.72105">
        <ele>484</ele>
        <time>2016-05-15T08:53:36.000Z</time>
      </trkpt>
      <trkpt lat="47.40108" lon="6.72101">
        <ele>484</ele>
        <time>2016-05-15T08:53:37.000Z</time>
      </trkpt>
      <trkpt lat="47.4011" lon="6.72097">
        <ele>484</ele>
        <time>2016-05-15T08:53:38.000Z</time>
      </trkpt>
      <trkpt lat="47.40111" lon="6.72093">
        <ele>484</ele>
        <time>2016-05-15T08:53:39.000Z</time>
      </trkpt>
      <trkpt lat="47.40113" lon="6.7209">
        <ele>484</ele>
        <time>2016-05-15T08:53:40.000Z</time>
      </trkpt>
      <trkpt lat="47.40114" lon="6.72088">
        <ele>484</ele>
        <time>2016-05-15T08:53:41.000Z</time>
      </trkpt>
      <trkpt lat="47.40116" lon="6.72082">
        <ele>489</ele>
        <time>2016-05-15T08:53:43.000Z</time>
      </trkpt>
      <trkpt lat="47.40117" lon="6.72079">
        <ele>489</ele>
        <time>2016-05-15T08:53:44.000Z</time>
      </trkpt>
      <trkpt lat="47.40118" lon="6.72075">
        <ele>489</ele>
        <time>2016-05-15T08:53:45.000Z</time>
      </trkpt>
      <trkpt lat="47.4012" lon="6.72071">
        <ele>489</ele>
        <time>2016-05-15T08:53:46.000Z</time>
      </trkpt>
      <trkpt lat="47.40121" lon="6.72067">
        <ele>489</ele>
        <time>2016-05-15T08:53:47.000Z</time>
      </trkpt>
      <trkpt lat="47.40123" lon="6.72062">
        <ele>489</ele>
        <time>2016-05-15T08:53:48.000Z</time>
      </trkpt>
      <trkpt lat="47.40125" lon="6.72057">
        <ele>489</ele>
        <time>2016-05-15T08:53:49.000Z</time>
      </trkpt>
      <trkpt lat="47.40127" lon="6.72052">
        <ele>489</ele>
        <time>2016-05-15T08:53:50.000Z</time>
      </trkpt>
      <trkpt lat="47.40128" lon="6.72048">
        <ele>489</ele>
        <time>2016-05-15T08:53:51.000Z</time>
      </trkpt>
      <trkpt lat="47.4013" lon="6.72043">
        <ele>490</ele>
        <time>2016-05-15T08:53:52.000Z</time>
      </trkpt>
      <trkpt lat="47.40132" lon="6.7204">
        <ele>490</ele>
        <time>2016-05-15T08:53:53.000Z</time>
      </trkpt>
      <trkpt lat="47.40134" lon="6.72036">
        <ele>490</ele>
        <time>2016-05-15T08:53:54.000Z</time>
      </trkpt>
      <trkpt lat="47.40136" lon="6.72033">
        <ele>490</ele>
        <time>2016-05-15T08:53:55.000Z</time>
      </trkpt>
      <trkpt lat="47.40137" lon="6.72029">
        <ele>490</ele>
        <time>2016-05-15T08:53:56.000Z</time>
      </trkpt>
      <trkpt lat="47.40137" lon="6.72025">
        <ele>490</ele>
        <time>2016-05-15T08:53:57.000Z</time>
      </trkpt>
      <trkpt lat="47.40136" lon="6.7202">
        <ele>490</ele>
        <time>2016-05-15T08:53:58.000Z</time>
      </trkpt>
      <trkpt lat="47.40136" lon="6.72016">
        <ele>490</ele>
        <time>2016-05-15T08:53:59.000Z</time>
      </trkpt>
      <trkpt lat="47.40136" lon="6.72011">
        <ele>490</ele>
        <time>2016-05-15T08:54:00.000Z</time>
      </trkpt>
      <trkpt lat="47.40136" lon="6.72007">
        <ele>490</ele>
        <time>2016-05-15T08:54:01.000Z</time>
      </trkpt>
      <trkpt lat="47.40137" lon="6.72003">
        <ele>490</ele>
        <time>2016-05-15T08:54:02.000Z</time>
      </trkpt>
      <trkpt lat="47.40136" lon="6.71999">
        <ele>492</ele>
        <time>2016-05-15T08:54:03.000Z</time>
      </trkpt>
      <trkpt lat="47.40136" lon="6.71995">
        <ele>492</ele>
        <time>2016-05-15T08:54:04.000Z</time>
      </trkpt>
      <trkpt lat="47.40135" lon="6.71992">
        <ele>492</ele>
        <time>2016-05-15T08:54:05.000Z</time>
      </trkpt>
      <trkpt lat="47.40134" lon="6.71988">
        <ele>492</ele>
        <time>2016-05-15T08:54:06.000Z</time>
      </trkpt>
      <trkpt lat="47.40133" lon="6.71984">
        <ele>492</ele>
        <time>2016-05-15T08:54:07.000Z</time>
      </trkpt>
      <trkpt lat="47.40132" lon="6.7198">
        <ele>492</ele>
        <time>2016-05-15T08:54:08.000Z</time>
      </trkpt>
      <trkpt lat="47.40131" lon="6.71974">
        <ele>492</ele>
        <time>2016-05-15T08:54:10.000Z</time>
      </trkpt>
      <trkpt lat="47.40131" lon="6.71972">
        <ele>493</ele>
        <time>2016-05-15T08:54:11.000Z</time>
      </trkpt>
      <trkpt lat="47.4013" lon="6.71967">
        <ele>493</ele>
        <time>2016-05-15T08:54:13.000Z</time>
      </trkpt>
      <trkpt lat="47.4013" lon="6.71964">
        <ele>493</ele>
        <time>2016-05-15T08:54:14.000Z</time>
      </trkpt>
      <trkpt lat="47.40129" lon="6.71961">
        <ele>493</ele>
        <time>2016-05-15T08:54:15.000Z</time>
      </trkpt>
      <trkpt lat="47.40129" lon="6.71958">
        <ele>493</ele>
        <time>2016-05-15T08:54:16.000Z</time>
      </trkpt>
      <trkpt lat="47.40128" lon="6.71954">
        <ele>493</ele>
        <time>2016-05-15T08:54:17.000Z</time>
      </trkpt>
      <trkpt lat="47.40128" lon="6.71951">
        <ele>493</ele>
        <time>2016-05-15T08:54:18.000Z</time>
      </trkpt>
      <trkpt lat="47.40128" lon="6.71947">
        <ele>493</ele>
        <time>2016-05-15T08:54:19.000Z</time>
      </trkpt>
      <trkpt lat="47.40128" lon="6.71943">
        <ele>493</ele>
        <time>2016-05-15T08:54:20.000Z</time>
      </trkpt>
      <trkpt lat="47.40127" lon="6.7194">
        <ele>493</ele>
        <time>2016-05-15T08:54:21.000Z</time>
      </trkpt>
      <trkpt lat="47.40126" lon="6.71937">
        <ele>493</ele>
        <time>2016-05-15T08:54:22.000Z</time>
      </trkpt>
      <trkpt lat="47.40124" lon="6.71934">
        <ele>493</ele>
        <time>2016-05-15T08:54:23.000Z</time>
      </trkpt>
      <trkpt lat="47.40121" lon="6.71933">
        <ele>493</ele>
        <time>2016-05-15T08:54:24.000Z</time>
      </trkpt>
      <trkpt lat="47.40119" lon="6.71932">
        <ele>493</ele>
        <time>2016-05-15T08:54:25.000Z</time>
      </trkpt>
      <trkpt lat="47.40116" lon="6.71933">
        <ele>493</ele>
        <time>2016-05-15T08:54:26.000Z</time>
      </trkpt>
      <trkpt lat="47.40114" lon="6.71934">
        <ele>493</ele>
        <time>2016-05-15T08:54:27.000Z</time>
      </trkpt>
      <trkpt lat="47.40111" lon="6.71936">
        <ele>493</ele>
        <time>2016-05-15T08:54:28.000Z</time>
      </trkpt>
      <trkpt lat="47.40108" lon="6.71937">
        <ele>494</ele>
        <time>2016-05-15T08:54:29.000Z</time>
      </trkpt>
      <trkpt lat="47.40106" lon="6.71939">
        <ele>494</ele>
        <time>2016-05-15T08:54:30.000Z</time>
      </trkpt>
      <trkpt lat="47.40104" lon="6.7194">
        <ele>494</ele>
        <time>2016-05-15T08:54:31.000Z</time>
      </trkpt>
      <trkpt lat="47.40102" lon="6.71942">
        <ele>494</ele>
        <time>2016-05-15T08:54:32.000Z</time>
      </trkpt>
      <trkpt lat="47.40098" lon="6.71945">
        <ele>494</ele>
        <time>2016-05-15T08:54:34.000Z</time>
      </trkpt>
      <trkpt lat="47.40096" lon="6.71947">
        <ele>494</ele>
        <time>2016-05-15T08:54:35.000Z</time>
      </trkpt>
      <trkpt lat="47.40094" lon="6.71948">
        <ele>494</ele>
        <time>2016-05-15T08:54:36.000Z</time>
      </trkpt>
      <trkpt lat="47.40092" lon="6.7195">
        <ele>494</ele>
        <time>2016-05-15T08:54:37.000Z</time>
      </trkpt>
      <trkpt lat="47.4009" lon="6.71952">
        <ele>494</ele>
        <time>2016-05-15T08:54:38.000Z</time>
      </trkpt>
      <trkpt lat="47.40088" lon="6.71954">
        <ele>494</ele>
        <time>2016-05-15T08:54:39.000Z</time>
      </trkpt>
      <trkpt lat="47.40085" lon="6.71957">
        <ele>494</ele>
        <time>2016-05-15T08:54:41.000Z</time>
      </trkpt>
      <trkpt lat="47.40083" lon="6.71959">
        <ele>496</ele>
        <time>2016-05-15T08:54:42.000Z</time>
      </trkpt>
      <trkpt lat="47.40079" lon="6.71961">
        <ele>496</ele>
        <time>2016-05-15T08:54:44.000Z</time>
      </trkpt>
      <trkpt lat="47.40078" lon="6.71962">
        <ele>496</ele>
        <time>2016-05-15T08:54:45.000Z</time>
      </trkpt>
      <trkpt lat="47.40075" lon="6.71965">
        <ele>496</ele>
        <time>2016-05-15T08:54:47.000Z</time>
      </trkpt>
      <trkpt lat="47.40073" lon="6.71966">
        <ele>496</ele>
        <time>2016-05-15T08:54:48.000Z</time>
      </trkpt>
      <trkpt lat="47.4007" lon="6.71969">
        <ele>496</ele>
        <time>2016-05-15T08:54:51.000Z</time>
      </trkpt>
      <trkpt lat="47.40069" lon="6.7197">
        <ele>496</ele>
        <time>2016-05-15T08:54:52.000Z</time>
      </trkpt>
      <trkpt lat="47.40065" lon="6.71972">
        <ele>496</ele>
        <time>2016-05-15T08:54:55.000Z</time>
      </trkpt>
      <trkpt lat="47.40064" lon="6.71973">
        <ele>496</ele>
        <time>2016-05-15T08:54:56.000Z</time>
      </trkpt>
      <trkpt lat="47.40061" lon="6.71976">
        <ele>496</ele>
        <time>2016-05-15T08:55:00.000Z</time>
      </trkpt>
      <trkpt lat="47.4006" lon="6.71976">
        <ele>496</ele>
        <time>2016-05-15T08:55:01.000Z</time>
      </trkpt>
      <trkpt lat="47.40056" lon="6.71976">
        <ele>497</ele>
        <time>2016-05-15T08:55:05.000Z</time>
      </trkpt>
      <trkpt lat="47.40055" lon="6.71975">
        <ele>497</ele>
        <time>2016-05-15T08:55:06.000Z</time>
      </trkpt>
      <trkpt lat="47.40051" lon="6.71973">
        <ele>497</ele>
        <time>2016-05-15T08:55:13.000Z</time>
      </trkpt>
      <trkpt lat="47.4005" lon="6.71972">
        <ele>497</ele>
        <time>2016-05-15T08:55:14.000Z</time>
      </trkpt>
      <trkpt lat="47.40047" lon="6.7197">
        <ele>497</ele>
        <time>2016-05-15T08:55:17.000Z</time>
      </trkpt>
      <trkpt lat="47.40046" lon="6.71969">
        <ele>497</ele>
        <time>2016-05-15T08:55:18.000Z</time>
      </trkpt>
      <trkpt lat="47.40042" lon="6.71966">
        <ele>497</ele>
        <time>2016-05-15T08:55:21.000Z</time>
      </trkpt>
      <trkpt lat="47.40041" lon="6.71965">
        <ele>497</ele>
        <time>2016-05-15T08:55:22.000Z</time>
      </trkpt>
      <trkpt lat="47.40038" lon="6.71961">
        <ele>497</ele>
        <time>2016-05-15T08:55:25.000Z</time>
      </trkpt>
      <trkpt lat="47.40037" lon="6.7196">
        <ele>497</ele>
        <time>2016-05-15T08:55:26.000Z</time>
      </trkpt>
      <trkpt lat="47.40033" lon="6.71958">
        <ele>497</ele>
        <time>2016-05-15T08:55:29.000Z</time>
      </trkpt>
      <trkpt lat="47.40031" lon="6.71958">
        <ele>497</ele>
        <time>2016-05-15T08:55:30.000Z</time>
      </trkpt>
      <trkpt lat="47.40028" lon="6.71956">
        <ele>497</ele>
        <time>2016-05-15T08:55:33.000Z</time>
      </trkpt>
      <trkpt lat="47.40027" lon="6.71955">
        <ele>497</ele>
        <time>2016-05-15T08:55:34.000Z</time>
      </trkpt>
      <trkpt lat="47.40023" lon="6.71952">
        <ele>497</ele>
        <time>2016-05-15T08:55:37.000Z</time>
      </trkpt>
      <trkpt lat="47.40022" lon="6.71951">
        <ele>497</ele>
        <time>2016-05-15T08:55:38.000Z</time>
      </trkpt>
      <trkpt lat="47.40019" lon="6.71949">
        <ele>498</ele>
        <time>2016-05-15T08:55:41.000Z</time>
      </trkpt>
      <trkpt lat="47.40018" lon="6.71949">
        <ele>498</ele>
        <time>2016-05-15T08:55:42.000Z</time>
      </trkpt>
      <trkpt lat="47.40014" lon="6.71947">
        <ele>498</ele>
        <time>2016-05-15T08:55:45.000Z</time>
      </trkpt>
      <trkpt lat="47.40013" lon="6.71946">
        <ele>498</ele>
        <time>2016-05-15T08:55:46.000Z</time>
      </trkpt>
      <trkpt lat="47.40009" lon="6.71945">
        <ele>498</ele>
        <time>2016-05-15T08:55:49.000Z</time>
      </trkpt>
      <trkpt lat="47.40007" lon="6.71944">
        <ele>498</ele>
        <time>2016-05-15T08:55:50.000Z</time>
      </trkpt>
      <trkpt lat="47.40004" lon="6.71943">
        <ele>498</ele>
        <time>2016-05-15T08:55:52.000Z</time>
      </trkpt>
      <trkpt lat="47.40002" lon="6.71942">
        <ele>498</ele>
        <time>2016-05-15T08:55:53.000Z</time>
      </trkpt>
      <trkpt lat="47.39999" lon="6.71939">
        <ele>500</ele>
        <time>2016-05-15T08:55:55.000Z</time>
      </trkpt>
      <trkpt lat="47.39997" lon="6.71938">
        <ele>500</ele>
        <time>2016-05-15T08:55:56.000Z</time>
      </trkpt>
      <trkpt lat="47.39994" lon="6.71936">
        <ele>500</ele>
        <time>2016-05-15T08:55:58.000Z</time>
      </trkpt>
      <trkpt lat="47.39992" lon="6.71936">
        <ele>500</ele>
        <time>2016-05-15T08:55:59.000Z</time>
      </trkpt>
      <trkpt lat="47.39989" lon="6.71937">
        <ele>501</ele>
        <time>2016-05-15T08:56:01.000Z</time>
      </trkpt>
      <trkpt lat="47.39987" lon="6.71937">
        <ele>501</ele>
        <time>2016-05-15T08:56:02.000Z</time>
      </trkpt>
      <trkpt lat="47.39985" lon="6.71935">
        <ele>501</ele>
        <time>2016-05-15T08:56:04.000Z</time>
      </trkpt>
      <trkpt lat="47.39983" lon="6.71934">
        <ele>501</ele>
        <time>2016-05-15T08:56:05.000Z</time>
      </trkpt>
      <trkpt lat="47.3998" lon="6.71933">
        <ele>501</ele>
        <time>2016-05-15T08:56:07.000Z</time>
      </trkpt>
      <trkpt lat="47.39978" lon="6.71932">
        <ele>501</ele>
        <time>2016-05-15T08:56:08.000Z</time>
      </trkpt>
      <trkpt lat="47.39975" lon="6.7193">
        <ele>501</ele>
        <time>2016-05-15T08:56:10.000Z</time>
      </trkpt>
      <trkpt lat="47.39973" lon="6.7193">
        <ele>501</ele>
        <time>2016-05-15T08:56:11.000Z</time>
      </trkpt>
      <trkpt lat="47.3997" lon="6.71928">
        <ele>501</ele>
        <time>2016-05-15T08:56:13.000Z</time>
      </trkpt>
      <trkpt lat="47.39969" lon="6.71927">
        <ele>501</ele>
        <time>2016-05-15T08:56:14.000Z</time>
      </trkpt>
      <trkpt lat="47.39966" lon="6.71925">
        <ele>502</ele>
        <time>2016-05-15T08:56:16.000Z</time>
      </trkpt>
      <trkpt lat="47.39965" lon="6.71925">
        <ele>502</ele>
        <time>2016-05-15T08:56:17.000Z</time>
      </trkpt>
      <trkpt lat="47.39961" lon="6.71923">
        <ele>502</ele>
        <time>2016-05-15T08:56:19.000Z</time>
      </trkpt>
      <trkpt lat="47.3996" lon="6.71922">
        <ele>502</ele>
        <time>2016-05-15T08:56:20.000Z</time>
      </trkpt>
      <trkpt lat="47.39957" lon="6.71921">
        <ele>502</ele>
        <time>2016-05-15T08:56:22.000Z</time>
      </trkpt>
      <trkpt lat="47.39955" lon="6.71921">
        <ele>502</ele>
        <time>2016-05-15T08:56:23.000Z</time>
      </trkpt>
      <trkpt lat="47.39951" lon="6.7192">
        <ele>503</ele>
        <time>2016-05-15T08:56:26.000Z</time>
      </trkpt>
      <trkpt lat="47.39949" lon="6.71919">
        <ele>503</ele>
        <time>2016-05-15T08:56:27.000Z</time>
      </trkpt>
      <trkpt lat="47.39946" lon="6.71918">
        <ele>503</ele>
        <time>2016-05-15T08:56:29.000Z</time>
      </trkpt>
      <trkpt lat="47.39944" lon="6.71918">
        <ele>503</ele>
        <time>2016-05-15T08:56:30.000Z</time>
      </trkpt>
      <trkpt lat="47.39941" lon="6.71917">
        <ele>504</ele>
        <time>2016-05-15T08:56:32.000Z</time>
      </trkpt>
      <trkpt lat="47.39939" lon="6.71917">
        <ele>504</ele>
        <time>2016-05-15T08:56:33.000Z</time>
      </trkpt>
      <trkpt lat="47.39935" lon="6.71917">
        <ele>507</ele>
        <time>2016-05-15T08:56:35.000Z</time>
      </trkpt>
      <trkpt lat="47.39934" lon="6.71916">
        <ele>507</ele>
        <time>2016-05-15T08:56:36.000Z</time>
      </trkpt>
      <trkpt lat="47.39931" lon="6.71915">
        <ele>507</ele>
        <time>2016-05-15T08:56:38.000Z</time>
      </trkpt>
      <trkpt lat="47.39929" lon="6.71914">
        <ele>507</ele>
        <time>2016-05-15T08:56:39.000Z</time>
      </trkpt>
      <trkpt lat="47.39926" lon="6.71914">
        <ele>508</ele>
        <time>2016-05-15T08:56:42.000Z</time>
      </trkpt>
      <trkpt lat="47.39924" lon="6.71914">
        <ele>508</ele>
        <time>2016-05-15T08:56:43.000Z</time>
      </trkpt>
      <trkpt lat="47.39921" lon="6.71914">
        <ele>508</ele>
        <time>2016-05-15T08:56:45.000Z</time>
      </trkpt>
      <trkpt lat="47.39919" lon="6.71913">
        <ele>508</ele>
        <time>2016-05-15T08:56:46.000Z</time>
      </trkpt>
      <trkpt lat="47.39916" lon="6.71912">
        <ele>510</ele>
        <time>2016-05-15T08:56:48.000Z</time>
      </trkpt>
      <trkpt lat="47.39914" lon="6.71911">
        <ele>510</ele>
        <time>2016-05-15T08:56:49.000Z</time>
      </trkpt>
      <trkpt lat="47.39911" lon="6.71909">
        <ele>511</ele>
        <time>2016-05-15T08:56:51.000Z</time>
      </trkpt>
      <trkpt lat="47.3991" lon="6.71908">
        <ele>511</ele>
        <time>2016-05-15T08:56:52.000Z</time>
      </trkpt>
      <trkpt lat="47.39907" lon="6.71906">
        <ele>511</ele>
        <time>2016-05-15T08:56:54.000Z</time>
      </trkpt>
      <trkpt lat="47.39905" lon="6.71904">
        <ele>512</ele>
        <time>2016-05-15T08:56:55.000Z</time>
      </trkpt>
      <trkpt lat="47.39902" lon="6.71902">
        <ele>512</ele>
        <time>2016-05-15T08:56:57.000Z</time>
      </trkpt>
      <trkpt lat="47.399" lon="6.71901">
        <ele>512</ele>
        <time>2016-05-15T08:56:58.000Z</time>
      </trkpt>
      <trkpt lat="47.39896" lon="6.719">
        <ele>513</ele>
        <time>2016-05-15T08:57:00.000Z</time>
      </trkpt>
      <trkpt lat="47.39894" lon="6.719">
        <ele>513</ele>
        <time>2016-05-15T08:57:01.000Z</time>
      </trkpt>
      <trkpt lat="47.39891" lon="6.71899">
        <ele>513</ele>
        <time>2016-05-15T08:57:03.000Z</time>
      </trkpt>
      <trkpt lat="47.39889" lon="6.71899">
        <ele>513</ele>
        <time>2016-05-15T08:57:04.000Z</time>
      </trkpt>
      <trkpt lat="47.39885" lon="6.71899">
        <ele>513</ele>
        <time>2016-05-15T08:57:06.000Z</time>
      </trkpt>
      <trkpt lat="47.39883" lon="6.71898">
        <ele>513</ele>
        <time>2016-05-15T08:57:07.000Z</time>
      </trkpt>
      <trkpt lat="47.3988" lon="6.71897">
        <ele>514</ele>
        <time>2016-05-15T08:57:09.000Z</time>
      </trkpt>
      <trkpt lat="47.39878" lon="6.71896">
        <ele>514</ele>
        <time>2016-05-15T08:57:10.000Z</time>
      </trkpt>
      <trkpt lat="47.39874" lon="6.71895">
        <ele>514</ele>
        <time>2016-05-15T08:57:12.000Z</time>
      </trkpt>
      <trkpt lat="47.39873" lon="6.71895">
        <ele>514</ele>
        <time>2016-05-15T08:57:13.000Z</time>
      </trkpt>
      <trkpt lat="47.39869" lon="6.71894">
        <ele>514</ele>
        <time>2016-05-15T08:57:15.000Z</time>
      </trkpt>
      <trkpt lat="47.39867" lon="6.71894">
        <ele>515</ele>
        <time>2016-05-15T08:57:16.000Z</time>
      </trkpt>
      <trkpt lat="47.39864" lon="6.71893">
        <ele>515</ele>
        <time>2016-05-15T08:57:18.000Z</time>
      </trkpt>
      <trkpt lat="47.39862" lon="6.71893">
        <ele>515</ele>
        <time>2016-05-15T08:57:19.000Z</time>
      </trkpt>
      <trkpt lat="47.39858" lon="6.71891">
        <ele>515</ele>
        <time>2016-05-15T08:57:21.000Z</time>
      </trkpt>
      <trkpt lat="47.39856" lon="6.71891">
        <ele>515</ele>
        <time>2016-05-15T08:57:22.000Z</time>
      </trkpt>
      <trkpt lat="47.39852" lon="6.71889">
        <ele>515</ele>
        <time>2016-05-15T08:57:24.000Z</time>
      </trkpt>
      <trkpt lat="47.39849" lon="6.71888">
        <ele>515</ele>
        <time>2016-05-15T08:57:25.000Z</time>
      </trkpt>
      <trkpt lat="47.39847" lon="6.71888">
        <ele>516</ele>
        <time>2016-05-15T08:57:26.000Z</time>
      </trkpt>
      <trkpt lat="47.39845" lon="6.71886">
        <ele>516</ele>
        <time>2016-05-15T08:57:27.000Z</time>
      </trkpt>
      <trkpt lat="47.39842" lon="6.71883">
        <ele>516</ele>
        <time>2016-05-15T08:57:29.000Z</time>
      </trkpt>
      <trkpt lat="47.39841" lon="6.71881">
        <ele>516</ele>
        <time>2016-05-15T08:57:30.000Z</time>
      </trkpt>
      <trkpt lat="47.39838" lon="6.71878">
        <ele>516</ele>
        <time>2016-05-15T08:57:32.000Z</time>
      </trkpt>
      <trkpt lat="47.39837" lon="6.71877">
        <ele>516</ele>
        <time>2016-05-15T08:57:33.000Z</time>
      </trkpt>
      <trkpt lat="47.39834" lon="6.71872">
        <ele>516</ele>
        <time>2016-05-15T08:57:36.000Z</time>
      </trkpt>
      <trkpt lat="47.39834" lon="6.71871">
        <ele>516</ele>
        <time>2016-05-15T08:57:37.000Z</time>
      </trkpt>
      <trkpt lat="47.39831" lon="6.71866">
        <ele>519</ele>
        <time>2016-05-15T08:57:40.000Z</time>
      </trkpt>
      <trkpt lat="47.3983" lon="6.71864">
        <ele>519</ele>
        <time>2016-05-15T08:57:41.000Z</time>
      </trkpt>
      <trkpt lat="47.39827" lon="6.71859">
        <ele>519</ele>
        <time>2016-05-15T08:57:44.000Z</time>
      </trkpt>
      <trkpt lat="47.39826" lon="6.71858">
        <ele>519</ele>
        <time>2016-05-15T08:57:45.000Z</time>
      </trkpt>
      <trkpt lat="47.39823" lon="6.71856">
        <ele>519</ele>
        <time>2016-05-15T08:57:47.000Z</time>
      </trkpt>
      <trkpt lat="47.39822" lon="6.71854">
        <ele>519</ele>
        <time>2016-05-15T08:57:48.000Z</time>
      </trkpt>
      <trkpt lat="47.39819" lon="6.7185">
        <ele>519</ele>
        <time>2016-05-15T08:57:51.000Z</time>
      </trkpt>
      <trkpt lat="47.39817" lon="6.71849">
        <ele>519</ele>
        <time>2016-05-15T08:57:52.000Z</time>
      </trkpt>
      <trkpt lat="47.39814" lon="6.71846">
        <ele>519</ele>
        <time>2016-05-15T08:57:54.000Z</time>
      </trkpt>
      <trkpt lat="47.39812" lon="6.71845">
        <ele>519</ele>
        <time>2016-05-15T08:57:55.000Z</time>
      </trkpt>
      <trkpt lat="47.39808" lon="6.71844">
        <ele>519</ele>
        <time>2016-05-15T08:57:57.000Z</time>
      </trkpt>
      <trkpt lat="47.39806" lon="6.71843">
        <ele>519</ele>
        <time>2016-05-15T08:57:58.000Z</time>
      </trkpt>
      <trkpt lat="47.39802" lon="6.71842">
        <ele>519</ele>
        <time>2016-05-15T08:58:00.000Z</time>
      </trkpt>
      <trkpt lat="47.398" lon="6.71841">
        <ele>519</ele>
        <time>2016-05-15T08:58:01.000Z</time>
      </trkpt>
      <trkpt lat="47.39797" lon="6.71839">
        <ele>519</ele>
        <time>2016-05-15T08:58:03.000Z</time>
      </trkpt>
      <trkpt lat="47.39795" lon="6.71839">
        <ele>519</ele>
        <time>2016-05-15T08:58:04.000Z</time>
      </trkpt>
      <trkpt lat="47.39791" lon="6.71838">
        <ele>520</ele>
        <time>2016-05-15T08:58:06.000Z</time>
      </trkpt>
      <trkpt lat="47.39789" lon="6.71837">
        <ele>520</ele>
        <time>2016-05-15T08:58:07.000Z</time>
      </trkpt>
      <trkpt lat="47.39786" lon="6.71836">
        <ele>520</ele>
        <time>2016-05-15T08:58:09.000Z</time>
      </trkpt>
      <trkpt lat="47.39784" lon="6.71835">
        <ele>520</ele>
        <time>2016-05-15T08:58:10.000Z</time>
      </trkpt>
      <trkpt lat="47.39781" lon="6.71832">
        <ele>521</ele>
        <time>2016-05-15T08:58:12.000Z</time>
      </trkpt>
      <trkpt lat="47.3978" lon="6.7183">
        <ele>521</ele>
        <time>2016-05-15T08:58:13.000Z</time>
      </trkpt>
      <trkpt lat="47.39776" lon="6.71829">
        <ele>521</ele>
        <time>2016-05-15T08:58:15.000Z</time>
      </trkpt>
      <trkpt lat="47.39774" lon="6.71828">
        <ele>521</ele>
        <time>2016-05-15T08:58:16.000Z</time>
      </trkpt>
      <trkpt lat="47.39772" lon="6.71827">
        <ele>521</ele>
        <time>2016-05-15T08:58:17.000Z</time>
      </trkpt>
      <trkpt lat="47.3977" lon="6.71826">
        <ele>521</ele>
        <time>2016-05-15T08:58:18.000Z</time>
      </trkpt>
      <trkpt lat="47.39766" lon="6.71824">
        <ele>521</ele>
        <time>2016-05-15T08:58:20.000Z</time>
      </trkpt>
      <trkpt lat="47.39764" lon="6.71823">
        <ele>521</ele>
        <time>2016-05-15T08:58:21.000Z</time>
      </trkpt>
      <trkpt lat="47.3976" lon="6.71821">
        <ele>521</ele>
        <time>2016-05-15T08:58:23.000Z</time>
      </trkpt>
      <trkpt lat="47.39758" lon="6.7182">
        <ele>522</ele>
        <time>2016-05-15T08:58:24.000Z</time>
      </trkpt>
      <trkpt lat="47.39754" lon="6.71818">
        <ele>522</ele>
        <time>2016-05-15T08:58:26.000Z</time>
      </trkpt>
      <trkpt lat="47.39752" lon="6.71816">
        <ele>522</ele>
        <time>2016-05-15T08:58:27.000Z</time>
      </trkpt>
      <trkpt lat="47.3975" lon="6.71815">
        <ele>524</ele>
        <time>2016-05-15T08:58:28.000Z</time>
      </trkpt>
      <trkpt lat="47.39748" lon="6.71814">
        <ele>525</ele>
        <time>2016-05-15T08:58:29.000Z</time>
      </trkpt>
      <trkpt lat="47.39745" lon="6.71813">
        <ele>525</ele>
        <time>2016-05-15T08:58:30.000Z</time>
      </trkpt>
      <trkpt lat="47.39743" lon="6.71811">
        <ele>525</ele>
        <time>2016-05-15T08:58:31.000Z</time>
      </trkpt>
      <trkpt lat="47.39741" lon="6.7181">
        <ele>525</ele>
        <time>2016-05-15T08:58:32.000Z</time>
      </trkpt>
      <trkpt lat="47.39739" lon="6.71809">
        <ele>525</ele>
        <time>2016-05-15T08:58:33.000Z</time>
      </trkpt>
      <trkpt lat="47.39736" lon="6.71809">
        <ele>525</ele>
        <time>2016-05-15T08:58:34.000Z</time>
      </trkpt>
      <trkpt lat="47.39734" lon="6.71808">
        <ele>526</ele>
        <time>2016-05-15T08:58:35.000Z</time>
      </trkpt>
      <trkpt lat="47.39731" lon="6.71807">
        <ele>526</ele>
        <time>2016-05-15T08:58:36.000Z</time>
      </trkpt>
      <trkpt lat="47.39729" lon="6.71806">
        <ele>526</ele>
        <time>2016-05-15T08:58:37.000Z</time>
      </trkpt>
      <trkpt lat="47.39726" lon="6.71805">
        <ele>526</ele>
        <time>2016-05-15T08:58:38.000Z</time>
      </trkpt>
      <trkpt lat="47.39723" lon="6.71805">
        <ele>526</ele>
        <time>2016-05-15T08:58:39.000Z</time>
      </trkpt>
      <trkpt lat="47.39721" lon="6.71805">
        <ele>526</ele>
        <time>2016-05-15T08:58:40.000Z</time>
      </trkpt>
      <trkpt lat="47.39718" lon="6.71805">
        <ele>526</ele>
        <time>2016-05-15T08:58:41.000Z</time>
      </trkpt>
      <trkpt lat="47.39716" lon="6.71805">
        <ele>527</ele>
        <time>2016-05-15T08:58:42.000Z</time>
      </trkpt>
      <trkpt lat="47.39713" lon="6.71805">
        <ele>527</ele>
        <time>2016-05-15T08:58:43.000Z</time>
      </trkpt>
      <trkpt lat="47.3971" lon="6.71806">
        <ele>527</ele>
        <time>2016-05-15T08:58:44.000Z</time>
      </trkpt>
      <trkpt lat="47.39708" lon="6.71807">
        <ele>527</ele>
        <time>2016-05-15T08:58:45.000Z</time>
      </trkpt>
      <trkpt lat="47.39705" lon="6.71807">
        <ele>527</ele>
        <time>2016-05-15T08:58:46.000Z</time>
      </trkpt>
      <trkpt lat="47.39703" lon="6.71808">
        <ele>527</ele>
        <time>2016-05-15T08:58:47.000Z</time>
      </trkpt>
      <trkpt lat="47.39701" lon="6.71808">
        <ele>527</ele>
        <time>2016-05-15T08:58:48.000Z</time>
      </trkpt>
      <trkpt lat="47.39698" lon="6.71809">
        <ele>527</ele>
        <time>2016-05-15T08:58:49.000Z</time>
      </trkpt>
      <trkpt lat="47.39696" lon="6.7181">
        <ele>528</ele>
        <time>2016-05-15T08:58:50.000Z</time>
      </trkpt>
      <trkpt lat="47.39693" lon="6.71811">
        <ele>528</ele>
        <time>2016-05-15T08:58:51.000Z</time>
      </trkpt>
      <trkpt lat="47.39691" lon="6.71812">
        <ele>528</ele>
        <time>2016-05-15T08:58:52.000Z</time>
      </trkpt>
      <trkpt lat="47.39688" lon="6.71813">
        <ele>528</ele>
        <time>2016-05-15T08:58:53.000Z</time>
      </trkpt>
      <trkpt lat="47.39685" lon="6.71815">
        <ele>528</ele>
        <time>2016-05-15T08:58:54.000Z</time>
      </trkpt>
      <trkpt lat="47.39683" lon="6.71816">
        <ele>528</ele>
        <time>2016-05-15T08:58:55.000Z</time>
      </trkpt>
      <trkpt lat="47.39681" lon="6.71818">
        <ele>528</ele>
        <time>2016-05-15T08:58:56.000Z</time>
      </trkpt>
      <trkpt lat="47.39678" lon="6.71819">
        <ele>528</ele>
        <time>2016-05-15T08:58:57.000Z</time>
      </trkpt>
      <trkpt lat="47.39676" lon="6.71821">
        <ele>528</ele>
        <time>2016-05-15T08:58:58.000Z</time>
      </trkpt>
      <trkpt lat="47.39674" lon="6.71822">
        <ele>528</ele>
        <time>2016-05-15T08:58:59.000Z</time>
      </trkpt>
      <trkpt lat="47.39669" lon="6.71824">
        <ele>529</ele>
        <time>2016-05-15T08:59:01.000Z</time>
      </trkpt>
      <trkpt lat="47.39668" lon="6.71825">
        <ele>529</ele>
        <time>2016-05-15T08:59:02.000Z</time>
      </trkpt>
      <trkpt lat="47.39665" lon="6.71826">
        <ele>531</ele>
        <time>2016-05-15T08:59:04.000Z</time>
      </trkpt>
      <trkpt lat="47.39663" lon="6.71827">
        <ele>531</ele>
        <time>2016-05-15T08:59:05.000Z</time>
      </trkpt>
      <trkpt lat="47.39659" lon="6.71829">
        <ele>531</ele>
        <time>2016-05-15T08:59:07.000Z</time>
      </trkpt>
      <trkpt lat="47.39657" lon="6.7183">
        <ele>531</ele>
        <time>2016-05-15T08:59:08.000Z</time>
      </trkpt>
      <trkpt lat="47.39655" lon="6.7183">
        <ele>531</ele>
        <time>2016-05-15T08:59:09.000Z</time>
      </trkpt>
      <trkpt lat="47.39652" lon="6.71831">
        <ele>532</ele>
        <time>2016-05-15T08:59:10.000Z</time>
      </trkpt>
      <trkpt lat="47.39649" lon="6.71832">
        <ele>532</ele>
        <time>2016-05-15T08:59:12.000Z</time>
      </trkpt>
      <trkpt lat="47.39647" lon="6.71833">
        <ele>532</ele>
        <time>2016-05-15T08:59:13.000Z</time>
      </trkpt>
      <trkpt lat="47.39645" lon="6.71835">
        <ele>529</ele>
        <time>2016-05-15T08:59:15.000Z</time>
      </trkpt>
      <trkpt lat="47.39643" lon="6.71836">
        <ele>529</ele>
        <time>2016-05-15T08:59:16.000Z</time>
      </trkpt>
      <trkpt lat="47.39639" lon="6.71837">
        <ele>530</ele>
        <time>2016-05-15T08:59:18.000Z</time>
      </trkpt>
      <trkpt lat="47.39638" lon="6.71837">
        <ele>530</ele>
        <time>2016-05-15T08:59:19.000Z</time>
      </trkpt>
      <trkpt lat="47.39634" lon="6.71836">
        <ele>530</ele>
        <time>2016-05-15T08:59:21.000Z</time>
      </trkpt>
      <trkpt lat="47.39633" lon="6.71835">
        <ele>530</ele>
        <time>2016-05-15T08:59:22.000Z</time>
      </trkpt>
      <trkpt lat="47.39632" lon="6.7183">
        <ele>534</ele>
        <time>2016-05-15T08:59:24.000Z</time>
      </trkpt>
      <trkpt lat="47.39633" lon="6.71828">
        <ele>534</ele>
        <time>2016-05-15T08:59:25.000Z</time>
      </trkpt>
      <trkpt lat="47.39633" lon="6.71823">
        <ele>534</ele>
        <time>2016-05-15T08:59:27.000Z</time>
      </trkpt>
      <trkpt lat="47.39634" lon="6.7182">
        <ele>534</ele>
        <time>2016-05-15T08:59:28.000Z</time>
      </trkpt>
      <trkpt lat="47.39636" lon="6.71816">
        <ele>534</ele>
        <time>2016-05-15T08:59:29.000Z</time>
      </trkpt>
      <trkpt lat="47.39637" lon="6.71813">
        <ele>534</ele>
        <time>2016-05-15T08:59:30.000Z</time>
      </trkpt>
      <trkpt lat="47.3964" lon="6.7181">
        <ele>534</ele>
        <time>2016-05-15T08:59:31.000Z</time>
      </trkpt>
      <trkpt lat="47.39644" lon="6.71806">
        <ele>534</ele>
        <time>2016-05-15T08:59:32.000Z</time>
      </trkpt>
      <trkpt lat="47.39648" lon="6.71803">
        <ele>534</ele>
        <time>2016-05-15T08:59:33.000Z</time>
      </trkpt>
      <trkpt lat="47.39649" lon="6.718">
        <ele>534</ele>
        <time>2016-05-15T08:59:34.000Z</time>
      </trkpt>
      <trkpt lat="47.39648" lon="6.71795">
        <ele>534</ele>
        <time>2016-05-15T08:59:37.000Z</time>
      </trkpt>
      <trkpt lat="47.39647" lon="6.71793">
        <ele>534</ele>
        <time>2016-05-15T08:59:38.000Z</time>
      </trkpt>
      <trkpt lat="47.39645" lon="6.7179">
        <ele>534</ele>
        <time>2016-05-15T08:59:40.000Z</time>
      </trkpt>
      <trkpt lat="47.39644" lon="6.71788">
        <ele>535</ele>
        <time>2016-05-15T08:59:41.000Z</time>
      </trkpt>
      <trkpt lat="47.39642" lon="6.71784">
        <ele>535</ele>
        <time>2016-05-15T08:59:43.000Z</time>
      </trkpt>
      <trkpt lat="47.39642" lon="6.71781">
        <ele>535</ele>
        <time>2016-05-15T08:59:44.000Z</time>
      </trkpt>
      <trkpt lat="47.39641" lon="6.71777">
        <ele>535</ele>
        <time>2016-05-15T08:59:46.000Z</time>
      </trkpt>
      <trkpt lat="47.39641" lon="6.71775">
        <ele>535</ele>
        <time>2016-05-15T08:59:47.000Z</time>
      </trkpt>
      <trkpt lat="47.39639" lon="6.71769">
        <ele>535</ele>
        <time>2016-05-15T08:59:50.000Z</time>
      </trkpt>
      <trkpt lat="47.39639" lon="6.71767">
        <ele>535</ele>
        <time>2016-05-15T08:59:51.000Z</time>
      </trkpt>
      <trkpt lat="47.39638" lon="6.71763">
        <ele>535</ele>
        <time>2016-05-15T08:59:53.000Z</time>
      </trkpt>
      <trkpt lat="47.39637" lon="6.7176">
        <ele>535</ele>
        <time>2016-05-15T08:59:54.000Z</time>
      </trkpt>
      <trkpt lat="47.39636" lon="6.71755">
        <ele>535</ele>
        <time>2016-05-15T08:59:56.000Z</time>
      </trkpt>
      <trkpt lat="47.39636" lon="6.71751">
        <ele>535</ele>
        <time>2016-05-15T08:59:57.000Z</time>
      </trkpt>
      <trkpt lat="47.39636" lon="6.71748">
        <ele>536</ele>
        <time>2016-05-15T08:59:58.000Z</time>
      </trkpt>
      <trkpt lat="47.39636" lon="6.71744">
        <ele>536</ele>
        <time>2016-05-15T08:59:59.000Z</time>
      </trkpt>
      <trkpt lat="47.39636" lon="6.7174">
        <ele>536</ele>
        <time>2016-05-15T09:00:00.000Z</time>
      </trkpt>
      <trkpt lat="47.39637" lon="6.71737">
        <ele>536</ele>
        <time>2016-05-15T09:00:01.000Z</time>
      </trkpt>
      <trkpt lat="47.39638" lon="6.71733">
        <ele>536</ele>
        <time>2016-05-15T09:00:02.000Z</time>
      </trkpt>
      <trkpt lat="47.39638" lon="6.7173">
        <ele>536</ele>
        <time>2016-05-15T09:00:03.000Z</time>
      </trkpt>
      <trkpt lat="47.39639" lon="6.71724">
        <ele>536</ele>
        <time>2016-05-15T09:00:05.000Z</time>
      </trkpt>
      <trkpt lat="47.39638" lon="6.71721">
        <ele>536</ele>
        <time>2016-05-15T09:00:06.000Z</time>
      </trkpt>
      <trkpt lat="47.39638" lon="6.71717">
        <ele>536</ele>
        <time>2016-05-15T09:00:07.000Z</time>
      </trkpt>
      <trkpt lat="47.39638" lon="6.71713">
        <ele>536</ele>
        <time>2016-05-15T09:00:08.000Z</time>
      </trkpt>
      <trkpt lat="47.39638" lon="6.71709">
        <ele>536</ele>
        <time>2016-05-15T09:00:09.000Z</time>
      </trkpt>
      <trkpt lat="47.39638" lon="6.71705">
        <ele>536</ele>
        <time>2016-05-15T09:00:10.000Z</time>
      </trkpt>
      <trkpt lat="47.39638" lon="6.71701">
        <ele>536</ele>
        <time>2016-05-15T09:00:11.000Z</time>
      </trkpt>
      <trkpt lat="47.39638" lon="6.71698">
        <ele>536</ele>
        <time>2016-05-15T09:00:12.000Z</time>
      </trkpt>
      <trkpt lat="47.39638" lon="6.71694">
        <ele>536</ele>
        <time>2016-05-15T09:00:13.000Z</time>
      </trkpt>
      <trkpt lat="47.39639" lon="6.7169">
        <ele>536</ele>
        <time>2016-05-15T09:00:14.000Z</time>
      </trkpt>
      <trkpt lat="47.39639" lon="6.71685">
        <ele>536</ele>
        <time>2016-05-15T09:00:15.000Z</time>
      </trkpt>
      <trkpt lat="47.39639" lon="6.71681">
        <ele>536</ele>
        <time>2016-05-15T09:00:16.000Z</time>
      </trkpt>
      <trkpt lat="47.3964" lon="6.71676">
        <ele>536</ele>
        <time>2016-05-15T09:00:17.000Z</time>
      </trkpt>
      <trkpt lat="47.39641" lon="6.71671">
        <ele>536</ele>
        <time>2016-05-15T09:00:18.000Z</time>
      </trkpt>
      <trkpt lat="47.39642" lon="6.71665">
        <ele>536</ele>
        <time>2016-05-15T09:00:19.000Z</time>
      </trkpt>
      <trkpt lat="47.39642" lon="6.7166">
        <ele>536</ele>
        <time>2016-05-15T09:00:20.000Z</time>
      </trkpt>
      <trkpt lat="47.39642" lon="6.71655">
        <ele>536</ele>
        <time>2016-05-15T09:00:21.000Z</time>
      </trkpt>
      <trkpt lat="47.39642" lon="6.7165">
        <ele>537</ele>
        <time>2016-05-15T09:00:22.000Z</time>
      </trkpt>
      <trkpt lat="47.39643" lon="6.71645">
        <ele>537</ele>
        <time>2016-05-15T09:00:23.000Z</time>
      </trkpt>
      <trkpt lat="47.39643" lon="6.7164">
        <ele>537</ele>
        <time>2016-05-15T09:00:24.000Z</time>
      </trkpt>
      <trkpt lat="47.39643" lon="6.71635">
        <ele>537</ele>
        <time>2016-05-15T09:00:25.000Z</time>
      </trkpt>
      <trkpt lat="47.39643" lon="6.7163">
        <ele>537</ele>
        <time>2016-05-15T09:00:26.000Z</time>
      </trkpt>
      <trkpt lat="47.39643" lon="6.71625">
        <ele>537</ele>
        <time>2016-05-15T09:00:27.000Z</time>
      </trkpt>
      <trkpt lat="47.39643" lon="6.71621">
        <ele>537</ele>
        <time>2016-05-15T09:00:28.000Z</time>
      </trkpt>
      <trkpt lat="47.39644" lon="6.71616">
        <ele>537</ele>
        <time>2016-05-15T09:00:29.000Z</time>
      </trkpt>
      <trkpt lat="47.39644" lon="6.71612">
        <ele>537</ele>
        <time>2016-05-15T09:00:30.000Z</time>
      </trkpt>
      <trkpt lat="47.39644" lon="6.71607">
        <ele>537</ele>
        <time>2016-05-15T09:00:31.000Z</time>
      </trkpt>
      <trkpt lat="47.39645" lon="6.71603">
        <ele>537</ele>
        <time>2016-05-15T09:00:32.000Z</time>
      </trkpt>
      <trkpt lat="47.39645" lon="6.71598">
        <ele>537</ele>
        <time>2016-05-15T09:00:33.000Z</time>
      </trkpt>
      <trkpt lat="47.39645" lon="6.71593">
        <ele>537</ele>
        <time>2016-05-15T09:00:34.000Z</time>
      </trkpt>
      <trkpt lat="47.39645" lon="6.71588">
        <ele>537</ele>
        <time>2016-05-15T09:00:35.000Z</time>
      </trkpt>
      <trkpt lat="47.39645" lon="6.71582">
        <ele>538</ele>
        <time>2016-05-15T09:00:36.000Z</time>
      </trkpt>
      <trkpt lat="47.39646" lon="6.71578">
        <ele>538</ele>
        <time>2016-05-15T09:00:37.000Z</time>
      </trkpt>
      <trkpt lat="47.39648" lon="6.71573">
        <ele>538</ele>
        <time>2016-05-15T09:00:38.000Z</time>
      </trkpt>
      <trkpt lat="47.39649" lon="6.71568">
        <ele>538</ele>
        <time>2016-05-15T09:00:39.000Z</time>
      </trkpt>
      <trkpt lat="47.3965" lon="6.71563">
        <ele>538</ele>
        <time>2016-05-15T09:00:40.000Z</time>
      </trkpt>
      <trkpt lat="47.39651" lon="6.71558">
        <ele>538</ele>
        <time>2016-05-15T09:00:41.000Z</time>
      </trkpt>
      <trkpt lat="47.39652" lon="6.71553">
        <ele>539</ele>
        <time>2016-05-15T09:00:42.000Z</time>
      </trkpt>
      <trkpt lat="47.39652" lon="6.71548">
        <ele>539</ele>
        <time>2016-05-15T09:00:43.000Z</time>
      </trkpt>
      <trkpt lat="47.39652" lon="6.71543">
        <ele>539</ele>
        <time>2016-05-15T09:00:44.000Z</time>
      </trkpt>
      <trkpt lat="47.39652" lon="6.71538">
        <ele>539</ele>
        <time>2016-05-15T09:00:45.000Z</time>
      </trkpt>
      <trkpt lat="47.39651" lon="6.71533">
        <ele>539</ele>
        <time>2016-05-15T09:00:46.000Z</time>
      </trkpt>
      <trkpt lat="47.39651" lon="6.71529">
        <ele>539</ele>
        <time>2016-05-15T09:00:47.000Z</time>
      </trkpt>
      <trkpt lat="47.3965" lon="6.71525">
        <ele>539</ele>
        <time>2016-05-15T09:00:48.000Z</time>
      </trkpt>
      <trkpt lat="47.39649" lon="6.7152">
        <ele>539</ele>
        <time>2016-05-15T09:00:49.000Z</time>
      </trkpt>
      <trkpt lat="47.39648" lon="6.71516">
        <ele>539</ele>
        <time>2016-05-15T09:00:50.000Z</time>
      </trkpt>
      <trkpt lat="47.39647" lon="6.71512">
        <ele>539</ele>
        <time>2016-05-15T09:00:51.000Z</time>
      </trkpt>
      <trkpt lat="47.39646" lon="6.71507">
        <ele>539</ele>
        <time>2016-05-15T09:00:52.000Z</time>
      </trkpt>
      <trkpt lat="47.39645" lon="6.71503">
        <ele>539</ele>
        <time>2016-05-15T09:00:53.000Z</time>
      </trkpt>
      <trkpt lat="47.39645" lon="6.71499">
        <ele>539</ele>
        <time>2016-05-15T09:00:54.000Z</time>
      </trkpt>
      <trkpt lat="47.39645" lon="6.71495">
        <ele>539</ele>
        <time>2016-05-15T09:00:55.000Z</time>
      </trkpt>
      <trkpt lat="47.39646" lon="6.71491">
        <ele>539</ele>
        <time>2016-05-15T09:00:56.000Z</time>
      </trkpt>
      <trkpt lat="47.39647" lon="6.71488">
        <ele>539</ele>
        <time>2016-05-15T09:00:57.000Z</time>
      </trkpt>
      <trkpt lat="47.39649" lon="6.71485">
        <ele>540</ele>
        <time>2016-05-15T09:00:58.000Z</time>
      </trkpt>
      <trkpt lat="47.3965" lon="6.71482">
        <ele>540</ele>
        <time>2016-05-15T09:00:59.000Z</time>
      </trkpt>
      <trkpt lat="47.39652" lon="6.71479">
        <ele>540</ele>
        <time>2016-05-15T09:01:00.000Z</time>
      </trkpt>
      <trkpt lat="47.39653" lon="6.71476">
        <ele>540</ele>
        <time>2016-05-15T09:01:01.000Z</time>
      </trkpt>
      <trkpt lat="47.39655" lon="6.71474">
        <ele>540</ele>
        <time>2016-05-15T09:01:02.000Z</time>
      </trkpt>
      <trkpt lat="47.39659" lon="6.71472">
        <ele>539</ele>
        <time>2016-05-15T09:01:04.000Z</time>
      </trkpt>
      <trkpt lat="47.3966" lon="6.71472">
        <ele>539</ele>
        <time>2016-05-15T09:01:05.000Z</time>
      </trkpt>
      <trkpt lat="47.39664" lon="6.71473">
        <ele>539</ele>
        <time>2016-05-15T09:03:40.000Z</time>
      </trkpt>
      <trkpt lat="47.39666" lon="6.71472">
        <ele>539</ele>
        <time>2016-05-15T09:03:41.000Z</time>
      </trkpt>
      <trkpt lat="47.39669" lon="6.7147">
        <ele>532</ele>
        <time>2016-05-15T09:03:42.000Z</time>
      </trkpt>
      <trkpt lat="47.39672" lon="6.71468">
        <ele>532</ele>
        <time>2016-05-15T09:03:43.000Z</time>
      </trkpt>
      <trkpt lat="47.39675" lon="6.71465">
        <ele>532</ele>
        <time>2016-05-15T09:03:44.000Z</time>
      </trkpt>
      <trkpt lat="47.39679" lon="6.71463">
        <ele>532</ele>
        <time>2016-05-15T09:03:45.000Z</time>
      </trkpt>
      <trkpt lat="47.39683" lon="6.71461">
        <ele>532</ele>
        <time>2016-05-15T09:03:46.000Z</time>
      </trkpt>
      <trkpt lat="47.3969" lon="6.71455">
        <ele>532</ele>
        <time>2016-05-15T09:03:47.000Z</time>
      </trkpt>
      <trkpt lat="47.39694" lon="6.71452">
        <ele>531</ele>
        <time>2016-05-15T09:03:48.000Z</time>
      </trkpt>
      <trkpt lat="47.39699" lon="6.71452">
        <ele>531</ele>
        <time>2016-05-15T09:03:49.000Z</time>
      </trkpt>
      <trkpt lat="47.39703" lon="6.7145">
        <ele>531</ele>
        <time>2016-05-15T09:03:50.000Z</time>
      </trkpt>
      <trkpt lat="47.39708" lon="6.71446">
        <ele>531</ele>
        <time>2016-05-15T09:03:51.000Z</time>
      </trkpt>
      <trkpt lat="47.39713" lon="6.71442">
        <ele>531</ele>
        <time>2016-05-15T09:03:52.000Z</time>
      </trkpt>
      <trkpt lat="47.39718" lon="6.71436">
        <ele>530</ele>
        <time>2016-05-15T09:03:53.000Z</time>
      </trkpt>
      <trkpt lat="47.39723" lon="6.71434">
        <ele>530</ele>
        <time>2016-05-15T09:03:54.000Z</time>
      </trkpt>
      <trkpt lat="47.39728" lon="6.71431">
        <ele>530</ele>
        <time>2016-05-15T09:03:55.000Z</time>
      </trkpt>
      <trkpt lat="47.39734" lon="6.71427">
        <ele>529</ele>
        <time>2016-05-15T09:03:56.000Z</time>
      </trkpt>
      <trkpt lat="47.39739" lon="6.71418">
        <ele>528</ele>
        <time>2016-05-15T09:03:57.000Z</time>
      </trkpt>
      <trkpt lat="47.39745" lon="6.71415">
        <ele>528</ele>
        <time>2016-05-15T09:03:58.000Z</time>
      </trkpt>
      <trkpt lat="47.39752" lon="6.71411">
        <ele>526</ele>
        <time>2016-05-15T09:03:59.000Z</time>
      </trkpt>
      <trkpt lat="47.39759" lon="6.71406">
        <ele>526</ele>
        <time>2016-05-15T09:04:00.000Z</time>
      </trkpt>
      <trkpt lat="47.39765" lon="6.714">
        <ele>525</ele>
        <time>2016-05-15T09:04:01.000Z</time>
      </trkpt>
      <trkpt lat="47.39772" lon="6.71393">
        <ele>524</ele>
        <time>2016-05-15T09:04:02.000Z</time>
      </trkpt>
      <trkpt lat="47.39779" lon="6.71386">
        <ele>524</ele>
        <time>2016-05-15T09:04:03.000Z</time>
      </trkpt>
      <trkpt lat="47.39786" lon="6.7138">
        <ele>524</ele>
        <time>2016-05-15T09:04:04.000Z</time>
      </trkpt>
      <trkpt lat="47.39792" lon="6.71374">
        <ele>523</ele>
        <time>2016-05-15T09:04:05.000Z</time>
      </trkpt>
      <trkpt lat="47.39799" lon="6.71368">
        <ele>523</ele>
        <time>2016-05-15T09:04:06.000Z</time>
      </trkpt>
      <trkpt lat="47.39805" lon="6.71362">
        <ele>523</ele>
        <time>2016-05-15T09:04:07.000Z</time>
      </trkpt>
      <trkpt lat="47.39811" lon="6.71357">
        <ele>522</ele>
        <time>2016-05-15T09:04:08.000Z</time>
      </trkpt>
      <trkpt lat="47.39816" lon="6.7135">
        <ele>522</ele>
        <time>2016-05-15T09:04:09.000Z</time>
      </trkpt>
      <trkpt lat="47.39823" lon="6.71343">
        <ele>521</ele>
        <time>2016-05-15T09:04:10.000Z</time>
      </trkpt>
      <trkpt lat="47.39832" lon="6.71337">
        <ele>520</ele>
        <time>2016-05-15T09:04:11.000Z</time>
      </trkpt>
      <trkpt lat="47.3984" lon="6.71331">
        <ele>518</ele>
        <time>2016-05-15T09:04:12.000Z</time>
      </trkpt>
      <trkpt lat="47.39848" lon="6.71328">
        <ele>518</ele>
        <time>2016-05-15T09:04:13.000Z</time>
      </trkpt>
      <trkpt lat="47.39856" lon="6.71324">
        <ele>518</ele>
        <time>2016-05-15T09:04:14.000Z</time>
      </trkpt>
      <trkpt lat="47.39864" lon="6.71321">
        <ele>517</ele>
        <time>2016-05-15T09:04:15.000Z</time>
      </trkpt>
      <trkpt lat="47.39871" lon="6.71321">
        <ele>517</ele>
        <time>2016-05-15T09:04:16.000Z</time>
      </trkpt>
      <trkpt lat="47.39879" lon="6.71323">
        <ele>517</ele>
        <time>2016-05-15T09:04:17.000Z</time>
      </trkpt>
      <trkpt lat="47.39886" lon="6.71326">
        <ele>516</ele>
        <time>2016-05-15T09:04:18.000Z</time>
      </trkpt>
      <trkpt lat="47.39893" lon="6.71327">
        <ele>516</ele>
        <time>2016-05-15T09:04:19.000Z</time>
      </trkpt>
      <trkpt lat="47.39901" lon="6.71327">
        <ele>516</ele>
        <time>2016-05-15T09:04:20.000Z</time>
      </trkpt>
      <trkpt lat="47.39908" lon="6.71327">
        <ele>515</ele>
        <time>2016-05-15T09:04:21.000Z</time>
      </trkpt>
      <trkpt lat="47.39916" lon="6.71324">
        <ele>515</ele>
        <time>2016-05-15T09:04:22.000Z</time>
      </trkpt>
      <trkpt lat="47.39922" lon="6.7132">
        <ele>515</ele>
        <time>2016-05-15T09:04:23.000Z</time>
      </trkpt>
      <trkpt lat="47.39929" lon="6.71314">
        <ele>516</ele>
        <time>2016-05-15T09:04:24.000Z</time>
      </trkpt>
      <trkpt lat="47.39935" lon="6.71308">
        <ele>516</ele>
        <time>2016-05-15T09:04:25.000Z</time>
      </trkpt>
      <trkpt lat="47.39941" lon="6.71301">
        <ele>516</ele>
        <time>2016-05-15T09:04:26.000Z</time>
      </trkpt>
      <trkpt lat="47.39946" lon="6.71295">
        <ele>516</ele>
        <time>2016-05-15T09:04:27.000Z</time>
      </trkpt>
      <trkpt lat="47.39952" lon="6.71288">
        <ele>517</ele>
        <time>2016-05-15T09:04:28.000Z</time>
      </trkpt>
      <trkpt lat="47.39957" lon="6.71281">
        <ele>517</ele>
        <time>2016-05-15T09:04:29.000Z</time>
      </trkpt>
      <trkpt lat="47.39962" lon="6.71274">
        <ele>517</ele>
        <time>2016-05-15T09:04:30.000Z</time>
      </trkpt>
      <trkpt lat="47.39967" lon="6.71265">
        <ele>517</ele>
        <time>2016-05-15T09:04:31.000Z</time>
      </trkpt>
      <trkpt lat="47.39972" lon="6.71258">
        <ele>517</ele>
        <time>2016-05-15T09:04:32.000Z</time>
      </trkpt>
      <trkpt lat="47.39976" lon="6.7125">
        <ele>517</ele>
        <time>2016-05-15T09:04:33.000Z</time>
      </trkpt>
      <trkpt lat="47.3998" lon="6.71242">
        <ele>517</ele>
        <time>2016-05-15T09:04:34.000Z</time>
      </trkpt>
      <trkpt lat="47.39985" lon="6.71235">
        <ele>517</ele>
        <time>2016-05-15T09:04:35.000Z</time>
      </trkpt>
      <trkpt lat="47.39989" lon="6.71227">
        <ele>517</ele>
        <time>2016-05-15T09:04:36.000Z</time>
      </trkpt>
      <trkpt lat="47.39994" lon="6.71221">
        <ele>517</ele>
        <time>2016-05-15T09:04:37.000Z</time>
      </trkpt>
      <trkpt lat="47.39997" lon="6.71219">
        <ele>517</ele>
        <time>2016-05-15T09:04:38.000Z</time>
      </trkpt>
      <trkpt lat="47.4" lon="6.71215">
        <ele>517</ele>
        <time>2016-05-15T09:04:39.000Z</time>
      </trkpt>
      <trkpt lat="47.4" lon="6.71209">
        <ele>516</ele>
        <time>2016-05-15T09:04:41.000Z</time>
      </trkpt>
      <trkpt lat="47.4" lon="6.71204">
        <ele>516</ele>
        <time>2016-05-15T09:04:42.000Z</time>
      </trkpt>
      <trkpt lat="47.4" lon="6.71199">
        <ele>517</ele>
        <time>2016-05-15T09:04:43.000Z</time>
      </trkpt>
      <trkpt lat="47.4" lon="6.71197">
        <ele>517</ele>
        <time>2016-05-15T09:04:44.000Z</time>
      </trkpt>
      <trkpt lat="47.40001" lon="6.71191">
        <ele>516</ele>
        <time>2016-05-15T09:04:46.000Z</time>
      </trkpt>
      <trkpt lat="47.40001" lon="6.71188">
        <ele>516</ele>
        <time>2016-05-15T09:04:47.000Z</time>
      </trkpt>
      <trkpt lat="47.40001" lon="6.71182">
        <ele>517</ele>
        <time>2016-05-15T09:04:49.000Z</time>
      </trkpt>
      <trkpt lat="47.4" lon="6.71178">
        <ele>517</ele>
        <time>2016-05-15T09:04:50.000Z</time>
      </trkpt>
      <trkpt lat="47.4" lon="6.71174">
        <ele>518</ele>
        <time>2016-05-15T09:04:51.000Z</time>
      </trkpt>
      <trkpt lat="47.39999" lon="6.71169">
        <ele>518</ele>
        <time>2016-05-15T09:04:52.000Z</time>
      </trkpt>
      <trkpt lat="47.39999" lon="6.71164">
        <ele>518</ele>
        <time>2016-05-15T09:04:53.000Z</time>
      </trkpt>
      <trkpt lat="47.39999" lon="6.71159">
        <ele>518</ele>
        <time>2016-05-15T09:04:54.000Z</time>
      </trkpt>
      <trkpt lat="47.39998" lon="6.71154">
        <ele>518</ele>
        <time>2016-05-15T09:04:55.000Z</time>
      </trkpt>
      <trkpt lat="47.39998" lon="6.71149">
        <ele>518</ele>
        <time>2016-05-15T09:04:56.000Z</time>
      </trkpt>
      <trkpt lat="47.39998" lon="6.71145">
        <ele>518</ele>
        <time>2016-05-15T09:04:57.000Z</time>
      </trkpt>
      <trkpt lat="47.39999" lon="6.7114">
        <ele>518</ele>
        <time>2016-05-15T09:04:58.000Z</time>
      </trkpt>
      <trkpt lat="47.39999" lon="6.71135">
        <ele>518</ele>
        <time>2016-05-15T09:04:59.000Z</time>
      </trkpt>
      <trkpt lat="47.39998" lon="6.7113">
        <ele>518</ele>
        <time>2016-05-15T09:05:00.000Z</time>
      </trkpt>
      <trkpt lat="47.39997" lon="6.71124">
        <ele>518</ele>
        <time>2016-05-15T09:05:01.000Z</time>
      </trkpt>
      <trkpt lat="47.39996" lon="6.71118">
        <ele>518</ele>
        <time>2016-05-15T09:05:02.000Z</time>
      </trkpt>
      <trkpt lat="47.39994" lon="6.71111">
        <ele>518</ele>
        <time>2016-05-15T09:05:03.000Z</time>
      </trkpt>
      <trkpt lat="47.39992" lon="6.71104">
        <ele>518</ele>
        <time>2016-05-15T09:05:04.000Z</time>
      </trkpt>
      <trkpt lat="47.39991" lon="6.71099">
        <ele>518</ele>
        <time>2016-05-15T09:05:05.000Z</time>
      </trkpt>
      <trkpt lat="47.39989" lon="6.71094">
        <ele>518</ele>
        <time>2016-05-15T09:05:06.000Z</time>
      </trkpt>
      <trkpt lat="47.39988" lon="6.7109">
        <ele>518</ele>
        <time>2016-05-15T09:05:07.000Z</time>
      </trkpt>
      <trkpt lat="47.39987" lon="6.71087">
        <ele>518</ele>
        <time>2016-05-15T09:05:08.000Z</time>
      </trkpt>
      <trkpt lat="47.39987" lon="6.71082">
        <ele>518</ele>
        <time>2016-05-15T09:05:09.000Z</time>
      </trkpt>
      <trkpt lat="47.39987" lon="6.71077">
        <ele>518</ele>
        <time>2016-05-15T09:05:10.000Z</time>
      </trkpt>
      <trkpt lat="47.39987" lon="6.71071">
        <ele>518</ele>
        <time>2016-05-15T09:05:11.000Z</time>
      </trkpt>
      <trkpt lat="47.39987" lon="6.71066">
        <ele>518</ele>
        <time>2016-05-15T09:05:12.000Z</time>
      </trkpt>
      <trkpt lat="47.39986" lon="6.71061">
        <ele>518</ele>
        <time>2016-05-15T09:05:13.000Z</time>
      </trkpt>
      <trkpt lat="47.39985" lon="6.71055">
        <ele>518</ele>
        <time>2016-05-15T09:05:14.000Z</time>
      </trkpt>
      <trkpt lat="47.39983" lon="6.7105">
        <ele>518</ele>
        <time>2016-05-15T09:05:15.000Z</time>
      </trkpt>
      <trkpt lat="47.39982" lon="6.71043">
        <ele>518</ele>
        <time>2016-05-15T09:05:16.000Z</time>
      </trkpt>
      <trkpt lat="47.39981" lon="6.71036">
        <ele>518</ele>
        <time>2016-05-15T09:05:17.000Z</time>
      </trkpt>
      <trkpt lat="47.39979" lon="6.71014">
        <ele>519</ele>
        <time>2016-05-15T09:05:18.000Z</time>
      </trkpt>
      <trkpt lat="47.39979" lon="6.71008">
        <ele>519</ele>
        <time>2016-05-15T09:05:19.000Z</time>
      </trkpt>
      <trkpt lat="47.3998" lon="6.70999">
        <ele>518</ele>
        <time>2016-05-15T09:05:20.000Z</time>
      </trkpt>
      <trkpt lat="47.39979" lon="6.70992">
        <ele>518</ele>
        <time>2016-05-15T09:05:21.000Z</time>
      </trkpt>
      <trkpt lat="47.39978" lon="6.70984">
        <ele>517</ele>
        <time>2016-05-15T09:05:22.000Z</time>
      </trkpt>
      <trkpt lat="47.39975" lon="6.70978">
        <ele>517</ele>
        <time>2016-05-15T09:05:23.000Z</time>
      </trkpt>
      <trkpt lat="47.39973" lon="6.70977">
        <ele>517</ele>
        <time>2016-05-15T09:05:24.000Z</time>
      </trkpt>
      <trkpt lat="47.39971" lon="6.70972">
        <ele>517</ele>
        <time>2016-05-15T09:05:25.000Z</time>
      </trkpt>
      <trkpt lat="47.39973" lon="6.70967">
        <ele>517</ele>
        <time>2016-05-15T09:05:26.000Z</time>
      </trkpt>
      <trkpt lat="47.39972" lon="6.70963">
        <ele>517</ele>
        <time>2016-05-15T09:05:27.000Z</time>
      </trkpt>
      <trkpt lat="47.39973" lon="6.70959">
        <ele>517</ele>
        <time>2016-05-15T09:05:28.000Z</time>
      </trkpt>
      <trkpt lat="47.39974" lon="6.70956">
        <ele>517</ele>
        <time>2016-05-15T09:05:29.000Z</time>
      </trkpt>
      <trkpt lat="47.39975" lon="6.70953">
        <ele>516</ele>
        <time>2016-05-15T09:05:30.000Z</time>
      </trkpt>
      <trkpt lat="47.39976" lon="6.7095">
        <ele>516</ele>
        <time>2016-05-15T09:05:31.000Z</time>
      </trkpt>
      <trkpt lat="47.39977" lon="6.70947">
        <ele>516</ele>
        <time>2016-05-15T09:05:32.000Z</time>
      </trkpt>
      <trkpt lat="47.39978" lon="6.70944">
        <ele>516</ele>
        <time>2016-05-15T09:05:33.000Z</time>
      </trkpt>
      <trkpt lat="47.39979" lon="6.70939">
        <ele>516</ele>
        <time>2016-05-15T09:05:34.000Z</time>
      </trkpt>
      <trkpt lat="47.3998" lon="6.70935">
        <ele>516</ele>
        <time>2016-05-15T09:05:35.000Z</time>
      </trkpt>
      <trkpt lat="47.39981" lon="6.7093">
        <ele>516</ele>
        <time>2016-05-15T09:05:36.000Z</time>
      </trkpt>
      <trkpt lat="47.39982" lon="6.70925">
        <ele>516</ele>
        <time>2016-05-15T09:05:37.000Z</time>
      </trkpt>
      <trkpt lat="47.39984" lon="6.7092">
        <ele>516</ele>
        <time>2016-05-15T09:05:38.000Z</time>
      </trkpt>
      <trkpt lat="47.39986" lon="6.70914">
        <ele>513</ele>
        <time>2016-05-15T09:05:39.000Z</time>
      </trkpt>
      <trkpt lat="47.39987" lon="6.70909">
        <ele>513</ele>
        <time>2016-05-15T09:05:40.000Z</time>
      </trkpt>
      <trkpt lat="47.39989" lon="6.70903">
        <ele>512</ele>
        <time>2016-05-15T09:05:41.000Z</time>
      </trkpt>
      <trkpt lat="47.39991" lon="6.70897">
        <ele>512</ele>
        <time>2016-05-15T09:05:42.000Z</time>
      </trkpt>
      <trkpt lat="47.39994" lon="6.7089">
        <ele>511</ele>
        <time>2016-05-15T09:05:43.000Z</time>
      </trkpt>
      <trkpt lat="47.39996" lon="6.70884">
        <ele>511</ele>
        <time>2016-05-15T09:05:44.000Z</time>
      </trkpt>
      <trkpt lat="47.39997" lon="6.70878">
        <ele>511</ele>
        <time>2016-05-15T09:05:45.000Z</time>
      </trkpt>
      <trkpt lat="47.39999" lon="6.70873">
        <ele>510</ele>
        <time>2016-05-15T09:05:46.000Z</time>
      </trkpt>
      <trkpt lat="47.4" lon="6.70868">
        <ele>512</ele>
        <time>2016-05-15T09:05:47.000Z</time>
      </trkpt>
      <trkpt lat="47.40002" lon="6.70863">
        <ele>512</ele>
        <time>2016-05-15T09:05:48.000Z</time>
      </trkpt>
      <trkpt lat="47.40003" lon="6.70857">
        <ele>512</ele>
        <time>2016-05-15T09:05:49.000Z</time>
      </trkpt>
      <trkpt lat="47.40004" lon="6.70852">
        <ele>512</ele>
        <time>2016-05-15T09:05:50.000Z</time>
      </trkpt>
      <trkpt lat="47.40004" lon="6.70847">
        <ele>511</ele>
        <time>2016-05-15T09:05:51.000Z</time>
      </trkpt>
      <trkpt lat="47.40005" lon="6.70843">
        <ele>511</ele>
        <time>2016-05-15T09:05:52.000Z</time>
      </trkpt>
      <trkpt lat="47.40005" lon="6.70839">
        <ele>511</ele>
        <time>2016-05-15T09:05:53.000Z</time>
      </trkpt>
      <trkpt lat="47.40005" lon="6.70834">
        <ele>511</ele>
        <time>2016-05-15T09:05:54.000Z</time>
      </trkpt>
      <trkpt lat="47.40006" lon="6.70829">
        <ele>510</ele>
        <time>2016-05-15T09:05:55.000Z</time>
      </trkpt>
      <trkpt lat="47.40007" lon="6.70825">
        <ele>510</ele>
        <time>2016-05-15T09:05:56.000Z</time>
      </trkpt>
      <trkpt lat="47.40008" lon="6.7082">
        <ele>510</ele>
        <time>2016-05-15T09:05:57.000Z</time>
      </trkpt>
      <trkpt lat="47.4001" lon="6.70815">
        <ele>510</ele>
        <time>2016-05-15T09:05:58.000Z</time>
      </trkpt>
      <trkpt lat="47.40012" lon="6.7081">
        <ele>510</ele>
        <time>2016-05-15T09:05:59.000Z</time>
      </trkpt>
      <trkpt lat="47.40013" lon="6.70805">
        <ele>509</ele>
        <time>2016-05-15T09:06:00.000Z</time>
      </trkpt>
      <trkpt lat="47.40015" lon="6.708">
        <ele>509</ele>
        <time>2016-05-15T09:06:01.000Z</time>
      </trkpt>
      <trkpt lat="47.40017" lon="6.70794">
        <ele>509</ele>
        <time>2016-05-15T09:06:02.000Z</time>
      </trkpt>
      <trkpt lat="47.40019" lon="6.70789">
        <ele>509</ele>
        <time>2016-05-15T09:06:03.000Z</time>
      </trkpt>
      <trkpt lat="47.40021" lon="6.70783">
        <ele>509</ele>
        <time>2016-05-15T09:06:04.000Z</time>
      </trkpt>
      <trkpt lat="47.40023" lon="6.70777">
        <ele>509</ele>
        <time>2016-05-15T09:06:05.000Z</time>
      </trkpt>
      <trkpt lat="47.40025" lon="6.70771">
        <ele>509</ele>
        <time>2016-05-15T09:06:06.000Z</time>
      </trkpt>
      <trkpt lat="47.40027" lon="6.70764">
        <ele>509</ele>
        <time>2016-05-15T09:06:07.000Z</time>
      </trkpt>
      <trkpt lat="47.40029" lon="6.70757">
        <ele>509</ele>
        <time>2016-05-15T09:06:08.000Z</time>
      </trkpt>
      <trkpt lat="47.40031" lon="6.7075">
        <ele>508</ele>
        <time>2016-05-15T09:06:09.000Z</time>
      </trkpt>
      <trkpt lat="47.40033" lon="6.70742">
        <ele>508</ele>
        <time>2016-05-15T09:06:10.000Z</time>
      </trkpt>
      <trkpt lat="47.40035" lon="6.70733">
        <ele>508</ele>
        <time>2016-05-15T09:06:11.000Z</time>
      </trkpt>
      <trkpt lat="47.40036" lon="6.70724">
        <ele>508</ele>
        <time>2016-05-15T09:06:12.000Z</time>
      </trkpt>
      <trkpt lat="47.40037" lon="6.70715">
        <ele>508</ele>
        <time>2016-05-15T09:06:13.000Z</time>
      </trkpt>
      <trkpt lat="47.40038" lon="6.70706">
        <ele>507</ele>
        <time>2016-05-15T09:06:14.000Z</time>
      </trkpt>
      <trkpt lat="47.40038" lon="6.70697">
        <ele>507</ele>
        <time>2016-05-15T09:06:15.000Z</time>
      </trkpt>
      <trkpt lat="47.40038" lon="6.70689">
        <ele>507</ele>
        <time>2016-05-15T09:06:16.000Z</time>
      </trkpt>
      <trkpt lat="47.40038" lon="6.7068">
        <ele>507</ele>
        <time>2016-05-15T09:06:17.000Z</time>
      </trkpt>
      <trkpt lat="47.40038" lon="6.70671">
        <ele>507</ele>
        <time>2016-05-15T09:06:18.000Z</time>
      </trkpt>
      <trkpt lat="47.40037" lon="6.70662">
        <ele>506</ele>
        <time>2016-05-15T09:06:19.000Z</time>
      </trkpt>
      <trkpt lat="47.40036" lon="6.70653">
        <ele>506</ele>
        <time>2016-05-15T09:06:20.000Z</time>
      </trkpt>
      <trkpt lat="47.40035" lon="6.70644">
        <ele>506</ele>
        <time>2016-05-15T09:06:21.000Z</time>
      </trkpt>
      <trkpt lat="47.40034" lon="6.70635">
        <ele>506</ele>
        <time>2016-05-15T09:06:22.000Z</time>
      </trkpt>
      <trkpt lat="47.40034" lon="6.70626">
        <ele>506</ele>
        <time>2016-05-15T09:06:23.000Z</time>
      </trkpt>
      <trkpt lat="47.40033" lon="6.70618">
        <ele>506</ele>
        <time>2016-05-15T09:06:24.000Z</time>
      </trkpt>
      <trkpt lat="47.40033" lon="6.70609">
        <ele>505</ele>
        <time>2016-05-15T09:06:25.000Z</time>
      </trkpt>
      <trkpt lat="47.40032" lon="6.706">
        <ele>505</ele>
        <time>2016-05-15T09:06:26.000Z</time>
      </trkpt>
      <trkpt lat="47.40031" lon="6.7059">
        <ele>505</ele>
        <time>2016-05-15T09:06:27.000Z</time>
      </trkpt>
      <trkpt lat="47.40031" lon="6.70581">
        <ele>503</ele>
        <time>2016-05-15T09:06:28.000Z</time>
      </trkpt>
      <trkpt lat="47.40031" lon="6.70572">
        <ele>502</ele>
        <time>2016-05-15T09:06:29.000Z</time>
      </trkpt>
      <trkpt lat="47.40031" lon="6.70564">
        <ele>502</ele>
        <time>2016-05-15T09:06:30.000Z</time>
      </trkpt>
      <trkpt lat="47.40031" lon="6.70556">
        <ele>502</ele>
        <time>2016-05-15T09:06:31.000Z</time>
      </trkpt>
      <trkpt lat="47.40031" lon="6.70548">
        <ele>501</ele>
        <time>2016-05-15T09:06:32.000Z</time>
      </trkpt>
      <trkpt lat="47.40031" lon="6.7054">
        <ele>501</ele>
        <time>2016-05-15T09:06:33.000Z</time>
      </trkpt>
      <trkpt lat="47.40031" lon="6.70531">
        <ele>501</ele>
        <time>2016-05-15T09:06:34.000Z</time>
      </trkpt>
      <trkpt lat="47.40031" lon="6.70522">
        <ele>501</ele>
        <time>2016-05-15T09:06:35.000Z</time>
      </trkpt>
      <trkpt lat="47.40031" lon="6.70512">
        <ele>500</ele>
        <time>2016-05-15T09:06:36.000Z</time>
      </trkpt>
      <trkpt lat="47.40031" lon="6.70503">
        <ele>500</ele>
        <time>2016-05-15T09:06:37.000Z</time>
      </trkpt>
      <trkpt lat="47.4003" lon="6.70494">
        <ele>496</ele>
        <time>2016-05-15T09:06:38.000Z</time>
      </trkpt>
      <trkpt lat="47.4003" lon="6.70484">
        <ele>496</ele>
        <time>2016-05-15T09:06:39.000Z</time>
      </trkpt>
      <trkpt lat="47.40029" lon="6.70473">
        <ele>496</ele>
        <time>2016-05-15T09:06:40.000Z</time>
      </trkpt>
      <trkpt lat="47.40028" lon="6.70463">
        <ele>495</ele>
        <time>2016-05-15T09:06:41.000Z</time>
      </trkpt>
      <trkpt lat="47.40026" lon="6.70452">
        <ele>495</ele>
        <time>2016-05-15T09:06:42.000Z</time>
      </trkpt>
      <trkpt lat="47.40025" lon="6.70443">
        <ele>495</ele>
        <time>2016-05-15T09:06:43.000Z</time>
      </trkpt>
      <trkpt lat="47.40024" lon="6.70434">
        <ele>494</ele>
        <time>2016-05-15T09:06:44.000Z</time>
      </trkpt>
      <trkpt lat="47.40022" lon="6.70426">
        <ele>494</ele>
        <time>2016-05-15T09:06:45.000Z</time>
      </trkpt>
      <trkpt lat="47.4002" lon="6.70418">
        <ele>494</ele>
        <time>2016-05-15T09:06:46.000Z</time>
      </trkpt>
      <trkpt lat="47.40017" lon="6.70412">
        <ele>491</ele>
        <time>2016-05-15T09:06:47.000Z</time>
      </trkpt>
      <trkpt lat="47.40015" lon="6.70407">
        <ele>491</ele>
        <time>2016-05-15T09:06:48.000Z</time>
      </trkpt>
      <trkpt lat="47.40013" lon="6.70404">
        <ele>491</ele>
        <time>2016-05-15T09:06:49.000Z</time>
      </trkpt>
      <trkpt lat="47.40012" lon="6.70398">
        <ele>490</ele>
        <time>2016-05-15T09:06:51.000Z</time>
      </trkpt>
      <trkpt lat="47.40012" lon="6.70395">
        <ele>490</ele>
        <time>2016-05-15T09:06:52.000Z</time>
      </trkpt>
      <trkpt lat="47.40012" lon="6.7039">
        <ele>490</ele>
        <time>2016-05-15T09:06:54.000Z</time>
      </trkpt>
      <trkpt lat="47.40013" lon="6.70389">
        <ele>490</ele>
        <time>2016-05-15T09:06:55.000Z</time>
      </trkpt>
      <trkpt lat="47.40015" lon="6.70387">
        <ele>490</ele>
        <time>2016-05-15T09:06:56.000Z</time>
      </trkpt>
      <trkpt lat="47.40017" lon="6.70386">
        <ele>489</ele>
        <time>2016-05-15T09:06:57.000Z</time>
      </trkpt>
      <trkpt lat="47.4002" lon="6.70384">
        <ele>489</ele>
        <time>2016-05-15T09:06:58.000Z</time>
      </trkpt>
      <trkpt lat="47.40023" lon="6.70382">
        <ele>489</ele>
        <time>2016-05-15T09:06:59.000Z</time>
      </trkpt>
      <trkpt lat="47.40026" lon="6.7038">
        <ele>489</ele>
        <time>2016-05-15T09:07:00.000Z</time>
      </trkpt>
      <trkpt lat="47.4003" lon="6.70379">
        <ele>488</ele>
        <time>2016-05-15T09:07:01.000Z</time>
      </trkpt>
      <trkpt lat="47.40034" lon="6.70378">
        <ele>488</ele>
        <time>2016-05-15T09:07:02.000Z</time>
      </trkpt>
      <trkpt lat="47.40039" lon="6.70378">
        <ele>488</ele>
        <time>2016-05-15T09:07:03.000Z</time>
      </trkpt>
      <trkpt lat="47.40044" lon="6.70378">
        <ele>488</ele>
        <time>2016-05-15T09:07:04.000Z</time>
      </trkpt>
      <trkpt lat="47.40049" lon="6.70379">
        <ele>488</ele>
        <time>2016-05-15T09:07:05.000Z</time>
      </trkpt>
      <trkpt lat="47.40054" lon="6.70381">
        <ele>488</ele>
        <time>2016-05-15T09:07:06.000Z</time>
      </trkpt>
      <trkpt lat="47.40059" lon="6.70384">
        <ele>488</ele>
        <time>2016-05-15T09:07:07.000Z</time>
      </trkpt>
      <trkpt lat="47.4007" lon="6.70389">
        <ele>488</ele>
        <time>2016-05-15T09:07:08.000Z</time>
      </trkpt>
      <trkpt lat="47.40076" lon="6.70392">
        <ele>488</ele>
        <time>2016-05-15T09:07:09.000Z</time>
      </trkpt>
      <trkpt lat="47.4008" lon="6.70395">
        <ele>488</ele>
        <time>2016-05-15T09:07:10.000Z</time>
      </trkpt>
      <trkpt lat="47.40084" lon="6.70401">
        <ele>486</ele>
        <time>2016-05-15T09:07:11.000Z</time>
      </trkpt>
      <trkpt lat="47.40088" lon="6.70404">
        <ele>486</ele>
        <time>2016-05-15T09:07:12.000Z</time>
      </trkpt>
      <trkpt lat="47.40091" lon="6.70405">
        <ele>486</ele>
        <time>2016-05-15T09:07:13.000Z</time>
      </trkpt>
      <trkpt lat="47.40096" lon="6.70395">
        <ele>484</ele>
        <time>2016-05-15T09:07:14.000Z</time>
      </trkpt>
      <trkpt lat="47.401" lon="6.70392">
        <ele>484</ele>
        <time>2016-05-15T09:07:15.000Z</time>
      </trkpt>
      <trkpt lat="47.40102" lon="6.7039">
        <ele>483</ele>
        <time>2016-05-15T09:07:17.000Z</time>
      </trkpt>
      <trkpt lat="47.40105" lon="6.70389">
        <ele>483</ele>
        <time>2016-05-15T09:07:18.000Z</time>
      </trkpt>
      <trkpt lat="47.40109" lon="6.7039">
        <ele>483</ele>
        <time>2016-05-15T09:07:19.000Z</time>
      </trkpt>
      <trkpt lat="47.40113" lon="6.7039">
        <ele>483</ele>
        <time>2016-05-15T09:07:20.000Z</time>
      </trkpt>
      <trkpt lat="47.40116" lon="6.7039">
        <ele>483</ele>
        <time>2016-05-15T09:07:21.000Z</time>
      </trkpt>
      <trkpt lat="47.40118" lon="6.7039">
        <ele>483</ele>
        <time>2016-05-15T09:07:22.000Z</time>
      </trkpt>
      <trkpt lat="47.40121" lon="6.70385">
        <ele>482</ele>
        <time>2016-05-15T09:07:35.000Z</time>
      </trkpt>
      <trkpt lat="47.40123" lon="6.70386">
        <ele>482</ele>
        <time>2016-05-15T09:07:36.000Z</time>
      </trkpt>
      <trkpt lat="47.40126" lon="6.70387">
        <ele>482</ele>
        <time>2016-05-15T09:07:46.000Z</time>
      </trkpt>
      <trkpt lat="47.40127" lon="6.70387">
        <ele>482</ele>
        <time>2016-05-15T09:07:47.000Z</time>
      </trkpt>
      <trkpt lat="47.4013" lon="6.70388">
        <ele>482</ele>
        <time>2016-05-15T09:07:49.000Z</time>
      </trkpt>
      <trkpt lat="47.40132" lon="6.70388">
        <ele>482</ele>
        <time>2016-05-15T09:07:50.000Z</time>
      </trkpt>
      <trkpt lat="47.40134" lon="6.70389">
        <ele>482</ele>
        <time>2016-05-15T09:07:51.000Z</time>
      </trkpt>
      <trkpt lat="47.40137" lon="6.70389">
        <ele>482</ele>
        <time>2016-05-15T09:07:52.000Z</time>
      </trkpt>
      <trkpt lat="47.4014" lon="6.70389">
        <ele>482</ele>
        <time>2016-05-15T09:07:53.000Z</time>
      </trkpt>
      <trkpt lat="47.40143" lon="6.7039">
        <ele>482</ele>
        <time>2016-05-15T09:07:54.000Z</time>
      </trkpt>
      <trkpt lat="47.40146" lon="6.7039">
        <ele>482</ele>
        <time>2016-05-15T09:07:55.000Z</time>
      </trkpt>
      <trkpt lat="47.40148" lon="6.7039">
        <ele>482</ele>
        <time>2016-05-15T09:07:56.000Z</time>
      </trkpt>
      <trkpt lat="47.40151" lon="6.70391">
        <ele>482</ele>
        <time>2016-05-15T09:07:57.000Z</time>
      </trkpt>
      <trkpt lat="47.40154" lon="6.70392">
        <ele>482</ele>
        <time>2016-05-15T09:07:58.000Z</time>
      </trkpt>
      <trkpt lat="47.40158" lon="6.70392">
        <ele>482</ele>
        <time>2016-05-15T09:08:02.000Z</time>
      </trkpt>
      <trkpt lat="47.40158" lon="6.70392">
        <ele>482</ele>
        <time>2016-05-15T09:08:03.000Z</time>
      </trkpt>
      <trkpt lat="47.40162" lon="6.70394">
        <ele>482</ele>
        <time>2016-05-15T09:08:11.000Z</time>
      </trkpt>
      <trkpt lat="47.40163" lon="6.70395">
        <ele>482</ele>
        <time>2016-05-15T09:08:12.000Z</time>
      </trkpt>
      <trkpt lat="47.40165" lon="6.70397">
        <ele>483</ele>
        <time>2016-05-15T09:08:13.000Z</time>
      </trkpt>
      <trkpt lat="47.40167" lon="6.70398">
        <ele>483</ele>
        <time>2016-05-15T09:08:14.000Z</time>
      </trkpt>
      <trkpt lat="47.4017" lon="6.70401">
        <ele>480</ele>
        <time>2016-05-15T09:08:15.000Z</time>
      </trkpt>
      <trkpt lat="47.40174" lon="6.70404">
        <ele>480</ele>
        <time>2016-05-15T09:08:16.000Z</time>
      </trkpt>
      <trkpt lat="47.40177" lon="6.70407">
        <ele>480</ele>
        <time>2016-05-15T09:08:17.000Z</time>
      </trkpt>
      <trkpt lat="47.40181" lon="6.7041">
        <ele>480</ele>
        <time>2016-05-15T09:08:18.000Z</time>
      </trkpt>
      <trkpt lat="47.40184" lon="6.70412">
        <ele>479</ele>
        <time>2016-05-15T09:08:19.000Z</time>
      </trkpt>
      <trkpt lat="47.40187" lon="6.70414">
        <ele>479</ele>
        <time>2016-05-15T09:08:20.000Z</time>
      </trkpt>
      <trkpt lat="47.4019" lon="6.70417">
        <ele>483</ele>
        <time>2016-05-15T09:08:21.000Z</time>
      </trkpt>
      <trkpt lat="47.40194" lon="6.70421">
        <ele>483</ele>
        <time>2016-05-15T09:08:22.000Z</time>
      </trkpt>
      <trkpt lat="47.40197" lon="6.70426">
        <ele>483</ele>
        <time>2016-05-15T09:08:23.000Z</time>
      </trkpt>
      <trkpt lat="47.40201" lon="6.7043">
        <ele>482</ele>
        <time>2016-05-15T09:08:24.000Z</time>
      </trkpt>
      <trkpt lat="47.40205" lon="6.70435">
        <ele>482</ele>
        <time>2016-05-15T09:08:25.000Z</time>
      </trkpt>
      <trkpt lat="47.4021" lon="6.70439">
        <ele>482</ele>
        <time>2016-05-15T09:08:26.000Z</time>
      </trkpt>
      <trkpt lat="47.40214" lon="6.70442">
        <ele>482</ele>
        <time>2016-05-15T09:08:27.000Z</time>
      </trkpt>
      <trkpt lat="47.40219" lon="6.70444">
        <ele>482</ele>
        <time>2016-05-15T09:08:28.000Z</time>
      </trkpt>
      <trkpt lat="47.40224" lon="6.70446">
        <ele>482</ele>
        <time>2016-05-15T09:08:29.000Z</time>
      </trkpt>
      <trkpt lat="47.40228" lon="6.70449">
        <ele>481</ele>
        <time>2016-05-15T09:08:30.000Z</time>
      </trkpt>
      <trkpt lat="47.40231" lon="6.70452">
        <ele>481</ele>
        <time>2016-05-15T09:08:31.000Z</time>
      </trkpt>
      <trkpt lat="47.40234" lon="6.70455">
        <ele>482</ele>
        <time>2016-05-15T09:08:32.000Z</time>
      </trkpt>
      <trkpt lat="47.40236" lon="6.70458">
        <ele>482</ele>
        <time>2016-05-15T09:08:33.000Z</time>
      </trkpt>
      <trkpt lat="47.40238" lon="6.70461">
        <ele>482</ele>
        <time>2016-05-15T09:08:34.000Z</time>
      </trkpt>
      <trkpt lat="47.4024" lon="6.70464">
        <ele>482</ele>
        <time>2016-05-15T09:08:35.000Z</time>
      </trkpt>
      <trkpt lat="47.40242" lon="6.70467">
        <ele>482</ele>
        <time>2016-05-15T09:08:36.000Z</time>
      </trkpt>
      <trkpt lat="47.40244" lon="6.7047">
        <ele>482</ele>
        <time>2016-05-15T09:08:37.000Z</time>
      </trkpt>
      <trkpt lat="47.40246" lon="6.70473">
        <ele>482</ele>
        <time>2016-05-15T09:08:38.000Z</time>
      </trkpt>
      <trkpt lat="47.40249" lon="6.70476">
        <ele>482</ele>
        <time>2016-05-15T09:08:39.000Z</time>
      </trkpt>
      <trkpt lat="47.40252" lon="6.70479">
        <ele>477</ele>
        <time>2016-05-15T09:08:40.000Z</time>
      </trkpt>
      <trkpt lat="47.40256" lon="6.70483">
        <ele>478</ele>
        <time>2016-05-15T09:08:41.000Z</time>
      </trkpt>
      <trkpt lat="47.4026" lon="6.70487">
        <ele>478</ele>
        <time>2016-05-15T09:08:42.000Z</time>
      </trkpt>
      <trkpt lat="47.40264" lon="6.70489">
        <ele>478</ele>
        <time>2016-05-15T09:08:43.000Z</time>
      </trkpt>
      <trkpt lat="47.40268" lon="6.70491">
        <ele>477</ele>
        <time>2016-05-15T09:08:44.000Z</time>
      </trkpt>
      <trkpt lat="47.40273" lon="6.70494">
        <ele>477</ele>
        <time>2016-05-15T09:08:45.000Z</time>
      </trkpt>
      <trkpt lat="47.4028" lon="6.70497">
        <ele>476</ele>
        <time>2016-05-15T09:08:46.000Z</time>
      </trkpt>
      <trkpt lat="47.40286" lon="6.705">
        <ele>480</ele>
        <time>2016-05-15T09:08:47.000Z</time>
      </trkpt>
      <trkpt lat="47.40291" lon="6.70504">
        <ele>479</ele>
        <time>2016-05-15T09:08:48.000Z</time>
      </trkpt>
      <trkpt lat="47.40296" lon="6.70507">
        <ele>479</ele>
        <time>2016-05-15T09:08:49.000Z</time>
      </trkpt>
      <trkpt lat="47.403" lon="6.70511">
        <ele>479</ele>
        <time>2016-05-15T09:08:50.000Z</time>
      </trkpt>
      <trkpt lat="47.40303" lon="6.70514">
        <ele>479</ele>
        <time>2016-05-15T09:08:51.000Z</time>
      </trkpt>
      <trkpt lat="47.40306" lon="6.70517">
        <ele>479</ele>
        <time>2016-05-15T09:08:52.000Z</time>
      </trkpt>
      <trkpt lat="47.40308" lon="6.70519">
        <ele>479</ele>
        <time>2016-05-15T09:08:53.000Z</time>
      </trkpt>
      <trkpt lat="47.4031" lon="6.70522">
        <ele>479</ele>
        <time>2016-05-15T09:08:54.000Z</time>
      </trkpt>
      <trkpt lat="47.40311" lon="6.70524">
        <ele>479</ele>
        <time>2016-05-15T09:08:55.000Z</time>
      </trkpt>
      <trkpt lat="47.40313" lon="6.70526">
        <ele>479</ele>
        <time>2016-05-15T09:08:56.000Z</time>
      </trkpt>
      <trkpt lat="47.40317" lon="6.70531">
        <ele>479</ele>
        <time>2016-05-15T09:08:57.000Z</time>
      </trkpt>
      <trkpt lat="47.40319" lon="6.70533">
        <ele>479</ele>
        <time>2016-05-15T09:08:58.000Z</time>
      </trkpt>
      <trkpt lat="47.40321" lon="6.70535">
        <ele>479</ele>
        <time>2016-05-15T09:08:59.000Z</time>
      </trkpt>
      <trkpt lat="47.40324" lon="6.70531">
        <ele>479</ele>
        <time>2016-05-15T09:09:05.000Z</time>
      </trkpt>
      <trkpt lat="47.40325" lon="6.70528">
        <ele>478</ele>
        <time>2016-05-15T09:09:06.000Z</time>
      </trkpt>
      <trkpt lat="47.40329" lon="6.70525">
        <ele>478</ele>
        <time>2016-05-15T09:09:12.000Z</time>
      </trkpt>
      <trkpt lat="47.40329" lon="6.70524">
        <ele>478</ele>
        <time>2016-05-15T09:09:13.000Z</time>
      </trkpt>
      <trkpt lat="47.40328" lon="6.70531">
        <ele>478</ele>
        <time>2016-05-15T09:09:38.000Z</time>
      </trkpt>
      <trkpt lat="47.40328" lon="6.70531">
        <ele>478</ele>
        <time>2016-05-15T09:09:39.000Z</time>
      </trkpt>
      <trkpt lat="47.4033" lon="6.70536">
        <ele>479</ele>
        <time>2016-05-15T09:09:48.000Z</time>
      </trkpt>
      <trkpt lat="47.4033" lon="6.70538">
        <ele>479</ele>
        <time>2016-05-15T09:09:49.000Z</time>
      </trkpt>
      <trkpt lat="47.40332" lon="6.70542">
        <ele>479</ele>
        <time>2016-05-15T09:09:51.000Z</time>
      </trkpt>
      <trkpt lat="47.40333" lon="6.70545">
        <ele>479</ele>
        <time>2016-05-15T09:09:52.000Z</time>
      </trkpt>
      <trkpt lat="47.40335" lon="6.70551">
        <ele>473</ele>
        <time>2016-05-15T09:09:54.000Z</time>
      </trkpt>
      <trkpt lat="47.40335" lon="6.70553">
        <ele>473</ele>
        <time>2016-05-15T09:09:55.000Z</time>
      </trkpt>
      <trkpt lat="47.40338" lon="6.70558">
        <ele>473</ele>
        <time>2016-05-15T09:09:58.000Z</time>
      </trkpt>
      <trkpt lat="47.40339" lon="6.70559">
        <ele>473</ele>
        <time>2016-05-15T09:09:59.000Z</time>
      </trkpt>
      <trkpt lat="47.40343" lon="6.70563">
        <ele>474</ele>
        <time>2016-05-15T09:10:01.000Z</time>
      </trkpt>
      <trkpt lat="47.40344" lon="6.70564">
        <ele>474</ele>
        <time>2016-05-15T09:10:02.000Z</time>
      </trkpt>
      <trkpt lat="47.40347" lon="6.70569">
        <ele>474</ele>
        <time>2016-05-15T09:10:05.000Z</time>
      </trkpt>
      <trkpt lat="47.40348" lon="6.70571">
        <ele>474</ele>
        <time>2016-05-15T09:10:06.000Z</time>
      </trkpt>
      <trkpt lat="47.4035" lon="6.70576">
        <ele>474</ele>
        <time>2016-05-15T09:10:29.000Z</time>
      </trkpt>
      <trkpt lat="47.4035" lon="6.70576">
        <ele>474</ele>
        <time>2016-05-15T09:10:30.000Z</time>
      </trkpt>
      <trkpt lat="47.40353" lon="6.70573">
        <ele>473</ele>
        <time>2016-05-15T09:10:44.000Z</time>
      </trkpt>
      <trkpt lat="47.40354" lon="6.70573">
        <ele>473</ele>
        <time>2016-05-15T09:10:45.000Z</time>
      </trkpt>
      <trkpt lat="47.40356" lon="6.70579">
        <ele>473</ele>
        <time>2016-05-15T09:10:58.000Z</time>
      </trkpt>
      <trkpt lat="47.40356" lon="6.7058">
        <ele>473</ele>
        <time>2016-05-15T09:10:59.000Z</time>
      </trkpt>
      <trkpt lat="47.40359" lon="6.70584">
        <ele>477</ele>
        <time>2016-05-15T09:11:04.000Z</time>
      </trkpt>
      <trkpt lat="47.4036" lon="6.70584">
        <ele>477</ele>
        <time>2016-05-15T09:11:05.000Z</time>
      </trkpt>
      <trkpt lat="47.40364" lon="6.70587">
        <ele>476</ele>
        <time>2016-05-15T09:11:08.000Z</time>
      </trkpt>
      <trkpt lat="47.40365" lon="6.70588">
        <ele>476</ele>
        <time>2016-05-15T09:11:09.000Z</time>
      </trkpt>
      <trkpt lat="47.40369" lon="6.70591">
        <ele>476</ele>
        <time>2016-05-15T09:11:11.000Z</time>
      </trkpt>
      <trkpt lat="47.40371" lon="6.70592">
        <ele>476</ele>
        <time>2016-05-15T09:11:12.000Z</time>
      </trkpt>
      <trkpt lat="47.40374" lon="6.70593">
        <ele>475</ele>
        <time>2016-05-15T09:11:14.000Z</time>
      </trkpt>
      <trkpt lat="47.40376" lon="6.70593">
        <ele>475</ele>
        <time>2016-05-15T09:11:15.000Z</time>
      </trkpt>
      <trkpt lat="47.40379" lon="6.70591">
        <ele>475</ele>
        <time>2016-05-15T09:11:17.000Z</time>
      </trkpt>
      <trkpt lat="47.4038" lon="6.70588">
        <ele>475</ele>
        <time>2016-05-15T09:11:18.000Z</time>
      </trkpt>
      <trkpt lat="47.40384" lon="6.70588">
        <ele>474</ele>
        <time>2016-05-15T09:11:25.000Z</time>
      </trkpt>
      <trkpt lat="47.40384" lon="6.70589">
        <ele>474</ele>
        <time>2016-05-15T09:11:26.000Z</time>
      </trkpt>
      <trkpt lat="47.40388" lon="6.70592">
        <ele>474</ele>
        <time>2016-05-15T09:11:30.000Z</time>
      </trkpt>
      <trkpt lat="47.40388" lon="6.70593">
        <ele>474</ele>
        <time>2016-05-15T09:11:31.000Z</time>
      </trkpt>
      <trkpt lat="47.40392" lon="6.70596">
        <ele>474</ele>
        <time>2016-05-15T09:11:36.000Z</time>
      </trkpt>
      <trkpt lat="47.40392" lon="6.70597">
        <ele>473</ele>
        <time>2016-05-15T09:11:37.000Z</time>
      </trkpt>
      <trkpt lat="47.40396" lon="6.70601">
        <ele>473</ele>
        <time>2016-05-15T09:11:40.000Z</time>
      </trkpt>
      <trkpt lat="47.40397" lon="6.70602">
        <ele>473</ele>
        <time>2016-05-15T09:11:41.000Z</time>
      </trkpt>
      <trkpt lat="47.40401" lon="6.70603">
        <ele>473</ele>
        <time>2016-05-15T09:11:45.000Z</time>
      </trkpt>
      <trkpt lat="47.40402" lon="6.70603">
        <ele>473</ele>
        <time>2016-05-15T09:11:46.000Z</time>
      </trkpt>
      <trkpt lat="47.40405" lon="6.70606">
        <ele>473</ele>
        <time>2016-05-15T09:11:52.000Z</time>
      </trkpt>
      <trkpt lat="47.40406" lon="6.70606">
        <ele>473</ele>
        <time>2016-05-15T09:11:53.000Z</time>
      </trkpt>
      <trkpt lat="47.4041" lon="6.70608">
        <ele>473</ele>
        <time>2016-05-15T09:12:03.000Z</time>
      </trkpt>
      <trkpt lat="47.4041" lon="6.70608">
        <ele>473</ele>
        <time>2016-05-15T09:12:04.000Z</time>
      </trkpt>
      <trkpt lat="47.40412" lon="6.70613">
        <ele>473</ele>
        <time>2016-05-15T09:12:13.000Z</time>
      </trkpt>
      <trkpt lat="47.40412" lon="6.70614">
        <ele>473</ele>
        <time>2016-05-15T09:12:14.000Z</time>
      </trkpt>
      <trkpt lat="47.40413" lon="6.70618">
        <ele>474</ele>
        <time>2016-05-15T09:12:16.000Z</time>
      </trkpt>
      <trkpt lat="47.40415" lon="6.7062">
        <ele>474</ele>
        <time>2016-05-15T09:12:17.000Z</time>
      </trkpt>
      <trkpt lat="47.40417" lon="6.70623">
        <ele>474</ele>
        <time>2016-05-15T09:12:18.000Z</time>
      </trkpt>
      <trkpt lat="47.40419" lon="6.70625">
        <ele>468</ele>
        <time>2016-05-15T09:12:19.000Z</time>
      </trkpt>
      <trkpt lat="47.40421" lon="6.70628">
        <ele>468</ele>
        <time>2016-05-15T09:12:20.000Z</time>
      </trkpt>
      <trkpt lat="47.40424" lon="6.7063">
        <ele>468</ele>
        <time>2016-05-15T09:12:21.000Z</time>
      </trkpt>
      <trkpt lat="47.40426" lon="6.70633">
        <ele>468</ele>
        <time>2016-05-15T09:12:22.000Z</time>
      </trkpt>
      <trkpt lat="47.40428" lon="6.70636">
        <ele>468</ele>
        <time>2016-05-15T09:12:23.000Z</time>
      </trkpt>
      <trkpt lat="47.40431" lon="6.70639">
        <ele>468</ele>
        <time>2016-05-15T09:12:24.000Z</time>
      </trkpt>
      <trkpt lat="47.40434" lon="6.70642">
        <ele>469</ele>
        <time>2016-05-15T09:12:25.000Z</time>
      </trkpt>
      <trkpt lat="47.40437" lon="6.70644">
        <ele>469</ele>
        <time>2016-05-15T09:12:26.000Z</time>
      </trkpt>
      <trkpt lat="47.4044" lon="6.70646">
        <ele>468</ele>
        <time>2016-05-15T09:12:27.000Z</time>
      </trkpt>
      <trkpt lat="47.40444" lon="6.70647">
        <ele>468</ele>
        <time>2016-05-15T09:12:28.000Z</time>
      </trkpt>
      <trkpt lat="47.40447" lon="6.70648">
        <ele>468</ele>
        <time>2016-05-15T09:12:29.000Z</time>
      </trkpt>
      <trkpt lat="47.4045" lon="6.7065">
        <ele>468</ele>
        <time>2016-05-15T09:12:30.000Z</time>
      </trkpt>
      <trkpt lat="47.40453" lon="6.70651">
        <ele>467</ele>
        <time>2016-05-15T09:12:31.000Z</time>
      </trkpt>
      <trkpt lat="47.40457" lon="6.70653">
        <ele>467</ele>
        <time>2016-05-15T09:12:32.000Z</time>
      </trkpt>
      <trkpt lat="47.40461" lon="6.70654">
        <ele>467</ele>
        <time>2016-05-15T09:12:33.000Z</time>
      </trkpt>
      <trkpt lat="47.40464" lon="6.70655">
        <ele>467</ele>
        <time>2016-05-15T09:12:34.000Z</time>
      </trkpt>
      <trkpt lat="47.40468" lon="6.70656">
        <ele>467</ele>
        <time>2016-05-15T09:12:35.000Z</time>
      </trkpt>
      <trkpt lat="47.40473" lon="6.70656">
        <ele>466</ele>
        <time>2016-05-15T09:12:36.000Z</time>
      </trkpt>
      <trkpt lat="47.40477" lon="6.70656">
        <ele>466</ele>
        <time>2016-05-15T09:12:37.000Z</time>
      </trkpt>
      <trkpt lat="47.4048" lon="6.70657">
        <ele>466</ele>
        <time>2016-05-15T09:12:38.000Z</time>
      </trkpt>
      <trkpt lat="47.40484" lon="6.70657">
        <ele>466</ele>
        <time>2016-05-15T09:12:39.000Z</time>
      </trkpt>
      <trkpt lat="47.40488" lon="6.70658">
        <ele>466</ele>
        <time>2016-05-15T09:12:40.000Z</time>
      </trkpt>
      <trkpt lat="47.40492" lon="6.70659">
        <ele>466</ele>
        <time>2016-05-15T09:12:41.000Z</time>
      </trkpt>
      <trkpt lat="47.40495" lon="6.7066">
        <ele>466</ele>
        <time>2016-05-15T09:12:42.000Z</time>
      </trkpt>
      <trkpt lat="47.40499" lon="6.7066">
        <ele>466</ele>
        <time>2016-05-15T09:12:43.000Z</time>
      </trkpt>
      <trkpt lat="47.40502" lon="6.7066">
        <ele>464</ele>
        <time>2016-05-15T09:12:44.000Z</time>
      </trkpt>
      <trkpt lat="47.40505" lon="6.7066">
        <ele>464</ele>
        <time>2016-05-15T09:12:45.000Z</time>
      </trkpt>
      <trkpt lat="47.40508" lon="6.70659">
        <ele>463</ele>
        <time>2016-05-15T09:12:46.000Z</time>
      </trkpt>
      <trkpt lat="47.40512" lon="6.70658">
        <ele>463</ele>
        <time>2016-05-15T09:12:47.000Z</time>
      </trkpt>
      <trkpt lat="47.40516" lon="6.70656">
        <ele>462</ele>
        <time>2016-05-15T09:12:48.000Z</time>
      </trkpt>
      <trkpt lat="47.40519" lon="6.70654">
        <ele>462</ele>
        <time>2016-05-15T09:12:49.000Z</time>
      </trkpt>
      <trkpt lat="47.40523" lon="6.70653">
        <ele>461</ele>
        <time>2016-05-15T09:12:50.000Z</time>
      </trkpt>
      <trkpt lat="47.40526" lon="6.70652">
        <ele>461</ele>
        <time>2016-05-15T09:12:51.000Z</time>
      </trkpt>
      <trkpt lat="47.40529" lon="6.70651">
        <ele>461</ele>
        <time>2016-05-15T09:12:52.000Z</time>
      </trkpt>
      <trkpt lat="47.40532" lon="6.7065">
        <ele>460</ele>
        <time>2016-05-15T09:12:53.000Z</time>
      </trkpt>
      <trkpt lat="47.40536" lon="6.7065">
        <ele>460</ele>
        <time>2016-05-15T09:12:54.000Z</time>
      </trkpt>
      <trkpt lat="47.40539" lon="6.70649">
        <ele>460</ele>
        <time>2016-05-15T09:12:55.000Z</time>
      </trkpt>
      <trkpt lat="47.40543" lon="6.70647">
        <ele>460</ele>
        <time>2016-05-15T09:12:56.000Z</time>
      </trkpt>
      <trkpt lat="47.40547" lon="6.70646">
        <ele>460</ele>
        <time>2016-05-15T09:12:57.000Z</time>
      </trkpt>
      <trkpt lat="47.4055" lon="6.70645">
        <ele>459</ele>
        <time>2016-05-15T09:12:58.000Z</time>
      </trkpt>
      <trkpt lat="47.40553" lon="6.70643">
        <ele>459</ele>
        <time>2016-05-15T09:12:59.000Z</time>
      </trkpt>
      <trkpt lat="47.40557" lon="6.70641">
        <ele>459</ele>
        <time>2016-05-15T09:13:00.000Z</time>
      </trkpt>
      <trkpt lat="47.4056" lon="6.70639">
        <ele>459</ele>
        <time>2016-05-15T09:13:01.000Z</time>
      </trkpt>
      <trkpt lat="47.40564" lon="6.70637">
        <ele>459</ele>
        <time>2016-05-15T09:13:02.000Z</time>
      </trkpt>
      <trkpt lat="47.40567" lon="6.70635">
        <ele>459</ele>
        <time>2016-05-15T09:13:03.000Z</time>
      </trkpt>
      <trkpt lat="47.40571" lon="6.70633">
        <ele>459</ele>
        <time>2016-05-15T09:13:04.000Z</time>
      </trkpt>
      <trkpt lat="47.40575" lon="6.70633">
        <ele>459</ele>
        <time>2016-05-15T09:13:05.000Z</time>
      </trkpt>
      <trkpt lat="47.4058" lon="6.70632">
        <ele>458</ele>
        <time>2016-05-15T09:13:06.000Z</time>
      </trkpt>
      <trkpt lat="47.40584" lon="6.70631">
        <ele>457</ele>
        <time>2016-05-15T09:13:07.000Z</time>
      </trkpt>
      <trkpt lat="47.40588" lon="6.7063">
        <ele>457</ele>
        <time>2016-05-15T09:13:08.000Z</time>
      </trkpt>
      <trkpt lat="47.40591" lon="6.70629">
        <ele>457</ele>
        <time>2016-05-15T09:13:09.000Z</time>
      </trkpt>
      <trkpt lat="47.40595" lon="6.70626">
        <ele>456</ele>
        <time>2016-05-15T09:13:10.000Z</time>
      </trkpt>
      <trkpt lat="47.40598" lon="6.70623">
        <ele>456</ele>
        <time>2016-05-15T09:13:11.000Z</time>
      </trkpt>
      <trkpt lat="47.406" lon="6.70621">
        <ele>456</ele>
        <time>2016-05-15T09:13:12.000Z</time>
      </trkpt>
      <trkpt lat="47.40602" lon="6.70617">
        <ele>456</ele>
        <time>2016-05-15T09:13:13.000Z</time>
      </trkpt>
      <trkpt lat="47.40605" lon="6.70612">
        <ele>456</ele>
        <time>2016-05-15T09:13:15.000Z</time>
      </trkpt>
      <trkpt lat="47.40607" lon="6.70609">
        <ele>456</ele>
        <time>2016-05-15T09:13:16.000Z</time>
      </trkpt>
      <trkpt lat="47.40609" lon="6.70606">
        <ele>456</ele>
        <time>2016-05-15T09:13:17.000Z</time>
      </trkpt>
      <trkpt lat="47.40611" lon="6.70602">
        <ele>455</ele>
        <time>2016-05-15T09:13:18.000Z</time>
      </trkpt>
      <trkpt lat="47.40613" lon="6.70598">
        <ele>455</ele>
        <time>2016-05-15T09:13:19.000Z</time>
      </trkpt>
      <trkpt lat="47.40614" lon="6.70594">
        <ele>455</ele>
        <time>2016-05-15T09:13:20.000Z</time>
      </trkpt>
      <trkpt lat="47.40616" lon="6.70591">
        <ele>455</ele>
        <time>2016-05-15T09:13:21.000Z</time>
      </trkpt>
      <trkpt lat="47.40617" lon="6.70588">
        <ele>455</ele>
        <time>2016-05-15T09:13:22.000Z</time>
      </trkpt>
      <trkpt lat="47.40619" lon="6.70583">
        <ele>450</ele>
        <time>2016-05-15T09:13:24.000Z</time>
      </trkpt>
      <trkpt lat="47.4062" lon="6.70582">
        <ele>450</ele>
        <time>2016-05-15T09:13:25.000Z</time>
      </trkpt>
      <trkpt lat="47.40624" lon="6.70578">
        <ele>450</ele>
        <time>2016-05-15T09:13:29.000Z</time>
      </trkpt>
      <trkpt lat="47.40624" lon="6.70578">
        <ele>450</ele>
        <time>2016-05-15T09:13:30.000Z</time>
      </trkpt>
      <trkpt lat="47.40627" lon="6.70573">
        <ele>450</ele>
        <time>2016-05-15T09:13:35.000Z</time>
      </trkpt>
      <trkpt lat="47.40627" lon="6.70572">
        <ele>450</ele>
        <time>2016-05-15T09:13:36.000Z</time>
      </trkpt>
      <trkpt lat="47.40629" lon="6.70569">
        <ele>450</ele>
        <time>2016-05-15T09:13:41.000Z</time>
      </trkpt>
      <trkpt lat="47.4063" lon="6.70567">
        <ele>450</ele>
        <time>2016-05-15T09:13:42.000Z</time>
      </trkpt>
      <trkpt lat="47.40633" lon="6.70563">
        <ele>450</ele>
        <time>2016-05-15T09:13:50.000Z</time>
      </trkpt>
      <trkpt lat="47.40635" lon="6.70564">
        <ele>450</ele>
        <time>2016-05-15T09:13:51.000Z</time>
      </trkpt>
      <trkpt lat="47.40638" lon="6.70562">
        <ele>450</ele>
        <time>2016-05-15T09:13:53.000Z</time>
      </trkpt>
      <trkpt lat="47.40639" lon="6.70561">
        <ele>450</ele>
        <time>2016-05-15T09:13:54.000Z</time>
      </trkpt>
      <trkpt lat="47.40643" lon="6.70558">
        <ele>449</ele>
        <time>2016-05-15T09:13:57.000Z</time>
      </trkpt>
      <trkpt lat="47.40644" lon="6.70557">
        <ele>449</ele>
        <time>2016-05-15T09:13:58.000Z</time>
      </trkpt>
      <trkpt lat="47.40647" lon="6.70553">
        <ele>449</ele>
        <time>2016-05-15T09:14:00.000Z</time>
      </trkpt>
      <trkpt lat="47.40649" lon="6.70551">
        <ele>449</ele>
        <time>2016-05-15T09:14:01.000Z</time>
      </trkpt>
      <trkpt lat="47.40653" lon="6.70548">
        <ele>449</ele>
        <time>2016-05-15T09:14:03.000Z</time>
      </trkpt>
      <trkpt lat="47.40655" lon="6.70546">
        <ele>449</ele>
        <time>2016-05-15T09:14:04.000Z</time>
      </trkpt>
      <trkpt lat="47.40657" lon="6.70544">
        <ele>449</ele>
        <time>2016-05-15T09:14:05.000Z</time>
      </trkpt>
      <trkpt lat="47.40658" lon="6.70541">
        <ele>449</ele>
        <time>2016-05-15T09:14:06.000Z</time>
      </trkpt>
      <trkpt lat="47.40659" lon="6.70537">
        <ele>448</ele>
        <time>2016-05-15T09:14:07.000Z</time>
      </trkpt>
      <trkpt lat="47.4066" lon="6.70532">
        <ele>448</ele>
        <time>2016-05-15T09:14:08.000Z</time>
      </trkpt>
      <trkpt lat="47.4066" lon="6.70526">
        <ele>448</ele>
        <time>2016-05-15T09:14:09.000Z</time>
      </trkpt>
      <trkpt lat="47.4066" lon="6.70521">
        <ele>447</ele>
        <time>2016-05-15T09:14:10.000Z</time>
      </trkpt>
      <trkpt lat="47.40661" lon="6.70515">
        <ele>447</ele>
        <time>2016-05-15T09:14:11.000Z</time>
      </trkpt>
      <trkpt lat="47.40662" lon="6.70508">
        <ele>447</ele>
        <time>2016-05-15T09:14:12.000Z</time>
      </trkpt>
      <trkpt lat="47.40664" lon="6.70501">
        <ele>446</ele>
        <time>2016-05-15T09:14:13.000Z</time>
      </trkpt>
      <trkpt lat="47.40666" lon="6.70493">
        <ele>444</ele>
        <time>2016-05-15T09:14:14.000Z</time>
      </trkpt>
      <trkpt lat="47.40668" lon="6.70485">
        <ele>443</ele>
        <time>2016-05-15T09:14:15.000Z</time>
      </trkpt>
      <trkpt lat="47.4067" lon="6.70477">
        <ele>442</ele>
        <time>2016-05-15T09:14:16.000Z</time>
      </trkpt>
      <trkpt lat="47.40672" lon="6.70468">
        <ele>441</ele>
        <time>2016-05-15T09:14:17.000Z</time>
      </trkpt>
      <trkpt lat="47.40673" lon="6.70459">
        <ele>441</ele>
        <time>2016-05-15T09:14:18.000Z</time>
      </trkpt>
      <trkpt lat="47.40675" lon="6.70452">
        <ele>440</ele>
        <time>2016-05-15T09:14:19.000Z</time>
      </trkpt>
      <trkpt lat="47.40677" lon="6.70446">
        <ele>439</ele>
        <time>2016-05-15T09:14:20.000Z</time>
      </trkpt>
      <trkpt lat="47.40679" lon="6.70442">
        <ele>439</ele>
        <time>2016-05-15T09:14:21.000Z</time>
      </trkpt>
      <trkpt lat="47.40681" lon="6.70439">
        <ele>439</ele>
        <time>2016-05-15T09:14:22.000Z</time>
      </trkpt>
      <trkpt lat="47.40683" lon="6.70436">
        <ele>439</ele>
        <time>2016-05-15T09:14:23.000Z</time>
      </trkpt>
      <trkpt lat="47.40686" lon="6.70434">
        <ele>439</ele>
        <time>2016-05-15T09:14:24.000Z</time>
      </trkpt>
      <trkpt lat="47.40689" lon="6.70432">
        <ele>439</ele>
        <time>2016-05-15T09:14:25.000Z</time>
      </trkpt>
      <trkpt lat="47.40692" lon="6.70431">
        <ele>439</ele>
        <time>2016-05-15T09:14:26.000Z</time>
      </trkpt>
      <trkpt lat="47.40694" lon="6.7043">
        <ele>439</ele>
        <time>2016-05-15T09:14:27.000Z</time>
      </trkpt>
      <trkpt lat="47.40697" lon="6.70429">
        <ele>439</ele>
        <time>2016-05-15T09:14:28.000Z</time>
      </trkpt>
      <trkpt lat="47.40699" lon="6.70426">
        <ele>439</ele>
        <time>2016-05-15T09:14:29.000Z</time>
      </trkpt>
      <trkpt lat="47.40702" lon="6.70424">
        <ele>439</ele>
        <time>2016-05-15T09:14:30.000Z</time>
      </trkpt>
      <trkpt lat="47.40704" lon="6.70422">
        <ele>439</ele>
        <time>2016-05-15T09:14:31.000Z</time>
      </trkpt>
      <trkpt lat="47.40706" lon="6.70421">
        <ele>439</ele>
        <time>2016-05-15T09:14:32.000Z</time>
      </trkpt>
      <trkpt lat="47.40709" lon="6.7042">
        <ele>438</ele>
        <time>2016-05-15T09:14:33.000Z</time>
      </trkpt>
      <trkpt lat="47.40711" lon="6.70419">
        <ele>438</ele>
        <time>2016-05-15T09:14:34.000Z</time>
      </trkpt>
      <trkpt lat="47.40713" lon="6.70418">
        <ele>438</ele>
        <time>2016-05-15T09:14:35.000Z</time>
      </trkpt>
      <trkpt lat="47.40715" lon="6.70418">
        <ele>438</ele>
        <time>2016-05-15T09:14:36.000Z</time>
      </trkpt>
      <trkpt lat="47.40718" lon="6.70418">
        <ele>438</ele>
        <time>2016-05-15T09:14:37.000Z</time>
      </trkpt>
      <trkpt lat="47.40721" lon="6.70419">
        <ele>438</ele>
        <time>2016-05-15T09:14:38.000Z</time>
      </trkpt>
      <trkpt lat="47.40724" lon="6.70419">
        <ele>438</ele>
        <time>2016-05-15T09:14:39.000Z</time>
      </trkpt>
      <trkpt lat="47.40727" lon="6.70419">
        <ele>438</ele>
        <time>2016-05-15T09:14:40.000Z</time>
      </trkpt>
      <trkpt lat="47.4073" lon="6.70419">
        <ele>438</ele>
        <time>2016-05-15T09:14:41.000Z</time>
      </trkpt>
      <trkpt lat="47.40734" lon="6.70419">
        <ele>437</ele>
        <time>2016-05-15T09:14:42.000Z</time>
      </trkpt>
      <trkpt lat="47.40737" lon="6.7042">
        <ele>437</ele>
        <time>2016-05-15T09:14:43.000Z</time>
      </trkpt>
      <trkpt lat="47.4074" lon="6.70421">
        <ele>437</ele>
        <time>2016-05-15T09:14:44.000Z</time>
      </trkpt>
      <trkpt lat="47.40743" lon="6.70422">
        <ele>437</ele>
        <time>2016-05-15T09:14:45.000Z</time>
      </trkpt>
      <trkpt lat="47.40746" lon="6.70423">
        <ele>436</ele>
        <time>2016-05-15T09:14:46.000Z</time>
      </trkpt>
      <trkpt lat="47.40749" lon="6.70425">
        <ele>437</ele>
        <time>2016-05-15T09:14:47.000Z</time>
      </trkpt>
      <trkpt lat="47.40752" lon="6.70427">
        <ele>436</ele>
        <time>2016-05-15T09:14:48.000Z</time>
      </trkpt>
      <trkpt lat="47.40756" lon="6.70428">
        <ele>436</ele>
        <time>2016-05-15T09:14:49.000Z</time>
      </trkpt>
      <trkpt lat="47.4076" lon="6.70429">
        <ele>437</ele>
        <time>2016-05-15T09:14:50.000Z</time>
      </trkpt>
      <trkpt lat="47.40765" lon="6.70431">
        <ele>437</ele>
        <time>2016-05-15T09:14:51.000Z</time>
      </trkpt>
      <trkpt lat="47.4077" lon="6.70432">
        <ele>437</ele>
        <time>2016-05-15T09:14:52.000Z</time>
      </trkpt>
      <trkpt lat="47.40774" lon="6.70434">
        <ele>437</ele>
        <time>2016-05-15T09:14:53.000Z</time>
      </trkpt>
      <trkpt lat="47.40779" lon="6.70434">
        <ele>437</ele>
        <time>2016-05-15T09:14:54.000Z</time>
      </trkpt>
      <trkpt lat="47.40785" lon="6.70435">
        <ele>437</ele>
        <time>2016-05-15T09:14:55.000Z</time>
      </trkpt>
      <trkpt lat="47.40792" lon="6.70435">
        <ele>437</ele>
        <time>2016-05-15T09:14:56.000Z</time>
      </trkpt>
      <trkpt lat="47.40798" lon="6.70436">
        <ele>437</ele>
        <time>2016-05-15T09:14:57.000Z</time>
      </trkpt>
      <trkpt lat="47.40805" lon="6.70437">
        <ele>437</ele>
        <time>2016-05-15T09:14:58.000Z</time>
      </trkpt>
      <trkpt lat="47.40811" lon="6.70438">
        <ele>437</ele>
        <time>2016-05-15T09:14:59.000Z</time>
      </trkpt>
      <trkpt lat="47.40817" lon="6.7044">
        <ele>437</ele>
        <time>2016-05-15T09:15:00.000Z</time>
      </trkpt>
      <trkpt lat="47.40824" lon="6.70444">
        <ele>437</ele>
        <time>2016-05-15T09:15:01.000Z</time>
      </trkpt>
      <trkpt lat="47.4085" lon="6.70458">
        <ele>434</ele>
        <time>2016-05-15T09:15:02.000Z</time>
      </trkpt>
      <trkpt lat="47.40855" lon="6.70455">
        <ele>434</ele>
        <time>2016-05-15T09:15:03.000Z</time>
      </trkpt>
      <trkpt lat="47.40861" lon="6.70455">
        <ele>434</ele>
        <time>2016-05-15T09:15:04.000Z</time>
      </trkpt>
      <trkpt lat="47.4087" lon="6.70452">
        <ele>433</ele>
        <time>2016-05-15T09:15:05.000Z</time>
      </trkpt>
      <trkpt lat="47.40876" lon="6.70453">
        <ele>433</ele>
        <time>2016-05-15T09:15:06.000Z</time>
      </trkpt>
      <trkpt lat="47.40882" lon="6.70453">
        <ele>432</ele>
        <time>2016-05-15T09:15:07.000Z</time>
      </trkpt>
      <trkpt lat="47.4089" lon="6.70453">
        <ele>432</ele>
        <time>2016-05-15T09:15:08.000Z</time>
      </trkpt>
      <trkpt lat="47.40897" lon="6.70445">
        <ele>431</ele>
        <time>2016-05-15T09:15:09.000Z</time>
      </trkpt>
      <trkpt lat="47.40903" lon="6.70446">
        <ele>431</ele>
        <time>2016-05-15T09:15:10.000Z</time>
      </trkpt>
      <trkpt lat="47.40909" lon="6.70447">
        <ele>430</ele>
        <time>2016-05-15T09:15:11.000Z</time>
      </trkpt>
      <trkpt lat="47.40909" lon="6.70445">
        <ele>430</ele>
        <time>2016-05-15T09:15:12.000Z</time>
      </trkpt>
      <trkpt lat="47.40912" lon="6.70436">
        <ele>429</ele>
        <time>2016-05-15T09:15:13.000Z</time>
      </trkpt>
      <trkpt lat="47.40913" lon="6.7043">
        <ele>428</ele>
        <time>2016-05-15T09:15:14.000Z</time>
      </trkpt>
      <trkpt lat="47.40914" lon="6.70425">
        <ele>427</ele>
        <time>2016-05-15T09:15:15.000Z</time>
      </trkpt>
      <trkpt lat="47.40915" lon="6.70421">
        <ele>426</ele>
        <time>2016-05-15T09:15:16.000Z</time>
      </trkpt>
      <trkpt lat="47.40915" lon="6.70417">
        <ele>425</ele>
        <time>2016-05-15T09:15:17.000Z</time>
      </trkpt>
      <trkpt lat="47.40917" lon="6.70411">
        <ele>424</ele>
        <time>2016-05-15T09:15:19.000Z</time>
      </trkpt>
      <trkpt lat="47.40918" lon="6.70408">
        <ele>422</ele>
        <time>2016-05-15T09:15:20.000Z</time>
      </trkpt>
      <trkpt lat="47.40921" lon="6.70405">
        <ele>421</ele>
        <time>2016-05-15T09:15:22.000Z</time>
      </trkpt>
      <trkpt lat="47.40922" lon="6.70404">
        <ele>421</ele>
        <time>2016-05-15T09:15:23.000Z</time>
      </trkpt>
      <trkpt lat="47.40926" lon="6.70403">
        <ele>420</ele>
        <time>2016-05-15T09:15:26.000Z</time>
      </trkpt>
      <trkpt lat="47.40927" lon="6.70402">
        <ele>420</ele>
        <time>2016-05-15T09:15:27.000Z</time>
      </trkpt>
      <trkpt lat="47.4093" lon="6.70402">
        <ele>419</ele>
        <time>2016-05-15T09:15:40.000Z</time>
      </trkpt>
      <trkpt lat="47.40933" lon="6.70409">
        <ele>420</ele>
        <time>2016-05-15T09:15:41.000Z</time>
      </trkpt>
      <trkpt lat="47.40934" lon="6.70411">
        <ele>420</ele>
        <time>2016-05-15T09:15:42.000Z</time>
      </trkpt>
      <trkpt lat="47.40937" lon="6.70414">
        <ele>420</ele>
        <time>2016-05-15T09:15:43.000Z</time>
      </trkpt>
      <trkpt lat="47.4094" lon="6.70417">
        <ele>422</ele>
        <time>2016-05-15T09:15:44.000Z</time>
      </trkpt>
      <trkpt lat="47.40943" lon="6.70419">
        <ele>422</ele>
        <time>2016-05-15T09:15:45.000Z</time>
      </trkpt>
      <trkpt lat="47.40948" lon="6.7042">
        <ele>422</ele>
        <time>2016-05-15T09:15:46.000Z</time>
      </trkpt>
      <trkpt lat="47.40953" lon="6.7042">
        <ele>421</ele>
        <time>2016-05-15T09:15:47.000Z</time>
      </trkpt>
      <trkpt lat="47.40959" lon="6.70419">
        <ele>421</ele>
        <time>2016-05-15T09:15:48.000Z</time>
      </trkpt>
      <trkpt lat="47.40972" lon="6.70413">
        <ele>416</ele>
        <time>2016-05-15T09:15:49.000Z</time>
      </trkpt>
      <trkpt lat="47.40978" lon="6.70412">
        <ele>416</ele>
        <time>2016-05-15T09:15:50.000Z</time>
      </trkpt>
      <trkpt lat="47.40984" lon="6.70411">
        <ele>415</ele>
        <time>2016-05-15T09:15:51.000Z</time>
      </trkpt>
      <trkpt lat="47.40989" lon="6.70413">
        <ele>415</ele>
        <time>2016-05-15T09:15:52.000Z</time>
      </trkpt>
      <trkpt lat="47.40992" lon="6.70415">
        <ele>415</ele>
        <time>2016-05-15T09:15:53.000Z</time>
      </trkpt>
      <trkpt lat="47.40998" lon="6.70416">
        <ele>415</ele>
        <time>2016-05-15T09:15:54.000Z</time>
      </trkpt>
      <trkpt lat="47.41004" lon="6.70418">
        <ele>414</ele>
        <time>2016-05-15T09:15:55.000Z</time>
      </trkpt>
      <trkpt lat="47.41009" lon="6.7042">
        <ele>413</ele>
        <time>2016-05-15T09:15:56.000Z</time>
      </trkpt>
      <trkpt lat="47.41016" lon="6.70423">
        <ele>412</ele>
        <time>2016-05-15T09:15:57.000Z</time>
      </trkpt>
      <trkpt lat="47.41022" lon="6.70427">
        <ele>412</ele>
        <time>2016-05-15T09:15:58.000Z</time>
      </trkpt>
      <trkpt lat="47.41029" lon="6.7043">
        <ele>411</ele>
        <time>2016-05-15T09:15:59.000Z</time>
      </trkpt>
      <trkpt lat="47.41033" lon="6.70434">
        <ele>411</ele>
        <time>2016-05-15T09:16:00.000Z</time>
      </trkpt>
      <trkpt lat="47.41038" lon="6.70437">
        <ele>410</ele>
        <time>2016-05-15T09:16:01.000Z</time>
      </trkpt>
      <trkpt lat="47.41042" lon="6.7044">
        <ele>410</ele>
        <time>2016-05-15T09:16:02.000Z</time>
      </trkpt>
      <trkpt lat="47.41046" lon="6.70441">
        <ele>410</ele>
        <time>2016-05-15T09:16:03.000Z</time>
      </trkpt>
      <trkpt lat="47.41051" lon="6.70441">
        <ele>409</ele>
        <time>2016-05-15T09:16:04.000Z</time>
      </trkpt>
      <trkpt lat="47.41059" lon="6.70441">
        <ele>409</ele>
        <time>2016-05-15T09:16:05.000Z</time>
      </trkpt>
      <trkpt lat="47.41065" lon="6.70442">
        <ele>409</ele>
        <time>2016-05-15T09:16:06.000Z</time>
      </trkpt>
      <trkpt lat="47.41071" lon="6.70438">
        <ele>408</ele>
        <time>2016-05-15T09:16:07.000Z</time>
      </trkpt>
      <trkpt lat="47.41075" lon="6.70436">
        <ele>408</ele>
        <time>2016-05-15T09:16:08.000Z</time>
      </trkpt>
      <trkpt lat="47.41077" lon="6.70418">
        <ele>406</ele>
        <time>2016-05-15T09:16:09.000Z</time>
      </trkpt>
      <trkpt lat="47.41079" lon="6.7041">
        <ele>406</ele>
        <time>2016-05-15T09:16:10.000Z</time>
      </trkpt>
      <trkpt lat="47.41082" lon="6.70404">
        <ele>406</ele>
        <time>2016-05-15T09:16:11.000Z</time>
      </trkpt>
      <trkpt lat="47.41085" lon="6.70398">
        <ele>402</ele>
        <time>2016-05-15T09:16:12.000Z</time>
      </trkpt>
      <trkpt lat="47.41089" lon="6.70391">
        <ele>401</ele>
        <time>2016-05-15T09:16:13.000Z</time>
      </trkpt>
      <trkpt lat="47.41092" lon="6.70385">
        <ele>401</ele>
        <time>2016-05-15T09:16:14.000Z</time>
      </trkpt>
      <trkpt lat="47.41095" lon="6.70381">
        <ele>400</ele>
        <time>2016-05-15T09:16:15.000Z</time>
      </trkpt>
      <trkpt lat="47.41098" lon="6.70375">
        <ele>400</ele>
        <time>2016-05-15T09:16:16.000Z</time>
      </trkpt>
      <trkpt lat="47.41102" lon="6.70368">
        <ele>400</ele>
        <time>2016-05-15T09:16:17.000Z</time>
      </trkpt>
      <trkpt lat="47.41109" lon="6.7036">
        <ele>400</ele>
        <time>2016-05-15T09:16:18.000Z</time>
      </trkpt>
      <trkpt lat="47.41113" lon="6.70352">
        <ele>399</ele>
        <time>2016-05-15T09:16:19.000Z</time>
      </trkpt>
      <trkpt lat="47.41118" lon="6.7034">
        <ele>399</ele>
        <time>2016-05-15T09:16:20.000Z</time>
      </trkpt>
      <trkpt lat="47.41123" lon="6.70332">
        <ele>396</ele>
        <time>2016-05-15T09:16:21.000Z</time>
      </trkpt>
      <trkpt lat="47.41127" lon="6.70323">
        <ele>396</ele>
        <time>2016-05-15T09:16:22.000Z</time>
      </trkpt>
      <trkpt lat="47.4113" lon="6.70316">
        <ele>395</ele>
        <time>2016-05-15T09:16:23.000Z</time>
      </trkpt>
      <trkpt lat="47.41132" lon="6.70304">
        <ele>395</ele>
        <time>2016-05-15T09:16:24.000Z</time>
      </trkpt>
      <trkpt lat="47.41132" lon="6.70291">
        <ele>394</ele>
        <time>2016-05-15T09:16:25.000Z</time>
      </trkpt>
      <trkpt lat="47.4113" lon="6.70276">
        <ele>394</ele>
        <time>2016-05-15T09:16:26.000Z</time>
      </trkpt>
      <trkpt lat="47.41128" lon="6.70264">
        <ele>394</ele>
        <time>2016-05-15T09:16:27.000Z</time>
      </trkpt>
      <trkpt lat="47.4113" lon="6.70255">
        <ele>393</ele>
        <time>2016-05-15T09:16:28.000Z</time>
      </trkpt>
      <trkpt lat="47.41132" lon="6.70247">
        <ele>391</ele>
        <time>2016-05-15T09:16:29.000Z</time>
      </trkpt>
      <trkpt lat="47.41134" lon="6.70241">
        <ele>390</ele>
        <time>2016-05-15T09:16:30.000Z</time>
      </trkpt>
      <trkpt lat="47.41141" lon="6.70242">
        <ele>390</ele>
        <time>2016-05-15T09:16:31.000Z</time>
      </trkpt>
      <trkpt lat="47.41145" lon="6.7024">
        <ele>390</ele>
        <time>2016-05-15T09:16:37.000Z</time>
      </trkpt>
      <trkpt lat="47.41145" lon="6.70242">
        <ele>390</ele>
        <time>2016-05-15T09:16:38.000Z</time>
      </trkpt>
      <trkpt lat="47.41147" lon="6.70242">
        <ele>389</ele>
        <time>2016-05-15T09:16:40.000Z</time>
      </trkpt>
      <trkpt lat="47.41146" lon="6.70235">
        <ele>390</ele>
        <time>2016-05-15T09:16:41.000Z</time>
      </trkpt>
      <trkpt lat="47.41145" lon="6.70229">
        <ele>390</ele>
        <time>2016-05-15T09:16:43.000Z</time>
      </trkpt>
      <trkpt lat="47.41144" lon="6.70226">
        <ele>390</ele>
        <time>2016-05-15T09:16:44.000Z</time>
      </trkpt>
      <trkpt lat="47.41145" lon="6.70221">
        <ele>390</ele>
        <time>2016-05-15T09:16:46.000Z</time>
      </trkpt>
      <trkpt lat="47.41146" lon="6.70218">
        <ele>390</ele>
        <time>2016-05-15T09:16:47.000Z</time>
      </trkpt>
      <trkpt lat="47.41147" lon="6.70213">
        <ele>390</ele>
        <time>2016-05-15T09:16:49.000Z</time>
      </trkpt>
      <trkpt lat="47.41148" lon="6.70211">
        <ele>390</ele>
        <time>2016-05-15T09:16:50.000Z</time>
      </trkpt>
      <trkpt lat="47.41147" lon="6.70204">
        <ele>390</ele>
        <time>2016-05-15T09:16:54.000Z</time>
      </trkpt>
      <trkpt lat="47.41147" lon="6.70201">
        <ele>390</ele>
        <time>2016-05-15T09:16:55.000Z</time>
      </trkpt>
      <trkpt lat="47.4115" lon="6.70199">
        <ele>390</ele>
        <time>2016-05-15T09:17:02.000Z</time>
      </trkpt>
      <trkpt lat="47.41151" lon="6.702">
        <ele>390</ele>
        <time>2016-05-15T09:17:03.000Z</time>
      </trkpt>
      <trkpt lat="47.41155" lon="6.70198">
        <ele>390</ele>
        <time>2016-05-15T09:17:07.000Z</time>
      </trkpt>
      <trkpt lat="47.41156" lon="6.70197">
        <ele>390</ele>
        <time>2016-05-15T09:17:08.000Z</time>
      </trkpt>
      <trkpt lat="47.4116" lon="6.70197">
        <ele>390</ele>
        <time>2016-05-15T09:17:11.000Z</time>
      </trkpt>
      <trkpt lat="47.41161" lon="6.70198">
        <ele>390</ele>
        <time>2016-05-15T09:17:12.000Z</time>
      </trkpt>
      <trkpt lat="47.41165" lon="6.702">
        <ele>390</ele>
        <time>2016-05-15T09:17:15.000Z</time>
      </trkpt>
      <trkpt lat="47.41166" lon="6.70201">
        <ele>390</ele>
        <time>2016-05-15T09:17:16.000Z</time>
      </trkpt>
      <trkpt lat="47.4117" lon="6.70199">
        <ele>385</ele>
        <time>2016-05-15T09:17:20.000Z</time>
      </trkpt>
      <trkpt lat="47.41172" lon="6.70199">
        <ele>385</ele>
        <time>2016-05-15T09:17:21.000Z</time>
      </trkpt>
      <trkpt lat="47.41176" lon="6.702">
        <ele>385</ele>
        <time>2016-05-15T09:17:23.000Z</time>
      </trkpt>
      <trkpt lat="47.41179" lon="6.702">
        <ele>385</ele>
        <time>2016-05-15T09:17:24.000Z</time>
      </trkpt>
      <trkpt lat="47.41183" lon="6.702">
        <ele>384</ele>
        <time>2016-05-15T09:17:25.000Z</time>
      </trkpt>
      <trkpt lat="47.41186" lon="6.70199">
        <ele>384</ele>
        <time>2016-05-15T09:17:26.000Z</time>
      </trkpt>
      <trkpt lat="47.4119" lon="6.70198">
        <ele>384</ele>
        <time>2016-05-15T09:17:27.000Z</time>
      </trkpt>
      <trkpt lat="47.41193" lon="6.70197">
        <ele>384</ele>
        <time>2016-05-15T09:17:28.000Z</time>
      </trkpt>
      <trkpt lat="47.41197" lon="6.70195">
        <ele>384</ele>
        <time>2016-05-15T09:17:29.000Z</time>
      </trkpt>
      <trkpt lat="47.41201" lon="6.70194">
        <ele>383</ele>
        <time>2016-05-15T09:17:30.000Z</time>
      </trkpt>
      <trkpt lat="47.41204" lon="6.70193">
        <ele>383</ele>
        <time>2016-05-15T09:17:31.000Z</time>
      </trkpt>
      <trkpt lat="47.41208" lon="6.70193">
        <ele>383</ele>
        <time>2016-05-15T09:17:32.000Z</time>
      </trkpt>
      <trkpt lat="47.41211" lon="6.70193">
        <ele>383</ele>
        <time>2016-05-15T09:17:33.000Z</time>
      </trkpt>
      <trkpt lat="47.41215" lon="6.70193">
        <ele>383</ele>
        <time>2016-05-15T09:17:34.000Z</time>
      </trkpt>
      <trkpt lat="47.41219" lon="6.70193">
        <ele>382</ele>
        <time>2016-05-15T09:17:35.000Z</time>
      </trkpt>
      <trkpt lat="47.41223" lon="6.70193">
        <ele>382</ele>
        <time>2016-05-15T09:17:36.000Z</time>
      </trkpt>
      <trkpt lat="47.41226" lon="6.70194">
        <ele>382</ele>
        <time>2016-05-15T09:17:37.000Z</time>
      </trkpt>
      <trkpt lat="47.4123" lon="6.70195">
        <ele>382</ele>
        <time>2016-05-15T09:17:38.000Z</time>
      </trkpt>
      <trkpt lat="47.41234" lon="6.70196">
        <ele>381</ele>
        <time>2016-05-15T09:17:39.000Z</time>
      </trkpt>
      <trkpt lat="47.41238" lon="6.70198">
        <ele>381</ele>
        <time>2016-05-15T09:17:40.000Z</time>
      </trkpt>
      <trkpt lat="47.41243" lon="6.70199">
        <ele>381</ele>
        <time>2016-05-15T09:17:41.000Z</time>
      </trkpt>
      <trkpt lat="47.41248" lon="6.702">
        <ele>381</ele>
        <time>2016-05-15T09:17:42.000Z</time>
      </trkpt>
      <trkpt lat="47.41252" lon="6.70199">
        <ele>375</ele>
        <time>2016-05-15T09:17:43.000Z</time>
      </trkpt>
      <trkpt lat="47.41257" lon="6.702">
        <ele>375</ele>
        <time>2016-05-15T09:17:44.000Z</time>
      </trkpt>
      <trkpt lat="47.4126" lon="6.70199">
        <ele>375</ele>
        <time>2016-05-15T09:17:45.000Z</time>
      </trkpt>
      <trkpt lat="47.41263" lon="6.702">
        <ele>375</ele>
        <time>2016-05-15T09:17:46.000Z</time>
      </trkpt>
      <trkpt lat="47.41266" lon="6.702">
        <ele>375</ele>
        <time>2016-05-15T09:17:47.000Z</time>
      </trkpt>
      <trkpt lat="47.41269" lon="6.702">
        <ele>375</ele>
        <time>2016-05-15T09:17:48.000Z</time>
      </trkpt>
      <trkpt lat="47.41272" lon="6.702">
        <ele>374</ele>
        <time>2016-05-15T09:17:49.000Z</time>
      </trkpt>
      <trkpt lat="47.41274" lon="6.70199">
        <ele>374</ele>
        <time>2016-05-15T09:17:50.000Z</time>
      </trkpt>
      <trkpt lat="47.41277" lon="6.70198">
        <ele>374</ele>
        <time>2016-05-15T09:17:51.000Z</time>
      </trkpt>
      <trkpt lat="47.41279" lon="6.70197">
        <ele>374</ele>
        <time>2016-05-15T09:17:52.000Z</time>
      </trkpt>
      <trkpt lat="47.41281" lon="6.70196">
        <ele>374</ele>
        <time>2016-05-15T09:17:53.000Z</time>
      </trkpt>
      <trkpt lat="47.41284" lon="6.70195">
        <ele>374</ele>
        <time>2016-05-15T09:17:54.000Z</time>
      </trkpt>
      <trkpt lat="47.41286" lon="6.70194">
        <ele>374</ele>
        <time>2016-05-15T09:17:55.000Z</time>
      </trkpt>
      <trkpt lat="47.41288" lon="6.70192">
        <ele>374</ele>
        <time>2016-05-15T09:17:56.000Z</time>
      </trkpt>
      <trkpt lat="47.41289" lon="6.70189">
        <ele>374</ele>
        <time>2016-05-15T09:17:57.000Z</time>
      </trkpt>
      <trkpt lat="47.41292" lon="6.70187">
        <ele>373</ele>
        <time>2016-05-15T09:17:58.000Z</time>
      </trkpt>
      <trkpt lat="47.41295" lon="6.70186">
        <ele>373</ele>
        <time>2016-05-15T09:17:59.000Z</time>
      </trkpt>
      <trkpt lat="47.41299" lon="6.70185">
        <ele>373</ele>
        <time>2016-05-15T09:18:00.000Z</time>
      </trkpt>
      <trkpt lat="47.41304" lon="6.70184">
        <ele>373</ele>
        <time>2016-05-15T09:18:01.000Z</time>
      </trkpt>
      <trkpt lat="47.41309" lon="6.70183">
        <ele>372</ele>
        <time>2016-05-15T09:18:02.000Z</time>
      </trkpt>
      <trkpt lat="47.41313" lon="6.70181">
        <ele>372</ele>
        <time>2016-05-15T09:18:03.000Z</time>
      </trkpt>
      <trkpt lat="47.41318" lon="6.70179">
        <ele>371</ele>
        <time>2016-05-15T09:18:04.000Z</time>
      </trkpt>
      <trkpt lat="47.41322" lon="6.70176">
        <ele>371</ele>
        <time>2016-05-15T09:18:05.000Z</time>
      </trkpt>
      <trkpt lat="47.41325" lon="6.70174">
        <ele>371</ele>
        <time>2016-05-15T09:18:06.000Z</time>
      </trkpt>
      <trkpt lat="47.41329" lon="6.70171">
        <ele>370</ele>
        <time>2016-05-15T09:18:07.000Z</time>
      </trkpt>
      <trkpt lat="47.41332" lon="6.70167">
        <ele>369</ele>
        <time>2016-05-15T09:18:08.000Z</time>
      </trkpt>
      <trkpt lat="47.41335" lon="6.70163">
        <ele>369</ele>
        <time>2016-05-15T09:18:09.000Z</time>
      </trkpt>
      <trkpt lat="47.41339" lon="6.70159">
        <ele>370</ele>
        <time>2016-05-15T09:18:10.000Z</time>
      </trkpt>
      <trkpt lat="47.41342" lon="6.70156">
        <ele>370</ele>
        <time>2016-05-15T09:18:11.000Z</time>
      </trkpt>
      <trkpt lat="47.41346" lon="6.70152">
        <ele>370</ele>
        <time>2016-05-15T09:18:12.000Z</time>
      </trkpt>
      <trkpt lat="47.41351" lon="6.70149">
        <ele>371</ele>
        <time>2016-05-15T09:18:13.000Z</time>
      </trkpt>
      <trkpt lat="47.41355" lon="6.70144">
        <ele>371</ele>
        <time>2016-05-15T09:18:14.000Z</time>
      </trkpt>
      <trkpt lat="47.41359" lon="6.70139">
        <ele>371</ele>
        <time>2016-05-15T09:18:15.000Z</time>
      </trkpt>
      <trkpt lat="47.41364" lon="6.70134">
        <ele>371</ele>
        <time>2016-05-15T09:18:16.000Z</time>
      </trkpt>
      <trkpt lat="47.41368" lon="6.70128">
        <ele>371</ele>
        <time>2016-05-15T09:18:17.000Z</time>
      </trkpt>
      <trkpt lat="47.41372" lon="6.70122">
        <ele>371</ele>
        <time>2016-05-15T09:18:18.000Z</time>
      </trkpt>
      <trkpt lat="47.41376" lon="6.70117">
        <ele>371</ele>
        <time>2016-05-15T09:18:19.000Z</time>
      </trkpt>
      <trkpt lat="47.4138" lon="6.70111">
        <ele>371</ele>
        <time>2016-05-15T09:18:20.000Z</time>
      </trkpt>
      <trkpt lat="47.41383" lon="6.70107">
        <ele>371</ele>
        <time>2016-05-15T09:18:21.000Z</time>
      </trkpt>
      <trkpt lat="47.41387" lon="6.70102">
        <ele>371</ele>
        <time>2016-05-15T09:18:22.000Z</time>
      </trkpt>
      <trkpt lat="47.41391" lon="6.70099">
        <ele>371</ele>
        <time>2016-05-15T09:18:23.000Z</time>
      </trkpt>
      <trkpt lat="47.41393" lon="6.70095">
        <ele>370</ele>
        <time>2016-05-15T09:18:24.000Z</time>
      </trkpt>
      <trkpt lat="47.41396" lon="6.70091">
        <ele>370</ele>
        <time>2016-05-15T09:18:25.000Z</time>
      </trkpt>
      <trkpt lat="47.41398" lon="6.70087">
        <ele>370</ele>
        <time>2016-05-15T09:18:26.000Z</time>
      </trkpt>
      <trkpt lat="47.41401" lon="6.70083">
        <ele>373</ele>
        <time>2016-05-15T09:18:27.000Z</time>
      </trkpt>
      <trkpt lat="47.41406" lon="6.70072">
        <ele>373</ele>
        <time>2016-05-15T09:18:28.000Z</time>
      </trkpt>
      <trkpt lat="47.4141" lon="6.7007">
        <ele>373</ele>
        <time>2016-05-15T09:18:29.000Z</time>
      </trkpt>
      <trkpt lat="47.41414" lon="6.70066">
        <ele>373</ele>
        <time>2016-05-15T09:18:30.000Z</time>
      </trkpt>
      <trkpt lat="47.41419" lon="6.70064">
        <ele>370</ele>
        <time>2016-05-15T09:18:31.000Z</time>
      </trkpt>
      <trkpt lat="47.41424" lon="6.70063">
        <ele>370</ele>
        <time>2016-05-15T09:18:32.000Z</time>
      </trkpt>
      <trkpt lat="47.41429" lon="6.70063">
        <ele>370</ele>
        <time>2016-05-15T09:18:33.000Z</time>
      </trkpt>
      <trkpt lat="47.41433" lon="6.70063">
        <ele>370</ele>
        <time>2016-05-15T09:18:34.000Z</time>
      </trkpt>
      <trkpt lat="47.41438" lon="6.70064">
        <ele>370</ele>
        <time>2016-05-15T09:18:35.000Z</time>
      </trkpt>
      <trkpt lat="47.41442" lon="6.70065">
        <ele>370</ele>
        <time>2016-05-15T09:18:36.000Z</time>
      </trkpt>
      <trkpt lat="47.41446" lon="6.70063">
        <ele>370</ele>
        <time>2016-05-15T09:18:37.000Z</time>
      </trkpt>
      <trkpt lat="47.4145" lon="6.70063">
        <ele>370</ele>
        <time>2016-05-15T09:18:38.000Z</time>
      </trkpt>
      <trkpt lat="47.41455" lon="6.70066">
        <ele>370</ele>
        <time>2016-05-15T09:18:39.000Z</time>
      </trkpt>
      <trkpt lat="47.41459" lon="6.70065">
        <ele>370</ele>
        <time>2016-05-15T09:18:40.000Z</time>
      </trkpt>
      <trkpt lat="47.41462" lon="6.70064">
        <ele>370</ele>
        <time>2016-05-15T09:18:41.000Z</time>
      </trkpt>
      <trkpt lat="47.41466" lon="6.70066">
        <ele>370</ele>
        <time>2016-05-15T09:18:42.000Z</time>
      </trkpt>
      <trkpt lat="47.4147" lon="6.70066">
        <ele>369</ele>
        <time>2016-05-15T09:18:43.000Z</time>
      </trkpt>
      <trkpt lat="47.41476" lon="6.70064">
        <ele>369</ele>
        <time>2016-05-15T09:18:44.000Z</time>
      </trkpt>
      <trkpt lat="47.41482" lon="6.70064">
        <ele>369</ele>
        <time>2016-05-15T09:18:45.000Z</time>
      </trkpt>
      <trkpt lat="47.41488" lon="6.70063">
        <ele>369</ele>
        <time>2016-05-15T09:18:46.000Z</time>
      </trkpt>
      <trkpt lat="47.41493" lon="6.70058">
        <ele>369</ele>
        <time>2016-05-15T09:18:47.000Z</time>
      </trkpt>
      <trkpt lat="47.41499" lon="6.70053">
        <ele>369</ele>
        <time>2016-05-15T09:18:48.000Z</time>
      </trkpt>
      <trkpt lat="47.41503" lon="6.70049">
        <ele>369</ele>
        <time>2016-05-15T09:18:49.000Z</time>
      </trkpt>
      <trkpt lat="47.41508" lon="6.70046">
        <ele>369</ele>
        <time>2016-05-15T09:18:50.000Z</time>
      </trkpt>
      <trkpt lat="47.41513" lon="6.70044">
        <ele>370</ele>
        <time>2016-05-15T09:18:51.000Z</time>
      </trkpt>
      <trkpt lat="47.41518" lon="6.70043">
        <ele>370</ele>
        <time>2016-05-15T09:18:52.000Z</time>
      </trkpt>
      <trkpt lat="47.41522" lon="6.70042">
        <ele>370</ele>
        <time>2016-05-15T09:18:53.000Z</time>
      </trkpt>
      <trkpt lat="47.41526" lon="6.70041">
        <ele>370</ele>
        <time>2016-05-15T09:18:54.000Z</time>
      </trkpt>
      <trkpt lat="47.41531" lon="6.70038">
        <ele>370</ele>
        <time>2016-05-15T09:18:55.000Z</time>
      </trkpt>
      <trkpt lat="47.41534" lon="6.70036">
        <ele>370</ele>
        <time>2016-05-15T09:18:56.000Z</time>
      </trkpt>
      <trkpt lat="47.41537" lon="6.70034">
        <ele>370</ele>
        <time>2016-05-15T09:18:57.000Z</time>
      </trkpt>
      <trkpt lat="47.41541" lon="6.70033">
        <ele>370</ele>
        <time>2016-05-15T09:18:58.000Z</time>
      </trkpt>
      <trkpt lat="47.41544" lon="6.70032">
        <ele>370</ele>
        <time>2016-05-15T09:18:59.000Z</time>
      </trkpt>
      <trkpt lat="47.41547" lon="6.70031">
        <ele>370</ele>
        <time>2016-05-15T09:19:00.000Z</time>
      </trkpt>
      <trkpt lat="47.41551" lon="6.7003">
        <ele>370</ele>
        <time>2016-05-15T09:19:01.000Z</time>
      </trkpt>
      <trkpt lat="47.41554" lon="6.70029">
        <ele>370</ele>
        <time>2016-05-15T09:19:02.000Z</time>
      </trkpt>
      <trkpt lat="47.41557" lon="6.70028">
        <ele>370</ele>
        <time>2016-05-15T09:19:03.000Z</time>
      </trkpt>
      <trkpt lat="47.4156" lon="6.70027">
        <ele>370</ele>
        <time>2016-05-15T09:19:04.000Z</time>
      </trkpt>
      <trkpt lat="47.41564" lon="6.70025">
        <ele>370</ele>
        <time>2016-05-15T09:19:05.000Z</time>
      </trkpt>
      <trkpt lat="47.41567" lon="6.70025">
        <ele>370</ele>
        <time>2016-05-15T09:19:06.000Z</time>
      </trkpt>
      <trkpt lat="47.41571" lon="6.70023">
        <ele>369</ele>
        <time>2016-05-15T09:19:07.000Z</time>
      </trkpt>
      <trkpt lat="47.41575" lon="6.70022">
        <ele>369</ele>
        <time>2016-05-15T09:19:08.000Z</time>
      </trkpt>
      <trkpt lat="47.41579" lon="6.7002">
        <ele>369</ele>
        <time>2016-05-15T09:19:09.000Z</time>
      </trkpt>
      <trkpt lat="47.41583" lon="6.70019">
        <ele>368</ele>
        <time>2016-05-15T09:19:10.000Z</time>
      </trkpt>
      <trkpt lat="47.41587" lon="6.70017">
        <ele>371</ele>
        <time>2016-05-15T09:19:11.000Z</time>
      </trkpt>
      <trkpt lat="47.41591" lon="6.70015">
        <ele>371</ele>
        <time>2016-05-15T09:19:12.000Z</time>
      </trkpt>
      <trkpt lat="47.41594" lon="6.70014">
        <ele>372</ele>
        <time>2016-05-15T09:19:13.000Z</time>
      </trkpt>
      <trkpt lat="47.41598" lon="6.70013">
        <ele>372</ele>
        <time>2016-05-15T09:19:14.000Z</time>
      </trkpt>
      <trkpt lat="47.41602" lon="6.70011">
        <ele>372</ele>
        <time>2016-05-15T09:19:15.000Z</time>
      </trkpt>
      <trkpt lat="47.41606" lon="6.7001">
        <ele>373</ele>
        <time>2016-05-15T09:19:16.000Z</time>
      </trkpt>
      <trkpt lat="47.4161" lon="6.70008">
        <ele>373</ele>
        <time>2016-05-15T09:19:17.000Z</time>
      </trkpt>
      <trkpt lat="47.41614" lon="6.70007">
        <ele>374</ele>
        <time>2016-05-15T09:19:18.000Z</time>
      </trkpt>
      <trkpt lat="47.41618" lon="6.70006">
        <ele>374</ele>
        <time>2016-05-15T09:19:19.000Z</time>
      </trkpt>
      <trkpt lat="47.41622" lon="6.70004">
        <ele>374</ele>
        <time>2016-05-15T09:19:20.000Z</time>
      </trkpt>
      <trkpt lat="47.41626" lon="6.70002">
        <ele>374</ele>
        <time>2016-05-15T09:19:21.000Z</time>
      </trkpt>
      <trkpt lat="47.4163" lon="6.70001">
        <ele>374</ele>
        <time>2016-05-15T09:19:22.000Z</time>
      </trkpt>
      <trkpt lat="47.41634" lon="6.70001">
        <ele>375</ele>
        <time>2016-05-15T09:19:23.000Z</time>
      </trkpt>
      <trkpt lat="47.41638" lon="6.70001">
        <ele>375</ele>
        <time>2016-05-15T09:19:24.000Z</time>
      </trkpt>
      <trkpt lat="47.41642" lon="6.7">
        <ele>374</ele>
        <time>2016-05-15T09:19:25.000Z</time>
      </trkpt>
      <trkpt lat="47.41646" lon="6.7">
        <ele>368</ele>
        <time>2016-05-15T09:19:26.000Z</time>
      </trkpt>
      <trkpt lat="47.41649" lon="6.69999">
        <ele>368</ele>
        <time>2016-05-15T09:19:27.000Z</time>
      </trkpt>
      <trkpt lat="47.41653" lon="6.69997">
        <ele>368</ele>
        <time>2016-05-15T09:19:28.000Z</time>
      </trkpt>
      <trkpt lat="47.41656" lon="6.69996">
        <ele>369</ele>
        <time>2016-05-15T09:19:29.000Z</time>
      </trkpt>
      <trkpt lat="47.41659" lon="6.69995">
        <ele>369</ele>
        <time>2016-05-15T09:19:30.000Z</time>
      </trkpt>
      <trkpt lat="47.41661" lon="6.69994">
        <ele>369</ele>
        <time>2016-05-15T09:19:31.000Z</time>
      </trkpt>
      <trkpt lat="47.41664" lon="6.69993">
        <ele>369</ele>
        <time>2016-05-15T09:19:31.998Z</time>
      </trkpt>
      <trkpt lat="47.41667" lon="6.69994">
        <ele>370</ele>
        <time>2016-05-15T09:19:33.000Z</time>
      </trkpt>
      <trkpt lat="47.41669" lon="6.69994">
        <ele>370</ele>
        <time>2016-05-15T09:19:34.000Z</time>
      </trkpt>
      <trkpt lat="47.41672" lon="6.69995">
        <ele>370</ele>
        <time>2016-05-15T09:19:35.000Z</time>
      </trkpt>
      <trkpt lat="47.41674" lon="6.69995">
        <ele>370</ele>
        <time>2016-05-15T09:19:36.000Z</time>
      </trkpt>
      <trkpt lat="47.41677" lon="6.69996">
        <ele>370</ele>
        <time>2016-05-15T09:19:37.000Z</time>
      </trkpt>
      <trkpt lat="47.4168" lon="6.69996">
        <ele>370</ele>
        <time>2016-05-15T09:19:38.000Z</time>
      </trkpt>
      <trkpt lat="47.41683" lon="6.69997">
        <ele>369</ele>
        <time>2016-05-15T09:19:39.000Z</time>
      </trkpt>
      <trkpt lat="47.41686" lon="6.69997">
        <ele>369</ele>
        <time>2016-05-15T09:19:40.000Z</time>
      </trkpt>
      <trkpt lat="47.41688" lon="6.69998">
        <ele>369</ele>
        <time>2016-05-15T09:19:41.000Z</time>
      </trkpt>
      <trkpt lat="47.4169" lon="6.7">
        <ele>369</ele>
        <time>2016-05-15T09:19:42.000Z</time>
      </trkpt>
      <trkpt lat="47.41692" lon="6.70002">
        <ele>378</ele>
        <time>2016-05-15T09:19:43.000Z</time>
      </trkpt>
      <trkpt lat="47.41694" lon="6.70003">
        <ele>378</ele>
        <time>2016-05-15T09:19:44.000Z</time>
      </trkpt>
      <trkpt lat="47.41696" lon="6.70005">
        <ele>378</ele>
        <time>2016-05-15T09:19:45.000Z</time>
      </trkpt>
      <trkpt lat="47.41699" lon="6.70006">
        <ele>378</ele>
        <time>2016-05-15T09:19:46.000Z</time>
      </trkpt>
      <trkpt lat="47.41702" lon="6.70008">
        <ele>379</ele>
        <time>2016-05-15T09:19:47.000Z</time>
      </trkpt>
      <trkpt lat="47.41705" lon="6.70008">
        <ele>379</ele>
        <time>2016-05-15T09:19:48.000Z</time>
      </trkpt>
      <trkpt lat="47.41708" lon="6.70008">
        <ele>379</ele>
        <time>2016-05-15T09:19:49.000Z</time>
      </trkpt>
      <trkpt lat="47.41711" lon="6.70008">
        <ele>379</ele>
        <time>2016-05-15T09:19:50.000Z</time>
      </trkpt>
      <trkpt lat="47.41714" lon="6.70008">
        <ele>379</ele>
        <time>2016-05-15T09:19:51.000Z</time>
      </trkpt>
      <trkpt lat="47.41717" lon="6.70009">
        <ele>379</ele>
        <time>2016-05-15T09:19:52.000Z</time>
      </trkpt>
      <trkpt lat="47.4172" lon="6.70009">
        <ele>379</ele>
        <time>2016-05-15T09:19:53.000Z</time>
      </trkpt>
      <trkpt lat="47.41724" lon="6.7001">
        <ele>379</ele>
        <time>2016-05-15T09:19:54.000Z</time>
      </trkpt>
      <trkpt lat="47.41731" lon="6.69999">
        <ele>370</ele>
        <time>2016-05-15T09:19:55.000Z</time>
      </trkpt>
      <trkpt lat="47.41735" lon="6.70001">
        <ele>376</ele>
        <time>2016-05-15T09:19:56.000Z</time>
      </trkpt>
      <trkpt lat="47.4174" lon="6.70002">
        <ele>375</ele>
        <time>2016-05-15T09:19:57.000Z</time>
      </trkpt>
      <trkpt lat="47.41744" lon="6.70003">
        <ele>374</ele>
        <time>2016-05-15T09:19:58.000Z</time>
      </trkpt>
      <trkpt lat="47.41749" lon="6.70003">
        <ele>373</ele>
        <time>2016-05-15T09:19:59.000Z</time>
      </trkpt>
      <trkpt lat="47.41753" lon="6.70002">
        <ele>373</ele>
        <time>2016-05-15T09:20:00.000Z</time>
      </trkpt>
      <trkpt lat="47.41757" lon="6.70003">
        <ele>374</ele>
        <time>2016-05-15T09:20:01.000Z</time>
      </trkpt>
      <trkpt lat="47.41762" lon="6.70004">
        <ele>375</ele>
        <time>2016-05-15T09:20:02.000Z</time>
      </trkpt>
      <trkpt lat="47.41766" lon="6.70003">
        <ele>375</ele>
        <time>2016-05-15T09:20:03.000Z</time>
      </trkpt>
      <trkpt lat="47.41771" lon="6.70002">
        <ele>376</ele>
        <time>2016-05-15T09:20:04.000Z</time>
      </trkpt>
      <trkpt lat="47.41775" lon="6.70001">
        <ele>376</ele>
        <time>2016-05-15T09:20:05.000Z</time>
      </trkpt>
      <trkpt lat="47.41778" lon="6.7">
        <ele>376</ele>
        <time>2016-05-15T09:20:06.000Z</time>
      </trkpt>
      <trkpt lat="47.41782" lon="6.7">
        <ele>369</ele>
        <time>2016-05-15T09:20:07.000Z</time>
      </trkpt>
      <trkpt lat="47.41786" lon="6.69999">
        <ele>369</ele>
        <time>2016-05-15T09:20:08.000Z</time>
      </trkpt>
      <trkpt lat="47.4179" lon="6.69999">
        <ele>369</ele>
        <time>2016-05-15T09:20:09.000Z</time>
      </trkpt>
      <trkpt lat="47.41794" lon="6.69999">
        <ele>369</ele>
        <time>2016-05-15T09:20:10.000Z</time>
      </trkpt>
      <trkpt lat="47.41804" lon="6.69992">
        <ele>368</ele>
        <time>2016-05-15T09:20:11.000Z</time>
      </trkpt>
      <trkpt lat="47.41809" lon="6.69992">
        <ele>368</ele>
        <time>2016-05-15T09:20:12.000Z</time>
      </trkpt>
      <trkpt lat="47.41811" lon="6.69996">
        <ele>369</ele>
        <time>2016-05-15T09:20:13.000Z</time>
      </trkpt>
      <trkpt lat="47.41813" lon="6.69998">
        <ele>369</ele>
        <time>2016-05-15T09:20:14.000Z</time>
      </trkpt>
      <trkpt lat="47.41819" lon="6.69997">
        <ele>369</ele>
        <time>2016-05-15T09:20:15.000Z</time>
      </trkpt>
      <trkpt lat="47.41825" lon="6.69997">
        <ele>369</ele>
        <time>2016-05-15T09:20:16.000Z</time>
      </trkpt>
      <trkpt lat="47.4183" lon="6.69997">
        <ele>370</ele>
        <time>2016-05-15T09:20:17.000Z</time>
      </trkpt>
      <trkpt lat="47.41835" lon="6.69995">
        <ele>370</ele>
        <time>2016-05-15T09:20:18.000Z</time>
      </trkpt>
      <trkpt lat="47.41841" lon="6.69993">
        <ele>370</ele>
        <time>2016-05-15T09:20:19.000Z</time>
      </trkpt>
      <trkpt lat="47.41846" lon="6.69991">
        <ele>370</ele>
        <time>2016-05-15T09:20:20.000Z</time>
      </trkpt>
      <trkpt lat="47.4185" lon="6.6999">
        <ele>370</ele>
        <time>2016-05-15T09:20:21.000Z</time>
      </trkpt>
      <trkpt lat="47.41854" lon="6.69987">
        <ele>370</ele>
        <time>2016-05-15T09:20:22.000Z</time>
      </trkpt>
      <trkpt lat="47.41858" lon="6.69987">
        <ele>370</ele>
        <time>2016-05-15T09:20:23.000Z</time>
      </trkpt>
      <trkpt lat="47.41863" lon="6.69983">
        <ele>370</ele>
        <time>2016-05-15T09:20:24.000Z</time>
      </trkpt>
      <trkpt lat="47.41867" lon="6.6998">
        <ele>370</ele>
        <time>2016-05-15T09:20:25.000Z</time>
      </trkpt>
      <trkpt lat="47.41871" lon="6.69977">
        <ele>371</ele>
        <time>2016-05-15T09:20:26.000Z</time>
      </trkpt>
      <trkpt lat="47.41875" lon="6.69974">
        <ele>371</ele>
        <time>2016-05-15T09:20:27.000Z</time>
      </trkpt>
      <trkpt lat="47.41879" lon="6.69971">
        <ele>371</ele>
        <time>2016-05-15T09:20:28.000Z</time>
      </trkpt>
      <trkpt lat="47.41883" lon="6.69969">
        <ele>371</ele>
        <time>2016-05-15T09:20:29.000Z</time>
      </trkpt>
      <trkpt lat="47.41887" lon="6.69966">
        <ele>371</ele>
        <time>2016-05-15T09:20:30.000Z</time>
      </trkpt>
      <trkpt lat="47.41892" lon="6.69964">
        <ele>371</ele>
        <time>2016-05-15T09:20:31.000Z</time>
      </trkpt>
      <trkpt lat="47.41896" lon="6.69962">
        <ele>371</ele>
        <time>2016-05-15T09:20:32.000Z</time>
      </trkpt>
      <trkpt lat="47.419" lon="6.6996">
        <ele>371</ele>
        <time>2016-05-15T09:20:33.000Z</time>
      </trkpt>
      <trkpt lat="47.41904" lon="6.69959">
        <ele>371</ele>
        <time>2016-05-15T09:20:34.000Z</time>
      </trkpt>
      <trkpt lat="47.41908" lon="6.69957">
        <ele>370</ele>
        <time>2016-05-15T09:20:35.000Z</time>
      </trkpt>
      <trkpt lat="47.41912" lon="6.69955">
        <ele>370</ele>
        <time>2016-05-15T09:20:36.000Z</time>
      </trkpt>
      <trkpt lat="47.41916" lon="6.69954">
        <ele>370</ele>
        <time>2016-05-15T09:20:37.000Z</time>
      </trkpt>
      <trkpt lat="47.4192" lon="6.69952">
        <ele>375</ele>
        <time>2016-05-15T09:20:38.000Z</time>
      </trkpt>
      <trkpt lat="47.41924" lon="6.69951">
        <ele>375</ele>
        <time>2016-05-15T09:20:39.000Z</time>
      </trkpt>
      <trkpt lat="47.41928" lon="6.6995">
        <ele>374</ele>
        <time>2016-05-15T09:20:40.000Z</time>
      </trkpt>
      <trkpt lat="47.41932" lon="6.69949">
        <ele>374</ele>
        <time>2016-05-15T09:20:41.000Z</time>
      </trkpt>
      <trkpt lat="47.41936" lon="6.69948">
        <ele>375</ele>
        <time>2016-05-15T09:20:42.000Z</time>
      </trkpt>
      <trkpt lat="47.4194" lon="6.69947">
        <ele>375</ele>
        <time>2016-05-15T09:20:43.000Z</time>
      </trkpt>
      <trkpt lat="47.41944" lon="6.69947">
        <ele>375</ele>
        <time>2016-05-15T09:20:44.000Z</time>
      </trkpt>
      <trkpt lat="47.41947" lon="6.69946">
        <ele>375</ele>
        <time>2016-05-15T09:20:45.000Z</time>
      </trkpt>
      <trkpt lat="47.4195" lon="6.69946">
        <ele>375</ele>
        <time>2016-05-15T09:20:46.000Z</time>
      </trkpt>
      <trkpt lat="47.41953" lon="6.69946">
        <ele>375</ele>
        <time>2016-05-15T09:20:47.000Z</time>
      </trkpt>
      <trkpt lat="47.41955" lon="6.69946">
        <ele>376</ele>
        <time>2016-05-15T09:20:48.000Z</time>
      </trkpt>
      <trkpt lat="47.41958" lon="6.69946">
        <ele>376</ele>
        <time>2016-05-15T09:20:49.000Z</time>
      </trkpt>
      <trkpt lat="47.41961" lon="6.69946">
        <ele>376</ele>
        <time>2016-05-15T09:20:50.000Z</time>
      </trkpt>
      <trkpt lat="47.41965" lon="6.69944">
        <ele>376</ele>
        <time>2016-05-15T09:20:51.000Z</time>
      </trkpt>
      <trkpt lat="47.41969" lon="6.69943">
        <ele>376</ele>
        <time>2016-05-15T09:20:52.000Z</time>
      </trkpt>
      <trkpt lat="47.41974" lon="6.69941">
        <ele>376</ele>
        <time>2016-05-15T09:20:53.000Z</time>
      </trkpt>
      <trkpt lat="47.41978" lon="6.6994">
        <ele>376</ele>
        <time>2016-05-15T09:20:54.000Z</time>
      </trkpt>
      <trkpt lat="47.41983" lon="6.69938">
        <ele>375</ele>
        <time>2016-05-15T09:20:55.000Z</time>
      </trkpt>
      <trkpt lat="47.41987" lon="6.69936">
        <ele>375</ele>
        <time>2016-05-15T09:20:56.000Z</time>
      </trkpt>
      <trkpt lat="47.41991" lon="6.69935">
        <ele>375</ele>
        <time>2016-05-15T09:20:57.000Z</time>
      </trkpt>
      <trkpt lat="47.41995" lon="6.69934">
        <ele>374</ele>
        <time>2016-05-15T09:20:58.000Z</time>
      </trkpt>
      <trkpt lat="47.41998" lon="6.69932">
        <ele>374</ele>
        <time>2016-05-15T09:20:59.000Z</time>
      </trkpt>
      <trkpt lat="47.42003" lon="6.69931">
        <ele>375</ele>
        <time>2016-05-15T09:21:00.000Z</time>
      </trkpt>
      <trkpt lat="47.42007" lon="6.6993">
        <ele>375</ele>
        <time>2016-05-15T09:21:01.000Z</time>
      </trkpt>
      <trkpt lat="47.42011" lon="6.69929">
        <ele>375</ele>
        <time>2016-05-15T09:21:02.000Z</time>
      </trkpt>
      <trkpt lat="47.42016" lon="6.69928">
        <ele>375</ele>
        <time>2016-05-15T09:21:03.000Z</time>
      </trkpt>
      <trkpt lat="47.4202" lon="6.69928">
        <ele>376</ele>
        <time>2016-05-15T09:21:04.000Z</time>
      </trkpt>
      <trkpt lat="47.42025" lon="6.69928">
        <ele>376</ele>
        <time>2016-05-15T09:21:05.000Z</time>
      </trkpt>
      <trkpt lat="47.42028" lon="6.69929">
        <ele>376</ele>
        <time>2016-05-15T09:21:06.000Z</time>
      </trkpt>
      <trkpt lat="47.42033" lon="6.69929">
        <ele>376</ele>
        <time>2016-05-15T09:21:07.000Z</time>
      </trkpt>
      <trkpt lat="47.42037" lon="6.6993">
        <ele>376</ele>
        <time>2016-05-15T09:21:08.000Z</time>
      </trkpt>
      <trkpt lat="47.4204" lon="6.69931">
        <ele>376</ele>
        <time>2016-05-15T09:21:09.000Z</time>
      </trkpt>
      <trkpt lat="47.42044" lon="6.69932">
        <ele>376</ele>
        <time>2016-05-15T09:21:10.000Z</time>
      </trkpt>
      <trkpt lat="47.42048" lon="6.69933">
        <ele>376</ele>
        <time>2016-05-15T09:21:11.000Z</time>
      </trkpt>
      <trkpt lat="47.42056" lon="6.69933">
        <ele>376</ele>
        <time>2016-05-15T09:21:12.000Z</time>
      </trkpt>
      <trkpt lat="47.42061" lon="6.69932">
        <ele>376</ele>
        <time>2016-05-15T09:21:13.000Z</time>
      </trkpt>
      <trkpt lat="47.42066" lon="6.69932">
        <ele>375</ele>
        <time>2016-05-15T09:21:14.000Z</time>
      </trkpt>
      <trkpt lat="47.42072" lon="6.69931">
        <ele>374</ele>
        <time>2016-05-15T09:21:15.000Z</time>
      </trkpt>
      <trkpt lat="47.42078" lon="6.69931">
        <ele>374</ele>
        <time>2016-05-15T09:21:16.000Z</time>
      </trkpt>
      <trkpt lat="47.42083" lon="6.69932">
        <ele>374</ele>
        <time>2016-05-15T09:21:17.000Z</time>
      </trkpt>
      <trkpt lat="47.42087" lon="6.69936">
        <ele>371</ele>
        <time>2016-05-15T09:21:18.000Z</time>
      </trkpt>
      <trkpt lat="47.42091" lon="6.69941">
        <ele>371</ele>
        <time>2016-05-15T09:21:19.000Z</time>
      </trkpt>
      <trkpt lat="47.42099" lon="6.69931">
        <ele>371</ele>
        <time>2016-05-15T09:21:20.000Z</time>
      </trkpt>
      <trkpt lat="47.42106" lon="6.69926">
        <ele>370</ele>
        <time>2016-05-15T09:21:21.000Z</time>
      </trkpt>
      <trkpt lat="47.42113" lon="6.69921">
        <ele>370</ele>
        <time>2016-05-15T09:21:22.000Z</time>
      </trkpt>
      <trkpt lat="47.42119" lon="6.69918">
        <ele>370</ele>
        <time>2016-05-15T09:21:23.000Z</time>
      </trkpt>
      <trkpt lat="47.42127" lon="6.69912">
        <ele>365</ele>
        <time>2016-05-15T09:21:24.000Z</time>
      </trkpt>
      <trkpt lat="47.42135" lon="6.69906">
        <ele>365</ele>
        <time>2016-05-15T09:21:25.000Z</time>
      </trkpt>
      <trkpt lat="47.42144" lon="6.69901">
        <ele>364</ele>
        <time>2016-05-15T09:21:26.000Z</time>
      </trkpt>
      <trkpt lat="47.42153" lon="6.69893">
        <ele>364</ele>
        <time>2016-05-15T09:21:27.000Z</time>
      </trkpt>
      <trkpt lat="47.4216" lon="6.69886">
        <ele>364</ele>
        <time>2016-05-15T09:21:28.000Z</time>
      </trkpt>
      <trkpt lat="47.42167" lon="6.69878">
        <ele>364</ele>
        <time>2016-05-15T09:21:29.000Z</time>
      </trkpt>
      <trkpt lat="47.42173" lon="6.6987">
        <ele>364</ele>
        <time>2016-05-15T09:21:30.000Z</time>
      </trkpt>
      <trkpt lat="47.42179" lon="6.69865">
        <ele>364</ele>
        <time>2016-05-15T09:21:31.000Z</time>
      </trkpt>
      <trkpt lat="47.42185" lon="6.69862">
        <ele>364</ele>
        <time>2016-05-15T09:21:32.000Z</time>
      </trkpt>
      <trkpt lat="47.4219" lon="6.69861">
        <ele>364</ele>
        <time>2016-05-15T09:21:33.000Z</time>
      </trkpt>
      <trkpt lat="47.42194" lon="6.69857">
        <ele>364</ele>
        <time>2016-05-15T09:21:34.000Z</time>
      </trkpt>
      <trkpt lat="47.42197" lon="6.69855">
        <ele>364</ele>
        <time>2016-05-15T09:21:35.000Z</time>
      </trkpt>
      <trkpt lat="47.42201" lon="6.69853">
        <ele>364</ele>
        <time>2016-05-15T09:21:36.000Z</time>
      </trkpt>
      <trkpt lat="47.42205" lon="6.6985">
        <ele>364</ele>
        <time>2016-05-15T09:21:37.000Z</time>
      </trkpt>
      <trkpt lat="47.42208" lon="6.69849">
        <ele>364</ele>
        <time>2016-05-15T09:21:38.000Z</time>
      </trkpt>
      <trkpt lat="47.42211" lon="6.69848">
        <ele>364</ele>
        <time>2016-05-15T09:21:39.000Z</time>
      </trkpt>
      <trkpt lat="47.42214" lon="6.69846">
        <ele>365</ele>
        <time>2016-05-15T09:21:40.000Z</time>
      </trkpt>
      <trkpt lat="47.42217" lon="6.69845">
        <ele>365</ele>
        <time>2016-05-15T09:21:41.000Z</time>
      </trkpt>
      <trkpt lat="47.4222" lon="6.69844">
        <ele>365</ele>
        <time>2016-05-15T09:21:42.000Z</time>
      </trkpt>
      <trkpt lat="47.42222" lon="6.69846">
        <ele>365</ele>
        <time>2016-05-15T09:21:43.000Z</time>
      </trkpt>
      <trkpt lat="47.42224" lon="6.69848">
        <ele>365</ele>
        <time>2016-05-15T09:21:44.000Z</time>
      </trkpt>
      <trkpt lat="47.42226" lon="6.6985">
        <ele>365</ele>
        <time>2016-05-15T09:21:45.000Z</time>
      </trkpt>
      <trkpt lat="47.42227" lon="6.69853">
        <ele>365</ele>
        <time>2016-05-15T09:21:46.000Z</time>
      </trkpt>
      <trkpt lat="47.42229" lon="6.69856">
        <ele>365</ele>
        <time>2016-05-15T09:21:47.000Z</time>
      </trkpt>
      <trkpt lat="47.42231" lon="6.6986">
        <ele>365</ele>
        <time>2016-05-15T09:21:48.000Z</time>
      </trkpt>
      <trkpt lat="47.42232" lon="6.69863">
        <ele>365</ele>
        <time>2016-05-15T09:21:49.000Z</time>
      </trkpt>
      <trkpt lat="47.42234" lon="6.69867">
        <ele>365</ele>
        <time>2016-05-15T09:21:50.000Z</time>
      </trkpt>
      <trkpt lat="47.42235" lon="6.6987">
        <ele>365</ele>
        <time>2016-05-15T09:21:51.000Z</time>
      </trkpt>
      <trkpt lat="47.42237" lon="6.69874">
        <ele>365</ele>
        <time>2016-05-15T09:21:52.000Z</time>
      </trkpt>
      <trkpt lat="47.42239" lon="6.69876">
        <ele>365</ele>
        <time>2016-05-15T09:21:53.000Z</time>
      </trkpt>
      <trkpt lat="47.42241" lon="6.69877">
        <ele>366</ele>
        <time>2016-05-15T09:21:54.000Z</time>
      </trkpt>
      <trkpt lat="47.42244" lon="6.69878">
        <ele>366</ele>
        <time>2016-05-15T09:21:55.000Z</time>
      </trkpt>
      <trkpt lat="47.42248" lon="6.69877">
        <ele>366</ele>
        <time>2016-05-15T09:21:56.000Z</time>
      </trkpt>
      <trkpt lat="47.42251" lon="6.69876">
        <ele>369</ele>
        <time>2016-05-15T09:21:57.000Z</time>
      </trkpt>
      <trkpt lat="47.42255" lon="6.69874">
        <ele>369</ele>
        <time>2016-05-15T09:21:58.000Z</time>
      </trkpt>
      <trkpt lat="47.42259" lon="6.69872">
        <ele>369</ele>
        <time>2016-05-15T09:21:59.000Z</time>
      </trkpt>
      <trkpt lat="47.42263" lon="6.69872">
        <ele>369</ele>
        <time>2016-05-15T09:22:00.000Z</time>
      </trkpt>
      <trkpt lat="47.4227" lon="6.69869">
        <ele>369</ele>
        <time>2016-05-15T09:22:01.000Z</time>
      </trkpt>
      <trkpt lat="47.42274" lon="6.69869">
        <ele>370</ele>
        <time>2016-05-15T09:22:02.000Z</time>
      </trkpt>
      <trkpt lat="47.42277" lon="6.69871">
        <ele>370</ele>
        <time>2016-05-15T09:22:03.000Z</time>
      </trkpt>
      <trkpt lat="47.42281" lon="6.69873">
        <ele>370</ele>
        <time>2016-05-15T09:22:04.000Z</time>
      </trkpt>
      <trkpt lat="47.42284" lon="6.69875">
        <ele>370</ele>
        <time>2016-05-15T09:22:05.000Z</time>
      </trkpt>
      <trkpt lat="47.42287" lon="6.69877">
        <ele>370</ele>
        <time>2016-05-15T09:22:06.000Z</time>
      </trkpt>
      <trkpt lat="47.42291" lon="6.69878">
        <ele>370</ele>
        <time>2016-05-15T09:22:07.000Z</time>
      </trkpt>
      <trkpt lat="47.42295" lon="6.69879">
        <ele>370</ele>
        <time>2016-05-15T09:22:08.000Z</time>
      </trkpt>
      <trkpt lat="47.42298" lon="6.6988">
        <ele>371</ele>
        <time>2016-05-15T09:22:09.000Z</time>
      </trkpt>
      <trkpt lat="47.42303" lon="6.69881">
        <ele>371</ele>
        <time>2016-05-15T09:22:10.000Z</time>
      </trkpt>
      <trkpt lat="47.42306" lon="6.69882">
        <ele>371</ele>
        <time>2016-05-15T09:22:11.000Z</time>
      </trkpt>
      <trkpt lat="47.4231" lon="6.69883">
        <ele>371</ele>
        <time>2016-05-15T09:22:12.000Z</time>
      </trkpt>
      <trkpt lat="47.42314" lon="6.69883">
        <ele>371</ele>
        <time>2016-05-15T09:22:13.000Z</time>
      </trkpt>
      <trkpt lat="47.42317" lon="6.69884">
        <ele>371</ele>
        <time>2016-05-15T09:22:14.000Z</time>
      </trkpt>
      <trkpt lat="47.42321" lon="6.69884">
        <ele>371</ele>
        <time>2016-05-15T09:22:15.000Z</time>
      </trkpt>
      <trkpt lat="47.42324" lon="6.69884">
        <ele>371</ele>
        <time>2016-05-15T09:22:16.000Z</time>
      </trkpt>
      <trkpt lat="47.42328" lon="6.69883">
        <ele>371</ele>
        <time>2016-05-15T09:22:17.000Z</time>
      </trkpt>
      <trkpt lat="47.42331" lon="6.69882">
        <ele>371</ele>
        <time>2016-05-15T09:22:18.000Z</time>
      </trkpt>
      <trkpt lat="47.42334" lon="6.6988">
        <ele>381</ele>
        <time>2016-05-15T09:22:19.000Z</time>
      </trkpt>
      <trkpt lat="47.42337" lon="6.69876">
        <ele>381</ele>
        <time>2016-05-15T09:22:20.000Z</time>
      </trkpt>
      <trkpt lat="47.42339" lon="6.69872">
        <ele>381</ele>
        <time>2016-05-15T09:22:21.000Z</time>
      </trkpt>
      <trkpt lat="47.4234" lon="6.69868">
        <ele>381</ele>
        <time>2016-05-15T09:22:22.000Z</time>
      </trkpt>
      <trkpt lat="47.42341" lon="6.69864">
        <ele>381</ele>
        <time>2016-05-15T09:22:23.000Z</time>
      </trkpt>
      <trkpt lat="47.42341" lon="6.6986">
        <ele>381</ele>
        <time>2016-05-15T09:22:24.000Z</time>
      </trkpt>
      <trkpt lat="47.42341" lon="6.69856">
        <ele>380</ele>
        <time>2016-05-15T09:22:25.000Z</time>
      </trkpt>
      <trkpt lat="47.42341" lon="6.69852">
        <ele>380</ele>
        <time>2016-05-15T09:22:26.000Z</time>
      </trkpt>
      <trkpt lat="47.42341" lon="6.69848">
        <ele>379</ele>
        <time>2016-05-15T09:22:27.000Z</time>
      </trkpt>
      <trkpt lat="47.42341" lon="6.69844">
        <ele>379</ele>
        <time>2016-05-15T09:22:28.000Z</time>
      </trkpt>
      <trkpt lat="47.42341" lon="6.6984">
        <ele>378</ele>
        <time>2016-05-15T09:22:29.000Z</time>
      </trkpt>
      <trkpt lat="47.4234" lon="6.69836">
        <ele>377</ele>
        <time>2016-05-15T09:22:30.000Z</time>
      </trkpt>
      <trkpt lat="47.4234" lon="6.69832">
        <ele>376</ele>
        <time>2016-05-15T09:22:31.000Z</time>
      </trkpt>
      <trkpt lat="47.42339" lon="6.69827">
        <ele>377</ele>
        <time>2016-05-15T09:22:32.000Z</time>
      </trkpt>
      <trkpt lat="47.42339" lon="6.69823">
        <ele>378</ele>
        <time>2016-05-15T09:22:33.000Z</time>
      </trkpt>
      <trkpt lat="47.42339" lon="6.6982">
        <ele>378</ele>
        <time>2016-05-15T09:22:34.000Z</time>
      </trkpt>
      <trkpt lat="47.42338" lon="6.69816">
        <ele>379</ele>
        <time>2016-05-15T09:22:35.000Z</time>
      </trkpt>
      <trkpt lat="47.42338" lon="6.69812">
        <ele>379</ele>
        <time>2016-05-15T09:22:36.000Z</time>
      </trkpt>
      <trkpt lat="47.42337" lon="6.69808">
        <ele>380</ele>
        <time>2016-05-15T09:22:37.000Z</time>
      </trkpt>
      <trkpt lat="47.42337" lon="6.69805">
        <ele>380</ele>
        <time>2016-05-15T09:22:38.000Z</time>
      </trkpt>
      <trkpt lat="47.42338" lon="6.69801">
        <ele>380</ele>
        <time>2016-05-15T09:22:39.000Z</time>
      </trkpt>
      <trkpt lat="47.42338" lon="6.69797">
        <ele>380</ele>
        <time>2016-05-15T09:22:40.000Z</time>
      </trkpt>
      <trkpt lat="47.42339" lon="6.69792">
        <ele>380</ele>
        <time>2016-05-15T09:22:41.000Z</time>
      </trkpt>
      <trkpt lat="47.4234" lon="6.69788">
        <ele>380</ele>
        <time>2016-05-15T09:22:42.000Z</time>
      </trkpt>
      <trkpt lat="47.4234" lon="6.69784">
        <ele>380</ele>
        <time>2016-05-15T09:22:43.000Z</time>
      </trkpt>
      <trkpt lat="47.4234" lon="6.6978">
        <ele>380</ele>
        <time>2016-05-15T09:22:44.000Z</time>
      </trkpt>
      <trkpt lat="47.4234" lon="6.69776">
        <ele>379</ele>
        <time>2016-05-15T09:22:45.000Z</time>
      </trkpt>
      <trkpt lat="47.4234" lon="6.69772">
        <ele>379</ele>
        <time>2016-05-15T09:22:46.000Z</time>
      </trkpt>
      <trkpt lat="47.4234" lon="6.69768">
        <ele>378</ele>
        <time>2016-05-15T09:22:47.000Z</time>
      </trkpt>
      <trkpt lat="47.42339" lon="6.69763">
        <ele>377</ele>
        <time>2016-05-15T09:22:48.000Z</time>
      </trkpt>
      <trkpt lat="47.42339" lon="6.69758">
        <ele>376</ele>
        <time>2016-05-15T09:22:49.000Z</time>
      </trkpt>
      <trkpt lat="47.42339" lon="6.69754">
        <ele>375</ele>
        <time>2016-05-15T09:22:50.000Z</time>
      </trkpt>
      <trkpt lat="47.42338" lon="6.6975">
        <ele>374</ele>
        <time>2016-05-15T09:22:51.000Z</time>
      </trkpt>
      <trkpt lat="47.42339" lon="6.69746">
        <ele>374</ele>
        <time>2016-05-15T09:22:52.000Z</time>
      </trkpt>
      <trkpt lat="47.42339" lon="6.69742">
        <ele>375</ele>
        <time>2016-05-15T09:22:53.000Z</time>
      </trkpt>
      <trkpt lat="47.4234" lon="6.69738">
        <ele>375</ele>
        <time>2016-05-15T09:22:54.000Z</time>
      </trkpt>
      <trkpt lat="47.4234" lon="6.69734">
        <ele>376</ele>
        <time>2016-05-15T09:22:55.000Z</time>
      </trkpt>
      <trkpt lat="47.42341" lon="6.6973">
        <ele>376</ele>
        <time>2016-05-15T09:22:56.000Z</time>
      </trkpt>
      <trkpt lat="47.42341" lon="6.69726">
        <ele>376</ele>
        <time>2016-05-15T09:22:57.000Z</time>
      </trkpt>
      <trkpt lat="47.42342" lon="6.69722">
        <ele>376</ele>
        <time>2016-05-15T09:22:58.000Z</time>
      </trkpt>
      <trkpt lat="47.42342" lon="6.69719">
        <ele>376</ele>
        <time>2016-05-15T09:22:59.000Z</time>
      </trkpt>
      <trkpt lat="47.42343" lon="6.69715">
        <ele>376</ele>
        <time>2016-05-15T09:23:00.000Z</time>
      </trkpt>
      <trkpt lat="47.42344" lon="6.69711">
        <ele>376</ele>
        <time>2016-05-15T09:23:01.000Z</time>
      </trkpt>
      <trkpt lat="47.42345" lon="6.69707">
        <ele>376</ele>
        <time>2016-05-15T09:23:02.000Z</time>
      </trkpt>
      <trkpt lat="47.42346" lon="6.69702">
        <ele>376</ele>
        <time>2016-05-15T09:23:03.000Z</time>
      </trkpt>
      <trkpt lat="47.42347" lon="6.69698">
        <ele>376</ele>
        <time>2016-05-15T09:23:04.000Z</time>
      </trkpt>
      <trkpt lat="47.42348" lon="6.69694">
        <ele>375</ele>
        <time>2016-05-15T09:23:05.000Z</time>
      </trkpt>
      <trkpt lat="47.42349" lon="6.6969">
        <ele>375</ele>
        <time>2016-05-15T09:23:06.000Z</time>
      </trkpt>
      <trkpt lat="47.42351" lon="6.69686">
        <ele>375</ele>
        <time>2016-05-15T09:23:07.000Z</time>
      </trkpt>
      <trkpt lat="47.42352" lon="6.69682">
        <ele>375</ele>
        <time>2016-05-15T09:23:08.000Z</time>
      </trkpt>
      <trkpt lat="47.42354" lon="6.69678">
        <ele>375</ele>
        <time>2016-05-15T09:23:09.000Z</time>
      </trkpt>
      <trkpt lat="47.42355" lon="6.69673">
        <ele>375</ele>
        <time>2016-05-15T09:23:10.000Z</time>
      </trkpt>
      <trkpt lat="47.42357" lon="6.69669">
        <ele>375</ele>
        <time>2016-05-15T09:23:11.000Z</time>
      </trkpt>
      <trkpt lat="47.42359" lon="6.69661">
        <ele>371</ele>
        <time>2016-05-15T09:23:12.000Z</time>
      </trkpt>
      <trkpt lat="47.42362" lon="6.69659">
        <ele>372</ele>
        <time>2016-05-15T09:23:13.000Z</time>
      </trkpt>
      <trkpt lat="47.42364" lon="6.69656">
        <ele>372</ele>
        <time>2016-05-15T09:23:14.000Z</time>
      </trkpt>
      <trkpt lat="47.42367" lon="6.69656">
        <ele>372</ele>
        <time>2016-05-15T09:23:16.000Z</time>
      </trkpt>
      <trkpt lat="47.42369" lon="6.69653">
        <ele>373</ele>
        <time>2016-05-15T09:23:17.000Z</time>
      </trkpt>
      <trkpt lat="47.42372" lon="6.69651">
        <ele>373</ele>
        <time>2016-05-15T09:23:18.000Z</time>
      </trkpt>
      <trkpt lat="47.42374" lon="6.69649">
        <ele>373</ele>
        <time>2016-05-15T09:23:19.000Z</time>
      </trkpt>
      <trkpt lat="47.42376" lon="6.69647">
        <ele>373</ele>
        <time>2016-05-15T09:23:20.000Z</time>
      </trkpt>
      <trkpt lat="47.42378" lon="6.69646">
        <ele>374</ele>
        <time>2016-05-15T09:23:21.000Z</time>
      </trkpt>
      <trkpt lat="47.4238" lon="6.69643">
        <ele>374</ele>
        <time>2016-05-15T09:23:22.000Z</time>
      </trkpt>
      <trkpt lat="47.42382" lon="6.6964">
        <ele>374</ele>
        <time>2016-05-15T09:23:23.000Z</time>
      </trkpt>
      <trkpt lat="47.42385" lon="6.69638">
        <ele>374</ele>
        <time>2016-05-15T09:23:24.000Z</time>
      </trkpt>
      <trkpt lat="47.42387" lon="6.69636">
        <ele>374</ele>
        <time>2016-05-15T09:23:25.000Z</time>
      </trkpt>
      <trkpt lat="47.42391" lon="6.69634">
        <ele>375</ele>
        <time>2016-05-15T09:23:27.000Z</time>
      </trkpt>
      <trkpt lat="47.42392" lon="6.69633">
        <ele>375</ele>
        <time>2016-05-15T09:23:28.000Z</time>
      </trkpt>
      <trkpt lat="47.42396" lon="6.69632">
        <ele>375</ele>
        <time>2016-05-15T09:23:30.000Z</time>
      </trkpt>
      <trkpt lat="47.42398" lon="6.6963">
        <ele>375</ele>
        <time>2016-05-15T09:23:31.000Z</time>
      </trkpt>
      <trkpt lat="47.424" lon="6.69628">
        <ele>375</ele>
        <time>2016-05-15T09:23:32.000Z</time>
      </trkpt>
      <trkpt lat="47.42402" lon="6.69625">
        <ele>375</ele>
        <time>2016-05-15T09:23:33.000Z</time>
      </trkpt>
      <trkpt lat="47.42404" lon="6.69623">
        <ele>375</ele>
        <time>2016-05-15T09:23:34.000Z</time>
      </trkpt>
      <trkpt lat="47.42406" lon="6.69621">
        <ele>375</ele>
        <time>2016-05-15T09:23:35.000Z</time>
      </trkpt>
      <trkpt lat="47.42408" lon="6.69619">
        <ele>375</ele>
        <time>2016-05-15T09:23:36.000Z</time>
      </trkpt>
      <trkpt lat="47.4241" lon="6.69617">
        <ele>375</ele>
        <time>2016-05-15T09:23:37.000Z</time>
      </trkpt>
      <trkpt lat="47.42412" lon="6.69614">
        <ele>376</ele>
        <time>2016-05-15T09:23:38.000Z</time>
      </trkpt>
      <trkpt lat="47.42414" lon="6.69612">
        <ele>376</ele>
        <time>2016-05-15T09:23:39.000Z</time>
      </trkpt>
      <trkpt lat="47.42416" lon="6.69609">
        <ele>376</ele>
        <time>2016-05-15T09:23:40.000Z</time>
      </trkpt>
      <trkpt lat="47.42418" lon="6.69607">
        <ele>385</ele>
        <time>2016-05-15T09:23:41.000Z</time>
      </trkpt>
      <trkpt lat="47.4242" lon="6.69604">
        <ele>384</ele>
        <time>2016-05-15T09:23:42.000Z</time>
      </trkpt>
      <trkpt lat="47.42422" lon="6.69601">
        <ele>384</ele>
        <time>2016-05-15T09:23:43.000Z</time>
      </trkpt>
      <trkpt lat="47.42424" lon="6.69598">
        <ele>384</ele>
        <time>2016-05-15T09:23:44.000Z</time>
      </trkpt>
      <trkpt lat="47.42426" lon="6.69595">
        <ele>383</ele>
        <time>2016-05-15T09:23:45.000Z</time>
      </trkpt>
      <trkpt lat="47.42428" lon="6.69592">
        <ele>383</ele>
        <time>2016-05-15T09:23:46.000Z</time>
      </trkpt>
      <trkpt lat="47.4243" lon="6.69588">
        <ele>383</ele>
        <time>2016-05-15T09:23:47.000Z</time>
      </trkpt>
      <trkpt lat="47.42432" lon="6.69585">
        <ele>384</ele>
        <time>2016-05-15T09:23:48.000Z</time>
      </trkpt>
      <trkpt lat="47.42434" lon="6.69583">
        <ele>381</ele>
        <time>2016-05-15T09:23:49.000Z</time>
      </trkpt>
      <trkpt lat="47.42435" lon="6.69579">
        <ele>381</ele>
        <time>2016-05-15T09:23:50.000Z</time>
      </trkpt>
      <trkpt lat="47.42437" lon="6.69577">
        <ele>381</ele>
        <time>2016-05-15T09:23:51.000Z</time>
      </trkpt>
      <trkpt lat="47.42439" lon="6.69575">
        <ele>381</ele>
        <time>2016-05-15T09:23:52.000Z</time>
      </trkpt>
      <trkpt lat="47.42442" lon="6.69573">
        <ele>381</ele>
        <time>2016-05-15T09:23:53.000Z</time>
      </trkpt>
      <trkpt lat="47.42445" lon="6.6957">
        <ele>382</ele>
        <time>2016-05-15T09:23:55.000Z</time>
      </trkpt>
      <trkpt lat="47.42447" lon="6.69569">
        <ele>382</ele>
        <time>2016-05-15T09:23:56.000Z</time>
      </trkpt>
      <trkpt lat="47.42451" lon="6.69569">
        <ele>382</ele>
        <time>2016-05-15T09:24:00.000Z</time>
      </trkpt>
      <trkpt lat="47.42452" lon="6.6957">
        <ele>382</ele>
        <time>2016-05-15T09:24:01.000Z</time>
      </trkpt>
      <trkpt lat="47.42455" lon="6.69574">
        <ele>383</ele>
        <time>2016-05-15T09:24:04.000Z</time>
      </trkpt>
      <trkpt lat="47.42456" lon="6.69577">
        <ele>383</ele>
        <time>2016-05-15T09:24:05.000Z</time>
      </trkpt>
      <trkpt lat="47.42456" lon="6.6958">
        <ele>383</ele>
        <time>2016-05-15T09:24:06.000Z</time>
      </trkpt>
      <trkpt lat="47.42457" lon="6.69583">
        <ele>383</ele>
        <time>2016-05-15T09:24:07.000Z</time>
      </trkpt>
      <trkpt lat="47.42457" lon="6.69587">
        <ele>388</ele>
        <time>2016-05-15T09:24:08.000Z</time>
      </trkpt>
      <trkpt lat="47.42458" lon="6.6959">
        <ele>388</ele>
        <time>2016-05-15T09:24:09.000Z</time>
      </trkpt>
      <trkpt lat="47.42456" lon="6.69595">
        <ele>388</ele>
        <time>2016-05-15T09:24:11.000Z</time>
      </trkpt>
      <trkpt lat="47.42454" lon="6.69598">
        <ele>388</ele>
        <time>2016-05-15T09:24:12.000Z</time>
      </trkpt>
      <trkpt lat="47.42452" lon="6.696">
        <ele>387</ele>
        <time>2016-05-15T09:24:13.000Z</time>
      </trkpt>
      <trkpt lat="47.4245" lon="6.69602">
        <ele>387</ele>
        <time>2016-05-15T09:24:14.000Z</time>
      </trkpt>
      <trkpt lat="47.42448" lon="6.69604">
        <ele>387</ele>
        <time>2016-05-15T09:24:15.000Z</time>
      </trkpt>
      <trkpt lat="47.42447" lon="6.69607">
        <ele>387</ele>
        <time>2016-05-15T09:24:16.000Z</time>
      </trkpt>
      <trkpt lat="47.42445" lon="6.69609">
        <ele>387</ele>
        <time>2016-05-15T09:24:17.000Z</time>
      </trkpt>
      <trkpt lat="47.42443" lon="6.69612">
        <ele>387</ele>
        <time>2016-05-15T09:24:18.000Z</time>
      </trkpt>
      <trkpt lat="47.42441" lon="6.69614">
        <ele>387</ele>
        <time>2016-05-15T09:24:19.000Z</time>
      </trkpt>
      <trkpt lat="47.42439" lon="6.69617">
        <ele>387</ele>
        <time>2016-05-15T09:24:20.000Z</time>
      </trkpt>
      <trkpt lat="47.42437" lon="6.69619">
        <ele>387</ele>
        <time>2016-05-15T09:24:21.000Z</time>
      </trkpt>
      <trkpt lat="47.42436" lon="6.69622">
        <ele>387</ele>
        <time>2016-05-15T09:24:22.000Z</time>
      </trkpt>
      <trkpt lat="47.42434" lon="6.69624">
        <ele>387</ele>
        <time>2016-05-15T09:24:23.000Z</time>
      </trkpt>
      <trkpt lat="47.42432" lon="6.69627">
        <ele>387</ele>
        <time>2016-05-15T09:24:24.000Z</time>
      </trkpt>
      <trkpt lat="47.42431" lon="6.6963">
        <ele>387</ele>
        <time>2016-05-15T09:24:25.000Z</time>
      </trkpt>
      <trkpt lat="47.4243" lon="6.69633">
        <ele>387</ele>
        <time>2016-05-15T09:24:26.000Z</time>
      </trkpt>
      <trkpt lat="47.42428" lon="6.69636">
        <ele>387</ele>
        <time>2016-05-15T09:24:27.000Z</time>
      </trkpt>
      <trkpt lat="47.42427" lon="6.69639">
        <ele>387</ele>
        <time>2016-05-15T09:24:28.000Z</time>
      </trkpt>
      <trkpt lat="47.42426" lon="6.69642">
        <ele>387</ele>
        <time>2016-05-15T09:24:29.000Z</time>
      </trkpt>
      <trkpt lat="47.42424" lon="6.69646">
        <ele>387</ele>
        <time>2016-05-15T09:24:30.000Z</time>
      </trkpt>
      <trkpt lat="47.42423" lon="6.69649">
        <ele>387</ele>
        <time>2016-05-15T09:24:31.000Z</time>
      </trkpt>
      <trkpt lat="47.42422" lon="6.69653">
        <ele>387</ele>
        <time>2016-05-15T09:24:32.000Z</time>
      </trkpt>
      <trkpt lat="47.4242" lon="6.69657">
        <ele>387</ele>
        <time>2016-05-15T09:24:33.000Z</time>
      </trkpt>
      <trkpt lat="47.42419" lon="6.69661">
        <ele>387</ele>
        <time>2016-05-15T09:24:34.000Z</time>
      </trkpt>
      <trkpt lat="47.42419" lon="6.69664">
        <ele>386</ele>
        <time>2016-05-15T09:24:35.000Z</time>
      </trkpt>
      <trkpt lat="47.42418" lon="6.69668">
        <ele>387</ele>
        <time>2016-05-15T09:24:36.000Z</time>
      </trkpt>
      <trkpt lat="47.42418" lon="6.69671">
        <ele>388</ele>
        <time>2016-05-15T09:24:37.000Z</time>
      </trkpt>
      <trkpt lat="47.42417" lon="6.69675">
        <ele>389</ele>
        <time>2016-05-15T09:24:38.000Z</time>
      </trkpt>
      <trkpt lat="47.42417" lon="6.69679">
        <ele>389</ele>
        <time>2016-05-15T09:24:39.000Z</time>
      </trkpt>
      <trkpt lat="47.42416" lon="6.69683">
        <ele>383</ele>
        <time>2016-05-15T09:24:40.000Z</time>
      </trkpt>
      <trkpt lat="47.42416" lon="6.69686">
        <ele>383</ele>
        <time>2016-05-15T09:24:41.000Z</time>
      </trkpt>
      <trkpt lat="47.42416" lon="6.6969">
        <ele>383</ele>
        <time>2016-05-15T09:24:42.000Z</time>
      </trkpt>
      <trkpt lat="47.42416" lon="6.69694">
        <ele>383</ele>
        <time>2016-05-15T09:24:43.000Z</time>
      </trkpt>
      <trkpt lat="47.42416" lon="6.69698">
        <ele>383</ele>
        <time>2016-05-15T09:24:44.000Z</time>
      </trkpt>
      <trkpt lat="47.42416" lon="6.69702">
        <ele>383</ele>
        <time>2016-05-15T09:24:45.000Z</time>
      </trkpt>
      <trkpt lat="47.42416" lon="6.69706">
        <ele>383</ele>
        <time>2016-05-15T09:24:46.000Z</time>
      </trkpt>
      <trkpt lat="47.42415" lon="6.6971">
        <ele>383</ele>
        <time>2016-05-15T09:24:47.000Z</time>
      </trkpt>
      <trkpt lat="47.42415" lon="6.69714">
        <ele>383</ele>
        <time>2016-05-15T09:24:48.000Z</time>
      </trkpt>
      <trkpt lat="47.42415" lon="6.69718">
        <ele>383</ele>
        <time>2016-05-15T09:24:49.000Z</time>
      </trkpt>
      <trkpt lat="47.42415" lon="6.69722">
        <ele>384</ele>
        <time>2016-05-15T09:24:50.000Z</time>
      </trkpt>
      <trkpt lat="47.42415" lon="6.69726">
        <ele>384</ele>
        <time>2016-05-15T09:24:51.000Z</time>
      </trkpt>
      <trkpt lat="47.42415" lon="6.6973">
        <ele>385</ele>
        <time>2016-05-15T09:24:52.000Z</time>
      </trkpt>
      <trkpt lat="47.42415" lon="6.69734">
        <ele>386</ele>
        <time>2016-05-15T09:24:53.000Z</time>
      </trkpt>
      <trkpt lat="47.42414" lon="6.69738">
        <ele>387</ele>
        <time>2016-05-15T09:24:54.000Z</time>
      </trkpt>
      <trkpt lat="47.42414" lon="6.69742">
        <ele>388</ele>
        <time>2016-05-15T09:24:55.000Z</time>
      </trkpt>
      <trkpt lat="47.42413" lon="6.69746">
        <ele>389</ele>
        <time>2016-05-15T09:24:56.000Z</time>
      </trkpt>
      <trkpt lat="47.42412" lon="6.6975">
        <ele>389</ele>
        <time>2016-05-15T09:24:57.000Z</time>
      </trkpt>
      <trkpt lat="47.42411" lon="6.69753">
        <ele>389</ele>
        <time>2016-05-15T09:24:58.000Z</time>
      </trkpt>
      <trkpt lat="47.4241" lon="6.69757">
        <ele>389</ele>
        <time>2016-05-15T09:24:59.000Z</time>
      </trkpt>
      <trkpt lat="47.4241" lon="6.69761">
        <ele>388</ele>
        <time>2016-05-15T09:25:00.000Z</time>
      </trkpt>
      <trkpt lat="47.42409" lon="6.69764">
        <ele>388</ele>
        <time>2016-05-15T09:25:01.000Z</time>
      </trkpt>
      <trkpt lat="47.42408" lon="6.69767">
        <ele>388</ele>
        <time>2016-05-15T09:25:02.000Z</time>
      </trkpt>
      <trkpt lat="47.42407" lon="6.6977">
        <ele>387</ele>
        <time>2016-05-15T09:25:03.000Z</time>
      </trkpt>
      <trkpt lat="47.42407" lon="6.69774">
        <ele>387</ele>
        <time>2016-05-15T09:25:04.000Z</time>
      </trkpt>
      <trkpt lat="47.42406" lon="6.69777">
        <ele>387</ele>
        <time>2016-05-15T09:25:05.000Z</time>
      </trkpt>
      <trkpt lat="47.42406" lon="6.69781">
        <ele>387</ele>
        <time>2016-05-15T09:25:06.000Z</time>
      </trkpt>
      <trkpt lat="47.42405" lon="6.69784">
        <ele>387</ele>
        <time>2016-05-15T09:25:07.000Z</time>
      </trkpt>
      <trkpt lat="47.42405" lon="6.69788">
        <ele>387</ele>
        <time>2016-05-15T09:25:08.000Z</time>
      </trkpt>
      <trkpt lat="47.42404" lon="6.69792">
        <ele>387</ele>
        <time>2016-05-15T09:25:09.000Z</time>
      </trkpt>
      <trkpt lat="47.42404" lon="6.69795">
        <ele>387</ele>
        <time>2016-05-15T09:25:10.000Z</time>
      </trkpt>
      <trkpt lat="47.42405" lon="6.69799">
        <ele>388</ele>
        <time>2016-05-15T09:25:11.000Z</time>
      </trkpt>
      <trkpt lat="47.42405" lon="6.69803">
        <ele>388</ele>
        <time>2016-05-15T09:25:12.000Z</time>
      </trkpt>
      <trkpt lat="47.42405" lon="6.69806">
        <ele>389</ele>
        <time>2016-05-15T09:25:13.000Z</time>
      </trkpt>
      <trkpt lat="47.42405" lon="6.6981">
        <ele>389</ele>
        <time>2016-05-15T09:25:14.000Z</time>
      </trkpt>
      <trkpt lat="47.42406" lon="6.69813">
        <ele>390</ele>
        <time>2016-05-15T09:25:15.000Z</time>
      </trkpt>
      <trkpt lat="47.42406" lon="6.69817">
        <ele>390</ele>
        <time>2016-05-15T09:25:16.000Z</time>
      </trkpt>
      <trkpt lat="47.42406" lon="6.69822">
        <ele>391</ele>
        <time>2016-05-15T09:25:17.000Z</time>
      </trkpt>
      <trkpt lat="47.42406" lon="6.69826">
        <ele>392</ele>
        <time>2016-05-15T09:25:18.000Z</time>
      </trkpt>
      <trkpt lat="47.42406" lon="6.69831">
        <ele>393</ele>
        <time>2016-05-15T09:25:19.000Z</time>
      </trkpt>
      <trkpt lat="47.42406" lon="6.69835">
        <ele>394</ele>
        <time>2016-05-15T09:25:20.000Z</time>
      </trkpt>
      <trkpt lat="47.42406" lon="6.69839">
        <ele>393</ele>
        <time>2016-05-15T09:25:21.000Z</time>
      </trkpt>
      <trkpt lat="47.42407" lon="6.69843">
        <ele>393</ele>
        <time>2016-05-15T09:25:22.000Z</time>
      </trkpt>
      <trkpt lat="47.42408" lon="6.69847">
        <ele>392</ele>
        <time>2016-05-15T09:25:23.000Z</time>
      </trkpt>
      <trkpt lat="47.42408" lon="6.6985">
        <ele>392</ele>
        <time>2016-05-15T09:25:24.000Z</time>
      </trkpt>
      <trkpt lat="47.42409" lon="6.69856">
        <ele>391</ele>
        <time>2016-05-15T09:25:26.000Z</time>
      </trkpt>
      <trkpt lat="47.42409" lon="6.69858">
        <ele>391</ele>
        <time>2016-05-15T09:25:27.000Z</time>
      </trkpt>
      <trkpt lat="47.42409" lon="6.69862">
        <ele>390</ele>
        <time>2016-05-15T09:25:29.000Z</time>
      </trkpt>
      <trkpt lat="47.42409" lon="6.69865">
        <ele>390</ele>
        <time>2016-05-15T09:25:30.000Z</time>
      </trkpt>
      <trkpt lat="47.42409" lon="6.6987">
        <ele>390</ele>
        <time>2016-05-15T09:25:32.000Z</time>
      </trkpt>
      <trkpt lat="47.42409" lon="6.69874">
        <ele>390</ele>
        <time>2016-05-15T09:25:33.000Z</time>
      </trkpt>
      <trkpt lat="47.42409" lon="6.69878">
        <ele>390</ele>
        <time>2016-05-15T09:25:34.000Z</time>
      </trkpt>
      <trkpt lat="47.4241" lon="6.69882">
        <ele>390</ele>
        <time>2016-05-15T09:25:35.000Z</time>
      </trkpt>
      <trkpt lat="47.4241" lon="6.69886">
        <ele>390</ele>
        <time>2016-05-15T09:25:36.000Z</time>
      </trkpt>
      <trkpt lat="47.42411" lon="6.69891">
        <ele>390</ele>
        <time>2016-05-15T09:25:37.000Z</time>
      </trkpt>
      <trkpt lat="47.42412" lon="6.69895">
        <ele>391</ele>
        <time>2016-05-15T09:25:38.000Z</time>
      </trkpt>
      <trkpt lat="47.42413" lon="6.69899">
        <ele>392</ele>
        <time>2016-05-15T09:25:39.000Z</time>
      </trkpt>
      <trkpt lat="47.42414" lon="6.69904">
        <ele>393</ele>
        <time>2016-05-15T09:25:40.000Z</time>
      </trkpt>
      <trkpt lat="47.42415" lon="6.69908">
        <ele>394</ele>
        <time>2016-05-15T09:25:41.000Z</time>
      </trkpt>
      <trkpt lat="47.42416" lon="6.69911">
        <ele>395</ele>
        <time>2016-05-15T09:25:42.000Z</time>
      </trkpt>
      <trkpt lat="47.42417" lon="6.69914">
        <ele>398</ele>
        <time>2016-05-15T09:25:43.000Z</time>
      </trkpt>
      <trkpt lat="47.42419" lon="6.69917">
        <ele>397</ele>
        <time>2016-05-15T09:25:44.000Z</time>
      </trkpt>
      <trkpt lat="47.4242" lon="6.6992">
        <ele>398</ele>
        <time>2016-05-15T09:25:45.000Z</time>
      </trkpt>
      <trkpt lat="47.42421" lon="6.69926">
        <ele>399</ele>
        <time>2016-05-15T09:25:47.000Z</time>
      </trkpt>
      <trkpt lat="47.4242" lon="6.69929">
        <ele>399</ele>
        <time>2016-05-15T09:25:48.000Z</time>
      </trkpt>
      <trkpt lat="47.4242" lon="6.69935">
        <ele>400</ele>
        <time>2016-05-15T09:25:50.000Z</time>
      </trkpt>
      <trkpt lat="47.42421" lon="6.69938">
        <ele>400</ele>
        <time>2016-05-15T09:25:51.000Z</time>
      </trkpt>
      <trkpt lat="47.42423" lon="6.69943">
        <ele>400</ele>
        <time>2016-05-15T09:25:53.000Z</time>
      </trkpt>
      <trkpt lat="47.42424" lon="6.69946">
        <ele>400</ele>
        <time>2016-05-15T09:25:54.000Z</time>
      </trkpt>
      <trkpt lat="47.42426" lon="6.69948">
        <ele>400</ele>
        <time>2016-05-15T09:25:55.000Z</time>
      </trkpt>
      <trkpt lat="47.42428" lon="6.6995">
        <ele>400</ele>
        <time>2016-05-15T09:25:56.000Z</time>
      </trkpt>
      <trkpt lat="47.4243" lon="6.69953">
        <ele>400</ele>
        <time>2016-05-15T09:25:57.000Z</time>
      </trkpt>
      <trkpt lat="47.42431" lon="6.69956">
        <ele>400</ele>
        <time>2016-05-15T09:25:58.000Z</time>
      </trkpt>
      <trkpt lat="47.42433" lon="6.6996">
        <ele>400</ele>
        <time>2016-05-15T09:26:00.000Z</time>
      </trkpt>
      <trkpt lat="47.42434" lon="6.69963">
        <ele>400</ele>
        <time>2016-05-15T09:26:01.000Z</time>
      </trkpt>
      <trkpt lat="47.42435" lon="6.69968">
        <ele>400</ele>
        <time>2016-05-15T09:26:03.000Z</time>
      </trkpt>
      <trkpt lat="47.42437" lon="6.6997">
        <ele>400</ele>
        <time>2016-05-15T09:26:04.000Z</time>
      </trkpt>
      <trkpt lat="47.42439" lon="6.69972">
        <ele>400</ele>
        <time>2016-05-15T09:26:05.000Z</time>
      </trkpt>
      <trkpt lat="47.42441" lon="6.69974">
        <ele>400</ele>
        <time>2016-05-15T09:26:06.000Z</time>
      </trkpt>
      <trkpt lat="47.42443" lon="6.69976">
        <ele>400</ele>
        <time>2016-05-15T09:26:07.000Z</time>
      </trkpt>
      <trkpt lat="47.42444" lon="6.69978">
        <ele>400</ele>
        <time>2016-05-15T09:26:08.000Z</time>
      </trkpt>
      <trkpt lat="47.42447" lon="6.69982">
        <ele>400</ele>
        <time>2016-05-15T09:26:10.000Z</time>
      </trkpt>
      <trkpt lat="47.42447" lon="6.69984">
        <ele>400</ele>
        <time>2016-05-15T09:26:11.000Z</time>
      </trkpt>
      <trkpt lat="47.42449" lon="6.69987">
        <ele>401</ele>
        <time>2016-05-15T09:26:13.000Z</time>
      </trkpt>
      <trkpt lat="47.42451" lon="6.69989">
        <ele>401</ele>
        <time>2016-05-15T09:26:14.000Z</time>
      </trkpt>
      <trkpt lat="47.42453" lon="6.69993">
        <ele>401</ele>
        <time>2016-05-15T09:26:16.000Z</time>
      </trkpt>
      <trkpt lat="47.42454" lon="6.69995">
        <ele>401</ele>
        <time>2016-05-15T09:26:17.000Z</time>
      </trkpt>
      <trkpt lat="47.42456" lon="6.69998">
        <ele>402</ele>
        <time>2016-05-15T09:26:18.000Z</time>
      </trkpt>
      <trkpt lat="47.42458" lon="6.7">
        <ele>402</ele>
        <time>2016-05-15T09:26:19.000Z</time>
      </trkpt>
      <trkpt lat="47.4246" lon="6.70002">
        <ele>399</ele>
        <time>2016-05-15T09:26:20.000Z</time>
      </trkpt>
      <trkpt lat="47.42463" lon="6.70003">
        <ele>399</ele>
        <time>2016-05-15T09:26:21.000Z</time>
      </trkpt>
      <trkpt lat="47.42466" lon="6.70005">
        <ele>400</ele>
        <time>2016-05-15T09:26:22.000Z</time>
      </trkpt>
      <trkpt lat="47.42469" lon="6.70006">
        <ele>400</ele>
        <time>2016-05-15T09:26:23.000Z</time>
      </trkpt>
      <trkpt lat="47.42471" lon="6.70007">
        <ele>401</ele>
        <time>2016-05-15T09:26:24.000Z</time>
      </trkpt>
      <trkpt lat="47.42473" lon="6.70008">
        <ele>401</ele>
        <time>2016-05-15T09:26:25.000Z</time>
      </trkpt>
      <trkpt lat="47.42477" lon="6.70012">
        <ele>402</ele>
        <time>2016-05-15T09:26:27.000Z</time>
      </trkpt>
      <trkpt lat="47.42478" lon="6.70014">
        <ele>402</ele>
        <time>2016-05-15T09:26:28.000Z</time>
      </trkpt>
      <trkpt lat="47.4248" lon="6.70015">
        <ele>402</ele>
        <time>2016-05-15T09:26:29.000Z</time>
      </trkpt>
      <trkpt lat="47.42482" lon="6.70017">
        <ele>402</ele>
        <time>2016-05-15T09:26:30.000Z</time>
      </trkpt>
      <trkpt lat="47.42485" lon="6.70018">
        <ele>402</ele>
        <time>2016-05-15T09:26:31.000Z</time>
      </trkpt>
      <trkpt lat="47.42487" lon="6.7002">
        <ele>402</ele>
        <time>2016-05-15T09:26:32.000Z</time>
      </trkpt>
      <trkpt lat="47.42489" lon="6.70025">
        <ele>402</ele>
        <time>2016-05-15T09:26:34.000Z</time>
      </trkpt>
      <trkpt lat="47.4249" lon="6.70027">
        <ele>402</ele>
        <time>2016-05-15T09:26:35.000Z</time>
      </trkpt>
      <trkpt lat="47.42492" lon="6.7003">
        <ele>401</ele>
        <time>2016-05-15T09:26:37.000Z</time>
      </trkpt>
      <trkpt lat="47.42494" lon="6.70031">
        <ele>401</ele>
        <time>2016-05-15T09:26:38.000Z</time>
      </trkpt>
      <trkpt lat="47.42497" lon="6.70033">
        <ele>401</ele>
        <time>2016-05-15T09:26:39.000Z</time>
      </trkpt>
      <trkpt lat="47.425" lon="6.70035">
        <ele>411</ele>
        <time>2016-05-15T09:26:40.000Z</time>
      </trkpt>
      <trkpt lat="47.42504" lon="6.70037">
        <ele>411</ele>
        <time>2016-05-15T09:26:41.000Z</time>
      </trkpt>
      <trkpt lat="47.42507" lon="6.70038">
        <ele>411</ele>
        <time>2016-05-15T09:26:42.000Z</time>
      </trkpt>
      <trkpt lat="47.42511" lon="6.7004">
        <ele>411</ele>
        <time>2016-05-15T09:26:43.000Z</time>
      </trkpt>
      <trkpt lat="47.42515" lon="6.70041">
        <ele>411</ele>
        <time>2016-05-15T09:26:44.000Z</time>
      </trkpt>
      <trkpt lat="47.42518" lon="6.70043">
        <ele>411</ele>
        <time>2016-05-15T09:26:45.000Z</time>
      </trkpt>
      <trkpt lat="47.42521" lon="6.70044">
        <ele>411</ele>
        <time>2016-05-15T09:26:46.000Z</time>
      </trkpt>
      <trkpt lat="47.42523" lon="6.70046">
        <ele>411</ele>
        <time>2016-05-15T09:26:47.000Z</time>
      </trkpt>
      <trkpt lat="47.42526" lon="6.70047">
        <ele>411</ele>
        <time>2016-05-15T09:26:48.000Z</time>
      </trkpt>
      <trkpt lat="47.42528" lon="6.70049">
        <ele>411</ele>
        <time>2016-05-15T09:26:49.000Z</time>
      </trkpt>
      <trkpt lat="47.4253" lon="6.7005">
        <ele>411</ele>
        <time>2016-05-15T09:26:50.000Z</time>
      </trkpt>
      <trkpt lat="47.42532" lon="6.70052">
        <ele>411</ele>
        <time>2016-05-15T09:26:51.000Z</time>
      </trkpt>
      <trkpt lat="47.42534" lon="6.70053">
        <ele>412</ele>
        <time>2016-05-15T09:26:52.000Z</time>
      </trkpt>
      <trkpt lat="47.42537" lon="6.70054">
        <ele>412</ele>
        <time>2016-05-15T09:26:54.000Z</time>
      </trkpt>
      <trkpt lat="47.42539" lon="6.70055">
        <ele>412</ele>
        <time>2016-05-15T09:26:55.000Z</time>
      </trkpt>
      <trkpt lat="47.42541" lon="6.70059">
        <ele>412</ele>
        <time>2016-05-15T09:26:58.000Z</time>
      </trkpt>
      <trkpt lat="47.42543" lon="6.70061">
        <ele>412</ele>
        <time>2016-05-15T09:26:59.000Z</time>
      </trkpt>
      <trkpt lat="47.42546" lon="6.70063">
        <ele>412</ele>
        <time>2016-05-15T09:27:01.000Z</time>
      </trkpt>
      <trkpt lat="47.42548" lon="6.70065">
        <ele>412</ele>
        <time>2016-05-15T09:27:02.000Z</time>
      </trkpt>
      <trkpt lat="47.4255" lon="6.70066">
        <ele>413</ele>
        <time>2016-05-15T09:27:03.000Z</time>
      </trkpt>
      <trkpt lat="47.42553" lon="6.70067">
        <ele>413</ele>
        <time>2016-05-15T09:27:04.000Z</time>
      </trkpt>
      <trkpt lat="47.42556" lon="6.7007">
        <ele>413</ele>
        <time>2016-05-15T09:27:06.000Z</time>
      </trkpt>
      <trkpt lat="47.42558" lon="6.70072">
        <ele>413</ele>
        <time>2016-05-15T09:27:07.000Z</time>
      </trkpt>
      <trkpt lat="47.42561" lon="6.70075">
        <ele>414</ele>
        <time>2016-05-15T09:27:09.000Z</time>
      </trkpt>
      <trkpt lat="47.42562" lon="6.70077">
        <ele>414</ele>
        <time>2016-05-15T09:27:10.000Z</time>
      </trkpt>
      <trkpt lat="47.42564" lon="6.70079">
        <ele>414</ele>
        <time>2016-05-15T09:27:11.000Z</time>
      </trkpt>
      <trkpt lat="47.42566" lon="6.70081">
        <ele>414</ele>
        <time>2016-05-15T09:27:12.000Z</time>
      </trkpt>
      <trkpt lat="47.42569" lon="6.70082">
        <ele>414</ele>
        <time>2016-05-15T09:27:13.000Z</time>
      </trkpt>
      <trkpt lat="47.42571" lon="6.70083">
        <ele>415</ele>
        <time>2016-05-15T09:27:14.000Z</time>
      </trkpt>
      <trkpt lat="47.42573" lon="6.70084">
        <ele>412</ele>
        <time>2016-05-15T09:27:15.000Z</time>
      </trkpt>
      <trkpt lat="47.42576" lon="6.70085">
        <ele>413</ele>
        <time>2016-05-15T09:27:16.000Z</time>
      </trkpt>
      <trkpt lat="47.42578" lon="6.70087">
        <ele>413</ele>
        <time>2016-05-15T09:27:17.000Z</time>
      </trkpt>
      <trkpt lat="47.4258" lon="6.70088">
        <ele>413</ele>
        <time>2016-05-15T09:27:18.000Z</time>
      </trkpt>
      <trkpt lat="47.42582" lon="6.7009">
        <ele>413</ele>
        <time>2016-05-15T09:27:19.000Z</time>
      </trkpt>
      <trkpt lat="47.42584" lon="6.70091">
        <ele>417</ele>
        <time>2016-05-15T09:27:20.000Z</time>
      </trkpt>
      <trkpt lat="47.42586" lon="6.70093">
        <ele>417</ele>
        <time>2016-05-15T09:27:20.998Z</time>
      </trkpt>
      <trkpt lat="47.42588" lon="6.70094">
        <ele>417</ele>
        <time>2016-05-15T09:27:22.000Z</time>
      </trkpt>
      <trkpt lat="47.42591" lon="6.70096">
        <ele>417</ele>
        <time>2016-05-15T09:27:23.000Z</time>
      </trkpt>
      <trkpt lat="47.42594" lon="6.70098">
        <ele>417</ele>
        <time>2016-05-15T09:27:24.000Z</time>
      </trkpt>
      <trkpt lat="47.42597" lon="6.701">
        <ele>417</ele>
        <time>2016-05-15T09:27:25.000Z</time>
      </trkpt>
      <trkpt lat="47.42599" lon="6.70103">
        <ele>417</ele>
        <time>2016-05-15T09:27:26.000Z</time>
      </trkpt>
      <trkpt lat="47.426" lon="6.70106">
        <ele>417</ele>
        <time>2016-05-15T09:27:27.000Z</time>
      </trkpt>
      <trkpt lat="47.42602" lon="6.70109">
        <ele>417</ele>
        <time>2016-05-15T09:27:28.000Z</time>
      </trkpt>
      <trkpt lat="47.42603" lon="6.70112">
        <ele>417</ele>
        <time>2016-05-15T09:27:29.000Z</time>
      </trkpt>
      <trkpt lat="47.42605" lon="6.70115">
        <ele>417</ele>
        <time>2016-05-15T09:27:30.000Z</time>
      </trkpt>
      <trkpt lat="47.42607" lon="6.70118">
        <ele>417</ele>
        <time>2016-05-15T09:27:31.000Z</time>
      </trkpt>
      <trkpt lat="47.42608" lon="6.70121">
        <ele>417</ele>
        <time>2016-05-15T09:27:32.000Z</time>
      </trkpt>
      <trkpt lat="47.4261" lon="6.70124">
        <ele>417</ele>
        <time>2016-05-15T09:27:33.000Z</time>
      </trkpt>
      <trkpt lat="47.42612" lon="6.70127">
        <ele>417</ele>
        <time>2016-05-15T09:27:34.000Z</time>
      </trkpt>
      <trkpt lat="47.42614" lon="6.70129">
        <ele>417</ele>
        <time>2016-05-15T09:27:35.000Z</time>
      </trkpt>
      <trkpt lat="47.42616" lon="6.70131">
        <ele>417</ele>
        <time>2016-05-15T09:27:36.000Z</time>
      </trkpt>
      <trkpt lat="47.42619" lon="6.70132">
        <ele>417</ele>
        <time>2016-05-15T09:27:37.000Z</time>
      </trkpt>
      <trkpt lat="47.42622" lon="6.70133">
        <ele>417</ele>
        <time>2016-05-15T09:27:38.000Z</time>
      </trkpt>
      <trkpt lat="47.42626" lon="6.70133">
        <ele>418</ele>
        <time>2016-05-15T09:27:39.000Z</time>
      </trkpt>
      <trkpt lat="47.42629" lon="6.70134">
        <ele>418</ele>
        <time>2016-05-15T09:27:40.000Z</time>
      </trkpt>
      <trkpt lat="47.42632" lon="6.70135">
        <ele>419</ele>
        <time>2016-05-15T09:27:41.000Z</time>
      </trkpt>
      <trkpt lat="47.42634" lon="6.70136">
        <ele>419</ele>
        <time>2016-05-15T09:27:42.000Z</time>
      </trkpt>
      <trkpt lat="47.42637" lon="6.7014">
        <ele>419</ele>
        <time>2016-05-15T09:27:45.000Z</time>
      </trkpt>
      <trkpt lat="47.42637" lon="6.70141">
        <ele>419</ele>
        <time>2016-05-15T09:27:46.000Z</time>
      </trkpt>
      <trkpt lat="47.42639" lon="6.70145">
        <ele>419</ele>
        <time>2016-05-15T09:27:48.000Z</time>
      </trkpt>
      <trkpt lat="47.42639" lon="6.70147">
        <ele>419</ele>
        <time>2016-05-15T09:27:49.000Z</time>
      </trkpt>
      <trkpt lat="47.42641" lon="6.70152">
        <ele>419</ele>
        <time>2016-05-15T09:27:51.000Z</time>
      </trkpt>
      <trkpt lat="47.42642" lon="6.70154">
        <ele>419</ele>
        <time>2016-05-15T09:27:52.000Z</time>
      </trkpt>
      <trkpt lat="47.42644" lon="6.70159">
        <ele>419</ele>
        <time>2016-05-15T09:27:54.000Z</time>
      </trkpt>
      <trkpt lat="47.42645" lon="6.70161">
        <ele>419</ele>
        <time>2016-05-15T09:27:55.000Z</time>
      </trkpt>
      <trkpt lat="47.42647" lon="6.70165">
        <ele>419</ele>
        <time>2016-05-15T09:27:57.000Z</time>
      </trkpt>
      <trkpt lat="47.42648" lon="6.70168">
        <ele>414</ele>
        <time>2016-05-15T09:27:58.000Z</time>
      </trkpt>
      <trkpt lat="47.4265" lon="6.70172">
        <ele>414</ele>
        <time>2016-05-15T09:28:00.000Z</time>
      </trkpt>
      <trkpt lat="47.4265" lon="6.70175">
        <ele>414</ele>
        <time>2016-05-15T09:28:01.000Z</time>
      </trkpt>
      <trkpt lat="47.42652" lon="6.70181">
        <ele>414</ele>
        <time>2016-05-15T09:28:03.000Z</time>
      </trkpt>
      <trkpt lat="47.42655" lon="6.70183">
        <ele>414</ele>
        <time>2016-05-15T09:28:04.000Z</time>
      </trkpt>
      <trkpt lat="47.42657" lon="6.70185">
        <ele>414</ele>
        <time>2016-05-15T09:28:05.000Z</time>
      </trkpt>
      <trkpt lat="47.4266" lon="6.70188">
        <ele>414</ele>
        <time>2016-05-15T09:28:06.000Z</time>
      </trkpt>
      <trkpt lat="47.42663" lon="6.70189">
        <ele>413</ele>
        <time>2016-05-15T09:28:07.000Z</time>
      </trkpt>
      <trkpt lat="47.42665" lon="6.70191">
        <ele>413</ele>
        <time>2016-05-15T09:28:08.000Z</time>
      </trkpt>
      <trkpt lat="47.42668" lon="6.70193">
        <ele>422</ele>
        <time>2016-05-15T09:28:09.000Z</time>
      </trkpt>
      <trkpt lat="47.42671" lon="6.70194">
        <ele>422</ele>
        <time>2016-05-15T09:28:10.000Z</time>
      </trkpt>
      <trkpt lat="47.42673" lon="6.70196">
        <ele>422</ele>
        <time>2016-05-15T09:28:11.000Z</time>
      </trkpt>
      <trkpt lat="47.42676" lon="6.70199">
        <ele>422</ele>
        <time>2016-05-15T09:28:12.000Z</time>
      </trkpt>
      <trkpt lat="47.42679" lon="6.70201">
        <ele>422</ele>
        <time>2016-05-15T09:28:13.000Z</time>
      </trkpt>
      <trkpt lat="47.42682" lon="6.70204">
        <ele>422</ele>
        <time>2016-05-15T09:28:14.000Z</time>
      </trkpt>
      <trkpt lat="47.42684" lon="6.70207">
        <ele>422</ele>
        <time>2016-05-15T09:28:15.000Z</time>
      </trkpt>
      <trkpt lat="47.42686" lon="6.70209">
        <ele>422</ele>
        <time>2016-05-15T09:28:16.000Z</time>
      </trkpt>
      <trkpt lat="47.42689" lon="6.70211">
        <ele>422</ele>
        <time>2016-05-15T09:28:17.000Z</time>
      </trkpt>
      <trkpt lat="47.42691" lon="6.70213">
        <ele>422</ele>
        <time>2016-05-15T09:28:18.000Z</time>
      </trkpt>
      <trkpt lat="47.42694" lon="6.70217">
        <ele>422</ele>
        <time>2016-05-15T09:28:20.000Z</time>
      </trkpt>
      <trkpt lat="47.42695" lon="6.70219">
        <ele>422</ele>
        <time>2016-05-15T09:28:21.000Z</time>
      </trkpt>
      <trkpt lat="47.42699" lon="6.70222">
        <ele>422</ele>
        <time>2016-05-15T09:28:23.000Z</time>
      </trkpt>
      <trkpt lat="47.42701" lon="6.70223">
        <ele>422</ele>
        <time>2016-05-15T09:28:24.000Z</time>
      </trkpt>
      <trkpt lat="47.42704" lon="6.70227">
        <ele>422</ele>
        <time>2016-05-15T09:28:26.000Z</time>
      </trkpt>
      <trkpt lat="47.42706" lon="6.70228">
        <ele>422</ele>
        <time>2016-05-15T09:28:27.000Z</time>
      </trkpt>
      <trkpt lat="47.4271" lon="6.70232">
        <ele>422</ele>
        <time>2016-05-15T09:28:29.000Z</time>
      </trkpt>
      <trkpt lat="47.42712" lon="6.70234">
        <ele>423</ele>
        <time>2016-05-15T09:28:30.000Z</time>
      </trkpt>
      <trkpt lat="47.42714" lon="6.70236">
        <ele>423</ele>
        <time>2016-05-15T09:28:31.000Z</time>
      </trkpt>
      <trkpt lat="47.42716" lon="6.70238">
        <ele>423</ele>
        <time>2016-05-15T09:28:32.000Z</time>
      </trkpt>
      <trkpt lat="47.42718" lon="6.7024">
        <ele>423</ele>
        <time>2016-05-15T09:28:33.000Z</time>
      </trkpt>
      <trkpt lat="47.42721" lon="6.70242">
        <ele>424</ele>
        <time>2016-05-15T09:28:34.000Z</time>
      </trkpt>
      <trkpt lat="47.42723" lon="6.70244">
        <ele>424</ele>
        <time>2016-05-15T09:28:35.000Z</time>
      </trkpt>
      <trkpt lat="47.42725" lon="6.70246">
        <ele>424</ele>
        <time>2016-05-15T09:28:36.000Z</time>
      </trkpt>
      <trkpt lat="47.42727" lon="6.7025">
        <ele>424</ele>
        <time>2016-05-15T09:28:38.000Z</time>
      </trkpt>
      <trkpt lat="47.42728" lon="6.70251">
        <ele>420</ele>
        <time>2016-05-15T09:28:39.000Z</time>
      </trkpt>
      <trkpt lat="47.4273" lon="6.70253">
        <ele>421</ele>
        <time>2016-05-15T09:28:40.000Z</time>
      </trkpt>
      <trkpt lat="47.42732" lon="6.70254">
        <ele>421</ele>
        <time>2016-05-15T09:28:41.000Z</time>
      </trkpt>
      <trkpt lat="47.42736" lon="6.70257">
        <ele>422</ele>
        <time>2016-05-15T09:28:43.000Z</time>
      </trkpt>
      <trkpt lat="47.42737" lon="6.70259">
        <ele>422</ele>
        <time>2016-05-15T09:28:44.000Z</time>
      </trkpt>
      <trkpt lat="47.42741" lon="6.70263">
        <ele>422</ele>
        <time>2016-05-15T09:28:47.000Z</time>
      </trkpt>
      <trkpt lat="47.42742" lon="6.70264">
        <ele>422</ele>
        <time>2016-05-15T09:28:48.000Z</time>
      </trkpt>
      <trkpt lat="47.42745" lon="6.70267">
        <ele>422</ele>
        <time>2016-05-15T09:28:50.000Z</time>
      </trkpt>
      <trkpt lat="47.42747" lon="6.70269">
        <ele>421</ele>
        <time>2016-05-15T09:28:51.000Z</time>
      </trkpt>
      <trkpt lat="47.4275" lon="6.7027">
        <ele>421</ele>
        <time>2016-05-15T09:28:52.000Z</time>
      </trkpt>
      <trkpt lat="47.42752" lon="6.70271">
        <ele>429</ele>
        <time>2016-05-15T09:28:53.000Z</time>
      </trkpt>
      <trkpt lat="47.42755" lon="6.70272">
        <ele>429</ele>
        <time>2016-05-15T09:28:54.000Z</time>
      </trkpt>
      <trkpt lat="47.42758" lon="6.70273">
        <ele>429</ele>
        <time>2016-05-15T09:28:55.000Z</time>
      </trkpt>
      <trkpt lat="47.4276" lon="6.70273">
        <ele>429</ele>
        <time>2016-05-15T09:28:56.000Z</time>
      </trkpt>
      <trkpt lat="47.42763" lon="6.70275">
        <ele>429</ele>
        <time>2016-05-15T09:28:57.000Z</time>
      </trkpt>
      <trkpt lat="47.42765" lon="6.70276">
        <ele>429</ele>
        <time>2016-05-15T09:28:58.000Z</time>
      </trkpt>
      <trkpt lat="47.42767" lon="6.70277">
        <ele>429</ele>
        <time>2016-05-15T09:28:59.000Z</time>
      </trkpt>
      <trkpt lat="47.42769" lon="6.70278">
        <ele>430</ele>
        <time>2016-05-15T09:29:00.000Z</time>
      </trkpt>
      <trkpt lat="47.42772" lon="6.70279">
        <ele>430</ele>
        <time>2016-05-15T09:29:01.000Z</time>
      </trkpt>
      <trkpt lat="47.42774" lon="6.70279">
        <ele>430</ele>
        <time>2016-05-15T09:29:02.000Z</time>
      </trkpt>
      <trkpt lat="47.42777" lon="6.7028">
        <ele>430</ele>
        <time>2016-05-15T09:29:03.000Z</time>
      </trkpt>
      <trkpt lat="47.42779" lon="6.70282">
        <ele>430</ele>
        <time>2016-05-15T09:29:04.000Z</time>
      </trkpt>
      <trkpt lat="47.42782" lon="6.70283">
        <ele>431</ele>
        <time>2016-05-15T09:29:05.000Z</time>
      </trkpt>
      <trkpt lat="47.42784" lon="6.70285">
        <ele>431</ele>
        <time>2016-05-15T09:29:06.000Z</time>
      </trkpt>
      <trkpt lat="47.42787" lon="6.70287">
        <ele>431</ele>
        <time>2016-05-15T09:29:07.000Z</time>
      </trkpt>
      <trkpt lat="47.4279" lon="6.7029">
        <ele>431</ele>
        <time>2016-05-15T09:29:09.000Z</time>
      </trkpt>
      <trkpt lat="47.42792" lon="6.70292">
        <ele>431</ele>
        <time>2016-05-15T09:29:10.000Z</time>
      </trkpt>
      <trkpt lat="47.42794" lon="6.70294">
        <ele>431</ele>
        <time>2016-05-15T09:29:11.000Z</time>
      </trkpt>
      <trkpt lat="47.42796" lon="6.70296">
        <ele>431</ele>
        <time>2016-05-15T09:29:12.000Z</time>
      </trkpt>
      <trkpt lat="47.42799" lon="6.703">
        <ele>431</ele>
        <time>2016-05-15T09:29:14.000Z</time>
      </trkpt>
      <trkpt lat="47.428" lon="6.70302">
        <ele>431</ele>
        <time>2016-05-15T09:29:15.000Z</time>
      </trkpt>
      <trkpt lat="47.42803" lon="6.70306">
        <ele>431</ele>
        <time>2016-05-15T09:29:17.000Z</time>
      </trkpt>
      <trkpt lat="47.42804" lon="6.70309">
        <ele>431</ele>
        <time>2016-05-15T09:29:18.000Z</time>
      </trkpt>
      <trkpt lat="47.42806" lon="6.70314">
        <ele>431</ele>
        <time>2016-05-15T09:29:20.000Z</time>
      </trkpt>
      <trkpt lat="47.42808" lon="6.70317">
        <ele>431</ele>
        <time>2016-05-15T09:29:21.000Z</time>
      </trkpt>
      <trkpt lat="47.4281" lon="6.70319">
        <ele>432</ele>
        <time>2016-05-15T09:29:22.000Z</time>
      </trkpt>
      <trkpt lat="47.42811" lon="6.70322">
        <ele>432</ele>
        <time>2016-05-15T09:29:23.000Z</time>
      </trkpt>
      <trkpt lat="47.42813" lon="6.70325">
        <ele>432</ele>
        <time>2016-05-15T09:29:24.000Z</time>
      </trkpt>
      <trkpt lat="47.42814" lon="6.70327">
        <ele>432</ele>
        <time>2016-05-15T09:29:25.000Z</time>
      </trkpt>
      <trkpt lat="47.42817" lon="6.70332">
        <ele>432</ele>
        <time>2016-05-15T09:29:27.000Z</time>
      </trkpt>
      <trkpt lat="47.42818" lon="6.70335">
        <ele>430</ele>
        <time>2016-05-15T09:29:28.000Z</time>
      </trkpt>
      <trkpt lat="47.4282" lon="6.70338">
        <ele>430</ele>
        <time>2016-05-15T09:29:29.000Z</time>
      </trkpt>
      <trkpt lat="47.42821" lon="6.70342">
        <ele>430</ele>
        <time>2016-05-15T09:29:30.000Z</time>
      </trkpt>
      <trkpt lat="47.42822" lon="6.70345">
        <ele>430</ele>
        <time>2016-05-15T09:29:31.000Z</time>
      </trkpt>
      <trkpt lat="47.42824" lon="6.70349">
        <ele>430</ele>
        <time>2016-05-15T09:29:32.000Z</time>
      </trkpt>
      <trkpt lat="47.42825" lon="6.70353">
        <ele>430</ele>
        <time>2016-05-15T09:29:33.000Z</time>
      </trkpt>
      <trkpt lat="47.42827" lon="6.70357">
        <ele>429</ele>
        <time>2016-05-15T09:29:34.000Z</time>
      </trkpt>
      <trkpt lat="47.42829" lon="6.70361">
        <ele>429</ele>
        <time>2016-05-15T09:29:35.000Z</time>
      </trkpt>
      <trkpt lat="47.42831" lon="6.70365">
        <ele>429</ele>
        <time>2016-05-15T09:29:36.000Z</time>
      </trkpt>
      <trkpt lat="47.42833" lon="6.70369">
        <ele>429</ele>
        <time>2016-05-15T09:29:37.000Z</time>
      </trkpt>
      <trkpt lat="47.42835" lon="6.70373">
        <ele>437</ele>
        <time>2016-05-15T09:29:38.000Z</time>
      </trkpt>
      <trkpt lat="47.42837" lon="6.70377">
        <ele>437</ele>
        <time>2016-05-15T09:29:39.000Z</time>
      </trkpt>
      <trkpt lat="47.42839" lon="6.7038">
        <ele>437</ele>
        <time>2016-05-15T09:29:40.000Z</time>
      </trkpt>
      <trkpt lat="47.42841" lon="6.70383">
        <ele>437</ele>
        <time>2016-05-15T09:29:41.000Z</time>
      </trkpt>
      <trkpt lat="47.42842" lon="6.70386">
        <ele>436</ele>
        <time>2016-05-15T09:29:42.000Z</time>
      </trkpt>
      <trkpt lat="47.42844" lon="6.70389">
        <ele>436</ele>
        <time>2016-05-15T09:29:43.000Z</time>
      </trkpt>
      <trkpt lat="47.42845" lon="6.70392">
        <ele>436</ele>
        <time>2016-05-15T09:29:44.000Z</time>
      </trkpt>
      <trkpt lat="47.42847" lon="6.70395">
        <ele>436</ele>
        <time>2016-05-15T09:29:45.000Z</time>
      </trkpt>
      <trkpt lat="47.42848" lon="6.70398">
        <ele>436</ele>
        <time>2016-05-15T09:29:46.000Z</time>
      </trkpt>
      <trkpt lat="47.42849" lon="6.70402">
        <ele>436</ele>
        <time>2016-05-15T09:29:47.000Z</time>
      </trkpt>
      <trkpt lat="47.4285" lon="6.70405">
        <ele>435</ele>
        <time>2016-05-15T09:29:48.000Z</time>
      </trkpt>
      <trkpt lat="47.42852" lon="6.7041">
        <ele>435</ele>
        <time>2016-05-15T09:29:50.000Z</time>
      </trkpt>
      <trkpt lat="47.42853" lon="6.70414">
        <ele>435</ele>
        <time>2016-05-15T09:29:51.000Z</time>
      </trkpt>
      <trkpt lat="47.42855" lon="6.70417">
        <ele>434</ele>
        <time>2016-05-15T09:29:52.000Z</time>
      </trkpt>
      <trkpt lat="47.42855" lon="6.70421">
        <ele>434</ele>
        <time>2016-05-15T09:29:53.000Z</time>
      </trkpt>
      <trkpt lat="47.42856" lon="6.70425">
        <ele>435</ele>
        <time>2016-05-15T09:29:54.000Z</time>
      </trkpt>
      <trkpt lat="47.42857" lon="6.70429">
        <ele>435</ele>
        <time>2016-05-15T09:29:55.000Z</time>
      </trkpt>
      <trkpt lat="47.42858" lon="6.70432">
        <ele>435</ele>
        <time>2016-05-15T09:29:56.000Z</time>
      </trkpt>
      <trkpt lat="47.42858" lon="6.70436">
        <ele>435</ele>
        <time>2016-05-15T09:29:57.000Z</time>
      </trkpt>
      <trkpt lat="47.42859" lon="6.70442">
        <ele>436</ele>
        <time>2016-05-15T09:29:59.000Z</time>
      </trkpt>
      <trkpt lat="47.42859" lon="6.70445">
        <ele>436</ele>
        <time>2016-05-15T09:30:00.000Z</time>
      </trkpt>
      <trkpt lat="47.42859" lon="6.7045">
        <ele>436</ele>
        <time>2016-05-15T09:30:02.000Z</time>
      </trkpt>
      <trkpt lat="47.42858" lon="6.70453">
        <ele>436</ele>
        <time>2016-05-15T09:30:03.000Z</time>
      </trkpt>
      <trkpt lat="47.42857" lon="6.70458">
        <ele>436</ele>
        <time>2016-05-15T09:30:05.000Z</time>
      </trkpt>
      <trkpt lat="47.42857" lon="6.70461">
        <ele>436</ele>
        <time>2016-05-15T09:30:06.000Z</time>
      </trkpt>
      <trkpt lat="47.42855" lon="6.70466">
        <ele>436</ele>
        <time>2016-05-15T09:30:08.000Z</time>
      </trkpt>
      <trkpt lat="47.42853" lon="6.70468">
        <ele>436</ele>
        <time>2016-05-15T09:30:09.000Z</time>
      </trkpt>
      <trkpt lat="47.42851" lon="6.70472">
        <ele>436</ele>
        <time>2016-05-15T09:30:11.000Z</time>
      </trkpt>
      <trkpt lat="47.42849" lon="6.70474">
        <ele>435</ele>
        <time>2016-05-15T09:30:12.000Z</time>
      </trkpt>
      <trkpt lat="47.42846" lon="6.70479">
        <ele>435</ele>
        <time>2016-05-15T09:30:14.000Z</time>
      </trkpt>
      <trkpt lat="47.42845" lon="6.70482">
        <ele>435</ele>
        <time>2016-05-15T09:30:15.000Z</time>
      </trkpt>
      <trkpt lat="47.42842" lon="6.70485">
        <ele>435</ele>
        <time>2016-05-15T09:30:17.000Z</time>
      </trkpt>
      <trkpt lat="47.4284" lon="6.70486">
        <ele>435</ele>
        <time>2016-05-15T09:30:18.000Z</time>
      </trkpt>
      <trkpt lat="47.42836" lon="6.70488">
        <ele>435</ele>
        <time>2016-05-15T09:30:20.000Z</time>
      </trkpt>
      <trkpt lat="47.42835" lon="6.7049">
        <ele>435</ele>
        <time>2016-05-15T09:30:21.000Z</time>
      </trkpt>
      <trkpt lat="47.42833" lon="6.70492">
        <ele>433</ele>
        <time>2016-05-15T09:30:22.000Z</time>
      </trkpt>
      <trkpt lat="47.42832" lon="6.70495">
        <ele>433</ele>
        <time>2016-05-15T09:30:23.000Z</time>
      </trkpt>
      <trkpt lat="47.4283" lon="6.70497">
        <ele>433</ele>
        <time>2016-05-15T09:30:24.000Z</time>
      </trkpt>
      <trkpt lat="47.42829" lon="6.705">
        <ele>434</ele>
        <time>2016-05-15T09:30:25.000Z</time>
      </trkpt>
      <trkpt lat="47.42827" lon="6.70503">
        <ele>435</ele>
        <time>2016-05-15T09:30:26.000Z</time>
      </trkpt>
      <trkpt lat="47.42826" lon="6.70506">
        <ele>435</ele>
        <time>2016-05-15T09:30:27.000Z</time>
      </trkpt>
      <trkpt lat="47.42824" lon="6.70511">
        <ele>435</ele>
        <time>2016-05-15T09:30:29.000Z</time>
      </trkpt>
      <trkpt lat="47.42822" lon="6.70514">
        <ele>435</ele>
        <time>2016-05-15T09:30:30.000Z</time>
      </trkpt>
      <trkpt lat="47.4282" lon="6.70519">
        <ele>436</ele>
        <time>2016-05-15T09:30:32.000Z</time>
      </trkpt>
      <trkpt lat="47.42818" lon="6.70521">
        <ele>436</ele>
        <time>2016-05-15T09:30:33.000Z</time>
      </trkpt>
      <trkpt lat="47.42817" lon="6.70527">
        <ele>436</ele>
        <time>2016-05-15T09:30:35.000Z</time>
      </trkpt>
      <trkpt lat="47.42816" lon="6.7053">
        <ele>436</ele>
        <time>2016-05-15T09:30:36.000Z</time>
      </trkpt>
      <trkpt lat="47.42817" lon="6.70533">
        <ele>436</ele>
        <time>2016-05-15T09:30:37.000Z</time>
      </trkpt>
      <trkpt lat="47.42818" lon="6.70538">
        <ele>436</ele>
        <time>2016-05-15T09:30:38.000Z</time>
      </trkpt>
      <trkpt lat="47.42819" lon="6.70542">
        <ele>437</ele>
        <time>2016-05-15T09:30:39.000Z</time>
      </trkpt>
      <trkpt lat="47.4282" lon="6.70546">
        <ele>437</ele>
        <time>2016-05-15T09:30:40.000Z</time>
      </trkpt>
      <trkpt lat="47.42822" lon="6.70551">
        <ele>437</ele>
        <time>2016-05-15T09:30:41.000Z</time>
      </trkpt>
      <trkpt lat="47.42824" lon="6.70554">
        <ele>437</ele>
        <time>2016-05-15T09:30:42.000Z</time>
      </trkpt>
      <trkpt lat="47.42825" lon="6.70558">
        <ele>437</ele>
        <time>2016-05-15T09:30:43.000Z</time>
      </trkpt>
      <trkpt lat="47.42827" lon="6.70561">
        <ele>437</ele>
        <time>2016-05-15T09:30:44.000Z</time>
      </trkpt>
      <trkpt lat="47.42828" lon="6.70565">
        <ele>437</ele>
        <time>2016-05-15T09:30:45.000Z</time>
      </trkpt>
      <trkpt lat="47.4283" lon="6.70568">
        <ele>437</ele>
        <time>2016-05-15T09:30:46.000Z</time>
      </trkpt>
      <trkpt lat="47.42832" lon="6.70572">
        <ele>438</ele>
        <time>2016-05-15T09:30:47.000Z</time>
      </trkpt>
      <trkpt lat="47.42834" lon="6.70576">
        <ele>438</ele>
        <time>2016-05-15T09:30:48.000Z</time>
      </trkpt>
      <trkpt lat="47.42836" lon="6.7058">
        <ele>438</ele>
        <time>2016-05-15T09:30:49.000Z</time>
      </trkpt>
      <trkpt lat="47.42838" lon="6.70583">
        <ele>438</ele>
        <time>2016-05-15T09:30:50.000Z</time>
      </trkpt>
      <trkpt lat="47.4284" lon="6.70587">
        <ele>438</ele>
        <time>2016-05-15T09:30:51.000Z</time>
      </trkpt>
      <trkpt lat="47.42842" lon="6.70591">
        <ele>438</ele>
        <time>2016-05-15T09:30:52.000Z</time>
      </trkpt>
      <trkpt lat="47.42843" lon="6.70594">
        <ele>439</ele>
        <time>2016-05-15T09:30:53.000Z</time>
      </trkpt>
      <trkpt lat="47.42845" lon="6.70598">
        <ele>439</ele>
        <time>2016-05-15T09:30:54.000Z</time>
      </trkpt>
      <trkpt lat="47.42847" lon="6.70601">
        <ele>439</ele>
        <time>2016-05-15T09:30:55.000Z</time>
      </trkpt>
      <trkpt lat="47.42848" lon="6.70605">
        <ele>439</ele>
        <time>2016-05-15T09:30:56.000Z</time>
      </trkpt>
      <trkpt lat="47.4285" lon="6.70608">
        <ele>439</ele>
        <time>2016-05-15T09:30:57.000Z</time>
      </trkpt>
      <trkpt lat="47.42852" lon="6.70612">
        <ele>439</ele>
        <time>2016-05-15T09:30:58.000Z</time>
      </trkpt>
      <trkpt lat="47.42854" lon="6.70615">
        <ele>439</ele>
        <time>2016-05-15T09:30:59.000Z</time>
      </trkpt>
      <trkpt lat="47.42856" lon="6.70619">
        <ele>439</ele>
        <time>2016-05-15T09:31:00.000Z</time>
      </trkpt>
      <trkpt lat="47.42858" lon="6.70622">
        <ele>439</ele>
        <time>2016-05-15T09:31:01.000Z</time>
      </trkpt>
      <trkpt lat="47.42859" lon="6.70626">
        <ele>439</ele>
        <time>2016-05-15T09:31:02.000Z</time>
      </trkpt>
      <trkpt lat="47.42861" lon="6.70629">
        <ele>439</ele>
        <time>2016-05-15T09:31:03.000Z</time>
      </trkpt>
      <trkpt lat="47.42863" lon="6.70633">
        <ele>439</ele>
        <time>2016-05-15T09:31:04.000Z</time>
      </trkpt>
      <trkpt lat="47.42864" lon="6.70637">
        <ele>439</ele>
        <time>2016-05-15T09:31:05.000Z</time>
      </trkpt>
      <trkpt lat="47.42866" lon="6.70641">
        <ele>440</ele>
        <time>2016-05-15T09:31:06.000Z</time>
      </trkpt>
      <trkpt lat="47.42868" lon="6.70645">
        <ele>440</ele>
        <time>2016-05-15T09:31:07.000Z</time>
      </trkpt>
      <trkpt lat="47.42869" lon="6.70649">
        <ele>440</ele>
        <time>2016-05-15T09:31:08.000Z</time>
      </trkpt>
      <trkpt lat="47.42871" lon="6.70653">
        <ele>440</ele>
        <time>2016-05-15T09:31:09.000Z</time>
      </trkpt>
      <trkpt lat="47.42872" lon="6.70657">
        <ele>440</ele>
        <time>2016-05-15T09:31:10.000Z</time>
      </trkpt>
      <trkpt lat="47.42873" lon="6.70661">
        <ele>440</ele>
        <time>2016-05-15T09:31:11.000Z</time>
      </trkpt>
      <trkpt lat="47.42875" lon="6.70664">
        <ele>440</ele>
        <time>2016-05-15T09:31:12.000Z</time>
      </trkpt>
      <trkpt lat="47.42876" lon="6.70668">
        <ele>442</ele>
        <time>2016-05-15T09:31:13.000Z</time>
      </trkpt>
      <trkpt lat="47.42877" lon="6.70672">
        <ele>442</ele>
        <time>2016-05-15T09:31:14.000Z</time>
      </trkpt>
      <trkpt lat="47.42879" lon="6.70676">
        <ele>442</ele>
        <time>2016-05-15T09:31:15.000Z</time>
      </trkpt>
      <trkpt lat="47.4288" lon="6.7068">
        <ele>442</ele>
        <time>2016-05-15T09:31:16.000Z</time>
      </trkpt>
      <trkpt lat="47.42882" lon="6.70684">
        <ele>442</ele>
        <time>2016-05-15T09:31:17.000Z</time>
      </trkpt>
      <trkpt lat="47.42883" lon="6.70688">
        <ele>442</ele>
        <time>2016-05-15T09:31:18.000Z</time>
      </trkpt>
      <trkpt lat="47.42884" lon="6.70692">
        <ele>442</ele>
        <time>2016-05-15T09:31:19.000Z</time>
      </trkpt>
      <trkpt lat="47.42886" lon="6.70695">
        <ele>442</ele>
        <time>2016-05-15T09:31:20.000Z</time>
      </trkpt>
      <trkpt lat="47.42887" lon="6.70699">
        <ele>442</ele>
        <time>2016-05-15T09:31:21.000Z</time>
      </trkpt>
      <trkpt lat="47.42888" lon="6.70703">
        <ele>442</ele>
        <time>2016-05-15T09:31:22.000Z</time>
      </trkpt>
      <trkpt lat="47.4289" lon="6.70706">
        <ele>443</ele>
        <time>2016-05-15T09:31:23.000Z</time>
      </trkpt>
      <trkpt lat="47.42891" lon="6.7071">
        <ele>443</ele>
        <time>2016-05-15T09:31:24.000Z</time>
      </trkpt>
      <trkpt lat="47.42893" lon="6.70714">
        <ele>443</ele>
        <time>2016-05-15T09:31:25.000Z</time>
      </trkpt>
      <trkpt lat="47.42895" lon="6.70717">
        <ele>443</ele>
        <time>2016-05-15T09:31:26.000Z</time>
      </trkpt>
      <trkpt lat="47.42896" lon="6.70721">
        <ele>443</ele>
        <time>2016-05-15T09:31:27.000Z</time>
      </trkpt>
      <trkpt lat="47.42898" lon="6.70724">
        <ele>443</ele>
        <time>2016-05-15T09:31:28.000Z</time>
      </trkpt>
      <trkpt lat="47.429" lon="6.70728">
        <ele>443</ele>
        <time>2016-05-15T09:31:29.000Z</time>
      </trkpt>
      <trkpt lat="47.42902" lon="6.70731">
        <ele>443</ele>
        <time>2016-05-15T09:31:30.000Z</time>
      </trkpt>
      <trkpt lat="47.42904" lon="6.70735">
        <ele>443</ele>
        <time>2016-05-15T09:31:31.000Z</time>
      </trkpt>
      <trkpt lat="47.42906" lon="6.70738">
        <ele>443</ele>
        <time>2016-05-15T09:31:32.000Z</time>
      </trkpt>
      <trkpt lat="47.42908" lon="6.70742">
        <ele>444</ele>
        <time>2016-05-15T09:31:33.000Z</time>
      </trkpt>
      <trkpt lat="47.4291" lon="6.70745">
        <ele>444</ele>
        <time>2016-05-15T09:31:34.000Z</time>
      </trkpt>
      <trkpt lat="47.42912" lon="6.70749">
        <ele>444</ele>
        <time>2016-05-15T09:31:35.000Z</time>
      </trkpt>
      <trkpt lat="47.42914" lon="6.70752">
        <ele>444</ele>
        <time>2016-05-15T09:31:36.000Z</time>
      </trkpt>
      <trkpt lat="47.42917" lon="6.70756">
        <ele>444</ele>
        <time>2016-05-15T09:31:37.000Z</time>
      </trkpt>
      <trkpt lat="47.42919" lon="6.7076">
        <ele>444</ele>
        <time>2016-05-15T09:31:38.000Z</time>
      </trkpt>
      <trkpt lat="47.42921" lon="6.70763">
        <ele>444</ele>
        <time>2016-05-15T09:31:39.000Z</time>
      </trkpt>
      <trkpt lat="47.42923" lon="6.70767">
        <ele>445</ele>
        <time>2016-05-15T09:31:40.000Z</time>
      </trkpt>
      <trkpt lat="47.42925" lon="6.70771">
        <ele>445</ele>
        <time>2016-05-15T09:31:41.000Z</time>
      </trkpt>
      <trkpt lat="47.42927" lon="6.70775">
        <ele>445</ele>
        <time>2016-05-15T09:31:42.000Z</time>
      </trkpt>
      <trkpt lat="47.42929" lon="6.70779">
        <ele>445</ele>
        <time>2016-05-15T09:31:43.000Z</time>
      </trkpt>
      <trkpt lat="47.4293" lon="6.70783">
        <ele>445</ele>
        <time>2016-05-15T09:31:44.000Z</time>
      </trkpt>
      <trkpt lat="47.42932" lon="6.70787">
        <ele>445</ele>
        <time>2016-05-15T09:31:45.000Z</time>
      </trkpt>
      <trkpt lat="47.42934" lon="6.7079">
        <ele>445</ele>
        <time>2016-05-15T09:31:46.000Z</time>
      </trkpt>
      <trkpt lat="47.42935" lon="6.70794">
        <ele>445</ele>
        <time>2016-05-15T09:31:47.000Z</time>
      </trkpt>
      <trkpt lat="47.42937" lon="6.70798">
        <ele>445</ele>
        <time>2016-05-15T09:31:48.000Z</time>
      </trkpt>
      <trkpt lat="47.42938" lon="6.70802">
        <ele>445</ele>
        <time>2016-05-15T09:31:49.000Z</time>
      </trkpt>
      <trkpt lat="47.42939" lon="6.70806">
        <ele>445</ele>
        <time>2016-05-15T09:31:50.000Z</time>
      </trkpt>
      <trkpt lat="47.4294" lon="6.7081">
        <ele>445</ele>
        <time>2016-05-15T09:31:51.000Z</time>
      </trkpt>
      <trkpt lat="47.42942" lon="6.70814">
        <ele>445</ele>
        <time>2016-05-15T09:31:52.000Z</time>
      </trkpt>
      <trkpt lat="47.42943" lon="6.70818">
        <ele>445</ele>
        <time>2016-05-15T09:31:53.000Z</time>
      </trkpt>
      <trkpt lat="47.42944" lon="6.70823">
        <ele>445</ele>
        <time>2016-05-15T09:31:54.000Z</time>
      </trkpt>
      <trkpt lat="47.42945" lon="6.70827">
        <ele>445</ele>
        <time>2016-05-15T09:31:55.000Z</time>
      </trkpt>
      <trkpt lat="47.42946" lon="6.70832">
        <ele>445</ele>
        <time>2016-05-15T09:31:56.000Z</time>
      </trkpt>
      <trkpt lat="47.42947" lon="6.70837">
        <ele>446</ele>
        <time>2016-05-15T09:31:57.000Z</time>
      </trkpt>
      <trkpt lat="47.42948" lon="6.70841">
        <ele>446</ele>
        <time>2016-05-15T09:31:58.000Z</time>
      </trkpt>
      <trkpt lat="47.42948" lon="6.70846">
        <ele>446</ele>
        <time>2016-05-15T09:31:59.000Z</time>
      </trkpt>
      <trkpt lat="47.42949" lon="6.70851">
        <ele>446</ele>
        <time>2016-05-15T09:32:00.000Z</time>
      </trkpt>
      <trkpt lat="47.4295" lon="6.70855">
        <ele>446</ele>
        <time>2016-05-15T09:32:01.000Z</time>
      </trkpt>
      <trkpt lat="47.42951" lon="6.7086">
        <ele>446</ele>
        <time>2016-05-15T09:32:02.000Z</time>
      </trkpt>
      <trkpt lat="47.42951" lon="6.70865">
        <ele>446</ele>
        <time>2016-05-15T09:32:03.000Z</time>
      </trkpt>
      <trkpt lat="47.42952" lon="6.7087">
        <ele>446</ele>
        <time>2016-05-15T09:32:04.000Z</time>
      </trkpt>
      <trkpt lat="47.42953" lon="6.70875">
        <ele>446</ele>
        <time>2016-05-15T09:32:05.000Z</time>
      </trkpt>
      <trkpt lat="47.42954" lon="6.70881">
        <ele>446</ele>
        <time>2016-05-15T09:32:06.000Z</time>
      </trkpt>
      <trkpt lat="47.42955" lon="6.70886">
        <ele>446</ele>
        <time>2016-05-15T09:32:07.000Z</time>
      </trkpt>
      <trkpt lat="47.42956" lon="6.70891">
        <ele>446</ele>
        <time>2016-05-15T09:32:08.000Z</time>
      </trkpt>
      <trkpt lat="47.42957" lon="6.70896">
        <ele>446</ele>
        <time>2016-05-15T09:32:09.000Z</time>
      </trkpt>
      <trkpt lat="47.42958" lon="6.70902">
        <ele>446</ele>
        <time>2016-05-15T09:32:10.000Z</time>
      </trkpt>
      <trkpt lat="47.42959" lon="6.70907">
        <ele>446</ele>
        <time>2016-05-15T09:32:11.000Z</time>
      </trkpt>
      <trkpt lat="47.42961" lon="6.70913">
        <ele>446</ele>
        <time>2016-05-15T09:32:12.000Z</time>
      </trkpt>
      <trkpt lat="47.42963" lon="6.70918">
        <ele>446</ele>
        <time>2016-05-15T09:32:13.000Z</time>
      </trkpt>
      <trkpt lat="47.42965" lon="6.70924">
        <ele>446</ele>
        <time>2016-05-15T09:32:14.000Z</time>
      </trkpt>
      <trkpt lat="47.42966" lon="6.70929">
        <ele>446</ele>
        <time>2016-05-15T09:32:15.000Z</time>
      </trkpt>
      <trkpt lat="47.4297" lon="6.70935">
        <ele>446</ele>
        <time>2016-05-15T09:32:16.000Z</time>
      </trkpt>
      <trkpt lat="47.42972" lon="6.70942">
        <ele>446</ele>
        <time>2016-05-15T09:32:17.000Z</time>
      </trkpt>
      <trkpt lat="47.42974" lon="6.70949">
        <ele>446</ele>
        <time>2016-05-15T09:32:18.000Z</time>
      </trkpt>
      <trkpt lat="47.42977" lon="6.70957">
        <ele>446</ele>
        <time>2016-05-15T09:32:19.000Z</time>
      </trkpt>
      <trkpt lat="47.4298" lon="6.70964">
        <ele>446</ele>
        <time>2016-05-15T09:32:20.000Z</time>
      </trkpt>
      <trkpt lat="47.42983" lon="6.70972">
        <ele>445</ele>
        <time>2016-05-15T09:32:21.000Z</time>
      </trkpt>
      <trkpt lat="47.42985" lon="6.7098">
        <ele>445</ele>
        <time>2016-05-15T09:32:22.000Z</time>
      </trkpt>
      <trkpt lat="47.42988" lon="6.70987">
        <ele>445</ele>
        <time>2016-05-15T09:32:23.000Z</time>
      </trkpt>
      <trkpt lat="47.4299" lon="6.70995">
        <ele>444</ele>
        <time>2016-05-15T09:32:24.000Z</time>
      </trkpt>
      <trkpt lat="47.42993" lon="6.71002">
        <ele>444</ele>
        <time>2016-05-15T09:32:25.000Z</time>
      </trkpt>
      <trkpt lat="47.42996" lon="6.7101">
        <ele>444</ele>
        <time>2016-05-15T09:32:26.000Z</time>
      </trkpt>
      <trkpt lat="47.42998" lon="6.71017">
        <ele>444</ele>
        <time>2016-05-15T09:32:27.000Z</time>
      </trkpt>
      <trkpt lat="47.43001" lon="6.71024">
        <ele>443</ele>
        <time>2016-05-15T09:32:28.000Z</time>
      </trkpt>
      <trkpt lat="47.43004" lon="6.71029">
        <ele>443</ele>
        <time>2016-05-15T09:32:29.000Z</time>
      </trkpt>
      <trkpt lat="47.43007" lon="6.71036">
        <ele>443</ele>
        <time>2016-05-15T09:32:30.000Z</time>
      </trkpt>
      <trkpt lat="47.43009" lon="6.71043">
        <ele>442</ele>
        <time>2016-05-15T09:32:31.000Z</time>
      </trkpt>
      <trkpt lat="47.43012" lon="6.7105">
        <ele>442</ele>
        <time>2016-05-15T09:32:32.000Z</time>
      </trkpt>
      <trkpt lat="47.43015" lon="6.71057">
        <ele>442</ele>
        <time>2016-05-15T09:32:33.000Z</time>
      </trkpt>
      <trkpt lat="47.43017" lon="6.71064">
        <ele>442</ele>
        <time>2016-05-15T09:32:34.000Z</time>
      </trkpt>
      <trkpt lat="47.4302" lon="6.7107">
        <ele>442</ele>
        <time>2016-05-15T09:32:35.000Z</time>
      </trkpt>
      <trkpt lat="47.43023" lon="6.71077">
        <ele>442</ele>
        <time>2016-05-15T09:32:36.000Z</time>
      </trkpt>
      <trkpt lat="47.43025" lon="6.71082">
        <ele>442</ele>
        <time>2016-05-15T09:32:37.000Z</time>
      </trkpt>
      <trkpt lat="47.43028" lon="6.71088">
        <ele>443</ele>
        <time>2016-05-15T09:32:38.000Z</time>
      </trkpt>
      <trkpt lat="47.43031" lon="6.71093">
        <ele>443</ele>
        <time>2016-05-15T09:32:39.000Z</time>
      </trkpt>
      <trkpt lat="47.43033" lon="6.711">
        <ele>444</ele>
        <time>2016-05-15T09:32:40.000Z</time>
      </trkpt>
      <trkpt lat="47.43036" lon="6.71105">
        <ele>444</ele>
        <time>2016-05-15T09:32:41.000Z</time>
      </trkpt>
      <trkpt lat="47.4304" lon="6.71111">
        <ele>444</ele>
        <time>2016-05-15T09:32:42.000Z</time>
      </trkpt>
      <trkpt lat="47.43044" lon="6.71116">
        <ele>444</ele>
        <time>2016-05-15T09:32:43.000Z</time>
      </trkpt>
      <trkpt lat="47.43048" lon="6.71121">
        <ele>444</ele>
        <time>2016-05-15T09:32:44.000Z</time>
      </trkpt>
      <trkpt lat="47.43051" lon="6.71126">
        <ele>444</ele>
        <time>2016-05-15T09:32:45.000Z</time>
      </trkpt>
      <trkpt lat="47.43055" lon="6.7113">
        <ele>444</ele>
        <time>2016-05-15T09:32:46.000Z</time>
      </trkpt>
      <trkpt lat="47.43058" lon="6.71134">
        <ele>445</ele>
        <time>2016-05-15T09:32:47.000Z</time>
      </trkpt>
      <trkpt lat="47.43061" lon="6.71138">
        <ele>445</ele>
        <time>2016-05-15T09:32:48.000Z</time>
      </trkpt>
      <trkpt lat="47.43064" lon="6.71142">
        <ele>445</ele>
        <time>2016-05-15T09:32:49.000Z</time>
      </trkpt>
      <trkpt lat="47.43067" lon="6.71146">
        <ele>445</ele>
        <time>2016-05-15T09:32:50.000Z</time>
      </trkpt>
      <trkpt lat="47.4307" lon="6.7115">
        <ele>445</ele>
        <time>2016-05-15T09:32:51.000Z</time>
      </trkpt>
      <trkpt lat="47.43073" lon="6.71153">
        <ele>446</ele>
        <time>2016-05-15T09:32:52.000Z</time>
      </trkpt>
      <trkpt lat="47.43075" lon="6.71157">
        <ele>446</ele>
        <time>2016-05-15T09:32:53.000Z</time>
      </trkpt>
      <trkpt lat="47.43078" lon="6.71161">
        <ele>446</ele>
        <time>2016-05-15T09:32:54.000Z</time>
      </trkpt>
      <trkpt lat="47.4308" lon="6.71165">
        <ele>447</ele>
        <time>2016-05-15T09:32:55.000Z</time>
      </trkpt>
      <trkpt lat="47.43083" lon="6.71169">
        <ele>447</ele>
        <time>2016-05-15T09:32:56.000Z</time>
      </trkpt>
      <trkpt lat="47.43085" lon="6.71173">
        <ele>447</ele>
        <time>2016-05-15T09:32:57.000Z</time>
      </trkpt>
      <trkpt lat="47.43088" lon="6.71177">
        <ele>447</ele>
        <time>2016-05-15T09:32:58.000Z</time>
      </trkpt>
      <trkpt lat="47.43091" lon="6.71181">
        <ele>448</ele>
        <time>2016-05-15T09:32:59.000Z</time>
      </trkpt>
      <trkpt lat="47.43093" lon="6.71185">
        <ele>448</ele>
        <time>2016-05-15T09:33:00.000Z</time>
      </trkpt>
      <trkpt lat="47.43096" lon="6.71188">
        <ele>448</ele>
        <time>2016-05-15T09:33:01.000Z</time>
      </trkpt>
      <trkpt lat="47.43098" lon="6.71192">
        <ele>448</ele>
        <time>2016-05-15T09:33:02.000Z</time>
      </trkpt>
      <trkpt lat="47.431" lon="6.71195">
        <ele>448</ele>
        <time>2016-05-15T09:33:03.000Z</time>
      </trkpt>
      <trkpt lat="47.43102" lon="6.71199">
        <ele>448</ele>
        <time>2016-05-15T09:33:04.000Z</time>
      </trkpt>
      <trkpt lat="47.43104" lon="6.71202">
        <ele>448</ele>
        <time>2016-05-15T09:33:05.000Z</time>
      </trkpt>
      <trkpt lat="47.43107" lon="6.71205">
        <ele>448</ele>
        <time>2016-05-15T09:33:06.000Z</time>
      </trkpt>
      <trkpt lat="47.43109" lon="6.71208">
        <ele>448</ele>
        <time>2016-05-15T09:33:07.000Z</time>
      </trkpt>
      <trkpt lat="47.43111" lon="6.71211">
        <ele>448</ele>
        <time>2016-05-15T09:33:08.000Z</time>
      </trkpt>
      <trkpt lat="47.43113" lon="6.71214">
        <ele>448</ele>
        <time>2016-05-15T09:33:09.000Z</time>
      </trkpt>
      <trkpt lat="47.43115" lon="6.71217">
        <ele>448</ele>
        <time>2016-05-15T09:33:10.000Z</time>
      </trkpt>
      <trkpt lat="47.43118" lon="6.71219">
        <ele>448</ele>
        <time>2016-05-15T09:33:11.000Z</time>
      </trkpt>
      <trkpt lat="47.4312" lon="6.71222">
        <ele>448</ele>
        <time>2016-05-15T09:33:12.000Z</time>
      </trkpt>
      <trkpt lat="47.43123" lon="6.71225">
        <ele>448</ele>
        <time>2016-05-15T09:33:13.000Z</time>
      </trkpt>
      <trkpt lat="47.43125" lon="6.71228">
        <ele>448</ele>
        <time>2016-05-15T09:33:14.000Z</time>
      </trkpt>
      <trkpt lat="47.43127" lon="6.71231">
        <ele>448</ele>
        <time>2016-05-15T09:33:15.000Z</time>
      </trkpt>
      <trkpt lat="47.43129" lon="6.71233">
        <ele>448</ele>
        <time>2016-05-15T09:33:16.000Z</time>
      </trkpt>
      <trkpt lat="47.43131" lon="6.71236">
        <ele>449</ele>
        <time>2016-05-15T09:33:17.000Z</time>
      </trkpt>
      <trkpt lat="47.43133" lon="6.71239">
        <ele>449</ele>
        <time>2016-05-15T09:33:18.000Z</time>
      </trkpt>
      <trkpt lat="47.43135" lon="6.71242">
        <ele>449</ele>
        <time>2016-05-15T09:33:19.000Z</time>
      </trkpt>
      <trkpt lat="47.43137" lon="6.71245">
        <ele>449</ele>
        <time>2016-05-15T09:33:20.000Z</time>
      </trkpt>
      <trkpt lat="47.4314" lon="6.71249">
        <ele>449</ele>
        <time>2016-05-15T09:33:21.000Z</time>
      </trkpt>
      <trkpt lat="47.43142" lon="6.71252">
        <ele>451</ele>
        <time>2016-05-15T09:33:22.000Z</time>
      </trkpt>
      <trkpt lat="47.43144" lon="6.71256">
        <ele>451</ele>
        <time>2016-05-15T09:33:23.000Z</time>
      </trkpt>
      <trkpt lat="47.43147" lon="6.7126">
        <ele>451</ele>
        <time>2016-05-15T09:33:24.000Z</time>
      </trkpt>
      <trkpt lat="47.43149" lon="6.71264">
        <ele>451</ele>
        <time>2016-05-15T09:33:25.000Z</time>
      </trkpt>
      <trkpt lat="47.43151" lon="6.71268">
        <ele>451</ele>
        <time>2016-05-15T09:33:26.000Z</time>
      </trkpt>
      <trkpt lat="47.43153" lon="6.71273">
        <ele>451</ele>
        <time>2016-05-15T09:33:27.000Z</time>
      </trkpt>
      <trkpt lat="47.43155" lon="6.71277">
        <ele>451</ele>
        <time>2016-05-15T09:33:28.000Z</time>
      </trkpt>
      <trkpt lat="47.43157" lon="6.71282">
        <ele>452</ele>
        <time>2016-05-15T09:33:29.000Z</time>
      </trkpt>
      <trkpt lat="47.43159" lon="6.71287">
        <ele>452</ele>
        <time>2016-05-15T09:33:30.000Z</time>
      </trkpt>
      <trkpt lat="47.43161" lon="6.71291">
        <ele>452</ele>
        <time>2016-05-15T09:33:31.000Z</time>
      </trkpt>
      <trkpt lat="47.43162" lon="6.71296">
        <ele>452</ele>
        <time>2016-05-15T09:33:32.000Z</time>
      </trkpt>
      <trkpt lat="47.43164" lon="6.71301">
        <ele>452</ele>
        <time>2016-05-15T09:33:33.000Z</time>
      </trkpt>
      <trkpt lat="47.43167" lon="6.71306">
        <ele>451</ele>
        <time>2016-05-15T09:33:34.000Z</time>
      </trkpt>
      <trkpt lat="47.43169" lon="6.71311">
        <ele>452</ele>
        <time>2016-05-15T09:33:35.000Z</time>
      </trkpt>
      <trkpt lat="47.43172" lon="6.71316">
        <ele>452</ele>
        <time>2016-05-15T09:33:36.000Z</time>
      </trkpt>
      <trkpt lat="47.43174" lon="6.71321">
        <ele>452</ele>
        <time>2016-05-15T09:33:37.000Z</time>
      </trkpt>
      <trkpt lat="47.43176" lon="6.71325">
        <ele>453</ele>
        <time>2016-05-15T09:33:38.000Z</time>
      </trkpt>
      <trkpt lat="47.43178" lon="6.7133">
        <ele>453</ele>
        <time>2016-05-15T09:33:39.000Z</time>
      </trkpt>
      <trkpt lat="47.43181" lon="6.71334">
        <ele>454</ele>
        <time>2016-05-15T09:33:40.000Z</time>
      </trkpt>
      <trkpt lat="47.43183" lon="6.71338">
        <ele>454</ele>
        <time>2016-05-15T09:33:41.000Z</time>
      </trkpt>
      <trkpt lat="47.43185" lon="6.71343">
        <ele>454</ele>
        <time>2016-05-15T09:33:42.000Z</time>
      </trkpt>
      <trkpt lat="47.43187" lon="6.71347">
        <ele>454</ele>
        <time>2016-05-15T09:33:43.000Z</time>
      </trkpt>
      <trkpt lat="47.43189" lon="6.71351">
        <ele>454</ele>
        <time>2016-05-15T09:33:44.000Z</time>
      </trkpt>
      <trkpt lat="47.43191" lon="6.71355">
        <ele>454</ele>
        <time>2016-05-15T09:33:45.000Z</time>
      </trkpt>
      <trkpt lat="47.43193" lon="6.7136">
        <ele>454</ele>
        <time>2016-05-15T09:33:46.000Z</time>
      </trkpt>
      <trkpt lat="47.43195" lon="6.71365">
        <ele>454</ele>
        <time>2016-05-15T09:33:47.000Z</time>
      </trkpt>
      <trkpt lat="47.43197" lon="6.71369">
        <ele>454</ele>
        <time>2016-05-15T09:33:48.000Z</time>
      </trkpt>
      <trkpt lat="47.432" lon="6.71374">
        <ele>454</ele>
        <time>2016-05-15T09:33:49.001Z</time>
      </trkpt>
      <trkpt lat="47.43202" lon="6.71379">
        <ele>454</ele>
        <time>2016-05-15T09:33:50.000Z</time>
      </trkpt>
      <trkpt lat="47.43204" lon="6.71383">
        <ele>454</ele>
        <time>2016-05-15T09:33:51.000Z</time>
      </trkpt>
      <trkpt lat="47.43206" lon="6.71388">
        <ele>454</ele>
        <time>2016-05-15T09:33:52.000Z</time>
      </trkpt>
      <trkpt lat="47.43208" lon="6.71393">
        <ele>454</ele>
        <time>2016-05-15T09:33:52.999Z</time>
      </trkpt>
      <trkpt lat="47.43209" lon="6.71399">
        <ele>454</ele>
        <time>2016-05-15T09:33:54.000Z</time>
      </trkpt>
      <trkpt lat="47.43211" lon="6.71404">
        <ele>454</ele>
        <time>2016-05-15T09:33:54.999Z</time>
      </trkpt>
      <trkpt lat="47.43213" lon="6.71409">
        <ele>454</ele>
        <time>2016-05-15T09:33:56.001Z</time>
      </trkpt>
      <trkpt lat="47.43215" lon="6.71414">
        <ele>454</ele>
        <time>2016-05-15T09:33:57.000Z</time>
      </trkpt>
      <trkpt lat="47.43217" lon="6.71419">
        <ele>455</ele>
        <time>2016-05-15T09:33:58.001Z</time>
      </trkpt>
      <trkpt lat="47.4322" lon="6.71423">
        <ele>455</ele>
        <time>2016-05-15T09:33:59.000Z</time>
      </trkpt>
      <trkpt lat="47.43223" lon="6.71427">
        <ele>455</ele>
        <time>2016-05-15T09:34:00.000Z</time>
      </trkpt>
      <trkpt lat="47.43225" lon="6.71431">
        <ele>455</ele>
        <time>2016-05-15T09:34:01.000Z</time>
      </trkpt>
      <trkpt lat="47.43228" lon="6.71435">
        <ele>455</ele>
        <time>2016-05-15T09:34:02.000Z</time>
      </trkpt>
      <trkpt lat="47.4323" lon="6.71439">
        <ele>455</ele>
        <time>2016-05-15T09:34:03.000Z</time>
      </trkpt>
      <trkpt lat="47.43232" lon="6.71443">
        <ele>455</ele>
        <time>2016-05-15T09:34:04.000Z</time>
      </trkpt>
      <trkpt lat="47.43234" lon="6.71447">
        <ele>455</ele>
        <time>2016-05-15T09:34:05.000Z</time>
      </trkpt>
      <trkpt lat="47.43236" lon="6.71451">
        <ele>455</ele>
        <time>2016-05-15T09:34:06.000Z</time>
      </trkpt>
      <trkpt lat="47.43239" lon="6.71455">
        <ele>455</ele>
        <time>2016-05-15T09:34:07.000Z</time>
      </trkpt>
      <trkpt lat="47.43241" lon="6.71459">
        <ele>455</ele>
        <time>2016-05-15T09:34:08.000Z</time>
      </trkpt>
      <trkpt lat="47.43243" lon="6.71463">
        <ele>455</ele>
        <time>2016-05-15T09:34:09.000Z</time>
      </trkpt>
      <trkpt lat="47.43246" lon="6.71468">
        <ele>455</ele>
        <time>2016-05-15T09:34:10.000Z</time>
      </trkpt>
      <trkpt lat="47.43249" lon="6.71472">
        <ele>454</ele>
        <time>2016-05-15T09:34:11.000Z</time>
      </trkpt>
      <trkpt lat="47.43254" lon="6.71477">
        <ele>453</ele>
        <time>2016-05-15T09:34:12.000Z</time>
      </trkpt>
      <trkpt lat="47.43258" lon="6.71482">
        <ele>453</ele>
        <time>2016-05-15T09:34:13.000Z</time>
      </trkpt>
      <trkpt lat="47.43262" lon="6.71488">
        <ele>453</ele>
        <time>2016-05-15T09:34:14.000Z</time>
      </trkpt>
      <trkpt lat="47.43266" lon="6.71493">
        <ele>453</ele>
        <time>2016-05-15T09:34:15.000Z</time>
      </trkpt>
      <trkpt lat="47.43271" lon="6.71499">
        <ele>453</ele>
        <time>2016-05-15T09:34:16.000Z</time>
      </trkpt>
      <trkpt lat="47.43276" lon="6.71506">
        <ele>453</ele>
        <time>2016-05-15T09:34:17.000Z</time>
      </trkpt>
      <trkpt lat="47.43282" lon="6.71513">
        <ele>453</ele>
        <time>2016-05-15T09:34:18.000Z</time>
      </trkpt>
      <trkpt lat="47.43286" lon="6.71519">
        <ele>453</ele>
        <time>2016-05-15T09:34:19.000Z</time>
      </trkpt>
      <trkpt lat="47.43291" lon="6.71525">
        <ele>453</ele>
        <time>2016-05-15T09:34:20.000Z</time>
      </trkpt>
      <trkpt lat="47.43297" lon="6.71533">
        <ele>452</ele>
        <time>2016-05-15T09:34:21.000Z</time>
      </trkpt>
      <trkpt lat="47.43302" lon="6.71539">
        <ele>452</ele>
        <time>2016-05-15T09:34:22.000Z</time>
      </trkpt>
      <trkpt lat="47.43308" lon="6.71546">
        <ele>452</ele>
        <time>2016-05-15T09:34:23.000Z</time>
      </trkpt>
      <trkpt lat="47.43313" lon="6.71553">
        <ele>452</ele>
        <time>2016-05-15T09:34:24.000Z</time>
      </trkpt>
      <trkpt lat="47.43318" lon="6.7156">
        <ele>451</ele>
        <time>2016-05-15T09:34:25.000Z</time>
      </trkpt>
      <trkpt lat="47.43323" lon="6.71566">
        <ele>451</ele>
        <time>2016-05-15T09:34:26.000Z</time>
      </trkpt>
      <trkpt lat="47.43329" lon="6.71573">
        <ele>450</ele>
        <time>2016-05-15T09:34:27.000Z</time>
      </trkpt>
      <trkpt lat="47.43333" lon="6.7158">
        <ele>449</ele>
        <time>2016-05-15T09:34:28.000Z</time>
      </trkpt>
      <trkpt lat="47.43338" lon="6.71588">
        <ele>448</ele>
        <time>2016-05-15T09:34:29.000Z</time>
      </trkpt>
      <trkpt lat="47.43343" lon="6.71595">
        <ele>447</ele>
        <time>2016-05-15T09:34:30.000Z</time>
      </trkpt>
      <trkpt lat="47.43347" lon="6.71603">
        <ele>447</ele>
        <time>2016-05-15T09:34:31.000Z</time>
      </trkpt>
      <trkpt lat="47.43352" lon="6.71611">
        <ele>447</ele>
        <time>2016-05-15T09:34:32.000Z</time>
      </trkpt>
      <trkpt lat="47.43358" lon="6.71618">
        <ele>447</ele>
        <time>2016-05-15T09:34:33.000Z</time>
      </trkpt>
      <trkpt lat="47.43362" lon="6.71626">
        <ele>447</ele>
        <time>2016-05-15T09:34:34.000Z</time>
      </trkpt>
      <trkpt lat="47.43367" lon="6.71634">
        <ele>447</ele>
        <time>2016-05-15T09:34:35.000Z</time>
      </trkpt>
      <trkpt lat="47.43372" lon="6.71642">
        <ele>447</ele>
        <time>2016-05-15T09:34:36.000Z</time>
      </trkpt>
      <trkpt lat="47.43378" lon="6.71651">
        <ele>446</ele>
        <time>2016-05-15T09:34:37.000Z</time>
      </trkpt>
      <trkpt lat="47.43383" lon="6.71658">
        <ele>446</ele>
        <time>2016-05-15T09:34:38.000Z</time>
      </trkpt>
      <trkpt lat="47.43388" lon="6.71665">
        <ele>446</ele>
        <time>2016-05-15T09:34:39.000Z</time>
      </trkpt>
      <trkpt lat="47.43393" lon="6.71673">
        <ele>446</ele>
        <time>2016-05-15T09:34:40.000Z</time>
      </trkpt>
      <trkpt lat="47.43396" lon="6.71681">
        <ele>446</ele>
        <time>2016-05-15T09:34:41.000Z</time>
      </trkpt>
      <trkpt lat="47.43399" lon="6.71689">
        <ele>446</ele>
        <time>2016-05-15T09:34:42.000Z</time>
      </trkpt>
      <trkpt lat="47.43405" lon="6.71697">
        <ele>446</ele>
        <time>2016-05-15T09:34:43.000Z</time>
      </trkpt>
      <trkpt lat="47.43411" lon="6.71704">
        <ele>446</ele>
        <time>2016-05-15T09:34:44.000Z</time>
      </trkpt>
      <trkpt lat="47.43416" lon="6.71713">
        <ele>446</ele>
        <time>2016-05-15T09:34:45.000Z</time>
      </trkpt>
      <trkpt lat="47.43421" lon="6.71721">
        <ele>443</ele>
        <time>2016-05-15T09:34:45.982Z</time>
      </trkpt>
      <trkpt lat="47.43426" lon="6.71731">
        <ele>444</ele>
        <time>2016-05-15T09:34:47.000Z</time>
      </trkpt>
      <trkpt lat="47.4343" lon="6.7174">
        <ele>444</ele>
        <time>2016-05-15T09:34:48.000Z</time>
      </trkpt>
      <trkpt lat="47.43434" lon="6.71749">
        <ele>444</ele>
        <time>2016-05-15T09:34:49.000Z</time>
      </trkpt>
      <trkpt lat="47.43437" lon="6.71758">
        <ele>444</ele>
        <time>2016-05-15T09:34:50.000Z</time>
      </trkpt>
      <trkpt lat="47.43441" lon="6.71767">
        <ele>444</ele>
        <time>2016-05-15T09:34:51.000Z</time>
      </trkpt>
      <trkpt lat="47.43443" lon="6.71775">
        <ele>444</ele>
        <time>2016-05-15T09:34:52.000Z</time>
      </trkpt>
      <trkpt lat="47.43445" lon="6.71785">
        <ele>444</ele>
        <time>2016-05-15T09:34:53.000Z</time>
      </trkpt>
      <trkpt lat="47.43448" lon="6.71794">
        <ele>444</ele>
        <time>2016-05-15T09:34:54.000Z</time>
      </trkpt>
      <trkpt lat="47.4345" lon="6.71802">
        <ele>444</ele>
        <time>2016-05-15T09:34:55.000Z</time>
      </trkpt>
      <trkpt lat="47.43452" lon="6.7181">
        <ele>444</ele>
        <time>2016-05-15T09:34:56.000Z</time>
      </trkpt>
      <trkpt lat="47.43454" lon="6.71818">
        <ele>444</ele>
        <time>2016-05-15T09:34:57.000Z</time>
      </trkpt>
      <trkpt lat="47.43456" lon="6.71826">
        <ele>444</ele>
        <time>2016-05-15T09:34:58.000Z</time>
      </trkpt>
      <trkpt lat="47.43458" lon="6.71833">
        <ele>444</ele>
        <time>2016-05-15T09:34:59.000Z</time>
      </trkpt>
      <trkpt lat="47.43459" lon="6.71841">
        <ele>446</ele>
        <time>2016-05-15T09:35:00.000Z</time>
      </trkpt>
      <trkpt lat="47.43462" lon="6.71848">
        <ele>446</ele>
        <time>2016-05-15T09:35:01.000Z</time>
      </trkpt>
      <trkpt lat="47.43464" lon="6.71855">
        <ele>446</ele>
        <time>2016-05-15T09:35:02.000Z</time>
      </trkpt>
      <trkpt lat="47.43467" lon="6.71863">
        <ele>447</ele>
        <time>2016-05-15T09:35:03.000Z</time>
      </trkpt>
      <trkpt lat="47.43468" lon="6.7187">
        <ele>447</ele>
        <time>2016-05-15T09:35:04.000Z</time>
      </trkpt>
      <trkpt lat="47.4347" lon="6.71878">
        <ele>447</ele>
        <time>2016-05-15T09:35:05.000Z</time>
      </trkpt>
      <trkpt lat="47.43472" lon="6.71884">
        <ele>447</ele>
        <time>2016-05-15T09:35:06.000Z</time>
      </trkpt>
      <trkpt lat="47.43473" lon="6.71891">
        <ele>447</ele>
        <time>2016-05-15T09:35:07.000Z</time>
      </trkpt>
      <trkpt lat="47.43475" lon="6.71899">
        <ele>447</ele>
        <time>2016-05-15T09:35:08.000Z</time>
      </trkpt>
      <trkpt lat="47.43476" lon="6.71905">
        <ele>447</ele>
        <time>2016-05-15T09:35:09.000Z</time>
      </trkpt>
      <trkpt lat="47.43478" lon="6.71912">
        <ele>447</ele>
        <time>2016-05-15T09:35:10.000Z</time>
      </trkpt>
      <trkpt lat="47.4348" lon="6.71919">
        <ele>449</ele>
        <time>2016-05-15T09:35:11.000Z</time>
      </trkpt>
      <trkpt lat="47.43481" lon="6.71926">
        <ele>449</ele>
        <time>2016-05-15T09:35:12.000Z</time>
      </trkpt>
      <trkpt lat="47.43483" lon="6.71933">
        <ele>449</ele>
        <time>2016-05-15T09:35:13.000Z</time>
      </trkpt>
      <trkpt lat="47.43485" lon="6.71939">
        <ele>450</ele>
        <time>2016-05-15T09:35:14.000Z</time>
      </trkpt>
      <trkpt lat="47.43486" lon="6.71945">
        <ele>450</ele>
        <time>2016-05-15T09:35:15.000Z</time>
      </trkpt>
      <trkpt lat="47.43486" lon="6.71952">
        <ele>450</ele>
        <time>2016-05-15T09:35:16.000Z</time>
      </trkpt>
      <trkpt lat="47.43488" lon="6.71958">
        <ele>451</ele>
        <time>2016-05-15T09:35:17.000Z</time>
      </trkpt>
      <trkpt lat="47.43489" lon="6.71963">
        <ele>451</ele>
        <time>2016-05-15T09:35:18.000Z</time>
      </trkpt>
      <trkpt lat="47.43491" lon="6.71968">
        <ele>451</ele>
        <time>2016-05-15T09:35:19.000Z</time>
      </trkpt>
      <trkpt lat="47.43492" lon="6.71974">
        <ele>451</ele>
        <time>2016-05-15T09:35:20.000Z</time>
      </trkpt>
      <trkpt lat="47.43494" lon="6.71979">
        <ele>451</ele>
        <time>2016-05-15T09:35:21.000Z</time>
      </trkpt>
      <trkpt lat="47.43495" lon="6.71984">
        <ele>451</ele>
        <time>2016-05-15T09:35:22.000Z</time>
      </trkpt>
      <trkpt lat="47.43496" lon="6.71989">
        <ele>451</ele>
        <time>2016-05-15T09:35:23.000Z</time>
      </trkpt>
      <trkpt lat="47.43497" lon="6.71993">
        <ele>451</ele>
        <time>2016-05-15T09:35:24.000Z</time>
      </trkpt>
      <trkpt lat="47.43498" lon="6.71999">
        <ele>451</ele>
        <time>2016-05-15T09:35:25.000Z</time>
      </trkpt>
      <trkpt lat="47.435" lon="6.72003">
        <ele>451</ele>
        <time>2016-05-15T09:35:26.000Z</time>
      </trkpt>
      <trkpt lat="47.43501" lon="6.72008">
        <ele>451</ele>
        <time>2016-05-15T09:35:27.000Z</time>
      </trkpt>
      <trkpt lat="47.43503" lon="6.72012">
        <ele>451</ele>
        <time>2016-05-15T09:35:28.000Z</time>
      </trkpt>
      <trkpt lat="47.43504" lon="6.72017">
        <ele>451</ele>
        <time>2016-05-15T09:35:29.000Z</time>
      </trkpt>
      <trkpt lat="47.43506" lon="6.72022">
        <ele>451</ele>
        <time>2016-05-15T09:35:30.000Z</time>
      </trkpt>
      <trkpt lat="47.43507" lon="6.72027">
        <ele>451</ele>
        <time>2016-05-15T09:35:31.000Z</time>
      </trkpt>
      <trkpt lat="47.43509" lon="6.72032">
        <ele>451</ele>
        <time>2016-05-15T09:35:32.000Z</time>
      </trkpt>
      <trkpt lat="47.4351" lon="6.72038">
        <ele>451</ele>
        <time>2016-05-15T09:35:33.000Z</time>
      </trkpt>
      <trkpt lat="47.43511" lon="6.72043">
        <ele>452</ele>
        <time>2016-05-15T09:35:34.000Z</time>
      </trkpt>
      <trkpt lat="47.43513" lon="6.72048">
        <ele>452</ele>
        <time>2016-05-15T09:35:35.000Z</time>
      </trkpt>
      <trkpt lat="47.43514" lon="6.72053">
        <ele>452</ele>
        <time>2016-05-15T09:35:36.000Z</time>
      </trkpt>
      <trkpt lat="47.43516" lon="6.72057">
        <ele>452</ele>
        <time>2016-05-15T09:35:37.000Z</time>
      </trkpt>
      <trkpt lat="47.43518" lon="6.72062">
        <ele>452</ele>
        <time>2016-05-15T09:35:38.000Z</time>
      </trkpt>
      <trkpt lat="47.43521" lon="6.72067">
        <ele>452</ele>
        <time>2016-05-15T09:35:39.000Z</time>
      </trkpt>
      <trkpt lat="47.43523" lon="6.72072">
        <ele>452</ele>
        <time>2016-05-15T09:35:40.000Z</time>
      </trkpt>
      <trkpt lat="47.43524" lon="6.72077">
        <ele>452</ele>
        <time>2016-05-15T09:35:41.000Z</time>
      </trkpt>
      <trkpt lat="47.43526" lon="6.72084">
        <ele>454</ele>
        <time>2016-05-15T09:35:42.000Z</time>
      </trkpt>
      <trkpt lat="47.43528" lon="6.72089">
        <ele>454</ele>
        <time>2016-05-15T09:35:43.000Z</time>
      </trkpt>
      <trkpt lat="47.43529" lon="6.72095">
        <ele>454</ele>
        <time>2016-05-15T09:35:44.000Z</time>
      </trkpt>
      <trkpt lat="47.43531" lon="6.72101">
        <ele>454</ele>
        <time>2016-05-15T09:35:45.001Z</time>
      </trkpt>
      <trkpt lat="47.43533" lon="6.72106">
        <ele>454</ele>
        <time>2016-05-15T09:35:46.000Z</time>
      </trkpt>
      <trkpt lat="47.43535" lon="6.72111">
        <ele>454</ele>
        <time>2016-05-15T09:35:47.000Z</time>
      </trkpt>
      <trkpt lat="47.43537" lon="6.72115">
        <ele>454</ele>
        <time>2016-05-15T09:35:48.000Z</time>
      </trkpt>
      <trkpt lat="47.4354" lon="6.72119">
        <ele>454</ele>
        <time>2016-05-15T09:35:49.000Z</time>
      </trkpt>
      <trkpt lat="47.43542" lon="6.72122">
        <ele>454</ele>
        <time>2016-05-15T09:35:50.001Z</time>
      </trkpt>
      <trkpt lat="47.43546" lon="6.72128">
        <ele>454</ele>
        <time>2016-05-15T09:35:51.000Z</time>
      </trkpt>
      <trkpt lat="47.43548" lon="6.72133">
        <ele>454</ele>
        <time>2016-05-15T09:35:52.000Z</time>
      </trkpt>
      <trkpt lat="47.4355" lon="6.72137">
        <ele>454</ele>
        <time>2016-05-15T09:35:53.000Z</time>
      </trkpt>
      <trkpt lat="47.43552" lon="6.72142">
        <ele>454</ele>
        <time>2016-05-15T09:35:54.000Z</time>
      </trkpt>
      <trkpt lat="47.43553" lon="6.72147">
        <ele>455</ele>
        <time>2016-05-15T09:35:55.000Z</time>
      </trkpt>
      <trkpt lat="47.43555" lon="6.72152">
        <ele>455</ele>
        <time>2016-05-15T09:35:56.000Z</time>
      </trkpt>
      <trkpt lat="47.43557" lon="6.72156">
        <ele>455</ele>
        <time>2016-05-15T09:35:57.000Z</time>
      </trkpt>
      <trkpt lat="47.43558" lon="6.7216">
        <ele>455</ele>
        <time>2016-05-15T09:35:58.000Z</time>
      </trkpt>
      <trkpt lat="47.4356" lon="6.72165">
        <ele>455</ele>
        <time>2016-05-15T09:35:59.000Z</time>
      </trkpt>
      <trkpt lat="47.43561" lon="6.72169">
        <ele>457</ele>
        <time>2016-05-15T09:36:00.000Z</time>
      </trkpt>
      <trkpt lat="47.43563" lon="6.72173">
        <ele>457</ele>
        <time>2016-05-15T09:36:01.000Z</time>
      </trkpt>
      <trkpt lat="47.43564" lon="6.72177">
        <ele>457</ele>
        <time>2016-05-15T09:36:02.000Z</time>
      </trkpt>
      <trkpt lat="47.43566" lon="6.72181">
        <ele>457</ele>
        <time>2016-05-15T09:36:03.000Z</time>
      </trkpt>
      <trkpt lat="47.43567" lon="6.72185">
        <ele>457</ele>
        <time>2016-05-15T09:36:04.000Z</time>
      </trkpt>
      <trkpt lat="47.43569" lon="6.72188">
        <ele>457</ele>
        <time>2016-05-15T09:36:05.000Z</time>
      </trkpt>
      <trkpt lat="47.4357" lon="6.72192">
        <ele>457</ele>
        <time>2016-05-15T09:36:06.000Z</time>
      </trkpt>
      <trkpt lat="47.43572" lon="6.72195">
        <ele>458</ele>
        <time>2016-05-15T09:36:07.000Z</time>
      </trkpt>
      <trkpt lat="47.43573" lon="6.72199">
        <ele>458</ele>
        <time>2016-05-15T09:36:08.000Z</time>
      </trkpt>
      <trkpt lat="47.43574" lon="6.72202">
        <ele>458</ele>
        <time>2016-05-15T09:36:09.000Z</time>
      </trkpt>
      <trkpt lat="47.43576" lon="6.72206">
        <ele>458</ele>
        <time>2016-05-15T09:36:10.001Z</time>
      </trkpt>
      <trkpt lat="47.43578" lon="6.7221">
        <ele>458</ele>
        <time>2016-05-15T09:36:11.000Z</time>
      </trkpt>
      <trkpt lat="47.4358" lon="6.72213">
        <ele>458</ele>
        <time>2016-05-15T09:36:12.000Z</time>
      </trkpt>
      <trkpt lat="47.43581" lon="6.72217">
        <ele>459</ele>
        <time>2016-05-15T09:36:13.000Z</time>
      </trkpt>
      <trkpt lat="47.43582" lon="6.72221">
        <ele>459</ele>
        <time>2016-05-15T09:36:14.000Z</time>
      </trkpt>
      <trkpt lat="47.43584" lon="6.72224">
        <ele>458</ele>
        <time>2016-05-15T09:36:15.000Z</time>
      </trkpt>
      <trkpt lat="47.43585" lon="6.72228">
        <ele>458</ele>
        <time>2016-05-15T09:36:16.000Z</time>
      </trkpt>
      <trkpt lat="47.43587" lon="6.72231">
        <ele>458</ele>
        <time>2016-05-15T09:36:17.000Z</time>
      </trkpt>
      <trkpt lat="47.43589" lon="6.72235">
        <ele>459</ele>
        <time>2016-05-15T09:36:18.000Z</time>
      </trkpt>
      <trkpt lat="47.4359" lon="6.72237">
        <ele>459</ele>
        <time>2016-05-15T09:36:19.000Z</time>
      </trkpt>
      <trkpt lat="47.43593" lon="6.72242">
        <ele>459</ele>
        <time>2016-05-15T09:36:21.000Z</time>
      </trkpt>
      <trkpt lat="47.43595" lon="6.72245">
        <ele>459</ele>
        <time>2016-05-15T09:36:22.000Z</time>
      </trkpt>
      <trkpt lat="47.43597" lon="6.72248">
        <ele>459</ele>
        <time>2016-05-15T09:36:23.000Z</time>
      </trkpt>
      <trkpt lat="47.43599" lon="6.72251">
        <ele>460</ele>
        <time>2016-05-15T09:36:24.000Z</time>
      </trkpt>
      <trkpt lat="47.43601" lon="6.72254">
        <ele>460</ele>
        <time>2016-05-15T09:36:25.000Z</time>
      </trkpt>
      <trkpt lat="47.43603" lon="6.72257">
        <ele>460</ele>
        <time>2016-05-15T09:36:26.000Z</time>
      </trkpt>
      <trkpt lat="47.43605" lon="6.7226">
        <ele>461</ele>
        <time>2016-05-15T09:36:27.000Z</time>
      </trkpt>
      <trkpt lat="47.43607" lon="6.72264">
        <ele>461</ele>
        <time>2016-05-15T09:36:28.000Z</time>
      </trkpt>
      <trkpt lat="47.43609" lon="6.72267">
        <ele>461</ele>
        <time>2016-05-15T09:36:29.000Z</time>
      </trkpt>
      <trkpt lat="47.43611" lon="6.72271">
        <ele>461</ele>
        <time>2016-05-15T09:36:30.000Z</time>
      </trkpt>
      <trkpt lat="47.43612" lon="6.72274">
        <ele>461</ele>
        <time>2016-05-15T09:36:31.000Z</time>
      </trkpt>
      <trkpt lat="47.43614" lon="6.72278">
        <ele>461</ele>
        <time>2016-05-15T09:36:32.000Z</time>
      </trkpt>
      <trkpt lat="47.43616" lon="6.72281">
        <ele>461</ele>
        <time>2016-05-15T09:36:33.000Z</time>
      </trkpt>
      <trkpt lat="47.43618" lon="6.72284">
        <ele>461</ele>
        <time>2016-05-15T09:36:34.000Z</time>
      </trkpt>
      <trkpt lat="47.43621" lon="6.72288">
        <ele>461</ele>
        <time>2016-05-15T09:36:35.000Z</time>
      </trkpt>
      <trkpt lat="47.43623" lon="6.72291">
        <ele>461</ele>
        <time>2016-05-15T09:36:36.000Z</time>
      </trkpt>
      <trkpt lat="47.43626" lon="6.72295">
        <ele>461</ele>
        <time>2016-05-15T09:36:37.000Z</time>
      </trkpt>
      <trkpt lat="47.43628" lon="6.72299">
        <ele>461</ele>
        <time>2016-05-15T09:36:38.000Z</time>
      </trkpt>
      <trkpt lat="47.43631" lon="6.72303">
        <ele>461</ele>
        <time>2016-05-15T09:36:39.000Z</time>
      </trkpt>
      <trkpt lat="47.43633" lon="6.72307">
        <ele>461</ele>
        <time>2016-05-15T09:36:40.000Z</time>
      </trkpt>
      <trkpt lat="47.43636" lon="6.72311">
        <ele>461</ele>
        <time>2016-05-15T09:36:41.000Z</time>
      </trkpt>
      <trkpt lat="47.43639" lon="6.72315">
        <ele>461</ele>
        <time>2016-05-15T09:36:42.000Z</time>
      </trkpt>
      <trkpt lat="47.43641" lon="6.7232">
        <ele>461</ele>
        <time>2016-05-15T09:36:43.000Z</time>
      </trkpt>
      <trkpt lat="47.43644" lon="6.72324">
        <ele>461</ele>
        <time>2016-05-15T09:36:44.000Z</time>
      </trkpt>
      <trkpt lat="47.43648" lon="6.72328">
        <ele>461</ele>
        <time>2016-05-15T09:36:45.000Z</time>
      </trkpt>
      <trkpt lat="47.43651" lon="6.72332">
        <ele>461</ele>
        <time>2016-05-15T09:36:46.000Z</time>
      </trkpt>
      <trkpt lat="47.43653" lon="6.72336">
        <ele>462</ele>
        <time>2016-05-15T09:36:47.000Z</time>
      </trkpt>
      <trkpt lat="47.43656" lon="6.7234">
        <ele>462</ele>
        <time>2016-05-15T09:36:48.000Z</time>
      </trkpt>
      <trkpt lat="47.43658" lon="6.72343">
        <ele>462</ele>
        <time>2016-05-15T09:36:49.000Z</time>
      </trkpt>
      <trkpt lat="47.43661" lon="6.72347">
        <ele>462</ele>
        <time>2016-05-15T09:36:50.000Z</time>
      </trkpt>
      <trkpt lat="47.43663" lon="6.72349">
        <ele>462</ele>
        <time>2016-05-15T09:36:51.000Z</time>
      </trkpt>
      <trkpt lat="47.43666" lon="6.72351">
        <ele>462</ele>
        <time>2016-05-15T09:36:52.000Z</time>
      </trkpt>
      <trkpt lat="47.4367" lon="6.72351">
        <ele>461</ele>
        <time>2016-05-15T09:36:53.000Z</time>
      </trkpt>
      <trkpt lat="47.43674" lon="6.72349">
        <ele>461</ele>
        <time>2016-05-15T09:36:54.000Z</time>
      </trkpt>
      <trkpt lat="47.43679" lon="6.72346">
        <ele>461</ele>
        <time>2016-05-15T09:36:55.000Z</time>
      </trkpt>
      <trkpt lat="47.43683" lon="6.72342">
        <ele>461</ele>
        <time>2016-05-15T09:36:56.000Z</time>
      </trkpt>
      <trkpt lat="47.43687" lon="6.72338">
        <ele>461</ele>
        <time>2016-05-15T09:36:57.000Z</time>
      </trkpt>
      <trkpt lat="47.43691" lon="6.72334">
        <ele>461</ele>
        <time>2016-05-15T09:36:58.000Z</time>
      </trkpt>
      <trkpt lat="47.43695" lon="6.72331">
        <ele>460</ele>
        <time>2016-05-15T09:36:59.000Z</time>
      </trkpt>
      <trkpt lat="47.43699" lon="6.72327">
        <ele>460</ele>
        <time>2016-05-15T09:37:00.000Z</time>
      </trkpt>
      <trkpt lat="47.43703" lon="6.72324">
        <ele>460</ele>
        <time>2016-05-15T09:37:01.000Z</time>
      </trkpt>
      <trkpt lat="47.43709" lon="6.72319">
        <ele>460</ele>
        <time>2016-05-15T09:37:02.000Z</time>
      </trkpt>
      <trkpt lat="47.43713" lon="6.72316">
        <ele>460</ele>
        <time>2016-05-15T09:37:03.000Z</time>
      </trkpt>
      <trkpt lat="47.43717" lon="6.72313">
        <ele>460</ele>
        <time>2016-05-15T09:37:04.000Z</time>
      </trkpt>
      <trkpt lat="47.43722" lon="6.7231">
        <ele>460</ele>
        <time>2016-05-15T09:37:05.000Z</time>
      </trkpt>
      <trkpt lat="47.43726" lon="6.72306">
        <ele>460</ele>
        <time>2016-05-15T09:37:06.000Z</time>
      </trkpt>
      <trkpt lat="47.4373" lon="6.72304">
        <ele>460</ele>
        <time>2016-05-15T09:37:07.000Z</time>
      </trkpt>
      <trkpt lat="47.43734" lon="6.72303">
        <ele>460</ele>
        <time>2016-05-15T09:37:08.000Z</time>
      </trkpt>
      <trkpt lat="47.43738" lon="6.72303">
        <ele>460</ele>
        <time>2016-05-15T09:37:09.000Z</time>
      </trkpt>
      <trkpt lat="47.43742" lon="6.72306">
        <ele>460</ele>
        <time>2016-05-15T09:37:10.000Z</time>
      </trkpt>
      <trkpt lat="47.43746" lon="6.7231">
        <ele>460</ele>
        <time>2016-05-15T09:37:11.000Z</time>
      </trkpt>
      <trkpt lat="47.43749" lon="6.72313">
        <ele>460</ele>
        <time>2016-05-15T09:37:12.000Z</time>
      </trkpt>
      <trkpt lat="47.43751" lon="6.72318">
        <ele>460</ele>
        <time>2016-05-15T09:37:13.000Z</time>
      </trkpt>
      <trkpt lat="47.43754" lon="6.72322">
        <ele>460</ele>
        <time>2016-05-15T09:37:14.000Z</time>
      </trkpt>
      <trkpt lat="47.43757" lon="6.72327">
        <ele>460</ele>
        <time>2016-05-15T09:37:15.000Z</time>
      </trkpt>
      <trkpt lat="47.43759" lon="6.72331">
        <ele>460</ele>
        <time>2016-05-15T09:37:16.000Z</time>
      </trkpt>
      <trkpt lat="47.43762" lon="6.72335">
        <ele>461</ele>
        <time>2016-05-15T09:37:17.000Z</time>
      </trkpt>
      <trkpt lat="47.43765" lon="6.7234">
        <ele>461</ele>
        <time>2016-05-15T09:37:18.000Z</time>
      </trkpt>
      <trkpt lat="47.43768" lon="6.72344">
        <ele>461</ele>
        <time>2016-05-15T09:37:19.001Z</time>
      </trkpt>
      <trkpt lat="47.4377" lon="6.72348">
        <ele>461</ele>
        <time>2016-05-15T09:37:20.000Z</time>
      </trkpt>
      <trkpt lat="47.43771" lon="6.72352">
        <ele>461</ele>
        <time>2016-05-15T09:37:21.000Z</time>
      </trkpt>
      <trkpt lat="47.43774" lon="6.72356">
        <ele>461</ele>
        <time>2016-05-15T09:37:22.000Z</time>
      </trkpt>
      <trkpt lat="47.43778" lon="6.7236">
        <ele>461</ele>
        <time>2016-05-15T09:37:23.000Z</time>
      </trkpt>
      <trkpt lat="47.43781" lon="6.72363">
        <ele>461</ele>
        <time>2016-05-15T09:37:24.000Z</time>
      </trkpt>
      <trkpt lat="47.43784" lon="6.72366">
        <ele>461</ele>
        <time>2016-05-15T09:37:25.000Z</time>
      </trkpt>
      <trkpt lat="47.43787" lon="6.7237">
        <ele>461</ele>
        <time>2016-05-15T09:37:26.000Z</time>
      </trkpt>
      <trkpt lat="47.4379" lon="6.72374">
        <ele>461</ele>
        <time>2016-05-15T09:37:27.000Z</time>
      </trkpt>
      <trkpt lat="47.43794" lon="6.72378">
        <ele>462</ele>
        <time>2016-05-15T09:37:28.000Z</time>
      </trkpt>
      <trkpt lat="47.43798" lon="6.72382">
        <ele>462</ele>
        <time>2016-05-15T09:37:29.000Z</time>
      </trkpt>
      <trkpt lat="47.43802" lon="6.72384">
        <ele>462</ele>
        <time>2016-05-15T09:37:30.000Z</time>
      </trkpt>
      <trkpt lat="47.43805" lon="6.72388">
        <ele>462</ele>
        <time>2016-05-15T09:37:31.000Z</time>
      </trkpt>
      <trkpt lat="47.43809" lon="6.72392">
        <ele>462</ele>
        <time>2016-05-15T09:37:32.000Z</time>
      </trkpt>
      <trkpt lat="47.43812" lon="6.72396">
        <ele>462</ele>
        <time>2016-05-15T09:37:33.000Z</time>
      </trkpt>
      <trkpt lat="47.43816" lon="6.724">
        <ele>462</ele>
        <time>2016-05-15T09:37:34.000Z</time>
      </trkpt>
      <trkpt lat="47.43819" lon="6.72404">
        <ele>462</ele>
        <time>2016-05-15T09:37:35.000Z</time>
      </trkpt>
      <trkpt lat="47.43823" lon="6.72408">
        <ele>462</ele>
        <time>2016-05-15T09:37:36.000Z</time>
      </trkpt>
      <trkpt lat="47.43827" lon="6.72412">
        <ele>462</ele>
        <time>2016-05-15T09:37:37.000Z</time>
      </trkpt>
      <trkpt lat="47.4383" lon="6.72416">
        <ele>462</ele>
        <time>2016-05-15T09:37:38.000Z</time>
      </trkpt>
      <trkpt lat="47.43834" lon="6.7242">
        <ele>462</ele>
        <time>2016-05-15T09:37:39.000Z</time>
      </trkpt>
      <trkpt lat="47.43838" lon="6.72424">
        <ele>462</ele>
        <time>2016-05-15T09:37:40.000Z</time>
      </trkpt>
      <trkpt lat="47.43842" lon="6.72428">
        <ele>462</ele>
        <time>2016-05-15T09:37:41.000Z</time>
      </trkpt>
      <trkpt lat="47.43847" lon="6.72432">
        <ele>462</ele>
        <time>2016-05-15T09:37:42.000Z</time>
      </trkpt>
      <trkpt lat="47.43851" lon="6.72436">
        <ele>463</ele>
        <time>2016-05-15T09:37:43.000Z</time>
      </trkpt>
      <trkpt lat="47.43855" lon="6.72441">
        <ele>463</ele>
        <time>2016-05-15T09:37:44.000Z</time>
      </trkpt>
      <trkpt lat="47.43859" lon="6.72445">
        <ele>463</ele>
        <time>2016-05-15T09:37:45.000Z</time>
      </trkpt>
      <trkpt lat="47.43863" lon="6.72449">
        <ele>463</ele>
        <time>2016-05-15T09:37:46.000Z</time>
      </trkpt>
      <trkpt lat="47.43867" lon="6.72454">
        <ele>463</ele>
        <time>2016-05-15T09:37:47.000Z</time>
      </trkpt>
      <trkpt lat="47.43872" lon="6.72457">
        <ele>463</ele>
        <time>2016-05-15T09:37:48.000Z</time>
      </trkpt>
      <trkpt lat="47.43877" lon="6.72461">
        <ele>463</ele>
        <time>2016-05-15T09:37:49.000Z</time>
      </trkpt>
      <trkpt lat="47.43881" lon="6.72466">
        <ele>463</ele>
        <time>2016-05-15T09:37:50.000Z</time>
      </trkpt>
      <trkpt lat="47.43884" lon="6.7247">
        <ele>463</ele>
        <time>2016-05-15T09:37:51.000Z</time>
      </trkpt>
      <trkpt lat="47.43887" lon="6.72475">
        <ele>463</ele>
        <time>2016-05-15T09:37:52.000Z</time>
      </trkpt>
      <trkpt lat="47.43893" lon="6.72477">
        <ele>463</ele>
        <time>2016-05-15T09:37:53.000Z</time>
      </trkpt>
      <trkpt lat="47.43897" lon="6.72481">
        <ele>463</ele>
        <time>2016-05-15T09:37:54.000Z</time>
      </trkpt>
      <trkpt lat="47.43901" lon="6.72484">
        <ele>463</ele>
        <time>2016-05-15T09:37:55.000Z</time>
      </trkpt>
      <trkpt lat="47.43905" lon="6.72487">
        <ele>463</ele>
        <time>2016-05-15T09:37:56.000Z</time>
      </trkpt>
      <trkpt lat="47.43909" lon="6.72491">
        <ele>463</ele>
        <time>2016-05-15T09:37:57.000Z</time>
      </trkpt>
      <trkpt lat="47.43913" lon="6.72494">
        <ele>463</ele>
        <time>2016-05-15T09:37:58.000Z</time>
      </trkpt>
      <trkpt lat="47.43917" lon="6.72497">
        <ele>463</ele>
        <time>2016-05-15T09:37:59.000Z</time>
      </trkpt>
      <trkpt lat="47.43921" lon="6.72499">
        <ele>463</ele>
        <time>2016-05-15T09:38:00.000Z</time>
      </trkpt>
      <trkpt lat="47.43926" lon="6.72501">
        <ele>463</ele>
        <time>2016-05-15T09:38:01.000Z</time>
      </trkpt>
      <trkpt lat="47.4393" lon="6.72502">
        <ele>463</ele>
        <time>2016-05-15T09:38:02.000Z</time>
      </trkpt>
      <trkpt lat="47.43935" lon="6.72504">
        <ele>463</ele>
        <time>2016-05-15T09:38:03.000Z</time>
      </trkpt>
      <trkpt lat="47.4394" lon="6.72504">
        <ele>463</ele>
        <time>2016-05-15T09:38:04.000Z</time>
      </trkpt>
      <trkpt lat="47.43946" lon="6.72502">
        <ele>463</ele>
        <time>2016-05-15T09:38:05.000Z</time>
      </trkpt>
      <trkpt lat="47.43951" lon="6.72501">
        <ele>463</ele>
        <time>2016-05-15T09:38:06.000Z</time>
      </trkpt>
      <trkpt lat="47.43956" lon="6.725">
        <ele>464</ele>
        <time>2016-05-15T09:38:07.000Z</time>
      </trkpt>
      <trkpt lat="47.4396" lon="6.72498">
        <ele>464</ele>
        <time>2016-05-15T09:38:08.000Z</time>
      </trkpt>
      <trkpt lat="47.43965" lon="6.72496">
        <ele>464</ele>
        <time>2016-05-15T09:38:09.000Z</time>
      </trkpt>
      <trkpt lat="47.4397" lon="6.72494">
        <ele>464</ele>
        <time>2016-05-15T09:38:10.000Z</time>
      </trkpt>
      <trkpt lat="47.43975" lon="6.72493">
        <ele>464</ele>
        <time>2016-05-15T09:38:11.000Z</time>
      </trkpt>
      <trkpt lat="47.4398" lon="6.72491">
        <ele>464</ele>
        <time>2016-05-15T09:38:12.000Z</time>
      </trkpt>
      <trkpt lat="47.43985" lon="6.72489">
        <ele>464</ele>
        <time>2016-05-15T09:38:13.000Z</time>
      </trkpt>
      <trkpt lat="47.4399" lon="6.72487">
        <ele>464</ele>
        <time>2016-05-15T09:38:14.000Z</time>
      </trkpt>
      <trkpt lat="47.43994" lon="6.72486">
        <ele>464</ele>
        <time>2016-05-15T09:38:15.000Z</time>
      </trkpt>
      <trkpt lat="47.43999" lon="6.72484">
        <ele>464</ele>
        <time>2016-05-15T09:38:16.000Z</time>
      </trkpt>
      <trkpt lat="47.44004" lon="6.72482">
        <ele>466</ele>
        <time>2016-05-15T09:38:17.000Z</time>
      </trkpt>
      <trkpt lat="47.44009" lon="6.7248">
        <ele>466</ele>
        <time>2016-05-15T09:38:18.000Z</time>
      </trkpt>
      <trkpt lat="47.44015" lon="6.72478">
        <ele>466</ele>
        <time>2016-05-15T09:38:19.000Z</time>
      </trkpt>
      <trkpt lat="47.44019" lon="6.72476">
        <ele>466</ele>
        <time>2016-05-15T09:38:20.000Z</time>
      </trkpt>
      <trkpt lat="47.44025" lon="6.72473">
        <ele>466</ele>
        <time>2016-05-15T09:38:21.000Z</time>
      </trkpt>
      <trkpt lat="47.4403" lon="6.72472">
        <ele>467</ele>
        <time>2016-05-15T09:38:22.000Z</time>
      </trkpt>
      <trkpt lat="47.44034" lon="6.7247">
        <ele>467</ele>
        <time>2016-05-15T09:38:23.000Z</time>
      </trkpt>
      <trkpt lat="47.44039" lon="6.72468">
        <ele>467</ele>
        <time>2016-05-15T09:38:24.000Z</time>
      </trkpt>
      <trkpt lat="47.44044" lon="6.72467">
        <ele>467</ele>
        <time>2016-05-15T09:38:25.000Z</time>
      </trkpt>
      <trkpt lat="47.44049" lon="6.72466">
        <ele>467</ele>
        <time>2016-05-15T09:38:26.000Z</time>
      </trkpt>
      <trkpt lat="47.44053" lon="6.72465">
        <ele>467</ele>
        <time>2016-05-15T09:38:27.000Z</time>
      </trkpt>
      <trkpt lat="47.44058" lon="6.72463">
        <ele>468</ele>
        <time>2016-05-15T09:38:28.000Z</time>
      </trkpt>
      <trkpt lat="47.44062" lon="6.72462">
        <ele>468</ele>
        <time>2016-05-15T09:38:29.000Z</time>
      </trkpt>
      <trkpt lat="47.44066" lon="6.72459">
        <ele>468</ele>
        <time>2016-05-15T09:38:30.000Z</time>
      </trkpt>
      <trkpt lat="47.44071" lon="6.72457">
        <ele>468</ele>
        <time>2016-05-15T09:38:31.000Z</time>
      </trkpt>
      <trkpt lat="47.44074" lon="6.72457">
        <ele>468</ele>
        <time>2016-05-15T09:38:32.000Z</time>
      </trkpt>
      <trkpt lat="47.44076" lon="6.72457">
        <ele>468</ele>
        <time>2016-05-15T09:38:33.000Z</time>
      </trkpt>
      <trkpt lat="47.4408" lon="6.72456">
        <ele>468</ele>
        <time>2016-05-15T09:38:35.000Z</time>
      </trkpt>
      <trkpt lat="47.44082" lon="6.72455">
        <ele>468</ele>
        <time>2016-05-15T09:38:36.000Z</time>
      </trkpt>
      <trkpt lat="47.44086" lon="6.72456">
        <ele>473</ele>
        <time>2016-05-15T09:38:39.000Z</time>
      </trkpt>
      <trkpt lat="47.44088" lon="6.72456">
        <ele>473</ele>
        <time>2016-05-15T09:38:40.000Z</time>
      </trkpt>
      <trkpt lat="47.4409" lon="6.72455">
        <ele>473</ele>
        <time>2016-05-15T09:38:41.000Z</time>
      </trkpt>
      <trkpt lat="47.44092" lon="6.72454">
        <ele>473</ele>
        <time>2016-05-15T09:38:42.000Z</time>
      </trkpt>
      <trkpt lat="47.44094" lon="6.72453">
        <ele>473</ele>
        <time>2016-05-15T09:38:43.000Z</time>
      </trkpt>
      <trkpt lat="47.44097" lon="6.72452">
        <ele>473</ele>
        <time>2016-05-15T09:38:44.000Z</time>
      </trkpt>
      <trkpt lat="47.44099" lon="6.72451">
        <ele>473</ele>
        <time>2016-05-15T09:38:45.000Z</time>
      </trkpt>
      <trkpt lat="47.44101" lon="6.72451">
        <ele>474</ele>
        <time>2016-05-15T09:38:46.000Z</time>
      </trkpt>
      <trkpt lat="47.44104" lon="6.7245">
        <ele>474</ele>
        <time>2016-05-15T09:38:47.000Z</time>
      </trkpt>
      <trkpt lat="47.44107" lon="6.7245">
        <ele>474</ele>
        <time>2016-05-15T09:38:48.000Z</time>
      </trkpt>
      <trkpt lat="47.4411" lon="6.7245">
        <ele>474</ele>
        <time>2016-05-15T09:38:49.000Z</time>
      </trkpt>
      <trkpt lat="47.44113" lon="6.72451">
        <ele>474</ele>
        <time>2016-05-15T09:38:50.000Z</time>
      </trkpt>
      <trkpt lat="47.44116" lon="6.72452">
        <ele>474</ele>
        <time>2016-05-15T09:38:51.000Z</time>
      </trkpt>
      <trkpt lat="47.44118" lon="6.72453">
        <ele>474</ele>
        <time>2016-05-15T09:38:52.000Z</time>
      </trkpt>
      <trkpt lat="47.44121" lon="6.72454">
        <ele>475</ele>
        <time>2016-05-15T09:38:53.000Z</time>
      </trkpt>
      <trkpt lat="47.44124" lon="6.72455">
        <ele>475</ele>
        <time>2016-05-15T09:38:54.000Z</time>
      </trkpt>
      <trkpt lat="47.44128" lon="6.72456">
        <ele>475</ele>
        <time>2016-05-15T09:38:56.000Z</time>
      </trkpt>
      <trkpt lat="47.4413" lon="6.72456">
        <ele>475</ele>
        <time>2016-05-15T09:38:57.000Z</time>
      </trkpt>
      <trkpt lat="47.44134" lon="6.72457">
        <ele>475</ele>
        <time>2016-05-15T09:38:59.000Z</time>
      </trkpt>
      <trkpt lat="47.44136" lon="6.72457">
        <ele>475</ele>
        <time>2016-05-15T09:39:00.000Z</time>
      </trkpt>
      <trkpt lat="47.44138" lon="6.72457">
        <ele>476</ele>
        <time>2016-05-15T09:39:01.000Z</time>
      </trkpt>
      <trkpt lat="47.44141" lon="6.72457">
        <ele>476</ele>
        <time>2016-05-15T09:39:02.000Z</time>
      </trkpt>
      <trkpt lat="47.44144" lon="6.72456">
        <ele>476</ele>
        <time>2016-05-15T09:39:03.000Z</time>
      </trkpt>
      <trkpt lat="47.44148" lon="6.72455">
        <ele>476</ele>
        <time>2016-05-15T09:39:04.000Z</time>
      </trkpt>
      <trkpt lat="47.44152" lon="6.72455">
        <ele>476</ele>
        <time>2016-05-15T09:39:05.000Z</time>
      </trkpt>
      <trkpt lat="47.44156" lon="6.72455">
        <ele>476</ele>
        <time>2016-05-15T09:39:06.000Z</time>
      </trkpt>
      <trkpt lat="47.4416" lon="6.72455">
        <ele>477</ele>
        <time>2016-05-15T09:39:07.000Z</time>
      </trkpt>
      <trkpt lat="47.44163" lon="6.72455">
        <ele>477</ele>
        <time>2016-05-15T09:39:08.000Z</time>
      </trkpt>
      <trkpt lat="47.44166" lon="6.72455">
        <ele>477</ele>
        <time>2016-05-15T09:39:09.000Z</time>
      </trkpt>
      <trkpt lat="47.44169" lon="6.72454">
        <ele>481</ele>
        <time>2016-05-15T09:39:10.000Z</time>
      </trkpt>
      <trkpt lat="47.44172" lon="6.72453">
        <ele>481</ele>
        <time>2016-05-15T09:39:11.000Z</time>
      </trkpt>
      <trkpt lat="47.44176" lon="6.72452">
        <ele>481</ele>
        <time>2016-05-15T09:39:12.000Z</time>
      </trkpt>
      <trkpt lat="47.44179" lon="6.72451">
        <ele>481</ele>
        <time>2016-05-15T09:39:13.000Z</time>
      </trkpt>
      <trkpt lat="47.44182" lon="6.72449">
        <ele>481</ele>
        <time>2016-05-15T09:39:14.000Z</time>
      </trkpt>
      <trkpt lat="47.44186" lon="6.72449">
        <ele>481</ele>
        <time>2016-05-15T09:39:15.000Z</time>
      </trkpt>
      <trkpt lat="47.4419" lon="6.72448">
        <ele>481</ele>
        <time>2016-05-15T09:39:16.000Z</time>
      </trkpt>
      <trkpt lat="47.44194" lon="6.72449">
        <ele>481</ele>
        <time>2016-05-15T09:39:17.000Z</time>
      </trkpt>
      <trkpt lat="47.44197" lon="6.72449">
        <ele>481</ele>
        <time>2016-05-15T09:39:18.000Z</time>
      </trkpt>
      <trkpt lat="47.44201" lon="6.72449">
        <ele>481</ele>
        <time>2016-05-15T09:39:19.000Z</time>
      </trkpt>
      <trkpt lat="47.44205" lon="6.72449">
        <ele>481</ele>
        <time>2016-05-15T09:39:20.000Z</time>
      </trkpt>
      <trkpt lat="47.44209" lon="6.72449">
        <ele>481</ele>
        <time>2016-05-15T09:39:21.000Z</time>
      </trkpt>
      <trkpt lat="47.44213" lon="6.7245">
        <ele>481</ele>
        <time>2016-05-15T09:39:22.000Z</time>
      </trkpt>
      <trkpt lat="47.44217" lon="6.7245">
        <ele>481</ele>
        <time>2016-05-15T09:39:23.000Z</time>
      </trkpt>
      <trkpt lat="47.44221" lon="6.72451">
        <ele>481</ele>
        <time>2016-05-15T09:39:24.000Z</time>
      </trkpt>
      <trkpt lat="47.44224" lon="6.72451">
        <ele>482</ele>
        <time>2016-05-15T09:39:25.000Z</time>
      </trkpt>
      <trkpt lat="47.44229" lon="6.72451">
        <ele>482</ele>
        <time>2016-05-15T09:39:26.000Z</time>
      </trkpt>
      <trkpt lat="47.44233" lon="6.72451">
        <ele>482</ele>
        <time>2016-05-15T09:39:27.000Z</time>
      </trkpt>
      <trkpt lat="47.44238" lon="6.72451">
        <ele>482</ele>
        <time>2016-05-15T09:39:28.000Z</time>
      </trkpt>
      <trkpt lat="47.44243" lon="6.72451">
        <ele>482</ele>
        <time>2016-05-15T09:39:29.000Z</time>
      </trkpt>
      <trkpt lat="47.44248" lon="6.72451">
        <ele>482</ele>
        <time>2016-05-15T09:39:30.000Z</time>
      </trkpt>
      <trkpt lat="47.44253" lon="6.72449">
        <ele>482</ele>
        <time>2016-05-15T09:39:31.000Z</time>
      </trkpt>
      <trkpt lat="47.44258" lon="6.72448">
        <ele>482</ele>
        <time>2016-05-15T09:39:32.000Z</time>
      </trkpt>
      <trkpt lat="47.44264" lon="6.72446">
        <ele>482</ele>
        <time>2016-05-15T09:39:33.000Z</time>
      </trkpt>
      <trkpt lat="47.4427" lon="6.72445">
        <ele>482</ele>
        <time>2016-05-15T09:39:34.000Z</time>
      </trkpt>
      <trkpt lat="47.44292" lon="6.72435">
        <ele>482</ele>
        <time>2016-05-15T09:39:35.000Z</time>
      </trkpt>
      <trkpt lat="47.44298" lon="6.72435">
        <ele>482</ele>
        <time>2016-05-15T09:39:36.000Z</time>
      </trkpt>
      <trkpt lat="47.44305" lon="6.72434">
        <ele>482</ele>
        <time>2016-05-15T09:39:37.000Z</time>
      </trkpt>
      <trkpt lat="47.4431" lon="6.72433">
        <ele>482</ele>
        <time>2016-05-15T09:39:38.000Z</time>
      </trkpt>
      <trkpt lat="47.44316" lon="6.72432">
        <ele>481</ele>
        <time>2016-05-15T09:39:39.000Z</time>
      </trkpt>
      <trkpt lat="47.44321" lon="6.7243">
        <ele>481</ele>
        <time>2016-05-15T09:39:40.000Z</time>
      </trkpt>
      <trkpt lat="47.44326" lon="6.72428">
        <ele>481</ele>
        <time>2016-05-15T09:39:41.000Z</time>
      </trkpt>
      <trkpt lat="47.44341" lon="6.72419">
        <ele>481</ele>
        <time>2016-05-15T09:39:42.000Z</time>
      </trkpt>
      <trkpt lat="47.44347" lon="6.72416">
        <ele>480</ele>
        <time>2016-05-15T09:39:43.000Z</time>
      </trkpt>
      <trkpt lat="47.44354" lon="6.72414">
        <ele>479</ele>
        <time>2016-05-15T09:39:44.000Z</time>
      </trkpt>
      <trkpt lat="47.44361" lon="6.72412">
        <ele>479</ele>
        <time>2016-05-15T09:39:45.000Z</time>
      </trkpt>
      <trkpt lat="47.44368" lon="6.72409">
        <ele>479</ele>
        <time>2016-05-15T09:39:46.000Z</time>
      </trkpt>
      <trkpt lat="47.44375" lon="6.72405">
        <ele>478</ele>
        <time>2016-05-15T09:39:47.000Z</time>
      </trkpt>
      <trkpt lat="47.44382" lon="6.72403">
        <ele>478</ele>
        <time>2016-05-15T09:39:48.000Z</time>
      </trkpt>
      <trkpt lat="47.44388" lon="6.724">
        <ele>478</ele>
        <time>2016-05-15T09:39:49.000Z</time>
      </trkpt>
      <trkpt lat="47.44394" lon="6.72397">
        <ele>478</ele>
        <time>2016-05-15T09:39:50.000Z</time>
      </trkpt>
      <trkpt lat="47.444" lon="6.72395">
        <ele>478</ele>
        <time>2016-05-15T09:39:51.000Z</time>
      </trkpt>
      <trkpt lat="47.44406" lon="6.72393">
        <ele>478</ele>
        <time>2016-05-15T09:39:52.000Z</time>
      </trkpt>
      <trkpt lat="47.44411" lon="6.72391">
        <ele>478</ele>
        <time>2016-05-15T09:39:53.000Z</time>
      </trkpt>
      <trkpt lat="47.44417" lon="6.72389">
        <ele>478</ele>
        <time>2016-05-15T09:39:54.000Z</time>
      </trkpt>
      <trkpt lat="47.44422" lon="6.72386">
        <ele>478</ele>
        <time>2016-05-15T09:39:55.000Z</time>
      </trkpt>
      <trkpt lat="47.44426" lon="6.72385">
        <ele>478</ele>
        <time>2016-05-15T09:39:56.000Z</time>
      </trkpt>
      <trkpt lat="47.44431" lon="6.72384">
        <ele>478</ele>
        <time>2016-05-15T09:39:57.000Z</time>
      </trkpt>
      <trkpt lat="47.44437" lon="6.72383">
        <ele>478</ele>
        <time>2016-05-15T09:39:58.000Z</time>
      </trkpt>
      <trkpt lat="47.44441" lon="6.72381">
        <ele>478</ele>
        <time>2016-05-15T09:39:59.000Z</time>
      </trkpt>
      <trkpt lat="47.44445" lon="6.72383">
        <ele>478</ele>
        <time>2016-05-15T09:40:00.000Z</time>
      </trkpt>
      <trkpt lat="47.44449" lon="6.72378">
        <ele>478</ele>
        <time>2016-05-15T09:40:01.000Z</time>
      </trkpt>
      <trkpt lat="47.44453" lon="6.72377">
        <ele>478</ele>
        <time>2016-05-15T09:40:02.000Z</time>
      </trkpt>
      <trkpt lat="47.44456" lon="6.72375">
        <ele>478</ele>
        <time>2016-05-15T09:40:03.000Z</time>
      </trkpt>
      <trkpt lat="47.44459" lon="6.72375">
        <ele>478</ele>
        <time>2016-05-15T09:40:04.000Z</time>
      </trkpt>
      <trkpt lat="47.44464" lon="6.72374">
        <ele>478</ele>
        <time>2016-05-15T09:40:05.000Z</time>
      </trkpt>
      <trkpt lat="47.44468" lon="6.72376">
        <ele>478</ele>
        <time>2016-05-15T09:40:06.000Z</time>
      </trkpt>
      <trkpt lat="47.44474" lon="6.72378">
        <ele>479</ele>
        <time>2016-05-15T09:40:07.000Z</time>
      </trkpt>
      <trkpt lat="47.44478" lon="6.72375">
        <ele>479</ele>
        <time>2016-05-15T09:40:08.000Z</time>
      </trkpt>
      <trkpt lat="47.44482" lon="6.72375">
        <ele>479</ele>
        <time>2016-05-15T09:40:09.000Z</time>
      </trkpt>
      <trkpt lat="47.44487" lon="6.72375">
        <ele>479</ele>
        <time>2016-05-15T09:40:10.000Z</time>
      </trkpt>
      <trkpt lat="47.44493" lon="6.72372">
        <ele>479</ele>
        <time>2016-05-15T09:40:11.000Z</time>
      </trkpt>
      <trkpt lat="47.44496" lon="6.72374">
        <ele>479</ele>
        <time>2016-05-15T09:40:12.000Z</time>
      </trkpt>
      <trkpt lat="47.44499" lon="6.72373">
        <ele>479</ele>
        <time>2016-05-15T09:40:13.000Z</time>
      </trkpt>
      <trkpt lat="47.44503" lon="6.72372">
        <ele>480</ele>
        <time>2016-05-15T09:40:14.000Z</time>
      </trkpt>
      <trkpt lat="47.44505" lon="6.72372">
        <ele>480</ele>
        <time>2016-05-15T09:40:15.000Z</time>
      </trkpt>
      <trkpt lat="47.44508" lon="6.72372">
        <ele>480</ele>
        <time>2016-05-15T09:40:16.000Z</time>
      </trkpt>
      <trkpt lat="47.4451" lon="6.72373">
        <ele>480</ele>
        <time>2016-05-15T09:40:17.000Z</time>
      </trkpt>
      <trkpt lat="47.44514" lon="6.72371">
        <ele>480</ele>
        <time>2016-05-15T09:40:18.000Z</time>
      </trkpt>
      <trkpt lat="47.44517" lon="6.72373">
        <ele>480</ele>
        <time>2016-05-15T09:40:19.000Z</time>
      </trkpt>
      <trkpt lat="47.44522" lon="6.72372">
        <ele>480</ele>
        <time>2016-05-15T09:40:20.000Z</time>
      </trkpt>
      <trkpt lat="47.44527" lon="6.72374">
        <ele>481</ele>
        <time>2016-05-15T09:40:21.000Z</time>
      </trkpt>
      <trkpt lat="47.44531" lon="6.72375">
        <ele>481</ele>
        <time>2016-05-15T09:40:22.000Z</time>
      </trkpt>
      <trkpt lat="47.44535" lon="6.72375">
        <ele>481</ele>
        <time>2016-05-15T09:40:23.000Z</time>
      </trkpt>
      <trkpt lat="47.4454" lon="6.72375">
        <ele>481</ele>
        <time>2016-05-15T09:40:24.000Z</time>
      </trkpt>
      <trkpt lat="47.44545" lon="6.72374">
        <ele>481</ele>
        <time>2016-05-15T09:40:25.000Z</time>
      </trkpt>
      <trkpt lat="47.44551" lon="6.72373">
        <ele>481</ele>
        <time>2016-05-15T09:40:26.000Z</time>
      </trkpt>
      <trkpt lat="47.44557" lon="6.72369">
        <ele>481</ele>
        <time>2016-05-15T09:40:27.000Z</time>
      </trkpt>
      <trkpt lat="47.44563" lon="6.72365">
        <ele>480</ele>
        <time>2016-05-15T09:40:28.000Z</time>
      </trkpt>
      <trkpt lat="47.44569" lon="6.72361">
        <ele>480</ele>
        <time>2016-05-15T09:40:29.000Z</time>
      </trkpt>
      <trkpt lat="47.44576" lon="6.72357">
        <ele>480</ele>
        <time>2016-05-15T09:40:30.000Z</time>
      </trkpt>
      <trkpt lat="47.44582" lon="6.72353">
        <ele>480</ele>
        <time>2016-05-15T09:40:31.000Z</time>
      </trkpt>
      <trkpt lat="47.44588" lon="6.72351">
        <ele>480</ele>
        <time>2016-05-15T09:40:32.000Z</time>
      </trkpt>
      <trkpt lat="47.44593" lon="6.7235">
        <ele>480</ele>
        <time>2016-05-15T09:40:33.000Z</time>
      </trkpt>
      <trkpt lat="47.44598" lon="6.7235">
        <ele>481</ele>
        <time>2016-05-15T09:40:34.000Z</time>
      </trkpt>
      <trkpt lat="47.44603" lon="6.72349">
        <ele>481</ele>
        <time>2016-05-15T09:40:35.000Z</time>
      </trkpt>
      <trkpt lat="47.44609" lon="6.72349">
        <ele>481</ele>
        <time>2016-05-15T09:40:36.000Z</time>
      </trkpt>
      <trkpt lat="47.44615" lon="6.72347">
        <ele>481</ele>
        <time>2016-05-15T09:40:37.000Z</time>
      </trkpt>
      <trkpt lat="47.4462" lon="6.72345">
        <ele>481</ele>
        <time>2016-05-15T09:40:38.000Z</time>
      </trkpt>
      <trkpt lat="47.44626" lon="6.72343">
        <ele>481</ele>
        <time>2016-05-15T09:40:39.000Z</time>
      </trkpt>
      <trkpt lat="47.4463" lon="6.72341">
        <ele>481</ele>
        <time>2016-05-15T09:40:40.000Z</time>
      </trkpt>
      <trkpt lat="47.44635" lon="6.72339">
        <ele>481</ele>
        <time>2016-05-15T09:40:41.000Z</time>
      </trkpt>
      <trkpt lat="47.4464" lon="6.72339">
        <ele>481</ele>
        <time>2016-05-15T09:40:42.000Z</time>
      </trkpt>
      <trkpt lat="47.44645" lon="6.72337">
        <ele>481</ele>
        <time>2016-05-15T09:40:43.000Z</time>
      </trkpt>
      <trkpt lat="47.4465" lon="6.72336">
        <ele>481</ele>
        <time>2016-05-15T09:40:44.000Z</time>
      </trkpt>
      <trkpt lat="47.44655" lon="6.72335">
        <ele>481</ele>
        <time>2016-05-15T09:40:45.000Z</time>
      </trkpt>
      <trkpt lat="47.4466" lon="6.72333">
        <ele>479</ele>
        <time>2016-05-15T09:40:46.000Z</time>
      </trkpt>
      <trkpt lat="47.44665" lon="6.72332">
        <ele>479</ele>
        <time>2016-05-15T09:40:47.000Z</time>
      </trkpt>
      <trkpt lat="47.4467" lon="6.7233">
        <ele>480</ele>
        <time>2016-05-15T09:40:48.000Z</time>
      </trkpt>
      <trkpt lat="47.44675" lon="6.72328">
        <ele>479</ele>
        <time>2016-05-15T09:40:49.000Z</time>
      </trkpt>
      <trkpt lat="47.44681" lon="6.72326">
        <ele>479</ele>
        <time>2016-05-15T09:40:50.000Z</time>
      </trkpt>
      <trkpt lat="47.44686" lon="6.72324">
        <ele>479</ele>
        <time>2016-05-15T09:40:51.000Z</time>
      </trkpt>
      <trkpt lat="47.44691" lon="6.72321">
        <ele>479</ele>
        <time>2016-05-15T09:40:52.000Z</time>
      </trkpt>
      <trkpt lat="47.44696" lon="6.72319">
        <ele>479</ele>
        <time>2016-05-15T09:40:53.000Z</time>
      </trkpt>
      <trkpt lat="47.44701" lon="6.72317">
        <ele>479</ele>
        <time>2016-05-15T09:40:54.000Z</time>
      </trkpt>
      <trkpt lat="47.44706" lon="6.72315">
        <ele>479</ele>
        <time>2016-05-15T09:40:55.000Z</time>
      </trkpt>
      <trkpt lat="47.4471" lon="6.72314">
        <ele>479</ele>
        <time>2016-05-15T09:40:56.000Z</time>
      </trkpt>
      <trkpt lat="47.44714" lon="6.72312">
        <ele>479</ele>
        <time>2016-05-15T09:40:57.000Z</time>
      </trkpt>
      <trkpt lat="47.44718" lon="6.72311">
        <ele>479</ele>
        <time>2016-05-15T09:40:58.000Z</time>
      </trkpt>
      <trkpt lat="47.44723" lon="6.72309">
        <ele>479</ele>
        <time>2016-05-15T09:40:59.000Z</time>
      </trkpt>
      <trkpt lat="47.44728" lon="6.72307">
        <ele>479</ele>
        <time>2016-05-15T09:41:00.000Z</time>
      </trkpt>
      <trkpt lat="47.44733" lon="6.72306">
        <ele>479</ele>
        <time>2016-05-15T09:41:01.000Z</time>
      </trkpt>
      <trkpt lat="47.44738" lon="6.72304">
        <ele>480</ele>
        <time>2016-05-15T09:41:02.000Z</time>
      </trkpt>
      <trkpt lat="47.44743" lon="6.72304">
        <ele>480</ele>
        <time>2016-05-15T09:41:03.000Z</time>
      </trkpt>
      <trkpt lat="47.44747" lon="6.72304">
        <ele>480</ele>
        <time>2016-05-15T09:41:04.000Z</time>
      </trkpt>
      <trkpt lat="47.4475" lon="6.72304">
        <ele>479</ele>
        <time>2016-05-15T09:41:05.000Z</time>
      </trkpt>
      <trkpt lat="47.44755" lon="6.72305">
        <ele>479</ele>
        <time>2016-05-15T09:41:06.000Z</time>
      </trkpt>
      <trkpt lat="47.4476" lon="6.72305">
        <ele>479</ele>
        <time>2016-05-15T09:41:07.000Z</time>
      </trkpt>
      <trkpt lat="47.44765" lon="6.72305">
        <ele>479</ele>
        <time>2016-05-15T09:41:08.000Z</time>
      </trkpt>
      <trkpt lat="47.44783" lon="6.72295">
        <ele>477</ele>
        <time>2016-05-15T09:41:09.000Z</time>
      </trkpt>
      <trkpt lat="47.44794" lon="6.7229">
        <ele>476</ele>
        <time>2016-05-15T09:41:10.000Z</time>
      </trkpt>
      <trkpt lat="47.44809" lon="6.72288">
        <ele>475</ele>
        <time>2016-05-15T09:41:11.000Z</time>
      </trkpt>
      <trkpt lat="47.44822" lon="6.72286">
        <ele>475</ele>
        <time>2016-05-15T09:41:12.000Z</time>
      </trkpt>
      <trkpt lat="47.44831" lon="6.72291">
        <ele>475</ele>
        <time>2016-05-15T09:41:13.000Z</time>
      </trkpt>
      <trkpt lat="47.44842" lon="6.72296">
        <ele>469</ele>
        <time>2016-05-15T09:41:14.000Z</time>
      </trkpt>
      <trkpt lat="47.44851" lon="6.72299">
        <ele>469</ele>
        <time>2016-05-15T09:41:15.000Z</time>
      </trkpt>
      <trkpt lat="47.44861" lon="6.72303">
        <ele>469</ele>
        <time>2016-05-15T09:41:16.000Z</time>
      </trkpt>
      <trkpt lat="47.4487" lon="6.72308">
        <ele>468</ele>
        <time>2016-05-15T09:41:17.000Z</time>
      </trkpt>
      <trkpt lat="47.44879" lon="6.72313">
        <ele>468</ele>
        <time>2016-05-15T09:41:18.000Z</time>
      </trkpt>
      <trkpt lat="47.44891" lon="6.72319">
        <ele>467</ele>
        <time>2016-05-15T09:41:19.000Z</time>
      </trkpt>
      <trkpt lat="47.44902" lon="6.72325">
        <ele>466</ele>
        <time>2016-05-15T09:41:20.000Z</time>
      </trkpt>
      <trkpt lat="47.44912" lon="6.72333">
        <ele>465</ele>
        <time>2016-05-15T09:41:21.000Z</time>
      </trkpt>
      <trkpt lat="47.44923" lon="6.7234">
        <ele>464</ele>
        <time>2016-05-15T09:41:22.000Z</time>
      </trkpt>
      <trkpt lat="47.44933" lon="6.7235">
        <ele>464</ele>
        <time>2016-05-15T09:41:23.000Z</time>
      </trkpt>
      <trkpt lat="47.44943" lon="6.7236">
        <ele>463</ele>
        <time>2016-05-15T09:41:24.000Z</time>
      </trkpt>
      <trkpt lat="47.44955" lon="6.72365">
        <ele>462</ele>
        <time>2016-05-15T09:41:25.000Z</time>
      </trkpt>
      <trkpt lat="47.44964" lon="6.72373">
        <ele>462</ele>
        <time>2016-05-15T09:41:26.000Z</time>
      </trkpt>
      <trkpt lat="47.44973" lon="6.72383">
        <ele>462</ele>
        <time>2016-05-15T09:41:27.000Z</time>
      </trkpt>
      <trkpt lat="47.4498" lon="6.72391">
        <ele>461</ele>
        <time>2016-05-15T09:41:28.000Z</time>
      </trkpt>
      <trkpt lat="47.44988" lon="6.72398">
        <ele>461</ele>
        <time>2016-05-15T09:41:29.000Z</time>
      </trkpt>
      <trkpt lat="47.44995" lon="6.72405">
        <ele>460</ele>
        <time>2016-05-15T09:41:30.000Z</time>
      </trkpt>
      <trkpt lat="47.45003" lon="6.72411">
        <ele>457</ele>
        <time>2016-05-15T09:41:31.000Z</time>
      </trkpt>
      <trkpt lat="47.45012" lon="6.72417">
        <ele>458</ele>
        <time>2016-05-15T09:41:32.000Z</time>
      </trkpt>
      <trkpt lat="47.4502" lon="6.72423">
        <ele>457</ele>
        <time>2016-05-15T09:41:33.000Z</time>
      </trkpt>
      <trkpt lat="47.45029" lon="6.72429">
        <ele>457</ele>
        <time>2016-05-15T09:41:34.000Z</time>
      </trkpt>
      <trkpt lat="47.45038" lon="6.72435">
        <ele>456</ele>
        <time>2016-05-15T09:41:35.000Z</time>
      </trkpt>
      <trkpt lat="47.45046" lon="6.72441">
        <ele>456</ele>
        <time>2016-05-15T09:41:36.000Z</time>
      </trkpt>
      <trkpt lat="47.45056" lon="6.72447">
        <ele>455</ele>
        <time>2016-05-15T09:41:37.000Z</time>
      </trkpt>
      <trkpt lat="47.45064" lon="6.72454">
        <ele>455</ele>
        <time>2016-05-15T09:41:38.000Z</time>
      </trkpt>
      <trkpt lat="47.45073" lon="6.7246">
        <ele>455</ele>
        <time>2016-05-15T09:41:39.000Z</time>
      </trkpt>
      <trkpt lat="47.45081" lon="6.72465">
        <ele>455</ele>
        <time>2016-05-15T09:41:40.000Z</time>
      </trkpt>
      <trkpt lat="47.4509" lon="6.72471">
        <ele>451</ele>
        <time>2016-05-15T09:41:41.000Z</time>
      </trkpt>
      <trkpt lat="47.45098" lon="6.72476">
        <ele>451</ele>
        <time>2016-05-15T09:41:42.000Z</time>
      </trkpt>
      <trkpt lat="47.45107" lon="6.72482">
        <ele>451</ele>
        <time>2016-05-15T09:41:43.000Z</time>
      </trkpt>
      <trkpt lat="47.45115" lon="6.72487">
        <ele>450</ele>
        <time>2016-05-15T09:41:44.000Z</time>
      </trkpt>
      <trkpt lat="47.45122" lon="6.72493">
        <ele>450</ele>
        <time>2016-05-15T09:41:45.000Z</time>
      </trkpt>
      <trkpt lat="47.4513" lon="6.72498">
        <ele>450</ele>
        <time>2016-05-15T09:41:46.000Z</time>
      </trkpt>
      <trkpt lat="47.45138" lon="6.72504">
        <ele>451</ele>
        <time>2016-05-15T09:41:47.000Z</time>
      </trkpt>
      <trkpt lat="47.45146" lon="6.72508">
        <ele>451</ele>
        <time>2016-05-15T09:41:48.000Z</time>
      </trkpt>
      <trkpt lat="47.45153" lon="6.72513">
        <ele>450</ele>
        <time>2016-05-15T09:41:49.000Z</time>
      </trkpt>
      <trkpt lat="47.4516" lon="6.72518">
        <ele>450</ele>
        <time>2016-05-15T09:41:50.000Z</time>
      </trkpt>
      <trkpt lat="47.45168" lon="6.72523">
        <ele>450</ele>
        <time>2016-05-15T09:41:51.000Z</time>
      </trkpt>
      <trkpt lat="47.45174" lon="6.72528">
        <ele>450</ele>
        <time>2016-05-15T09:41:52.000Z</time>
      </trkpt>
      <trkpt lat="47.4518" lon="6.72532">
        <ele>451</ele>
        <time>2016-05-15T09:41:53.000Z</time>
      </trkpt>
      <trkpt lat="47.45188" lon="6.72536">
        <ele>451</ele>
        <time>2016-05-15T09:41:54.000Z</time>
      </trkpt>
      <trkpt lat="47.45195" lon="6.7254">
        <ele>451</ele>
        <time>2016-05-15T09:41:55.000Z</time>
      </trkpt>
      <trkpt lat="47.45203" lon="6.72544">
        <ele>451</ele>
        <time>2016-05-15T09:41:56.000Z</time>
      </trkpt>
      <trkpt lat="47.45209" lon="6.72549">
        <ele>451</ele>
        <time>2016-05-15T09:41:57.000Z</time>
      </trkpt>
      <trkpt lat="47.45215" lon="6.72553">
        <ele>451</ele>
        <time>2016-05-15T09:41:58.000Z</time>
      </trkpt>
      <trkpt lat="47.45222" lon="6.72557">
        <ele>451</ele>
        <time>2016-05-15T09:41:59.000Z</time>
      </trkpt>
      <trkpt lat="47.45228" lon="6.72562">
        <ele>452</ele>
        <time>2016-05-15T09:42:00.000Z</time>
      </trkpt>
      <trkpt lat="47.45233" lon="6.72566">
        <ele>452</ele>
        <time>2016-05-15T09:42:01.000Z</time>
      </trkpt>
      <trkpt lat="47.45239" lon="6.7257">
        <ele>452</ele>
        <time>2016-05-15T09:42:02.000Z</time>
      </trkpt>
      <trkpt lat="47.45245" lon="6.72573">
        <ele>452</ele>
        <time>2016-05-15T09:42:03.000Z</time>
      </trkpt>
      <trkpt lat="47.4525" lon="6.72576">
        <ele>453</ele>
        <time>2016-05-15T09:42:04.000Z</time>
      </trkpt>
      <trkpt lat="47.45255" lon="6.7258">
        <ele>453</ele>
        <time>2016-05-15T09:42:05.000Z</time>
      </trkpt>
      <trkpt lat="47.4526" lon="6.72584">
        <ele>453</ele>
        <time>2016-05-15T09:42:06.000Z</time>
      </trkpt>
      <trkpt lat="47.45265" lon="6.72587">
        <ele>453</ele>
        <time>2016-05-15T09:42:07.000Z</time>
      </trkpt>
      <trkpt lat="47.4527" lon="6.7259">
        <ele>453</ele>
        <time>2016-05-15T09:42:08.000Z</time>
      </trkpt>
      <trkpt lat="47.45275" lon="6.72594">
        <ele>453</ele>
        <time>2016-05-15T09:42:09.000Z</time>
      </trkpt>
      <trkpt lat="47.4528" lon="6.72597">
        <ele>453</ele>
        <time>2016-05-15T09:42:10.000Z</time>
      </trkpt>
      <trkpt lat="47.45285" lon="6.726">
        <ele>453</ele>
        <time>2016-05-15T09:42:11.000Z</time>
      </trkpt>
      <trkpt lat="47.45291" lon="6.72604">
        <ele>453</ele>
        <time>2016-05-15T09:42:12.000Z</time>
      </trkpt>
      <trkpt lat="47.45295" lon="6.72607">
        <ele>453</ele>
        <time>2016-05-15T09:42:13.000Z</time>
      </trkpt>
      <trkpt lat="47.453" lon="6.7261">
        <ele>453</ele>
        <time>2016-05-15T09:42:14.000Z</time>
      </trkpt>
      <trkpt lat="47.45305" lon="6.72614">
        <ele>453</ele>
        <time>2016-05-15T09:42:15.000Z</time>
      </trkpt>
      <trkpt lat="47.4531" lon="6.72618">
        <ele>453</ele>
        <time>2016-05-15T09:42:16.000Z</time>
      </trkpt>
      <trkpt lat="47.45314" lon="6.72622">
        <ele>453</ele>
        <time>2016-05-15T09:42:17.000Z</time>
      </trkpt>
      <trkpt lat="47.45319" lon="6.72627">
        <ele>454</ele>
        <time>2016-05-15T09:42:18.000Z</time>
      </trkpt>
      <trkpt lat="47.45323" lon="6.72631">
        <ele>454</ele>
        <time>2016-05-15T09:42:19.000Z</time>
      </trkpt>
      <trkpt lat="47.45327" lon="6.72635">
        <ele>454</ele>
        <time>2016-05-15T09:42:20.000Z</time>
      </trkpt>
      <trkpt lat="47.4533" lon="6.7264">
        <ele>454</ele>
        <time>2016-05-15T09:42:21.000Z</time>
      </trkpt>
      <trkpt lat="47.45334" lon="6.72644">
        <ele>454</ele>
        <time>2016-05-15T09:42:22.000Z</time>
      </trkpt>
      <trkpt lat="47.45337" lon="6.72648">
        <ele>454</ele>
        <time>2016-05-15T09:42:23.000Z</time>
      </trkpt>
      <trkpt lat="47.45341" lon="6.72652">
        <ele>454</ele>
        <time>2016-05-15T09:42:24.000Z</time>
      </trkpt>
      <trkpt lat="47.45345" lon="6.72656">
        <ele>454</ele>
        <time>2016-05-15T09:42:25.000Z</time>
      </trkpt>
      <trkpt lat="47.45348" lon="6.7266">
        <ele>454</ele>
        <time>2016-05-15T09:42:26.000Z</time>
      </trkpt>
      <trkpt lat="47.45351" lon="6.72664">
        <ele>454</ele>
        <time>2016-05-15T09:42:27.000Z</time>
      </trkpt>
      <trkpt lat="47.45353" lon="6.7267">
        <ele>456</ele>
        <time>2016-05-15T09:42:28.000Z</time>
      </trkpt>
      <trkpt lat="47.45356" lon="6.72673">
        <ele>456</ele>
        <time>2016-05-15T09:42:29.000Z</time>
      </trkpt>
      <trkpt lat="47.4536" lon="6.72677">
        <ele>456</ele>
        <time>2016-05-15T09:42:30.000Z</time>
      </trkpt>
      <trkpt lat="47.45363" lon="6.72681">
        <ele>456</ele>
        <time>2016-05-15T09:42:31.001Z</time>
      </trkpt>
      <trkpt lat="47.45367" lon="6.72684">
        <ele>456</ele>
        <time>2016-05-15T09:42:32.000Z</time>
      </trkpt>
      <trkpt lat="47.4537" lon="6.72689">
        <ele>456</ele>
        <time>2016-05-15T09:42:33.000Z</time>
      </trkpt>
      <trkpt lat="47.45372" lon="6.72692">
        <ele>456</ele>
        <time>2016-05-15T09:42:33.999Z</time>
      </trkpt>
      <trkpt lat="47.45375" lon="6.72696">
        <ele>456</ele>
        <time>2016-05-15T09:42:35.000Z</time>
      </trkpt>
      <trkpt lat="47.45379" lon="6.72699">
        <ele>456</ele>
        <time>2016-05-15T09:42:36.000Z</time>
      </trkpt>
      <trkpt lat="47.45382" lon="6.72704">
        <ele>456</ele>
        <time>2016-05-15T09:42:37.000Z</time>
      </trkpt>
      <trkpt lat="47.45385" lon="6.72707">
        <ele>456</ele>
        <time>2016-05-15T09:42:38.000Z</time>
      </trkpt>
      <trkpt lat="47.45388" lon="6.72711">
        <ele>457</ele>
        <time>2016-05-15T09:42:39.000Z</time>
      </trkpt>
      <trkpt lat="47.45391" lon="6.72715">
        <ele>457</ele>
        <time>2016-05-15T09:42:40.000Z</time>
      </trkpt>
      <trkpt lat="47.45394" lon="6.72718">
        <ele>457</ele>
        <time>2016-05-15T09:42:41.000Z</time>
      </trkpt>
      <trkpt lat="47.45398" lon="6.7272">
        <ele>457</ele>
        <time>2016-05-15T09:42:42.000Z</time>
      </trkpt>
      <trkpt lat="47.45402" lon="6.72722">
        <ele>457</ele>
        <time>2016-05-15T09:42:43.000Z</time>
      </trkpt>
      <trkpt lat="47.45406" lon="6.72724">
        <ele>457</ele>
        <time>2016-05-15T09:42:44.000Z</time>
      </trkpt>
      <trkpt lat="47.4541" lon="6.72726">
        <ele>457</ele>
        <time>2016-05-15T09:42:45.000Z</time>
      </trkpt>
      <trkpt lat="47.45415" lon="6.72727">
        <ele>457</ele>
        <time>2016-05-15T09:42:46.000Z</time>
      </trkpt>
      <trkpt lat="47.4542" lon="6.72728">
        <ele>457</ele>
        <time>2016-05-15T09:42:47.000Z</time>
      </trkpt>
      <trkpt lat="47.45424" lon="6.72728">
        <ele>457</ele>
        <time>2016-05-15T09:42:48.000Z</time>
      </trkpt>
      <trkpt lat="47.45429" lon="6.72728">
        <ele>456</ele>
        <time>2016-05-15T09:42:49.000Z</time>
      </trkpt>
      <trkpt lat="47.45434" lon="6.72728">
        <ele>456</ele>
        <time>2016-05-15T09:42:50.000Z</time>
      </trkpt>
      <trkpt lat="47.45437" lon="6.7273">
        <ele>456</ele>
        <time>2016-05-15T09:42:51.000Z</time>
      </trkpt>
      <trkpt lat="47.4544" lon="6.72733">
        <ele>456</ele>
        <time>2016-05-15T09:42:52.000Z</time>
      </trkpt>
      <trkpt lat="47.45441" lon="6.72738">
        <ele>456</ele>
        <time>2016-05-15T09:42:53.000Z</time>
      </trkpt>
      <trkpt lat="47.45441" lon="6.72747">
        <ele>457</ele>
        <time>2016-05-15T09:42:54.000Z</time>
      </trkpt>
      <trkpt lat="47.4544" lon="6.72753">
        <ele>461</ele>
        <time>2016-05-15T09:42:55.000Z</time>
      </trkpt>
      <trkpt lat="47.45439" lon="6.72757">
        <ele>461</ele>
        <time>2016-05-15T09:42:56.000Z</time>
      </trkpt>
      <trkpt lat="47.45439" lon="6.72761">
        <ele>461</ele>
        <time>2016-05-15T09:42:57.000Z</time>
      </trkpt>
      <trkpt lat="47.45438" lon="6.72765">
        <ele>461</ele>
        <time>2016-05-15T09:42:58.000Z</time>
      </trkpt>
      <trkpt lat="47.4544" lon="6.72771">
        <ele>462</ele>
        <time>2016-05-15T09:42:59.000Z</time>
      </trkpt>
      <trkpt lat="47.45441" lon="6.72776">
        <ele>462</ele>
        <time>2016-05-15T09:43:01.000Z</time>
      </trkpt>
      <trkpt lat="47.45442" lon="6.72778">
        <ele>462</ele>
        <time>2016-05-15T09:43:02.000Z</time>
      </trkpt>
      <trkpt lat="47.45443" lon="6.72782">
        <ele>462</ele>
        <time>2016-05-15T09:43:04.000Z</time>
      </trkpt>
      <trkpt lat="47.45444" lon="6.72785">
        <ele>463</ele>
        <time>2016-05-15T09:43:05.000Z</time>
      </trkpt>
      <trkpt lat="47.45445" lon="6.72788">
        <ele>463</ele>
        <time>2016-05-15T09:43:06.000Z</time>
      </trkpt>
      <trkpt lat="47.45445" lon="6.72792">
        <ele>463</ele>
        <time>2016-05-15T09:43:07.000Z</time>
      </trkpt>
      <trkpt lat="47.45446" lon="6.72795">
        <ele>463</ele>
        <time>2016-05-15T09:43:08.000Z</time>
      </trkpt>
      <trkpt lat="47.45447" lon="6.72798">
        <ele>463</ele>
        <time>2016-05-15T09:43:09.000Z</time>
      </trkpt>
      <trkpt lat="47.45448" lon="6.72801">
        <ele>464</ele>
        <time>2016-05-15T09:43:10.000Z</time>
      </trkpt>
      <trkpt lat="47.45449" lon="6.72805">
        <ele>464</ele>
        <time>2016-05-15T09:43:11.000Z</time>
      </trkpt>
      <trkpt lat="47.45449" lon="6.72808">
        <ele>464</ele>
        <time>2016-05-15T09:43:12.000Z</time>
      </trkpt>
      <trkpt lat="47.45449" lon="6.72812">
        <ele>464</ele>
        <time>2016-05-15T09:43:13.000Z</time>
      </trkpt>
      <trkpt lat="47.45449" lon="6.72816">
        <ele>465</ele>
        <time>2016-05-15T09:43:14.000Z</time>
      </trkpt>
      <trkpt lat="47.45449" lon="6.72821">
        <ele>465</ele>
        <time>2016-05-15T09:43:15.000Z</time>
      </trkpt>
      <trkpt lat="47.45449" lon="6.72825">
        <ele>465</ele>
        <time>2016-05-15T09:43:16.000Z</time>
      </trkpt>
      <trkpt lat="47.45449" lon="6.7283">
        <ele>465</ele>
        <time>2016-05-15T09:43:17.000Z</time>
      </trkpt>
      <trkpt lat="47.45449" lon="6.72834">
        <ele>469</ele>
        <time>2016-05-15T09:43:18.000Z</time>
      </trkpt>
      <trkpt lat="47.4545" lon="6.72839">
        <ele>469</ele>
        <time>2016-05-15T09:43:19.000Z</time>
      </trkpt>
      <trkpt lat="47.4545" lon="6.72843">
        <ele>469</ele>
        <time>2016-05-15T09:43:20.000Z</time>
      </trkpt>
      <trkpt lat="47.45451" lon="6.72847">
        <ele>469</ele>
        <time>2016-05-15T09:43:21.000Z</time>
      </trkpt>
      <trkpt lat="47.45451" lon="6.72851">
        <ele>469</ele>
        <time>2016-05-15T09:43:22.000Z</time>
      </trkpt>
      <trkpt lat="47.45452" lon="6.72855">
        <ele>469</ele>
        <time>2016-05-15T09:43:23.000Z</time>
      </trkpt>
      <trkpt lat="47.45453" lon="6.72859">
        <ele>469</ele>
        <time>2016-05-15T09:43:24.000Z</time>
      </trkpt>
      <trkpt lat="47.45454" lon="6.72864">
        <ele>469</ele>
        <time>2016-05-15T09:43:25.000Z</time>
      </trkpt>
      <trkpt lat="47.45454" lon="6.7287">
        <ele>469</ele>
        <time>2016-05-15T09:43:26.000Z</time>
      </trkpt>
      <trkpt lat="47.45455" lon="6.72875">
        <ele>469</ele>
        <time>2016-05-15T09:43:27.000Z</time>
      </trkpt>
      <trkpt lat="47.45456" lon="6.7288">
        <ele>469</ele>
        <time>2016-05-15T09:43:28.000Z</time>
      </trkpt>
      <trkpt lat="47.45458" lon="6.72884">
        <ele>469</ele>
        <time>2016-05-15T09:43:29.000Z</time>
      </trkpt>
      <trkpt lat="47.4546" lon="6.72888">
        <ele>469</ele>
        <time>2016-05-15T09:43:30.000Z</time>
      </trkpt>
      <trkpt lat="47.45462" lon="6.72892">
        <ele>469</ele>
        <time>2016-05-15T09:43:31.000Z</time>
      </trkpt>
      <trkpt lat="47.45465" lon="6.72896">
        <ele>469</ele>
        <time>2016-05-15T09:43:32.000Z</time>
      </trkpt>
      <trkpt lat="47.45467" lon="6.729">
        <ele>469</ele>
        <time>2016-05-15T09:43:33.000Z</time>
      </trkpt>
      <trkpt lat="47.4547" lon="6.72904">
        <ele>469</ele>
        <time>2016-05-15T09:43:34.000Z</time>
      </trkpt>
      <trkpt lat="47.45472" lon="6.72908">
        <ele>470</ele>
        <time>2016-05-15T09:43:35.000Z</time>
      </trkpt>
      <trkpt lat="47.45474" lon="6.72913">
        <ele>470</ele>
        <time>2016-05-15T09:43:36.000Z</time>
      </trkpt>
      <trkpt lat="47.45476" lon="6.72917">
        <ele>469</ele>
        <time>2016-05-15T09:43:37.000Z</time>
      </trkpt>
      <trkpt lat="47.45477" lon="6.72921">
        <ele>470</ele>
        <time>2016-05-15T09:43:38.000Z</time>
      </trkpt>
      <trkpt lat="47.45479" lon="6.72925">
        <ele>470</ele>
        <time>2016-05-15T09:43:39.000Z</time>
      </trkpt>
      <trkpt lat="47.4548" lon="6.72931">
        <ele>469</ele>
        <time>2016-05-15T09:43:40.000Z</time>
      </trkpt>
      <trkpt lat="47.45482" lon="6.72936">
        <ele>469</ele>
        <time>2016-05-15T09:43:41.000Z</time>
      </trkpt>
      <trkpt lat="47.45484" lon="6.72942">
        <ele>469</ele>
        <time>2016-05-15T09:43:42.000Z</time>
      </trkpt>
      <trkpt lat="47.45491" lon="6.72954">
        <ele>469</ele>
        <time>2016-05-15T09:43:43.000Z</time>
      </trkpt>
      <trkpt lat="47.45494" lon="6.7296">
        <ele>469</ele>
        <time>2016-05-15T09:43:44.000Z</time>
      </trkpt>
      <trkpt lat="47.45499" lon="6.72963">
        <ele>469</ele>
        <time>2016-05-15T09:43:45.000Z</time>
      </trkpt>
      <trkpt lat="47.45503" lon="6.72966">
        <ele>469</ele>
        <time>2016-05-15T09:43:46.000Z</time>
      </trkpt>
      <trkpt lat="47.45506" lon="6.72969">
        <ele>469</ele>
        <time>2016-05-15T09:43:47.000Z</time>
      </trkpt>
      <trkpt lat="47.45508" lon="6.72972">
        <ele>469</ele>
        <time>2016-05-15T09:43:48.000Z</time>
      </trkpt>
      <trkpt lat="47.4551" lon="6.72976">
        <ele>469</ele>
        <time>2016-05-15T09:43:49.000Z</time>
      </trkpt>
      <trkpt lat="47.45513" lon="6.7298">
        <ele>469</ele>
        <time>2016-05-15T09:43:50.000Z</time>
      </trkpt>
      <trkpt lat="47.45515" lon="6.72985">
        <ele>469</ele>
        <time>2016-05-15T09:43:51.000Z</time>
      </trkpt>
      <trkpt lat="47.45513" lon="6.72992">
        <ele>469</ele>
        <time>2016-05-15T09:43:52.000Z</time>
      </trkpt>
      <trkpt lat="47.45513" lon="6.72996">
        <ele>469</ele>
        <time>2016-05-15T09:43:53.000Z</time>
      </trkpt>
      <trkpt lat="47.45514" lon="6.73">
        <ele>469</ele>
        <time>2016-05-15T09:43:54.000Z</time>
      </trkpt>
      <trkpt lat="47.45514" lon="6.73004">
        <ele>469</ele>
        <time>2016-05-15T09:43:55.000Z</time>
      </trkpt>
      <trkpt lat="47.45515" lon="6.73008">
        <ele>469</ele>
        <time>2016-05-15T09:43:56.000Z</time>
      </trkpt>
      <trkpt lat="47.45516" lon="6.73011">
        <ele>469</ele>
        <time>2016-05-15T09:43:57.000Z</time>
      </trkpt>
      <trkpt lat="47.45518" lon="6.73015">
        <ele>469</ele>
        <time>2016-05-15T09:43:58.000Z</time>
      </trkpt>
      <trkpt lat="47.45519" lon="6.73019">
        <ele>469</ele>
        <time>2016-05-15T09:43:59.000Z</time>
      </trkpt>
      <trkpt lat="47.45521" lon="6.73022">
        <ele>469</ele>
        <time>2016-05-15T09:44:00.000Z</time>
      </trkpt>
      <trkpt lat="47.45522" lon="6.73026">
        <ele>469</ele>
        <time>2016-05-15T09:44:01.000Z</time>
      </trkpt>
      <trkpt lat="47.45524" lon="6.73029">
        <ele>469</ele>
        <time>2016-05-15T09:44:02.000Z</time>
      </trkpt>
      <trkpt lat="47.45526" lon="6.73032">
        <ele>469</ele>
        <time>2016-05-15T09:44:03.000Z</time>
      </trkpt>
      <trkpt lat="47.45529" lon="6.73036">
        <ele>469</ele>
        <time>2016-05-15T09:44:04.000Z</time>
      </trkpt>
      <trkpt lat="47.45532" lon="6.7304">
        <ele>468</ele>
        <time>2016-05-15T09:44:05.000Z</time>
      </trkpt>
      <trkpt lat="47.45535" lon="6.73045">
        <ele>468</ele>
        <time>2016-05-15T09:44:06.000Z</time>
      </trkpt>
      <trkpt lat="47.45539" lon="6.73049">
        <ele>468</ele>
        <time>2016-05-15T09:44:07.000Z</time>
      </trkpt>
      <trkpt lat="47.45541" lon="6.73054">
        <ele>468</ele>
        <time>2016-05-15T09:44:08.000Z</time>
      </trkpt>
      <trkpt lat="47.45544" lon="6.73058">
        <ele>468</ele>
        <time>2016-05-15T09:44:09.000Z</time>
      </trkpt>
      <trkpt lat="47.45546" lon="6.73061">
        <ele>468</ele>
        <time>2016-05-15T09:44:10.000Z</time>
      </trkpt>
      <trkpt lat="47.45547" lon="6.73065">
        <ele>468</ele>
        <time>2016-05-15T09:44:11.000Z</time>
      </trkpt>
      <trkpt lat="47.45547" lon="6.73068">
        <ele>468</ele>
        <time>2016-05-15T09:44:12.000Z</time>
      </trkpt>
      <trkpt lat="47.45547" lon="6.73072">
        <ele>468</ele>
        <time>2016-05-15T09:44:13.000Z</time>
      </trkpt>
      <trkpt lat="47.45547" lon="6.73077">
        <ele>468</ele>
        <time>2016-05-15T09:44:14.000Z</time>
      </trkpt>
      <trkpt lat="47.45547" lon="6.7308">
        <ele>468</ele>
        <time>2016-05-15T09:44:15.000Z</time>
      </trkpt>
      <trkpt lat="47.45548" lon="6.73084">
        <ele>468</ele>
        <time>2016-05-15T09:44:16.000Z</time>
      </trkpt>
      <trkpt lat="47.45549" lon="6.73088">
        <ele>468</ele>
        <time>2016-05-15T09:44:17.000Z</time>
      </trkpt>
      <trkpt lat="47.4555" lon="6.73091">
        <ele>468</ele>
        <time>2016-05-15T09:44:18.000Z</time>
      </trkpt>
      <trkpt lat="47.45551" lon="6.73094">
        <ele>468</ele>
        <time>2016-05-15T09:44:19.000Z</time>
      </trkpt>
      <trkpt lat="47.45551" lon="6.73098">
        <ele>468</ele>
        <time>2016-05-15T09:44:20.000Z</time>
      </trkpt>
      <trkpt lat="47.45552" lon="6.73102">
        <ele>468</ele>
        <time>2016-05-15T09:44:21.000Z</time>
      </trkpt>
      <trkpt lat="47.45553" lon="6.73108">
        <ele>468</ele>
        <time>2016-05-15T09:44:22.000Z</time>
      </trkpt>
      <trkpt lat="47.45554" lon="6.73114">
        <ele>468</ele>
        <time>2016-05-15T09:44:23.000Z</time>
      </trkpt>
      <trkpt lat="47.45555" lon="6.73121">
        <ele>468</ele>
        <time>2016-05-15T09:44:24.000Z</time>
      </trkpt>
      <trkpt lat="47.45556" lon="6.73128">
        <ele>468</ele>
        <time>2016-05-15T09:44:25.000Z</time>
      </trkpt>
      <trkpt lat="47.45556" lon="6.73135">
        <ele>468</ele>
        <time>2016-05-15T09:44:26.000Z</time>
      </trkpt>
      <trkpt lat="47.45557" lon="6.73142">
        <ele>468</ele>
        <time>2016-05-15T09:44:27.000Z</time>
      </trkpt>
      <trkpt lat="47.45559" lon="6.7315">
        <ele>468</ele>
        <time>2016-05-15T09:44:28.000Z</time>
      </trkpt>
      <trkpt lat="47.4556" lon="6.73159">
        <ele>468</ele>
        <time>2016-05-15T09:44:29.000Z</time>
      </trkpt>
      <trkpt lat="47.45561" lon="6.73168">
        <ele>467</ele>
        <time>2016-05-15T09:44:30.000Z</time>
      </trkpt>
      <trkpt lat="47.4556" lon="6.73175">
        <ele>467</ele>
        <time>2016-05-15T09:44:31.000Z</time>
      </trkpt>
      <trkpt lat="47.45559" lon="6.73182">
        <ele>467</ele>
        <time>2016-05-15T09:44:32.000Z</time>
      </trkpt>
      <trkpt lat="47.45556" lon="6.73188">
        <ele>466</ele>
        <time>2016-05-15T09:44:33.000Z</time>
      </trkpt>
      <trkpt lat="47.45554" lon="6.73192">
        <ele>466</ele>
        <time>2016-05-15T09:44:34.000Z</time>
      </trkpt>
      <trkpt lat="47.45551" lon="6.73196">
        <ele>466</ele>
        <time>2016-05-15T09:44:35.000Z</time>
      </trkpt>
      <trkpt lat="47.45548" lon="6.73201">
        <ele>466</ele>
        <time>2016-05-15T09:44:36.000Z</time>
      </trkpt>
      <trkpt lat="47.45544" lon="6.73205">
        <ele>465</ele>
        <time>2016-05-15T09:44:37.000Z</time>
      </trkpt>
      <trkpt lat="47.45541" lon="6.73209">
        <ele>465</ele>
        <time>2016-05-15T09:44:38.000Z</time>
      </trkpt>
      <trkpt lat="47.45539" lon="6.73213">
        <ele>465</ele>
        <time>2016-05-15T09:44:39.000Z</time>
      </trkpt>
      <trkpt lat="47.45537" lon="6.73217">
        <ele>465</ele>
        <time>2016-05-15T09:44:40.000Z</time>
      </trkpt>
      <trkpt lat="47.45535" lon="6.73231">
        <ele>465</ele>
        <time>2016-05-15T09:44:41.000Z</time>
      </trkpt>
      <trkpt lat="47.45533" lon="6.73235">
        <ele>464</ele>
        <time>2016-05-15T09:44:42.000Z</time>
      </trkpt>
      <trkpt lat="47.45532" lon="6.7324">
        <ele>464</ele>
        <time>2016-05-15T09:44:43.000Z</time>
      </trkpt>
      <trkpt lat="47.45529" lon="6.73243">
        <ele>464</ele>
        <time>2016-05-15T09:44:44.000Z</time>
      </trkpt>
      <trkpt lat="47.45525" lon="6.73246">
        <ele>464</ele>
        <time>2016-05-15T09:44:45.000Z</time>
      </trkpt>
      <trkpt lat="47.45522" lon="6.73254">
        <ele>462</ele>
        <time>2016-05-15T09:44:46.000Z</time>
      </trkpt>
      <trkpt lat="47.45518" lon="6.73259">
        <ele>462</ele>
        <time>2016-05-15T09:44:47.000Z</time>
      </trkpt>
      <trkpt lat="47.45514" lon="6.73263">
        <ele>462</ele>
        <time>2016-05-15T09:44:48.000Z</time>
      </trkpt>
      <trkpt lat="47.45509" lon="6.73267">
        <ele>462</ele>
        <time>2016-05-15T09:44:49.000Z</time>
      </trkpt>
      <trkpt lat="47.45505" lon="6.7327">
        <ele>462</ele>
        <time>2016-05-15T09:44:50.000Z</time>
      </trkpt>
      <trkpt lat="47.45502" lon="6.73274">
        <ele>462</ele>
        <time>2016-05-15T09:44:51.000Z</time>
      </trkpt>
      <trkpt lat="47.455" lon="6.73276">
        <ele>462</ele>
        <time>2016-05-15T09:44:52.000Z</time>
      </trkpt>
      <trkpt lat="47.45497" lon="6.73278">
        <ele>462</ele>
        <time>2016-05-15T09:44:53.000Z</time>
      </trkpt>
      <trkpt lat="47.45495" lon="6.73281">
        <ele>462</ele>
        <time>2016-05-15T09:44:54.000Z</time>
      </trkpt>
      <trkpt lat="47.45492" lon="6.73285">
        <ele>462</ele>
        <time>2016-05-15T09:44:55.000Z</time>
      </trkpt>
      <trkpt lat="47.45489" lon="6.7329">
        <ele>462</ele>
        <time>2016-05-15T09:44:56.000Z</time>
      </trkpt>
      <trkpt lat="47.45486" lon="6.73295">
        <ele>462</ele>
        <time>2016-05-15T09:44:57.000Z</time>
      </trkpt>
      <trkpt lat="47.45484" lon="6.73301">
        <ele>462</ele>
        <time>2016-05-15T09:44:58.000Z</time>
      </trkpt>
      <trkpt lat="47.45482" lon="6.73307">
        <ele>462</ele>
        <time>2016-05-15T09:44:59.000Z</time>
      </trkpt>
      <trkpt lat="47.4548" lon="6.73313">
        <ele>462</ele>
        <time>2016-05-15T09:45:00.000Z</time>
      </trkpt>
      <trkpt lat="47.45478" lon="6.73319">
        <ele>463</ele>
        <time>2016-05-15T09:45:01.000Z</time>
      </trkpt>
      <trkpt lat="47.45477" lon="6.73325">
        <ele>463</ele>
        <time>2016-05-15T09:45:02.000Z</time>
      </trkpt>
      <trkpt lat="47.45475" lon="6.73331">
        <ele>463</ele>
        <time>2016-05-15T09:45:03.000Z</time>
      </trkpt>
      <trkpt lat="47.45473" lon="6.73337">
        <ele>464</ele>
        <time>2016-05-15T09:45:04.000Z</time>
      </trkpt>
      <trkpt lat="47.45472" lon="6.73341">
        <ele>464</ele>
        <time>2016-05-15T09:45:05.000Z</time>
      </trkpt>
      <trkpt lat="47.4547" lon="6.73345">
        <ele>464</ele>
        <time>2016-05-15T09:45:06.000Z</time>
      </trkpt>
      <trkpt lat="47.45468" lon="6.73349">
        <ele>464</ele>
        <time>2016-05-15T09:45:07.000Z</time>
      </trkpt>
      <trkpt lat="47.45467" lon="6.73353">
        <ele>464</ele>
        <time>2016-05-15T09:45:08.000Z</time>
      </trkpt>
      <trkpt lat="47.45464" lon="6.73358">
        <ele>464</ele>
        <time>2016-05-15T09:45:09.000Z</time>
      </trkpt>
      <trkpt lat="47.45462" lon="6.73364">
        <ele>464</ele>
        <time>2016-05-15T09:45:10.000Z</time>
      </trkpt>
      <trkpt lat="47.4546" lon="6.73369">
        <ele>464</ele>
        <time>2016-05-15T09:45:11.000Z</time>
      </trkpt>
      <trkpt lat="47.45458" lon="6.73375">
        <ele>464</ele>
        <time>2016-05-15T09:45:12.000Z</time>
      </trkpt>
      <trkpt lat="47.45456" lon="6.73381">
        <ele>464</ele>
        <time>2016-05-15T09:45:13.000Z</time>
      </trkpt>
      <trkpt lat="47.45454" lon="6.73388">
        <ele>464</ele>
        <time>2016-05-15T09:45:14.000Z</time>
      </trkpt>
      <trkpt lat="47.45453" lon="6.73394">
        <ele>464</ele>
        <time>2016-05-15T09:45:15.000Z</time>
      </trkpt>
      <trkpt lat="47.45452" lon="6.73401">
        <ele>464</ele>
        <time>2016-05-15T09:45:16.000Z</time>
      </trkpt>
      <trkpt lat="47.45452" lon="6.73407">
        <ele>464</ele>
        <time>2016-05-15T09:45:17.000Z</time>
      </trkpt>
      <trkpt lat="47.45452" lon="6.73413">
        <ele>464</ele>
        <time>2016-05-15T09:45:18.000Z</time>
      </trkpt>
      <trkpt lat="47.45452" lon="6.73418">
        <ele>465</ele>
        <time>2016-05-15T09:45:19.000Z</time>
      </trkpt>
      <trkpt lat="47.45451" lon="6.73423">
        <ele>465</ele>
        <time>2016-05-15T09:45:20.000Z</time>
      </trkpt>
      <trkpt lat="47.45451" lon="6.73429">
        <ele>465</ele>
        <time>2016-05-15T09:45:21.000Z</time>
      </trkpt>
      <trkpt lat="47.4545" lon="6.73435">
        <ele>465</ele>
        <time>2016-05-15T09:45:22.000Z</time>
      </trkpt>
      <trkpt lat="47.4545" lon="6.73442">
        <ele>465</ele>
        <time>2016-05-15T09:45:23.000Z</time>
      </trkpt>
      <trkpt lat="47.45449" lon="6.7345">
        <ele>465</ele>
        <time>2016-05-15T09:45:24.000Z</time>
      </trkpt>
      <trkpt lat="47.45449" lon="6.73458">
        <ele>465</ele>
        <time>2016-05-15T09:45:25.000Z</time>
      </trkpt>
      <trkpt lat="47.4545" lon="6.73467">
        <ele>465</ele>
        <time>2016-05-15T09:45:26.000Z</time>
      </trkpt>
      <trkpt lat="47.4545" lon="6.73476">
        <ele>464</ele>
        <time>2016-05-15T09:45:27.000Z</time>
      </trkpt>
      <trkpt lat="47.4545" lon="6.73486">
        <ele>464</ele>
        <time>2016-05-15T09:45:28.000Z</time>
      </trkpt>
      <trkpt lat="47.45451" lon="6.73496">
        <ele>464</ele>
        <time>2016-05-15T09:45:29.000Z</time>
      </trkpt>
      <trkpt lat="47.45452" lon="6.73505">
        <ele>464</ele>
        <time>2016-05-15T09:45:30.000Z</time>
      </trkpt>
      <trkpt lat="47.45454" lon="6.73515">
        <ele>464</ele>
        <time>2016-05-15T09:45:31.000Z</time>
      </trkpt>
      <trkpt lat="47.45455" lon="6.73523">
        <ele>464</ele>
        <time>2016-05-15T09:45:32.000Z</time>
      </trkpt>
      <trkpt lat="47.45456" lon="6.73531">
        <ele>464</ele>
        <time>2016-05-15T09:45:33.000Z</time>
      </trkpt>
      <trkpt lat="47.45456" lon="6.73538">
        <ele>464</ele>
        <time>2016-05-15T09:45:34.000Z</time>
      </trkpt>
      <trkpt lat="47.45457" lon="6.73545">
        <ele>464</ele>
        <time>2016-05-15T09:45:35.000Z</time>
      </trkpt>
      <trkpt lat="47.45457" lon="6.73552">
        <ele>464</ele>
        <time>2016-05-15T09:45:36.000Z</time>
      </trkpt>
      <trkpt lat="47.45458" lon="6.7356">
        <ele>464</ele>
        <time>2016-05-15T09:45:37.000Z</time>
      </trkpt>
      <trkpt lat="47.45458" lon="6.73568">
        <ele>464</ele>
        <time>2016-05-15T09:45:38.000Z</time>
      </trkpt>
      <trkpt lat="47.45459" lon="6.73575">
        <ele>464</ele>
        <time>2016-05-15T09:45:39.000Z</time>
      </trkpt>
      <trkpt lat="47.4546" lon="6.73582">
        <ele>464</ele>
        <time>2016-05-15T09:45:40.000Z</time>
      </trkpt>
      <trkpt lat="47.45462" lon="6.73588">
        <ele>463</ele>
        <time>2016-05-15T09:45:41.000Z</time>
      </trkpt>
      <trkpt lat="47.45464" lon="6.73593">
        <ele>463</ele>
        <time>2016-05-15T09:45:42.000Z</time>
      </trkpt>
      <trkpt lat="47.45467" lon="6.73599">
        <ele>463</ele>
        <time>2016-05-15T09:45:43.000Z</time>
      </trkpt>
      <trkpt lat="47.45469" lon="6.73604">
        <ele>463</ele>
        <time>2016-05-15T09:45:44.000Z</time>
      </trkpt>
      <trkpt lat="47.45472" lon="6.7361">
        <ele>463</ele>
        <time>2016-05-15T09:45:45.000Z</time>
      </trkpt>
      <trkpt lat="47.45475" lon="6.73615">
        <ele>462</ele>
        <time>2016-05-15T09:45:46.000Z</time>
      </trkpt>
      <trkpt lat="47.45478" lon="6.7362">
        <ele>462</ele>
        <time>2016-05-15T09:45:47.000Z</time>
      </trkpt>
      <trkpt lat="47.45482" lon="6.73625">
        <ele>462</ele>
        <time>2016-05-15T09:45:48.000Z</time>
      </trkpt>
      <trkpt lat="47.45485" lon="6.7363">
        <ele>462</ele>
        <time>2016-05-15T09:45:49.000Z</time>
      </trkpt>
      <trkpt lat="47.45489" lon="6.73635">
        <ele>462</ele>
        <time>2016-05-15T09:45:50.000Z</time>
      </trkpt>
      <trkpt lat="47.45492" lon="6.73639">
        <ele>462</ele>
        <time>2016-05-15T09:45:51.000Z</time>
      </trkpt>
      <trkpt lat="47.45496" lon="6.73642">
        <ele>462</ele>
        <time>2016-05-15T09:45:52.000Z</time>
      </trkpt>
      <trkpt lat="47.455" lon="6.73645">
        <ele>462</ele>
        <time>2016-05-15T09:45:53.000Z</time>
      </trkpt>
      <trkpt lat="47.45503" lon="6.73648">
        <ele>462</ele>
        <time>2016-05-15T09:45:54.000Z</time>
      </trkpt>
      <trkpt lat="47.45506" lon="6.73651">
        <ele>462</ele>
        <time>2016-05-15T09:45:55.000Z</time>
      </trkpt>
      <trkpt lat="47.45509" lon="6.73654">
        <ele>462</ele>
        <time>2016-05-15T09:45:56.000Z</time>
      </trkpt>
      <trkpt lat="47.45512" lon="6.73658">
        <ele>462</ele>
        <time>2016-05-15T09:45:57.000Z</time>
      </trkpt>
      <trkpt lat="47.45515" lon="6.73662">
        <ele>462</ele>
        <time>2016-05-15T09:45:58.000Z</time>
      </trkpt>
      <trkpt lat="47.45517" lon="6.73664">
        <ele>462</ele>
        <time>2016-05-15T09:45:59.000Z</time>
      </trkpt>
      <trkpt lat="47.4552" lon="6.73667">
        <ele>461</ele>
        <time>2016-05-15T09:46:00.000Z</time>
      </trkpt>
      <trkpt lat="47.45523" lon="6.73669">
        <ele>461</ele>
        <time>2016-05-15T09:46:01.000Z</time>
      </trkpt>
      <trkpt lat="47.45526" lon="6.7367">
        <ele>461</ele>
        <time>2016-05-15T09:46:02.000Z</time>
      </trkpt>
      <trkpt lat="47.4553" lon="6.73671">
        <ele>461</ele>
        <time>2016-05-15T09:46:03.000Z</time>
      </trkpt>
      <trkpt lat="47.45533" lon="6.73671">
        <ele>461</ele>
        <time>2016-05-15T09:46:04.000Z</time>
      </trkpt>
      <trkpt lat="47.45536" lon="6.73673">
        <ele>461</ele>
        <time>2016-05-15T09:46:05.000Z</time>
      </trkpt>
      <trkpt lat="47.4554" lon="6.73674">
        <ele>461</ele>
        <time>2016-05-15T09:46:06.000Z</time>
      </trkpt>
      <trkpt lat="47.45543" lon="6.73675">
        <ele>461</ele>
        <time>2016-05-15T09:46:07.000Z</time>
      </trkpt>
      <trkpt lat="47.45547" lon="6.73677">
        <ele>461</ele>
        <time>2016-05-15T09:46:08.000Z</time>
      </trkpt>
      <trkpt lat="47.45551" lon="6.73678">
        <ele>461</ele>
        <time>2016-05-15T09:46:09.000Z</time>
      </trkpt>
      <trkpt lat="47.45555" lon="6.73679">
        <ele>461</ele>
        <time>2016-05-15T09:46:10.000Z</time>
      </trkpt>
      <trkpt lat="47.45559" lon="6.7368">
        <ele>461</ele>
        <time>2016-05-15T09:46:11.000Z</time>
      </trkpt>
      <trkpt lat="47.45562" lon="6.7368">
        <ele>461</ele>
        <time>2016-05-15T09:46:12.000Z</time>
      </trkpt>
      <trkpt lat="47.45566" lon="6.73681">
        <ele>461</ele>
        <time>2016-05-15T09:46:13.000Z</time>
      </trkpt>
      <trkpt lat="47.4557" lon="6.73681">
        <ele>461</ele>
        <time>2016-05-15T09:46:14.000Z</time>
      </trkpt>
      <trkpt lat="47.45574" lon="6.73682">
        <ele>461</ele>
        <time>2016-05-15T09:46:15.000Z</time>
      </trkpt>
      <trkpt lat="47.45578" lon="6.73682">
        <ele>461</ele>
        <time>2016-05-15T09:46:16.000Z</time>
      </trkpt>
      <trkpt lat="47.45581" lon="6.73683">
        <ele>461</ele>
        <time>2016-05-15T09:46:17.000Z</time>
      </trkpt>
      <trkpt lat="47.45585" lon="6.73684">
        <ele>459</ele>
        <time>2016-05-15T09:46:18.000Z</time>
      </trkpt>
      <trkpt lat="47.45589" lon="6.73685">
        <ele>459</ele>
        <time>2016-05-15T09:46:19.000Z</time>
      </trkpt>
      <trkpt lat="47.45594" lon="6.73686">
        <ele>458</ele>
        <time>2016-05-15T09:46:20.000Z</time>
      </trkpt>
      <trkpt lat="47.45598" lon="6.73687">
        <ele>458</ele>
        <time>2016-05-15T09:46:21.000Z</time>
      </trkpt>
      <trkpt lat="47.45602" lon="6.73688">
        <ele>458</ele>
        <time>2016-05-15T09:46:22.000Z</time>
      </trkpt>
      <trkpt lat="47.45605" lon="6.73688">
        <ele>458</ele>
        <time>2016-05-15T09:46:23.000Z</time>
      </trkpt>
      <trkpt lat="47.45607" lon="6.73689">
        <ele>458</ele>
        <time>2016-05-15T09:46:24.000Z</time>
      </trkpt>
      <trkpt lat="47.45609" lon="6.7369">
        <ele>458</ele>
        <time>2016-05-15T09:46:25.000Z</time>
      </trkpt>
      <trkpt lat="47.45612" lon="6.73691">
        <ele>458</ele>
        <time>2016-05-15T09:46:26.000Z</time>
      </trkpt>
      <trkpt lat="47.45615" lon="6.73694">
        <ele>457</ele>
        <time>2016-05-15T09:46:28.000Z</time>
      </trkpt>
      <trkpt lat="47.45617" lon="6.73695">
        <ele>457</ele>
        <time>2016-05-15T09:46:29.000Z</time>
      </trkpt>
      <trkpt lat="47.45619" lon="6.73698">
        <ele>457</ele>
        <time>2016-05-15T09:46:31.000Z</time>
      </trkpt>
      <trkpt lat="47.45621" lon="6.737">
        <ele>457</ele>
        <time>2016-05-15T09:46:32.000Z</time>
      </trkpt>
      <trkpt lat="47.45624" lon="6.73703">
        <ele>457</ele>
        <time>2016-05-15T09:46:34.000Z</time>
      </trkpt>
      <trkpt lat="47.45624" lon="6.73705">
        <ele>457</ele>
        <time>2016-05-15T09:46:35.000Z</time>
      </trkpt>
      <trkpt lat="47.45626" lon="6.7371">
        <ele>457</ele>
        <time>2016-05-15T09:46:41.000Z</time>
      </trkpt>
      <trkpt lat="47.45624" lon="6.73712">
        <ele>457</ele>
        <time>2016-05-15T09:46:42.000Z</time>
      </trkpt>
      <trkpt lat="47.45623" lon="6.73715">
        <ele>457</ele>
        <time>2016-05-15T09:46:43.000Z</time>
      </trkpt>
      <trkpt lat="47.45621" lon="6.73718">
        <ele>457</ele>
        <time>2016-05-15T09:46:44.000Z</time>
      </trkpt>
      <trkpt lat="47.45619" lon="6.73723">
        <ele>457</ele>
        <time>2016-05-15T09:46:46.000Z</time>
      </trkpt>
      <trkpt lat="47.45618" lon="6.73726">
        <ele>458</ele>
        <time>2016-05-15T09:46:47.000Z</time>
      </trkpt>
      <trkpt lat="47.45617" lon="6.73729">
        <ele>458</ele>
        <time>2016-05-15T09:46:48.000Z</time>
      </trkpt>
      <trkpt lat="47.45616" lon="6.73732">
        <ele>458</ele>
        <time>2016-05-15T09:46:49.000Z</time>
      </trkpt>
      <trkpt lat="47.45614" lon="6.73736">
        <ele>458</ele>
        <time>2016-05-15T09:46:50.000Z</time>
      </trkpt>
      <trkpt lat="47.45613" lon="6.7374">
        <ele>458</ele>
        <time>2016-05-15T09:46:51.000Z</time>
      </trkpt>
      <trkpt lat="47.45612" lon="6.73745">
        <ele>458</ele>
        <time>2016-05-15T09:46:52.000Z</time>
      </trkpt>
      <trkpt lat="47.45611" lon="6.73751">
        <ele>458</ele>
        <time>2016-05-15T09:46:53.000Z</time>
      </trkpt>
      <trkpt lat="47.45614" lon="6.73769">
        <ele>457</ele>
        <time>2016-05-15T09:46:54.000Z</time>
      </trkpt>
      <trkpt lat="47.45613" lon="6.73781">
        <ele>457</ele>
        <time>2016-05-15T09:46:55.000Z</time>
      </trkpt>
      <trkpt lat="47.45612" lon="6.73792">
        <ele>457</ele>
        <time>2016-05-15T09:46:56.000Z</time>
      </trkpt>
      <trkpt lat="47.4561" lon="6.73803">
        <ele>457</ele>
        <time>2016-05-15T09:46:57.000Z</time>
      </trkpt>
      <trkpt lat="47.4561" lon="6.73814">
        <ele>457</ele>
        <time>2016-05-15T09:46:58.000Z</time>
      </trkpt>
      <trkpt lat="47.45609" lon="6.73824">
        <ele>457</ele>
        <time>2016-05-15T09:46:59.000Z</time>
      </trkpt>
      <trkpt lat="47.45609" lon="6.73834">
        <ele>457</ele>
        <time>2016-05-15T09:47:00.000Z</time>
      </trkpt>
      <trkpt lat="47.45607" lon="6.73844">
        <ele>457</ele>
        <time>2016-05-15T09:47:01.000Z</time>
      </trkpt>
      <trkpt lat="47.45604" lon="6.73853">
        <ele>457</ele>
        <time>2016-05-15T09:47:02.000Z</time>
      </trkpt>
      <trkpt lat="47.45606" lon="6.73864">
        <ele>456</ele>
        <time>2016-05-15T09:47:03.000Z</time>
      </trkpt>
      <trkpt lat="47.45607" lon="6.73872">
        <ele>456</ele>
        <time>2016-05-15T09:47:04.000Z</time>
      </trkpt>
      <trkpt lat="47.45609" lon="6.73878">
        <ele>456</ele>
        <time>2016-05-15T09:47:05.000Z</time>
      </trkpt>
      <trkpt lat="47.4561" lon="6.73886">
        <ele>456</ele>
        <time>2016-05-15T09:47:06.000Z</time>
      </trkpt>
      <trkpt lat="47.45613" lon="6.73893">
        <ele>456</ele>
        <time>2016-05-15T09:47:07.000Z</time>
      </trkpt>
      <trkpt lat="47.45618" lon="6.73901">
        <ele>456</ele>
        <time>2016-05-15T09:47:08.000Z</time>
      </trkpt>
      <trkpt lat="47.45621" lon="6.7391">
        <ele>456</ele>
        <time>2016-05-15T09:47:09.000Z</time>
      </trkpt>
      <trkpt lat="47.45625" lon="6.7392">
        <ele>456</ele>
        <time>2016-05-15T09:47:10.000Z</time>
      </trkpt>
      <trkpt lat="47.45629" lon="6.73928">
        <ele>456</ele>
        <time>2016-05-15T09:47:11.000Z</time>
      </trkpt>
      <trkpt lat="47.45635" lon="6.73938">
        <ele>455</ele>
        <time>2016-05-15T09:47:12.000Z</time>
      </trkpt>
      <trkpt lat="47.45638" lon="6.73945">
        <ele>455</ele>
        <time>2016-05-15T09:47:13.000Z</time>
      </trkpt>
      <trkpt lat="47.45642" lon="6.73953">
        <ele>455</ele>
        <time>2016-05-15T09:47:14.000Z</time>
      </trkpt>
      <trkpt lat="47.45648" lon="6.73964">
        <ele>455</ele>
        <time>2016-05-15T09:47:15.000Z</time>
      </trkpt>
      <trkpt lat="47.45651" lon="6.7397">
        <ele>455</ele>
        <time>2016-05-15T09:47:16.000Z</time>
      </trkpt>
      <trkpt lat="47.45654" lon="6.73977">
        <ele>455</ele>
        <time>2016-05-15T09:47:17.000Z</time>
      </trkpt>
      <trkpt lat="47.45657" lon="6.73985">
        <ele>455</ele>
        <time>2016-05-15T09:47:18.000Z</time>
      </trkpt>
      <trkpt lat="47.4566" lon="6.73992">
        <ele>454</ele>
        <time>2016-05-15T09:47:19.000Z</time>
      </trkpt>
      <trkpt lat="47.45665" lon="6.74003">
        <ele>453</ele>
        <time>2016-05-15T09:47:20.000Z</time>
      </trkpt>
      <trkpt lat="47.45673" lon="6.74009">
        <ele>450</ele>
        <time>2016-05-15T09:47:21.000Z</time>
      </trkpt>
      <trkpt lat="47.45677" lon="6.74017">
        <ele>449</ele>
        <time>2016-05-15T09:47:22.000Z</time>
      </trkpt>
      <trkpt lat="47.45683" lon="6.74023">
        <ele>448</ele>
        <time>2016-05-15T09:47:23.000Z</time>
      </trkpt>
      <trkpt lat="47.45688" lon="6.74031">
        <ele>447</ele>
        <time>2016-05-15T09:47:24.000Z</time>
      </trkpt>
      <trkpt lat="47.45692" lon="6.74036">
        <ele>447</ele>
        <time>2016-05-15T09:47:25.000Z</time>
      </trkpt>
      <trkpt lat="47.45695" lon="6.7404">
        <ele>446</ele>
        <time>2016-05-15T09:47:26.000Z</time>
      </trkpt>
      <trkpt lat="47.45698" lon="6.74044">
        <ele>446</ele>
        <time>2016-05-15T09:47:27.000Z</time>
      </trkpt>
      <trkpt lat="47.45702" lon="6.74049">
        <ele>446</ele>
        <time>2016-05-15T09:47:28.000Z</time>
      </trkpt>
      <trkpt lat="47.45705" lon="6.74055">
        <ele>445</ele>
        <time>2016-05-15T09:47:29.000Z</time>
      </trkpt>
      <trkpt lat="47.45709" lon="6.74061">
        <ele>445</ele>
        <time>2016-05-15T09:47:30.000Z</time>
      </trkpt>
      <trkpt lat="47.45712" lon="6.74068">
        <ele>445</ele>
        <time>2016-05-15T09:47:31.000Z</time>
      </trkpt>
      <trkpt lat="47.45714" lon="6.74076">
        <ele>444</ele>
        <time>2016-05-15T09:47:32.000Z</time>
      </trkpt>
      <trkpt lat="47.45716" lon="6.74083">
        <ele>444</ele>
        <time>2016-05-15T09:47:33.000Z</time>
      </trkpt>
      <trkpt lat="47.45718" lon="6.7409">
        <ele>441</ele>
        <time>2016-05-15T09:47:34.000Z</time>
      </trkpt>
      <trkpt lat="47.4572" lon="6.74098">
        <ele>441</ele>
        <time>2016-05-15T09:47:35.000Z</time>
      </trkpt>
      <trkpt lat="47.45738" lon="6.74118">
        <ele>440</ele>
        <time>2016-05-15T09:47:36.000Z</time>
      </trkpt>
      <trkpt lat="47.45745" lon="6.74126">
        <ele>439</ele>
        <time>2016-05-15T09:47:37.000Z</time>
      </trkpt>
      <trkpt lat="47.45749" lon="6.74134">
        <ele>439</ele>
        <time>2016-05-15T09:47:38.000Z</time>
      </trkpt>
      <trkpt lat="47.45755" lon="6.7414">
        <ele>433</ele>
        <time>2016-05-15T09:47:39.000Z</time>
      </trkpt>
      <trkpt lat="47.45758" lon="6.74146">
        <ele>432</ele>
        <time>2016-05-15T09:47:40.000Z</time>
      </trkpt>
      <trkpt lat="47.45762" lon="6.7415">
        <ele>432</ele>
        <time>2016-05-15T09:47:41.000Z</time>
      </trkpt>
      <trkpt lat="47.45764" lon="6.74151">
        <ele>432</ele>
        <time>2016-05-15T09:47:42.000Z</time>
      </trkpt>
      <trkpt lat="47.45771" lon="6.74158">
        <ele>432</ele>
        <time>2016-05-15T09:47:43.000Z</time>
      </trkpt>
      <trkpt lat="47.45776" lon="6.74165">
        <ele>432</ele>
        <time>2016-05-15T09:47:44.000Z</time>
      </trkpt>
      <trkpt lat="47.45784" lon="6.74174">
        <ele>426</ele>
        <time>2016-05-15T09:47:45.000Z</time>
      </trkpt>
      <trkpt lat="47.45788" lon="6.74179">
        <ele>426</ele>
        <time>2016-05-15T09:47:46.000Z</time>
      </trkpt>
      <trkpt lat="47.45792" lon="6.74183">
        <ele>425</ele>
        <time>2016-05-15T09:47:47.000Z</time>
      </trkpt>
      <trkpt lat="47.45796" lon="6.74186">
        <ele>425</ele>
        <time>2016-05-15T09:47:48.000Z</time>
      </trkpt>
      <trkpt lat="47.45799" lon="6.74188">
        <ele>425</ele>
        <time>2016-05-15T09:47:49.000Z</time>
      </trkpt>
      <trkpt lat="47.45803" lon="6.74191">
        <ele>425</ele>
        <time>2016-05-15T09:47:50.000Z</time>
      </trkpt>
      <trkpt lat="47.45806" lon="6.74193">
        <ele>424</ele>
        <time>2016-05-15T09:47:51.000Z</time>
      </trkpt>
      <trkpt lat="47.45811" lon="6.74195">
        <ele>424</ele>
        <time>2016-05-15T09:47:52.000Z</time>
      </trkpt>
      <trkpt lat="47.45816" lon="6.74197">
        <ele>424</ele>
        <time>2016-05-15T09:47:53.000Z</time>
      </trkpt>
      <trkpt lat="47.45821" lon="6.74198">
        <ele>424</ele>
        <time>2016-05-15T09:47:54.000Z</time>
      </trkpt>
      <trkpt lat="47.45825" lon="6.74199">
        <ele>424</ele>
        <time>2016-05-15T09:47:55.000Z</time>
      </trkpt>
      <trkpt lat="47.45831" lon="6.742">
        <ele>424</ele>
        <time>2016-05-15T09:47:56.000Z</time>
      </trkpt>
      <trkpt lat="47.45835" lon="6.74202">
        <ele>420</ele>
        <time>2016-05-15T09:47:57.000Z</time>
      </trkpt>
      <trkpt lat="47.4584" lon="6.74203">
        <ele>419</ele>
        <time>2016-05-15T09:47:58.000Z</time>
      </trkpt>
      <trkpt lat="47.45845" lon="6.74204">
        <ele>419</ele>
        <time>2016-05-15T09:47:59.000Z</time>
      </trkpt>
      <trkpt lat="47.4585" lon="6.74205">
        <ele>419</ele>
        <time>2016-05-15T09:48:00.000Z</time>
      </trkpt>
      <trkpt lat="47.45855" lon="6.74206">
        <ele>419</ele>
        <time>2016-05-15T09:48:01.000Z</time>
      </trkpt>
      <trkpt lat="47.4586" lon="6.74207">
        <ele>418</ele>
        <time>2016-05-15T09:48:02.000Z</time>
      </trkpt>
      <trkpt lat="47.45881" lon="6.74209">
        <ele>417</ele>
        <time>2016-05-15T09:48:03.000Z</time>
      </trkpt>
      <trkpt lat="47.45884" lon="6.7421">
        <ele>417</ele>
        <time>2016-05-15T09:48:04.000Z</time>
      </trkpt>
      <trkpt lat="47.45888" lon="6.74211">
        <ele>417</ele>
        <time>2016-05-15T09:48:05.000Z</time>
      </trkpt>
      <trkpt lat="47.45893" lon="6.74211">
        <ele>417</ele>
        <time>2016-05-15T09:48:06.000Z</time>
      </trkpt>
      <trkpt lat="47.45897" lon="6.74212">
        <ele>417</ele>
        <time>2016-05-15T09:48:07.000Z</time>
      </trkpt>
      <trkpt lat="47.45901" lon="6.74212">
        <ele>417</ele>
        <time>2016-05-15T09:48:08.000Z</time>
      </trkpt>
      <trkpt lat="47.45905" lon="6.74212">
        <ele>416</ele>
        <time>2016-05-15T09:48:09.000Z</time>
      </trkpt>
      <trkpt lat="47.45909" lon="6.74212">
        <ele>416</ele>
        <time>2016-05-15T09:48:10.000Z</time>
      </trkpt>
      <trkpt lat="47.45913" lon="6.74212">
        <ele>416</ele>
        <time>2016-05-15T09:48:11.000Z</time>
      </trkpt>
      <trkpt lat="47.45916" lon="6.74211">
        <ele>416</ele>
        <time>2016-05-15T09:48:12.000Z</time>
      </trkpt>
      <trkpt lat="47.45919" lon="6.74211">
        <ele>415</ele>
        <time>2016-05-15T09:48:13.000Z</time>
      </trkpt>
      <trkpt lat="47.45922" lon="6.74211">
        <ele>415</ele>
        <time>2016-05-15T09:48:14.000Z</time>
      </trkpt>
      <trkpt lat="47.45925" lon="6.74211">
        <ele>415</ele>
        <time>2016-05-15T09:48:15.000Z</time>
      </trkpt>
      <trkpt lat="47.45928" lon="6.74211">
        <ele>415</ele>
        <time>2016-05-15T09:48:16.000Z</time>
      </trkpt>
      <trkpt lat="47.45931" lon="6.74212">
        <ele>415</ele>
        <time>2016-05-15T09:48:17.000Z</time>
      </trkpt>
      <trkpt lat="47.45934" lon="6.74213">
        <ele>415</ele>
        <time>2016-05-15T09:48:18.000Z</time>
      </trkpt>
      <trkpt lat="47.45936" lon="6.74215">
        <ele>415</ele>
        <time>2016-05-15T09:48:19.000Z</time>
      </trkpt>
      <trkpt lat="47.45939" lon="6.74217">
        <ele>415</ele>
        <time>2016-05-15T09:48:20.000Z</time>
      </trkpt>
      <trkpt lat="47.45943" lon="6.74221">
        <ele>415</ele>
        <time>2016-05-15T09:48:21.000Z</time>
      </trkpt>
      <trkpt lat="47.45947" lon="6.74225">
        <ele>414</ele>
        <time>2016-05-15T09:48:22.000Z</time>
      </trkpt>
      <trkpt lat="47.45952" lon="6.74228">
        <ele>414</ele>
        <time>2016-05-15T09:48:23.000Z</time>
      </trkpt>
      <trkpt lat="47.45956" lon="6.7423">
        <ele>414</ele>
        <time>2016-05-15T09:48:24.000Z</time>
      </trkpt>
      <trkpt lat="47.45961" lon="6.7423">
        <ele>414</ele>
        <time>2016-05-15T09:48:25.000Z</time>
      </trkpt>
      <trkpt lat="47.45981" lon="6.74226">
        <ele>414</ele>
        <time>2016-05-15T09:48:26.000Z</time>
      </trkpt>
      <trkpt lat="47.45984" lon="6.74227">
        <ele>414</ele>
        <time>2016-05-15T09:48:28.000Z</time>
      </trkpt>
      <trkpt lat="47.45987" lon="6.74227">
        <ele>414</ele>
        <time>2016-05-15T09:48:29.000Z</time>
      </trkpt>
      <trkpt lat="47.45989" lon="6.74227">
        <ele>414</ele>
        <time>2016-05-15T09:48:30.000Z</time>
      </trkpt>
      <trkpt lat="47.45992" lon="6.74227">
        <ele>414</ele>
        <time>2016-05-15T09:48:31.000Z</time>
      </trkpt>
      <trkpt lat="47.45994" lon="6.74227">
        <ele>414</ele>
        <time>2016-05-15T09:48:32.000Z</time>
      </trkpt>
      <trkpt lat="47.45997" lon="6.74227">
        <ele>414</ele>
        <time>2016-05-15T09:48:33.000Z</time>
      </trkpt>
      <trkpt lat="47.45999" lon="6.74228">
        <ele>414</ele>
        <time>2016-05-15T09:48:34.000Z</time>
      </trkpt>
      <trkpt lat="47.46002" lon="6.74228">
        <ele>415</ele>
        <time>2016-05-15T09:48:35.000Z</time>
      </trkpt>
      <trkpt lat="47.46005" lon="6.74229">
        <ele>415</ele>
        <time>2016-05-15T09:48:36.000Z</time>
      </trkpt>
      <trkpt lat="47.46007" lon="6.74229">
        <ele>415</ele>
        <time>2016-05-15T09:48:37.000Z</time>
      </trkpt>
      <trkpt lat="47.4601" lon="6.74229">
        <ele>415</ele>
        <time>2016-05-15T09:48:38.000Z</time>
      </trkpt>
      <trkpt lat="47.46012" lon="6.7423">
        <ele>415</ele>
        <time>2016-05-15T09:48:39.000Z</time>
      </trkpt>
      <trkpt lat="47.46014" lon="6.7423">
        <ele>415</ele>
        <time>2016-05-15T09:48:40.000Z</time>
      </trkpt>
      <trkpt lat="47.46017" lon="6.7423">
        <ele>415</ele>
        <time>2016-05-15T09:48:41.000Z</time>
      </trkpt>
      <trkpt lat="47.46019" lon="6.7423">
        <ele>415</ele>
        <time>2016-05-15T09:48:42.000Z</time>
      </trkpt>
      <trkpt lat="47.46022" lon="6.7423">
        <ele>416</ele>
        <time>2016-05-15T09:48:43.000Z</time>
      </trkpt>
      <trkpt lat="47.46024" lon="6.7423">
        <ele>416</ele>
        <time>2016-05-15T09:48:44.000Z</time>
      </trkpt>
      <trkpt lat="47.46027" lon="6.7423">
        <ele>416</ele>
        <time>2016-05-15T09:48:45.000Z</time>
      </trkpt>
      <trkpt lat="47.4603" lon="6.7423">
        <ele>416</ele>
        <time>2016-05-15T09:48:46.000Z</time>
      </trkpt>
      <trkpt lat="47.46034" lon="6.7423">
        <ele>416</ele>
        <time>2016-05-15T09:48:47.000Z</time>
      </trkpt>
      <trkpt lat="47.46037" lon="6.74229">
        <ele>416</ele>
        <time>2016-05-15T09:48:48.000Z</time>
      </trkpt>
      <trkpt lat="47.46041" lon="6.74228">
        <ele>416</ele>
        <time>2016-05-15T09:48:49.000Z</time>
      </trkpt>
      <trkpt lat="47.46044" lon="6.74227">
        <ele>416</ele>
        <time>2016-05-15T09:48:50.000Z</time>
      </trkpt>
      <trkpt lat="47.46047" lon="6.74227">
        <ele>417</ele>
        <time>2016-05-15T09:48:51.000Z</time>
      </trkpt>
      <trkpt lat="47.46049" lon="6.74227">
        <ele>417</ele>
        <time>2016-05-15T09:48:51.999Z</time>
      </trkpt>
      <trkpt lat="47.46053" lon="6.74228">
        <ele>417</ele>
        <time>2016-05-15T09:48:53.000Z</time>
      </trkpt>
      <trkpt lat="47.46056" lon="6.74228">
        <ele>416</ele>
        <time>2016-05-15T09:48:54.000Z</time>
      </trkpt>
      <trkpt lat="47.4606" lon="6.74229">
        <ele>416</ele>
        <time>2016-05-15T09:48:55.000Z</time>
      </trkpt>
      <trkpt lat="47.46063" lon="6.74229">
        <ele>416</ele>
        <time>2016-05-15T09:48:56.000Z</time>
      </trkpt>
      <trkpt lat="47.46067" lon="6.74231">
        <ele>416</ele>
        <time>2016-05-15T09:48:57.000Z</time>
      </trkpt>
      <trkpt lat="47.4607" lon="6.74233">
        <ele>416</ele>
        <time>2016-05-15T09:48:58.000Z</time>
      </trkpt>
      <trkpt lat="47.46074" lon="6.74235">
        <ele>416</ele>
        <time>2016-05-15T09:48:59.000Z</time>
      </trkpt>
      <trkpt lat="47.46078" lon="6.74236">
        <ele>416</ele>
        <time>2016-05-15T09:49:00.000Z</time>
      </trkpt>
      <trkpt lat="47.46082" lon="6.74237">
        <ele>415</ele>
        <time>2016-05-15T09:49:01.000Z</time>
      </trkpt>
      <trkpt lat="47.46086" lon="6.74238">
        <ele>416</ele>
        <time>2016-05-15T09:49:02.000Z</time>
      </trkpt>
      <trkpt lat="47.4609" lon="6.74239">
        <ele>416</ele>
        <time>2016-05-15T09:49:03.000Z</time>
      </trkpt>
      <trkpt lat="47.46094" lon="6.7424">
        <ele>416</ele>
        <time>2016-05-15T09:49:04.000Z</time>
      </trkpt>
      <trkpt lat="47.46098" lon="6.74242">
        <ele>416</ele>
        <time>2016-05-15T09:49:05.000Z</time>
      </trkpt>
      <trkpt lat="47.46102" lon="6.74243">
        <ele>416</ele>
        <time>2016-05-15T09:49:06.000Z</time>
      </trkpt>
      <trkpt lat="47.46106" lon="6.74243">
        <ele>417</ele>
        <time>2016-05-15T09:49:07.000Z</time>
      </trkpt>
      <trkpt lat="47.4611" lon="6.74244">
        <ele>417</ele>
        <time>2016-05-15T09:49:08.000Z</time>
      </trkpt>
      <trkpt lat="47.46114" lon="6.74244">
        <ele>417</ele>
        <time>2016-05-15T09:49:09.000Z</time>
      </trkpt>
      <trkpt lat="47.46118" lon="6.74245">
        <ele>417</ele>
        <time>2016-05-15T09:49:10.000Z</time>
      </trkpt>
      <trkpt lat="47.46123" lon="6.74246">
        <ele>417</ele>
        <time>2016-05-15T09:49:11.000Z</time>
      </trkpt>
      <trkpt lat="47.46127" lon="6.74247">
        <ele>417</ele>
        <time>2016-05-15T09:49:12.000Z</time>
      </trkpt>
      <trkpt lat="47.46132" lon="6.74248">
        <ele>417</ele>
        <time>2016-05-15T09:49:13.000Z</time>
      </trkpt>
      <trkpt lat="47.46136" lon="6.74249">
        <ele>417</ele>
        <time>2016-05-15T09:49:14.000Z</time>
      </trkpt>
      <trkpt lat="47.4614" lon="6.7425">
        <ele>409</ele>
        <time>2016-05-15T09:49:15.000Z</time>
      </trkpt>
      <trkpt lat="47.46143" lon="6.74251">
        <ele>409</ele>
        <time>2016-05-15T09:49:16.000Z</time>
      </trkpt>
      <trkpt lat="47.46147" lon="6.74251">
        <ele>409</ele>
        <time>2016-05-15T09:49:17.000Z</time>
      </trkpt>
      <trkpt lat="47.4615" lon="6.74252">
        <ele>410</ele>
        <time>2016-05-15T09:49:18.000Z</time>
      </trkpt>
      <trkpt lat="47.46154" lon="6.74252">
        <ele>411</ele>
        <time>2016-05-15T09:49:19.000Z</time>
      </trkpt>
      <trkpt lat="47.46158" lon="6.74253">
        <ele>412</ele>
        <time>2016-05-15T09:49:20.000Z</time>
      </trkpt>
      <trkpt lat="47.46161" lon="6.74254">
        <ele>412</ele>
        <time>2016-05-15T09:49:21.000Z</time>
      </trkpt>
      <trkpt lat="47.46165" lon="6.74255">
        <ele>413</ele>
        <time>2016-05-15T09:49:22.000Z</time>
      </trkpt>
      <trkpt lat="47.46168" lon="6.74256">
        <ele>413</ele>
        <time>2016-05-15T09:49:23.000Z</time>
      </trkpt>
      <trkpt lat="47.46172" lon="6.74258">
        <ele>412</ele>
        <time>2016-05-15T09:49:24.000Z</time>
      </trkpt>
      <trkpt lat="47.46175" lon="6.7426">
        <ele>411</ele>
        <time>2016-05-15T09:49:25.000Z</time>
      </trkpt>
      <trkpt lat="47.46178" lon="6.74262">
        <ele>410</ele>
        <time>2016-05-15T09:49:26.000Z</time>
      </trkpt>
      <trkpt lat="47.46182" lon="6.74263">
        <ele>409</ele>
        <time>2016-05-15T09:49:27.000Z</time>
      </trkpt>
      <trkpt lat="47.46185" lon="6.74264">
        <ele>409</ele>
        <time>2016-05-15T09:49:28.000Z</time>
      </trkpt>
      <trkpt lat="47.46189" lon="6.74265">
        <ele>408</ele>
        <time>2016-05-15T09:49:29.000Z</time>
      </trkpt>
      <trkpt lat="47.46192" lon="6.74267">
        <ele>408</ele>
        <time>2016-05-15T09:49:30.000Z</time>
      </trkpt>
      <trkpt lat="47.46195" lon="6.74269">
        <ele>408</ele>
        <time>2016-05-15T09:49:31.000Z</time>
      </trkpt>
      <trkpt lat="47.46199" lon="6.7427">
        <ele>407</ele>
        <time>2016-05-15T09:49:32.000Z</time>
      </trkpt>
      <trkpt lat="47.46203" lon="6.74272">
        <ele>407</ele>
        <time>2016-05-15T09:49:33.000Z</time>
      </trkpt>
      <trkpt lat="47.46207" lon="6.74274">
        <ele>407</ele>
        <time>2016-05-15T09:49:34.000Z</time>
      </trkpt>
      <trkpt lat="47.46211" lon="6.74276">
        <ele>407</ele>
        <time>2016-05-15T09:49:35.000Z</time>
      </trkpt>
      <trkpt lat="47.46215" lon="6.74278">
        <ele>406</ele>
        <time>2016-05-15T09:49:36.000Z</time>
      </trkpt>
      <trkpt lat="47.4622" lon="6.7428">
        <ele>406</ele>
        <time>2016-05-15T09:49:37.000Z</time>
      </trkpt>
      <trkpt lat="47.46224" lon="6.74283">
        <ele>406</ele>
        <time>2016-05-15T09:49:38.000Z</time>
      </trkpt>
      <trkpt lat="47.46229" lon="6.74285">
        <ele>406</ele>
        <time>2016-05-15T09:49:39.000Z</time>
      </trkpt>
      <trkpt lat="47.46233" lon="6.74287">
        <ele>406</ele>
        <time>2016-05-15T09:49:40.000Z</time>
      </trkpt>
      <trkpt lat="47.46237" lon="6.74287">
        <ele>406</ele>
        <time>2016-05-15T09:49:41.000Z</time>
      </trkpt>
      <trkpt lat="47.4624" lon="6.74286">
        <ele>406</ele>
        <time>2016-05-15T09:49:42.000Z</time>
      </trkpt>
      <trkpt lat="47.46242" lon="6.74284">
        <ele>406</ele>
        <time>2016-05-15T09:49:43.000Z</time>
      </trkpt>
      <trkpt lat="47.46245" lon="6.74283">
        <ele>406</ele>
        <time>2016-05-15T09:49:44.000Z</time>
      </trkpt>
      <trkpt lat="47.46247" lon="6.74284">
        <ele>406</ele>
        <time>2016-05-15T09:49:45.000Z</time>
      </trkpt>
      <trkpt lat="47.46249" lon="6.74286">
        <ele>406</ele>
        <time>2016-05-15T09:49:46.000Z</time>
      </trkpt>
      <trkpt lat="47.46252" lon="6.74289">
        <ele>407</ele>
        <time>2016-05-15T09:49:47.000Z</time>
      </trkpt>
      <trkpt lat="47.46255" lon="6.74292">
        <ele>407</ele>
        <time>2016-05-15T09:49:48.000Z</time>
      </trkpt>
      <trkpt lat="47.46258" lon="6.74294">
        <ele>406</ele>
        <time>2016-05-15T09:49:49.000Z</time>
      </trkpt>
      <trkpt lat="47.46262" lon="6.74296">
        <ele>406</ele>
        <time>2016-05-15T09:49:50.000Z</time>
      </trkpt>
      <trkpt lat="47.46265" lon="6.74297">
        <ele>406</ele>
        <time>2016-05-15T09:49:51.000Z</time>
      </trkpt>
      <trkpt lat="47.46268" lon="6.74298">
        <ele>406</ele>
        <time>2016-05-15T09:49:52.000Z</time>
      </trkpt>
      <trkpt lat="47.46271" lon="6.74299">
        <ele>406</ele>
        <time>2016-05-15T09:49:53.000Z</time>
      </trkpt>
      <trkpt lat="47.46274" lon="6.74301">
        <ele>406</ele>
        <time>2016-05-15T09:49:54.000Z</time>
      </trkpt>
      <trkpt lat="47.46278" lon="6.74303">
        <ele>406</ele>
        <time>2016-05-15T09:49:55.000Z</time>
      </trkpt>
      <trkpt lat="47.46281" lon="6.74305">
        <ele>406</ele>
        <time>2016-05-15T09:49:56.000Z</time>
      </trkpt>
      <trkpt lat="47.46285" lon="6.74308">
        <ele>406</ele>
        <time>2016-05-15T09:49:57.000Z</time>
      </trkpt>
      <trkpt lat="47.46289" lon="6.7431">
        <ele>406</ele>
        <time>2016-05-15T09:49:58.000Z</time>
      </trkpt>
      <trkpt lat="47.46293" lon="6.74312">
        <ele>406</ele>
        <time>2016-05-15T09:49:59.000Z</time>
      </trkpt>
      <trkpt lat="47.46297" lon="6.74313">
        <ele>406</ele>
        <time>2016-05-15T09:50:00.000Z</time>
      </trkpt>
      <trkpt lat="47.463" lon="6.74313">
        <ele>406</ele>
        <time>2016-05-15T09:50:01.000Z</time>
      </trkpt>
      <trkpt lat="47.46303" lon="6.74313">
        <ele>406</ele>
        <time>2016-05-15T09:50:02.000Z</time>
      </trkpt>
      <trkpt lat="47.46306" lon="6.74313">
        <ele>406</ele>
        <time>2016-05-15T09:50:03.000Z</time>
      </trkpt>
      <trkpt lat="47.46309" lon="6.74314">
        <ele>406</ele>
        <time>2016-05-15T09:50:04.000Z</time>
      </trkpt>
      <trkpt lat="47.46312" lon="6.74315">
        <ele>406</ele>
        <time>2016-05-15T09:50:05.000Z</time>
      </trkpt>
      <trkpt lat="47.46315" lon="6.74317">
        <ele>406</ele>
        <time>2016-05-15T09:50:06.000Z</time>
      </trkpt>
      <trkpt lat="47.46318" lon="6.74319">
        <ele>406</ele>
        <time>2016-05-15T09:50:07.000Z</time>
      </trkpt>
      <trkpt lat="47.46321" lon="6.74321">
        <ele>406</ele>
        <time>2016-05-15T09:50:08.000Z</time>
      </trkpt>
      <trkpt lat="47.46325" lon="6.74323">
        <ele>405</ele>
        <time>2016-05-15T09:50:09.000Z</time>
      </trkpt>
      <trkpt lat="47.46329" lon="6.74325">
        <ele>405</ele>
        <time>2016-05-15T09:50:10.000Z</time>
      </trkpt>
      <trkpt lat="47.46333" lon="6.74327">
        <ele>405</ele>
        <time>2016-05-15T09:50:11.000Z</time>
      </trkpt>
      <trkpt lat="47.46338" lon="6.74329">
        <ele>405</ele>
        <time>2016-05-15T09:50:12.000Z</time>
      </trkpt>
      <trkpt lat="47.46342" lon="6.7433">
        <ele>405</ele>
        <time>2016-05-15T09:50:13.000Z</time>
      </trkpt>
      <trkpt lat="47.46345" lon="6.74332">
        <ele>406</ele>
        <time>2016-05-15T09:50:14.000Z</time>
      </trkpt>
      <trkpt lat="47.4635" lon="6.74333">
        <ele>406</ele>
        <time>2016-05-15T09:50:15.000Z</time>
      </trkpt>
      <trkpt lat="47.46354" lon="6.74334">
        <ele>399</ele>
        <time>2016-05-15T09:50:16.000Z</time>
      </trkpt>
      <trkpt lat="47.46358" lon="6.74335">
        <ele>399</ele>
        <time>2016-05-15T09:50:17.000Z</time>
      </trkpt>
      <trkpt lat="47.46362" lon="6.74337">
        <ele>398</ele>
        <time>2016-05-15T09:50:18.000Z</time>
      </trkpt>
      <trkpt lat="47.46367" lon="6.74338">
        <ele>398</ele>
        <time>2016-05-15T09:50:19.000Z</time>
      </trkpt>
      <trkpt lat="47.46372" lon="6.7434">
        <ele>398</ele>
        <time>2016-05-15T09:50:20.000Z</time>
      </trkpt>
      <trkpt lat="47.46376" lon="6.74342">
        <ele>398</ele>
        <time>2016-05-15T09:50:21.000Z</time>
      </trkpt>
      <trkpt lat="47.4638" lon="6.74344">
        <ele>398</ele>
        <time>2016-05-15T09:50:22.000Z</time>
      </trkpt>
      <trkpt lat="47.46385" lon="6.74346">
        <ele>398</ele>
        <time>2016-05-15T09:50:23.000Z</time>
      </trkpt>
      <trkpt lat="47.4639" lon="6.74348">
        <ele>398</ele>
        <time>2016-05-15T09:50:24.000Z</time>
      </trkpt>
      <trkpt lat="47.46394" lon="6.7435">
        <ele>398</ele>
        <time>2016-05-15T09:50:25.000Z</time>
      </trkpt>
      <trkpt lat="47.46398" lon="6.74351">
        <ele>398</ele>
        <time>2016-05-15T09:50:26.000Z</time>
      </trkpt>
      <trkpt lat="47.46402" lon="6.74353">
        <ele>398</ele>
        <time>2016-05-15T09:50:27.000Z</time>
      </trkpt>
      <trkpt lat="47.46405" lon="6.74355">
        <ele>398</ele>
        <time>2016-05-15T09:50:28.000Z</time>
      </trkpt>
      <trkpt lat="47.46407" lon="6.74357">
        <ele>398</ele>
        <time>2016-05-15T09:50:29.000Z</time>
      </trkpt>
      <trkpt lat="47.46409" lon="6.74359">
        <ele>398</ele>
        <time>2016-05-15T09:50:30.000Z</time>
      </trkpt>
      <trkpt lat="47.46411" lon="6.74361">
        <ele>398</ele>
        <time>2016-05-15T09:50:31.000Z</time>
      </trkpt>
      <trkpt lat="47.46413" lon="6.74363">
        <ele>397</ele>
        <time>2016-05-15T09:50:32.000Z</time>
      </trkpt>
      <trkpt lat="47.46414" lon="6.74367">
        <ele>397</ele>
        <time>2016-05-15T09:50:33.000Z</time>
      </trkpt>
      <trkpt lat="47.46417" lon="6.74371">
        <ele>400</ele>
        <time>2016-05-15T09:50:34.000Z</time>
      </trkpt>
      <trkpt lat="47.4642" lon="6.74376">
        <ele>399</ele>
        <time>2016-05-15T09:50:35.000Z</time>
      </trkpt>
      <trkpt lat="47.46423" lon="6.74381">
        <ele>398</ele>
        <time>2016-05-15T09:50:36.000Z</time>
      </trkpt>
      <trkpt lat="47.46426" lon="6.74386">
        <ele>398</ele>
        <time>2016-05-15T09:50:37.000Z</time>
      </trkpt>
      <trkpt lat="47.46429" lon="6.74391">
        <ele>397</ele>
        <time>2016-05-15T09:50:38.000Z</time>
      </trkpt>
      <trkpt lat="47.46432" lon="6.74395">
        <ele>397</ele>
        <time>2016-05-15T09:50:39.000Z</time>
      </trkpt>
      <trkpt lat="47.46435" lon="6.74399">
        <ele>397</ele>
        <time>2016-05-15T09:50:40.000Z</time>
      </trkpt>
      <trkpt lat="47.46438" lon="6.74404">
        <ele>396</ele>
        <time>2016-05-15T09:50:41.000Z</time>
      </trkpt>
      <trkpt lat="47.46442" lon="6.7441">
        <ele>396</ele>
        <time>2016-05-15T09:50:42.000Z</time>
      </trkpt>
      <trkpt lat="47.46446" lon="6.74416">
        <ele>397</ele>
        <time>2016-05-15T09:50:43.000Z</time>
      </trkpt>
      <trkpt lat="47.46451" lon="6.74424">
        <ele>388</ele>
        <time>2016-05-15T09:50:44.000Z</time>
      </trkpt>
      <trkpt lat="47.46457" lon="6.74431">
        <ele>388</ele>
        <time>2016-05-15T09:50:45.000Z</time>
      </trkpt>
      <trkpt lat="47.46462" lon="6.74438">
        <ele>388</ele>
        <time>2016-05-15T09:50:46.000Z</time>
      </trkpt>
      <trkpt lat="47.46467" lon="6.74445">
        <ele>388</ele>
        <time>2016-05-15T09:50:47.000Z</time>
      </trkpt>
      <trkpt lat="47.46471" lon="6.74452">
        <ele>387</ele>
        <time>2016-05-15T09:50:48.000Z</time>
      </trkpt>
      <trkpt lat="47.46475" lon="6.74458">
        <ele>387</ele>
        <time>2016-05-15T09:50:49.000Z</time>
      </trkpt>
      <trkpt lat="47.46479" lon="6.74464">
        <ele>386</ele>
        <time>2016-05-15T09:50:50.000Z</time>
      </trkpt>
      <trkpt lat="47.46482" lon="6.74471">
        <ele>386</ele>
        <time>2016-05-15T09:50:51.000Z</time>
      </trkpt>
      <trkpt lat="47.46486" lon="6.74479">
        <ele>385</ele>
        <time>2016-05-15T09:50:52.000Z</time>
      </trkpt>
      <trkpt lat="47.4649" lon="6.74486">
        <ele>384</ele>
        <time>2016-05-15T09:50:53.000Z</time>
      </trkpt>
      <trkpt lat="47.46494" lon="6.74494">
        <ele>384</ele>
        <time>2016-05-15T09:50:54.000Z</time>
      </trkpt>
      <trkpt lat="47.46517" lon="6.74516">
        <ele>382</ele>
        <time>2016-05-15T09:50:55.000Z</time>
      </trkpt>
      <trkpt lat="47.4652" lon="6.74523">
        <ele>382</ele>
        <time>2016-05-15T09:50:56.000Z</time>
      </trkpt>
      <trkpt lat="47.46524" lon="6.74529">
        <ele>381</ele>
        <time>2016-05-15T09:50:57.000Z</time>
      </trkpt>
      <trkpt lat="47.46536" lon="6.74547">
        <ele>380</ele>
        <time>2016-05-15T09:50:58.000Z</time>
      </trkpt>
      <trkpt lat="47.46544" lon="6.74557">
        <ele>380</ele>
        <time>2016-05-15T09:50:59.000Z</time>
      </trkpt>
      <trkpt lat="47.46551" lon="6.74567">
        <ele>380</ele>
        <time>2016-05-15T09:51:00.000Z</time>
      </trkpt>
      <trkpt lat="47.46554" lon="6.74573">
        <ele>380</ele>
        <time>2016-05-15T09:51:01.000Z</time>
      </trkpt>
      <trkpt lat="47.46557" lon="6.74579">
        <ele>379</ele>
        <time>2016-05-15T09:51:02.000Z</time>
      </trkpt>
      <trkpt lat="47.46561" lon="6.74585">
        <ele>372</ele>
        <time>2016-05-15T09:51:03.000Z</time>
      </trkpt>
      <trkpt lat="47.46569" lon="6.74592">
        <ele>373</ele>
        <time>2016-05-15T09:51:04.000Z</time>
      </trkpt>
      <trkpt lat="47.46573" lon="6.74597">
        <ele>373</ele>
        <time>2016-05-15T09:51:05.000Z</time>
      </trkpt>
      <trkpt lat="47.46577" lon="6.74604">
        <ele>372</ele>
        <time>2016-05-15T09:51:06.000Z</time>
      </trkpt>
      <trkpt lat="47.46583" lon="6.74612">
        <ele>370</ele>
        <time>2016-05-15T09:51:07.000Z</time>
      </trkpt>
      <trkpt lat="47.46586" lon="6.74619">
        <ele>373</ele>
        <time>2016-05-15T09:51:08.000Z</time>
      </trkpt>
      <trkpt lat="47.46589" lon="6.74628">
        <ele>371</ele>
        <time>2016-05-15T09:51:09.000Z</time>
      </trkpt>
      <trkpt lat="47.46596" lon="6.74638">
        <ele>370</ele>
        <time>2016-05-15T09:51:10.000Z</time>
      </trkpt>
      <trkpt lat="47.46611" lon="6.74649">
        <ele>369</ele>
        <time>2016-05-15T09:51:11.000Z</time>
      </trkpt>
      <trkpt lat="47.46624" lon="6.74661">
        <ele>369</ele>
        <time>2016-05-15T09:51:12.000Z</time>
      </trkpt>
      <trkpt lat="47.46632" lon="6.7467">
        <ele>362</ele>
        <time>2016-05-15T09:51:13.000Z</time>
      </trkpt>
      <trkpt lat="47.46643" lon="6.7468">
        <ele>362</ele>
        <time>2016-05-15T09:51:14.000Z</time>
      </trkpt>
      <trkpt lat="47.46653" lon="6.74691">
        <ele>361</ele>
        <time>2016-05-15T09:51:15.000Z</time>
      </trkpt>
      <trkpt lat="47.46665" lon="6.74698">
        <ele>361</ele>
        <time>2016-05-15T09:51:16.000Z</time>
      </trkpt>
      <trkpt lat="47.4668" lon="6.74699">
        <ele>358</ele>
        <time>2016-05-15T09:51:17.000Z</time>
      </trkpt>
      <trkpt lat="47.46688" lon="6.74701">
        <ele>358</ele>
        <time>2016-05-15T09:51:18.000Z</time>
      </trkpt>
      <trkpt lat="47.46696" lon="6.74702">
        <ele>357</ele>
        <time>2016-05-15T09:51:19.000Z</time>
      </trkpt>
      <trkpt lat="47.46703" lon="6.74703">
        <ele>357</ele>
        <time>2016-05-15T09:51:20.000Z</time>
      </trkpt>
      <trkpt lat="47.46709" lon="6.74704">
        <ele>357</ele>
        <time>2016-05-15T09:51:21.000Z</time>
      </trkpt>
      <trkpt lat="47.46715" lon="6.74704">
        <ele>357</ele>
        <time>2016-05-15T09:51:22.000Z</time>
      </trkpt>
      <trkpt lat="47.46721" lon="6.74703">
        <ele>356</ele>
        <time>2016-05-15T09:51:23.000Z</time>
      </trkpt>
      <trkpt lat="47.46726" lon="6.74704">
        <ele>356</ele>
        <time>2016-05-15T09:51:24.000Z</time>
      </trkpt>
      <trkpt lat="47.46732" lon="6.74701">
        <ele>356</ele>
        <time>2016-05-15T09:51:25.000Z</time>
      </trkpt>
      <trkpt lat="47.46737" lon="6.747">
        <ele>357</ele>
        <time>2016-05-15T09:51:26.000Z</time>
      </trkpt>
      <trkpt lat="47.4674" lon="6.74699">
        <ele>357</ele>
        <time>2016-05-15T09:51:27.000Z</time>
      </trkpt>
      <trkpt lat="47.46743" lon="6.74699">
        <ele>357</ele>
        <time>2016-05-15T09:51:28.000Z</time>
      </trkpt>
      <trkpt lat="47.46744" lon="6.74702">
        <ele>356</ele>
        <time>2016-05-15T09:51:29.000Z</time>
      </trkpt>
      <trkpt lat="47.46746" lon="6.74705">
        <ele>356</ele>
        <time>2016-05-15T09:51:30.000Z</time>
      </trkpt>
      <trkpt lat="47.46743" lon="6.7471">
        <ele>355</ele>
        <time>2016-05-15T09:51:33.000Z</time>
      </trkpt>
      <trkpt lat="47.46741" lon="6.74712">
        <ele>355</ele>
        <time>2016-05-15T09:51:34.000Z</time>
      </trkpt>
      <trkpt lat="47.46738" lon="6.74716">
        <ele>355</ele>
        <time>2016-05-15T09:51:36.000Z</time>
      </trkpt>
      <trkpt lat="47.46737" lon="6.74719">
        <ele>354</ele>
        <time>2016-05-15T09:51:37.000Z</time>
      </trkpt>
      <trkpt lat="47.46734" lon="6.74723">
        <ele>354</ele>
        <time>2016-05-15T09:51:39.000Z</time>
      </trkpt>
      <trkpt lat="47.46733" lon="6.74725">
        <ele>354</ele>
        <time>2016-05-15T09:51:40.000Z</time>
      </trkpt>
      <trkpt lat="47.46731" lon="6.74729">
        <ele>353</ele>
        <time>2016-05-15T09:51:42.000Z</time>
      </trkpt>
      <trkpt lat="47.46731" lon="6.74731">
        <ele>353</ele>
        <time>2016-05-15T09:51:43.000Z</time>
      </trkpt>
      <trkpt lat="47.46727" lon="6.74736">
        <ele>353</ele>
        <time>2016-05-15T09:51:47.000Z</time>
      </trkpt>
      <trkpt lat="47.46727" lon="6.74736">
        <ele>353</ele>
        <time>2016-05-15T09:51:48.000Z</time>
      </trkpt>
      <trkpt lat="47.46725" lon="6.74742">
        <ele>353</ele>
        <time>2016-05-15T09:51:52.000Z</time>
      </trkpt>
      <trkpt lat="47.46725" lon="6.74744">
        <ele>353</ele>
        <time>2016-05-15T09:51:53.000Z</time>
      </trkpt>
      <trkpt lat="47.46723" lon="6.74749">
        <ele>353</ele>
        <time>2016-05-15T09:51:56.999Z</time>
      </trkpt>
      <trkpt lat="47.46723" lon="6.7475">
        <ele>351</ele>
        <time>2016-05-15T09:51:58.000Z</time>
      </trkpt>
      <trkpt lat="47.4672" lon="6.74754">
        <ele>351</ele>
        <time>2016-05-15T09:52:04.000Z</time>
      </trkpt>
      <trkpt lat="47.46719" lon="6.74755">
        <ele>351</ele>
        <time>2016-05-15T09:52:05.000Z</time>
      </trkpt>
      <trkpt lat="47.46715" lon="6.74756">
        <ele>352</ele>
        <time>2016-05-15T09:52:10.000Z</time>
      </trkpt>
      <trkpt lat="47.46714" lon="6.74754">
        <ele>352</ele>
        <time>2016-05-15T09:52:11.000Z</time>
      </trkpt>
      <trkpt lat="47.4671" lon="6.74753">
        <ele>352</ele>
        <time>2016-05-15T09:52:16.000Z</time>
      </trkpt>
      <trkpt lat="47.46709" lon="6.74754">
        <ele>352</ele>
        <time>2016-05-15T09:52:17.000Z</time>
      </trkpt>
      <trkpt lat="47.46706" lon="6.74758">
        <ele>353</ele>
        <time>2016-05-15T09:52:21.000Z</time>
      </trkpt>
      <trkpt lat="47.46706" lon="6.74759">
        <ele>353</ele>
        <time>2016-05-15T09:52:22.000Z</time>
      </trkpt>
      <trkpt lat="47.46703" lon="6.74764">
        <ele>353</ele>
        <time>2016-05-15T09:52:27.000Z</time>
      </trkpt>
      <trkpt lat="47.46703" lon="6.74766">
        <ele>353</ele>
        <time>2016-05-15T09:52:28.000Z</time>
      </trkpt>
      <trkpt lat="47.46703" lon="6.74772">
        <ele>353</ele>
        <time>2016-05-15T09:52:31.000Z</time>
      </trkpt>
      <trkpt lat="47.46703" lon="6.74775">
        <ele>353</ele>
        <time>2016-05-15T09:52:32.000Z</time>
      </trkpt>
      <trkpt lat="47.46702" lon="6.7478">
        <ele>354</ele>
        <time>2016-05-15T09:52:34.000Z</time>
      </trkpt>
      <trkpt lat="47.46701" lon="6.74783">
        <ele>354</ele>
        <time>2016-05-15T09:52:35.000Z</time>
      </trkpt>
      <trkpt lat="47.467" lon="6.74789">
        <ele>354</ele>
        <time>2016-05-15T09:52:38.000Z</time>
      </trkpt>
      <trkpt lat="47.467" lon="6.74791">
        <ele>354</ele>
        <time>2016-05-15T09:52:39.000Z</time>
      </trkpt>
      <trkpt lat="47.467" lon="6.74796">
        <ele>354</ele>
        <time>2016-05-15T09:52:42.000Z</time>
      </trkpt>
      <trkpt lat="47.467" lon="6.74798">
        <ele>354</ele>
        <time>2016-05-15T09:52:43.000Z</time>
      </trkpt>
      <trkpt lat="47.46699" lon="6.74803">
        <ele>355</ele>
        <time>2016-05-15T09:52:45.000Z</time>
      </trkpt>
      <trkpt lat="47.46699" lon="6.74805">
        <ele>355</ele>
        <time>2016-05-15T09:52:46.000Z</time>
      </trkpt>
      <trkpt lat="47.46696" lon="6.74809">
        <ele>355</ele>
        <time>2016-05-15T09:52:49.000Z</time>
      </trkpt>
      <trkpt lat="47.46696" lon="6.7481">
        <ele>355</ele>
        <time>2016-05-15T09:52:50.000Z</time>
      </trkpt>
      <trkpt lat="47.46692" lon="6.74811">
        <ele>356</ele>
        <time>2016-05-15T09:52:53.000Z</time>
      </trkpt>
      <trkpt lat="47.46691" lon="6.74811">
        <ele>356</ele>
        <time>2016-05-15T09:52:54.000Z</time>
      </trkpt>
      <trkpt lat="47.46687" lon="6.74813">
        <ele>357</ele>
        <time>2016-05-15T09:52:58.000Z</time>
      </trkpt>
      <trkpt lat="47.46686" lon="6.74813">
        <ele>357</ele>
        <time>2016-05-15T09:52:59.000Z</time>
      </trkpt>
      <trkpt lat="47.46682" lon="6.74812">
        <ele>357</ele>
        <time>2016-05-15T09:53:08.000Z</time>
      </trkpt>
      <trkpt lat="47.46681" lon="6.74812">
        <ele>357</ele>
        <time>2016-05-15T09:53:09.000Z</time>
      </trkpt>
      <trkpt lat="47.46677" lon="6.74812">
        <ele>358</ele>
        <time>2016-05-15T09:53:14.000Z</time>
      </trkpt>
      <trkpt lat="47.46676" lon="6.74813">
        <ele>358</ele>
        <time>2016-05-15T09:53:15.000Z</time>
      </trkpt>
      <trkpt lat="47.46672" lon="6.74813">
        <ele>358</ele>
        <time>2016-05-15T09:53:19.000Z</time>
      </trkpt>
      <trkpt lat="47.46671" lon="6.74812">
        <ele>358</ele>
        <time>2016-05-15T09:53:20.000Z</time>
      </trkpt>
      <trkpt lat="47.46668" lon="6.74812">
        <ele>358</ele>
        <time>2016-05-15T09:53:24.000Z</time>
      </trkpt>
      <trkpt lat="47.46667" lon="6.74813">
        <ele>364</ele>
        <time>2016-05-15T09:53:25.000Z</time>
      </trkpt>
      <trkpt lat="47.46663" lon="6.74814">
        <ele>364</ele>
        <time>2016-05-15T09:53:28.000Z</time>
      </trkpt>
      <trkpt lat="47.46661" lon="6.74814">
        <ele>364</ele>
        <time>2016-05-15T09:53:29.000Z</time>
      </trkpt>
      <trkpt lat="47.46657" lon="6.74815">
        <ele>364</ele>
        <time>2016-05-15T09:53:31.000Z</time>
      </trkpt>
      <trkpt lat="47.46656" lon="6.74816">
        <ele>364</ele>
        <time>2016-05-15T09:53:32.000Z</time>
      </trkpt>
      <trkpt lat="47.46652" lon="6.74818">
        <ele>364</ele>
        <time>2016-05-15T09:53:35.000Z</time>
      </trkpt>
      <trkpt lat="47.46651" lon="6.74819">
        <ele>364</ele>
        <time>2016-05-15T09:53:36.000Z</time>
      </trkpt>
      <trkpt lat="47.4665" lon="6.74824">
        <ele>364</ele>
        <time>2016-05-15T09:53:39.000Z</time>
      </trkpt>
      <trkpt lat="47.4665" lon="6.74826">
        <ele>364</ele>
        <time>2016-05-15T09:53:40.000Z</time>
      </trkpt>
      <trkpt lat="47.46647" lon="6.74831">
        <ele>364</ele>
        <time>2016-05-15T09:53:43.000Z</time>
      </trkpt>
      <trkpt lat="47.46646" lon="6.74831">
        <ele>364</ele>
        <time>2016-05-15T09:53:44.000Z</time>
      </trkpt>
      <trkpt lat="47.46643" lon="6.74835">
        <ele>368</ele>
        <time>2016-05-15T09:54:18.000Z</time>
      </trkpt>
      <trkpt lat="47.46643" lon="6.74836">
        <ele>368</ele>
        <time>2016-05-15T09:54:19.000Z</time>
      </trkpt>
      <trkpt lat="47.46645" lon="6.74841">
        <ele>368</ele>
        <time>2016-05-15T09:54:22.000Z</time>
      </trkpt>
      <trkpt lat="47.46645" lon="6.74845">
        <ele>368</ele>
        <time>2016-05-15T09:54:23.000Z</time>
      </trkpt>
      <trkpt lat="47.46646" lon="6.7485">
        <ele>368</ele>
        <time>2016-05-15T09:54:24.998Z</time>
      </trkpt>
      <trkpt lat="47.46647" lon="6.74854">
        <ele>368</ele>
        <time>2016-05-15T09:54:26.000Z</time>
      </trkpt>
      <trkpt lat="47.46649" lon="6.74857">
        <ele>368</ele>
        <time>2016-05-15T09:54:27.000Z</time>
      </trkpt>
      <trkpt lat="47.46651" lon="6.74859">
        <ele>368</ele>
        <time>2016-05-15T09:54:27.999Z</time>
      </trkpt>
      <trkpt lat="47.46653" lon="6.74862">
        <ele>368</ele>
        <time>2016-05-15T09:54:29.001Z</time>
      </trkpt>
      <trkpt lat="47.46655" lon="6.74864">
        <ele>368</ele>
        <time>2016-05-15T09:54:30.000Z</time>
      </trkpt>
      <trkpt lat="47.46657" lon="6.74869">
        <ele>368</ele>
        <time>2016-05-15T09:54:32.000Z</time>
      </trkpt>
      <trkpt lat="47.46658" lon="6.74872">
        <ele>368</ele>
        <time>2016-05-15T09:54:33.000Z</time>
      </trkpt>
      <trkpt lat="47.46658" lon="6.74877">
        <ele>368</ele>
        <time>2016-05-15T09:54:34.000Z</time>
      </trkpt>
      <trkpt lat="47.46659" lon="6.74881">
        <ele>368</ele>
        <time>2016-05-15T09:54:35.000Z</time>
      </trkpt>
      <trkpt lat="47.46659" lon="6.74885">
        <ele>368</ele>
        <time>2016-05-15T09:54:36.000Z</time>
      </trkpt>
      <trkpt lat="47.4666" lon="6.7489">
        <ele>368</ele>
        <time>2016-05-15T09:54:37.000Z</time>
      </trkpt>
      <trkpt lat="47.4666" lon="6.74895">
        <ele>368</ele>
        <time>2016-05-15T09:54:38.000Z</time>
      </trkpt>
      <trkpt lat="47.46661" lon="6.74899">
        <ele>367</ele>
        <time>2016-05-15T09:54:39.000Z</time>
      </trkpt>
      <trkpt lat="47.46662" lon="6.74904">
        <ele>367</ele>
        <time>2016-05-15T09:54:40.000Z</time>
      </trkpt>
      <trkpt lat="47.46663" lon="6.74908">
        <ele>367</ele>
        <time>2016-05-15T09:54:41.000Z</time>
      </trkpt>
      <trkpt lat="47.46664" lon="6.74912">
        <ele>366</ele>
        <time>2016-05-15T09:54:42.000Z</time>
      </trkpt>
      <trkpt lat="47.46665" lon="6.74915">
        <ele>365</ele>
        <time>2016-05-15T09:54:43.000Z</time>
      </trkpt>
      <trkpt lat="47.46667" lon="6.74918">
        <ele>365</ele>
        <time>2016-05-15T09:54:44.000Z</time>
      </trkpt>
      <trkpt lat="47.46669" lon="6.7492">
        <ele>364</ele>
        <time>2016-05-15T09:54:45.000Z</time>
      </trkpt>
      <trkpt lat="47.46672" lon="6.74924">
        <ele>364</ele>
        <time>2016-05-15T09:54:47.000Z</time>
      </trkpt>
      <trkpt lat="47.46673" lon="6.74926">
        <ele>363</ele>
        <time>2016-05-15T09:54:48.000Z</time>
      </trkpt>
      <trkpt lat="47.46674" lon="6.7493">
        <ele>363</ele>
        <time>2016-05-15T09:54:50.000Z</time>
      </trkpt>
      <trkpt lat="47.46674" lon="6.74933">
        <ele>363</ele>
        <time>2016-05-15T09:54:51.000Z</time>
      </trkpt>
      <trkpt lat="47.46673" lon="6.74939">
        <ele>363</ele>
        <time>2016-05-15T09:54:53.000Z</time>
      </trkpt>
      <trkpt lat="47.46674" lon="6.74943">
        <ele>363</ele>
        <time>2016-05-15T09:54:54.000Z</time>
      </trkpt>
      <trkpt lat="47.46674" lon="6.74948">
        <ele>363</ele>
        <time>2016-05-15T09:54:56.000Z</time>
      </trkpt>
      <trkpt lat="47.46675" lon="6.74951">
        <ele>363</ele>
        <time>2016-05-15T09:54:57.000Z</time>
      </trkpt>
      <trkpt lat="47.46676" lon="6.74954">
        <ele>363</ele>
        <time>2016-05-15T09:54:58.000Z</time>
      </trkpt>
      <trkpt lat="47.46677" lon="6.74957">
        <ele>363</ele>
        <time>2016-05-15T09:54:59.000Z</time>
      </trkpt>
      <trkpt lat="47.46679" lon="6.74962">
        <ele>363</ele>
        <time>2016-05-15T09:55:00.000Z</time>
      </trkpt>
      <trkpt lat="47.46681" lon="6.74966">
        <ele>363</ele>
        <time>2016-05-15T09:55:01.000Z</time>
      </trkpt>
      <trkpt lat="47.46682" lon="6.7497">
        <ele>363</ele>
        <time>2016-05-15T09:55:02.000Z</time>
      </trkpt>
      <trkpt lat="47.46682" lon="6.74975">
        <ele>364</ele>
        <time>2016-05-15T09:55:03.000Z</time>
      </trkpt>
      <trkpt lat="47.46682" lon="6.7498">
        <ele>364</ele>
        <time>2016-05-15T09:55:04.000Z</time>
      </trkpt>
      <trkpt lat="47.46681" lon="6.74985">
        <ele>365</ele>
        <time>2016-05-15T09:55:05.000Z</time>
      </trkpt>
      <trkpt lat="47.46682" lon="6.7499">
        <ele>365</ele>
        <time>2016-05-15T09:55:06.000Z</time>
      </trkpt>
      <trkpt lat="47.46682" lon="6.74994">
        <ele>366</ele>
        <time>2016-05-15T09:55:07.000Z</time>
      </trkpt>
      <trkpt lat="47.46683" lon="6.74998">
        <ele>366</ele>
        <time>2016-05-15T09:55:08.000Z</time>
      </trkpt>
      <trkpt lat="47.46685" lon="6.75002">
        <ele>367</ele>
        <time>2016-05-15T09:55:09.000Z</time>
      </trkpt>
      <trkpt lat="47.46685" lon="6.75006">
        <ele>367</ele>
        <time>2016-05-15T09:55:10.000Z</time>
      </trkpt>
      <trkpt lat="47.46686" lon="6.7501">
        <ele>367</ele>
        <time>2016-05-15T09:55:11.000Z</time>
      </trkpt>
      <trkpt lat="47.46687" lon="6.75014">
        <ele>366</ele>
        <time>2016-05-15T09:55:12.000Z</time>
      </trkpt>
      <trkpt lat="47.46688" lon="6.75019">
        <ele>366</ele>
        <time>2016-05-15T09:55:13.000Z</time>
      </trkpt>
      <trkpt lat="47.46689" lon="6.75025">
        <ele>366</ele>
        <time>2016-05-15T09:55:16.000Z</time>
      </trkpt>
      <trkpt lat="47.46689" lon="6.75026">
        <ele>366</ele>
        <time>2016-05-15T09:55:17.000Z</time>
      </trkpt>
      <trkpt lat="47.46691" lon="6.75031">
        <ele>366</ele>
        <time>2016-05-15T09:55:28.000Z</time>
      </trkpt>
      <trkpt lat="47.46691" lon="6.75032">
        <ele>366</ele>
        <time>2016-05-15T09:55:29.000Z</time>
      </trkpt>
      <trkpt lat="47.46693" lon="6.75037">
        <ele>366</ele>
        <time>2016-05-15T09:55:31.000Z</time>
      </trkpt>
      <trkpt lat="47.46693" lon="6.7504">
        <ele>366</ele>
        <time>2016-05-15T09:55:32.000Z</time>
      </trkpt>
      <trkpt lat="47.46693" lon="6.75044">
        <ele>366</ele>
        <time>2016-05-15T09:55:33.000Z</time>
      </trkpt>
      <trkpt lat="47.46693" lon="6.75047">
        <ele>366</ele>
        <time>2016-05-15T09:55:34.000Z</time>
      </trkpt>
      <trkpt lat="47.46693" lon="6.75051">
        <ele>366</ele>
        <time>2016-05-15T09:55:35.000Z</time>
      </trkpt>
      <trkpt lat="47.46693" lon="6.75054">
        <ele>366</ele>
        <time>2016-05-15T09:55:36.000Z</time>
      </trkpt>
      <trkpt lat="47.46694" lon="6.75058">
        <ele>366</ele>
        <time>2016-05-15T09:55:37.000Z</time>
      </trkpt>
      <trkpt lat="47.46695" lon="6.75062">
        <ele>367</ele>
        <time>2016-05-15T09:55:38.000Z</time>
      </trkpt>
      <trkpt lat="47.46695" lon="6.75066">
        <ele>367</ele>
        <time>2016-05-15T09:55:39.000Z</time>
      </trkpt>
      <trkpt lat="47.46696" lon="6.75071">
        <ele>367</ele>
        <time>2016-05-15T09:55:40.000Z</time>
      </trkpt>
      <trkpt lat="47.46696" lon="6.75075">
        <ele>367</ele>
        <time>2016-05-15T09:55:41.000Z</time>
      </trkpt>
      <trkpt lat="47.46697" lon="6.7508">
        <ele>367</ele>
        <time>2016-05-15T09:55:42.000Z</time>
      </trkpt>
      <trkpt lat="47.46697" lon="6.75084">
        <ele>369</ele>
        <time>2016-05-15T09:55:43.000Z</time>
      </trkpt>
      <trkpt lat="47.46696" lon="6.75087">
        <ele>369</ele>
        <time>2016-05-15T09:55:44.000Z</time>
      </trkpt>
      <trkpt lat="47.46695" lon="6.7509">
        <ele>369</ele>
        <time>2016-05-15T09:55:45.000Z</time>
      </trkpt>
      <trkpt lat="47.46695" lon="6.75094">
        <ele>369</ele>
        <time>2016-05-15T09:55:46.000Z</time>
      </trkpt>
      <trkpt lat="47.46694" lon="6.75098">
        <ele>369</ele>
        <time>2016-05-15T09:55:47.000Z</time>
      </trkpt>
      <trkpt lat="47.46694" lon="6.75103">
        <ele>369</ele>
        <time>2016-05-15T09:55:48.000Z</time>
      </trkpt>
      <trkpt lat="47.46695" lon="6.75108">
        <ele>369</ele>
        <time>2016-05-15T09:55:49.000Z</time>
      </trkpt>
      <trkpt lat="47.46695" lon="6.75113">
        <ele>368</ele>
        <time>2016-05-15T09:55:50.000Z</time>
      </trkpt>
      <trkpt lat="47.46695" lon="6.75118">
        <ele>368</ele>
        <time>2016-05-15T09:55:51.000Z</time>
      </trkpt>
      <trkpt lat="47.46694" lon="6.75123">
        <ele>368</ele>
        <time>2016-05-15T09:55:52.000Z</time>
      </trkpt>
      <trkpt lat="47.46693" lon="6.75127">
        <ele>369</ele>
        <time>2016-05-15T09:55:53.000Z</time>
      </trkpt>
      <trkpt lat="47.46693" lon="6.75131">
        <ele>369</ele>
        <time>2016-05-15T09:55:54.000Z</time>
      </trkpt>
      <trkpt lat="47.46692" lon="6.75134">
        <ele>369</ele>
        <time>2016-05-15T09:55:55.000Z</time>
      </trkpt>
      <trkpt lat="47.46691" lon="6.75138">
        <ele>369</ele>
        <time>2016-05-15T09:55:56.000Z</time>
      </trkpt>
      <trkpt lat="47.46691" lon="6.75142">
        <ele>370</ele>
        <time>2016-05-15T09:55:57.000Z</time>
      </trkpt>
      <trkpt lat="47.4669" lon="6.75146">
        <ele>370</ele>
        <time>2016-05-15T09:55:58.000Z</time>
      </trkpt>
      <trkpt lat="47.4669" lon="6.7515">
        <ele>370</ele>
        <time>2016-05-15T09:55:59.000Z</time>
      </trkpt>
      <trkpt lat="47.4669" lon="6.75153">
        <ele>370</ele>
        <time>2016-05-15T09:56:00.000Z</time>
      </trkpt>
      <trkpt lat="47.4669" lon="6.75157">
        <ele>370</ele>
        <time>2016-05-15T09:56:01.000Z</time>
      </trkpt>
      <trkpt lat="47.46691" lon="6.7516">
        <ele>371</ele>
        <time>2016-05-15T09:56:02.000Z</time>
      </trkpt>
      <trkpt lat="47.46691" lon="6.75165">
        <ele>371</ele>
        <time>2016-05-15T09:56:03.000Z</time>
      </trkpt>
      <trkpt lat="47.46691" lon="6.7517">
        <ele>370</ele>
        <time>2016-05-15T09:56:04.000Z</time>
      </trkpt>
      <trkpt lat="47.46691" lon="6.75176">
        <ele>370</ele>
        <time>2016-05-15T09:56:05.000Z</time>
      </trkpt>
      <trkpt lat="47.46691" lon="6.75182">
        <ele>370</ele>
        <time>2016-05-15T09:56:06.000Z</time>
      </trkpt>
      <trkpt lat="47.46691" lon="6.75189">
        <ele>369</ele>
        <time>2016-05-15T09:56:07.000Z</time>
      </trkpt>
      <trkpt lat="47.46692" lon="6.75195">
        <ele>369</ele>
        <time>2016-05-15T09:56:08.000Z</time>
      </trkpt>
      <trkpt lat="47.46694" lon="6.752">
        <ele>368</ele>
        <time>2016-05-15T09:56:09.000Z</time>
      </trkpt>
      <trkpt lat="47.46695" lon="6.75204">
        <ele>368</ele>
        <time>2016-05-15T09:56:10.000Z</time>
      </trkpt>
      <trkpt lat="47.46695" lon="6.75208">
        <ele>368</ele>
        <time>2016-05-15T09:56:11.000Z</time>
      </trkpt>
      <trkpt lat="47.46696" lon="6.75214">
        <ele>368</ele>
        <time>2016-05-15T09:56:13.000Z</time>
      </trkpt>
      <trkpt lat="47.46696" lon="6.75217">
        <ele>368</ele>
        <time>2016-05-15T09:56:14.000Z</time>
      </trkpt>
      <trkpt lat="47.46696" lon="6.75221">
        <ele>368</ele>
        <time>2016-05-15T09:56:15.000Z</time>
      </trkpt>
      <trkpt lat="47.46695" lon="6.75224">
        <ele>368</ele>
        <time>2016-05-15T09:56:16.000Z</time>
      </trkpt>
      <trkpt lat="47.46695" lon="6.75227">
        <ele>368</ele>
        <time>2016-05-15T09:56:17.000Z</time>
      </trkpt>
      <trkpt lat="47.46695" lon="6.75231">
        <ele>368</ele>
        <time>2016-05-15T09:56:18.000Z</time>
      </trkpt>
      <trkpt lat="47.46695" lon="6.75234">
        <ele>368</ele>
        <time>2016-05-15T09:56:19.000Z</time>
      </trkpt>
      <trkpt lat="47.46695" lon="6.75238">
        <ele>369</ele>
        <time>2016-05-15T09:56:20.000Z</time>
      </trkpt>
      <trkpt lat="47.46695" lon="6.75243">
        <ele>369</ele>
        <time>2016-05-15T09:56:21.000Z</time>
      </trkpt>
      <trkpt lat="47.46695" lon="6.75249">
        <ele>369</ele>
        <time>2016-05-15T09:56:22.000Z</time>
      </trkpt>
      <trkpt lat="47.46695" lon="6.75256">
        <ele>369</ele>
        <time>2016-05-15T09:56:23.000Z</time>
      </trkpt>
      <trkpt lat="47.46695" lon="6.75264">
        <ele>368</ele>
        <time>2016-05-15T09:56:24.000Z</time>
      </trkpt>
      <trkpt lat="47.46696" lon="6.75272">
        <ele>368</ele>
        <time>2016-05-15T09:56:25.000Z</time>
      </trkpt>
      <trkpt lat="47.46697" lon="6.7528">
        <ele>368</ele>
        <time>2016-05-15T09:56:26.000Z</time>
      </trkpt>
      <trkpt lat="47.46699" lon="6.75289">
        <ele>367</ele>
        <time>2016-05-15T09:56:27.000Z</time>
      </trkpt>
      <trkpt lat="47.467" lon="6.75319">
        <ele>368</ele>
        <time>2016-05-15T09:56:28.000Z</time>
      </trkpt>
      <trkpt lat="47.46698" lon="6.7533">
        <ele>369</ele>
        <time>2016-05-15T09:56:29.000Z</time>
      </trkpt>
      <trkpt lat="47.46699" lon="6.7534">
        <ele>368</ele>
        <time>2016-05-15T09:56:30.000Z</time>
      </trkpt>
      <trkpt lat="47.46698" lon="6.75351">
        <ele>367</ele>
        <time>2016-05-15T09:56:31.000Z</time>
      </trkpt>
      <trkpt lat="47.46699" lon="6.75362">
        <ele>366</ele>
        <time>2016-05-15T09:56:32.000Z</time>
      </trkpt>
      <trkpt lat="47.46697" lon="6.75371">
        <ele>366</ele>
        <time>2016-05-15T09:56:33.000Z</time>
      </trkpt>
      <trkpt lat="47.46696" lon="6.75378">
        <ele>366</ele>
        <time>2016-05-15T09:56:34.000Z</time>
      </trkpt>
      <trkpt lat="47.46695" lon="6.75384">
        <ele>366</ele>
        <time>2016-05-15T09:56:35.000Z</time>
      </trkpt>
      <trkpt lat="47.46693" lon="6.75387">
        <ele>366</ele>
        <time>2016-05-15T09:56:36.000Z</time>
      </trkpt>
      <trkpt lat="47.46693" lon="6.7539">
        <ele>366</ele>
        <time>2016-05-15T09:56:37.000Z</time>
      </trkpt>
      <trkpt lat="47.46693" lon="6.75395">
        <ele>367</ele>
        <time>2016-05-15T09:56:38.000Z</time>
      </trkpt>
      <trkpt lat="47.46691" lon="6.75402">
        <ele>367</ele>
        <time>2016-05-15T09:56:39.000Z</time>
      </trkpt>
      <trkpt lat="47.46688" lon="6.75406">
        <ele>368</ele>
        <time>2016-05-15T09:56:40.000Z</time>
      </trkpt>
      <trkpt lat="47.46688" lon="6.7541">
        <ele>369</ele>
        <time>2016-05-15T09:56:41.000Z</time>
      </trkpt>
      <trkpt lat="47.46685" lon="6.75418">
        <ele>366</ele>
        <time>2016-05-15T09:56:42.000Z</time>
      </trkpt>
      <trkpt lat="47.46685" lon="6.75423">
        <ele>366</ele>
        <time>2016-05-15T09:56:43.000Z</time>
      </trkpt>
      <trkpt lat="47.46683" lon="6.75429">
        <ele>366</ele>
        <time>2016-05-15T09:56:44.000Z</time>
      </trkpt>
      <trkpt lat="47.46681" lon="6.7543">
        <ele>366</ele>
        <time>2016-05-15T09:56:45.000Z</time>
      </trkpt>
      <trkpt lat="47.46681" lon="6.75439">
        <ele>364</ele>
        <time>2016-05-15T09:56:46.000Z</time>
      </trkpt>
      <trkpt lat="47.46681" lon="6.75445">
        <ele>363</ele>
        <time>2016-05-15T09:56:47.000Z</time>
      </trkpt>
      <trkpt lat="47.46678" lon="6.7545">
        <ele>362</ele>
        <time>2016-05-15T09:56:48.000Z</time>
      </trkpt>
      <trkpt lat="47.46676" lon="6.75457">
        <ele>362</ele>
        <time>2016-05-15T09:56:49.000Z</time>
      </trkpt>
      <trkpt lat="47.46674" lon="6.75464">
        <ele>361</ele>
        <time>2016-05-15T09:56:50.000Z</time>
      </trkpt>
      <trkpt lat="47.46671" lon="6.75472">
        <ele>361</ele>
        <time>2016-05-15T09:56:51.000Z</time>
      </trkpt>
      <trkpt lat="47.4667" lon="6.75478">
        <ele>361</ele>
        <time>2016-05-15T09:56:52.000Z</time>
      </trkpt>
      <trkpt lat="47.46668" lon="6.75483">
        <ele>362</ele>
        <time>2016-05-15T09:56:53.000Z</time>
      </trkpt>
      <trkpt lat="47.46666" lon="6.75489">
        <ele>370</ele>
        <time>2016-05-15T09:56:54.000Z</time>
      </trkpt>
      <trkpt lat="47.46664" lon="6.75494">
        <ele>368</ele>
        <time>2016-05-15T09:56:55.000Z</time>
      </trkpt>
      <trkpt lat="47.46662" lon="6.75498">
        <ele>367</ele>
        <time>2016-05-15T09:56:56.000Z</time>
      </trkpt>
      <trkpt lat="47.4666" lon="6.75503">
        <ele>366</ele>
        <time>2016-05-15T09:56:57.000Z</time>
      </trkpt>
      <trkpt lat="47.46659" lon="6.75508">
        <ele>367</ele>
        <time>2016-05-15T09:56:58.000Z</time>
      </trkpt>
      <trkpt lat="47.46657" lon="6.75514">
        <ele>368</ele>
        <time>2016-05-15T09:56:59.000Z</time>
      </trkpt>
      <trkpt lat="47.46656" lon="6.7552">
        <ele>369</ele>
        <time>2016-05-15T09:57:00.000Z</time>
      </trkpt>
      <trkpt lat="47.46654" lon="6.75525">
        <ele>369</ele>
        <time>2016-05-15T09:57:01.000Z</time>
      </trkpt>
      <trkpt lat="47.46653" lon="6.7553">
        <ele>370</ele>
        <time>2016-05-15T09:57:02.000Z</time>
      </trkpt>
      <trkpt lat="47.46651" lon="6.75534">
        <ele>370</ele>
        <time>2016-05-15T09:57:03.000Z</time>
      </trkpt>
      <trkpt lat="47.46649" lon="6.75539">
        <ele>370</ele>
        <time>2016-05-15T09:57:04.000Z</time>
      </trkpt>
      <trkpt lat="47.46647" lon="6.75544">
        <ele>370</ele>
        <time>2016-05-15T09:57:05.000Z</time>
      </trkpt>
      <trkpt lat="47.46645" lon="6.75549">
        <ele>370</ele>
        <time>2016-05-15T09:57:06.000Z</time>
      </trkpt>
      <trkpt lat="47.46644" lon="6.75555">
        <ele>369</ele>
        <time>2016-05-15T09:57:07.000Z</time>
      </trkpt>
      <trkpt lat="47.46644" lon="6.75561">
        <ele>369</ele>
        <time>2016-05-15T09:57:08.000Z</time>
      </trkpt>
      <trkpt lat="47.46645" lon="6.75567">
        <ele>368</ele>
        <time>2016-05-15T09:57:09.000Z</time>
      </trkpt>
      <trkpt lat="47.46645" lon="6.75573">
        <ele>367</ele>
        <time>2016-05-15T09:57:10.000Z</time>
      </trkpt>
      <trkpt lat="47.46646" lon="6.75579">
        <ele>366</ele>
        <time>2016-05-15T09:57:11.000Z</time>
      </trkpt>
      <trkpt lat="47.46645" lon="6.75584">
        <ele>364</ele>
        <time>2016-05-15T09:57:12.000Z</time>
      </trkpt>
      <trkpt lat="47.46645" lon="6.75589">
        <ele>365</ele>
        <time>2016-05-15T09:57:13.000Z</time>
      </trkpt>
      <trkpt lat="47.46643" lon="6.75595">
        <ele>365</ele>
        <time>2016-05-15T09:57:14.000Z</time>
      </trkpt>
      <trkpt lat="47.46641" lon="6.756">
        <ele>366</ele>
        <time>2016-05-15T09:57:15.000Z</time>
      </trkpt>
      <trkpt lat="47.46639" lon="6.75607">
        <ele>367</ele>
        <time>2016-05-15T09:57:16.000Z</time>
      </trkpt>
      <trkpt lat="47.46636" lon="6.75613">
        <ele>368</ele>
        <time>2016-05-15T09:57:17.000Z</time>
      </trkpt>
      <trkpt lat="47.46638" lon="6.75634">
        <ele>368</ele>
        <time>2016-05-15T09:57:18.000Z</time>
      </trkpt>
      <trkpt lat="47.46642" lon="6.75642">
        <ele>367</ele>
        <time>2016-05-15T09:57:19.000Z</time>
      </trkpt>
      <trkpt lat="47.46643" lon="6.75648">
        <ele>366</ele>
        <time>2016-05-15T09:57:20.000Z</time>
      </trkpt>
      <trkpt lat="47.46649" lon="6.75659">
        <ele>365</ele>
        <time>2016-05-15T09:57:21.000Z</time>
      </trkpt>
      <trkpt lat="47.46656" lon="6.75674">
        <ele>363</ele>
        <time>2016-05-15T09:57:23.000Z</time>
      </trkpt>
      <trkpt lat="47.46659" lon="6.75682">
        <ele>364</ele>
        <time>2016-05-15T09:57:24.000Z</time>
      </trkpt>
      <trkpt lat="47.46668" lon="6.7569">
        <ele>356</ele>
        <time>2016-05-15T09:57:25.000Z</time>
      </trkpt>
      <trkpt lat="47.46673" lon="6.757">
        <ele>356</ele>
        <time>2016-05-15T09:57:26.000Z</time>
      </trkpt>
      <trkpt lat="47.46678" lon="6.75707">
        <ele>356</ele>
        <time>2016-05-15T09:57:27.000Z</time>
      </trkpt>
      <trkpt lat="47.4668" lon="6.75717">
        <ele>356</ele>
        <time>2016-05-15T09:57:28.000Z</time>
      </trkpt>
      <trkpt lat="47.46683" lon="6.75728">
        <ele>356</ele>
        <time>2016-05-15T09:57:29.000Z</time>
      </trkpt>
      <trkpt lat="47.46687" lon="6.7574">
        <ele>356</ele>
        <time>2016-05-15T09:57:30.000Z</time>
      </trkpt>
      <trkpt lat="47.4669" lon="6.75753">
        <ele>356</ele>
        <time>2016-05-15T09:57:31.000Z</time>
      </trkpt>
      <trkpt lat="47.46692" lon="6.75764">
        <ele>355</ele>
        <time>2016-05-15T09:57:32.000Z</time>
      </trkpt>
      <trkpt lat="47.46694" lon="6.75775">
        <ele>354</ele>
        <time>2016-05-15T09:57:33.000Z</time>
      </trkpt>
      <trkpt lat="47.46693" lon="6.75785">
        <ele>354</ele>
        <time>2016-05-15T09:57:34.000Z</time>
      </trkpt>
      <trkpt lat="47.46695" lon="6.75795">
        <ele>354</ele>
        <time>2016-05-15T09:57:35.000Z</time>
      </trkpt>
      <trkpt lat="47.46693" lon="6.75802">
        <ele>354</ele>
        <time>2016-05-15T09:57:36.000Z</time>
      </trkpt>
      <trkpt lat="47.4669" lon="6.75814">
        <ele>355</ele>
        <time>2016-05-15T09:57:37.000Z</time>
      </trkpt>
      <trkpt lat="47.46689" lon="6.75824">
        <ele>355</ele>
        <time>2016-05-15T09:57:38.000Z</time>
      </trkpt>
      <trkpt lat="47.46688" lon="6.75836">
        <ele>353</ele>
        <time>2016-05-15T09:57:39.000Z</time>
      </trkpt>
      <trkpt lat="47.46688" lon="6.75848">
        <ele>353</ele>
        <time>2016-05-15T09:57:40.000Z</time>
      </trkpt>
      <trkpt lat="47.46691" lon="6.75861">
        <ele>351</ele>
        <time>2016-05-15T09:57:41.000Z</time>
      </trkpt>
      <trkpt lat="47.4669" lon="6.75871">
        <ele>351</ele>
        <time>2016-05-15T09:57:42.000Z</time>
      </trkpt>
      <trkpt lat="47.4669" lon="6.75882">
        <ele>350</ele>
        <time>2016-05-15T09:57:43.000Z</time>
      </trkpt>
      <trkpt lat="47.4669" lon="6.75893">
        <ele>350</ele>
        <time>2016-05-15T09:57:44.000Z</time>
      </trkpt>
      <trkpt lat="47.4669" lon="6.75901">
        <ele>350</ele>
        <time>2016-05-15T09:57:45.000Z</time>
      </trkpt>
      <trkpt lat="47.46689" lon="6.75907">
        <ele>351</ele>
        <time>2016-05-15T09:57:46.000Z</time>
      </trkpt>
      <trkpt lat="47.46688" lon="6.75914">
        <ele>351</ele>
        <time>2016-05-15T09:57:47.000Z</time>
      </trkpt>
      <trkpt lat="47.46689" lon="6.75918">
        <ele>348</ele>
        <time>2016-05-15T09:57:48.000Z</time>
      </trkpt>
      <trkpt lat="47.46688" lon="6.75921">
        <ele>348</ele>
        <time>2016-05-15T09:57:49.000Z</time>
      </trkpt>
      <trkpt lat="47.46687" lon="6.75924">
        <ele>348</ele>
        <time>2016-05-15T09:57:50.000Z</time>
      </trkpt>
      <trkpt lat="47.46687" lon="6.75933">
        <ele>348</ele>
        <time>2016-05-15T09:57:51.000Z</time>
      </trkpt>
      <trkpt lat="47.46687" lon="6.7594">
        <ele>347</ele>
        <time>2016-05-15T09:57:52.000Z</time>
      </trkpt>
      <trkpt lat="47.46685" lon="6.75948">
        <ele>347</ele>
        <time>2016-05-15T09:57:53.000Z</time>
      </trkpt>
      <trkpt lat="47.46686" lon="6.75952">
        <ele>346</ele>
        <time>2016-05-15T09:57:54.000Z</time>
      </trkpt>
      <trkpt lat="47.46686" lon="6.75958">
        <ele>346</ele>
        <time>2016-05-15T09:57:55.000Z</time>
      </trkpt>
      <trkpt lat="47.46685" lon="6.75964">
        <ele>346</ele>
        <time>2016-05-15T09:57:56.000Z</time>
      </trkpt>
      <trkpt lat="47.46685" lon="6.7597">
        <ele>346</ele>
        <time>2016-05-15T09:57:57.000Z</time>
      </trkpt>
      <trkpt lat="47.46685" lon="6.75976">
        <ele>346</ele>
        <time>2016-05-15T09:57:58.000Z</time>
      </trkpt>
      <trkpt lat="47.46686" lon="6.75981">
        <ele>346</ele>
        <time>2016-05-15T09:57:59.000Z</time>
      </trkpt>
      <trkpt lat="47.46689" lon="6.75985">
        <ele>346</ele>
        <time>2016-05-15T09:58:00.000Z</time>
      </trkpt>
      <trkpt lat="47.46692" lon="6.75988">
        <ele>345</ele>
        <time>2016-05-15T09:58:01.000Z</time>
      </trkpt>
      <trkpt lat="47.46696" lon="6.7599">
        <ele>345</ele>
        <time>2016-05-15T09:58:02.000Z</time>
      </trkpt>
      <trkpt lat="47.46701" lon="6.75992">
        <ele>344</ele>
        <time>2016-05-15T09:58:03.000Z</time>
      </trkpt>
      <trkpt lat="47.46705" lon="6.75994">
        <ele>344</ele>
        <time>2016-05-15T09:58:04.000Z</time>
      </trkpt>
      <trkpt lat="47.4671" lon="6.75996">
        <ele>343</ele>
        <time>2016-05-15T09:58:05.000Z</time>
      </trkpt>
      <trkpt lat="47.46715" lon="6.75997">
        <ele>343</ele>
        <time>2016-05-15T09:58:06.000Z</time>
      </trkpt>
      <trkpt lat="47.46719" lon="6.75998">
        <ele>342</ele>
        <time>2016-05-15T09:58:07.000Z</time>
      </trkpt>
      <trkpt lat="47.46723" lon="6.75998">
        <ele>341</ele>
        <time>2016-05-15T09:58:08.000Z</time>
      </trkpt>
      <trkpt lat="47.46725" lon="6.75999">
        <ele>341</ele>
        <time>2016-05-15T09:58:09.000Z</time>
      </trkpt>
      <trkpt lat="47.46729" lon="6.76003">
        <ele>337</ele>
        <time>2016-05-15T09:58:14.000Z</time>
      </trkpt>
      <trkpt lat="47.46729" lon="6.76003">
        <ele>337</ele>
        <time>2016-05-15T09:58:15.000Z</time>
      </trkpt>
      <trkpt lat="47.46733" lon="6.76002">
        <ele>337</ele>
        <time>2016-05-15T09:59:16.000Z</time>
      </trkpt>
      <trkpt lat="47.46733" lon="6.76005">
        <ele>337</ele>
        <time>2016-05-15T09:59:17.000Z</time>
      </trkpt>
      <trkpt lat="47.46734" lon="6.7601">
        <ele>337</ele>
        <time>2016-05-15T09:59:19.000Z</time>
      </trkpt>
      <trkpt lat="47.46735" lon="6.76015">
        <ele>337</ele>
        <time>2016-05-15T09:59:20.000Z</time>
      </trkpt>
      <trkpt lat="47.46736" lon="6.76021">
        <ele>337</ele>
        <time>2016-05-15T09:59:21.000Z</time>
      </trkpt>
      <trkpt lat="47.46737" lon="6.76027">
        <ele>337</ele>
        <time>2016-05-15T09:59:22.000Z</time>
      </trkpt>
      <trkpt lat="47.46737" lon="6.76033">
        <ele>336</ele>
        <time>2016-05-15T09:59:23.000Z</time>
      </trkpt>
      <trkpt lat="47.46737" lon="6.76038">
        <ele>336</ele>
        <time>2016-05-15T09:59:23.999Z</time>
      </trkpt>
      <trkpt lat="47.46731" lon="6.76061">
        <ele>335</ele>
        <time>2016-05-15T09:59:25.000Z</time>
      </trkpt>
      <trkpt lat="47.46728" lon="6.76072">
        <ele>334</ele>
        <time>2016-05-15T09:59:26.000Z</time>
      </trkpt>
      <trkpt lat="47.46727" lon="6.76083">
        <ele>334</ele>
        <time>2016-05-15T09:59:27.000Z</time>
      </trkpt>
      <trkpt lat="47.46725" lon="6.76093">
        <ele>330</ele>
        <time>2016-05-15T09:59:28.000Z</time>
      </trkpt>
      <trkpt lat="47.46724" lon="6.76102">
        <ele>330</ele>
        <time>2016-05-15T09:59:29.000Z</time>
      </trkpt>
      <trkpt lat="47.46724" lon="6.76112">
        <ele>330</ele>
        <time>2016-05-15T09:59:30.000Z</time>
      </trkpt>
      <trkpt lat="47.46725" lon="6.76122">
        <ele>329</ele>
        <time>2016-05-15T09:59:31.000Z</time>
      </trkpt>
      <trkpt lat="47.46725" lon="6.7613">
        <ele>329</ele>
        <time>2016-05-15T09:59:32.000Z</time>
      </trkpt>
      <trkpt lat="47.46725" lon="6.76138">
        <ele>329</ele>
        <time>2016-05-15T09:59:33.000Z</time>
      </trkpt>
      <trkpt lat="47.46724" lon="6.76145">
        <ele>328</ele>
        <time>2016-05-15T09:59:34.000Z</time>
      </trkpt>
      <trkpt lat="47.46723" lon="6.76151">
        <ele>328</ele>
        <time>2016-05-15T09:59:35.000Z</time>
      </trkpt>
      <trkpt lat="47.46723" lon="6.76158">
        <ele>328</ele>
        <time>2016-05-15T09:59:36.000Z</time>
      </trkpt>
      <trkpt lat="47.46723" lon="6.76165">
        <ele>328</ele>
        <time>2016-05-15T09:59:37.000Z</time>
      </trkpt>
      <trkpt lat="47.46723" lon="6.76171">
        <ele>325</ele>
        <time>2016-05-15T09:59:38.000Z</time>
      </trkpt>
      <trkpt lat="47.46723" lon="6.76176">
        <ele>325</ele>
        <time>2016-05-15T09:59:39.000Z</time>
      </trkpt>
      <trkpt lat="47.46723" lon="6.76182">
        <ele>325</ele>
        <time>2016-05-15T09:59:40.000Z</time>
      </trkpt>
      <trkpt lat="47.46722" lon="6.76187">
        <ele>325</ele>
        <time>2016-05-15T09:59:41.000Z</time>
      </trkpt>
      <trkpt lat="47.46723" lon="6.76192">
        <ele>325</ele>
        <time>2016-05-15T09:59:42.000Z</time>
      </trkpt>
      <trkpt lat="47.46722" lon="6.76197">
        <ele>325</ele>
        <time>2016-05-15T09:59:43.000Z</time>
      </trkpt>
      <trkpt lat="47.46721" lon="6.76203">
        <ele>325</ele>
        <time>2016-05-15T09:59:44.000Z</time>
      </trkpt>
      <trkpt lat="47.46721" lon="6.76208">
        <ele>325</ele>
        <time>2016-05-15T09:59:45.000Z</time>
      </trkpt>
      <trkpt lat="47.4672" lon="6.76213">
        <ele>325</ele>
        <time>2016-05-15T09:59:46.000Z</time>
      </trkpt>
      <trkpt lat="47.46719" lon="6.76219">
        <ele>325</ele>
        <time>2016-05-15T09:59:47.000Z</time>
      </trkpt>
      <trkpt lat="47.46719" lon="6.76225">
        <ele>325</ele>
        <time>2016-05-15T09:59:48.000Z</time>
      </trkpt>
      <trkpt lat="47.46719" lon="6.76231">
        <ele>325</ele>
        <time>2016-05-15T09:59:49.000Z</time>
      </trkpt>
      <trkpt lat="47.46719" lon="6.76237">
        <ele>325</ele>
        <time>2016-05-15T09:59:50.000Z</time>
      </trkpt>
      <trkpt lat="47.46719" lon="6.76243">
        <ele>325</ele>
        <time>2016-05-15T09:59:51.000Z</time>
      </trkpt>
      <trkpt lat="47.46719" lon="6.7625">
        <ele>325</ele>
        <time>2016-05-15T09:59:52.000Z</time>
      </trkpt>
      <trkpt lat="47.46719" lon="6.76256">
        <ele>325</ele>
        <time>2016-05-15T09:59:53.000Z</time>
      </trkpt>
      <trkpt lat="47.46719" lon="6.76263">
        <ele>325</ele>
        <time>2016-05-15T09:59:54.000Z</time>
      </trkpt>
      <trkpt lat="47.46719" lon="6.76269">
        <ele>325</ele>
        <time>2016-05-15T09:59:55.000Z</time>
      </trkpt>
      <trkpt lat="47.46719" lon="6.76276">
        <ele>325</ele>
        <time>2016-05-15T09:59:56.000Z</time>
      </trkpt>
      <trkpt lat="47.46719" lon="6.76282">
        <ele>325</ele>
        <time>2016-05-15T09:59:57.000Z</time>
      </trkpt>
      <trkpt lat="47.46721" lon="6.76289">
        <ele>325</ele>
        <time>2016-05-15T09:59:58.000Z</time>
      </trkpt>
      <trkpt lat="47.46723" lon="6.76295">
        <ele>325</ele>
        <time>2016-05-15T09:59:59.000Z</time>
      </trkpt>
      <trkpt lat="47.46726" lon="6.763">
        <ele>325</ele>
        <time>2016-05-15T10:00:00.000Z</time>
      </trkpt>
      <trkpt lat="47.46729" lon="6.76303">
        <ele>325</ele>
        <time>2016-05-15T10:00:01.000Z</time>
      </trkpt>
      <trkpt lat="47.46733" lon="6.76304">
        <ele>326</ele>
        <time>2016-05-15T10:00:02.000Z</time>
      </trkpt>
      <trkpt lat="47.46738" lon="6.76304">
        <ele>326</ele>
        <time>2016-05-15T10:00:03.000Z</time>
      </trkpt>
      <trkpt lat="47.46742" lon="6.76302">
        <ele>326</ele>
        <time>2016-05-15T10:00:04.000Z</time>
      </trkpt>
      <trkpt lat="47.46746" lon="6.76301">
        <ele>326</ele>
        <time>2016-05-15T10:00:05.000Z</time>
      </trkpt>
      <trkpt lat="47.4675" lon="6.763">
        <ele>326</ele>
        <time>2016-05-15T10:00:06.000Z</time>
      </trkpt>
      <trkpt lat="47.46753" lon="6.76299">
        <ele>325</ele>
        <time>2016-05-15T10:00:07.000Z</time>
      </trkpt>
      <trkpt lat="47.46757" lon="6.76298">
        <ele>325</ele>
        <time>2016-05-15T10:00:08.000Z</time>
      </trkpt>
      <trkpt lat="47.4676" lon="6.76297">
        <ele>325</ele>
        <time>2016-05-15T10:00:09.000Z</time>
      </trkpt>
      <trkpt lat="47.46764" lon="6.76296">
        <ele>325</ele>
        <time>2016-05-15T10:00:10.000Z</time>
      </trkpt>
      <trkpt lat="47.46767" lon="6.76296">
        <ele>325</ele>
        <time>2016-05-15T10:00:11.000Z</time>
      </trkpt>
      <trkpt lat="47.46771" lon="6.76295">
        <ele>325</ele>
        <time>2016-05-15T10:00:12.000Z</time>
      </trkpt>
      <trkpt lat="47.46774" lon="6.76295">
        <ele>325</ele>
        <time>2016-05-15T10:00:13.000Z</time>
      </trkpt>
      <trkpt lat="47.46777" lon="6.76295">
        <ele>325</ele>
        <time>2016-05-15T10:00:14.000Z</time>
      </trkpt>
      <trkpt lat="47.46781" lon="6.76295">
        <ele>325</ele>
        <time>2016-05-15T10:00:15.000Z</time>
      </trkpt>
      <trkpt lat="47.46785" lon="6.76297">
        <ele>324</ele>
        <time>2016-05-15T10:00:16.000Z</time>
      </trkpt>
      <trkpt lat="47.46789" lon="6.76298">
        <ele>324</ele>
        <time>2016-05-15T10:00:17.000Z</time>
      </trkpt>
      <trkpt lat="47.46793" lon="6.76301">
        <ele>324</ele>
        <time>2016-05-15T10:00:18.000Z</time>
      </trkpt>
      <trkpt lat="47.46797" lon="6.76303">
        <ele>324</ele>
        <time>2016-05-15T10:00:19.000Z</time>
      </trkpt>
      <trkpt lat="47.468" lon="6.76306">
        <ele>324</ele>
        <time>2016-05-15T10:00:20.000Z</time>
      </trkpt>
      <trkpt lat="47.46804" lon="6.76309">
        <ele>324</ele>
        <time>2016-05-15T10:00:21.000Z</time>
      </trkpt>
      <trkpt lat="47.46808" lon="6.76311">
        <ele>324</ele>
        <time>2016-05-15T10:00:22.000Z</time>
      </trkpt>
      <trkpt lat="47.46811" lon="6.76313">
        <ele>324</ele>
        <time>2016-05-15T10:00:23.000Z</time>
      </trkpt>
      <trkpt lat="47.46815" lon="6.76315">
        <ele>323</ele>
        <time>2016-05-15T10:00:24.000Z</time>
      </trkpt>
      <trkpt lat="47.46818" lon="6.76317">
        <ele>323</ele>
        <time>2016-05-15T10:00:25.000Z</time>
      </trkpt>
      <trkpt lat="47.46822" lon="6.76319">
        <ele>323</ele>
        <time>2016-05-15T10:00:26.000Z</time>
      </trkpt>
      <trkpt lat="47.46825" lon="6.76321">
        <ele>323</ele>
        <time>2016-05-15T10:00:27.000Z</time>
      </trkpt>
      <trkpt lat="47.46828" lon="6.76324">
        <ele>323</ele>
        <time>2016-05-15T10:00:28.000Z</time>
      </trkpt>
      <trkpt lat="47.46831" lon="6.76326">
        <ele>323</ele>
        <time>2016-05-15T10:00:29.000Z</time>
      </trkpt>
      <trkpt lat="47.46835" lon="6.76329">
        <ele>322</ele>
        <time>2016-05-15T10:00:30.000Z</time>
      </trkpt>
      <trkpt lat="47.46838" lon="6.76331">
        <ele>322</ele>
        <time>2016-05-15T10:00:31.000Z</time>
      </trkpt>
      <trkpt lat="47.46842" lon="6.76334">
        <ele>322</ele>
        <time>2016-05-15T10:00:32.000Z</time>
      </trkpt>
      <trkpt lat="47.46846" lon="6.76336">
        <ele>322</ele>
        <time>2016-05-15T10:00:33.000Z</time>
      </trkpt>
      <trkpt lat="47.4685" lon="6.76338">
        <ele>322</ele>
        <time>2016-05-15T10:00:34.000Z</time>
      </trkpt>
      <trkpt lat="47.46854" lon="6.76339">
        <ele>323</ele>
        <time>2016-05-15T10:00:35.000Z</time>
      </trkpt>
      <trkpt lat="47.46859" lon="6.76339">
        <ele>323</ele>
        <time>2016-05-15T10:00:36.000Z</time>
      </trkpt>
      <trkpt lat="47.46864" lon="6.76339">
        <ele>322</ele>
        <time>2016-05-15T10:00:37.000Z</time>
      </trkpt>
      <trkpt lat="47.4687" lon="6.76336">
        <ele>322</ele>
        <time>2016-05-15T10:00:38.000Z</time>
      </trkpt>
      <trkpt lat="47.46875" lon="6.76336">
        <ele>322</ele>
        <time>2016-05-15T10:00:39.000Z</time>
      </trkpt>
      <trkpt lat="47.46879" lon="6.76335">
        <ele>322</ele>
        <time>2016-05-15T10:00:40.000Z</time>
      </trkpt>
      <trkpt lat="47.46884" lon="6.76334">
        <ele>322</ele>
        <time>2016-05-15T10:00:41.000Z</time>
      </trkpt>
      <trkpt lat="47.46889" lon="6.76334">
        <ele>322</ele>
        <time>2016-05-15T10:00:42.000Z</time>
      </trkpt>
      <trkpt lat="47.46894" lon="6.76332">
        <ele>321</ele>
        <time>2016-05-15T10:00:43.000Z</time>
      </trkpt>
      <trkpt lat="47.46898" lon="6.76332">
        <ele>321</ele>
        <time>2016-05-15T10:00:44.000Z</time>
      </trkpt>
      <trkpt lat="47.46903" lon="6.76332">
        <ele>321</ele>
        <time>2016-05-15T10:00:45.000Z</time>
      </trkpt>
      <trkpt lat="47.46908" lon="6.76334">
        <ele>321</ele>
        <time>2016-05-15T10:00:46.000Z</time>
      </trkpt>
      <trkpt lat="47.46913" lon="6.76334">
        <ele>320</ele>
        <time>2016-05-15T10:00:47.000Z</time>
      </trkpt>
      <trkpt lat="47.46918" lon="6.76334">
        <ele>320</ele>
        <time>2016-05-15T10:00:48.000Z</time>
      </trkpt>
      <trkpt lat="47.46923" lon="6.76333">
        <ele>320</ele>
        <time>2016-05-15T10:00:49.000Z</time>
      </trkpt>
      <trkpt lat="47.46928" lon="6.76334">
        <ele>320</ele>
        <time>2016-05-15T10:00:50.000Z</time>
      </trkpt>
      <trkpt lat="47.46932" lon="6.76334">
        <ele>320</ele>
        <time>2016-05-15T10:00:51.000Z</time>
      </trkpt>
      <trkpt lat="47.46938" lon="6.76335">
        <ele>320</ele>
        <time>2016-05-15T10:00:52.000Z</time>
      </trkpt>
      <trkpt lat="47.46942" lon="6.76335">
        <ele>320</ele>
        <time>2016-05-15T10:00:53.000Z</time>
      </trkpt>
      <trkpt lat="47.46946" lon="6.76338">
        <ele>320</ele>
        <time>2016-05-15T10:00:54.000Z</time>
      </trkpt>
      <trkpt lat="47.46951" lon="6.76338">
        <ele>320</ele>
        <time>2016-05-15T10:00:55.000Z</time>
      </trkpt>
      <trkpt lat="47.46958" lon="6.76335">
        <ele>319</ele>
        <time>2016-05-15T10:00:56.000Z</time>
      </trkpt>
      <trkpt lat="47.46963" lon="6.76336">
        <ele>319</ele>
        <time>2016-05-15T10:00:57.000Z</time>
      </trkpt>
      <trkpt lat="47.46967" lon="6.76338">
        <ele>319</ele>
        <time>2016-05-15T10:00:58.000Z</time>
      </trkpt>
      <trkpt lat="47.46972" lon="6.7634">
        <ele>319</ele>
        <time>2016-05-15T10:00:59.000Z</time>
      </trkpt>
      <trkpt lat="47.46977" lon="6.76342">
        <ele>319</ele>
        <time>2016-05-15T10:01:00.000Z</time>
      </trkpt>
      <trkpt lat="47.46981" lon="6.76344">
        <ele>319</ele>
        <time>2016-05-15T10:01:01.000Z</time>
      </trkpt>
      <trkpt lat="47.46986" lon="6.76345">
        <ele>319</ele>
        <time>2016-05-15T10:01:02.000Z</time>
      </trkpt>
      <trkpt lat="47.46992" lon="6.76345">
        <ele>319</ele>
        <time>2016-05-15T10:01:03.000Z</time>
      </trkpt>
      <trkpt lat="47.46997" lon="6.76347">
        <ele>319</ele>
        <time>2016-05-15T10:01:04.000Z</time>
      </trkpt>
      <trkpt lat="47.47001" lon="6.76349">
        <ele>318</ele>
        <time>2016-05-15T10:01:05.000Z</time>
      </trkpt>
      <trkpt lat="47.47005" lon="6.76352">
        <ele>318</ele>
        <time>2016-05-15T10:01:06.000Z</time>
      </trkpt>
      <trkpt lat="47.4701" lon="6.76354">
        <ele>318</ele>
        <time>2016-05-15T10:01:07.000Z</time>
      </trkpt>
      <trkpt lat="47.47016" lon="6.76354">
        <ele>318</ele>
        <time>2016-05-15T10:01:08.000Z</time>
      </trkpt>
      <trkpt lat="47.47021" lon="6.76355">
        <ele>318</ele>
        <time>2016-05-15T10:01:09.000Z</time>
      </trkpt>
      <trkpt lat="47.47026" lon="6.76356">
        <ele>318</ele>
        <time>2016-05-15T10:01:10.000Z</time>
      </trkpt>
      <trkpt lat="47.4703" lon="6.76357">
        <ele>318</ele>
        <time>2016-05-15T10:01:11.000Z</time>
      </trkpt>
      <trkpt lat="47.47035" lon="6.76359">
        <ele>318</ele>
        <time>2016-05-15T10:01:12.000Z</time>
      </trkpt>
      <trkpt lat="47.4704" lon="6.7636">
        <ele>318</ele>
        <time>2016-05-15T10:01:13.000Z</time>
      </trkpt>
      <trkpt lat="47.47044" lon="6.76361">
        <ele>318</ele>
        <time>2016-05-15T10:01:14.000Z</time>
      </trkpt>
      <trkpt lat="47.47049" lon="6.76363">
        <ele>318</ele>
        <time>2016-05-15T10:01:15.000Z</time>
      </trkpt>
      <trkpt lat="47.47054" lon="6.76363">
        <ele>318</ele>
        <time>2016-05-15T10:01:16.000Z</time>
      </trkpt>
      <trkpt lat="47.47058" lon="6.76364">
        <ele>317</ele>
        <time>2016-05-15T10:01:17.000Z</time>
      </trkpt>
      <trkpt lat="47.47063" lon="6.76365">
        <ele>317</ele>
        <time>2016-05-15T10:01:18.000Z</time>
      </trkpt>
      <trkpt lat="47.47068" lon="6.76366">
        <ele>317</ele>
        <time>2016-05-15T10:01:19.000Z</time>
      </trkpt>
      <trkpt lat="47.47073" lon="6.76368">
        <ele>317</ele>
        <time>2016-05-15T10:01:20.000Z</time>
      </trkpt>
      <trkpt lat="47.47078" lon="6.76369">
        <ele>317</ele>
        <time>2016-05-15T10:01:21.000Z</time>
      </trkpt>
      <trkpt lat="47.47083" lon="6.7637">
        <ele>317</ele>
        <time>2016-05-15T10:01:22.000Z</time>
      </trkpt>
      <trkpt lat="47.4709" lon="6.76369">
        <ele>317</ele>
        <time>2016-05-15T10:01:23.000Z</time>
      </trkpt>
      <trkpt lat="47.47095" lon="6.76373">
        <ele>317</ele>
        <time>2016-05-15T10:01:24.000Z</time>
      </trkpt>
      <trkpt lat="47.47101" lon="6.76375">
        <ele>317</ele>
        <time>2016-05-15T10:01:25.000Z</time>
      </trkpt>
      <trkpt lat="47.47107" lon="6.76376">
        <ele>317</ele>
        <time>2016-05-15T10:01:26.000Z</time>
      </trkpt>
      <trkpt lat="47.47113" lon="6.76377">
        <ele>317</ele>
        <time>2016-05-15T10:01:27.000Z</time>
      </trkpt>
      <trkpt lat="47.47118" lon="6.76378">
        <ele>317</ele>
        <time>2016-05-15T10:01:28.000Z</time>
      </trkpt>
      <trkpt lat="47.47123" lon="6.76378">
        <ele>317</ele>
        <time>2016-05-15T10:01:29.000Z</time>
      </trkpt>
      <trkpt lat="47.47128" lon="6.76379">
        <ele>317</ele>
        <time>2016-05-15T10:01:30.000Z</time>
      </trkpt>
      <trkpt lat="47.47133" lon="6.7638">
        <ele>317</ele>
        <time>2016-05-15T10:01:31.000Z</time>
      </trkpt>
      <trkpt lat="47.47138" lon="6.76382">
        <ele>317</ele>
        <time>2016-05-15T10:01:32.000Z</time>
      </trkpt>
      <trkpt lat="47.47142" lon="6.76381">
        <ele>317</ele>
        <time>2016-05-15T10:01:33.000Z</time>
      </trkpt>
      <trkpt lat="47.47147" lon="6.76382">
        <ele>317</ele>
        <time>2016-05-15T10:01:34.000Z</time>
      </trkpt>
      <trkpt lat="47.47151" lon="6.76384">
        <ele>317</ele>
        <time>2016-05-15T10:01:35.000Z</time>
      </trkpt>
      <trkpt lat="47.47157" lon="6.76385">
        <ele>317</ele>
        <time>2016-05-15T10:01:36.000Z</time>
      </trkpt>
      <trkpt lat="47.47161" lon="6.76387">
        <ele>317</ele>
        <time>2016-05-15T10:01:37.000Z</time>
      </trkpt>
      <trkpt lat="47.47166" lon="6.76388">
        <ele>317</ele>
        <time>2016-05-15T10:01:38.000Z</time>
      </trkpt>
      <trkpt lat="47.47171" lon="6.76389">
        <ele>318</ele>
        <time>2016-05-15T10:01:39.000Z</time>
      </trkpt>
      <trkpt lat="47.47177" lon="6.7639">
        <ele>318</ele>
        <time>2016-05-15T10:01:40.000Z</time>
      </trkpt>
      <trkpt lat="47.47182" lon="6.76391">
        <ele>318</ele>
        <time>2016-05-15T10:01:41.000Z</time>
      </trkpt>
      <trkpt lat="47.47187" lon="6.76392">
        <ele>318</ele>
        <time>2016-05-15T10:01:42.000Z</time>
      </trkpt>
      <trkpt lat="47.47192" lon="6.76394">
        <ele>318</ele>
        <time>2016-05-15T10:01:43.000Z</time>
      </trkpt>
      <trkpt lat="47.47196" lon="6.76397">
        <ele>318</ele>
        <time>2016-05-15T10:01:44.000Z</time>
      </trkpt>
      <trkpt lat="47.472" lon="6.76398">
        <ele>318</ele>
        <time>2016-05-15T10:01:45.000Z</time>
      </trkpt>
      <trkpt lat="47.47206" lon="6.76399">
        <ele>318</ele>
        <time>2016-05-15T10:01:46.000Z</time>
      </trkpt>
      <trkpt lat="47.47212" lon="6.764">
        <ele>318</ele>
        <time>2016-05-15T10:01:47.000Z</time>
      </trkpt>
      <trkpt lat="47.47217" lon="6.76401">
        <ele>318</ele>
        <time>2016-05-15T10:01:48.000Z</time>
      </trkpt>
      <trkpt lat="47.47222" lon="6.76401">
        <ele>318</ele>
        <time>2016-05-15T10:01:49.000Z</time>
      </trkpt>
      <trkpt lat="47.47228" lon="6.764">
        <ele>318</ele>
        <time>2016-05-15T10:01:50.000Z</time>
      </trkpt>
      <trkpt lat="47.47233" lon="6.764">
        <ele>317</ele>
        <time>2016-05-15T10:01:51.000Z</time>
      </trkpt>
      <trkpt lat="47.47238" lon="6.764">
        <ele>317</ele>
        <time>2016-05-15T10:01:52.000Z</time>
      </trkpt>
      <trkpt lat="47.47243" lon="6.764">
        <ele>317</ele>
        <time>2016-05-15T10:01:53.000Z</time>
      </trkpt>
      <trkpt lat="47.47249" lon="6.76398">
        <ele>317</ele>
        <time>2016-05-15T10:01:54.000Z</time>
      </trkpt>
      <trkpt lat="47.47255" lon="6.76396">
        <ele>318</ele>
        <time>2016-05-15T10:01:55.000Z</time>
      </trkpt>
      <trkpt lat="47.47261" lon="6.76394">
        <ele>318</ele>
        <time>2016-05-15T10:01:56.000Z</time>
      </trkpt>
      <trkpt lat="47.47267" lon="6.76391">
        <ele>318</ele>
        <time>2016-05-15T10:01:57.000Z</time>
      </trkpt>
      <trkpt lat="47.47272" lon="6.76389">
        <ele>318</ele>
        <time>2016-05-15T10:01:58.000Z</time>
      </trkpt>
      <trkpt lat="47.47278" lon="6.76388">
        <ele>318</ele>
        <time>2016-05-15T10:01:59.000Z</time>
      </trkpt>
      <trkpt lat="47.47283" lon="6.76388">
        <ele>318</ele>
        <time>2016-05-15T10:02:00.000Z</time>
      </trkpt>
      <trkpt lat="47.47287" lon="6.76386">
        <ele>318</ele>
        <time>2016-05-15T10:02:01.000Z</time>
      </trkpt>
      <trkpt lat="47.47291" lon="6.76386">
        <ele>318</ele>
        <time>2016-05-15T10:02:02.000Z</time>
      </trkpt>
      <trkpt lat="47.47297" lon="6.76383">
        <ele>318</ele>
        <time>2016-05-15T10:02:03.000Z</time>
      </trkpt>
      <trkpt lat="47.47302" lon="6.76382">
        <ele>318</ele>
        <time>2016-05-15T10:02:04.000Z</time>
      </trkpt>
      <trkpt lat="47.47307" lon="6.76382">
        <ele>318</ele>
        <time>2016-05-15T10:02:05.000Z</time>
      </trkpt>
      <trkpt lat="47.47312" lon="6.76384">
        <ele>318</ele>
        <time>2016-05-15T10:02:06.000Z</time>
      </trkpt>
      <trkpt lat="47.47318" lon="6.76386">
        <ele>318</ele>
        <time>2016-05-15T10:02:07.000Z</time>
      </trkpt>
      <trkpt lat="47.47323" lon="6.76389">
        <ele>318</ele>
        <time>2016-05-15T10:02:08.000Z</time>
      </trkpt>
      <trkpt lat="47.47328" lon="6.76392">
        <ele>318</ele>
        <time>2016-05-15T10:02:09.000Z</time>
      </trkpt>
      <trkpt lat="47.47333" lon="6.76395">
        <ele>318</ele>
        <time>2016-05-15T10:02:10.000Z</time>
      </trkpt>
      <trkpt lat="47.47338" lon="6.76398">
        <ele>317</ele>
        <time>2016-05-15T10:02:11.000Z</time>
      </trkpt>
      <trkpt lat="47.47342" lon="6.76401">
        <ele>317</ele>
        <time>2016-05-15T10:02:12.000Z</time>
      </trkpt>
      <trkpt lat="47.47347" lon="6.76403">
        <ele>317</ele>
        <time>2016-05-15T10:02:13.000Z</time>
      </trkpt>
      <trkpt lat="47.47351" lon="6.76405">
        <ele>317</ele>
        <time>2016-05-15T10:02:14.000Z</time>
      </trkpt>
      <trkpt lat="47.47355" lon="6.76409">
        <ele>317</ele>
        <time>2016-05-15T10:02:15.000Z</time>
      </trkpt>
      <trkpt lat="47.4736" lon="6.76411">
        <ele>317</ele>
        <time>2016-05-15T10:02:16.000Z</time>
      </trkpt>
      <trkpt lat="47.47364" lon="6.76414">
        <ele>317</ele>
        <time>2016-05-15T10:02:17.000Z</time>
      </trkpt>
      <trkpt lat="47.47368" lon="6.76418">
        <ele>314</ele>
        <time>2016-05-15T10:02:18.000Z</time>
      </trkpt>
      <trkpt lat="47.47373" lon="6.7642">
        <ele>314</ele>
        <time>2016-05-15T10:02:19.000Z</time>
      </trkpt>
      <trkpt lat="47.47377" lon="6.76422">
        <ele>314</ele>
        <time>2016-05-15T10:02:20.000Z</time>
      </trkpt>
      <trkpt lat="47.47381" lon="6.76425">
        <ele>314</ele>
        <time>2016-05-15T10:02:21.000Z</time>
      </trkpt>
      <trkpt lat="47.47385" lon="6.76426">
        <ele>314</ele>
        <time>2016-05-15T10:02:22.000Z</time>
      </trkpt>
      <trkpt lat="47.47389" lon="6.76428">
        <ele>314</ele>
        <time>2016-05-15T10:02:23.000Z</time>
      </trkpt>
      <trkpt lat="47.47392" lon="6.76431">
        <ele>314</ele>
        <time>2016-05-15T10:02:24.000Z</time>
      </trkpt>
      <trkpt lat="47.47396" lon="6.76435">
        <ele>314</ele>
        <time>2016-05-15T10:02:25.000Z</time>
      </trkpt>
      <trkpt lat="47.474" lon="6.76438">
        <ele>314</ele>
        <time>2016-05-15T10:02:26.000Z</time>
      </trkpt>
      <trkpt lat="47.47405" lon="6.76442">
        <ele>313</ele>
        <time>2016-05-15T10:02:27.000Z</time>
      </trkpt>
      <trkpt lat="47.47409" lon="6.76445">
        <ele>313</ele>
        <time>2016-05-15T10:02:28.000Z</time>
      </trkpt>
      <trkpt lat="47.47412" lon="6.76447">
        <ele>313</ele>
        <time>2016-05-15T10:02:29.000Z</time>
      </trkpt>
      <trkpt lat="47.47414" lon="6.7645">
        <ele>313</ele>
        <time>2016-05-15T10:02:30.000Z</time>
      </trkpt>
      <trkpt lat="47.47417" lon="6.76455">
        <ele>311</ele>
        <time>2016-05-15T10:02:31.000Z</time>
      </trkpt>
      <trkpt lat="47.47419" lon="6.76459">
        <ele>311</ele>
        <time>2016-05-15T10:02:32.000Z</time>
      </trkpt>
      <trkpt lat="47.47421" lon="6.76462">
        <ele>311</ele>
        <time>2016-05-15T10:02:33.000Z</time>
      </trkpt>
      <trkpt lat="47.47423" lon="6.76465">
        <ele>311</ele>
        <time>2016-05-15T10:02:34.000Z</time>
      </trkpt>
      <trkpt lat="47.47427" lon="6.76466">
        <ele>311</ele>
        <time>2016-05-15T10:02:35.000Z</time>
      </trkpt>
      <trkpt lat="47.47432" lon="6.76463">
        <ele>311</ele>
        <time>2016-05-15T10:02:36.000Z</time>
      </trkpt>
      <trkpt lat="47.47435" lon="6.76463">
        <ele>311</ele>
        <time>2016-05-15T10:02:37.000Z</time>
      </trkpt>
      <trkpt lat="47.47438" lon="6.76461">
        <ele>311</ele>
        <time>2016-05-15T10:02:38.000Z</time>
      </trkpt>
      <trkpt lat="47.47442" lon="6.76458">
        <ele>311</ele>
        <time>2016-05-15T10:02:39.000Z</time>
      </trkpt>
      <trkpt lat="47.47445" lon="6.76455">
        <ele>311</ele>
        <time>2016-05-15T10:02:40.000Z</time>
      </trkpt>
      <trkpt lat="47.47447" lon="6.76451">
        <ele>311</ele>
        <time>2016-05-15T10:02:41.000Z</time>
      </trkpt>
      <trkpt lat="47.4745" lon="6.76447">
        <ele>311</ele>
        <time>2016-05-15T10:02:42.000Z</time>
      </trkpt>
      <trkpt lat="47.47452" lon="6.76444">
        <ele>311</ele>
        <time>2016-05-15T10:02:43.000Z</time>
      </trkpt>
      <trkpt lat="47.47455" lon="6.76443">
        <ele>311</ele>
        <time>2016-05-15T10:02:44.000Z</time>
      </trkpt>
      <trkpt lat="47.47458" lon="6.76442">
        <ele>311</ele>
        <time>2016-05-15T10:02:45.000Z</time>
      </trkpt>
      <trkpt lat="47.47461" lon="6.76442">
        <ele>311</ele>
        <time>2016-05-15T10:02:46.000Z</time>
      </trkpt>
      <trkpt lat="47.47465" lon="6.76442">
        <ele>310</ele>
        <time>2016-05-15T10:02:47.000Z</time>
      </trkpt>
      <trkpt lat="47.47468" lon="6.76441">
        <ele>310</ele>
        <time>2016-05-15T10:02:48.000Z</time>
      </trkpt>
      <trkpt lat="47.47471" lon="6.76438">
        <ele>310</ele>
        <time>2016-05-15T10:02:49.000Z</time>
      </trkpt>
      <trkpt lat="47.47475" lon="6.76434">
        <ele>310</ele>
        <time>2016-05-15T10:02:50.000Z</time>
      </trkpt>
      <trkpt lat="47.47477" lon="6.76431">
        <ele>310</ele>
        <time>2016-05-15T10:02:51.000Z</time>
      </trkpt>
      <trkpt lat="47.47479" lon="6.76428">
        <ele>310</ele>
        <time>2016-05-15T10:02:52.000Z</time>
      </trkpt>
      <trkpt lat="47.47481" lon="6.76425">
        <ele>310</ele>
        <time>2016-05-15T10:02:53.000Z</time>
      </trkpt>
      <trkpt lat="47.47482" lon="6.76422">
        <ele>310</ele>
        <time>2016-05-15T10:02:54.000Z</time>
      </trkpt>
      <trkpt lat="47.47484" lon="6.76419">
        <ele>310</ele>
        <time>2016-05-15T10:02:55.000Z</time>
      </trkpt>
      <trkpt lat="47.47486" lon="6.76416">
        <ele>311</ele>
        <time>2016-05-15T10:02:56.000Z</time>
      </trkpt>
      <trkpt lat="47.47489" lon="6.76413">
        <ele>311</ele>
        <time>2016-05-15T10:02:57.000Z</time>
      </trkpt>
      <trkpt lat="47.47493" lon="6.76411">
        <ele>310</ele>
        <time>2016-05-15T10:02:58.000Z</time>
      </trkpt>
      <trkpt lat="47.47501" lon="6.76413">
        <ele>309</ele>
        <time>2016-05-15T10:02:59.000Z</time>
      </trkpt>
      <trkpt lat="47.47506" lon="6.76414">
        <ele>309</ele>
        <time>2016-05-15T10:03:00.000Z</time>
      </trkpt>
      <trkpt lat="47.47509" lon="6.76418">
        <ele>309</ele>
        <time>2016-05-15T10:03:01.000Z</time>
      </trkpt>
      <trkpt lat="47.47513" lon="6.76419">
        <ele>309</ele>
        <time>2016-05-15T10:03:02.000Z</time>
      </trkpt>
      <trkpt lat="47.47518" lon="6.7642">
        <ele>309</ele>
        <time>2016-05-15T10:03:03.000Z</time>
      </trkpt>
      <trkpt lat="47.47524" lon="6.76419">
        <ele>309</ele>
        <time>2016-05-15T10:03:04.000Z</time>
      </trkpt>
      <trkpt lat="47.4753" lon="6.76416">
        <ele>309</ele>
        <time>2016-05-15T10:03:05.000Z</time>
      </trkpt>
      <trkpt lat="47.47535" lon="6.76412">
        <ele>309</ele>
        <time>2016-05-15T10:03:06.000Z</time>
      </trkpt>
      <trkpt lat="47.47539" lon="6.76408">
        <ele>310</ele>
        <time>2016-05-15T10:03:07.000Z</time>
      </trkpt>
      <trkpt lat="47.47544" lon="6.76403">
        <ele>310</ele>
        <time>2016-05-15T10:03:08.000Z</time>
      </trkpt>
      <trkpt lat="47.47548" lon="6.76397">
        <ele>310</ele>
        <time>2016-05-15T10:03:09.000Z</time>
      </trkpt>
      <trkpt lat="47.47549" lon="6.7639">
        <ele>310</ele>
        <time>2016-05-15T10:03:10.000Z</time>
      </trkpt>
      <trkpt lat="47.47551" lon="6.76384">
        <ele>310</ele>
        <time>2016-05-15T10:03:11.000Z</time>
      </trkpt>
      <trkpt lat="47.47553" lon="6.76378">
        <ele>310</ele>
        <time>2016-05-15T10:03:12.000Z</time>
      </trkpt>
      <trkpt lat="47.47557" lon="6.76374">
        <ele>310</ele>
        <time>2016-05-15T10:03:13.000Z</time>
      </trkpt>
      <trkpt lat="47.47559" lon="6.76368">
        <ele>310</ele>
        <time>2016-05-15T10:03:14.000Z</time>
      </trkpt>
      <trkpt lat="47.47562" lon="6.76363">
        <ele>310</ele>
        <time>2016-05-15T10:03:15.000Z</time>
      </trkpt>
      <trkpt lat="47.47565" lon="6.76356">
        <ele>311</ele>
        <time>2016-05-15T10:03:16.000Z</time>
      </trkpt>
      <trkpt lat="47.47568" lon="6.7635">
        <ele>311</ele>
        <time>2016-05-15T10:03:17.000Z</time>
      </trkpt>
      <trkpt lat="47.47571" lon="6.76343">
        <ele>311</ele>
        <time>2016-05-15T10:03:18.000Z</time>
      </trkpt>
      <trkpt lat="47.47574" lon="6.76339">
        <ele>311</ele>
        <time>2016-05-15T10:03:19.000Z</time>
      </trkpt>
      <trkpt lat="47.47577" lon="6.76334">
        <ele>312</ele>
        <time>2016-05-15T10:03:20.000Z</time>
      </trkpt>
      <trkpt lat="47.4758" lon="6.76329">
        <ele>312</ele>
        <time>2016-05-15T10:03:21.000Z</time>
      </trkpt>
      <trkpt lat="47.47583" lon="6.76324">
        <ele>312</ele>
        <time>2016-05-15T10:03:22.000Z</time>
      </trkpt>
      <trkpt lat="47.47587" lon="6.76318">
        <ele>311</ele>
        <time>2016-05-15T10:03:23.000Z</time>
      </trkpt>
      <trkpt lat="47.47591" lon="6.7631">
        <ele>311</ele>
        <time>2016-05-15T10:03:24.000Z</time>
      </trkpt>
      <trkpt lat="47.47594" lon="6.76305">
        <ele>311</ele>
        <time>2016-05-15T10:03:25.000Z</time>
      </trkpt>
      <trkpt lat="47.47597" lon="6.76302">
        <ele>311</ele>
        <time>2016-05-15T10:03:26.000Z</time>
      </trkpt>
      <trkpt lat="47.47599" lon="6.76298">
        <ele>311</ele>
        <time>2016-05-15T10:03:27.000Z</time>
      </trkpt>
      <trkpt lat="47.476" lon="6.76294">
        <ele>311</ele>
        <time>2016-05-15T10:03:28.000Z</time>
      </trkpt>
      <trkpt lat="47.47603" lon="6.76288">
        <ele>311</ele>
        <time>2016-05-15T10:03:29.000Z</time>
      </trkpt>
      <trkpt lat="47.47606" lon="6.76282">
        <ele>311</ele>
        <time>2016-05-15T10:03:30.000Z</time>
      </trkpt>
      <trkpt lat="47.47608" lon="6.76277">
        <ele>311</ele>
        <time>2016-05-15T10:03:31.000Z</time>
      </trkpt>
      <trkpt lat="47.47611" lon="6.76272">
        <ele>311</ele>
        <time>2016-05-15T10:03:32.000Z</time>
      </trkpt>
      <trkpt lat="47.47612" lon="6.76268">
        <ele>311</ele>
        <time>2016-05-15T10:03:33.000Z</time>
      </trkpt>
      <trkpt lat="47.47615" lon="6.76261">
        <ele>311</ele>
        <time>2016-05-15T10:03:34.000Z</time>
      </trkpt>
      <trkpt lat="47.47617" lon="6.76253">
        <ele>311</ele>
        <time>2016-05-15T10:03:35.000Z</time>
      </trkpt>
      <trkpt lat="47.47619" lon="6.76248">
        <ele>311</ele>
        <time>2016-05-15T10:03:36.000Z</time>
      </trkpt>
      <trkpt lat="47.47621" lon="6.76242">
        <ele>311</ele>
        <time>2016-05-15T10:03:37.000Z</time>
      </trkpt>
      <trkpt lat="47.47623" lon="6.76236">
        <ele>311</ele>
        <time>2016-05-15T10:03:38.000Z</time>
      </trkpt>
      <trkpt lat="47.47628" lon="6.76229">
        <ele>311</ele>
        <time>2016-05-15T10:03:39.000Z</time>
      </trkpt>
      <trkpt lat="47.47632" lon="6.76222">
        <ele>311</ele>
        <time>2016-05-15T10:03:40.000Z</time>
      </trkpt>
      <trkpt lat="47.47634" lon="6.76217">
        <ele>311</ele>
        <time>2016-05-15T10:03:41.000Z</time>
      </trkpt>
      <trkpt lat="47.47637" lon="6.76213">
        <ele>311</ele>
        <time>2016-05-15T10:03:42.000Z</time>
      </trkpt>
      <trkpt lat="47.47639" lon="6.76206">
        <ele>311</ele>
        <time>2016-05-15T10:03:43.000Z</time>
      </trkpt>
      <trkpt lat="47.4764" lon="6.76198">
        <ele>311</ele>
        <time>2016-05-15T10:03:44.000Z</time>
      </trkpt>
      <trkpt lat="47.47643" lon="6.76191">
        <ele>311</ele>
        <time>2016-05-15T10:03:45.000Z</time>
      </trkpt>
      <trkpt lat="47.47644" lon="6.76185">
        <ele>311</ele>
        <time>2016-05-15T10:03:46.000Z</time>
      </trkpt>
      <trkpt lat="47.47646" lon="6.76179">
        <ele>311</ele>
        <time>2016-05-15T10:03:47.000Z</time>
      </trkpt>
      <trkpt lat="47.47649" lon="6.76175">
        <ele>311</ele>
        <time>2016-05-15T10:03:48.000Z</time>
      </trkpt>
      <trkpt lat="47.4765" lon="6.76169">
        <ele>311</ele>
        <time>2016-05-15T10:03:49.000Z</time>
      </trkpt>
      <trkpt lat="47.47652" lon="6.76164">
        <ele>311</ele>
        <time>2016-05-15T10:03:50.000Z</time>
      </trkpt>
      <trkpt lat="47.47654" lon="6.76159">
        <ele>311</ele>
        <time>2016-05-15T10:03:51.000Z</time>
      </trkpt>
      <trkpt lat="47.47657" lon="6.76154">
        <ele>311</ele>
        <time>2016-05-15T10:03:52.000Z</time>
      </trkpt>
      <trkpt lat="47.47659" lon="6.76149">
        <ele>311</ele>
        <time>2016-05-15T10:03:53.000Z</time>
      </trkpt>
      <trkpt lat="47.47663" lon="6.76143">
        <ele>311</ele>
        <time>2016-05-15T10:03:54.000Z</time>
      </trkpt>
      <trkpt lat="47.47666" lon="6.76137">
        <ele>311</ele>
        <time>2016-05-15T10:03:55.000Z</time>
      </trkpt>
      <trkpt lat="47.4767" lon="6.76131">
        <ele>310</ele>
        <time>2016-05-15T10:03:56.000Z</time>
      </trkpt>
      <trkpt lat="47.47673" lon="6.76125">
        <ele>310</ele>
        <time>2016-05-15T10:03:57.000Z</time>
      </trkpt>
      <trkpt lat="47.47675" lon="6.76119">
        <ele>310</ele>
        <time>2016-05-15T10:03:58.000Z</time>
      </trkpt>
      <trkpt lat="47.47677" lon="6.76115">
        <ele>310</ele>
        <time>2016-05-15T10:03:59.000Z</time>
      </trkpt>
      <trkpt lat="47.4768" lon="6.7611">
        <ele>310</ele>
        <time>2016-05-15T10:04:01.000Z</time>
      </trkpt>
      <trkpt lat="47.47681" lon="6.76111">
        <ele>310</ele>
        <time>2016-05-15T10:04:02.000Z</time>
      </trkpt>
      <trkpt lat="47.47683" lon="6.76112">
        <ele>310</ele>
        <time>2016-05-15T10:04:03.000Z</time>
      </trkpt>
      <trkpt lat="47.47685" lon="6.76114">
        <ele>310</ele>
        <time>2016-05-15T10:04:04.000Z</time>
      </trkpt>
      <trkpt lat="47.47688" lon="6.76117">
        <ele>310</ele>
        <time>2016-05-15T10:04:05.000Z</time>
      </trkpt>
      <trkpt lat="47.4769" lon="6.76121">
        <ele>310</ele>
        <time>2016-05-15T10:04:06.000Z</time>
      </trkpt>
      <trkpt lat="47.47693" lon="6.76125">
        <ele>310</ele>
        <time>2016-05-15T10:04:07.000Z</time>
      </trkpt>
      <trkpt lat="47.47695" lon="6.76129">
        <ele>310</ele>
        <time>2016-05-15T10:04:08.000Z</time>
      </trkpt>
      <trkpt lat="47.47698" lon="6.76133">
        <ele>310</ele>
        <time>2016-05-15T10:04:09.000Z</time>
      </trkpt>
      <trkpt lat="47.477" lon="6.76137">
        <ele>310</ele>
        <time>2016-05-15T10:04:10.000Z</time>
      </trkpt>
      <trkpt lat="47.47706" lon="6.76138">
        <ele>309</ele>
        <time>2016-05-15T10:04:11.000Z</time>
      </trkpt>
      <trkpt lat="47.47709" lon="6.76142">
        <ele>309</ele>
        <time>2016-05-15T10:04:12.000Z</time>
      </trkpt>
      <trkpt lat="47.47713" lon="6.76147">
        <ele>309</ele>
        <time>2016-05-15T10:04:13.000Z</time>
      </trkpt>
      <trkpt lat="47.47716" lon="6.76151">
        <ele>309</ele>
        <time>2016-05-15T10:04:14.000Z</time>
      </trkpt>
      <trkpt lat="47.47719" lon="6.76155">
        <ele>309</ele>
        <time>2016-05-15T10:04:15.000Z</time>
      </trkpt>
      <trkpt lat="47.47721" lon="6.76159">
        <ele>309</ele>
        <time>2016-05-15T10:04:16.000Z</time>
      </trkpt>
      <trkpt lat="47.47724" lon="6.76164">
        <ele>309</ele>
        <time>2016-05-15T10:04:17.000Z</time>
      </trkpt>
      <trkpt lat="47.47726" lon="6.7617">
        <ele>309</ele>
        <time>2016-05-15T10:04:18.000Z</time>
      </trkpt>
      <trkpt lat="47.47728" lon="6.76175">
        <ele>309</ele>
        <time>2016-05-15T10:04:19.000Z</time>
      </trkpt>
      <trkpt lat="47.47732" lon="6.7618">
        <ele>309</ele>
        <time>2016-05-15T10:04:20.000Z</time>
      </trkpt>
      <trkpt lat="47.47737" lon="6.76185">
        <ele>309</ele>
        <time>2016-05-15T10:04:21.000Z</time>
      </trkpt>
      <trkpt lat="47.47741" lon="6.7619">
        <ele>309</ele>
        <time>2016-05-15T10:04:22.000Z</time>
      </trkpt>
      <trkpt lat="47.47744" lon="6.76195">
        <ele>309</ele>
        <time>2016-05-15T10:04:23.000Z</time>
      </trkpt>
      <trkpt lat="47.47748" lon="6.76199">
        <ele>309</ele>
        <time>2016-05-15T10:04:24.000Z</time>
      </trkpt>
      <trkpt lat="47.47751" lon="6.76204">
        <ele>309</ele>
        <time>2016-05-15T10:04:25.000Z</time>
      </trkpt>
      <trkpt lat="47.47753" lon="6.76209">
        <ele>309</ele>
        <time>2016-05-15T10:04:26.000Z</time>
      </trkpt>
      <trkpt lat="47.47755" lon="6.76213">
        <ele>309</ele>
        <time>2016-05-15T10:04:27.000Z</time>
      </trkpt>
      <trkpt lat="47.47758" lon="6.7622">
        <ele>309</ele>
        <time>2016-05-15T10:04:28.000Z</time>
      </trkpt>
      <trkpt lat="47.47762" lon="6.76227">
        <ele>309</ele>
        <time>2016-05-15T10:04:29.000Z</time>
      </trkpt>
      <trkpt lat="47.47765" lon="6.76232">
        <ele>309</ele>
        <time>2016-05-15T10:04:30.000Z</time>
      </trkpt>
      <trkpt lat="47.47768" lon="6.76237">
        <ele>309</ele>
        <time>2016-05-15T10:04:31.000Z</time>
      </trkpt>
      <trkpt lat="47.47771" lon="6.76243">
        <ele>309</ele>
        <time>2016-05-15T10:04:32.000Z</time>
      </trkpt>
      <trkpt lat="47.47776" lon="6.76247">
        <ele>309</ele>
        <time>2016-05-15T10:04:33.000Z</time>
      </trkpt>
      <trkpt lat="47.47781" lon="6.76251">
        <ele>310</ele>
        <time>2016-05-15T10:04:34.000Z</time>
      </trkpt>
      <trkpt lat="47.47787" lon="6.76255">
        <ele>310</ele>
        <time>2016-05-15T10:04:35.000Z</time>
      </trkpt>
      <trkpt lat="47.47792" lon="6.76258">
        <ele>310</ele>
        <time>2016-05-15T10:04:36.000Z</time>
      </trkpt>
      <trkpt lat="47.47798" lon="6.7626">
        <ele>310</ele>
        <time>2016-05-15T10:04:37.000Z</time>
      </trkpt>
      <trkpt lat="47.47802" lon="6.76263">
        <ele>310</ele>
        <time>2016-05-15T10:04:38.000Z</time>
      </trkpt>
      <trkpt lat="47.47807" lon="6.76265">
        <ele>310</ele>
        <time>2016-05-15T10:04:39.000Z</time>
      </trkpt>
      <trkpt lat="47.4781" lon="6.76267">
        <ele>310</ele>
        <time>2016-05-15T10:04:40.000Z</time>
      </trkpt>
      <trkpt lat="47.47816" lon="6.7627">
        <ele>310</ele>
        <time>2016-05-15T10:04:41.000Z</time>
      </trkpt>
      <trkpt lat="47.47821" lon="6.76273">
        <ele>310</ele>
        <time>2016-05-15T10:04:42.000Z</time>
      </trkpt>
      <trkpt lat="47.47825" lon="6.76277">
        <ele>310</ele>
        <time>2016-05-15T10:04:43.000Z</time>
      </trkpt>
      <trkpt lat="47.47829" lon="6.76281">
        <ele>310</ele>
        <time>2016-05-15T10:04:44.000Z</time>
      </trkpt>
      <trkpt lat="47.47831" lon="6.76285">
        <ele>310</ele>
        <time>2016-05-15T10:04:45.000Z</time>
      </trkpt>
      <trkpt lat="47.47835" lon="6.76289">
        <ele>311</ele>
        <time>2016-05-15T10:04:46.000Z</time>
      </trkpt>
      <trkpt lat="47.47839" lon="6.76295">
        <ele>311</ele>
        <time>2016-05-15T10:04:47.000Z</time>
      </trkpt>
      <trkpt lat="47.47841" lon="6.76301">
        <ele>311</ele>
        <time>2016-05-15T10:04:48.000Z</time>
      </trkpt>
      <trkpt lat="47.47845" lon="6.76307">
        <ele>311</ele>
        <time>2016-05-15T10:04:49.000Z</time>
      </trkpt>
      <trkpt lat="47.47849" lon="6.76314">
        <ele>311</ele>
        <time>2016-05-15T10:04:50.000Z</time>
      </trkpt>
      <trkpt lat="47.47852" lon="6.76319">
        <ele>311</ele>
        <time>2016-05-15T10:04:51.000Z</time>
      </trkpt>
      <trkpt lat="47.47855" lon="6.76324">
        <ele>311</ele>
        <time>2016-05-15T10:04:52.000Z</time>
      </trkpt>
      <trkpt lat="47.47859" lon="6.76331">
        <ele>311</ele>
        <time>2016-05-15T10:04:53.000Z</time>
      </trkpt>
      <trkpt lat="47.47862" lon="6.76337">
        <ele>311</ele>
        <time>2016-05-15T10:04:54.000Z</time>
      </trkpt>
      <trkpt lat="47.47866" lon="6.76342">
        <ele>311</ele>
        <time>2016-05-15T10:04:55.000Z</time>
      </trkpt>
      <trkpt lat="47.47869" lon="6.76348">
        <ele>311</ele>
        <time>2016-05-15T10:04:56.000Z</time>
      </trkpt>
      <trkpt lat="47.47872" lon="6.76354">
        <ele>311</ele>
        <time>2016-05-15T10:04:57.000Z</time>
      </trkpt>
      <trkpt lat="47.47872" lon="6.76359">
        <ele>311</ele>
        <time>2016-05-15T10:04:58.000Z</time>
      </trkpt>
      <trkpt lat="47.47874" lon="6.76364">
        <ele>311</ele>
        <time>2016-05-15T10:04:59.000Z</time>
      </trkpt>
      <trkpt lat="47.47875" lon="6.76369">
        <ele>311</ele>
        <time>2016-05-15T10:05:00.000Z</time>
      </trkpt>
      <trkpt lat="47.4788" lon="6.76375">
        <ele>311</ele>
        <time>2016-05-15T10:05:01.000Z</time>
      </trkpt>
      <trkpt lat="47.47884" lon="6.76381">
        <ele>311</ele>
        <time>2016-05-15T10:05:02.000Z</time>
      </trkpt>
      <trkpt lat="47.47887" lon="6.76386">
        <ele>311</ele>
        <time>2016-05-15T10:05:03.000Z</time>
      </trkpt>
      <trkpt lat="47.4789" lon="6.76392">
        <ele>311</ele>
        <time>2016-05-15T10:05:04.000Z</time>
      </trkpt>
      <trkpt lat="47.47894" lon="6.764">
        <ele>311</ele>
        <time>2016-05-15T10:05:05.000Z</time>
      </trkpt>
      <trkpt lat="47.47898" lon="6.76407">
        <ele>311</ele>
        <time>2016-05-15T10:05:06.000Z</time>
      </trkpt>
      <trkpt lat="47.47901" lon="6.76413">
        <ele>311</ele>
        <time>2016-05-15T10:05:07.000Z</time>
      </trkpt>
      <trkpt lat="47.47904" lon="6.7642">
        <ele>311</ele>
        <time>2016-05-15T10:05:08.000Z</time>
      </trkpt>
      <trkpt lat="47.47906" lon="6.76427">
        <ele>311</ele>
        <time>2016-05-15T10:05:09.000Z</time>
      </trkpt>
      <trkpt lat="47.47909" lon="6.76433">
        <ele>311</ele>
        <time>2016-05-15T10:05:10.000Z</time>
      </trkpt>
      <trkpt lat="47.47911" lon="6.76441">
        <ele>311</ele>
        <time>2016-05-15T10:05:11.000Z</time>
      </trkpt>
      <trkpt lat="47.47912" lon="6.76448">
        <ele>311</ele>
        <time>2016-05-15T10:05:12.000Z</time>
      </trkpt>
      <trkpt lat="47.47914" lon="6.76456">
        <ele>311</ele>
        <time>2016-05-15T10:05:13.000Z</time>
      </trkpt>
      <trkpt lat="47.47916" lon="6.76463">
        <ele>310</ele>
        <time>2016-05-15T10:05:14.000Z</time>
      </trkpt>
      <trkpt lat="47.47918" lon="6.76469">
        <ele>311</ele>
        <time>2016-05-15T10:05:15.000Z</time>
      </trkpt>
      <trkpt lat="47.4792" lon="6.76476">
        <ele>311</ele>
        <time>2016-05-15T10:05:16.000Z</time>
      </trkpt>
      <trkpt lat="47.47921" lon="6.76482">
        <ele>311</ele>
        <time>2016-05-15T10:05:17.000Z</time>
      </trkpt>
      <trkpt lat="47.47923" lon="6.76487">
        <ele>311</ele>
        <time>2016-05-15T10:05:18.000Z</time>
      </trkpt>
      <trkpt lat="47.47925" lon="6.76494">
        <ele>310</ele>
        <time>2016-05-15T10:05:19.000Z</time>
      </trkpt>
      <trkpt lat="47.47926" lon="6.76502">
        <ele>310</ele>
        <time>2016-05-15T10:05:20.000Z</time>
      </trkpt>
      <trkpt lat="47.47928" lon="6.76509">
        <ele>310</ele>
        <time>2016-05-15T10:05:21.000Z</time>
      </trkpt>
      <trkpt lat="47.47929" lon="6.76517">
        <ele>311</ele>
        <time>2016-05-15T10:05:22.000Z</time>
      </trkpt>
      <trkpt lat="47.4793" lon="6.76523">
        <ele>311</ele>
        <time>2016-05-15T10:05:23.000Z</time>
      </trkpt>
      <trkpt lat="47.47933" lon="6.7653">
        <ele>311</ele>
        <time>2016-05-15T10:05:24.000Z</time>
      </trkpt>
      <trkpt lat="47.47935" lon="6.76537">
        <ele>311</ele>
        <time>2016-05-15T10:05:25.000Z</time>
      </trkpt>
      <trkpt lat="47.47936" lon="6.76544">
        <ele>311</ele>
        <time>2016-05-15T10:05:26.000Z</time>
      </trkpt>
      <trkpt lat="47.47938" lon="6.7655">
        <ele>311</ele>
        <time>2016-05-15T10:05:27.000Z</time>
      </trkpt>
      <trkpt lat="47.47939" lon="6.76557">
        <ele>311</ele>
        <time>2016-05-15T10:05:28.000Z</time>
      </trkpt>
      <trkpt lat="47.4794" lon="6.76564">
        <ele>311</ele>
        <time>2016-05-15T10:05:29.000Z</time>
      </trkpt>
      <trkpt lat="47.47942" lon="6.7657">
        <ele>311</ele>
        <time>2016-05-15T10:05:30.000Z</time>
      </trkpt>
      <trkpt lat="47.47942" lon="6.76577">
        <ele>311</ele>
        <time>2016-05-15T10:05:31.000Z</time>
      </trkpt>
      <trkpt lat="47.47944" lon="6.76583">
        <ele>311</ele>
        <time>2016-05-15T10:05:32.000Z</time>
      </trkpt>
      <trkpt lat="47.47944" lon="6.7659">
        <ele>311</ele>
        <time>2016-05-15T10:05:33.000Z</time>
      </trkpt>
      <trkpt lat="47.47946" lon="6.76595">
        <ele>311</ele>
        <time>2016-05-15T10:05:34.000Z</time>
      </trkpt>
      <trkpt lat="47.47947" lon="6.76601">
        <ele>311</ele>
        <time>2016-05-15T10:05:35.000Z</time>
      </trkpt>
      <trkpt lat="47.47949" lon="6.76606">
        <ele>311</ele>
        <time>2016-05-15T10:05:37.000Z</time>
      </trkpt>
      <trkpt lat="47.47949" lon="6.76609">
        <ele>311</ele>
        <time>2016-05-15T10:05:38.000Z</time>
      </trkpt>
      <trkpt lat="47.4795" lon="6.76611">
        <ele>311</ele>
        <time>2016-05-15T10:05:39.000Z</time>
      </trkpt>
      <trkpt lat="47.47951" lon="6.76615">
        <ele>311</ele>
        <time>2016-05-15T10:05:40.000Z</time>
      </trkpt>
      <trkpt lat="47.47952" lon="6.76619">
        <ele>311</ele>
        <time>2016-05-15T10:05:41.000Z</time>
      </trkpt>
      <trkpt lat="47.47955" lon="6.76622">
        <ele>311</ele>
        <time>2016-05-15T10:05:42.000Z</time>
      </trkpt>
      <trkpt lat="47.47957" lon="6.76623">
        <ele>311</ele>
        <time>2016-05-15T10:05:43.000Z</time>
      </trkpt>
      <trkpt lat="47.47961" lon="6.76623">
        <ele>311</ele>
        <time>2016-05-15T10:05:44.000Z</time>
      </trkpt>
      <trkpt lat="47.47964" lon="6.76622">
        <ele>311</ele>
        <time>2016-05-15T10:05:45.000Z</time>
      </trkpt>
      <trkpt lat="47.47968" lon="6.7662">
        <ele>311</ele>
        <time>2016-05-15T10:05:46.000Z</time>
      </trkpt>
      <trkpt lat="47.47971" lon="6.76617">
        <ele>311</ele>
        <time>2016-05-15T10:05:47.000Z</time>
      </trkpt>
      <trkpt lat="47.47975" lon="6.76614">
        <ele>311</ele>
        <time>2016-05-15T10:05:48.000Z</time>
      </trkpt>
      <trkpt lat="47.47978" lon="6.76612">
        <ele>311</ele>
        <time>2016-05-15T10:05:49.000Z</time>
      </trkpt>
      <trkpt lat="47.47981" lon="6.76609">
        <ele>311</ele>
        <time>2016-05-15T10:05:50.000Z</time>
      </trkpt>
      <trkpt lat="47.47984" lon="6.76607">
        <ele>311</ele>
        <time>2016-05-15T10:05:51.000Z</time>
      </trkpt>
      <trkpt lat="47.47988" lon="6.76605">
        <ele>312</ele>
        <time>2016-05-15T10:05:52.000Z</time>
      </trkpt>
      <trkpt lat="47.47992" lon="6.76603">
        <ele>312</ele>
        <time>2016-05-15T10:05:53.000Z</time>
      </trkpt>
      <trkpt lat="47.47996" lon="6.76601">
        <ele>312</ele>
        <time>2016-05-15T10:05:54.000Z</time>
      </trkpt>
      <trkpt lat="47.47999" lon="6.76599">
        <ele>312</ele>
        <time>2016-05-15T10:05:55.000Z</time>
      </trkpt>
      <trkpt lat="47.48003" lon="6.76597">
        <ele>312</ele>
        <time>2016-05-15T10:05:56.000Z</time>
      </trkpt>
      <trkpt lat="47.48007" lon="6.76595">
        <ele>312</ele>
        <time>2016-05-15T10:05:57.000Z</time>
      </trkpt>
      <trkpt lat="47.48011" lon="6.76593">
        <ele>312</ele>
        <time>2016-05-15T10:05:58.000Z</time>
      </trkpt>
      <trkpt lat="47.48015" lon="6.7659">
        <ele>312</ele>
        <time>2016-05-15T10:05:59.000Z</time>
      </trkpt>
      <trkpt lat="47.48019" lon="6.76588">
        <ele>312</ele>
        <time>2016-05-15T10:06:00.000Z</time>
      </trkpt>
      <trkpt lat="47.48023" lon="6.76584">
        <ele>312</ele>
        <time>2016-05-15T10:06:01.000Z</time>
      </trkpt>
      <trkpt lat="47.48027" lon="6.76581">
        <ele>312</ele>
        <time>2016-05-15T10:06:02.000Z</time>
      </trkpt>
      <trkpt lat="47.48031" lon="6.76578">
        <ele>312</ele>
        <time>2016-05-15T10:06:03.000Z</time>
      </trkpt>
      <trkpt lat="47.48035" lon="6.76575">
        <ele>312</ele>
        <time>2016-05-15T10:06:04.000Z</time>
      </trkpt>
      <trkpt lat="47.48038" lon="6.76572">
        <ele>312</ele>
        <time>2016-05-15T10:06:05.000Z</time>
      </trkpt>
      <trkpt lat="47.48042" lon="6.76569">
        <ele>312</ele>
        <time>2016-05-15T10:06:06.000Z</time>
      </trkpt>
      <trkpt lat="47.48046" lon="6.76566">
        <ele>312</ele>
        <time>2016-05-15T10:06:07.000Z</time>
      </trkpt>
      <trkpt lat="47.4805" lon="6.76563">
        <ele>312</ele>
        <time>2016-05-15T10:06:08.000Z</time>
      </trkpt>
      <trkpt lat="47.48054" lon="6.7656">
        <ele>312</ele>
        <time>2016-05-15T10:06:09.000Z</time>
      </trkpt>
      <trkpt lat="47.48057" lon="6.76556">
        <ele>312</ele>
        <time>2016-05-15T10:06:10.000Z</time>
      </trkpt>
      <trkpt lat="47.48061" lon="6.76552">
        <ele>312</ele>
        <time>2016-05-15T10:06:11.000Z</time>
      </trkpt>
      <trkpt lat="47.48065" lon="6.76549">
        <ele>312</ele>
        <time>2016-05-15T10:06:12.000Z</time>
      </trkpt>
      <trkpt lat="47.48069" lon="6.76545">
        <ele>312</ele>
        <time>2016-05-15T10:06:13.000Z</time>
      </trkpt>
      <trkpt lat="47.48072" lon="6.76542">
        <ele>312</ele>
        <time>2016-05-15T10:06:14.000Z</time>
      </trkpt>
      <trkpt lat="47.48076" lon="6.76539">
        <ele>312</ele>
        <time>2016-05-15T10:06:15.000Z</time>
      </trkpt>
      <trkpt lat="47.48079" lon="6.76535">
        <ele>312</ele>
        <time>2016-05-15T10:06:16.000Z</time>
      </trkpt>
      <trkpt lat="47.48083" lon="6.76533">
        <ele>312</ele>
        <time>2016-05-15T10:06:17.000Z</time>
      </trkpt>
      <trkpt lat="47.48086" lon="6.7653">
        <ele>317</ele>
        <time>2016-05-15T10:06:18.000Z</time>
      </trkpt>
      <trkpt lat="47.48089" lon="6.76526">
        <ele>317</ele>
        <time>2016-05-15T10:06:19.000Z</time>
      </trkpt>
      <trkpt lat="47.48093" lon="6.76523">
        <ele>317</ele>
        <time>2016-05-15T10:06:20.000Z</time>
      </trkpt>
      <trkpt lat="47.48096" lon="6.76521">
        <ele>318</ele>
        <time>2016-05-15T10:06:21.000Z</time>
      </trkpt>
      <trkpt lat="47.481" lon="6.76518">
        <ele>318</ele>
        <time>2016-05-15T10:06:22.000Z</time>
      </trkpt>
      <trkpt lat="47.48103" lon="6.76517">
        <ele>318</ele>
        <time>2016-05-15T10:06:23.000Z</time>
      </trkpt>
      <trkpt lat="47.48107" lon="6.76519">
        <ele>319</ele>
        <time>2016-05-15T10:06:24.000Z</time>
      </trkpt>
      <trkpt lat="47.48108" lon="6.76523">
        <ele>319</ele>
        <time>2016-05-15T10:06:25.000Z</time>
      </trkpt>
      <trkpt lat="47.4811" lon="6.76527">
        <ele>319</ele>
        <time>2016-05-15T10:06:26.000Z</time>
      </trkpt>
      <trkpt lat="47.48113" lon="6.7653">
        <ele>319</ele>
        <time>2016-05-15T10:06:27.000Z</time>
      </trkpt>
      <trkpt lat="47.48115" lon="6.76534">
        <ele>319</ele>
        <time>2016-05-15T10:06:28.000Z</time>
      </trkpt>
      <trkpt lat="47.48117" lon="6.76538">
        <ele>319</ele>
        <time>2016-05-15T10:06:29.000Z</time>
      </trkpt>
      <trkpt lat="47.48118" lon="6.76542">
        <ele>319</ele>
        <time>2016-05-15T10:06:30.000Z</time>
      </trkpt>
      <trkpt lat="47.48118" lon="6.76547">
        <ele>319</ele>
        <time>2016-05-15T10:06:31.000Z</time>
      </trkpt>
      <trkpt lat="47.48111" lon="6.76557">
        <ele>318</ele>
        <time>2016-05-15T10:06:32.000Z</time>
      </trkpt>
      <trkpt lat="47.48109" lon="6.76562">
        <ele>318</ele>
        <time>2016-05-15T10:06:33.000Z</time>
      </trkpt>
      <trkpt lat="47.48106" lon="6.76568">
        <ele>317</ele>
        <time>2016-05-15T10:06:34.000Z</time>
      </trkpt>
      <trkpt lat="47.48104" lon="6.76572">
        <ele>317</ele>
        <time>2016-05-15T10:06:35.000Z</time>
      </trkpt>
      <trkpt lat="47.48102" lon="6.76576">
        <ele>316</ele>
        <time>2016-05-15T10:06:36.000Z</time>
      </trkpt>
      <trkpt lat="47.481" lon="6.7658">
        <ele>316</ele>
        <time>2016-05-15T10:06:37.000Z</time>
      </trkpt>
      <trkpt lat="47.48098" lon="6.76588">
        <ele>313</ele>
        <time>2016-05-15T10:06:38.000Z</time>
      </trkpt>
      <trkpt lat="47.48096" lon="6.76593">
        <ele>313</ele>
        <time>2016-05-15T10:06:39.000Z</time>
      </trkpt>
      <trkpt lat="47.48097" lon="6.766">
        <ele>313</ele>
        <time>2016-05-15T10:06:40.000Z</time>
      </trkpt>
      <trkpt lat="47.48095" lon="6.76606">
        <ele>313</ele>
        <time>2016-05-15T10:06:41.000Z</time>
      </trkpt>
      <trkpt lat="47.48095" lon="6.76612">
        <ele>313</ele>
        <time>2016-05-15T10:06:42.000Z</time>
      </trkpt>
      <trkpt lat="47.48096" lon="6.76617">
        <ele>313</ele>
        <time>2016-05-15T10:06:43.000Z</time>
      </trkpt>
      <trkpt lat="47.48097" lon="6.76622">
        <ele>313</ele>
        <time>2016-05-15T10:06:44.000Z</time>
      </trkpt>
      <trkpt lat="47.48097" lon="6.76627">
        <ele>313</ele>
        <time>2016-05-15T10:06:45.000Z</time>
      </trkpt>
      <trkpt lat="47.48099" lon="6.76632">
        <ele>313</ele>
        <time>2016-05-15T10:06:46.000Z</time>
      </trkpt>
      <trkpt lat="47.48102" lon="6.7664">
        <ele>313</ele>
        <time>2016-05-15T10:06:47.000Z</time>
      </trkpt>
      <trkpt lat="47.48104" lon="6.76645">
        <ele>312</ele>
        <time>2016-05-15T10:06:48.000Z</time>
      </trkpt>
      <trkpt lat="47.48111" lon="6.76654">
        <ele>312</ele>
        <time>2016-05-15T10:06:49.000Z</time>
      </trkpt>
      <trkpt lat="47.48114" lon="6.7666">
        <ele>312</ele>
        <time>2016-05-15T10:06:50.000Z</time>
      </trkpt>
      <trkpt lat="47.48117" lon="6.76666">
        <ele>312</ele>
        <time>2016-05-15T10:06:51.000Z</time>
      </trkpt>
      <trkpt lat="47.4812" lon="6.76671">
        <ele>312</ele>
        <time>2016-05-15T10:06:52.000Z</time>
      </trkpt>
      <trkpt lat="47.48123" lon="6.76678">
        <ele>312</ele>
        <time>2016-05-15T10:06:53.000Z</time>
      </trkpt>
      <trkpt lat="47.48127" lon="6.76684">
        <ele>312</ele>
        <time>2016-05-15T10:06:54.000Z</time>
      </trkpt>
      <trkpt lat="47.48131" lon="6.76691">
        <ele>312</ele>
        <time>2016-05-15T10:06:55.000Z</time>
      </trkpt>
      <trkpt lat="47.48135" lon="6.76699">
        <ele>312</ele>
        <time>2016-05-15T10:06:56.000Z</time>
      </trkpt>
      <trkpt lat="47.48139" lon="6.76706">
        <ele>312</ele>
        <time>2016-05-15T10:06:57.000Z</time>
      </trkpt>
      <trkpt lat="47.48142" lon="6.76713">
        <ele>312</ele>
        <time>2016-05-15T10:06:58.000Z</time>
      </trkpt>
      <trkpt lat="47.48145" lon="6.76719">
        <ele>312</ele>
        <time>2016-05-15T10:06:59.000Z</time>
      </trkpt>
      <trkpt lat="47.48149" lon="6.76726">
        <ele>312</ele>
        <time>2016-05-15T10:07:00.000Z</time>
      </trkpt>
      <trkpt lat="47.48152" lon="6.76733">
        <ele>312</ele>
        <time>2016-05-15T10:07:01.000Z</time>
      </trkpt>
      <trkpt lat="47.48156" lon="6.7674">
        <ele>313</ele>
        <time>2016-05-15T10:07:02.000Z</time>
      </trkpt>
      <trkpt lat="47.4816" lon="6.76746">
        <ele>313</ele>
        <time>2016-05-15T10:07:03.000Z</time>
      </trkpt>
      <trkpt lat="47.48164" lon="6.76751">
        <ele>313</ele>
        <time>2016-05-15T10:07:04.000Z</time>
      </trkpt>
      <trkpt lat="47.48168" lon="6.76756">
        <ele>313</ele>
        <time>2016-05-15T10:07:05.000Z</time>
      </trkpt>
      <trkpt lat="47.48173" lon="6.76761">
        <ele>313</ele>
        <time>2016-05-15T10:07:06.000Z</time>
      </trkpt>
      <trkpt lat="47.48177" lon="6.76767">
        <ele>312</ele>
        <time>2016-05-15T10:07:07.000Z</time>
      </trkpt>
      <trkpt lat="47.48181" lon="6.76771">
        <ele>312</ele>
        <time>2016-05-15T10:07:08.000Z</time>
      </trkpt>
      <trkpt lat="47.48185" lon="6.76776">
        <ele>312</ele>
        <time>2016-05-15T10:07:09.000Z</time>
      </trkpt>
      <trkpt lat="47.48191" lon="6.7678">
        <ele>312</ele>
        <time>2016-05-15T10:07:10.000Z</time>
      </trkpt>
      <trkpt lat="47.48197" lon="6.76783">
        <ele>312</ele>
        <time>2016-05-15T10:07:11.000Z</time>
      </trkpt>
      <trkpt lat="47.48202" lon="6.76785">
        <ele>312</ele>
        <time>2016-05-15T10:07:12.000Z</time>
      </trkpt>
      <trkpt lat="47.48208" lon="6.76788">
        <ele>312</ele>
        <time>2016-05-15T10:07:13.000Z</time>
      </trkpt>
      <trkpt lat="47.48213" lon="6.76789">
        <ele>312</ele>
        <time>2016-05-15T10:07:14.000Z</time>
      </trkpt>
      <trkpt lat="47.48218" lon="6.76792">
        <ele>312</ele>
        <time>2016-05-15T10:07:15.000Z</time>
      </trkpt>
      <trkpt lat="47.48224" lon="6.76795">
        <ele>312</ele>
        <time>2016-05-15T10:07:16.000Z</time>
      </trkpt>
      <trkpt lat="47.48229" lon="6.76797">
        <ele>312</ele>
        <time>2016-05-15T10:07:17.000Z</time>
      </trkpt>
      <trkpt lat="47.48235" lon="6.768">
        <ele>312</ele>
        <time>2016-05-15T10:07:18.000Z</time>
      </trkpt>
      <trkpt lat="47.4824" lon="6.76804">
        <ele>312</ele>
        <time>2016-05-15T10:07:19.000Z</time>
      </trkpt>
      <trkpt lat="47.48244" lon="6.76808">
        <ele>312</ele>
        <time>2016-05-15T10:07:20.000Z</time>
      </trkpt>
      <trkpt lat="47.48248" lon="6.76813">
        <ele>312</ele>
        <time>2016-05-15T10:07:21.000Z</time>
      </trkpt>
      <trkpt lat="47.48253" lon="6.76817">
        <ele>312</ele>
        <time>2016-05-15T10:07:22.000Z</time>
      </trkpt>
      <trkpt lat="47.48257" lon="6.76824">
        <ele>312</ele>
        <time>2016-05-15T10:07:23.000Z</time>
      </trkpt>
      <trkpt lat="47.48261" lon="6.7683">
        <ele>312</ele>
        <time>2016-05-15T10:07:24.000Z</time>
      </trkpt>
      <trkpt lat="47.48265" lon="6.76836">
        <ele>311</ele>
        <time>2016-05-15T10:07:25.000Z</time>
      </trkpt>
      <trkpt lat="47.48268" lon="6.76841">
        <ele>311</ele>
        <time>2016-05-15T10:07:26.000Z</time>
      </trkpt>
      <trkpt lat="47.48272" lon="6.76847">
        <ele>311</ele>
        <time>2016-05-15T10:07:27.000Z</time>
      </trkpt>
      <trkpt lat="47.48276" lon="6.76852">
        <ele>310</ele>
        <time>2016-05-15T10:07:28.000Z</time>
      </trkpt>
      <trkpt lat="47.4828" lon="6.76858">
        <ele>310</ele>
        <time>2016-05-15T10:07:29.000Z</time>
      </trkpt>
      <trkpt lat="47.48285" lon="6.76864">
        <ele>310</ele>
        <time>2016-05-15T10:07:30.000Z</time>
      </trkpt>
      <trkpt lat="47.48289" lon="6.76869">
        <ele>310</ele>
        <time>2016-05-15T10:07:31.000Z</time>
      </trkpt>
      <trkpt lat="47.48294" lon="6.76873">
        <ele>310</ele>
        <time>2016-05-15T10:07:32.000Z</time>
      </trkpt>
      <trkpt lat="47.483" lon="6.76877">
        <ele>310</ele>
        <time>2016-05-15T10:07:33.000Z</time>
      </trkpt>
      <trkpt lat="47.48305" lon="6.76882">
        <ele>310</ele>
        <time>2016-05-15T10:07:34.000Z</time>
      </trkpt>
      <trkpt lat="47.48309" lon="6.76887">
        <ele>310</ele>
        <time>2016-05-15T10:07:35.000Z</time>
      </trkpt>
      <trkpt lat="47.48314" lon="6.76892">
        <ele>310</ele>
        <time>2016-05-15T10:07:36.000Z</time>
      </trkpt>
      <trkpt lat="47.48319" lon="6.76895">
        <ele>310</ele>
        <time>2016-05-15T10:07:37.000Z</time>
      </trkpt>
      <trkpt lat="47.48323" lon="6.769">
        <ele>310</ele>
        <time>2016-05-15T10:07:38.000Z</time>
      </trkpt>
      <trkpt lat="47.48328" lon="6.76904">
        <ele>310</ele>
        <time>2016-05-15T10:07:39.000Z</time>
      </trkpt>
      <trkpt lat="47.48332" lon="6.76908">
        <ele>309</ele>
        <time>2016-05-15T10:07:40.000Z</time>
      </trkpt>
      <trkpt lat="47.48338" lon="6.76912">
        <ele>310</ele>
        <time>2016-05-15T10:07:41.000Z</time>
      </trkpt>
      <trkpt lat="47.48344" lon="6.76915">
        <ele>310</ele>
        <time>2016-05-15T10:07:42.000Z</time>
      </trkpt>
      <trkpt lat="47.48349" lon="6.7692">
        <ele>310</ele>
        <time>2016-05-15T10:07:43.000Z</time>
      </trkpt>
      <trkpt lat="47.48355" lon="6.76924">
        <ele>311</ele>
        <time>2016-05-15T10:07:44.000Z</time>
      </trkpt>
      <trkpt lat="47.48361" lon="6.76927">
        <ele>311</ele>
        <time>2016-05-15T10:07:45.000Z</time>
      </trkpt>
      <trkpt lat="47.48366" lon="6.7693">
        <ele>311</ele>
        <time>2016-05-15T10:07:46.000Z</time>
      </trkpt>
      <trkpt lat="47.48371" lon="6.76933">
        <ele>312</ele>
        <time>2016-05-15T10:07:47.000Z</time>
      </trkpt>
      <trkpt lat="47.48376" lon="6.76936">
        <ele>312</ele>
        <time>2016-05-15T10:07:48.000Z</time>
      </trkpt>
      <trkpt lat="47.48382" lon="6.76939">
        <ele>312</ele>
        <time>2016-05-15T10:07:49.000Z</time>
      </trkpt>
      <trkpt lat="47.48387" lon="6.76943">
        <ele>312</ele>
        <time>2016-05-15T10:07:50.000Z</time>
      </trkpt>
      <trkpt lat="47.48392" lon="6.76946">
        <ele>312</ele>
        <time>2016-05-15T10:07:51.000Z</time>
      </trkpt>
      <trkpt lat="47.48397" lon="6.7695">
        <ele>312</ele>
        <time>2016-05-15T10:07:52.000Z</time>
      </trkpt>
      <trkpt lat="47.48402" lon="6.76953">
        <ele>312</ele>
        <time>2016-05-15T10:07:53.000Z</time>
      </trkpt>
      <trkpt lat="47.48407" lon="6.76956">
        <ele>312</ele>
        <time>2016-05-15T10:07:54.000Z</time>
      </trkpt>
      <trkpt lat="47.48412" lon="6.76957">
        <ele>312</ele>
        <time>2016-05-15T10:07:55.000Z</time>
      </trkpt>
      <trkpt lat="47.48417" lon="6.76959">
        <ele>314</ele>
        <time>2016-05-15T10:07:56.000Z</time>
      </trkpt>
      <trkpt lat="47.48423" lon="6.76962">
        <ele>314</ele>
        <time>2016-05-15T10:07:57.000Z</time>
      </trkpt>
      <trkpt lat="47.48429" lon="6.76964">
        <ele>314</ele>
        <time>2016-05-15T10:07:58.000Z</time>
      </trkpt>
      <trkpt lat="47.48434" lon="6.76966">
        <ele>314</ele>
        <time>2016-05-15T10:07:59.000Z</time>
      </trkpt>
      <trkpt lat="47.48439" lon="6.76969">
        <ele>314</ele>
        <time>2016-05-15T10:08:00.000Z</time>
      </trkpt>
      <trkpt lat="47.48444" lon="6.76973">
        <ele>315</ele>
        <time>2016-05-15T10:08:01.000Z</time>
      </trkpt>
      <trkpt lat="47.48449" lon="6.76977">
        <ele>315</ele>
        <time>2016-05-15T10:08:02.000Z</time>
      </trkpt>
      <trkpt lat="47.48453" lon="6.76981">
        <ele>315</ele>
        <time>2016-05-15T10:08:03.000Z</time>
      </trkpt>
      <trkpt lat="47.48459" lon="6.76984">
        <ele>315</ele>
        <time>2016-05-15T10:08:04.000Z</time>
      </trkpt>
      <trkpt lat="47.48464" lon="6.76987">
        <ele>315</ele>
        <time>2016-05-15T10:08:05.000Z</time>
      </trkpt>
      <trkpt lat="47.48469" lon="6.76991">
        <ele>315</ele>
        <time>2016-05-15T10:08:06.000Z</time>
      </trkpt>
      <trkpt lat="47.48474" lon="6.76994">
        <ele>315</ele>
        <time>2016-05-15T10:08:07.000Z</time>
      </trkpt>
      <trkpt lat="47.48479" lon="6.76997">
        <ele>315</ele>
        <time>2016-05-15T10:08:08.000Z</time>
      </trkpt>
      <trkpt lat="47.48484" lon="6.76999">
        <ele>316</ele>
        <time>2016-05-15T10:08:09.000Z</time>
      </trkpt>
      <trkpt lat="47.4849" lon="6.77002">
        <ele>315</ele>
        <time>2016-05-15T10:08:10.000Z</time>
      </trkpt>
      <trkpt lat="47.48494" lon="6.77005">
        <ele>315</ele>
        <time>2016-05-15T10:08:11.000Z</time>
      </trkpt>
      <trkpt lat="47.48499" lon="6.77008">
        <ele>315</ele>
        <time>2016-05-15T10:08:12.000Z</time>
      </trkpt>
      <trkpt lat="47.48503" lon="6.77012">
        <ele>315</ele>
        <time>2016-05-15T10:08:13.000Z</time>
      </trkpt>
      <trkpt lat="47.48507" lon="6.77015">
        <ele>315</ele>
        <time>2016-05-15T10:08:14.000Z</time>
      </trkpt>
      <trkpt lat="47.48511" lon="6.77018">
        <ele>315</ele>
        <time>2016-05-15T10:08:15.000Z</time>
      </trkpt>
      <trkpt lat="47.48515" lon="6.77022">
        <ele>315</ele>
        <time>2016-05-15T10:08:16.000Z</time>
      </trkpt>
      <trkpt lat="47.4852" lon="6.77026">
        <ele>314</ele>
        <time>2016-05-15T10:08:17.000Z</time>
      </trkpt>
      <trkpt lat="47.48524" lon="6.77029">
        <ele>314</ele>
        <time>2016-05-15T10:08:18.000Z</time>
      </trkpt>
      <trkpt lat="47.48528" lon="6.77032">
        <ele>314</ele>
        <time>2016-05-15T10:08:19.000Z</time>
      </trkpt>
      <trkpt lat="47.48532" lon="6.77036">
        <ele>314</ele>
        <time>2016-05-15T10:08:20.000Z</time>
      </trkpt>
      <trkpt lat="47.48537" lon="6.7704">
        <ele>314</ele>
        <time>2016-05-15T10:08:21.000Z</time>
      </trkpt>
      <trkpt lat="47.48542" lon="6.77044">
        <ele>314</ele>
        <time>2016-05-15T10:08:22.000Z</time>
      </trkpt>
      <trkpt lat="47.48547" lon="6.77047">
        <ele>314</ele>
        <time>2016-05-15T10:08:23.000Z</time>
      </trkpt>
      <trkpt lat="47.48551" lon="6.77048">
        <ele>314</ele>
        <time>2016-05-15T10:08:24.000Z</time>
      </trkpt>
      <trkpt lat="47.48557" lon="6.77049">
        <ele>314</ele>
        <time>2016-05-15T10:08:25.000Z</time>
      </trkpt>
      <trkpt lat="47.48561" lon="6.7705">
        <ele>314</ele>
        <time>2016-05-15T10:08:26.000Z</time>
      </trkpt>
      <trkpt lat="47.48564" lon="6.77054">
        <ele>314</ele>
        <time>2016-05-15T10:08:27.000Z</time>
      </trkpt>
      <trkpt lat="47.48568" lon="6.77055">
        <ele>314</ele>
        <time>2016-05-15T10:08:28.000Z</time>
      </trkpt>
      <trkpt lat="47.48572" lon="6.77057">
        <ele>314</ele>
        <time>2016-05-15T10:08:29.000Z</time>
      </trkpt>
      <trkpt lat="47.48578" lon="6.7706">
        <ele>314</ele>
        <time>2016-05-15T10:08:30.000Z</time>
      </trkpt>
      <trkpt lat="47.48583" lon="6.77062">
        <ele>314</ele>
        <time>2016-05-15T10:08:31.000Z</time>
      </trkpt>
      <trkpt lat="47.48588" lon="6.77064">
        <ele>313</ele>
        <time>2016-05-15T10:08:32.000Z</time>
      </trkpt>
      <trkpt lat="47.48593" lon="6.77066">
        <ele>313</ele>
        <time>2016-05-15T10:08:33.000Z</time>
      </trkpt>
      <trkpt lat="47.48598" lon="6.7707">
        <ele>313</ele>
        <time>2016-05-15T10:08:34.000Z</time>
      </trkpt>
      <trkpt lat="47.48602" lon="6.77073">
        <ele>313</ele>
        <time>2016-05-15T10:08:35.000Z</time>
      </trkpt>
      <trkpt lat="47.48607" lon="6.77076">
        <ele>313</ele>
        <time>2016-05-15T10:08:36.000Z</time>
      </trkpt>
      <trkpt lat="47.48611" lon="6.7708">
        <ele>313</ele>
        <time>2016-05-15T10:08:37.000Z</time>
      </trkpt>
      <trkpt lat="47.48614" lon="6.77081">
        <ele>313</ele>
        <time>2016-05-15T10:08:38.000Z</time>
      </trkpt>
      <trkpt lat="47.48618" lon="6.77083">
        <ele>313</ele>
        <time>2016-05-15T10:08:39.000Z</time>
      </trkpt>
      <trkpt lat="47.48622" lon="6.77085">
        <ele>312</ele>
        <time>2016-05-15T10:08:40.000Z</time>
      </trkpt>
      <trkpt lat="47.48626" lon="6.77088">
        <ele>312</ele>
        <time>2016-05-15T10:08:41.000Z</time>
      </trkpt>
      <trkpt lat="47.48631" lon="6.77091">
        <ele>312</ele>
        <time>2016-05-15T10:08:42.000Z</time>
      </trkpt>
      <trkpt lat="47.48634" lon="6.77096">
        <ele>312</ele>
        <time>2016-05-15T10:08:43.000Z</time>
      </trkpt>
      <trkpt lat="47.48639" lon="6.77101">
        <ele>312</ele>
        <time>2016-05-15T10:08:44.000Z</time>
      </trkpt>
      <trkpt lat="47.48642" lon="6.77106">
        <ele>312</ele>
        <time>2016-05-15T10:08:45.000Z</time>
      </trkpt>
      <trkpt lat="47.48647" lon="6.77111">
        <ele>312</ele>
        <time>2016-05-15T10:08:46.000Z</time>
      </trkpt>
      <trkpt lat="47.48652" lon="6.77116">
        <ele>312</ele>
        <time>2016-05-15T10:08:47.000Z</time>
      </trkpt>
      <trkpt lat="47.48656" lon="6.77121">
        <ele>312</ele>
        <time>2016-05-15T10:08:48.000Z</time>
      </trkpt>
      <trkpt lat="47.4866" lon="6.77126">
        <ele>312</ele>
        <time>2016-05-15T10:08:49.000Z</time>
      </trkpt>
      <trkpt lat="47.48664" lon="6.7713">
        <ele>312</ele>
        <time>2016-05-15T10:08:50.000Z</time>
      </trkpt>
      <trkpt lat="47.48669" lon="6.77135">
        <ele>312</ele>
        <time>2016-05-15T10:08:51.000Z</time>
      </trkpt>
      <trkpt lat="47.48672" lon="6.77139">
        <ele>311</ele>
        <time>2016-05-15T10:08:52.000Z</time>
      </trkpt>
      <trkpt lat="47.48676" lon="6.77144">
        <ele>311</ele>
        <time>2016-05-15T10:08:53.000Z</time>
      </trkpt>
      <trkpt lat="47.4868" lon="6.77148">
        <ele>311</ele>
        <time>2016-05-15T10:08:54.000Z</time>
      </trkpt>
      <trkpt lat="47.48684" lon="6.77152">
        <ele>311</ele>
        <time>2016-05-15T10:08:55.000Z</time>
      </trkpt>
      <trkpt lat="47.48689" lon="6.77155">
        <ele>311</ele>
        <time>2016-05-15T10:08:56.000Z</time>
      </trkpt>
      <trkpt lat="47.48694" lon="6.7716">
        <ele>311</ele>
        <time>2016-05-15T10:08:57.000Z</time>
      </trkpt>
      <trkpt lat="47.48698" lon="6.77164">
        <ele>311</ele>
        <time>2016-05-15T10:08:58.000Z</time>
      </trkpt>
      <trkpt lat="47.48703" lon="6.77168">
        <ele>311</ele>
        <time>2016-05-15T10:08:59.000Z</time>
      </trkpt>
      <trkpt lat="47.48708" lon="6.77172">
        <ele>311</ele>
        <time>2016-05-15T10:09:00.000Z</time>
      </trkpt>
      <trkpt lat="47.48711" lon="6.77177">
        <ele>310</ele>
        <time>2016-05-15T10:09:01.000Z</time>
      </trkpt>
      <trkpt lat="47.48716" lon="6.7718">
        <ele>310</ele>
        <time>2016-05-15T10:09:02.000Z</time>
      </trkpt>
      <trkpt lat="47.48721" lon="6.77183">
        <ele>310</ele>
        <time>2016-05-15T10:09:03.000Z</time>
      </trkpt>
      <trkpt lat="47.48725" lon="6.77186">
        <ele>310</ele>
        <time>2016-05-15T10:09:04.000Z</time>
      </trkpt>
      <trkpt lat="47.4873" lon="6.7719">
        <ele>310</ele>
        <time>2016-05-15T10:09:05.000Z</time>
      </trkpt>
      <trkpt lat="47.48735" lon="6.77195">
        <ele>310</ele>
        <time>2016-05-15T10:09:06.000Z</time>
      </trkpt>
      <trkpt lat="47.4874" lon="6.77197">
        <ele>310</ele>
        <time>2016-05-15T10:09:07.000Z</time>
      </trkpt>
      <trkpt lat="47.48745" lon="6.77201">
        <ele>310</ele>
        <time>2016-05-15T10:09:08.000Z</time>
      </trkpt>
      <trkpt lat="47.48749" lon="6.77205">
        <ele>310</ele>
        <time>2016-05-15T10:09:09.000Z</time>
      </trkpt>
      <trkpt lat="47.48754" lon="6.77208">
        <ele>310</ele>
        <time>2016-05-15T10:09:10.000Z</time>
      </trkpt>
      <trkpt lat="47.48758" lon="6.77211">
        <ele>310</ele>
        <time>2016-05-15T10:09:11.000Z</time>
      </trkpt>
      <trkpt lat="47.48763" lon="6.77214">
        <ele>310</ele>
        <time>2016-05-15T10:09:12.000Z</time>
      </trkpt>
      <trkpt lat="47.48767" lon="6.77217">
        <ele>310</ele>
        <time>2016-05-15T10:09:13.000Z</time>
      </trkpt>
      <trkpt lat="47.48772" lon="6.77221">
        <ele>310</ele>
        <time>2016-05-15T10:09:14.000Z</time>
      </trkpt>
      <trkpt lat="47.48776" lon="6.77224">
        <ele>310</ele>
        <time>2016-05-15T10:09:15.000Z</time>
      </trkpt>
      <trkpt lat="47.48781" lon="6.77228">
        <ele>310</ele>
        <time>2016-05-15T10:09:16.000Z</time>
      </trkpt>
      <trkpt lat="47.48786" lon="6.77231">
        <ele>310</ele>
        <time>2016-05-15T10:09:17.000Z</time>
      </trkpt>
      <trkpt lat="47.48791" lon="6.77235">
        <ele>310</ele>
        <time>2016-05-15T10:09:18.000Z</time>
      </trkpt>
      <trkpt lat="47.48795" lon="6.77238">
        <ele>310</ele>
        <time>2016-05-15T10:09:19.000Z</time>
      </trkpt>
      <trkpt lat="47.488" lon="6.77241">
        <ele>310</ele>
        <time>2016-05-15T10:09:20.000Z</time>
      </trkpt>
      <trkpt lat="47.48804" lon="6.77245">
        <ele>311</ele>
        <time>2016-05-15T10:09:21.000Z</time>
      </trkpt>
      <trkpt lat="47.48809" lon="6.77249">
        <ele>311</ele>
        <time>2016-05-15T10:09:22.000Z</time>
      </trkpt>
      <trkpt lat="47.48814" lon="6.77252">
        <ele>310</ele>
        <time>2016-05-15T10:09:23.000Z</time>
      </trkpt>
      <trkpt lat="47.48818" lon="6.77255">
        <ele>310</ele>
        <time>2016-05-15T10:09:24.000Z</time>
      </trkpt>
      <trkpt lat="47.48822" lon="6.77259">
        <ele>310</ele>
        <time>2016-05-15T10:09:25.000Z</time>
      </trkpt>
      <trkpt lat="47.48826" lon="6.77263">
        <ele>310</ele>
        <time>2016-05-15T10:09:26.000Z</time>
      </trkpt>
      <trkpt lat="47.4883" lon="6.77266">
        <ele>310</ele>
        <time>2016-05-15T10:09:27.000Z</time>
      </trkpt>
      <trkpt lat="47.48834" lon="6.77269">
        <ele>310</ele>
        <time>2016-05-15T10:09:28.000Z</time>
      </trkpt>
      <trkpt lat="47.4884" lon="6.77272">
        <ele>310</ele>
        <time>2016-05-15T10:09:29.000Z</time>
      </trkpt>
      <trkpt lat="47.48845" lon="6.77275">
        <ele>310</ele>
        <time>2016-05-15T10:09:30.000Z</time>
      </trkpt>
      <trkpt lat="47.48849" lon="6.77277">
        <ele>310</ele>
        <time>2016-05-15T10:09:31.000Z</time>
      </trkpt>
      <trkpt lat="47.48854" lon="6.7728">
        <ele>310</ele>
        <time>2016-05-15T10:09:32.000Z</time>
      </trkpt>
      <trkpt lat="47.48859" lon="6.77283">
        <ele>310</ele>
        <time>2016-05-15T10:09:33.000Z</time>
      </trkpt>
      <trkpt lat="47.48864" lon="6.77284">
        <ele>310</ele>
        <time>2016-05-15T10:09:34.000Z</time>
      </trkpt>
      <trkpt lat="47.4887" lon="6.77286">
        <ele>310</ele>
        <time>2016-05-15T10:09:35.000Z</time>
      </trkpt>
      <trkpt lat="47.48876" lon="6.77288">
        <ele>310</ele>
        <time>2016-05-15T10:09:36.000Z</time>
      </trkpt>
      <trkpt lat="47.48881" lon="6.77289">
        <ele>310</ele>
        <time>2016-05-15T10:09:37.000Z</time>
      </trkpt>
      <trkpt lat="47.48887" lon="6.77291">
        <ele>310</ele>
        <time>2016-05-15T10:09:38.000Z</time>
      </trkpt>
      <trkpt lat="47.48892" lon="6.77293">
        <ele>310</ele>
        <time>2016-05-15T10:09:39.000Z</time>
      </trkpt>
      <trkpt lat="47.48898" lon="6.77296">
        <ele>310</ele>
        <time>2016-05-15T10:09:40.000Z</time>
      </trkpt>
      <trkpt lat="47.48902" lon="6.77298">
        <ele>310</ele>
        <time>2016-05-15T10:09:41.000Z</time>
      </trkpt>
      <trkpt lat="47.48907" lon="6.77301">
        <ele>310</ele>
        <time>2016-05-15T10:09:42.000Z</time>
      </trkpt>
      <trkpt lat="47.48912" lon="6.77303">
        <ele>310</ele>
        <time>2016-05-15T10:09:43.000Z</time>
      </trkpt>
      <trkpt lat="47.48917" lon="6.77305">
        <ele>311</ele>
        <time>2016-05-15T10:09:44.000Z</time>
      </trkpt>
      <trkpt lat="47.48922" lon="6.77307">
        <ele>311</ele>
        <time>2016-05-15T10:09:45.000Z</time>
      </trkpt>
      <trkpt lat="47.48928" lon="6.7731">
        <ele>311</ele>
        <time>2016-05-15T10:09:46.000Z</time>
      </trkpt>
      <trkpt lat="47.48932" lon="6.77312">
        <ele>311</ele>
        <time>2016-05-15T10:09:47.000Z</time>
      </trkpt>
      <trkpt lat="47.48938" lon="6.77314">
        <ele>311</ele>
        <time>2016-05-15T10:09:48.000Z</time>
      </trkpt>
      <trkpt lat="47.48943" lon="6.77317">
        <ele>311</ele>
        <time>2016-05-15T10:09:49.000Z</time>
      </trkpt>
      <trkpt lat="47.48948" lon="6.77319">
        <ele>311</ele>
        <time>2016-05-15T10:09:50.000Z</time>
      </trkpt>
      <trkpt lat="47.48953" lon="6.77321">
        <ele>311</ele>
        <time>2016-05-15T10:09:51.000Z</time>
      </trkpt>
      <trkpt lat="47.48959" lon="6.77322">
        <ele>311</ele>
        <time>2016-05-15T10:09:52.000Z</time>
      </trkpt>
      <trkpt lat="47.48965" lon="6.77323">
        <ele>311</ele>
        <time>2016-05-15T10:09:53.000Z</time>
      </trkpt>
      <trkpt lat="47.4897" lon="6.77323">
        <ele>311</ele>
        <time>2016-05-15T10:09:54.000Z</time>
      </trkpt>
      <trkpt lat="47.48975" lon="6.77323">
        <ele>311</ele>
        <time>2016-05-15T10:09:55.000Z</time>
      </trkpt>
      <trkpt lat="47.4898" lon="6.77324">
        <ele>311</ele>
        <time>2016-05-15T10:09:56.000Z</time>
      </trkpt>
      <trkpt lat="47.48985" lon="6.77324">
        <ele>311</ele>
        <time>2016-05-15T10:09:57.000Z</time>
      </trkpt>
      <trkpt lat="47.48991" lon="6.77324">
        <ele>311</ele>
        <time>2016-05-15T10:09:58.000Z</time>
      </trkpt>
      <trkpt lat="47.48996" lon="6.77324">
        <ele>311</ele>
        <time>2016-05-15T10:09:59.000Z</time>
      </trkpt>
      <trkpt lat="47.49001" lon="6.77325">
        <ele>311</ele>
        <time>2016-05-15T10:10:00.000Z</time>
      </trkpt>
      <trkpt lat="47.49007" lon="6.77326">
        <ele>311</ele>
        <time>2016-05-15T10:10:01.000Z</time>
      </trkpt>
      <trkpt lat="47.49013" lon="6.77326">
        <ele>311</ele>
        <time>2016-05-15T10:10:02.000Z</time>
      </trkpt>
      <trkpt lat="47.49018" lon="6.77326">
        <ele>311</ele>
        <time>2016-05-15T10:10:03.000Z</time>
      </trkpt>
      <trkpt lat="47.49023" lon="6.77326">
        <ele>311</ele>
        <time>2016-05-15T10:10:04.000Z</time>
      </trkpt>
      <trkpt lat="47.49028" lon="6.77328">
        <ele>311</ele>
        <time>2016-05-15T10:10:05.000Z</time>
      </trkpt>
      <trkpt lat="47.49033" lon="6.77327">
        <ele>311</ele>
        <time>2016-05-15T10:10:06.000Z</time>
      </trkpt>
      <trkpt lat="47.49038" lon="6.77327">
        <ele>311</ele>
        <time>2016-05-15T10:10:07.000Z</time>
      </trkpt>
      <trkpt lat="47.49043" lon="6.77327">
        <ele>311</ele>
        <time>2016-05-15T10:10:08.000Z</time>
      </trkpt>
      <trkpt lat="47.49048" lon="6.77327">
        <ele>311</ele>
        <time>2016-05-15T10:10:09.000Z</time>
      </trkpt>
      <trkpt lat="47.49054" lon="6.77328">
        <ele>311</ele>
        <time>2016-05-15T10:10:10.000Z</time>
      </trkpt>
      <trkpt lat="47.49059" lon="6.77328">
        <ele>311</ele>
        <time>2016-05-15T10:10:11.000Z</time>
      </trkpt>
      <trkpt lat="47.49066" lon="6.77327">
        <ele>311</ele>
        <time>2016-05-15T10:10:12.000Z</time>
      </trkpt>
      <trkpt lat="47.49072" lon="6.77328">
        <ele>311</ele>
        <time>2016-05-15T10:10:13.000Z</time>
      </trkpt>
      <trkpt lat="47.49078" lon="6.77329">
        <ele>311</ele>
        <time>2016-05-15T10:10:14.000Z</time>
      </trkpt>
      <trkpt lat="47.49082" lon="6.7733">
        <ele>311</ele>
        <time>2016-05-15T10:10:15.000Z</time>
      </trkpt>
      <trkpt lat="47.49086" lon="6.7733">
        <ele>311</ele>
        <time>2016-05-15T10:10:16.000Z</time>
      </trkpt>
      <trkpt lat="47.49092" lon="6.7733">
        <ele>311</ele>
        <time>2016-05-15T10:10:17.000Z</time>
      </trkpt>
      <trkpt lat="47.49097" lon="6.7733">
        <ele>311</ele>
        <time>2016-05-15T10:10:18.000Z</time>
      </trkpt>
      <trkpt lat="47.49103" lon="6.77329">
        <ele>311</ele>
        <time>2016-05-15T10:10:19.000Z</time>
      </trkpt>
      <trkpt lat="47.49108" lon="6.7733">
        <ele>311</ele>
        <time>2016-05-15T10:10:20.000Z</time>
      </trkpt>
      <trkpt lat="47.49112" lon="6.77332">
        <ele>311</ele>
        <time>2016-05-15T10:10:21.000Z</time>
      </trkpt>
      <trkpt lat="47.49116" lon="6.77332">
        <ele>311</ele>
        <time>2016-05-15T10:10:22.000Z</time>
      </trkpt>
      <trkpt lat="47.49121" lon="6.77333">
        <ele>311</ele>
        <time>2016-05-15T10:10:23.000Z</time>
      </trkpt>
      <trkpt lat="47.49125" lon="6.77332">
        <ele>311</ele>
        <time>2016-05-15T10:10:24.000Z</time>
      </trkpt>
      <trkpt lat="47.49129" lon="6.77333">
        <ele>311</ele>
        <time>2016-05-15T10:10:25.000Z</time>
      </trkpt>
      <trkpt lat="47.49133" lon="6.77333">
        <ele>311</ele>
        <time>2016-05-15T10:10:26.000Z</time>
      </trkpt>
      <trkpt lat="47.49138" lon="6.77333">
        <ele>311</ele>
        <time>2016-05-15T10:10:27.000Z</time>
      </trkpt>
      <trkpt lat="47.49142" lon="6.77333">
        <ele>311</ele>
        <time>2016-05-15T10:10:28.000Z</time>
      </trkpt>
      <trkpt lat="47.49145" lon="6.77333">
        <ele>311</ele>
        <time>2016-05-15T10:10:29.000Z</time>
      </trkpt>
      <trkpt lat="47.49148" lon="6.77334">
        <ele>310</ele>
        <time>2016-05-15T10:10:30.000Z</time>
      </trkpt>
      <trkpt lat="47.49152" lon="6.77334">
        <ele>310</ele>
        <time>2016-05-15T10:10:31.000Z</time>
      </trkpt>
      <trkpt lat="47.49155" lon="6.77334">
        <ele>310</ele>
        <time>2016-05-15T10:10:32.000Z</time>
      </trkpt>
      <trkpt lat="47.49158" lon="6.77335">
        <ele>310</ele>
        <time>2016-05-15T10:10:33.000Z</time>
      </trkpt>
      <trkpt lat="47.49161" lon="6.77335">
        <ele>310</ele>
        <time>2016-05-15T10:10:34.000Z</time>
      </trkpt>
      <trkpt lat="47.49164" lon="6.77335">
        <ele>310</ele>
        <time>2016-05-15T10:10:35.000Z</time>
      </trkpt>
      <trkpt lat="47.49166" lon="6.77335">
        <ele>310</ele>
        <time>2016-05-15T10:10:36.000Z</time>
      </trkpt>
      <trkpt lat="47.49169" lon="6.77335">
        <ele>310</ele>
        <time>2016-05-15T10:10:37.000Z</time>
      </trkpt>
      <trkpt lat="47.49171" lon="6.77335">
        <ele>310</ele>
        <time>2016-05-15T10:10:38.000Z</time>
      </trkpt>
      <trkpt lat="47.49175" lon="6.77335">
        <ele>310</ele>
        <time>2016-05-15T10:10:40.000Z</time>
      </trkpt>
      <trkpt lat="47.49177" lon="6.77335">
        <ele>310</ele>
        <time>2016-05-15T10:10:41.000Z</time>
      </trkpt>
      <trkpt lat="47.49181" lon="6.77335">
        <ele>310</ele>
        <time>2016-05-15T10:10:44.000Z</time>
      </trkpt>
      <trkpt lat="47.49181" lon="6.77335">
        <ele>310</ele>
        <time>2016-05-15T10:10:45.000Z</time>
      </trkpt>
      <trkpt lat="47.49186" lon="6.77336">
        <ele>310</ele>
        <time>2016-05-15T10:16:07.000Z</time>
      </trkpt>
      <trkpt lat="47.49188" lon="6.77336">
        <ele>309</ele>
        <time>2016-05-15T10:16:08.000Z</time>
      </trkpt>
      <trkpt lat="47.49191" lon="6.77337">
        <ele>309</ele>
        <time>2016-05-15T10:16:09.000Z</time>
      </trkpt>
      <trkpt lat="47.49194" lon="6.77338">
        <ele>309</ele>
        <time>2016-05-15T10:16:10.000Z</time>
      </trkpt>
      <trkpt lat="47.49197" lon="6.77338">
        <ele>309</ele>
        <time>2016-05-15T10:16:11.000Z</time>
      </trkpt>
      <trkpt lat="47.492" lon="6.77339">
        <ele>309</ele>
        <time>2016-05-15T10:16:12.000Z</time>
      </trkpt>
      <trkpt lat="47.49203" lon="6.77339">
        <ele>309</ele>
        <time>2016-05-15T10:16:13.000Z</time>
      </trkpt>
      <trkpt lat="47.49206" lon="6.7734">
        <ele>309</ele>
        <time>2016-05-15T10:16:14.000Z</time>
      </trkpt>
      <trkpt lat="47.49209" lon="6.7734">
        <ele>309</ele>
        <time>2016-05-15T10:16:15.000Z</time>
      </trkpt>
      <trkpt lat="47.49213" lon="6.7734">
        <ele>309</ele>
        <time>2016-05-15T10:16:16.000Z</time>
      </trkpt>
      <trkpt lat="47.49216" lon="6.77339">
        <ele>309</ele>
        <time>2016-05-15T10:16:17.000Z</time>
      </trkpt>
      <trkpt lat="47.4922" lon="6.77339">
        <ele>309</ele>
        <time>2016-05-15T10:16:18.000Z</time>
      </trkpt>
      <trkpt lat="47.49224" lon="6.77338">
        <ele>309</ele>
        <time>2016-05-15T10:16:19.000Z</time>
      </trkpt>
      <trkpt lat="47.49228" lon="6.77338">
        <ele>309</ele>
        <time>2016-05-15T10:16:20.000Z</time>
      </trkpt>
      <trkpt lat="47.49232" lon="6.77338">
        <ele>310</ele>
        <time>2016-05-15T10:16:21.000Z</time>
      </trkpt>
      <trkpt lat="47.49236" lon="6.77338">
        <ele>310</ele>
        <time>2016-05-15T10:16:22.000Z</time>
      </trkpt>
      <trkpt lat="47.4924" lon="6.77337">
        <ele>310</ele>
        <time>2016-05-15T10:16:23.000Z</time>
      </trkpt>
      <trkpt lat="47.49243" lon="6.77337">
        <ele>310</ele>
        <time>2016-05-15T10:16:23.998Z</time>
      </trkpt>
      <trkpt lat="47.4925" lon="6.77327">
        <ele>310</ele>
        <time>2016-05-15T10:16:25.000Z</time>
      </trkpt>
      <trkpt lat="47.49254" lon="6.77325">
        <ele>310</ele>
        <time>2016-05-15T10:16:26.000Z</time>
      </trkpt>
      <trkpt lat="47.49259" lon="6.77324">
        <ele>310</ele>
        <time>2016-05-15T10:16:27.000Z</time>
      </trkpt>
      <trkpt lat="47.49263" lon="6.77325">
        <ele>310</ele>
        <time>2016-05-15T10:16:28.000Z</time>
      </trkpt>
      <trkpt lat="47.49268" lon="6.77324">
        <ele>310</ele>
        <time>2016-05-15T10:16:29.000Z</time>
      </trkpt>
      <trkpt lat="47.49272" lon="6.77324">
        <ele>310</ele>
        <time>2016-05-15T10:16:30.000Z</time>
      </trkpt>
      <trkpt lat="47.49277" lon="6.77324">
        <ele>310</ele>
        <time>2016-05-15T10:16:30.999Z</time>
      </trkpt>
      <trkpt lat="47.49284" lon="6.77325">
        <ele>310</ele>
        <time>2016-05-15T10:16:32.000Z</time>
      </trkpt>
      <trkpt lat="47.4929" lon="6.77325">
        <ele>310</ele>
        <time>2016-05-15T10:16:33.000Z</time>
      </trkpt>
      <trkpt lat="47.49296" lon="6.77324">
        <ele>311</ele>
        <time>2016-05-15T10:16:34.000Z</time>
      </trkpt>
      <trkpt lat="47.49303" lon="6.77325">
        <ele>310</ele>
        <time>2016-05-15T10:16:35.000Z</time>
      </trkpt>
      <trkpt lat="47.49309" lon="6.77329">
        <ele>310</ele>
        <time>2016-05-15T10:16:36.000Z</time>
      </trkpt>
      <trkpt lat="47.49314" lon="6.77329">
        <ele>310</ele>
        <time>2016-05-15T10:16:37.000Z</time>
      </trkpt>
      <trkpt lat="47.4932" lon="6.7733">
        <ele>310</ele>
        <time>2016-05-15T10:16:38.000Z</time>
      </trkpt>
      <trkpt lat="47.49325" lon="6.77333">
        <ele>310</ele>
        <time>2016-05-15T10:16:39.000Z</time>
      </trkpt>
      <trkpt lat="47.4933" lon="6.77335">
        <ele>310</ele>
        <time>2016-05-15T10:16:40.000Z</time>
      </trkpt>
      <trkpt lat="47.49333" lon="6.77337">
        <ele>310</ele>
        <time>2016-05-15T10:16:41.000Z</time>
      </trkpt>
      <trkpt lat="47.49335" lon="6.77342">
        <ele>310</ele>
        <time>2016-05-15T10:16:42.000Z</time>
      </trkpt>
      <trkpt lat="47.49337" lon="6.77346">
        <ele>310</ele>
        <time>2016-05-15T10:16:43.000Z</time>
      </trkpt>
      <trkpt lat="47.49341" lon="6.77351">
        <ele>310</ele>
        <time>2016-05-15T10:16:44.000Z</time>
      </trkpt>
      <trkpt lat="47.49348" lon="6.77345">
        <ele>310</ele>
        <time>2016-05-15T10:16:45.000Z</time>
      </trkpt>
      <trkpt lat="47.49354" lon="6.77345">
        <ele>310</ele>
        <time>2016-05-15T10:16:46.000Z</time>
      </trkpt>
      <trkpt lat="47.49359" lon="6.77344">
        <ele>310</ele>
        <time>2016-05-15T10:16:46.999Z</time>
      </trkpt>
      <trkpt lat="47.49363" lon="6.77345">
        <ele>310</ele>
        <time>2016-05-15T10:16:48.000Z</time>
      </trkpt>
      <trkpt lat="47.49367" lon="6.77345">
        <ele>310</ele>
        <time>2016-05-15T10:16:49.000Z</time>
      </trkpt>
      <trkpt lat="47.49372" lon="6.77346">
        <ele>310</ele>
        <time>2016-05-15T10:16:50.000Z</time>
      </trkpt>
      <trkpt lat="47.49378" lon="6.77346">
        <ele>310</ele>
        <time>2016-05-15T10:16:51.000Z</time>
      </trkpt>
      <trkpt lat="47.49382" lon="6.77347">
        <ele>310</ele>
        <time>2016-05-15T10:16:52.000Z</time>
      </trkpt>
      <trkpt lat="47.49387" lon="6.77348">
        <ele>310</ele>
        <time>2016-05-15T10:16:53.000Z</time>
      </trkpt>
      <trkpt lat="47.49392" lon="6.77349">
        <ele>310</ele>
        <time>2016-05-15T10:16:54.000Z</time>
      </trkpt>
      <trkpt lat="47.49398" lon="6.7735">
        <ele>310</ele>
        <time>2016-05-15T10:16:55.000Z</time>
      </trkpt>
      <trkpt lat="47.49403" lon="6.77349">
        <ele>310</ele>
        <time>2016-05-15T10:16:56.000Z</time>
      </trkpt>
      <trkpt lat="47.49407" lon="6.7735">
        <ele>311</ele>
        <time>2016-05-15T10:16:57.000Z</time>
      </trkpt>
      <trkpt lat="47.49413" lon="6.77351">
        <ele>311</ele>
        <time>2016-05-15T10:16:58.000Z</time>
      </trkpt>
      <trkpt lat="47.49418" lon="6.77352">
        <ele>311</ele>
        <time>2016-05-15T10:16:59.000Z</time>
      </trkpt>
      <trkpt lat="47.49423" lon="6.77353">
        <ele>311</ele>
        <time>2016-05-15T10:17:00.000Z</time>
      </trkpt>
      <trkpt lat="47.49427" lon="6.77353">
        <ele>311</ele>
        <time>2016-05-15T10:17:01.000Z</time>
      </trkpt>
      <trkpt lat="47.49431" lon="6.77354">
        <ele>311</ele>
        <time>2016-05-15T10:17:02.000Z</time>
      </trkpt>
      <trkpt lat="47.49437" lon="6.77354">
        <ele>311</ele>
        <time>2016-05-15T10:17:03.000Z</time>
      </trkpt>
      <trkpt lat="47.49442" lon="6.77355">
        <ele>311</ele>
        <time>2016-05-15T10:17:04.000Z</time>
      </trkpt>
      <trkpt lat="47.49446" lon="6.77357">
        <ele>311</ele>
        <time>2016-05-15T10:17:05.000Z</time>
      </trkpt>
      <trkpt lat="47.4945" lon="6.77357">
        <ele>311</ele>
        <time>2016-05-15T10:17:06.000Z</time>
      </trkpt>
      <trkpt lat="47.49454" lon="6.77356">
        <ele>311</ele>
        <time>2016-05-15T10:17:07.000Z</time>
      </trkpt>
      <trkpt lat="47.49459" lon="6.77357">
        <ele>311</ele>
        <time>2016-05-15T10:17:08.000Z</time>
      </trkpt>
      <trkpt lat="47.49464" lon="6.77358">
        <ele>311</ele>
        <time>2016-05-15T10:17:09.000Z</time>
      </trkpt>
      <trkpt lat="47.49469" lon="6.7736">
        <ele>311</ele>
        <time>2016-05-15T10:17:09.999Z</time>
      </trkpt>
      <trkpt lat="47.49473" lon="6.77358">
        <ele>311</ele>
        <time>2016-05-15T10:17:11.000Z</time>
      </trkpt>
      <trkpt lat="47.49478" lon="6.77358">
        <ele>311</ele>
        <time>2016-05-15T10:17:12.000Z</time>
      </trkpt>
      <trkpt lat="47.49482" lon="6.77358">
        <ele>311</ele>
        <time>2016-05-15T10:17:13.000Z</time>
      </trkpt>
      <trkpt lat="47.49486" lon="6.77358">
        <ele>311</ele>
        <time>2016-05-15T10:17:14.000Z</time>
      </trkpt>
      <trkpt lat="47.49491" lon="6.77359">
        <ele>311</ele>
        <time>2016-05-15T10:17:15.000Z</time>
      </trkpt>
      <trkpt lat="47.49497" lon="6.7736">
        <ele>311</ele>
        <time>2016-05-15T10:17:16.000Z</time>
      </trkpt>
      <trkpt lat="47.49501" lon="6.7736">
        <ele>312</ele>
        <time>2016-05-15T10:17:17.000Z</time>
      </trkpt>
      <trkpt lat="47.49506" lon="6.77359">
        <ele>312</ele>
        <time>2016-05-15T10:17:18.000Z</time>
      </trkpt>
      <trkpt lat="47.49511" lon="6.77359">
        <ele>312</ele>
        <time>2016-05-15T10:17:19.000Z</time>
      </trkpt>
      <trkpt lat="47.49516" lon="6.7736">
        <ele>312</ele>
        <time>2016-05-15T10:17:20.000Z</time>
      </trkpt>
      <trkpt lat="47.49521" lon="6.7736">
        <ele>312</ele>
        <time>2016-05-15T10:17:21.000Z</time>
      </trkpt>
      <trkpt lat="47.49525" lon="6.77359">
        <ele>312</ele>
        <time>2016-05-15T10:17:22.000Z</time>
      </trkpt>
      <trkpt lat="47.4953" lon="6.77361">
        <ele>312</ele>
        <time>2016-05-15T10:17:23.000Z</time>
      </trkpt>
      <trkpt lat="47.49534" lon="6.77361">
        <ele>312</ele>
        <time>2016-05-15T10:17:24.000Z</time>
      </trkpt>
      <trkpt lat="47.4954" lon="6.77364">
        <ele>312</ele>
        <time>2016-05-15T10:17:25.000Z</time>
      </trkpt>
      <trkpt lat="47.49544" lon="6.77366">
        <ele>312</ele>
        <time>2016-05-15T10:17:26.000Z</time>
      </trkpt>
      <trkpt lat="47.49549" lon="6.77365">
        <ele>312</ele>
        <time>2016-05-15T10:17:27.000Z</time>
      </trkpt>
      <trkpt lat="47.49553" lon="6.77365">
        <ele>312</ele>
        <time>2016-05-15T10:17:28.000Z</time>
      </trkpt>
      <trkpt lat="47.49558" lon="6.77363">
        <ele>312</ele>
        <time>2016-05-15T10:17:29.000Z</time>
      </trkpt>
      <trkpt lat="47.49563" lon="6.77364">
        <ele>312</ele>
        <time>2016-05-15T10:17:30.000Z</time>
      </trkpt>
      <trkpt lat="47.49567" lon="6.77363">
        <ele>312</ele>
        <time>2016-05-15T10:17:31.000Z</time>
      </trkpt>
      <trkpt lat="47.49572" lon="6.77364">
        <ele>313</ele>
        <time>2016-05-15T10:17:32.000Z</time>
      </trkpt>
      <trkpt lat="47.49577" lon="6.77365">
        <ele>313</ele>
        <time>2016-05-15T10:17:33.000Z</time>
      </trkpt>
      <trkpt lat="47.49582" lon="6.77365">
        <ele>313</ele>
        <time>2016-05-15T10:17:33.999Z</time>
      </trkpt>
      <trkpt lat="47.49587" lon="6.77364">
        <ele>313</ele>
        <time>2016-05-15T10:17:35.000Z</time>
      </trkpt>
      <trkpt lat="47.49592" lon="6.77363">
        <ele>313</ele>
        <time>2016-05-15T10:17:36.000Z</time>
      </trkpt>
      <trkpt lat="47.49598" lon="6.77363">
        <ele>313</ele>
        <time>2016-05-15T10:17:37.000Z</time>
      </trkpt>
      <trkpt lat="47.49603" lon="6.77361">
        <ele>313</ele>
        <time>2016-05-15T10:17:38.000Z</time>
      </trkpt>
      <trkpt lat="47.49608" lon="6.77359">
        <ele>313</ele>
        <time>2016-05-15T10:17:39.000Z</time>
      </trkpt>
      <trkpt lat="47.49611" lon="6.77356">
        <ele>313</ele>
        <time>2016-05-15T10:17:40.000Z</time>
      </trkpt>
      <trkpt lat="47.49616" lon="6.77354">
        <ele>313</ele>
        <time>2016-05-15T10:17:40.999Z</time>
      </trkpt>
      <trkpt lat="47.49621" lon="6.77354">
        <ele>313</ele>
        <time>2016-05-15T10:17:42.000Z</time>
      </trkpt>
      <trkpt lat="47.49626" lon="6.77353">
        <ele>313</ele>
        <time>2016-05-15T10:17:43.000Z</time>
      </trkpt>
      <trkpt lat="47.49631" lon="6.77351">
        <ele>313</ele>
        <time>2016-05-15T10:17:44.000Z</time>
      </trkpt>
      <trkpt lat="47.49637" lon="6.77351">
        <ele>313</ele>
        <time>2016-05-15T10:17:45.000Z</time>
      </trkpt>
      <trkpt lat="47.49641" lon="6.77352">
        <ele>313</ele>
        <time>2016-05-15T10:17:46.000Z</time>
      </trkpt>
      <trkpt lat="47.49646" lon="6.7735">
        <ele>313</ele>
        <time>2016-05-15T10:17:47.000Z</time>
      </trkpt>
      <trkpt lat="47.49651" lon="6.77349">
        <ele>313</ele>
        <time>2016-05-15T10:17:48.000Z</time>
      </trkpt>
      <trkpt lat="47.49656" lon="6.77348">
        <ele>313</ele>
        <time>2016-05-15T10:17:48.999Z</time>
      </trkpt>
      <trkpt lat="47.4966" lon="6.77346">
        <ele>313</ele>
        <time>2016-05-15T10:17:50.000Z</time>
      </trkpt>
      <trkpt lat="47.49664" lon="6.77345">
        <ele>313</ele>
        <time>2016-05-15T10:17:51.000Z</time>
      </trkpt>
      <trkpt lat="47.49668" lon="6.77344">
        <ele>313</ele>
        <time>2016-05-15T10:17:52.000Z</time>
      </trkpt>
      <trkpt lat="47.49674" lon="6.77343">
        <ele>313</ele>
        <time>2016-05-15T10:17:52.999Z</time>
      </trkpt>
      <trkpt lat="47.49678" lon="6.77341">
        <ele>313</ele>
        <time>2016-05-15T10:17:54.000Z</time>
      </trkpt>
      <trkpt lat="47.49683" lon="6.77338">
        <ele>313</ele>
        <time>2016-05-15T10:17:55.000Z</time>
      </trkpt>
      <trkpt lat="47.49688" lon="6.77336">
        <ele>313</ele>
        <time>2016-05-15T10:17:56.000Z</time>
      </trkpt>
      <trkpt lat="47.49693" lon="6.77333">
        <ele>315</ele>
        <time>2016-05-15T10:17:57.000Z</time>
      </trkpt>
      <trkpt lat="47.49698" lon="6.7733">
        <ele>315</ele>
        <time>2016-05-15T10:17:58.000Z</time>
      </trkpt>
      <trkpt lat="47.49703" lon="6.77327">
        <ele>315</ele>
        <time>2016-05-15T10:17:59.000Z</time>
      </trkpt>
      <trkpt lat="47.49707" lon="6.77329">
        <ele>315</ele>
        <time>2016-05-15T10:18:00.000Z</time>
      </trkpt>
      <trkpt lat="47.49711" lon="6.77329">
        <ele>315</ele>
        <time>2016-05-15T10:18:01.000Z</time>
      </trkpt>
      <trkpt lat="47.49716" lon="6.77325">
        <ele>315</ele>
        <time>2016-05-15T10:18:02.000Z</time>
      </trkpt>
      <trkpt lat="47.49719" lon="6.77324">
        <ele>315</ele>
        <time>2016-05-15T10:18:03.000Z</time>
      </trkpt>
      <trkpt lat="47.49723" lon="6.77323">
        <ele>315</ele>
        <time>2016-05-15T10:18:04.000Z</time>
      </trkpt>
      <trkpt lat="47.49728" lon="6.77321">
        <ele>314</ele>
        <time>2016-05-15T10:18:05.000Z</time>
      </trkpt>
      <trkpt lat="47.49731" lon="6.77322">
        <ele>314</ele>
        <time>2016-05-15T10:18:06.000Z</time>
      </trkpt>
      <trkpt lat="47.49734" lon="6.77321">
        <ele>314</ele>
        <time>2016-05-15T10:18:07.000Z</time>
      </trkpt>
      <trkpt lat="47.49737" lon="6.7732">
        <ele>314</ele>
        <time>2016-05-15T10:18:08.000Z</time>
      </trkpt>
      <trkpt lat="47.49739" lon="6.77319">
        <ele>314</ele>
        <time>2016-05-15T10:18:09.000Z</time>
      </trkpt>
      <trkpt lat="47.49743" lon="6.77319">
        <ele>314</ele>
        <time>2016-05-15T10:18:12.000Z</time>
      </trkpt>
      <trkpt lat="47.49745" lon="6.77318">
        <ele>314</ele>
        <time>2016-05-15T10:18:13.000Z</time>
      </trkpt>
      <trkpt lat="47.49747" lon="6.77317">
        <ele>314</ele>
        <time>2016-05-15T10:18:14.000Z</time>
      </trkpt>
      <trkpt lat="47.4975" lon="6.77316">
        <ele>314</ele>
        <time>2016-05-15T10:18:15.000Z</time>
      </trkpt>
      <trkpt lat="47.49752" lon="6.77314">
        <ele>315</ele>
        <time>2016-05-15T10:18:16.000Z</time>
      </trkpt>
      <trkpt lat="47.49758" lon="6.77317">
        <ele>315</ele>
        <time>2016-05-15T10:18:17.000Z</time>
      </trkpt>
      <trkpt lat="47.49762" lon="6.77315">
        <ele>316</ele>
        <time>2016-05-15T10:18:18.000Z</time>
      </trkpt>
      <trkpt lat="47.49766" lon="6.77313">
        <ele>316</ele>
        <time>2016-05-15T10:18:19.000Z</time>
      </trkpt>
      <trkpt lat="47.4977" lon="6.77312">
        <ele>316</ele>
        <time>2016-05-15T10:18:20.000Z</time>
      </trkpt>
      <trkpt lat="47.49777" lon="6.77313">
        <ele>316</ele>
        <time>2016-05-15T10:18:21.000Z</time>
      </trkpt>
      <trkpt lat="47.49782" lon="6.77312">
        <ele>316</ele>
        <time>2016-05-15T10:18:22.000Z</time>
      </trkpt>
      <trkpt lat="47.49787" lon="6.77308">
        <ele>317</ele>
        <time>2016-05-15T10:18:23.000Z</time>
      </trkpt>
      <trkpt lat="47.49793" lon="6.77306">
        <ele>317</ele>
        <time>2016-05-15T10:18:24.000Z</time>
      </trkpt>
      <trkpt lat="47.498" lon="6.77306">
        <ele>317</ele>
        <time>2016-05-15T10:18:25.000Z</time>
      </trkpt>
      <trkpt lat="47.49802" lon="6.77304">
        <ele>317</ele>
        <time>2016-05-15T10:18:26.000Z</time>
      </trkpt>
      <trkpt lat="47.49806" lon="6.77302">
        <ele>317</ele>
        <time>2016-05-15T10:18:26.999Z</time>
      </trkpt>
      <trkpt lat="47.49811" lon="6.77305">
        <ele>317</ele>
        <time>2016-05-15T10:18:28.000Z</time>
      </trkpt>
      <trkpt lat="47.49816" lon="6.77306">
        <ele>317</ele>
        <time>2016-05-15T10:18:29.000Z</time>
      </trkpt>
      <trkpt lat="47.49821" lon="6.77307">
        <ele>317</ele>
        <time>2016-05-15T10:18:30.000Z</time>
      </trkpt>
      <trkpt lat="47.49825" lon="6.77307">
        <ele>317</ele>
        <time>2016-05-15T10:18:30.999Z</time>
      </trkpt>
      <trkpt lat="47.49831" lon="6.77308">
        <ele>317</ele>
        <time>2016-05-15T10:18:32.000Z</time>
      </trkpt>
      <trkpt lat="47.49836" lon="6.77309">
        <ele>317</ele>
        <time>2016-05-15T10:18:33.000Z</time>
      </trkpt>
      <trkpt lat="47.4984" lon="6.77308">
        <ele>317</ele>
        <time>2016-05-15T10:18:34.000Z</time>
      </trkpt>
      <trkpt lat="47.49845" lon="6.7731">
        <ele>317</ele>
        <time>2016-05-15T10:18:35.000Z</time>
      </trkpt>
      <trkpt lat="47.49851" lon="6.77307">
        <ele>318</ele>
        <time>2016-05-15T10:18:36.000Z</time>
      </trkpt>
      <trkpt lat="47.49857" lon="6.77307">
        <ele>318</ele>
        <time>2016-05-15T10:18:37.000Z</time>
      </trkpt>
      <trkpt lat="47.49861" lon="6.77306">
        <ele>318</ele>
        <time>2016-05-15T10:18:38.000Z</time>
      </trkpt>
      <trkpt lat="47.49866" lon="6.77306">
        <ele>318</ele>
        <time>2016-05-15T10:18:39.000Z</time>
      </trkpt>
      <trkpt lat="47.4987" lon="6.77306">
        <ele>318</ele>
        <time>2016-05-15T10:18:40.000Z</time>
      </trkpt>
      <trkpt lat="47.49874" lon="6.77307">
        <ele>318</ele>
        <time>2016-05-15T10:18:41.000Z</time>
      </trkpt>
      <trkpt lat="47.49879" lon="6.77307">
        <ele>318</ele>
        <time>2016-05-15T10:18:42.000Z</time>
      </trkpt>
      <trkpt lat="47.49884" lon="6.77307">
        <ele>318</ele>
        <time>2016-05-15T10:18:43.000Z</time>
      </trkpt>
      <trkpt lat="47.4989" lon="6.77307">
        <ele>317</ele>
        <time>2016-05-15T10:18:44.000Z</time>
      </trkpt>
      <trkpt lat="47.49894" lon="6.77305">
        <ele>317</ele>
        <time>2016-05-15T10:18:45.000Z</time>
      </trkpt>
      <trkpt lat="47.49898" lon="6.77304">
        <ele>317</ele>
        <time>2016-05-15T10:18:45.999Z</time>
      </trkpt>
      <trkpt lat="47.49903" lon="6.77301">
        <ele>318</ele>
        <time>2016-05-15T10:18:47.000Z</time>
      </trkpt>
      <trkpt lat="47.49907" lon="6.773">
        <ele>318</ele>
        <time>2016-05-15T10:18:47.998Z</time>
      </trkpt>
      <trkpt lat="47.49912" lon="6.77296">
        <ele>318</ele>
        <time>2016-05-15T10:18:49.000Z</time>
      </trkpt>
      <trkpt lat="47.49915" lon="6.77293">
        <ele>318</ele>
        <time>2016-05-15T10:18:50.000Z</time>
      </trkpt>
      <trkpt lat="47.49918" lon="6.7729">
        <ele>317</ele>
        <time>2016-05-15T10:18:51.000Z</time>
      </trkpt>
      <trkpt lat="47.49922" lon="6.77289">
        <ele>317</ele>
        <time>2016-05-15T10:18:52.000Z</time>
      </trkpt>
      <trkpt lat="47.49927" lon="6.77285">
        <ele>317</ele>
        <time>2016-05-15T10:18:53.000Z</time>
      </trkpt>
      <trkpt lat="47.49932" lon="6.77283">
        <ele>317</ele>
        <time>2016-05-15T10:18:54.000Z</time>
      </trkpt>
      <trkpt lat="47.49937" lon="6.7728">
        <ele>317</ele>
        <time>2016-05-15T10:18:55.000Z</time>
      </trkpt>
      <trkpt lat="47.49941" lon="6.77276">
        <ele>318</ele>
        <time>2016-05-15T10:18:56.000Z</time>
      </trkpt>
      <trkpt lat="47.49946" lon="6.77274">
        <ele>317</ele>
        <time>2016-05-15T10:18:57.000Z</time>
      </trkpt>
      <trkpt lat="47.49951" lon="6.77272">
        <ele>317</ele>
        <time>2016-05-15T10:18:58.000Z</time>
      </trkpt>
      <trkpt lat="47.49955" lon="6.77269">
        <ele>317</ele>
        <time>2016-05-15T10:18:59.000Z</time>
      </trkpt>
      <trkpt lat="47.4996" lon="6.77266">
        <ele>317</ele>
        <time>2016-05-15T10:19:00.000Z</time>
      </trkpt>
      <trkpt lat="47.49964" lon="6.77264">
        <ele>317</ele>
        <time>2016-05-15T10:19:01.000Z</time>
      </trkpt>
      <trkpt lat="47.49969" lon="6.7726">
        <ele>317</ele>
        <time>2016-05-15T10:19:02.000Z</time>
      </trkpt>
      <trkpt lat="47.49973" lon="6.77258">
        <ele>317</ele>
        <time>2016-05-15T10:19:03.000Z</time>
      </trkpt>
      <trkpt lat="47.49978" lon="6.77255">
        <ele>316</ele>
        <time>2016-05-15T10:19:04.000Z</time>
      </trkpt>
      <trkpt lat="47.49982" lon="6.77253">
        <ele>316</ele>
        <time>2016-05-15T10:19:05.000Z</time>
      </trkpt>
      <trkpt lat="47.49987" lon="6.7725">
        <ele>316</ele>
        <time>2016-05-15T10:19:06.000Z</time>
      </trkpt>
      <trkpt lat="47.49992" lon="6.77249">
        <ele>321</ele>
        <time>2016-05-15T10:19:07.000Z</time>
      </trkpt>
      <trkpt lat="47.49996" lon="6.77247">
        <ele>320</ele>
        <time>2016-05-15T10:19:08.000Z</time>
      </trkpt>
      <trkpt lat="47.5" lon="6.77245">
        <ele>320</ele>
        <time>2016-05-15T10:19:09.000Z</time>
      </trkpt>
      <trkpt lat="47.50004" lon="6.77243">
        <ele>320</ele>
        <time>2016-05-15T10:19:10.000Z</time>
      </trkpt>
      <trkpt lat="47.50007" lon="6.77242">
        <ele>321</ele>
        <time>2016-05-15T10:19:11.000Z</time>
      </trkpt>
      <trkpt lat="47.50009" lon="6.7724">
        <ele>322</ele>
        <time>2016-05-15T10:19:12.000Z</time>
      </trkpt>
      <trkpt lat="47.50012" lon="6.7724">
        <ele>323</ele>
        <time>2016-05-15T10:19:14.000Z</time>
      </trkpt>
      <trkpt lat="47.50013" lon="6.7724">
        <ele>323</ele>
        <time>2016-05-15T10:19:15.000Z</time>
      </trkpt>
      <trkpt lat="47.50016" lon="6.77237">
        <ele>324</ele>
        <time>2016-05-15T10:19:19.000Z</time>
      </trkpt>
      <trkpt lat="47.50017" lon="6.77235">
        <ele>324</ele>
        <time>2016-05-15T10:19:20.000Z</time>
      </trkpt>
      <trkpt lat="47.50019" lon="6.77233">
        <ele>325</ele>
        <time>2016-05-15T10:19:21.000Z</time>
      </trkpt>
      <trkpt lat="47.50022" lon="6.77231">
        <ele>326</ele>
        <time>2016-05-15T10:19:22.000Z</time>
      </trkpt>
      <trkpt lat="47.50025" lon="6.7723">
        <ele>326</ele>
        <time>2016-05-15T10:19:23.000Z</time>
      </trkpt>
      <trkpt lat="47.50029" lon="6.77229">
        <ele>326</ele>
        <time>2016-05-15T10:19:24.000Z</time>
      </trkpt>
      <trkpt lat="47.50033" lon="6.77228">
        <ele>327</ele>
        <time>2016-05-15T10:19:25.000Z</time>
      </trkpt>
      <trkpt lat="47.50037" lon="6.77226">
        <ele>327</ele>
        <time>2016-05-15T10:19:26.000Z</time>
      </trkpt>
      <trkpt lat="47.50041" lon="6.77224">
        <ele>327</ele>
        <time>2016-05-15T10:19:27.000Z</time>
      </trkpt>
      <trkpt lat="47.50045" lon="6.77223">
        <ele>327</ele>
        <time>2016-05-15T10:19:28.000Z</time>
      </trkpt>
      <trkpt lat="47.50049" lon="6.77221">
        <ele>328</ele>
        <time>2016-05-15T10:19:29.000Z</time>
      </trkpt>
      <trkpt lat="47.50053" lon="6.77219">
        <ele>328</ele>
        <time>2016-05-15T10:19:30.000Z</time>
      </trkpt>
      <trkpt lat="47.50057" lon="6.77218">
        <ele>328</ele>
        <time>2016-05-15T10:19:31.000Z</time>
      </trkpt>
      <trkpt lat="47.50061" lon="6.77217">
        <ele>328</ele>
        <time>2016-05-15T10:19:32.000Z</time>
      </trkpt>
      <trkpt lat="47.50065" lon="6.77216">
        <ele>328</ele>
        <time>2016-05-15T10:19:33.000Z</time>
      </trkpt>
      <trkpt lat="47.50069" lon="6.77215">
        <ele>328</ele>
        <time>2016-05-15T10:19:34.000Z</time>
      </trkpt>
      <trkpt lat="47.50073" lon="6.77215">
        <ele>328</ele>
        <time>2016-05-15T10:19:35.000Z</time>
      </trkpt>
      <trkpt lat="47.50078" lon="6.77214">
        <ele>328</ele>
        <time>2016-05-15T10:19:36.000Z</time>
      </trkpt>
      <trkpt lat="47.50082" lon="6.77212">
        <ele>328</ele>
        <time>2016-05-15T10:19:37.000Z</time>
      </trkpt>
      <trkpt lat="47.50086" lon="6.7721">
        <ele>324</ele>
        <time>2016-05-15T10:19:38.000Z</time>
      </trkpt>
      <trkpt lat="47.5009" lon="6.77208">
        <ele>324</ele>
        <time>2016-05-15T10:19:39.000Z</time>
      </trkpt>
      <trkpt lat="47.50094" lon="6.77207">
        <ele>324</ele>
        <time>2016-05-15T10:19:40.000Z</time>
      </trkpt>
      <trkpt lat="47.50098" lon="6.77205">
        <ele>325</ele>
        <time>2016-05-15T10:19:41.000Z</time>
      </trkpt>
      <trkpt lat="47.50102" lon="6.77204">
        <ele>325</ele>
        <time>2016-05-15T10:19:42.000Z</time>
      </trkpt>
      <trkpt lat="47.50107" lon="6.77205">
        <ele>324</ele>
        <time>2016-05-15T10:19:43.000Z</time>
      </trkpt>
      <trkpt lat="47.50112" lon="6.77205">
        <ele>324</ele>
        <time>2016-05-15T10:19:44.000Z</time>
      </trkpt>
      <trkpt lat="47.50118" lon="6.77205">
        <ele>324</ele>
        <time>2016-05-15T10:19:45.000Z</time>
      </trkpt>
      <trkpt lat="47.50123" lon="6.77206">
        <ele>323</ele>
        <time>2016-05-15T10:19:46.000Z</time>
      </trkpt>
      <trkpt lat="47.50128" lon="6.77207">
        <ele>323</ele>
        <time>2016-05-15T10:19:47.000Z</time>
      </trkpt>
      <trkpt lat="47.50133" lon="6.77208">
        <ele>322</ele>
        <time>2016-05-15T10:19:48.000Z</time>
      </trkpt>
      <trkpt lat="47.50138" lon="6.77209">
        <ele>322</ele>
        <time>2016-05-15T10:19:49.000Z</time>
      </trkpt>
      <trkpt lat="47.50143" lon="6.7721">
        <ele>322</ele>
        <time>2016-05-15T10:19:50.000Z</time>
      </trkpt>
      <trkpt lat="47.50147" lon="6.77213">
        <ele>321</ele>
        <time>2016-05-15T10:19:51.000Z</time>
      </trkpt>
      <trkpt lat="47.50152" lon="6.77217">
        <ele>321</ele>
        <time>2016-05-15T10:19:52.000Z</time>
      </trkpt>
      <trkpt lat="47.50156" lon="6.77221">
        <ele>320</ele>
        <time>2016-05-15T10:19:53.000Z</time>
      </trkpt>
      <trkpt lat="47.5016" lon="6.77224">
        <ele>319</ele>
        <time>2016-05-15T10:19:54.000Z</time>
      </trkpt>
      <trkpt lat="47.50165" lon="6.77228">
        <ele>319</ele>
        <time>2016-05-15T10:19:55.000Z</time>
      </trkpt>
      <trkpt lat="47.5017" lon="6.77231">
        <ele>316</ele>
        <time>2016-05-15T10:19:56.000Z</time>
      </trkpt>
      <trkpt lat="47.50174" lon="6.77234">
        <ele>315</ele>
        <time>2016-05-15T10:19:57.000Z</time>
      </trkpt>
      <trkpt lat="47.50178" lon="6.77237">
        <ele>315</ele>
        <time>2016-05-15T10:19:58.000Z</time>
      </trkpt>
      <trkpt lat="47.50182" lon="6.77241">
        <ele>315</ele>
        <time>2016-05-15T10:19:59.000Z</time>
      </trkpt>
      <trkpt lat="47.50186" lon="6.77245">
        <ele>315</ele>
        <time>2016-05-15T10:20:00.000Z</time>
      </trkpt>
      <trkpt lat="47.5019" lon="6.77249">
        <ele>315</ele>
        <time>2016-05-15T10:20:01.000Z</time>
      </trkpt>
      <trkpt lat="47.50194" lon="6.77252">
        <ele>313</ele>
        <time>2016-05-15T10:20:02.000Z</time>
      </trkpt>
      <trkpt lat="47.50198" lon="6.77255">
        <ele>313</ele>
        <time>2016-05-15T10:20:03.000Z</time>
      </trkpt>
      <trkpt lat="47.50202" lon="6.77259">
        <ele>313</ele>
        <time>2016-05-15T10:20:04.000Z</time>
      </trkpt>
      <trkpt lat="47.50206" lon="6.77261">
        <ele>313</ele>
        <time>2016-05-15T10:20:05.000Z</time>
      </trkpt>
      <trkpt lat="47.5021" lon="6.77265">
        <ele>313</ele>
        <time>2016-05-15T10:20:06.000Z</time>
      </trkpt>
      <trkpt lat="47.50214" lon="6.77268">
        <ele>313</ele>
        <time>2016-05-15T10:20:07.000Z</time>
      </trkpt>
      <trkpt lat="47.50218" lon="6.77271">
        <ele>313</ele>
        <time>2016-05-15T10:20:08.000Z</time>
      </trkpt>
      <trkpt lat="47.50221" lon="6.77274">
        <ele>313</ele>
        <time>2016-05-15T10:20:09.000Z</time>
      </trkpt>
      <trkpt lat="47.50225" lon="6.77276">
        <ele>313</ele>
        <time>2016-05-15T10:20:10.000Z</time>
      </trkpt>
      <trkpt lat="47.50229" lon="6.77279">
        <ele>313</ele>
        <time>2016-05-15T10:20:11.000Z</time>
      </trkpt>
      <trkpt lat="47.50232" lon="6.77281">
        <ele>313</ele>
        <time>2016-05-15T10:20:12.000Z</time>
      </trkpt>
      <trkpt lat="47.50236" lon="6.77284">
        <ele>313</ele>
        <time>2016-05-15T10:20:13.000Z</time>
      </trkpt>
      <trkpt lat="47.5024" lon="6.77286">
        <ele>313</ele>
        <time>2016-05-15T10:20:14.000Z</time>
      </trkpt>
      <trkpt lat="47.50244" lon="6.77288">
        <ele>313</ele>
        <time>2016-05-15T10:20:15.000Z</time>
      </trkpt>
      <trkpt lat="47.50248" lon="6.77291">
        <ele>313</ele>
        <time>2016-05-15T10:20:16.000Z</time>
      </trkpt>
      <trkpt lat="47.50252" lon="6.77293">
        <ele>313</ele>
        <time>2016-05-15T10:20:17.000Z</time>
      </trkpt>
      <trkpt lat="47.50256" lon="6.77296">
        <ele>313</ele>
        <time>2016-05-15T10:20:18.000Z</time>
      </trkpt>
      <trkpt lat="47.5026" lon="6.77298">
        <ele>313</ele>
        <time>2016-05-15T10:20:19.000Z</time>
      </trkpt>
      <trkpt lat="47.50264" lon="6.77301">
        <ele>313</ele>
        <time>2016-05-15T10:20:20.000Z</time>
      </trkpt>
      <trkpt lat="47.50268" lon="6.77304">
        <ele>313</ele>
        <time>2016-05-15T10:20:21.000Z</time>
      </trkpt>
      <trkpt lat="47.50272" lon="6.77308">
        <ele>313</ele>
        <time>2016-05-15T10:20:22.000Z</time>
      </trkpt>
      <trkpt lat="47.50276" lon="6.7731">
        <ele>313</ele>
        <time>2016-05-15T10:20:23.000Z</time>
      </trkpt>
      <trkpt lat="47.5028" lon="6.77312">
        <ele>313</ele>
        <time>2016-05-15T10:20:24.000Z</time>
      </trkpt>
      <trkpt lat="47.50284" lon="6.77315">
        <ele>313</ele>
        <time>2016-05-15T10:20:25.001Z</time>
      </trkpt>
      <trkpt lat="47.50288" lon="6.77318">
        <ele>313</ele>
        <time>2016-05-15T10:20:26.000Z</time>
      </trkpt>
      <trkpt lat="47.50292" lon="6.77321">
        <ele>313</ele>
        <time>2016-05-15T10:20:27.000Z</time>
      </trkpt>
      <trkpt lat="47.50296" lon="6.77325">
        <ele>312</ele>
        <time>2016-05-15T10:20:28.000Z</time>
      </trkpt>
      <trkpt lat="47.503" lon="6.77328">
        <ele>312</ele>
        <time>2016-05-15T10:20:29.000Z</time>
      </trkpt>
      <trkpt lat="47.50303" lon="6.77332">
        <ele>312</ele>
        <time>2016-05-15T10:20:30.000Z</time>
      </trkpt>
      <trkpt lat="47.50308" lon="6.77335">
        <ele>312</ele>
        <time>2016-05-15T10:20:31.000Z</time>
      </trkpt>
      <trkpt lat="47.50312" lon="6.77338">
        <ele>312</ele>
        <time>2016-05-15T10:20:32.000Z</time>
      </trkpt>
      <trkpt lat="47.50316" lon="6.77342">
        <ele>312</ele>
        <time>2016-05-15T10:20:33.000Z</time>
      </trkpt>
      <trkpt lat="47.50321" lon="6.77345">
        <ele>312</ele>
        <time>2016-05-15T10:20:34.000Z</time>
      </trkpt>
      <trkpt lat="47.50326" lon="6.77348">
        <ele>312</ele>
        <time>2016-05-15T10:20:35.000Z</time>
      </trkpt>
      <trkpt lat="47.5033" lon="6.77351">
        <ele>312</ele>
        <time>2016-05-15T10:20:36.000Z</time>
      </trkpt>
      <trkpt lat="47.50334" lon="6.77355">
        <ele>312</ele>
        <time>2016-05-15T10:20:37.000Z</time>
      </trkpt>
      <trkpt lat="47.50338" lon="6.77358">
        <ele>312</ele>
        <time>2016-05-15T10:20:38.000Z</time>
      </trkpt>
      <trkpt lat="47.50343" lon="6.77361">
        <ele>312</ele>
        <time>2016-05-15T10:20:39.000Z</time>
      </trkpt>
      <trkpt lat="47.50347" lon="6.77364">
        <ele>312</ele>
        <time>2016-05-15T10:20:40.000Z</time>
      </trkpt>
      <trkpt lat="47.50351" lon="6.77367">
        <ele>312</ele>
        <time>2016-05-15T10:20:41.000Z</time>
      </trkpt>
      <trkpt lat="47.50355" lon="6.77369">
        <ele>312</ele>
        <time>2016-05-15T10:20:42.000Z</time>
      </trkpt>
      <trkpt lat="47.5036" lon="6.77373">
        <ele>312</ele>
        <time>2016-05-15T10:20:43.000Z</time>
      </trkpt>
      <trkpt lat="47.50364" lon="6.77376">
        <ele>312</ele>
        <time>2016-05-15T10:20:44.000Z</time>
      </trkpt>
      <trkpt lat="47.50368" lon="6.77379">
        <ele>312</ele>
        <time>2016-05-15T10:20:45.000Z</time>
      </trkpt>
      <trkpt lat="47.50373" lon="6.77382">
        <ele>312</ele>
        <time>2016-05-15T10:20:46.000Z</time>
      </trkpt>
      <trkpt lat="47.50377" lon="6.77386">
        <ele>312</ele>
        <time>2016-05-15T10:20:47.000Z</time>
      </trkpt>
      <trkpt lat="47.50381" lon="6.7739">
        <ele>312</ele>
        <time>2016-05-15T10:20:48.000Z</time>
      </trkpt>
      <trkpt lat="47.50386" lon="6.77394">
        <ele>312</ele>
        <time>2016-05-15T10:20:49.000Z</time>
      </trkpt>
      <trkpt lat="47.5039" lon="6.77397">
        <ele>312</ele>
        <time>2016-05-15T10:20:50.000Z</time>
      </trkpt>
      <trkpt lat="47.50394" lon="6.77401">
        <ele>312</ele>
        <time>2016-05-15T10:20:51.000Z</time>
      </trkpt>
      <trkpt lat="47.50398" lon="6.77403">
        <ele>312</ele>
        <time>2016-05-15T10:20:52.000Z</time>
      </trkpt>
      <trkpt lat="47.50402" lon="6.77407">
        <ele>312</ele>
        <time>2016-05-15T10:20:52.999Z</time>
      </trkpt>
      <trkpt lat="47.50407" lon="6.77411">
        <ele>311</ele>
        <time>2016-05-15T10:20:54.000Z</time>
      </trkpt>
      <trkpt lat="47.50411" lon="6.77415">
        <ele>311</ele>
        <time>2016-05-15T10:20:55.002Z</time>
      </trkpt>
      <trkpt lat="47.50415" lon="6.77418">
        <ele>311</ele>
        <time>2016-05-15T10:20:56.000Z</time>
      </trkpt>
      <trkpt lat="47.50419" lon="6.77422">
        <ele>311</ele>
        <time>2016-05-15T10:20:57.000Z</time>
      </trkpt>
      <trkpt lat="47.50423" lon="6.77425">
        <ele>311</ele>
        <time>2016-05-15T10:20:58.000Z</time>
      </trkpt>
      <trkpt lat="47.50427" lon="6.77428">
        <ele>312</ele>
        <time>2016-05-15T10:20:58.998Z</time>
      </trkpt>
      <trkpt lat="47.50431" lon="6.77432">
        <ele>312</ele>
        <time>2016-05-15T10:21:00.000Z</time>
      </trkpt>
      <trkpt lat="47.50434" lon="6.77436">
        <ele>312</ele>
        <time>2016-05-15T10:21:01.000Z</time>
      </trkpt>
      <trkpt lat="47.50438" lon="6.7744">
        <ele>312</ele>
        <time>2016-05-15T10:21:02.000Z</time>
      </trkpt>
      <trkpt lat="47.50442" lon="6.77444">
        <ele>312</ele>
        <time>2016-05-15T10:21:03.000Z</time>
      </trkpt>
      <trkpt lat="47.50446" lon="6.77447">
        <ele>312</ele>
        <time>2016-05-15T10:21:04.000Z</time>
      </trkpt>
      <trkpt lat="47.50451" lon="6.7745">
        <ele>312</ele>
        <time>2016-05-15T10:21:05.000Z</time>
      </trkpt>
      <trkpt lat="47.50454" lon="6.77453">
        <ele>312</ele>
        <time>2016-05-15T10:21:05.999Z</time>
      </trkpt>
      <trkpt lat="47.50458" lon="6.77457">
        <ele>312</ele>
        <time>2016-05-15T10:21:07.000Z</time>
      </trkpt>
      <trkpt lat="47.50461" lon="6.77461">
        <ele>313</ele>
        <time>2016-05-15T10:21:08.000Z</time>
      </trkpt>
      <trkpt lat="47.50465" lon="6.77464">
        <ele>313</ele>
        <time>2016-05-15T10:21:09.000Z</time>
      </trkpt>
      <trkpt lat="47.50469" lon="6.77468">
        <ele>313</ele>
        <time>2016-05-15T10:21:09.998Z</time>
      </trkpt>
      <trkpt lat="47.50473" lon="6.77471">
        <ele>313</ele>
        <time>2016-05-15T10:21:11.000Z</time>
      </trkpt>
      <trkpt lat="47.50477" lon="6.77475">
        <ele>313</ele>
        <time>2016-05-15T10:21:12.000Z</time>
      </trkpt>
      <trkpt lat="47.50481" lon="6.77478">
        <ele>313</ele>
        <time>2016-05-15T10:21:13.000Z</time>
      </trkpt>
      <trkpt lat="47.50484" lon="6.77481">
        <ele>313</ele>
        <time>2016-05-15T10:21:14.000Z</time>
      </trkpt>
      <trkpt lat="47.5049" lon="6.77485">
        <ele>313</ele>
        <time>2016-05-15T10:21:15.000Z</time>
      </trkpt>
      <trkpt lat="47.50495" lon="6.77487">
        <ele>313</ele>
        <time>2016-05-15T10:21:16.000Z</time>
      </trkpt>
      <trkpt lat="47.50499" lon="6.77491">
        <ele>314</ele>
        <time>2016-05-15T10:21:17.000Z</time>
      </trkpt>
      <trkpt lat="47.50503" lon="6.77495">
        <ele>314</ele>
        <time>2016-05-15T10:21:18.000Z</time>
      </trkpt>
      <trkpt lat="47.50507" lon="6.77498">
        <ele>314</ele>
        <time>2016-05-15T10:21:19.000Z</time>
      </trkpt>
      <trkpt lat="47.50511" lon="6.77502">
        <ele>314</ele>
        <time>2016-05-15T10:21:20.000Z</time>
      </trkpt>
      <trkpt lat="47.50516" lon="6.77505">
        <ele>314</ele>
        <time>2016-05-15T10:21:21.000Z</time>
      </trkpt>
      <trkpt lat="47.5052" lon="6.77507">
        <ele>314</ele>
        <time>2016-05-15T10:21:22.000Z</time>
      </trkpt>
      <trkpt lat="47.50524" lon="6.77509">
        <ele>314</ele>
        <time>2016-05-15T10:21:23.000Z</time>
      </trkpt>
      <trkpt lat="47.50528" lon="6.77512">
        <ele>314</ele>
        <time>2016-05-15T10:21:23.999Z</time>
      </trkpt>
      <trkpt lat="47.50532" lon="6.77515">
        <ele>313</ele>
        <time>2016-05-15T10:21:25.000Z</time>
      </trkpt>
      <trkpt lat="47.50536" lon="6.77517">
        <ele>313</ele>
        <time>2016-05-15T10:21:26.001Z</time>
      </trkpt>
      <trkpt lat="47.50539" lon="6.77518">
        <ele>313</ele>
        <time>2016-05-15T10:21:27.000Z</time>
      </trkpt>
      <trkpt lat="47.50543" lon="6.77519">
        <ele>313</ele>
        <time>2016-05-15T10:21:28.000Z</time>
      </trkpt>
      <trkpt lat="47.50545" lon="6.77524">
        <ele>313</ele>
        <time>2016-05-15T10:21:29.000Z</time>
      </trkpt>
      <trkpt lat="47.50548" lon="6.7753">
        <ele>313</ele>
        <time>2016-05-15T10:21:30.000Z</time>
      </trkpt>
      <trkpt lat="47.50551" lon="6.77535">
        <ele>313</ele>
        <time>2016-05-15T10:21:31.000Z</time>
      </trkpt>
      <trkpt lat="47.50552" lon="6.77541">
        <ele>313</ele>
        <time>2016-05-15T10:21:32.000Z</time>
      </trkpt>
      <trkpt lat="47.50553" lon="6.77547">
        <ele>313</ele>
        <time>2016-05-15T10:21:33.000Z</time>
      </trkpt>
      <trkpt lat="47.50557" lon="6.77552">
        <ele>313</ele>
        <time>2016-05-15T10:21:34.000Z</time>
      </trkpt>
      <trkpt lat="47.50561" lon="6.77557">
        <ele>313</ele>
        <time>2016-05-15T10:21:34.999Z</time>
      </trkpt>
      <trkpt lat="47.50566" lon="6.77558">
        <ele>313</ele>
        <time>2016-05-15T10:21:36.000Z</time>
      </trkpt>
      <trkpt lat="47.5057" lon="6.77559">
        <ele>313</ele>
        <time>2016-05-15T10:21:37.000Z</time>
      </trkpt>
      <trkpt lat="47.50575" lon="6.77557">
        <ele>313</ele>
        <time>2016-05-15T10:21:38.000Z</time>
      </trkpt>
      <trkpt lat="47.50579" lon="6.77553">
        <ele>313</ele>
        <time>2016-05-15T10:21:39.000Z</time>
      </trkpt>
      <trkpt lat="47.50582" lon="6.77548">
        <ele>313</ele>
        <time>2016-05-15T10:21:40.000Z</time>
      </trkpt>
      <trkpt lat="47.50584" lon="6.77545">
        <ele>313</ele>
        <time>2016-05-15T10:21:41.000Z</time>
      </trkpt>
      <trkpt lat="47.50586" lon="6.77543">
        <ele>313</ele>
        <time>2016-05-15T10:21:42.000Z</time>
      </trkpt>
      <trkpt lat="47.50589" lon="6.77541">
        <ele>313</ele>
        <time>2016-05-15T10:21:43.000Z</time>
      </trkpt>
      <trkpt lat="47.5059" lon="6.77539">
        <ele>313</ele>
        <time>2016-05-15T10:21:44.000Z</time>
      </trkpt>
      <trkpt lat="47.50594" lon="6.77536">
        <ele>313</ele>
        <time>2016-05-15T10:21:46.000Z</time>
      </trkpt>
      <trkpt lat="47.50598" lon="6.77537">
        <ele>313</ele>
        <time>2016-05-15T10:21:47.000Z</time>
      </trkpt>
      <trkpt lat="47.50602" lon="6.77535">
        <ele>313</ele>
        <time>2016-05-15T10:21:49.001Z</time>
      </trkpt>
      <trkpt lat="47.50607" lon="6.77535">
        <ele>313</ele>
        <time>2016-05-15T10:21:50.000Z</time>
      </trkpt>
      <trkpt lat="47.5061" lon="6.77536">
        <ele>313</ele>
        <time>2016-05-15T10:21:51.000Z</time>
      </trkpt>
      <trkpt lat="47.50613" lon="6.77537">
        <ele>313</ele>
        <time>2016-05-15T10:21:52.000Z</time>
      </trkpt>
      <trkpt lat="47.50617" lon="6.77538">
        <ele>313</ele>
        <time>2016-05-15T10:21:53.000Z</time>
      </trkpt>
      <trkpt lat="47.50622" lon="6.77539">
        <ele>313</ele>
        <time>2016-05-15T10:21:54.000Z</time>
      </trkpt>
      <trkpt lat="47.50627" lon="6.77539">
        <ele>313</ele>
        <time>2016-05-15T10:21:55.000Z</time>
      </trkpt>
      <trkpt lat="47.50632" lon="6.7754">
        <ele>313</ele>
        <time>2016-05-15T10:21:56.000Z</time>
      </trkpt>
      <trkpt lat="47.50637" lon="6.7754">
        <ele>313</ele>
        <time>2016-05-15T10:21:57.000Z</time>
      </trkpt>
      <trkpt lat="47.50642" lon="6.7754">
        <ele>313</ele>
        <time>2016-05-15T10:21:58.000Z</time>
      </trkpt>
      <trkpt lat="47.50647" lon="6.7754">
        <ele>313</ele>
        <time>2016-05-15T10:21:59.000Z</time>
      </trkpt>
      <trkpt lat="47.50652" lon="6.7754">
        <ele>313</ele>
        <time>2016-05-15T10:22:00.000Z</time>
      </trkpt>
      <trkpt lat="47.50656" lon="6.7754">
        <ele>313</ele>
        <time>2016-05-15T10:22:01.000Z</time>
      </trkpt>
      <trkpt lat="47.5066" lon="6.77539">
        <ele>313</ele>
        <time>2016-05-15T10:22:02.000Z</time>
      </trkpt>
      <trkpt lat="47.50663" lon="6.77538">
        <ele>313</ele>
        <time>2016-05-15T10:22:03.000Z</time>
      </trkpt>
      <trkpt lat="47.50667" lon="6.77538">
        <ele>313</ele>
        <time>2016-05-15T10:22:04.000Z</time>
      </trkpt>
      <trkpt lat="47.5067" lon="6.77538">
        <ele>313</ele>
        <time>2016-05-15T10:22:05.000Z</time>
      </trkpt>
      <trkpt lat="47.50674" lon="6.77537">
        <ele>313</ele>
        <time>2016-05-15T10:22:06.000Z</time>
      </trkpt>
      <trkpt lat="47.50678" lon="6.77537">
        <ele>313</ele>
        <time>2016-05-15T10:22:07.000Z</time>
      </trkpt>
      <trkpt lat="47.50682" lon="6.77536">
        <ele>313</ele>
        <time>2016-05-15T10:22:08.000Z</time>
      </trkpt>
      <trkpt lat="47.50687" lon="6.77537">
        <ele>313</ele>
        <time>2016-05-15T10:22:09.000Z</time>
      </trkpt>
      <trkpt lat="47.50691" lon="6.77538">
        <ele>313</ele>
        <time>2016-05-15T10:22:10.000Z</time>
      </trkpt>
      <trkpt lat="47.50695" lon="6.77539">
        <ele>313</ele>
        <time>2016-05-15T10:22:11.000Z</time>
      </trkpt>
      <trkpt lat="47.50699" lon="6.7754">
        <ele>313</ele>
        <time>2016-05-15T10:22:12.000Z</time>
      </trkpt>
      <trkpt lat="47.50702" lon="6.7754">
        <ele>313</ele>
        <time>2016-05-15T10:22:13.000Z</time>
      </trkpt>
      <trkpt lat="47.50705" lon="6.77541">
        <ele>313</ele>
        <time>2016-05-15T10:22:14.000Z</time>
      </trkpt>
      <trkpt lat="47.50708" lon="6.77543">
        <ele>313</ele>
        <time>2016-05-15T10:22:15.000Z</time>
      </trkpt>
      <trkpt lat="47.50712" lon="6.77545">
        <ele>313</ele>
        <time>2016-05-15T10:22:16.000Z</time>
      </trkpt>
      <trkpt lat="47.50716" lon="6.77547">
        <ele>313</ele>
        <time>2016-05-15T10:22:17.000Z</time>
      </trkpt>
      <trkpt lat="47.5072" lon="6.7755">
        <ele>313</ele>
        <time>2016-05-15T10:22:18.000Z</time>
      </trkpt>
      <trkpt lat="47.50724" lon="6.77552">
        <ele>313</ele>
        <time>2016-05-15T10:22:19.000Z</time>
      </trkpt>
      <trkpt lat="47.50728" lon="6.77555">
        <ele>313</ele>
        <time>2016-05-15T10:22:20.000Z</time>
      </trkpt>
      <trkpt lat="47.50732" lon="6.77558">
        <ele>313</ele>
        <time>2016-05-15T10:22:21.000Z</time>
      </trkpt>
      <trkpt lat="47.50735" lon="6.77561">
        <ele>313</ele>
        <time>2016-05-15T10:22:22.000Z</time>
      </trkpt>
      <trkpt lat="47.50738" lon="6.77564">
        <ele>313</ele>
        <time>2016-05-15T10:22:23.000Z</time>
      </trkpt>
      <trkpt lat="47.50742" lon="6.77568">
        <ele>313</ele>
        <time>2016-05-15T10:22:24.000Z</time>
      </trkpt>
      <trkpt lat="47.50745" lon="6.77571">
        <ele>313</ele>
        <time>2016-05-15T10:22:25.000Z</time>
      </trkpt>
      <trkpt lat="47.50748" lon="6.77574">
        <ele>313</ele>
        <time>2016-05-15T10:22:26.000Z</time>
      </trkpt>
      <trkpt lat="47.50751" lon="6.77576">
        <ele>313</ele>
        <time>2016-05-15T10:22:27.000Z</time>
      </trkpt>
      <trkpt lat="47.50754" lon="6.77579">
        <ele>313</ele>
        <time>2016-05-15T10:22:28.000Z</time>
      </trkpt>
      <trkpt lat="47.50758" lon="6.77581">
        <ele>314</ele>
        <time>2016-05-15T10:22:29.000Z</time>
      </trkpt>
      <trkpt lat="47.50761" lon="6.77583">
        <ele>314</ele>
        <time>2016-05-15T10:22:30.000Z</time>
      </trkpt>
      <trkpt lat="47.50765" lon="6.77585">
        <ele>314</ele>
        <time>2016-05-15T10:22:31.000Z</time>
      </trkpt>
      <trkpt lat="47.50768" lon="6.77587">
        <ele>314</ele>
        <time>2016-05-15T10:22:32.000Z</time>
      </trkpt>
      <trkpt lat="47.50771" lon="6.77589">
        <ele>314</ele>
        <time>2016-05-15T10:22:33.000Z</time>
      </trkpt>
      <trkpt lat="47.50775" lon="6.77592">
        <ele>314</ele>
        <time>2016-05-15T10:22:34.000Z</time>
      </trkpt>
      <trkpt lat="47.50778" lon="6.77595">
        <ele>315</ele>
        <time>2016-05-15T10:22:35.000Z</time>
      </trkpt>
      <trkpt lat="47.50782" lon="6.77599">
        <ele>315</ele>
        <time>2016-05-15T10:22:36.000Z</time>
      </trkpt>
      <trkpt lat="47.50787" lon="6.77604">
        <ele>315</ele>
        <time>2016-05-15T10:22:37.000Z</time>
      </trkpt>
      <trkpt lat="47.50792" lon="6.77609">
        <ele>315</ele>
        <time>2016-05-15T10:22:38.000Z</time>
      </trkpt>
      <trkpt lat="47.50797" lon="6.77615">
        <ele>315</ele>
        <time>2016-05-15T10:22:39.000Z</time>
      </trkpt>
      <trkpt lat="47.50801" lon="6.77621">
        <ele>315</ele>
        <time>2016-05-15T10:22:40.000Z</time>
      </trkpt>
      <trkpt lat="47.50806" lon="6.77626">
        <ele>315</ele>
        <time>2016-05-15T10:22:41.000Z</time>
      </trkpt>
      <trkpt lat="47.50811" lon="6.77631">
        <ele>315</ele>
        <time>2016-05-15T10:22:42.000Z</time>
      </trkpt>
      <trkpt lat="47.50816" lon="6.77637">
        <ele>316</ele>
        <time>2016-05-15T10:22:43.000Z</time>
      </trkpt>
      <trkpt lat="47.50821" lon="6.77643">
        <ele>316</ele>
        <time>2016-05-15T10:22:44.000Z</time>
      </trkpt>
      <trkpt lat="47.50826" lon="6.77648">
        <ele>316</ele>
        <time>2016-05-15T10:22:45.000Z</time>
      </trkpt>
      <trkpt lat="47.5083" lon="6.77655">
        <ele>316</ele>
        <time>2016-05-15T10:22:46.000Z</time>
      </trkpt>
      <trkpt lat="47.50834" lon="6.77661">
        <ele>317</ele>
        <time>2016-05-15T10:22:47.000Z</time>
      </trkpt>
      <trkpt lat="47.50838" lon="6.77667">
        <ele>317</ele>
        <time>2016-05-15T10:22:48.000Z</time>
      </trkpt>
      <trkpt lat="47.50842" lon="6.77673">
        <ele>317</ele>
        <time>2016-05-15T10:22:49.000Z</time>
      </trkpt>
      <trkpt lat="47.50845" lon="6.77678">
        <ele>316</ele>
        <time>2016-05-15T10:22:50.000Z</time>
      </trkpt>
      <trkpt lat="47.50849" lon="6.77683">
        <ele>316</ele>
        <time>2016-05-15T10:22:51.000Z</time>
      </trkpt>
      <trkpt lat="47.50852" lon="6.77688">
        <ele>316</ele>
        <time>2016-05-15T10:22:52.000Z</time>
      </trkpt>
      <trkpt lat="47.50855" lon="6.77693">
        <ele>316</ele>
        <time>2016-05-15T10:22:53.000Z</time>
      </trkpt>
      <trkpt lat="47.50858" lon="6.77697">
        <ele>316</ele>
        <time>2016-05-15T10:22:54.000Z</time>
      </trkpt>
      <trkpt lat="47.50861" lon="6.77702">
        <ele>316</ele>
        <time>2016-05-15T10:22:55.000Z</time>
      </trkpt>
      <trkpt lat="47.50865" lon="6.77706">
        <ele>316</ele>
        <time>2016-05-15T10:22:56.000Z</time>
      </trkpt>
      <trkpt lat="47.5088" lon="6.77705">
        <ele>316</ele>
        <time>2016-05-15T10:22:57.000Z</time>
      </trkpt>
      <trkpt lat="47.50886" lon="6.77704">
        <ele>316</ele>
        <time>2016-05-15T10:22:58.000Z</time>
      </trkpt>
      <trkpt lat="47.50893" lon="6.77703">
        <ele>316</ele>
        <time>2016-05-15T10:22:59.000Z</time>
      </trkpt>
      <trkpt lat="47.50899" lon="6.77702">
        <ele>316</ele>
        <time>2016-05-15T10:23:00.000Z</time>
      </trkpt>
      <trkpt lat="47.50904" lon="6.77701">
        <ele>316</ele>
        <time>2016-05-15T10:23:01.000Z</time>
      </trkpt>
      <trkpt lat="47.5091" lon="6.77701">
        <ele>316</ele>
        <time>2016-05-15T10:23:02.000Z</time>
      </trkpt>
      <trkpt lat="47.50915" lon="6.77701">
        <ele>316</ele>
        <time>2016-05-15T10:23:03.000Z</time>
      </trkpt>
      <trkpt lat="47.50919" lon="6.77704">
        <ele>315</ele>
        <time>2016-05-15T10:23:04.000Z</time>
      </trkpt>
      <trkpt lat="47.50924" lon="6.77704">
        <ele>315</ele>
        <time>2016-05-15T10:23:05.000Z</time>
      </trkpt>
      <trkpt lat="47.50928" lon="6.77703">
        <ele>315</ele>
        <time>2016-05-15T10:23:06.000Z</time>
      </trkpt>
      <trkpt lat="47.50931" lon="6.77705">
        <ele>315</ele>
        <time>2016-05-15T10:23:07.000Z</time>
      </trkpt>
      <trkpt lat="47.50934" lon="6.77703">
        <ele>315</ele>
        <time>2016-05-15T10:23:09.000Z</time>
      </trkpt>
      <trkpt lat="47.50936" lon="6.77703">
        <ele>315</ele>
        <time>2016-05-15T10:23:10.000Z</time>
      </trkpt>
      <trkpt lat="47.50939" lon="6.77707">
        <ele>315</ele>
        <time>2016-05-15T10:23:17.000Z</time>
      </trkpt>
      <trkpt lat="47.5094" lon="6.77708">
        <ele>315</ele>
        <time>2016-05-15T10:23:18.000Z</time>
      </trkpt>
      <trkpt lat="47.50944" lon="6.77707">
        <ele>315</ele>
        <time>2016-05-15T10:23:20.000Z</time>
      </trkpt>
      <trkpt lat="47.50947" lon="6.77705">
        <ele>315</ele>
        <time>2016-05-15T10:23:21.000Z</time>
      </trkpt>
      <trkpt lat="47.50951" lon="6.77702">
        <ele>315</ele>
        <time>2016-05-15T10:23:22.000Z</time>
      </trkpt>
      <trkpt lat="47.50954" lon="6.77699">
        <ele>315</ele>
        <time>2016-05-15T10:23:23.000Z</time>
      </trkpt>
      <trkpt lat="47.50957" lon="6.77697">
        <ele>315</ele>
        <time>2016-05-15T10:23:24.000Z</time>
      </trkpt>
      <trkpt lat="47.5096" lon="6.77695">
        <ele>315</ele>
        <time>2016-05-15T10:23:25.000Z</time>
      </trkpt>
      <trkpt lat="47.50963" lon="6.77693">
        <ele>315</ele>
        <time>2016-05-15T10:23:26.000Z</time>
      </trkpt>
      <trkpt lat="47.50966" lon="6.77692">
        <ele>315</ele>
        <time>2016-05-15T10:23:27.000Z</time>
      </trkpt>
      <trkpt lat="47.50969" lon="6.77692">
        <ele>315</ele>
        <time>2016-05-15T10:23:28.000Z</time>
      </trkpt>
      <trkpt lat="47.50972" lon="6.77694">
        <ele>315</ele>
        <time>2016-05-15T10:23:29.000Z</time>
      </trkpt>
      <trkpt lat="47.50975" lon="6.77696">
        <ele>315</ele>
        <time>2016-05-15T10:23:30.000Z</time>
      </trkpt>
      <trkpt lat="47.50978" lon="6.77699">
        <ele>315</ele>
        <time>2016-05-15T10:23:31.000Z</time>
      </trkpt>
      <trkpt lat="47.50981" lon="6.77702">
        <ele>315</ele>
        <time>2016-05-15T10:23:32.000Z</time>
      </trkpt>
      <trkpt lat="47.50983" lon="6.77704">
        <ele>315</ele>
        <time>2016-05-15T10:23:33.000Z</time>
      </trkpt>
      <trkpt lat="47.50985" lon="6.77707">
        <ele>315</ele>
        <time>2016-05-15T10:23:34.000Z</time>
      </trkpt>
      <trkpt lat="47.50989" lon="6.77711">
        <ele>315</ele>
        <time>2016-05-15T10:23:35.000Z</time>
      </trkpt>
      <trkpt lat="47.50992" lon="6.77715">
        <ele>315</ele>
        <time>2016-05-15T10:23:36.000Z</time>
      </trkpt>
      <trkpt lat="47.50995" lon="6.77719">
        <ele>315</ele>
        <time>2016-05-15T10:23:37.000Z</time>
      </trkpt>
      <trkpt lat="47.50999" lon="6.77723">
        <ele>315</ele>
        <time>2016-05-15T10:23:38.000Z</time>
      </trkpt>
      <trkpt lat="47.51001" lon="6.77726">
        <ele>316</ele>
        <time>2016-05-15T10:23:39.000Z</time>
      </trkpt>
      <trkpt lat="47.51005" lon="6.77731">
        <ele>316</ele>
        <time>2016-05-15T10:23:40.000Z</time>
      </trkpt>
      <trkpt lat="47.51008" lon="6.77734">
        <ele>316</ele>
        <time>2016-05-15T10:23:41.000Z</time>
      </trkpt>
      <trkpt lat="47.5101" lon="6.77737">
        <ele>316</ele>
        <time>2016-05-15T10:23:42.000Z</time>
      </trkpt>
      <trkpt lat="47.51014" lon="6.77741">
        <ele>317</ele>
        <time>2016-05-15T10:23:44.000Z</time>
      </trkpt>
      <trkpt lat="47.51015" lon="6.77743">
        <ele>317</ele>
        <time>2016-05-15T10:23:45.000Z</time>
      </trkpt>
      <trkpt lat="47.51018" lon="6.77747">
        <ele>317</ele>
        <time>2016-05-15T10:23:47.000Z</time>
      </trkpt>
      <trkpt lat="47.51022" lon="6.7775">
        <ele>317</ele>
        <time>2016-05-15T10:23:48.000Z</time>
      </trkpt>
      <trkpt lat="47.51026" lon="6.77752">
        <ele>317</ele>
        <time>2016-05-15T10:23:49.000Z</time>
      </trkpt>
      <trkpt lat="47.5103" lon="6.77755">
        <ele>317</ele>
        <time>2016-05-15T10:23:50.000Z</time>
      </trkpt>
      <trkpt lat="47.51034" lon="6.77758">
        <ele>318</ele>
        <time>2016-05-15T10:23:51.000Z</time>
      </trkpt>
      <trkpt lat="47.51038" lon="6.77761">
        <ele>318</ele>
        <time>2016-05-15T10:23:52.000Z</time>
      </trkpt>
      <trkpt lat="47.51042" lon="6.77764">
        <ele>318</ele>
        <time>2016-05-15T10:23:53.000Z</time>
      </trkpt>
      <trkpt lat="47.51046" lon="6.77767">
        <ele>318</ele>
        <time>2016-05-15T10:23:54.000Z</time>
      </trkpt>
      <trkpt lat="47.5105" lon="6.77769">
        <ele>318</ele>
        <time>2016-05-15T10:23:55.000Z</time>
      </trkpt>
      <trkpt lat="47.51054" lon="6.77771">
        <ele>318</ele>
        <time>2016-05-15T10:23:56.000Z</time>
      </trkpt>
      <trkpt lat="47.51058" lon="6.77772">
        <ele>318</ele>
        <time>2016-05-15T10:23:57.000Z</time>
      </trkpt>
      <trkpt lat="47.51062" lon="6.77772">
        <ele>318</ele>
        <time>2016-05-15T10:23:58.000Z</time>
      </trkpt>
      <trkpt lat="47.51064" lon="6.77771">
        <ele>318</ele>
        <time>2016-05-15T10:23:59.000Z</time>
      </trkpt>
      <trkpt lat="47.51067" lon="6.7777">
        <ele>319</ele>
        <time>2016-05-15T10:24:00.000Z</time>
      </trkpt>
      <trkpt lat="47.51069" lon="6.77769">
        <ele>319</ele>
        <time>2016-05-15T10:24:01.000Z</time>
      </trkpt>
      <trkpt lat="47.51071" lon="6.77768">
        <ele>319</ele>
        <time>2016-05-15T10:24:02.000Z</time>
      </trkpt>
      <trkpt lat="47.51074" lon="6.77767">
        <ele>319</ele>
        <time>2016-05-15T10:24:03.000Z</time>
      </trkpt>
      <trkpt lat="47.51077" lon="6.77767">
        <ele>319</ele>
        <time>2016-05-15T10:24:04.000Z</time>
      </trkpt>
      <trkpt lat="47.51079" lon="6.77768">
        <ele>319</ele>
        <time>2016-05-15T10:24:05.000Z</time>
      </trkpt>
      <trkpt lat="47.51081" lon="6.77769">
        <ele>319</ele>
        <time>2016-05-15T10:24:06.000Z</time>
      </trkpt>
      <trkpt lat="47.51083" lon="6.77771">
        <ele>321</ele>
        <time>2016-05-15T10:24:07.000Z</time>
      </trkpt>
      <trkpt lat="47.51086" lon="6.77773">
        <ele>321</ele>
        <time>2016-05-15T10:24:08.000Z</time>
      </trkpt>
      <trkpt lat="47.51088" lon="6.77775">
        <ele>321</ele>
        <time>2016-05-15T10:24:09.000Z</time>
      </trkpt>
      <trkpt lat="47.51092" lon="6.77778">
        <ele>321</ele>
        <time>2016-05-15T10:24:10.000Z</time>
      </trkpt>
      <trkpt lat="47.51096" lon="6.77781">
        <ele>321</ele>
        <time>2016-05-15T10:24:11.000Z</time>
      </trkpt>
      <trkpt lat="47.51101" lon="6.77782">
        <ele>322</ele>
        <time>2016-05-15T10:24:12.000Z</time>
      </trkpt>
      <trkpt lat="47.51107" lon="6.77783">
        <ele>322</ele>
        <time>2016-05-15T10:24:13.000Z</time>
      </trkpt>
      <trkpt lat="47.51112" lon="6.77784">
        <ele>322</ele>
        <time>2016-05-15T10:24:14.000Z</time>
      </trkpt>
      <trkpt lat="47.51117" lon="6.77785">
        <ele>322</ele>
        <time>2016-05-15T10:24:15.000Z</time>
      </trkpt>
      <trkpt lat="47.51121" lon="6.77786">
        <ele>322</ele>
        <time>2016-05-15T10:24:16.000Z</time>
      </trkpt>
      <trkpt lat="47.51124" lon="6.77787">
        <ele>322</ele>
        <time>2016-05-15T10:24:17.000Z</time>
      </trkpt>
      <trkpt lat="47.51127" lon="6.77788">
        <ele>322</ele>
        <time>2016-05-15T10:24:18.000Z</time>
      </trkpt>
      <trkpt lat="47.5113" lon="6.77789">
        <ele>322</ele>
        <time>2016-05-15T10:24:19.000Z</time>
      </trkpt>
      <trkpt lat="47.51133" lon="6.7779">
        <ele>322</ele>
        <time>2016-05-15T10:24:20.000Z</time>
      </trkpt>
      <trkpt lat="47.51136" lon="6.77791">
        <ele>323</ele>
        <time>2016-05-15T10:24:21.000Z</time>
      </trkpt>
      <trkpt lat="47.5114" lon="6.77791">
        <ele>323</ele>
        <time>2016-05-15T10:24:22.000Z</time>
      </trkpt>
      <trkpt lat="47.51143" lon="6.77791">
        <ele>323</ele>
        <time>2016-05-15T10:24:23.000Z</time>
      </trkpt>
      <trkpt lat="47.51146" lon="6.77791">
        <ele>323</ele>
        <time>2016-05-15T10:24:24.000Z</time>
      </trkpt>
      <trkpt lat="47.51149" lon="6.77791">
        <ele>323</ele>
        <time>2016-05-15T10:24:25.000Z</time>
      </trkpt>
      <trkpt lat="47.51152" lon="6.77791">
        <ele>323</ele>
        <time>2016-05-15T10:24:26.000Z</time>
      </trkpt>
      <trkpt lat="47.51155" lon="6.77792">
        <ele>323</ele>
        <time>2016-05-15T10:24:27.000Z</time>
      </trkpt>
      <trkpt lat="47.51159" lon="6.77792">
        <ele>323</ele>
        <time>2016-05-15T10:24:28.000Z</time>
      </trkpt>
      <trkpt lat="47.51162" lon="6.77792">
        <ele>323</ele>
        <time>2016-05-15T10:24:29.000Z</time>
      </trkpt>
      <trkpt lat="47.51166" lon="6.77791">
        <ele>323</ele>
        <time>2016-05-15T10:24:30.000Z</time>
      </trkpt>
      <trkpt lat="47.51169" lon="6.77791">
        <ele>326</ele>
        <time>2016-05-15T10:24:31.000Z</time>
      </trkpt>
      <trkpt lat="47.51173" lon="6.77791">
        <ele>326</ele>
        <time>2016-05-15T10:24:32.000Z</time>
      </trkpt>
      <trkpt lat="47.51176" lon="6.77791">
        <ele>326</ele>
        <time>2016-05-15T10:24:33.000Z</time>
      </trkpt>
      <trkpt lat="47.5118" lon="6.77791">
        <ele>326</ele>
        <time>2016-05-15T10:24:34.000Z</time>
      </trkpt>
      <trkpt lat="47.51183" lon="6.77791">
        <ele>326</ele>
        <time>2016-05-15T10:24:35.000Z</time>
      </trkpt>
      <trkpt lat="47.51185" lon="6.77791">
        <ele>326</ele>
        <time>2016-05-15T10:24:36.000Z</time>
      </trkpt>
      <trkpt lat="47.51188" lon="6.77791">
        <ele>326</ele>
        <time>2016-05-15T10:24:37.000Z</time>
      </trkpt>
      <trkpt lat="47.51191" lon="6.77791">
        <ele>326</ele>
        <time>2016-05-15T10:24:38.000Z</time>
      </trkpt>
      <trkpt lat="47.51194" lon="6.77791">
        <ele>327</ele>
        <time>2016-05-15T10:24:39.000Z</time>
      </trkpt>
      <trkpt lat="47.51197" lon="6.7779">
        <ele>327</ele>
        <time>2016-05-15T10:24:40.000Z</time>
      </trkpt>
      <trkpt lat="47.512" lon="6.7779">
        <ele>327</ele>
        <time>2016-05-15T10:24:41.000Z</time>
      </trkpt>
      <trkpt lat="47.51202" lon="6.7779">
        <ele>327</ele>
        <time>2016-05-15T10:24:42.000Z</time>
      </trkpt>
      <trkpt lat="47.51205" lon="6.7779">
        <ele>327</ele>
        <time>2016-05-15T10:24:43.000Z</time>
      </trkpt>
      <trkpt lat="47.51207" lon="6.7779">
        <ele>327</ele>
        <time>2016-05-15T10:24:44.001Z</time>
      </trkpt>
      <trkpt lat="47.5121" lon="6.7779">
        <ele>327</ele>
        <time>2016-05-15T10:24:45.000Z</time>
      </trkpt>
      <trkpt lat="47.51212" lon="6.7779">
        <ele>327</ele>
        <time>2016-05-15T10:24:46.000Z</time>
      </trkpt>
      <trkpt lat="47.51215" lon="6.77789">
        <ele>327</ele>
        <time>2016-05-15T10:24:47.000Z</time>
      </trkpt>
      <trkpt lat="47.51219" lon="6.77789">
        <ele>327</ele>
        <time>2016-05-15T10:24:48.999Z</time>
      </trkpt>
      <trkpt lat="47.51221" lon="6.77789">
        <ele>327</ele>
        <time>2016-05-15T10:24:50.000Z</time>
      </trkpt>
      <trkpt lat="47.51226" lon="6.77788">
        <ele>327</ele>
        <time>2016-05-15T10:24:52.000Z</time>
      </trkpt>
      <trkpt lat="47.51228" lon="6.77788">
        <ele>328</ele>
        <time>2016-05-15T10:24:53.000Z</time>
      </trkpt>
      <trkpt lat="47.51232" lon="6.77787">
        <ele>328</ele>
        <time>2016-05-15T10:24:55.000Z</time>
      </trkpt>
      <trkpt lat="47.51233" lon="6.77787">
        <ele>328</ele>
        <time>2016-05-15T10:24:56.000Z</time>
      </trkpt>
      <trkpt lat="47.51237" lon="6.77789">
        <ele>328</ele>
        <time>2016-05-15T10:24:58.000Z</time>
      </trkpt>
      <trkpt lat="47.51239" lon="6.77789">
        <ele>328</ele>
        <time>2016-05-15T10:24:59.000Z</time>
      </trkpt>
      <trkpt lat="47.51242" lon="6.77791">
        <ele>328</ele>
        <time>2016-05-15T10:25:01.000Z</time>
      </trkpt>
      <trkpt lat="47.51244" lon="6.77791">
        <ele>328</ele>
        <time>2016-05-15T10:25:02.001Z</time>
      </trkpt>
      <trkpt lat="47.51247" lon="6.77788">
        <ele>328</ele>
        <time>2016-05-15T10:25:04.000Z</time>
      </trkpt>
      <trkpt lat="47.51249" lon="6.77785">
        <ele>328</ele>
        <time>2016-05-15T10:25:05.000Z</time>
      </trkpt>
      <trkpt lat="47.51252" lon="6.77784">
        <ele>334</ele>
        <time>2016-05-15T10:25:07.000Z</time>
      </trkpt>
      <trkpt lat="47.51254" lon="6.77785">
        <ele>334</ele>
        <time>2016-05-15T10:25:08.000Z</time>
      </trkpt>
      <trkpt lat="47.51258" lon="6.77784">
        <ele>334</ele>
        <time>2016-05-15T10:25:11.000Z</time>
      </trkpt>
      <trkpt lat="47.51259" lon="6.77784">
        <ele>334</ele>
        <time>2016-05-15T10:25:12.000Z</time>
      </trkpt>
      <trkpt lat="47.51264" lon="6.77784">
        <ele>334</ele>
        <time>2016-05-15T10:25:14.000Z</time>
      </trkpt>
      <trkpt lat="47.51266" lon="6.77784">
        <ele>334</ele>
        <time>2016-05-15T10:25:15.000Z</time>
      </trkpt>
      <trkpt lat="47.5127" lon="6.77785">
        <ele>334</ele>
        <time>2016-05-15T10:25:17.000Z</time>
      </trkpt>
      <trkpt lat="47.51271" lon="6.77785">
        <ele>335</ele>
        <time>2016-05-15T10:25:18.000Z</time>
      </trkpt>
      <trkpt lat="47.51276" lon="6.77785">
        <ele>335</ele>
        <time>2016-05-15T10:25:21.000Z</time>
      </trkpt>
      <trkpt lat="47.51278" lon="6.77785">
        <ele>335</ele>
        <time>2016-05-15T10:25:22.000Z</time>
      </trkpt>
      <trkpt lat="47.5128" lon="6.77785">
        <ele>335</ele>
        <time>2016-05-15T10:25:23.000Z</time>
      </trkpt>
      <trkpt lat="47.51283" lon="6.77785">
        <ele>335</ele>
        <time>2016-05-15T10:25:24.000Z</time>
      </trkpt>
      <trkpt lat="47.51285" lon="6.77786">
        <ele>336</ele>
        <time>2016-05-15T10:25:25.000Z</time>
      </trkpt>
      <trkpt lat="47.51287" lon="6.77786">
        <ele>336</ele>
        <time>2016-05-15T10:25:26.000Z</time>
      </trkpt>
      <trkpt lat="47.51291" lon="6.77786">
        <ele>336</ele>
        <time>2016-05-15T10:25:28.000Z</time>
      </trkpt>
      <trkpt lat="47.51293" lon="6.77786">
        <ele>336</ele>
        <time>2016-05-15T10:25:29.000Z</time>
      </trkpt>
      <trkpt lat="47.51296" lon="6.77785">
        <ele>337</ele>
        <time>2016-05-15T10:25:30.000Z</time>
      </trkpt>
      <trkpt lat="47.51298" lon="6.77785">
        <ele>337</ele>
        <time>2016-05-15T10:25:31.000Z</time>
      </trkpt>
      <trkpt lat="47.51301" lon="6.77785">
        <ele>337</ele>
        <time>2016-05-15T10:25:32.000Z</time>
      </trkpt>
      <trkpt lat="47.51303" lon="6.77784">
        <ele>337</ele>
        <time>2016-05-15T10:25:33.000Z</time>
      </trkpt>
      <trkpt lat="47.51306" lon="6.77784">
        <ele>337</ele>
        <time>2016-05-15T10:25:34.000Z</time>
      </trkpt>
      <trkpt lat="47.51308" lon="6.77784">
        <ele>338</ele>
        <time>2016-05-15T10:25:35.000Z</time>
      </trkpt>
      <trkpt lat="47.51312" lon="6.77783">
        <ele>338</ele>
        <time>2016-05-15T10:25:37.000Z</time>
      </trkpt>
      <trkpt lat="47.51314" lon="6.77783">
        <ele>338</ele>
        <time>2016-05-15T10:25:38.000Z</time>
      </trkpt>
      <trkpt lat="47.51317" lon="6.77782">
        <ele>338</ele>
        <time>2016-05-15T10:25:40.000Z</time>
      </trkpt>
      <trkpt lat="47.51318" lon="6.77782">
        <ele>338</ele>
        <time>2016-05-15T10:25:41.000Z</time>
      </trkpt>
      <trkpt lat="47.51322" lon="6.77781">
        <ele>339</ele>
        <time>2016-05-15T10:25:43.000Z</time>
      </trkpt>
      <trkpt lat="47.51323" lon="6.77781">
        <ele>339</ele>
        <time>2016-05-15T10:25:44.000Z</time>
      </trkpt>
      <trkpt lat="47.51327" lon="6.77784">
        <ele>339</ele>
        <time>2016-05-15T10:25:47.000Z</time>
      </trkpt>
      <trkpt lat="47.51329" lon="6.77785">
        <ele>339</ele>
        <time>2016-05-15T10:25:48.000Z</time>
      </trkpt>
      <trkpt lat="47.51332" lon="6.77787">
        <ele>339</ele>
        <time>2016-05-15T10:25:50.000Z</time>
      </trkpt>
      <trkpt lat="47.51334" lon="6.77789">
        <ele>348</ele>
        <time>2016-05-15T10:25:51.000Z</time>
      </trkpt>
      <trkpt lat="47.51338" lon="6.77788">
        <ele>348</ele>
        <time>2016-05-15T10:25:53.000Z</time>
      </trkpt>
      <trkpt lat="47.5134" lon="6.77787">
        <ele>348</ele>
        <time>2016-05-15T10:25:54.000Z</time>
      </trkpt>
      <trkpt lat="47.51342" lon="6.77786">
        <ele>349</ele>
        <time>2016-05-15T10:25:55.001Z</time>
      </trkpt>
      <trkpt lat="47.51344" lon="6.77783">
        <ele>349</ele>
        <time>2016-05-15T10:25:56.000Z</time>
      </trkpt>
      <trkpt lat="47.51346" lon="6.7778">
        <ele>349</ele>
        <time>2016-05-15T10:25:58.000Z</time>
      </trkpt>
      <trkpt lat="47.51348" lon="6.77779">
        <ele>349</ele>
        <time>2016-05-15T10:25:59.000Z</time>
      </trkpt>
      <trkpt lat="47.51351" lon="6.77778">
        <ele>349</ele>
        <time>2016-05-15T10:26:01.000Z</time>
      </trkpt>
      <trkpt lat="47.51352" lon="6.77777">
        <ele>349</ele>
        <time>2016-05-15T10:26:02.000Z</time>
      </trkpt>
      <trkpt lat="47.51356" lon="6.77776">
        <ele>349</ele>
        <time>2016-05-15T10:26:04.000Z</time>
      </trkpt>
      <trkpt lat="47.51358" lon="6.77775">
        <ele>349</ele>
        <time>2016-05-15T10:26:05.000Z</time>
      </trkpt>
      <trkpt lat="47.51361" lon="6.77773">
        <ele>350</ele>
        <time>2016-05-15T10:26:07.000Z</time>
      </trkpt>
      <trkpt lat="47.51363" lon="6.77772">
        <ele>350</ele>
        <time>2016-05-15T10:26:08.000Z</time>
      </trkpt>
      <trkpt lat="47.51366" lon="6.77771">
        <ele>350</ele>
        <time>2016-05-15T10:26:10.000Z</time>
      </trkpt>
      <trkpt lat="47.51368" lon="6.7777">
        <ele>350</ele>
        <time>2016-05-15T10:26:11.000Z</time>
      </trkpt>
      <trkpt lat="47.51371" lon="6.77769">
        <ele>351</ele>
        <time>2016-05-15T10:26:13.000Z</time>
      </trkpt>
      <trkpt lat="47.51372" lon="6.77768">
        <ele>351</ele>
        <time>2016-05-15T10:26:14.000Z</time>
      </trkpt>
      <trkpt lat="47.51376" lon="6.77765">
        <ele>351</ele>
        <time>2016-05-15T10:26:16.000Z</time>
      </trkpt>
      <trkpt lat="47.51378" lon="6.77763">
        <ele>351</ele>
        <time>2016-05-15T10:26:17.000Z</time>
      </trkpt>
      <trkpt lat="47.5138" lon="6.77761">
        <ele>351</ele>
        <time>2016-05-15T10:26:18.000Z</time>
      </trkpt>
      <trkpt lat="47.51382" lon="6.77759">
        <ele>352</ele>
        <time>2016-05-15T10:26:19.000Z</time>
      </trkpt>
      <trkpt lat="47.51384" lon="6.77756">
        <ele>352</ele>
        <time>2016-05-15T10:26:20.000Z</time>
      </trkpt>
      <trkpt lat="47.51386" lon="6.77754">
        <ele>352</ele>
        <time>2016-05-15T10:26:21.000Z</time>
      </trkpt>
      <trkpt lat="47.51389" lon="6.77752">
        <ele>352</ele>
        <time>2016-05-15T10:26:23.000Z</time>
      </trkpt>
      <trkpt lat="47.51391" lon="6.77752">
        <ele>353</ele>
        <time>2016-05-15T10:26:24.000Z</time>
      </trkpt>
      <trkpt lat="47.51394" lon="6.77753">
        <ele>353</ele>
        <time>2016-05-15T10:26:26.000Z</time>
      </trkpt>
      <trkpt lat="47.51395" lon="6.77753">
        <ele>353</ele>
        <time>2016-05-15T10:26:27.000Z</time>
      </trkpt>
      <trkpt lat="47.51399" lon="6.77756">
        <ele>354</ele>
        <time>2016-05-15T10:26:30.000Z</time>
      </trkpt>
      <trkpt lat="47.514" lon="6.77756">
        <ele>354</ele>
        <time>2016-05-15T10:26:31.000Z</time>
      </trkpt>
      <trkpt lat="47.51404" lon="6.77755">
        <ele>354</ele>
        <time>2016-05-15T10:26:33.000Z</time>
      </trkpt>
      <trkpt lat="47.51406" lon="6.77754">
        <ele>354</ele>
        <time>2016-05-15T10:26:34.000Z</time>
      </trkpt>
      <trkpt lat="47.51409" lon="6.77752">
        <ele>355</ele>
        <time>2016-05-15T10:26:36.000Z</time>
      </trkpt>
      <trkpt lat="47.5141" lon="6.77751">
        <ele>355</ele>
        <time>2016-05-15T10:26:37.000Z</time>
      </trkpt>
      <trkpt lat="47.51413" lon="6.77749">
        <ele>356</ele>
        <time>2016-05-15T10:26:40.000Z</time>
      </trkpt>
      <trkpt lat="47.51415" lon="6.77749">
        <ele>356</ele>
        <time>2016-05-15T10:26:41.000Z</time>
      </trkpt>
      <trkpt lat="47.51418" lon="6.77747">
        <ele>357</ele>
        <time>2016-05-15T10:26:43.000Z</time>
      </trkpt>
      <trkpt lat="47.51419" lon="6.77747">
        <ele>358</ele>
        <time>2016-05-15T10:26:44.000Z</time>
      </trkpt>
      <trkpt lat="47.51422" lon="6.77745">
        <ele>359</ele>
        <time>2016-05-15T10:26:46.000Z</time>
      </trkpt>
      <trkpt lat="47.51423" lon="6.77745">
        <ele>359</ele>
        <time>2016-05-15T10:26:47.000Z</time>
      </trkpt>
      <trkpt lat="47.51428" lon="6.77744">
        <ele>360</ele>
        <time>2016-05-15T10:26:50.000Z</time>
      </trkpt>
      <trkpt lat="47.51429" lon="6.77744">
        <ele>361</ele>
        <time>2016-05-15T10:26:51.000Z</time>
      </trkpt>
      <trkpt lat="47.51433" lon="6.77743">
        <ele>361</ele>
        <time>2016-05-15T10:26:54.000Z</time>
      </trkpt>
      <trkpt lat="47.51435" lon="6.77744">
        <ele>362</ele>
        <time>2016-05-15T10:26:55.000Z</time>
      </trkpt>
      <trkpt lat="47.51438" lon="6.77741">
        <ele>362</ele>
        <time>2016-05-15T10:27:00.000Z</time>
      </trkpt>
      <trkpt lat="47.51439" lon="6.7774">
        <ele>363</ele>
        <time>2016-05-15T10:27:01.000Z</time>
      </trkpt>
      <trkpt lat="47.51441" lon="6.77739">
        <ele>363</ele>
        <time>2016-05-15T10:27:02.000Z</time>
      </trkpt>
      <trkpt lat="47.51443" lon="6.77738">
        <ele>363</ele>
        <time>2016-05-15T10:27:03.000Z</time>
      </trkpt>
      <trkpt lat="47.51447" lon="6.77737">
        <ele>364</ele>
        <time>2016-05-15T10:27:05.000Z</time>
      </trkpt>
      <trkpt lat="47.51449" lon="6.77736">
        <ele>364</ele>
        <time>2016-05-15T10:27:06.000Z</time>
      </trkpt>
      <trkpt lat="47.51453" lon="6.77736">
        <ele>364</ele>
        <time>2016-05-15T10:27:09.000Z</time>
      </trkpt>
      <trkpt lat="47.51454" lon="6.77737">
        <ele>364</ele>
        <time>2016-05-15T10:27:10.000Z</time>
      </trkpt>
      <trkpt lat="47.51457" lon="6.77738">
        <ele>365</ele>
        <time>2016-05-15T10:27:12.000Z</time>
      </trkpt>
      <trkpt lat="47.51459" lon="6.77737">
        <ele>365</ele>
        <time>2016-05-15T10:27:13.000Z</time>
      </trkpt>
      <trkpt lat="47.51463" lon="6.77737">
        <ele>365</ele>
        <time>2016-05-15T10:27:15.000Z</time>
      </trkpt>
      <trkpt lat="47.51465" lon="6.77736">
        <ele>365</ele>
        <time>2016-05-15T10:27:16.000Z</time>
      </trkpt>
      <trkpt lat="47.51469" lon="6.77736">
        <ele>365</ele>
        <time>2016-05-15T10:27:18.000Z</time>
      </trkpt>
      <trkpt lat="47.51471" lon="6.77735">
        <ele>365</ele>
        <time>2016-05-15T10:27:19.000Z</time>
      </trkpt>
      <trkpt lat="47.51475" lon="6.77736">
        <ele>365</ele>
        <time>2016-05-15T10:27:21.000Z</time>
      </trkpt>
      <trkpt lat="47.51476" lon="6.77737">
        <ele>365</ele>
        <time>2016-05-15T10:27:22.000Z</time>
      </trkpt>
      <trkpt lat="47.5148" lon="6.77737">
        <ele>366</ele>
        <time>2016-05-15T10:27:24.000Z</time>
      </trkpt>
      <trkpt lat="47.51481" lon="6.77737">
        <ele>366</ele>
        <time>2016-05-15T10:27:25.000Z</time>
      </trkpt>
      <trkpt lat="47.51485" lon="6.77735">
        <ele>366</ele>
        <time>2016-05-15T10:27:27.000Z</time>
      </trkpt>
      <trkpt lat="47.51488" lon="6.77734">
        <ele>366</ele>
        <time>2016-05-15T10:27:28.000Z</time>
      </trkpt>
      <trkpt lat="47.5149" lon="6.77733">
        <ele>366</ele>
        <time>2016-05-15T10:27:29.000Z</time>
      </trkpt>
      <trkpt lat="47.51492" lon="6.77732">
        <ele>366</ele>
        <time>2016-05-15T10:27:30.000Z</time>
      </trkpt>
      <trkpt lat="47.51497" lon="6.77731">
        <ele>366</ele>
        <time>2016-05-15T10:27:32.000Z</time>
      </trkpt>
      <trkpt lat="47.51499" lon="6.77731">
        <ele>366</ele>
        <time>2016-05-15T10:27:33.000Z</time>
      </trkpt>
      <trkpt lat="47.51503" lon="6.77731">
        <ele>370</ele>
        <time>2016-05-15T10:27:35.000Z</time>
      </trkpt>
      <trkpt lat="47.51504" lon="6.77731">
        <ele>370</ele>
        <time>2016-05-15T10:27:36.000Z</time>
      </trkpt>
      <trkpt lat="47.51508" lon="6.77733">
        <ele>370</ele>
        <time>2016-05-15T10:27:39.000Z</time>
      </trkpt>
      <trkpt lat="47.5151" lon="6.77732">
        <ele>370</ele>
        <time>2016-05-15T10:27:40.000Z</time>
      </trkpt>
      <trkpt lat="47.51513" lon="6.7773">
        <ele>370</ele>
        <time>2016-05-15T10:27:42.000Z</time>
      </trkpt>
      <trkpt lat="47.51515" lon="6.7773">
        <ele>371</ele>
        <time>2016-05-15T10:27:43.000Z</time>
      </trkpt>
      <trkpt lat="47.51518" lon="6.77728">
        <ele>371</ele>
        <time>2016-05-15T10:27:45.000Z</time>
      </trkpt>
      <trkpt lat="47.5152" lon="6.77728">
        <ele>371</ele>
        <time>2016-05-15T10:27:46.000Z</time>
      </trkpt>
      <trkpt lat="47.51522" lon="6.77726">
        <ele>372</ele>
        <time>2016-05-15T10:27:48.000Z</time>
      </trkpt>
      <trkpt lat="47.51524" lon="6.77726">
        <ele>372</ele>
        <time>2016-05-15T10:27:49.000Z</time>
      </trkpt>
      <trkpt lat="47.51528" lon="6.77726">
        <ele>372</ele>
        <time>2016-05-15T10:27:52.000Z</time>
      </trkpt>
      <trkpt lat="47.51529" lon="6.77727">
        <ele>372</ele>
        <time>2016-05-15T10:27:53.000Z</time>
      </trkpt>
      <trkpt lat="47.51532" lon="6.77728">
        <ele>372</ele>
        <time>2016-05-15T10:27:56.000Z</time>
      </trkpt>
      <trkpt lat="47.51533" lon="6.77728">
        <ele>372</ele>
        <time>2016-05-15T10:27:57.000Z</time>
      </trkpt>
      <trkpt lat="47.51536" lon="6.77729">
        <ele>373</ele>
        <time>2016-05-15T10:27:59.000Z</time>
      </trkpt>
      <trkpt lat="47.51538" lon="6.77729">
        <ele>373</ele>
        <time>2016-05-15T10:28:00.000Z</time>
      </trkpt>
      <trkpt lat="47.51541" lon="6.77731">
        <ele>373</ele>
        <time>2016-05-15T10:28:02.000Z</time>
      </trkpt>
      <trkpt lat="47.51542" lon="6.77731">
        <ele>373</ele>
        <time>2016-05-15T10:28:03.000Z</time>
      </trkpt>
      <trkpt lat="47.51545" lon="6.77732">
        <ele>373</ele>
        <time>2016-05-15T10:28:05.000Z</time>
      </trkpt>
      <trkpt lat="47.51547" lon="6.77732">
        <ele>373</ele>
        <time>2016-05-15T10:28:06.000Z</time>
      </trkpt>
      <trkpt lat="47.51551" lon="6.77732">
        <ele>374</ele>
        <time>2016-05-15T10:28:08.000Z</time>
      </trkpt>
      <trkpt lat="47.51552" lon="6.77732">
        <ele>374</ele>
        <time>2016-05-15T10:28:09.000Z</time>
      </trkpt>
      <trkpt lat="47.51555" lon="6.77734">
        <ele>374</ele>
        <time>2016-05-15T10:28:11.000Z</time>
      </trkpt>
      <trkpt lat="47.51557" lon="6.77735">
        <ele>374</ele>
        <time>2016-05-15T10:28:12.000Z</time>
      </trkpt>
      <trkpt lat="47.5156" lon="6.77738">
        <ele>374</ele>
        <time>2016-05-15T10:28:15.000Z</time>
      </trkpt>
      <trkpt lat="47.51562" lon="6.77739">
        <ele>374</ele>
        <time>2016-05-15T10:28:16.000Z</time>
      </trkpt>
      <trkpt lat="47.51566" lon="6.77739">
        <ele>375</ele>
        <time>2016-05-15T10:28:18.000Z</time>
      </trkpt>
      <trkpt lat="47.51568" lon="6.77739">
        <ele>375</ele>
        <time>2016-05-15T10:28:19.000Z</time>
      </trkpt>
      <trkpt lat="47.51571" lon="6.77739">
        <ele>375</ele>
        <time>2016-05-15T10:28:22.000Z</time>
      </trkpt>
      <trkpt lat="47.51572" lon="6.77739">
        <ele>375</ele>
        <time>2016-05-15T10:28:23.000Z</time>
      </trkpt>
      <trkpt lat="47.51571" lon="6.77744">
        <ele>375</ele>
        <time>2016-05-15T10:28:27.000Z</time>
      </trkpt>
      <trkpt lat="47.5157" lon="6.77746">
        <ele>375</ele>
        <time>2016-05-15T10:28:28.000Z</time>
      </trkpt>
      <trkpt lat="47.51571" lon="6.7775">
        <ele>376</ele>
        <time>2016-05-15T10:28:30.000Z</time>
      </trkpt>
      <trkpt lat="47.51573" lon="6.77753">
        <ele>376</ele>
        <time>2016-05-15T10:28:31.000Z</time>
      </trkpt>
      <trkpt lat="47.51575" lon="6.77755">
        <ele>376</ele>
        <time>2016-05-15T10:28:32.000Z</time>
      </trkpt>
      <trkpt lat="47.51578" lon="6.77757">
        <ele>376</ele>
        <time>2016-05-15T10:28:33.000Z</time>
      </trkpt>
      <trkpt lat="47.5158" lon="6.77758">
        <ele>376</ele>
        <time>2016-05-15T10:28:34.000Z</time>
      </trkpt>
      <trkpt lat="47.51583" lon="6.77759">
        <ele>376</ele>
        <time>2016-05-15T10:28:35.000Z</time>
      </trkpt>
      <trkpt lat="47.51586" lon="6.7776">
        <ele>378</ele>
        <time>2016-05-15T10:28:36.000Z</time>
      </trkpt>
      <trkpt lat="47.51588" lon="6.7776">
        <ele>378</ele>
        <time>2016-05-15T10:28:37.000Z</time>
      </trkpt>
      <trkpt lat="47.51592" lon="6.77759">
        <ele>379</ele>
        <time>2016-05-15T10:28:39.000Z</time>
      </trkpt>
      <trkpt lat="47.51594" lon="6.77759">
        <ele>379</ele>
        <time>2016-05-15T10:28:40.000Z</time>
      </trkpt>
      <trkpt lat="47.51598" lon="6.77761">
        <ele>379</ele>
        <time>2016-05-15T10:28:42.000Z</time>
      </trkpt>
      <trkpt lat="47.516" lon="6.77761">
        <ele>380</ele>
        <time>2016-05-15T10:28:43.000Z</time>
      </trkpt>
      <trkpt lat="47.51603" lon="6.77762">
        <ele>380</ele>
        <time>2016-05-15T10:28:45.000Z</time>
      </trkpt>
      <trkpt lat="47.51605" lon="6.77762">
        <ele>380</ele>
        <time>2016-05-15T10:28:46.000Z</time>
      </trkpt>
      <trkpt lat="47.51608" lon="6.77762">
        <ele>380</ele>
        <time>2016-05-15T10:28:49.000Z</time>
      </trkpt>
      <trkpt lat="47.5161" lon="6.77762">
        <ele>381</ele>
        <time>2016-05-15T10:28:50.000Z</time>
      </trkpt>
      <trkpt lat="47.51614" lon="6.77763">
        <ele>381</ele>
        <time>2016-05-15T10:28:52.000Z</time>
      </trkpt>
      <trkpt lat="47.51616" lon="6.77764">
        <ele>381</ele>
        <time>2016-05-15T10:28:53.000Z</time>
      </trkpt>
      <trkpt lat="47.5162" lon="6.77765">
        <ele>381</ele>
        <time>2016-05-15T10:28:55.000Z</time>
      </trkpt>
      <trkpt lat="47.51622" lon="6.77766">
        <ele>381</ele>
        <time>2016-05-15T10:28:56.000Z</time>
      </trkpt>
      <trkpt lat="47.51626" lon="6.77767">
        <ele>382</ele>
        <time>2016-05-15T10:28:58.000Z</time>
      </trkpt>
      <trkpt lat="47.51629" lon="6.77768">
        <ele>382</ele>
        <time>2016-05-15T10:28:59.000Z</time>
      </trkpt>
      <trkpt lat="47.51631" lon="6.77768">
        <ele>382</ele>
        <time>2016-05-15T10:29:00.000Z</time>
      </trkpt>
      <trkpt lat="47.51634" lon="6.77768">
        <ele>382</ele>
        <time>2016-05-15T10:29:01.000Z</time>
      </trkpt>
      <trkpt lat="47.51636" lon="6.77769">
        <ele>382</ele>
        <time>2016-05-15T10:29:02.000Z</time>
      </trkpt>
      <trkpt lat="47.51638" lon="6.7777">
        <ele>382</ele>
        <time>2016-05-15T10:29:03.000Z</time>
      </trkpt>
      <trkpt lat="47.51641" lon="6.77771">
        <ele>382</ele>
        <time>2016-05-15T10:29:04.000Z</time>
      </trkpt>
      <trkpt lat="47.51644" lon="6.77772">
        <ele>382</ele>
        <time>2016-05-15T10:29:05.000Z</time>
      </trkpt>
      <trkpt lat="47.51647" lon="6.77773">
        <ele>383</ele>
        <time>2016-05-15T10:29:06.000Z</time>
      </trkpt>
      <trkpt lat="47.5165" lon="6.77773">
        <ele>383</ele>
        <time>2016-05-15T10:29:07.000Z</time>
      </trkpt>
      <trkpt lat="47.51653" lon="6.77774">
        <ele>383</ele>
        <time>2016-05-15T10:29:08.000Z</time>
      </trkpt>
      <trkpt lat="47.51655" lon="6.77775">
        <ele>383</ele>
        <time>2016-05-15T10:29:09.000Z</time>
      </trkpt>
      <trkpt lat="47.51659" lon="6.77777">
        <ele>383</ele>
        <time>2016-05-15T10:29:11.000Z</time>
      </trkpt>
      <trkpt lat="47.51662" lon="6.77778">
        <ele>383</ele>
        <time>2016-05-15T10:29:12.000Z</time>
      </trkpt>
      <trkpt lat="47.51664" lon="6.77778">
        <ele>383</ele>
        <time>2016-05-15T10:29:13.000Z</time>
      </trkpt>
      <trkpt lat="47.51667" lon="6.77778">
        <ele>383</ele>
        <time>2016-05-15T10:29:14.000Z</time>
      </trkpt>
      <trkpt lat="47.51669" lon="6.77778">
        <ele>385</ele>
        <time>2016-05-15T10:29:15.000Z</time>
      </trkpt>
      <trkpt lat="47.51671" lon="6.77779">
        <ele>385</ele>
        <time>2016-05-15T10:29:16.000Z</time>
      </trkpt>
      <trkpt lat="47.51673" lon="6.77779">
        <ele>385</ele>
        <time>2016-05-15T10:29:17.000Z</time>
      </trkpt>
      <trkpt lat="47.51676" lon="6.7778">
        <ele>385</ele>
        <time>2016-05-15T10:29:18.000Z</time>
      </trkpt>
      <trkpt lat="47.51678" lon="6.7778">
        <ele>385</ele>
        <time>2016-05-15T10:29:19.000Z</time>
      </trkpt>
      <trkpt lat="47.51681" lon="6.77779">
        <ele>385</ele>
        <time>2016-05-15T10:29:20.000Z</time>
      </trkpt>
      <trkpt lat="47.51683" lon="6.77779">
        <ele>385</ele>
        <time>2016-05-15T10:29:21.000Z</time>
      </trkpt>
      <trkpt lat="47.51685" lon="6.77778">
        <ele>385</ele>
        <time>2016-05-15T10:29:22.000Z</time>
      </trkpt>
      <trkpt lat="47.51687" lon="6.77776">
        <ele>385</ele>
        <time>2016-05-15T10:29:23.000Z</time>
      </trkpt>
      <trkpt lat="47.51689" lon="6.77773">
        <ele>385</ele>
        <time>2016-05-15T10:29:24.000Z</time>
      </trkpt>
      <trkpt lat="47.5169" lon="6.77771">
        <ele>385</ele>
        <time>2016-05-15T10:29:25.000Z</time>
      </trkpt>
      <trkpt lat="47.51692" lon="6.77768">
        <ele>385</ele>
        <time>2016-05-15T10:29:26.000Z</time>
      </trkpt>
      <trkpt lat="47.51694" lon="6.77763">
        <ele>385</ele>
        <time>2016-05-15T10:29:28.000Z</time>
      </trkpt>
      <trkpt lat="47.51696" lon="6.7776">
        <ele>385</ele>
        <time>2016-05-15T10:29:29.000Z</time>
      </trkpt>
      <trkpt lat="47.51697" lon="6.77757">
        <ele>385</ele>
        <time>2016-05-15T10:29:30.000Z</time>
      </trkpt>
      <trkpt lat="47.51698" lon="6.77754">
        <ele>386</ele>
        <time>2016-05-15T10:29:31.000Z</time>
      </trkpt>
      <trkpt lat="47.517" lon="6.77751">
        <ele>386</ele>
        <time>2016-05-15T10:29:32.000Z</time>
      </trkpt>
      <trkpt lat="47.51701" lon="6.77748">
        <ele>387</ele>
        <time>2016-05-15T10:29:33.000Z</time>
      </trkpt>
      <trkpt lat="47.51703" lon="6.77743">
        <ele>387</ele>
        <time>2016-05-15T10:29:35.000Z</time>
      </trkpt>
      <trkpt lat="47.51705" lon="6.77742">
        <ele>387</ele>
        <time>2016-05-15T10:29:36.000Z</time>
      </trkpt>
      <trkpt lat="47.51708" lon="6.77738">
        <ele>387</ele>
        <time>2016-05-15T10:29:38.000Z</time>
      </trkpt>
      <trkpt lat="47.51709" lon="6.77736">
        <ele>387</ele>
        <time>2016-05-15T10:29:39.000Z</time>
      </trkpt>
      <trkpt lat="47.51711" lon="6.77729">
        <ele>387</ele>
        <time>2016-05-15T10:29:41.000Z</time>
      </trkpt>
      <trkpt lat="47.51711" lon="6.77725">
        <ele>387</ele>
        <time>2016-05-15T10:29:42.000Z</time>
      </trkpt>
      <trkpt lat="47.51711" lon="6.77721">
        <ele>387</ele>
        <time>2016-05-15T10:29:43.000Z</time>
      </trkpt>
      <trkpt lat="47.51711" lon="6.77717">
        <ele>387</ele>
        <time>2016-05-15T10:29:44.000Z</time>
      </trkpt>
      <trkpt lat="47.5171" lon="6.77711">
        <ele>387</ele>
        <time>2016-05-15T10:29:46.000Z</time>
      </trkpt>
      <trkpt lat="47.51709" lon="6.77708">
        <ele>388</ele>
        <time>2016-05-15T10:29:47.000Z</time>
      </trkpt>
      <trkpt lat="47.51708" lon="6.77703">
        <ele>388</ele>
        <time>2016-05-15T10:29:49.000Z</time>
      </trkpt>
      <trkpt lat="47.51708" lon="6.777">
        <ele>388</ele>
        <time>2016-05-15T10:29:50.000Z</time>
      </trkpt>
      <trkpt lat="47.51708" lon="6.77695">
        <ele>388</ele>
        <time>2016-05-15T10:29:52.000Z</time>
      </trkpt>
      <trkpt lat="47.51708" lon="6.77693">
        <ele>388</ele>
        <time>2016-05-15T10:29:53.000Z</time>
      </trkpt>
      <trkpt lat="47.51709" lon="6.77688">
        <ele>388</ele>
        <time>2016-05-15T10:29:58.000Z</time>
      </trkpt>
      <trkpt lat="47.5171" lon="6.77683">
        <ele>388</ele>
        <time>2016-05-15T10:29:59.000Z</time>
      </trkpt>
      <trkpt lat="47.51709" lon="6.77678">
        <ele>388</ele>
        <time>2016-05-15T10:30:01.000Z</time>
      </trkpt>
      <trkpt lat="47.51709" lon="6.77675">
        <ele>388</ele>
        <time>2016-05-15T10:30:02.000Z</time>
      </trkpt>
      <trkpt lat="47.51709" lon="6.77669">
        <ele>388</ele>
        <time>2016-05-15T10:30:04.000Z</time>
      </trkpt>
      <trkpt lat="47.5171" lon="6.77666">
        <ele>390</ele>
        <time>2016-05-15T10:30:05.000Z</time>
      </trkpt>
      <trkpt lat="47.5171" lon="6.77663">
        <ele>390</ele>
        <time>2016-05-15T10:30:06.000Z</time>
      </trkpt>
      <trkpt lat="47.51711" lon="6.7766">
        <ele>390</ele>
        <time>2016-05-15T10:30:07.000Z</time>
      </trkpt>
      <trkpt lat="47.51712" lon="6.77655">
        <ele>390</ele>
        <time>2016-05-15T10:30:08.000Z</time>
      </trkpt>
      <trkpt lat="47.51712" lon="6.77651">
        <ele>390</ele>
        <time>2016-05-15T10:30:09.000Z</time>
      </trkpt>
      <trkpt lat="47.51712" lon="6.77647">
        <ele>390</ele>
        <time>2016-05-15T10:30:10.000Z</time>
      </trkpt>
      <trkpt lat="47.51712" lon="6.77644">
        <ele>390</ele>
        <time>2016-05-15T10:30:11.000Z</time>
      </trkpt>
      <trkpt lat="47.51712" lon="6.77637">
        <ele>390</ele>
        <time>2016-05-15T10:30:13.000Z</time>
      </trkpt>
      <trkpt lat="47.51712" lon="6.77634">
        <ele>390</ele>
        <time>2016-05-15T10:30:14.000Z</time>
      </trkpt>
      <trkpt lat="47.51712" lon="6.77628">
        <ele>390</ele>
        <time>2016-05-15T10:30:16.000Z</time>
      </trkpt>
      <trkpt lat="47.51712" lon="6.77624">
        <ele>390</ele>
        <time>2016-05-15T10:30:17.000Z</time>
      </trkpt>
      <trkpt lat="47.51712" lon="6.77621">
        <ele>390</ele>
        <time>2016-05-15T10:30:18.000Z</time>
      </trkpt>
      <trkpt lat="47.51712" lon="6.77618">
        <ele>390</ele>
        <time>2016-05-15T10:30:19.000Z</time>
      </trkpt>
      <trkpt lat="47.51712" lon="6.77614">
        <ele>390</ele>
        <time>2016-05-15T10:30:20.000Z</time>
      </trkpt>
      <trkpt lat="47.51712" lon="6.7761">
        <ele>390</ele>
        <time>2016-05-15T10:30:21.000Z</time>
      </trkpt>
      <trkpt lat="47.51713" lon="6.77607">
        <ele>390</ele>
        <time>2016-05-15T10:30:22.000Z</time>
      </trkpt>
      <trkpt lat="47.51713" lon="6.77603">
        <ele>390</ele>
        <time>2016-05-15T10:30:23.000Z</time>
      </trkpt>
      <trkpt lat="47.51715" lon="6.77599">
        <ele>390</ele>
        <time>2016-05-15T10:30:25.000Z</time>
      </trkpt>
      <trkpt lat="47.51717" lon="6.77598">
        <ele>390</ele>
        <time>2016-05-15T10:30:26.000Z</time>
      </trkpt>
      <trkpt lat="47.5172" lon="6.77597">
        <ele>390</ele>
        <time>2016-05-15T10:30:28.000Z</time>
      </trkpt>
      <trkpt lat="47.51722" lon="6.77596">
        <ele>390</ele>
        <time>2016-05-15T10:30:29.000Z</time>
      </trkpt>
      <trkpt lat="47.51722" lon="6.77591">
        <ele>390</ele>
        <time>2016-05-15T10:30:31.000Z</time>
      </trkpt>
      <trkpt lat="47.51722" lon="6.77586">
        <ele>390</ele>
        <time>2016-05-15T10:30:32.000Z</time>
      </trkpt>
      <trkpt lat="47.51721" lon="6.77582">
        <ele>391</ele>
        <time>2016-05-15T10:30:33.000Z</time>
      </trkpt>
      <trkpt lat="47.5172" lon="6.77579">
        <ele>391</ele>
        <time>2016-05-15T10:30:34.000Z</time>
      </trkpt>
      <trkpt lat="47.5172" lon="6.77575">
        <ele>390</ele>
        <time>2016-05-15T10:30:35.000Z</time>
      </trkpt>
      <trkpt lat="47.51719" lon="6.77571">
        <ele>390</ele>
        <time>2016-05-15T10:30:36.000Z</time>
      </trkpt>
      <trkpt lat="47.5172" lon="6.77567">
        <ele>390</ele>
        <time>2016-05-15T10:30:37.000Z</time>
      </trkpt>
      <trkpt lat="47.51721" lon="6.77562">
        <ele>390</ele>
        <time>2016-05-15T10:30:38.000Z</time>
      </trkpt>
      <trkpt lat="47.51722" lon="6.77558">
        <ele>390</ele>
        <time>2016-05-15T10:30:39.000Z</time>
      </trkpt>
      <trkpt lat="47.51723" lon="6.77552">
        <ele>390</ele>
        <time>2016-05-15T10:30:40.000Z</time>
      </trkpt>
      <trkpt lat="47.51725" lon="6.77547">
        <ele>390</ele>
        <time>2016-05-15T10:30:41.000Z</time>
      </trkpt>
      <trkpt lat="47.51726" lon="6.77541">
        <ele>390</ele>
        <time>2016-05-15T10:30:42.000Z</time>
      </trkpt>
      <trkpt lat="47.51727" lon="6.77534">
        <ele>390</ele>
        <time>2016-05-15T10:30:43.000Z</time>
      </trkpt>
      <trkpt lat="47.51729" lon="6.77527">
        <ele>390</ele>
        <time>2016-05-15T10:30:44.000Z</time>
      </trkpt>
      <trkpt lat="47.5173" lon="6.77521">
        <ele>390</ele>
        <time>2016-05-15T10:30:45.000Z</time>
      </trkpt>
      <trkpt lat="47.51731" lon="6.77515">
        <ele>390</ele>
        <time>2016-05-15T10:30:46.000Z</time>
      </trkpt>
      <trkpt lat="47.51733" lon="6.77509">
        <ele>390</ele>
        <time>2016-05-15T10:30:47.000Z</time>
      </trkpt>
      <trkpt lat="47.51734" lon="6.77502">
        <ele>390</ele>
        <time>2016-05-15T10:30:48.000Z</time>
      </trkpt>
      <trkpt lat="47.51735" lon="6.77496">
        <ele>389</ele>
        <time>2016-05-15T10:30:49.000Z</time>
      </trkpt>
      <trkpt lat="47.51736" lon="6.77491">
        <ele>389</ele>
        <time>2016-05-15T10:30:50.000Z</time>
      </trkpt>
      <trkpt lat="47.51739" lon="6.77488">
        <ele>389</ele>
        <time>2016-05-15T10:30:51.000Z</time>
      </trkpt>
      <trkpt lat="47.51742" lon="6.77486">
        <ele>389</ele>
        <time>2016-05-15T10:30:52.000Z</time>
      </trkpt>
      <trkpt lat="47.51746" lon="6.77487">
        <ele>389</ele>
        <time>2016-05-15T10:30:53.000Z</time>
      </trkpt>
      <trkpt lat="47.5175" lon="6.77489">
        <ele>389</ele>
        <time>2016-05-15T10:30:54.000Z</time>
      </trkpt>
      <trkpt lat="47.51753" lon="6.77491">
        <ele>389</ele>
        <time>2016-05-15T10:30:55.000Z</time>
      </trkpt>
      <trkpt lat="47.51757" lon="6.77492">
        <ele>389</ele>
        <time>2016-05-15T10:30:56.000Z</time>
      </trkpt>
      <trkpt lat="47.51761" lon="6.77493">
        <ele>389</ele>
        <time>2016-05-15T10:30:57.000Z</time>
      </trkpt>
      <trkpt lat="47.51764" lon="6.77493">
        <ele>389</ele>
        <time>2016-05-15T10:30:58.000Z</time>
      </trkpt>
      <trkpt lat="47.51767" lon="6.77493">
        <ele>389</ele>
        <time>2016-05-15T10:30:59.000Z</time>
      </trkpt>
      <trkpt lat="47.51771" lon="6.77494">
        <ele>389</ele>
        <time>2016-05-15T10:31:00.000Z</time>
      </trkpt>
      <trkpt lat="47.51774" lon="6.77494">
        <ele>389</ele>
        <time>2016-05-15T10:31:01.000Z</time>
      </trkpt>
      <trkpt lat="47.51777" lon="6.77495">
        <ele>388</ele>
        <time>2016-05-15T10:31:02.000Z</time>
      </trkpt>
      <trkpt lat="47.51781" lon="6.77495">
        <ele>388</ele>
        <time>2016-05-15T10:31:03.000Z</time>
      </trkpt>
      <trkpt lat="47.51784" lon="6.77496">
        <ele>388</ele>
        <time>2016-05-15T10:31:04.000Z</time>
      </trkpt>
      <trkpt lat="47.51787" lon="6.77498">
        <ele>388</ele>
        <time>2016-05-15T10:31:05.000Z</time>
      </trkpt>
      <trkpt lat="47.51791" lon="6.775">
        <ele>389</ele>
        <time>2016-05-15T10:31:06.000Z</time>
      </trkpt>
      <trkpt lat="47.51794" lon="6.77502">
        <ele>389</ele>
        <time>2016-05-15T10:31:07.000Z</time>
      </trkpt>
      <trkpt lat="47.51797" lon="6.77504">
        <ele>389</ele>
        <time>2016-05-15T10:31:08.000Z</time>
      </trkpt>
      <trkpt lat="47.51801" lon="6.77505">
        <ele>389</ele>
        <time>2016-05-15T10:31:09.000Z</time>
      </trkpt>
      <trkpt lat="47.51803" lon="6.77505">
        <ele>389</ele>
        <time>2016-05-15T10:31:10.000Z</time>
      </trkpt>
      <trkpt lat="47.51807" lon="6.77504">
        <ele>389</ele>
        <time>2016-05-15T10:31:13.000Z</time>
      </trkpt>
      <trkpt lat="47.51808" lon="6.77503">
        <ele>389</ele>
        <time>2016-05-15T10:31:14.000Z</time>
      </trkpt>
      <trkpt lat="47.51809" lon="6.775">
        <ele>389</ele>
        <time>2016-05-15T10:31:15.000Z</time>
      </trkpt>
      <trkpt lat="47.51809" lon="6.77495">
        <ele>388</ele>
        <time>2016-05-15T10:31:16.000Z</time>
      </trkpt>
      <trkpt lat="47.51809" lon="6.77489">
        <ele>388</ele>
        <time>2016-05-15T10:31:17.000Z</time>
      </trkpt>
      <trkpt lat="47.51806" lon="6.77473">
        <ele>388</ele>
        <time>2016-05-15T10:31:18.000Z</time>
      </trkpt>
      <trkpt lat="47.51804" lon="6.77468">
        <ele>388</ele>
        <time>2016-05-15T10:31:20.000Z</time>
      </trkpt>
      <trkpt lat="47.51803" lon="6.77466">
        <ele>388</ele>
        <time>2016-05-15T10:31:21.000Z</time>
      </trkpt>
      <trkpt lat="47.51799" lon="6.77465">
        <ele>388</ele>
        <time>2016-05-15T10:31:35.000Z</time>
      </trkpt>
      <trkpt lat="47.51799" lon="6.77465">
        <ele>388</ele>
        <time>2016-05-15T10:31:36.000Z</time>
      </trkpt>
      <trkpt lat="47.51795" lon="6.77462">
        <ele>388</ele>
        <time>2016-05-15T10:31:50.000Z</time>
      </trkpt>
      <trkpt lat="47.51795" lon="6.77462">
        <ele>388</ele>
        <time>2016-05-15T10:31:51.000Z</time>
      </trkpt>
      <trkpt lat="47.51797" lon="6.77466">
        <ele>388</ele>
        <time>2016-05-15T10:32:11.000Z</time>
      </trkpt>
      <trkpt lat="47.51797" lon="6.77468">
        <ele>388</ele>
        <time>2016-05-15T10:32:12.000Z</time>
      </trkpt>
      <trkpt lat="47.51797" lon="6.77473">
        <ele>388</ele>
        <time>2016-05-15T10:32:19.000Z</time>
      </trkpt>
      <trkpt lat="47.51797" lon="6.77475">
        <ele>388</ele>
        <time>2016-05-15T10:32:20.000Z</time>
      </trkpt>
      <trkpt lat="47.51802" lon="6.77474">
        <ele>388</ele>
        <time>2016-05-15T10:34:35.000Z</time>
      </trkpt>
      <trkpt lat="47.51802" lon="6.77474">
        <ele>388</ele>
        <time>2016-05-15T10:34:36.000Z</time>
      </trkpt>
      <trkpt lat="47.51803" lon="6.77474">
        <ele>388</ele>
        <time>2016-05-15T10:34:50.000Z</time>
      </trkpt>
    </trkseg>
  </trk>
</gpx>